<?xml version='1.0' encoding='UTF-8'?><gpx version="1.1" creator="JPX - https://github.com/jenetics/jpx" xmlns="http://www.topografix.com/GPX/1/1"><trk><trkseg><trkpt lat="45.97329511190466" lon="13.742965716051316"><ele>784.0</ele><time>2026-05-01T12:13:21Z</time></trkpt><trkpt lat="45.973299952782774" lon="13.743097624599903"><ele>784.0</ele><time>2026-05-01T12:13:23Z</time></trkpt><trkpt lat="45.973290011360476" lon="13.74322348277733"><ele>784.0</ele><time>2026-05-01T12:13:25Z</time></trkpt><trkpt lat="45.9732647504772" lon="13.743339058498455"><ele>784.0</ele><time>2026-05-01T12:13:27Z</time></trkpt><trkpt lat="45.973246497320936" lon="13.743468833824872"><ele>784.0</ele><time>2026-05-01T12:13:29Z</time></trkpt><trkpt lat="45.97324659973617" lon="13.743630925939799"><ele>784.5</ele><time>2026-05-01T12:13:31Z</time></trkpt><trkpt lat="45.9731910227306" lon="13.743859402541643"><ele>785.0</ele><time>2026-05-01T12:13:33Z</time></trkpt><trkpt lat="45.973094057216464" lon="13.743988243885921"><ele>785.5</ele><time>2026-05-01T12:13:34Z</time></trkpt><trkpt lat="45.97304047840174" lon="13.744144325600088"><ele>786.0</ele><time>2026-05-01T12:13:35Z</time></trkpt><trkpt lat="45.97300625351364" lon="13.744292471791901"><ele>785.0</ele><time>2026-05-01T12:13:36Z</time></trkpt><trkpt lat="45.97295672448258" lon="13.744417772669648"><ele>784.0</ele><time>2026-05-01T12:13:37Z</time></trkpt><trkpt lat="45.9729300144922" lon="13.744532670335722"><ele>783.0</ele><time>2026-05-01T12:13:38Z</time></trkpt><trkpt lat="45.97292362506338" lon="13.744648347576028"><ele>782.0</ele><time>2026-05-01T12:13:39Z</time></trkpt><trkpt lat="45.97294175069609" lon="13.744773531512145"><ele>781.0</ele><time>2026-05-01T12:13:40Z</time></trkpt><trkpt lat="45.972945484246914" lon="13.744899238421176"><ele>780.0</ele><time>2026-05-01T12:13:41Z</time></trkpt><trkpt lat="45.97294419180576" lon="13.745019661802017"><ele>780.0</ele><time>2026-05-01T12:13:42Z</time></trkpt><trkpt lat="45.97293889934528" lon="13.745134026782894"><ele>780.0</ele><time>2026-05-01T12:13:43Z</time></trkpt><trkpt lat="45.97293151553749" lon="13.745238325263543"><ele>780.0</ele><time>2026-05-01T12:13:44Z</time></trkpt><trkpt lat="45.97290288766581" lon="13.745428275356517"><ele>780.0</ele><time>2026-05-01T12:13:46Z</time></trkpt><trkpt lat="45.97287985534597" lon="13.745527639539842"><ele>780.0</ele><time>2026-05-01T12:13:47Z</time></trkpt><trkpt lat="45.97284734608305" lon="13.74563198970932"><ele>780.0</ele><time>2026-05-01T12:13:48Z</time></trkpt><trkpt lat="45.97280744222592" lon="13.745748563913743"><ele>779.0</ele><time>2026-05-01T12:13:49Z</time></trkpt><trkpt lat="45.97276485151596" lon="13.745871819805684"><ele>778.0</ele><time>2026-05-01T12:13:50Z</time></trkpt><trkpt lat="45.97272050128367" lon="13.74598857496966"><ele>777.0</ele><time>2026-05-01T12:13:51Z</time></trkpt><trkpt lat="45.972679211060814" lon="13.74607696362307"><ele>776.0</ele><time>2026-05-01T12:13:52Z</time></trkpt><trkpt lat="45.97261781018904" lon="13.746173402392884"><ele>775.0</ele><time>2026-05-01T12:13:54Z</time></trkpt><trkpt lat="45.97256929733528" lon="13.746247836359576"><ele>774.0</ele><time>2026-05-01T12:13:56Z</time></trkpt><trkpt lat="45.972579450297026" lon="13.746379202015124"><ele>772.8000000000001</ele><time>2026-05-01T12:13:57Z</time></trkpt><trkpt lat="45.97254423672404" lon="13.746499974973013"><ele>771.6</ele><time>2026-05-01T12:13:58Z</time></trkpt><trkpt lat="45.972516820554425" lon="13.746626108463698"><ele>770.4</ele><time>2026-05-01T12:13:59Z</time></trkpt><trkpt lat="45.972485887077006" lon="13.746761525776988"><ele>769.2</ele><time>2026-05-01T12:14:00Z</time></trkpt><trkpt lat="45.972451998694346" lon="13.746902065525525"><ele>768.0</ele><time>2026-05-01T12:14:01Z</time></trkpt><trkpt lat="45.97241660187746" lon="13.747048288387361"><ele>772.5</ele><time>2026-05-01T12:14:02Z</time></trkpt><trkpt lat="45.97237708610345" lon="13.747198890854396"><ele>777.0</ele><time>2026-05-01T12:14:03Z</time></trkpt><trkpt lat="45.97232905224142" lon="13.747350643255809"><ele>781.5</ele><time>2026-05-01T12:14:04Z</time></trkpt><trkpt lat="45.97227237405814" lon="13.747495297094924"><ele>786.0</ele><time>2026-05-01T12:14:05Z</time></trkpt><trkpt lat="45.9722171297166" lon="13.747640611124273"><ele>786.1999999999999</ele><time>2026-05-01T12:14:06Z</time></trkpt><trkpt lat="45.972176119863605" lon="13.747793187170771"><ele>786.4</ele><time>2026-05-01T12:14:07.001Z</time></trkpt><trkpt lat="45.972123828631965" lon="13.747930948397181"><ele>786.6</ele><time>2026-05-01T12:14:08.001Z</time></trkpt><trkpt lat="45.972083488227206" lon="13.748074106554919"><ele>786.8</ele><time>2026-05-01T12:14:09.001Z</time></trkpt><trkpt lat="45.97204916268074" lon="13.748215477607538"><ele>787.0</ele><time>2026-05-01T12:14:10.001Z</time></trkpt><trkpt lat="45.97201916318356" lon="13.74836407317186"><ele>787.0</ele><time>2026-05-01T12:14:11.001Z</time></trkpt><trkpt lat="45.97199331963961" lon="13.748509674842397"><ele>787.0</ele><time>2026-05-01T12:14:12.001Z</time></trkpt><trkpt lat="45.97196906758944" lon="13.748655309050736"><ele>787.0</ele><time>2026-05-01T12:14:13.001Z</time></trkpt><trkpt lat="45.97194574142438" lon="13.748802359583237"><ele>787.0</ele><time>2026-05-01T12:14:14.001Z</time></trkpt><trkpt lat="45.97191419791924" lon="13.748952981343727"><ele>787.0</ele><time>2026-05-01T12:14:15.001Z</time></trkpt><trkpt lat="45.9718788117393" lon="13.74910384340983"><ele>788.2</ele><time>2026-05-01T12:14:16.001Z</time></trkpt><trkpt lat="45.97183350710585" lon="13.749244431336452"><ele>789.4000000000001</ele><time>2026-05-01T12:14:17.001Z</time></trkpt><trkpt lat="45.97178131469585" lon="13.74937872802316"><ele>790.5999999999999</ele><time>2026-05-01T12:14:18.001Z</time></trkpt><trkpt lat="45.97172457332035" lon="13.749490463840601"><ele>791.8</ele><time>2026-05-01T12:14:19.001Z</time></trkpt><trkpt lat="45.97164809187649" lon="13.749571628558467"><ele>793.0</ele><time>2026-05-01T12:14:20.001Z</time></trkpt><trkpt lat="45.971560110102814" lon="13.749634029787316"><ele>793.0</ele><time>2026-05-01T12:14:21.001Z</time></trkpt><trkpt lat="45.97145787052008" lon="13.749676550687571"><ele>793.0</ele><time>2026-05-01T12:14:22.001Z</time></trkpt><trkpt lat="45.97134836608166" lon="13.749722349763868"><ele>793.0</ele><time>2026-05-01T12:14:23.001Z</time></trkpt><trkpt lat="45.97124479794901" lon="13.749803368661198"><ele>793.0</ele><time>2026-05-01T12:14:24.001Z</time></trkpt><trkpt lat="45.97113525547227" lon="13.74987442081634"><ele>793.0</ele><time>2026-05-01T12:14:25.001Z</time></trkpt><trkpt lat="45.97103460812878" lon="13.749967979040164"><ele>793.0</ele><time>2026-05-01T12:14:26.001Z</time></trkpt><trkpt lat="45.97094115483264" lon="13.75007888459468"><ele>793.0</ele><time>2026-05-01T12:14:27.001Z</time></trkpt><trkpt lat="45.97085195229518" lon="13.750188241990344"><ele>793.0</ele><time>2026-05-01T12:14:28.001Z</time></trkpt><trkpt lat="45.97076191091993" lon="13.75029743005569"><ele>793.0</ele><time>2026-05-01T12:14:29.001Z</time></trkpt><trkpt lat="45.97068019897745" lon="13.750415495541352"><ele>793.0</ele><time>2026-05-01T12:14:30Z</time></trkpt><trkpt lat="45.97060819262051" lon="13.750547006331262"><ele>793.0</ele><time>2026-05-01T12:14:31Z</time></trkpt><trkpt lat="45.97055506206784" lon="13.750696232294265"><ele>793.0</ele><time>2026-05-01T12:14:32Z</time></trkpt><trkpt lat="45.97051709170314" lon="13.750854231745352"><ele>793.0</ele><time>2026-05-01T12:14:33Z</time></trkpt><trkpt lat="45.970460126292785" lon="13.75099533560671"><ele>793.0</ele><time>2026-05-01T12:14:34Z</time></trkpt><trkpt lat="45.97040539922745" lon="13.751128898058893"><ele>793.0</ele><time>2026-05-01T12:14:35Z</time></trkpt><trkpt lat="45.97032135796597" lon="13.751233040992126"><ele>793.0</ele><time>2026-05-01T12:14:36Z</time></trkpt><trkpt lat="45.97024740237468" lon="13.751376962967255"><ele>794.25</ele><time>2026-05-01T12:14:37Z</time></trkpt><trkpt lat="45.97015951481544" lon="13.751520722317716"><ele>795.5</ele><time>2026-05-01T12:14:38Z</time></trkpt><trkpt lat="45.970098549878045" lon="13.751686761745807"><ele>796.75</ele><time>2026-05-01T12:14:39Z</time></trkpt><trkpt lat="45.97006741103831" lon="13.751872970935421"><ele>798.0</ele><time>2026-05-01T12:14:40Z</time></trkpt><trkpt lat="45.97005678680083" lon="13.752060569436047"><ele>800.0</ele><time>2026-05-01T12:14:41Z</time></trkpt><trkpt lat="45.97004439584273" lon="13.752229542515996"><ele>802.0</ele><time>2026-05-01T12:14:42Z</time></trkpt><trkpt lat="45.969997595499756" lon="13.75236999771834"><ele>804.0</ele><time>2026-05-01T12:14:43Z</time></trkpt><trkpt lat="45.969944371421356" lon="13.75252189542041"><ele>806.0</ele><time>2026-05-01T12:14:44Z</time></trkpt><trkpt lat="45.96988385715583" lon="13.752680549850332"><ele>806.75</ele><time>2026-05-01T12:14:45Z</time></trkpt><trkpt lat="45.96980152297449" lon="13.752830422663806"><ele>807.5</ele><time>2026-05-01T12:14:46Z</time></trkpt><trkpt lat="45.96972595154351" lon="13.752983365805527"><ele>808.25</ele><time>2026-05-01T12:14:47Z</time></trkpt><trkpt lat="45.96965492184094" lon="13.753138671467706"><ele>809.0</ele><time>2026-05-01T12:14:48Z</time></trkpt><trkpt lat="45.96956931399826" lon="13.75327542130972"><ele>809.0</ele><time>2026-05-01T12:14:49Z</time></trkpt><trkpt lat="45.969460952785994" lon="13.753385936549972"><ele>809.0</ele><time>2026-05-01T12:14:50Z</time></trkpt><trkpt lat="45.9693284735726" lon="13.75348024322355"><ele>809.0</ele><time>2026-05-01T12:14:51Z</time></trkpt><trkpt lat="45.969201535782425" lon="13.75357922820053"><ele>809.0</ele><time>2026-05-01T12:14:52Z</time></trkpt><trkpt lat="45.969077288559426" lon="13.753683321762574"><ele>808.6666666666667</ele><time>2026-05-01T12:14:53Z</time></trkpt><trkpt lat="45.96893590573241" lon="13.75373146504586"><ele>808.3333333333333</ele><time>2026-05-01T12:14:54Z</time></trkpt><trkpt lat="45.96877443385451" lon="13.753751196506009"><ele>808.0</ele><time>2026-05-01T12:14:55Z</time></trkpt><trkpt lat="45.96861710448284" lon="13.75381145183918"><ele>808.0</ele><time>2026-05-01T12:14:56Z</time></trkpt><trkpt lat="45.96847465312057" lon="13.753856801162641"><ele>808.0</ele><time>2026-05-01T12:14:57Z</time></trkpt><trkpt lat="45.96834166654105" lon="13.753920795679484"><ele>808.0</ele><time>2026-05-01T12:14:58Z</time></trkpt><trkpt lat="45.96821799121203" lon="13.754008410670021"><ele>808.0</ele><time>2026-05-01T12:14:59Z</time></trkpt><trkpt lat="45.96811516586578" lon="13.75412102478952"><ele>810.25</ele><time>2026-05-01T12:15:00Z</time></trkpt><trkpt lat="45.968017823972815" lon="13.754228685467147"><ele>812.5</ele><time>2026-05-01T12:15:01Z</time></trkpt><trkpt lat="45.9679275280628" lon="13.754337980268243"><ele>814.75</ele><time>2026-05-01T12:15:02Z</time></trkpt><trkpt lat="45.96784037678819" lon="13.754445236244873"><ele>817.0</ele><time>2026-05-01T12:15:03Z</time></trkpt><trkpt lat="45.96776711977068" lon="13.754562261702258"><ele>818.25</ele><time>2026-05-01T12:15:04Z</time></trkpt><trkpt lat="45.967665560774165" lon="13.754652018692603"><ele>819.5</ele><time>2026-05-01T12:15:05Z</time></trkpt><trkpt lat="45.967564779128864" lon="13.754786923083854"><ele>820.75</ele><time>2026-05-01T12:15:06Z</time></trkpt><trkpt lat="45.96747516927579" lon="13.754937968527036"><ele>822.0</ele><time>2026-05-01T12:15:07Z</time></trkpt><trkpt lat="45.96739338918569" lon="13.755072731614668"><ele>822.0</ele><time>2026-05-01T12:15:08Z</time></trkpt><trkpt lat="45.96732226015634" lon="13.755194373787138"><ele>822.0</ele><time>2026-05-01T12:15:09Z</time></trkpt><trkpt lat="45.96725022683325" lon="13.755278920786107"><ele>822.0</ele><time>2026-05-01T12:15:10Z</time></trkpt><trkpt lat="45.96716767796012" lon="13.755298448721552"><ele>822.0</ele><time>2026-05-01T12:15:11Z</time></trkpt><trkpt lat="45.967075155157374" lon="13.755231317080852"><ele>822.0</ele><time>2026-05-01T12:15:12Z</time></trkpt><trkpt lat="45.96699672036804" lon="13.755144571048904"><ele>822.0</ele><time>2026-05-01T12:15:13Z</time></trkpt><trkpt lat="45.96688419389008" lon="13.755098077704552"><ele>822.0</ele><time>2026-05-01T12:15:14Z</time></trkpt><trkpt lat="45.966756541605264" lon="13.755061566806244"><ele>822.0</ele><time>2026-05-01T12:15:15Z</time></trkpt><trkpt lat="45.96662778126999" lon="13.75507299782843"><ele>822.0</ele><time>2026-05-01T12:15:16Z</time></trkpt><trkpt lat="45.96650630862509" lon="13.755101429335234"><ele>822.2</ele><time>2026-05-01T12:15:17Z</time></trkpt><trkpt lat="45.966401754647144" lon="13.755104380033096"><ele>822.4000000000001</ele><time>2026-05-01T12:15:18Z</time></trkpt><trkpt lat="45.96631241201135" lon="13.755032709946978"><ele>822.5999999999999</ele><time>2026-05-01T12:15:19Z</time></trkpt><trkpt lat="45.96622793112932" lon="13.754954769803952"><ele>822.8</ele><time>2026-05-01T12:15:20Z</time></trkpt><trkpt lat="45.96611977803546" lon="13.754902566755932"><ele>823.0</ele><time>2026-05-01T12:15:21Z</time></trkpt><trkpt lat="45.966027614879906" lon="13.754833115354662"><ele>823.0</ele><time>2026-05-01T12:15:22Z</time></trkpt><trkpt lat="45.96593204461029" lon="13.754769941614871"><ele>823.0</ele><time>2026-05-01T12:15:23Z</time></trkpt><trkpt lat="45.96580990449498" lon="13.754828026934273"><ele>823.0</ele><time>2026-05-01T12:15:24Z</time></trkpt><trkpt lat="45.96569585988458" lon="13.754883248425259"><ele>823.0</ele><time>2026-05-01T12:15:25Z</time></trkpt><trkpt lat="45.965587216613514" lon="13.7549507428732"><ele>824.2</ele><time>2026-05-01T12:15:26Z</time></trkpt><trkpt lat="45.96549324959879" lon="13.755019929649452"><ele>825.4</ele><time>2026-05-01T12:15:27Z</time></trkpt><trkpt lat="45.96541561239417" lon="13.755119673725344"><ele>826.6</ele><time>2026-05-01T12:15:28Z</time></trkpt><trkpt lat="45.965361869731176" lon="13.755257291859234"><ele>827.8000000000001</ele><time>2026-05-01T12:15:29Z</time></trkpt><trkpt lat="45.9653353604867" lon="13.755416057983"><ele>829.0</ele><time>2026-05-01T12:15:30Z</time></trkpt><trkpt lat="45.96530985330935" lon="13.755573793993706"><ele>831.5</ele><time>2026-05-01T12:15:31Z</time></trkpt><trkpt lat="45.96525302732672" lon="13.755711351475348"><ele>834.0</ele><time>2026-05-01T12:15:32Z</time></trkpt><trkpt lat="45.965181082529426" lon="13.755834090646404"><ele>836.5</ele><time>2026-05-01T12:15:33Z</time></trkpt><trkpt lat="45.96510425943299" lon="13.755966750570408"><ele>839.0</ele><time>2026-05-01T12:15:34Z</time></trkpt><trkpt lat="45.96501983897773" lon="13.756085637880798"><ele>840.5</ele><time>2026-05-01T12:15:35Z</time></trkpt><trkpt lat="45.964941828114874" lon="13.756217445874643"><ele>842.0</ele><time>2026-05-01T12:15:36Z</time></trkpt><trkpt lat="45.96486426666045" lon="13.756353337561045"><ele>843.5</ele><time>2026-05-01T12:15:37Z</time></trkpt><trkpt lat="45.96478572561466" lon="13.756491362768225"><ele>845.0</ele><time>2026-05-01T12:15:38Z</time></trkpt><trkpt lat="45.964688856002425" lon="13.756609211288326"><ele>845.0</ele><time>2026-05-01T12:15:39Z</time></trkpt><trkpt lat="45.96459200520285" lon="13.756735377329477"><ele>845.0</ele><time>2026-05-01T12:15:40Z</time></trkpt><trkpt lat="45.96450109457164" lon="13.756877208110451"><ele>845.0</ele><time>2026-05-01T12:15:41Z</time></trkpt><trkpt lat="45.964400503950586" lon="13.75700148522263"><ele>845.0</ele><time>2026-05-01T12:15:42Z</time></trkpt><trkpt lat="45.964299344112334" lon="13.757119789598324"><ele>846.25</ele><time>2026-05-01T12:15:43Z</time></trkpt><trkpt lat="45.96419924682638" lon="13.757232457073961"><ele>847.5</ele><time>2026-05-01T12:15:44Z</time></trkpt><trkpt lat="45.964101562228116" lon="13.757342493440225"><ele>848.75</ele><time>2026-05-01T12:15:45Z</time></trkpt><trkpt lat="45.96401169414597" lon="13.757437436488162"><ele>850.0</ele><time>2026-05-01T12:15:46Z</time></trkpt><trkpt lat="45.96391927274086" lon="13.757512291197195"><ele>850.0</ele><time>2026-05-01T12:15:47Z</time></trkpt><trkpt lat="45.9638142600152" lon="13.75756701529469"><ele>850.0</ele><time>2026-05-01T12:15:48Z</time></trkpt><trkpt lat="45.96370475265049" lon="13.75761306313484"><ele>850.0</ele><time>2026-05-01T12:15:49Z</time></trkpt><trkpt lat="45.96358807268453" lon="13.757663332329544"><ele>850.0</ele><time>2026-05-01T12:15:50Z</time></trkpt><trkpt lat="45.96347368373429" lon="13.757724006974426"><ele>851.6</ele><time>2026-05-01T12:15:51Z</time></trkpt><trkpt lat="45.96336392303849" lon="13.757806360246104"><ele>853.2</ele><time>2026-05-01T12:15:52Z</time></trkpt><trkpt lat="45.96326631527218" lon="13.757894451462787"><ele>854.8</ele><time>2026-05-01T12:15:53Z</time></trkpt><trkpt lat="45.963195074275" lon="13.757991031370945"><ele>856.4</ele><time>2026-05-01T12:15:54Z</time></trkpt><trkpt lat="45.963144272107066" lon="13.758126695661467"><ele>858.0</ele><time>2026-05-01T12:15:55Z</time></trkpt><trkpt lat="45.96310577468934" lon="13.758286330731567"><ele>858.0</ele><time>2026-05-01T12:15:56Z</time></trkpt><trkpt lat="45.963071239749524" lon="13.758456262621218"><ele>858.0</ele><time>2026-05-01T12:15:57Z</time></trkpt><trkpt lat="45.9630275588396" lon="13.758634279890098"><ele>858.0</ele><time>2026-05-01T12:15:58Z</time></trkpt><trkpt lat="45.962980200846296" lon="13.75881765190768"><ele>858.0</ele><time>2026-05-01T12:15:59Z</time></trkpt><trkpt lat="45.96292685864786" lon="13.758983824461591"><ele>860.5</ele><time>2026-05-01T12:16:00Z</time></trkpt><trkpt lat="45.962853312348344" lon="13.759125124341667"><ele>863.0</ele><time>2026-05-01T12:16:01Z</time></trkpt><trkpt lat="45.96274495868566" lon="13.759226076937216"><ele>865.5</ele><time>2026-05-01T12:16:02Z</time></trkpt><trkpt lat="45.9626487910654" lon="13.759334930678133"><ele>868.0</ele><time>2026-05-01T12:16:03Z</time></trkpt><trkpt lat="45.96255589492829" lon="13.759426852329977"><ele>868.0</ele><time>2026-05-01T12:16:04Z</time></trkpt><trkpt lat="45.96248267834152" lon="13.759549941090595"><ele>868.0</ele><time>2026-05-01T12:16:05Z</time></trkpt><trkpt lat="45.96242621784535" lon="13.75970618654011"><ele>868.0</ele><time>2026-05-01T12:16:06Z</time></trkpt><trkpt lat="45.9623681466464" lon="13.759874557176966"><ele>868.0</ele><time>2026-05-01T12:16:07Z</time></trkpt><trkpt lat="45.9622746896817" lon="13.76000500196204"><ele>868.0</ele><time>2026-05-01T12:16:08Z</time></trkpt><trkpt lat="45.96217151237751" lon="13.760126037571016"><ele>868.0</ele><time>2026-05-01T12:16:09Z</time></trkpt><trkpt lat="45.96206377701647" lon="13.760249123237672"><ele>868.0</ele><time>2026-05-01T12:16:10Z</time></trkpt><trkpt lat="45.961952990231815" lon="13.760374169581631"><ele>868.0</ele><time>2026-05-01T12:16:11Z</time></trkpt><trkpt lat="45.96184359437207" lon="13.760489466048991"><ele>869.0</ele><time>2026-05-01T12:16:12Z</time></trkpt><trkpt lat="45.96173610201875" lon="13.760590567027293"><ele>870.0</ele><time>2026-05-01T12:16:13Z</time></trkpt><trkpt lat="45.961625728516815" lon="13.760664032811304"><ele>871.0</ele><time>2026-05-01T12:16:14Z</time></trkpt><trkpt lat="45.961512385507234" lon="13.76068798306891"><ele>872.0</ele><time>2026-05-01T12:16:15Z</time></trkpt><trkpt lat="45.96138615501643" lon="13.76069751281878"><ele>872.0</ele><time>2026-05-01T12:16:16Z</time></trkpt><trkpt lat="45.96124758616599" lon="13.760712215531848"><ele>872.0</ele><time>2026-05-01T12:16:17Z</time></trkpt><trkpt lat="45.961110076938375" lon="13.760748667265727"><ele>872.0</ele><time>2026-05-01T12:16:18Z</time></trkpt><trkpt lat="45.96099972071105" lon="13.760779354160729"><ele>872.0</ele><time>2026-05-01T12:16:19Z</time></trkpt><trkpt lat="45.96090727364186" lon="13.760858113765842"><ele>871.5</ele><time>2026-05-01T12:16:20Z</time></trkpt><trkpt lat="45.960820454205184" lon="13.760988189908472"><ele>871.0</ele><time>2026-05-01T12:16:21Z</time></trkpt><trkpt lat="45.96073568778172" lon="13.761128983243763"><ele>870.5</ele><time>2026-05-01T12:16:22Z</time></trkpt><trkpt lat="45.960639868750214" lon="13.761234970730381"><ele>870.0</ele><time>2026-05-01T12:16:23Z</time></trkpt><trkpt lat="45.960550070231875" lon="13.761367824486248"><ele>873.5</ele><time>2026-05-01T12:16:24Z</time></trkpt><trkpt lat="45.96048805205508" lon="13.761550600103613"><ele>877.0</ele><time>2026-05-01T12:16:25Z</time></trkpt><trkpt lat="45.960414571944376" lon="13.761717454518902"><ele>880.5</ele><time>2026-05-01T12:16:26Z</time></trkpt><trkpt lat="45.96033206626251" lon="13.761849850861593"><ele>884.0</ele><time>2026-05-01T12:16:27Z</time></trkpt><trkpt lat="45.96023446522773" lon="13.7619342054512"><ele>883.0</ele><time>2026-05-01T12:16:28Z</time></trkpt><trkpt lat="45.960134459440965" lon="13.761973174858287"><ele>882.0</ele><time>2026-05-01T12:16:29Z</time></trkpt><trkpt lat="45.96002459034524" lon="13.761986055987032"><ele>881.0</ele><time>2026-05-01T12:16:30Z</time></trkpt><trkpt lat="45.959903892388795" lon="13.762019859831112"><ele>880.0</ele><time>2026-05-01T12:16:31Z</time></trkpt><trkpt lat="45.95978693497758" lon="13.762031826288396"><ele>880.0</ele><time>2026-05-01T12:16:32Z</time></trkpt><trkpt lat="45.95967514301683" lon="13.762083705951852"><ele>880.0</ele><time>2026-05-01T12:16:33Z</time></trkpt><trkpt lat="45.9595572082041" lon="13.762175443651145"><ele>880.0</ele><time>2026-05-01T12:16:34Z</time></trkpt><trkpt lat="45.95945985474623" lon="13.762284961197894"><ele>880.0</ele><time>2026-05-01T12:16:35Z</time></trkpt><trkpt lat="45.95936562414003" lon="13.762408194481973"><ele>880.0</ele><time>2026-05-01T12:16:36Z</time></trkpt><trkpt lat="45.959279556601885" lon="13.76254425942487"><ele>880.0</ele><time>2026-05-01T12:16:37Z</time></trkpt><trkpt lat="45.95916703355025" lon="13.762622566605302"><ele>880.0</ele><time>2026-05-01T12:16:38Z</time></trkpt><trkpt lat="45.95905261204082" lon="13.76269371065602"><ele>880.0</ele><time>2026-05-01T12:16:39Z</time></trkpt><trkpt lat="45.95892923997783" lon="13.762775093538934"><ele>881.25</ele><time>2026-05-01T12:16:40Z</time></trkpt><trkpt lat="45.958825579372814" lon="13.76284954501756"><ele>882.5</ele><time>2026-05-01T12:16:41Z</time></trkpt><trkpt lat="45.95872200096275" lon="13.762951663425245"><ele>883.75</ele><time>2026-05-01T12:16:42Z</time></trkpt><trkpt lat="45.958652163291056" lon="13.763113707724553"><ele>885.0</ele><time>2026-05-01T12:16:43Z</time></trkpt><trkpt lat="45.958603560492186" lon="13.763276164213751"><ele>885.0</ele><time>2026-05-01T12:16:44Z</time></trkpt><trkpt lat="45.95857967428018" lon="13.763459335554112"><ele>885.0</ele><time>2026-05-01T12:16:45Z</time></trkpt><trkpt lat="45.958546874332946" lon="13.763659749373145"><ele>885.0</ele><time>2026-05-01T12:16:46Z</time></trkpt><trkpt lat="45.95855147882525" lon="13.76377794835941"><ele>885.0</ele><time>2026-05-01T12:16:47Z</time></trkpt><trkpt lat="45.9585475099676" lon="13.763982806381362"><ele>886.25</ele><time>2026-05-01T12:16:48Z</time></trkpt><trkpt lat="45.95855409675199" lon="13.7641835707915"><ele>887.5</ele><time>2026-05-01T12:16:49Z</time></trkpt><trkpt lat="45.95857170925449" lon="13.764370314936789"><ele>888.75</ele><time>2026-05-01T12:16:50Z</time></trkpt><trkpt lat="45.958543695067945" lon="13.764530131231657"><ele>890.0</ele><time>2026-05-01T12:16:51Z</time></trkpt><trkpt lat="45.95850534715742" lon="13.764683723188826"><ele>890.0</ele><time>2026-05-01T12:16:52Z</time></trkpt><trkpt lat="45.95845024849508" lon="13.76482444207832"><ele>890.0</ele><time>2026-05-01T12:16:53Z</time></trkpt><trkpt lat="45.95837973640074" lon="13.764972757367147"><ele>890.0</ele><time>2026-05-01T12:16:54Z</time></trkpt><trkpt lat="45.958294277709605" lon="13.765135447535467"><ele>890.0</ele><time>2026-05-01T12:16:55Z</time></trkpt><trkpt lat="45.9582054838752" lon="13.765289623974894"><ele>889.75</ele><time>2026-05-01T12:16:56Z</time></trkpt><trkpt lat="45.95811710571213" lon="13.765433942046768"><ele>889.5</ele><time>2026-05-01T12:16:57Z</time></trkpt><trkpt lat="45.9580215512102" lon="13.765585947663226"><ele>889.25</ele><time>2026-05-01T12:16:58Z</time></trkpt><trkpt lat="45.95792510656155" lon="13.765733885018191"><ele>889.0</ele><time>2026-05-01T12:16:59Z</time></trkpt><trkpt lat="45.95782768320755" lon="13.765881015316085"><ele>889.0</ele><time>2026-05-01T12:17:00Z</time></trkpt><trkpt lat="45.95773826172198" lon="13.766007811270994"><ele>889.0</ele><time>2026-05-01T12:17:01Z</time></trkpt><trkpt lat="45.95765417810678" lon="13.76611213972553"><ele>889.0</ele><time>2026-05-01T12:17:02Z</time></trkpt><trkpt lat="45.95756731194656" lon="13.766187294605507"><ele>889.0</ele><time>2026-05-01T12:17:03Z</time></trkpt><trkpt lat="45.9574564711265" lon="13.766247327099304"><ele>889.0</ele><time>2026-05-01T12:17:04Z</time></trkpt><trkpt lat="45.957343702902286" lon="13.766335074627838"><ele>889.0</ele><time>2026-05-01T12:17:05Z</time></trkpt><trkpt lat="45.957237743753545" lon="13.766441426631602"><ele>889.0</ele><time>2026-05-01T12:17:06Z</time></trkpt><trkpt lat="45.95713160221526" lon="13.766502803994415"><ele>889.0</ele><time>2026-05-01T12:17:07Z</time></trkpt><trkpt lat="45.95703761415684" lon="13.766600103218613"><ele>889.0</ele><time>2026-05-01T12:17:08Z</time></trkpt><trkpt lat="45.95695391319806" lon="13.76673228682378"><ele>889.0</ele><time>2026-05-01T12:17:09Z</time></trkpt><trkpt lat="45.956893911492394" lon="13.766891159173248"><ele>889.0</ele><time>2026-05-01T12:17:10Z</time></trkpt><trkpt lat="45.95681782311474" lon="13.767019510755931"><ele>889.0</ele><time>2026-05-01T12:17:11Z</time></trkpt><trkpt lat="45.95674358961526" lon="13.767149639525094"><ele>890.8000000000001</ele><time>2026-05-01T12:17:12Z</time></trkpt><trkpt lat="45.95666176021944" lon="13.767261940046346"><ele>892.6000000000001</ele><time>2026-05-01T12:17:13Z</time></trkpt><trkpt lat="45.956566968908994" lon="13.767342575768636"><ele>894.4</ele><time>2026-05-01T12:17:14Z</time></trkpt><trkpt lat="45.9564642533614" lon="13.76738148089681"><ele>896.2</ele><time>2026-05-01T12:17:15Z</time></trkpt><trkpt lat="45.95636602700314" lon="13.767425369279179"><ele>898.0</ele><time>2026-05-01T12:17:16Z</time></trkpt><trkpt lat="45.956257740489235" lon="13.767471143027418"><ele>898.0</ele><time>2026-05-01T12:17:17Z</time></trkpt><trkpt lat="45.95614148289676" lon="13.767514699219886"><ele>898.0</ele><time>2026-05-01T12:17:18Z</time></trkpt><trkpt lat="45.95604378447513" lon="13.767585288210563"><ele>898.0</ele><time>2026-05-01T12:17:19Z</time></trkpt><trkpt lat="45.95589137745338" lon="13.767640110214183"><ele>898.0</ele><time>2026-05-01T12:17:20Z</time></trkpt><trkpt lat="45.955756800064016" lon="13.767717671287368"><ele>898.75</ele><time>2026-05-01T12:17:21Z</time></trkpt><trkpt lat="45.955630735431455" lon="13.767800667387519"><ele>899.5</ele><time>2026-05-01T12:17:22Z</time></trkpt><trkpt lat="45.9555141418714" lon="13.767894575119806"><ele>900.25</ele><time>2026-05-01T12:17:23Z</time></trkpt><trkpt lat="45.955403807216996" lon="13.768007220984794"><ele>901.0</ele><time>2026-05-01T12:17:24Z</time></trkpt><trkpt lat="45.955292095567906" lon="13.768120269634464"><ele>901.0</ele><time>2026-05-01T12:17:25Z</time></trkpt><trkpt lat="45.95518637429027" lon="13.768237962464982"><ele>901.0</ele><time>2026-05-01T12:17:26Z</time></trkpt><trkpt lat="45.955092470685805" lon="13.768367599260282"><ele>901.0</ele><time>2026-05-01T12:17:27Z</time></trkpt><trkpt lat="45.95499505230007" lon="13.768493967729585"><ele>901.0</ele><time>2026-05-01T12:17:28Z</time></trkpt><trkpt lat="45.95488779719628" lon="13.76859291969118"><ele>902.75</ele><time>2026-05-01T12:17:29Z</time></trkpt><trkpt lat="45.954786542806104" lon="13.768701147460447"><ele>904.5</ele><time>2026-05-01T12:17:30Z</time></trkpt><trkpt lat="45.95468860704477" lon="13.768794386371066"><ele>906.25</ele><time>2026-05-01T12:17:31Z</time></trkpt><trkpt lat="45.95458946287022" lon="13.76885158070034"><ele>908.0</ele><time>2026-05-01T12:17:32Z</time></trkpt><trkpt lat="45.95447941899002" lon="13.768855559555933"><ele>908.0</ele><time>2026-05-01T12:17:33Z</time></trkpt><trkpt lat="45.9543461964872" lon="13.768854661885555"><ele>908.0</ele><time>2026-05-01T12:17:34Z</time></trkpt><trkpt lat="45.95422097178367" lon="13.768861534303396"><ele>908.0</ele><time>2026-05-01T12:17:35Z</time></trkpt><trkpt lat="45.954097477343964" lon="13.768886263627119"><ele>908.0</ele><time>2026-05-01T12:17:36Z</time></trkpt><trkpt lat="45.95397603371531" lon="13.768912166602743"><ele>907.5</ele><time>2026-05-01T12:17:37Z</time></trkpt><trkpt lat="45.95385994679935" lon="13.768907234703313"><ele>907.0</ele><time>2026-05-01T12:17:38Z</time></trkpt><trkpt lat="45.95373043242116" lon="13.768912283239715"><ele>906.5</ele><time>2026-05-01T12:17:39Z</time></trkpt><trkpt lat="45.95362794003223" lon="13.768904328286158"><ele>906.0</ele><time>2026-05-01T12:17:40Z</time></trkpt><trkpt lat="45.953490215973595" lon="13.768883680957735"><ele>905.0</ele><time>2026-05-01T12:17:41Z</time></trkpt><trkpt lat="45.95336721277614" lon="13.768856970153786"><ele>904.0</ele><time>2026-05-01T12:17:42Z</time></trkpt><trkpt lat="45.9532579956793" lon="13.768806895268463"><ele>903.0</ele><time>2026-05-01T12:17:43Z</time></trkpt><trkpt lat="45.9531406588552" lon="13.76877305969206"><ele>902.0</ele><time>2026-05-01T12:17:44Z</time></trkpt><trkpt lat="45.95301550515409" lon="13.768726252484475"><ele>902.0</ele><time>2026-05-01T12:17:45Z</time></trkpt><trkpt lat="45.95288038584008" lon="13.76867854362952"><ele>902.0</ele><time>2026-05-01T12:17:46Z</time></trkpt><trkpt lat="45.95274645163422" lon="13.768680562876963"><ele>902.0</ele><time>2026-05-01T12:17:47Z</time></trkpt><trkpt lat="45.95261872458544" lon="13.768672892539115"><ele>902.0</ele><time>2026-05-01T12:17:48Z</time></trkpt><trkpt lat="45.9524867490364" lon="13.76869577760861"><ele>905.25</ele><time>2026-05-01T12:17:49Z</time></trkpt><trkpt lat="45.952351752763406" lon="13.768736194393677"><ele>908.5</ele><time>2026-05-01T12:17:50Z</time></trkpt><trkpt lat="45.952209549102356" lon="13.768764211093456"><ele>911.75</ele><time>2026-05-01T12:17:51Z</time></trkpt><trkpt lat="45.95206430439259" lon="13.768784658658834"><ele>915.0</ele><time>2026-05-01T12:17:52Z</time></trkpt><trkpt lat="45.951906610447956" lon="13.76882355598367"><ele>915.0</ele><time>2026-05-01T12:17:53Z</time></trkpt><trkpt lat="45.9517531494722" lon="13.768859521423668"><ele>915.0</ele><time>2026-05-01T12:17:54Z</time></trkpt><trkpt lat="45.95161655044783" lon="13.768898146060163"><ele>915.0</ele><time>2026-05-01T12:17:55Z</time></trkpt><trkpt lat="45.951484702955895" lon="13.76896019988294"><ele>915.0</ele><time>2026-05-01T12:17:56Z</time></trkpt><trkpt lat="45.95135343684151" lon="13.769008151087137"><ele>913.5</ele><time>2026-05-01T12:17:57Z</time></trkpt><trkpt lat="45.951213065979" lon="13.76904028936637"><ele>912.0</ele><time>2026-05-01T12:17:58Z</time></trkpt><trkpt lat="45.951077583895064" lon="13.769092180442632"><ele>910.5</ele><time>2026-05-01T12:17:59Z</time></trkpt><trkpt lat="45.95094122047167" lon="13.76914653115204"><ele>909.0</ele><time>2026-05-01T12:18:00Z</time></trkpt><trkpt lat="45.95079951367826" lon="13.769203011526145"><ele>907.25</ele><time>2026-05-01T12:18:01Z</time></trkpt><trkpt lat="45.95066396968672" lon="13.769257035675858"><ele>905.5</ele><time>2026-05-01T12:18:02Z</time></trkpt><trkpt lat="45.95053792295004" lon="13.76930738414673"><ele>903.75</ele><time>2026-05-01T12:18:03Z</time></trkpt><trkpt lat="45.950414124309724" lon="13.769363704639193"><ele>902.0</ele><time>2026-05-01T12:18:04Z</time></trkpt><trkpt lat="45.9503019445605" lon="13.769462028405227"><ele>904.5</ele><time>2026-05-01T12:18:05Z</time></trkpt><trkpt lat="45.95019330284909" lon="13.769539915844911"><ele>907.0</ele><time>2026-05-01T12:18:06Z</time></trkpt><trkpt lat="45.9501008158544" lon="13.769667370296537"><ele>909.5</ele><time>2026-05-01T12:18:07Z</time></trkpt><trkpt lat="45.950017485113364" lon="13.769833902701386"><ele>912.0</ele><time>2026-05-01T12:18:08Z</time></trkpt><trkpt lat="45.949920516635714" lon="13.769994852251651"><ele>916.0</ele><time>2026-05-01T12:18:09Z</time></trkpt><trkpt lat="45.94985416027107" lon="13.770194882503056"><ele>920.0</ele><time>2026-05-01T12:18:10Z</time></trkpt><trkpt lat="45.94978616696218" lon="13.770374646784916"><ele>924.0</ele><time>2026-05-01T12:18:11Z</time></trkpt><trkpt lat="45.949741338214366" lon="13.770565638360113"><ele>928.0</ele><time>2026-05-01T12:18:12Z</time></trkpt><trkpt lat="45.949730444338435" lon="13.770763763762652"><ele>928.0</ele><time>2026-05-01T12:18:13Z</time></trkpt><trkpt lat="45.94968560309391" lon="13.770950871739624"><ele>928.0</ele><time>2026-05-01T12:18:14Z</time></trkpt><trkpt lat="45.94964750554573" lon="13.77115285684356"><ele>928.0</ele><time>2026-05-01T12:18:15Z</time></trkpt><trkpt lat="45.9495919474101" lon="13.771360314571602"><ele>928.0</ele><time>2026-05-01T12:18:16Z</time></trkpt><trkpt lat="45.94950467186791" lon="13.771596768214739"><ele>931.6666666666666</ele><time>2026-05-01T12:18:17Z</time></trkpt><trkpt lat="45.949414849899235" lon="13.771803735461644"><ele>935.3333333333333</ele><time>2026-05-01T12:18:18Z</time></trkpt><trkpt lat="45.94931762195148" lon="13.771981144369166"><ele>939.0</ele><time>2026-05-01T12:18:19Z</time></trkpt><trkpt lat="45.949198223061146" lon="13.7721366455366"><ele>940.0</ele><time>2026-05-01T12:18:20Z</time></trkpt><trkpt lat="45.949059974438704" lon="13.772283292684445"><ele>941.0</ele><time>2026-05-01T12:18:21Z</time></trkpt><trkpt lat="45.94893131552494" lon="13.772411725540852"><ele>942.0</ele><time>2026-05-01T12:18:22Z</time></trkpt><trkpt lat="45.948800281066156" lon="13.772538301963962"><ele>942.0</ele><time>2026-05-01T12:18:23Z</time></trkpt><trkpt lat="45.94865863273037" lon="13.77267196139709"><ele>942.0</ele><time>2026-05-01T12:18:24Z</time></trkpt><trkpt lat="45.94853092355481" lon="13.772812248108497"><ele>942.0</ele><time>2026-05-01T12:18:25Z</time></trkpt><trkpt lat="45.948389288601625" lon="13.772925424365992"><ele>944.6666666666667</ele><time>2026-05-01T12:18:26Z</time></trkpt><trkpt lat="45.948255643839275" lon="13.773057478915026"><ele>947.3333333333334</ele><time>2026-05-01T12:18:27Z</time></trkpt><trkpt lat="45.94813118117659" lon="13.773200796948629"><ele>950.0</ele><time>2026-05-01T12:18:28Z</time></trkpt><trkpt lat="45.948001655120834" lon="13.773324364248456"><ele>950.0</ele><time>2026-05-01T12:18:29Z</time></trkpt><trkpt lat="45.947880214823265" lon="13.773463800637192"><ele>950.0</ele><time>2026-05-01T12:18:30Z</time></trkpt><trkpt lat="45.94775446791051" lon="13.773602196239569"><ele>950.0</ele><time>2026-05-01T12:18:31Z</time></trkpt><trkpt lat="45.94762940679451" lon="13.773737574511895"><ele>948.0</ele><time>2026-05-01T12:18:32Z</time></trkpt><trkpt lat="45.94750647709565" lon="13.77387426121793"><ele>946.0</ele><time>2026-05-01T12:18:33Z</time></trkpt><trkpt lat="45.94738309780403" lon="13.774023402608398"><ele>944.0</ele><time>2026-05-01T12:18:34Z</time></trkpt><trkpt lat="45.9472647275025" lon="13.77417581548829"><ele>944.0</ele><time>2026-05-01T12:18:35Z</time></trkpt><trkpt lat="45.94714921094341" lon="13.774329970262245"><ele>944.0</ele><time>2026-05-01T12:18:36Z</time></trkpt><trkpt lat="45.94703556722491" lon="13.774489140838762"><ele>944.0</ele><time>2026-05-01T12:18:37Z</time></trkpt><trkpt lat="45.94692425865932" lon="13.774652090563846"><ele>942.3333333333334</ele><time>2026-05-01T12:18:38Z</time></trkpt><trkpt lat="45.94681657919814" lon="13.77481644466802"><ele>940.6666666666667</ele><time>2026-05-01T12:18:39Z</time></trkpt><trkpt lat="45.946716407820624" lon="13.774983061533476"><ele>939.0</ele><time>2026-05-01T12:18:40Z</time></trkpt><trkpt lat="45.9466311498751" lon="13.775156607743194"><ele>944.0</ele><time>2026-05-01T12:18:41Z</time></trkpt><trkpt lat="45.94653287080283" lon="13.77531129209311"><ele>949.0</ele><time>2026-05-01T12:18:42Z</time></trkpt><trkpt lat="45.946455529604535" lon="13.775477642198263"><ele>954.0</ele><time>2026-05-01T12:18:43Z</time></trkpt><trkpt lat="45.94638043705498" lon="13.775679451723096"><ele>959.0</ele><time>2026-05-01T12:18:44Z</time></trkpt><trkpt lat="45.94629280217965" lon="13.77586091310394"><ele>963.6666666666667</ele><time>2026-05-01T12:18:45Z</time></trkpt><trkpt lat="45.94621635723111" lon="13.776057329958002"><ele>968.3333333333333</ele><time>2026-05-01T12:18:46Z</time></trkpt><trkpt lat="45.946139892638" lon="13.776260950784062"><ele>973.0</ele><time>2026-05-01T12:18:47Z</time></trkpt><trkpt lat="45.94607169515273" lon="13.776457782743169"><ele>973.0</ele><time>2026-05-01T12:18:48Z</time></trkpt><trkpt lat="45.94601722158842" lon="13.77665795458441"><ele>973.0</ele><time>2026-05-01T12:18:49Z</time></trkpt><trkpt lat="45.94597120281697" lon="13.77685269955613"><ele>973.0</ele><time>2026-05-01T12:18:50Z</time></trkpt><trkpt lat="45.94593285693885" lon="13.777049790742101"><ele>973.0</ele><time>2026-05-01T12:18:51Z</time></trkpt><trkpt lat="45.94587593161298" lon="13.777234258670223"><ele>968.5</ele><time>2026-05-01T12:18:52Z</time></trkpt><trkpt lat="45.945833767625714" lon="13.777414275593367"><ele>964.0</ele><time>2026-05-01T12:18:53Z</time></trkpt><trkpt lat="45.94581601993263" lon="13.777598397230086"><ele>959.5</ele><time>2026-05-01T12:18:54Z</time></trkpt><trkpt lat="45.945772363173134" lon="13.777772954204718"><ele>955.0</ele><time>2026-05-01T12:18:55Z</time></trkpt><trkpt lat="45.945863244862196" lon="13.777960760939013"><ele>955.0</ele><time>2026-05-01T12:18:56Z</time></trkpt><trkpt lat="45.94585734149735" lon="13.778155680316711"><ele>955.0</ele><time>2026-05-01T12:18:57Z</time></trkpt><trkpt lat="45.9458607566765" lon="13.77839628075993"><ele>955.0</ele><time>2026-05-01T12:18:58Z</time></trkpt><trkpt lat="45.94585044412803" lon="13.778582291367268"><ele>955.0</ele><time>2026-05-01T12:18:59Z</time></trkpt><trkpt lat="45.94582592229915" lon="13.778772895749281"><ele>957.6666666666666</ele><time>2026-05-01T12:19:00Z</time></trkpt><trkpt lat="45.94579869373882" lon="13.778993405035783"><ele>960.3333333333333</ele><time>2026-05-01T12:19:01Z</time></trkpt><trkpt lat="45.945769480882426" lon="13.77927701290425"><ele>963.0</ele><time>2026-05-01T12:19:02Z</time></trkpt><trkpt lat="45.945739641879406" lon="13.77952771112974"><ele>965.25</ele><time>2026-05-01T12:19:03Z</time></trkpt><trkpt lat="45.945697765891225" lon="13.779738702164407"><ele>967.5</ele><time>2026-05-01T12:19:04Z</time></trkpt><trkpt lat="45.94564767323659" lon="13.779909524714123"><ele>969.75</ele><time>2026-05-01T12:19:05Z</time></trkpt><trkpt lat="45.94559908754293" lon="13.78008329930474"><ele>972.0</ele><time>2026-05-01T12:19:06Z</time></trkpt><trkpt lat="45.94555958348605" lon="13.780269125375394"><ele>975.25</ele><time>2026-05-01T12:19:07Z</time></trkpt><trkpt lat="45.945523880278394" lon="13.780457223347874"><ele>978.5</ele><time>2026-05-01T12:19:08Z</time></trkpt><trkpt lat="45.94548925612089" lon="13.780636266034618"><ele>981.75</ele><time>2026-05-01T12:19:09Z</time></trkpt><trkpt lat="45.94545463466841" lon="13.780813277318533"><ele>985.0</ele><time>2026-05-01T12:19:10Z</time></trkpt><trkpt lat="45.94542567569882" lon="13.780970376007897"><ele>988.25</ele><time>2026-05-01T12:19:11Z</time></trkpt><trkpt lat="45.94536798948777" lon="13.781126063401128"><ele>991.5</ele><time>2026-05-01T12:19:12Z</time></trkpt><trkpt lat="45.945311653452684" lon="13.781279964856985"><ele>994.75</ele><time>2026-05-01T12:19:13Z</time></trkpt><trkpt lat="45.9452570964478" lon="13.781435496267536"><ele>998.0</ele><time>2026-05-01T12:19:14Z</time></trkpt><trkpt lat="45.94519439682379" lon="13.781583675414828"><ele>998.0</ele><time>2026-05-01T12:19:15Z</time></trkpt><trkpt lat="45.945130678730045" lon="13.781719189095467"><ele>998.0</ele><time>2026-05-01T12:19:16Z</time></trkpt><trkpt lat="45.945071792960086" lon="13.781896366089217"><ele>998.0</ele><time>2026-05-01T12:19:17Z</time></trkpt><trkpt lat="45.94499960991846" lon="13.78203448293034"><ele>998.0</ele><time>2026-05-01T12:19:18Z</time></trkpt><trkpt lat="45.94492611766782" lon="13.782177126586024"><ele>997.75</ele><time>2026-05-01T12:19:19Z</time></trkpt><trkpt lat="45.94484603848055" lon="13.782325147789814"><ele>997.5</ele><time>2026-05-01T12:19:20Z</time></trkpt><trkpt lat="45.94476255844949" lon="13.782460174447577"><ele>997.25</ele><time>2026-05-01T12:19:21Z</time></trkpt><trkpt lat="45.944685008216155" lon="13.782593436833613"><ele>997.0</ele><time>2026-05-01T12:19:22Z</time></trkpt><trkpt lat="45.944603274442265" lon="13.782719175383052"><ele>997.0</ele><time>2026-05-01T12:19:23Z</time></trkpt><trkpt lat="45.944521495567884" lon="13.782843870278754"><ele>997.0</ele><time>2026-05-01T12:19:24Z</time></trkpt><trkpt lat="45.944449930482136" lon="13.782968296066011"><ele>997.0</ele><time>2026-05-01T12:19:25Z</time></trkpt><trkpt lat="45.944367907690214" lon="13.783088213118031"><ele>997.0</ele><time>2026-05-01T12:19:26Z</time></trkpt><trkpt lat="45.94432033639797" lon="13.783181482785489"><ele>997.0</ele><time>2026-05-01T12:19:27Z</time></trkpt><trkpt lat="45.94427261783771" lon="13.783272278584738"><ele>997.0</ele><time>2026-05-01T12:19:28Z</time></trkpt><trkpt lat="45.94423503141152" lon="13.783352071267469"><ele>997.0</ele><time>2026-05-01T12:19:29Z</time></trkpt><trkpt lat="45.94410095170768" lon="13.78349152062771"><ele>997.0</ele><time>2026-05-01T12:19:30Z</time></trkpt><trkpt lat="45.94404674002993" lon="13.783578679556365"><ele>997.0</ele><time>2026-05-01T12:19:31Z</time></trkpt><trkpt lat="45.94399316671119" lon="13.78366762002804"><ele>997.0</ele><time>2026-05-01T12:19:32Z</time></trkpt><trkpt lat="45.94393792939575" lon="13.783761522987595"><ele>995.4000000000001</ele><time>2026-05-01T12:19:33Z</time></trkpt><trkpt lat="45.94387457787081" lon="13.783862265801739"><ele>993.8000000000001</ele><time>2026-05-01T12:19:34Z</time></trkpt><trkpt lat="45.943808366042454" lon="13.78396633368322"><ele>992.2</ele><time>2026-05-01T12:19:35Z</time></trkpt><trkpt lat="45.94374151232424" lon="13.784071406143985"><ele>990.6</ele><time>2026-05-01T12:19:36Z</time></trkpt><trkpt lat="45.94367287486286" lon="13.784173512021363"><ele>989.0</ele><time>2026-05-01T12:19:37Z</time></trkpt><trkpt lat="45.943612694746484" lon="13.784261697152402"><ele>988.1428571428571</ele><time>2026-05-01T12:19:38Z</time></trkpt><trkpt lat="45.94355782208822" lon="13.784350412730973"><ele>987.2857142857142</ele><time>2026-05-01T12:19:39Z</time></trkpt><trkpt lat="45.943518602210005" lon="13.784450303128004"><ele>986.4285714285713</ele><time>2026-05-01T12:19:40Z</time></trkpt><trkpt lat="45.943498766059015" lon="13.784561044416636"><ele>985.5714285714284</ele><time>2026-05-01T12:19:41Z</time></trkpt><trkpt lat="45.943500374523836" lon="13.784669703978869"><ele>984.7142857142857</ele><time>2026-05-01T12:19:42Z</time></trkpt><trkpt lat="45.94352614997148" lon="13.784752555131728"><ele>983.8571428571427</ele><time>2026-05-01T12:19:43Z</time></trkpt><trkpt lat="45.94356960321278" lon="13.7848251332334"><ele>982.9999999999999</ele><time>2026-05-01T12:19:44Z</time></trkpt><trkpt lat="45.9436334197174" lon="13.78490324726231"><ele>983.0000000000001</ele><time>2026-05-01T12:19:45Z</time></trkpt><trkpt lat="45.943703319877926" lon="13.78496988646424"><ele>983.0</ele><time>2026-05-01T12:19:46Z</time></trkpt><trkpt lat="45.943786504799434" lon="13.785028401487983"><ele>983.0</ele><time>2026-05-01T12:19:47Z</time></trkpt><trkpt lat="45.94386338285027" lon="13.785060834301788"><ele>983.0</ele><time>2026-05-01T12:19:48Z</time></trkpt><trkpt lat="45.94393179875872" lon="13.785091316536121"><ele>983.0000000000001</ele><time>2026-05-01T12:19:49Z</time></trkpt><trkpt lat="45.94401513306082" lon="13.785208120783992"><ele>983.0</ele><time>2026-05-01T12:19:51Z</time></trkpt><trkpt lat="45.94401866160262" lon="13.785357209733544"><ele>983.4</ele><time>2026-05-01T12:19:53Z</time></trkpt><trkpt lat="45.943962724003896" lon="13.785476316702537"><ele>983.8</ele><time>2026-05-01T12:19:55Z</time></trkpt><trkpt lat="45.943890979508595" lon="13.785606293588687"><ele>984.2</ele><time>2026-05-01T12:19:57Z</time></trkpt><trkpt lat="45.94383818961483" lon="13.785670816972432"><ele>984.6</ele><time>2026-05-01T12:19:58Z</time></trkpt><trkpt lat="45.94377521582765" lon="13.785749210361493"><ele>985.0</ele><time>2026-05-01T12:19:59Z</time></trkpt><trkpt lat="45.943716561992545" lon="13.785849850835415"><ele>985.0</ele><time>2026-05-01T12:20:00Z</time></trkpt><trkpt lat="45.94368241866453" lon="13.786007685234994"><ele>985.0</ele><time>2026-05-01T12:20:01Z</time></trkpt><trkpt lat="45.94365345578346" lon="13.786144982532239"><ele>985.0</ele><time>2026-05-01T12:20:02Z</time></trkpt><trkpt lat="45.94361603396211" lon="13.786283562966092"><ele>985.0</ele><time>2026-05-01T12:20:03Z</time></trkpt><trkpt lat="45.943550621106745" lon="13.78639798833305"><ele>985.0</ele><time>2026-05-01T12:20:04Z</time></trkpt><trkpt lat="45.9434590019255" lon="13.786481533159971"><ele>986.6</ele><time>2026-05-01T12:20:05Z</time></trkpt><trkpt lat="45.943351994805575" lon="13.786537419877979"><ele>988.2</ele><time>2026-05-01T12:20:06Z</time></trkpt><trkpt lat="45.94325168571503" lon="13.786604474325298"><ele>989.8</ele><time>2026-05-01T12:20:07Z</time></trkpt><trkpt lat="45.943166467327096" lon="13.786705411260185"><ele>991.4</ele><time>2026-05-01T12:20:08Z</time></trkpt><trkpt lat="45.94307406825792" lon="13.786788255012304"><ele>993.0</ele><time>2026-05-01T12:20:09Z</time></trkpt><trkpt lat="45.942960478319605" lon="13.786853765049266"><ele>996.0</ele><time>2026-05-01T12:20:10Z</time></trkpt><trkpt lat="45.94283109597298" lon="13.786886150888025"><ele>999.0</ele><time>2026-05-01T12:20:11Z</time></trkpt><trkpt lat="45.94268321122776" lon="13.786926343605893"><ele>1002.0</ele><time>2026-05-01T12:20:12Z</time></trkpt><trkpt lat="45.94253057921534" lon="13.786995096148075"><ele>1005.0</ele><time>2026-05-01T12:20:13Z</time></trkpt><trkpt lat="45.94237674169329" lon="13.787076162042322"><ele>1007.0</ele><time>2026-05-01T12:20:14Z</time></trkpt><trkpt lat="45.94221539605135" lon="13.787167880002576"><ele>1009.0</ele><time>2026-05-01T12:20:15Z</time></trkpt><trkpt lat="45.94207876931057" lon="13.787244739192175"><ele>1011.0</ele><time>2026-05-01T12:20:16Z</time></trkpt><trkpt lat="45.941939471493434" lon="13.787318956883372"><ele>1011.0</ele><time>2026-05-01T12:20:17Z</time></trkpt><trkpt lat="45.941804522886514" lon="13.787366735290421"><ele>1011.0</ele><time>2026-05-01T12:20:18Z</time></trkpt><trkpt lat="45.94157541792269" lon="13.787500907077272"><ele>1011.0</ele><time>2026-05-01T12:20:20Z</time></trkpt><trkpt lat="45.94150029013089" lon="13.787584657303476"><ele>1011.3333333333334</ele><time>2026-05-01T12:20:21Z</time></trkpt><trkpt lat="45.941505203817044" lon="13.787676056407083"><ele>1011.6666666666667</ele><time>2026-05-01T12:20:26Z</time></trkpt><trkpt lat="45.94157401758038" lon="13.787703040534543"><ele>1012.0</ele><time>2026-05-01T12:20:49Z</time></trkpt><trkpt lat="45.94165488247843" lon="13.787777558378274"><ele>1012.3333333333334</ele><time>2026-05-01T12:20:51Z</time></trkpt><trkpt lat="45.9417646711546" lon="13.787877813911548"><ele>1012.6666666666667</ele><time>2026-05-01T12:20:53Z</time></trkpt><trkpt lat="45.9418316355171" lon="13.787940717036836"><ele>1013.0</ele><time>2026-05-01T12:20:54Z</time></trkpt><trkpt lat="45.94190231727809" lon="13.787991936564042"><ele>1013.8333333333334</ele><time>2026-05-01T12:20:55Z</time></trkpt><trkpt lat="45.941985233706" lon="13.788064685165674"><ele>1014.6666666666667</ele><time>2026-05-01T12:20:56Z</time></trkpt><trkpt lat="45.942069960318356" lon="13.78813753106372"><ele>1015.5</ele><time>2026-05-01T12:20:57Z</time></trkpt><trkpt lat="45.94214222009507" lon="13.788212362689174"><ele>1016.3333333333333</ele><time>2026-05-01T12:20:58Z</time></trkpt><trkpt lat="45.94221061216228" lon="13.788293289113515"><ele>1017.1666666666666</ele><time>2026-05-01T12:21:00Z</time></trkpt><trkpt lat="45.94222743693032" lon="13.788396287111516"><ele>1018.0</ele><time>2026-05-01T12:21:02Z</time></trkpt><trkpt lat="45.94219098892426" lon="13.788484068851425"><ele>1018.0</ele><time>2026-05-01T12:21:04Z</time></trkpt><trkpt lat="45.94208106348482" lon="13.788470647850627"><ele>1018.0</ele><time>2026-05-01T12:21:06Z</time></trkpt><trkpt lat="45.94199884224174" lon="13.788430909595336"><ele>1018.0</ele><time>2026-05-01T12:21:07Z</time></trkpt><trkpt lat="45.941885735020264" lon="13.788370782185144"><ele>1018.0</ele><time>2026-05-01T12:21:08Z</time></trkpt><trkpt lat="45.94174998852838" lon="13.788305125596029"><ele>1017.0</ele><time>2026-05-01T12:21:09Z</time></trkpt><trkpt lat="45.941623443983694" lon="13.788249824924561"><ele>1016.0</ele><time>2026-05-01T12:21:10Z</time></trkpt><trkpt lat="45.94151984119294" lon="13.788207520895659"><ele>1015.0</ele><time>2026-05-01T12:21:11Z</time></trkpt><trkpt lat="45.941435843109936" lon="13.788171419657354"><ele>1014.0</ele><time>2026-05-01T12:21:12Z</time></trkpt><trkpt lat="45.94136624863324" lon="13.788130302444989"><ele>1013.0</ele><time>2026-05-01T12:21:13Z</time></trkpt><trkpt lat="45.941305770978815" lon="13.788091141413688"><ele>1013.0000000000001</ele><time>2026-05-01T12:21:14Z</time></trkpt><trkpt lat="45.94124711279765" lon="13.788025960063608"><ele>1013.0</ele><time>2026-05-01T12:21:16Z</time></trkpt><trkpt lat="45.94118149220974" lon="13.788085316076764"><ele>1013.0</ele><time>2026-05-01T12:21:25Z</time></trkpt><trkpt lat="45.94121858220112" lon="13.788249561779507"><ele>1013.0</ele><time>2026-05-01T12:21:28Z</time></trkpt><trkpt lat="45.94127914167086" lon="13.788329806237234"><ele>1013.0000000000001</ele><time>2026-05-01T12:21:29Z</time></trkpt><trkpt lat="45.94134381502789" lon="13.788407718818165"><ele>1013.0</ele><time>2026-05-01T12:21:30Z</time></trkpt><trkpt lat="45.94141574095236" lon="13.788476978469403"><ele>1016.2</ele><time>2026-05-01T12:21:31Z</time></trkpt><trkpt lat="45.94149464381862" lon="13.788536486599963"><ele>1019.4</ele><time>2026-05-01T12:21:32Z</time></trkpt><trkpt lat="45.941582980714685" lon="13.788592912569664"><ele>1022.6000000000001</ele><time>2026-05-01T12:21:33Z</time></trkpt><trkpt lat="45.94167713151128" lon="13.788640912817112"><ele>1025.8</ele><time>2026-05-01T12:21:34Z</time></trkpt><trkpt lat="45.94176792819397" lon="13.788685755822318"><ele>1029.0</ele><time>2026-05-01T12:21:35Z</time></trkpt><trkpt lat="45.94185894349332" lon="13.788736079810857"><ele>1029.0</ele><time>2026-05-01T12:21:36Z</time></trkpt><trkpt lat="45.941945110239175" lon="13.788796399713194"><ele>1029.0</ele><time>2026-05-01T12:21:37Z</time></trkpt><trkpt lat="45.942035942045095" lon="13.788863770069874"><ele>1029.0</ele><time>2026-05-01T12:21:38Z</time></trkpt><trkpt lat="45.94212200489498" lon="13.788923042397029"><ele>1029.0</ele><time>2026-05-01T12:21:39Z</time></trkpt><trkpt lat="45.942192736885104" lon="13.788968291116253"><ele>1029.0</ele><time>2026-05-01T12:21:40Z</time></trkpt><trkpt lat="45.94225083212051" lon="13.789023420128853"><ele>1029.0</ele><time>2026-05-01T12:21:41Z</time></trkpt><trkpt lat="45.94228816415165" lon="13.78911164846635"><ele>1029.0</ele><time>2026-05-01T12:21:42Z</time></trkpt><trkpt lat="45.94228813149055" lon="13.789224218970359"><ele>1029.0</ele><time>2026-05-01T12:21:43Z</time></trkpt><trkpt lat="45.942245259830116" lon="13.789338735634974"><ele>1029.0</ele><time>2026-05-01T12:21:44Z</time></trkpt><trkpt lat="45.94216935597619" lon="13.789404378934398"><ele>1029.0</ele><time>2026-05-01T12:21:45Z</time></trkpt><trkpt lat="45.94208475129697" lon="13.78941323290206"><ele>1029.0</ele><time>2026-05-01T12:21:46Z</time></trkpt><trkpt lat="45.94202153088721" lon="13.789354747856502"><ele>1029.0</ele><time>2026-05-01T12:21:47Z</time></trkpt><trkpt lat="45.941971113049355" lon="13.789270353039841"><ele>1029.0</ele><time>2026-05-01T12:21:48Z</time></trkpt><trkpt lat="45.941905907610135" lon="13.78918826067284"><ele>1029.0</ele><time>2026-05-01T12:21:49Z</time></trkpt><trkpt lat="45.94181820041915" lon="13.789151179790592"><ele>1029.0</ele><time>2026-05-01T12:21:50Z</time></trkpt><trkpt lat="45.94171488813741" lon="13.789144659542037"><ele>1029.0</ele><time>2026-05-01T12:21:51Z</time></trkpt><trkpt lat="45.94161398367757" lon="13.789134937528935"><ele>1029.0</ele><time>2026-05-01T12:21:52Z</time></trkpt><trkpt lat="45.94151463974063" lon="13.789120598502844"><ele>1030.6000000000001</ele><time>2026-05-01T12:21:53Z</time></trkpt><trkpt lat="45.941416127195396" lon="13.789129368623025"><ele>1032.2</ele><time>2026-05-01T12:21:54Z</time></trkpt><trkpt lat="45.941315080451496" lon="13.789146286135125"><ele>1033.8000000000002</ele><time>2026-05-01T12:21:55Z</time></trkpt><trkpt lat="45.94121588976508" lon="13.789177415885616"><ele>1035.4</ele><time>2026-05-01T12:21:56Z</time></trkpt><trkpt lat="45.941114245499264" lon="13.789216940653164"><ele>1037.0</ele><time>2026-05-01T12:21:57Z</time></trkpt><trkpt lat="45.941007293569896" lon="13.78926275567362"><ele>1037.0</ele><time>2026-05-01T12:21:58Z</time></trkpt><trkpt lat="45.940900395658495" lon="13.789302165379874"><ele>1037.0</ele><time>2026-05-01T12:21:59Z</time></trkpt><trkpt lat="45.940787515065885" lon="13.789321327119765"><ele>1037.0</ele><time>2026-05-01T12:22:00Z</time></trkpt><trkpt lat="45.94067438511915" lon="13.789312217131735"><ele>1037.0</ele><time>2026-05-01T12:22:01Z</time></trkpt><trkpt lat="45.94056495720551" lon="13.789301012594159"><ele>1037.0</ele><time>2026-05-01T12:22:02Z</time></trkpt><trkpt lat="45.940466439909116" lon="13.789295877778866"><ele>1038.8</ele><time>2026-05-01T12:22:03Z</time></trkpt><trkpt lat="45.94039299273295" lon="13.789327095193798"><ele>1040.6</ele><time>2026-05-01T12:22:04Z</time></trkpt><trkpt lat="45.94033877624887" lon="13.789412834578053"><ele>1042.3999999999999</ele><time>2026-05-01T12:22:05Z</time></trkpt><trkpt lat="45.94029213389178" lon="13.78952778087373"><ele>1044.2</ele><time>2026-05-01T12:22:06Z</time></trkpt><trkpt lat="45.94023896802472" lon="13.78966899015686"><ele>1046.0</ele><time>2026-05-01T12:22:07Z</time></trkpt><trkpt lat="45.94015056268188" lon="13.789793061886169"><ele>1046.5</ele><time>2026-05-01T12:22:08Z</time></trkpt><trkpt lat="45.94003620454981" lon="13.78989938518472"><ele>1047.0</ele><time>2026-05-01T12:22:09Z</time></trkpt><trkpt lat="45.939921752157325" lon="13.790008411297658"><ele>1047.5</ele><time>2026-05-01T12:22:10Z</time></trkpt><trkpt lat="45.93981683896987" lon="13.790137258169427"><ele>1048.0</ele><time>2026-05-01T12:22:11Z</time></trkpt><trkpt lat="45.93972040785761" lon="13.790265195814442"><ele>1048.0</ele><time>2026-05-01T12:22:12Z</time></trkpt><trkpt lat="45.939630944674825" lon="13.790396919574297"><ele>1048.0</ele><time>2026-05-01T12:22:13Z</time></trkpt><trkpt lat="45.93955947802442" lon="13.790543666268922"><ele>1048.0</ele><time>2026-05-01T12:22:14Z</time></trkpt><trkpt lat="45.93950502766803" lon="13.79069586381333"><ele>1048.0</ele><time>2026-05-01T12:22:15Z</time></trkpt><trkpt lat="45.939467824447895" lon="13.790859579364342"><ele>1048.75</ele><time>2026-05-01T12:22:16Z</time></trkpt><trkpt lat="45.93942786443475" lon="13.791025200548995"><ele>1049.5</ele><time>2026-05-01T12:22:17Z</time></trkpt><trkpt lat="45.93941336843074" lon="13.791193082317763"><ele>1050.25</ele><time>2026-05-01T12:22:18Z</time></trkpt><trkpt lat="45.93941071130516" lon="13.79135979108431"><ele>1051.0</ele><time>2026-05-01T12:22:19Z</time></trkpt><trkpt lat="45.93941120942215" lon="13.791495836813938"><ele>1051.0</ele><time>2026-05-01T12:22:20Z</time></trkpt><trkpt lat="45.93942104003418" lon="13.791624061258196"><ele>1051.0</ele><time>2026-05-01T12:22:21Z</time></trkpt><trkpt lat="45.93942597231272" lon="13.791736087857966"><ele>1051.0</ele><time>2026-05-01T12:22:22Z</time></trkpt><trkpt lat="45.939427266119054" lon="13.791854367013642"><ele>1051.0</ele><time>2026-05-01T12:22:23Z</time></trkpt><trkpt lat="45.93943360157481" lon="13.791975559905291"><ele>1051.0</ele><time>2026-05-01T12:22:24Z</time></trkpt><trkpt lat="45.939433701948" lon="13.792093212728393"><ele>1051.0</ele><time>2026-05-01T12:22:25Z</time></trkpt><trkpt lat="45.939420111218254" lon="13.792207449695752"><ele>1052.2</ele><time>2026-05-01T12:22:26Z</time></trkpt><trkpt lat="45.9394044150887" lon="13.792315606710387"><ele>1053.3999999999999</ele><time>2026-05-01T12:22:27Z</time></trkpt><trkpt lat="45.93938115019322" lon="13.792431220752512"><ele>1054.6</ele><time>2026-05-01T12:22:28Z</time></trkpt><trkpt lat="45.9393532191218" lon="13.792563230050169"><ele>1055.8</ele><time>2026-05-01T12:22:29Z</time></trkpt><trkpt lat="45.939316970368594" lon="13.792702384388631"><ele>1057.0</ele><time>2026-05-01T12:22:30Z</time></trkpt><trkpt lat="45.939274426217835" lon="13.792844172857372"><ele>1059.25</ele><time>2026-05-01T12:22:31Z</time></trkpt><trkpt lat="45.93923744466091" lon="13.792996239532274"><ele>1061.5</ele><time>2026-05-01T12:22:32Z</time></trkpt><trkpt lat="45.939198792555764" lon="13.793163449278449"><ele>1063.75</ele><time>2026-05-01T12:22:33Z</time></trkpt><trkpt lat="45.939148929941084" lon="13.793346606404931"><ele>1066.0</ele><time>2026-05-01T12:22:34Z</time></trkpt><trkpt lat="45.93910056048889" lon="13.793536477898307"><ele>1069.5</ele><time>2026-05-01T12:22:35Z</time></trkpt><trkpt lat="45.93905148050219" lon="13.793711378688984"><ele>1073.0</ele><time>2026-05-01T12:22:36Z</time></trkpt><trkpt lat="45.93901140250176" lon="13.793860806434656"><ele>1076.5</ele><time>2026-05-01T12:22:37Z</time></trkpt><trkpt lat="45.938961397669715" lon="13.794015667244638"><ele>1080.0</ele><time>2026-05-01T12:22:38Z</time></trkpt><trkpt lat="45.938927471224495" lon="13.794160984618244"><ele>1080.0</ele><time>2026-05-01T12:22:39Z</time></trkpt><trkpt lat="45.93890880934293" lon="13.794292831354323"><ele>1080.0</ele><time>2026-05-01T12:22:40Z</time></trkpt><trkpt lat="45.93886697830425" lon="13.794419974623063"><ele>1080.0</ele><time>2026-05-01T12:22:41Z</time></trkpt><trkpt lat="45.93880299578713" lon="13.794544635805623"><ele>1080.0</ele><time>2026-05-01T12:22:42Z</time></trkpt><trkpt lat="45.93871768114369" lon="13.794642614587136"><ele>1080.0</ele><time>2026-05-01T12:22:43Z</time></trkpt><trkpt lat="45.938615692701" lon="13.79473319555028"><ele>1080.4</ele><time>2026-05-01T12:22:44Z</time></trkpt><trkpt lat="45.93849865287555" lon="13.794851022088991"><ele>1080.8</ele><time>2026-05-01T12:22:45Z</time></trkpt><trkpt lat="45.93841271241648" lon="13.79495742503256"><ele>1081.2</ele><time>2026-05-01T12:22:46Z</time></trkpt><trkpt lat="45.938351732088364" lon="13.795040615338037"><ele>1081.6</ele><time>2026-05-01T12:22:47Z</time></trkpt><trkpt lat="45.93833068837902" lon="13.795138672414613"><ele>1082.0</ele><time>2026-05-01T12:22:48Z</time></trkpt><trkpt lat="45.93835363724898" lon="13.795252535853736"><ele>1082.1666666666667</ele><time>2026-05-01T12:22:50Z</time></trkpt><trkpt lat="45.938401378138636" lon="13.79534964000994"><ele>1082.3333333333335</ele><time>2026-05-01T12:22:52Z</time></trkpt><trkpt lat="45.938441491020875" lon="13.795453338864984"><ele>1082.5</ele><time>2026-05-01T12:22:53Z</time></trkpt><trkpt lat="45.93846767954533" lon="13.795549051180041"><ele>1082.6666666666667</ele><time>2026-05-01T12:22:54Z</time></trkpt><trkpt lat="45.938450696916" lon="13.795671376591235"><ele>1082.8333333333333</ele><time>2026-05-01T12:22:56Z</time></trkpt><trkpt lat="45.93839902483349" lon="13.795832333152752"><ele>1083.0</ele><time>2026-05-01T12:22:58Z</time></trkpt><trkpt lat="45.93836197241605" lon="13.795936312865091"><ele>1085.6666666666667</ele><time>2026-05-01T12:22:59Z</time></trkpt><trkpt lat="45.938322893147486" lon="13.796063782378612"><ele>1088.3333333333333</ele><time>2026-05-01T12:23:00Z</time></trkpt><trkpt lat="45.93829669268115" lon="13.796176804756183"><ele>1091.0</ele><time>2026-05-01T12:23:01Z</time></trkpt><trkpt lat="45.93826940425541" lon="13.796282727719108"><ele>1093.6666666666665</ele><time>2026-05-01T12:23:02Z</time></trkpt><trkpt lat="45.938223366336224" lon="13.796359845838067"><ele>1096.3333333333333</ele><time>2026-05-01T12:23:03Z</time></trkpt><trkpt lat="45.93815451753865" lon="13.79640753527783"><ele>1099.0</ele><time>2026-05-01T12:23:04Z</time></trkpt><trkpt lat="45.93808766267371" lon="13.79643644267935"><ele>1099.0</ele><time>2026-05-01T12:23:05Z</time></trkpt><trkpt lat="45.93801387465244" lon="13.796465249578388"><ele>1099.0</ele><time>2026-05-01T12:23:06Z</time></trkpt><trkpt lat="45.937939188920126" lon="13.796516453152776"><ele>1099.0</ele><time>2026-05-01T12:23:07Z</time></trkpt><trkpt lat="45.93786671579533" lon="13.796576054430918"><ele>1099.0</ele><time>2026-05-01T12:23:08Z</time></trkpt><trkpt lat="45.93779260779352" lon="13.796644318685026"><ele>1099.0</ele><time>2026-05-01T12:23:09Z</time></trkpt><trkpt lat="45.93771583135499" lon="13.796718436167447"><ele>1099.0</ele><time>2026-05-01T12:23:10Z</time></trkpt><trkpt lat="45.93765873360614" lon="13.796799896206206"><ele>1100.0</ele><time>2026-05-01T12:23:11Z</time></trkpt><trkpt lat="45.93761452300467" lon="13.796885328683894"><ele>1101.0</ele><time>2026-05-01T12:23:12Z</time></trkpt><trkpt lat="45.93759467011699" lon="13.796995999146514"><ele>1102.0</ele><time>2026-05-01T12:23:13Z</time></trkpt><trkpt lat="45.93759691000693" lon="13.797100532802647"><ele>1103.0</ele><time>2026-05-01T12:23:14Z</time></trkpt><trkpt lat="45.93761972298457" lon="13.797202230555062"><ele>1104.0</ele><time>2026-05-01T12:23:15Z</time></trkpt><trkpt lat="45.937655928271155" lon="13.79729225300767"><ele>1105.0</ele><time>2026-05-01T12:23:16Z</time></trkpt><trkpt lat="45.93770934041459" lon="13.797375971833192"><ele>1105.0</ele><time>2026-05-01T12:23:17Z</time></trkpt><trkpt lat="45.93775577948146" lon="13.797453989399685"><ele>1105.0</ele><time>2026-05-01T12:23:18Z</time></trkpt><trkpt lat="45.93781611260086" lon="13.79753836455597"><ele>1105.0</ele><time>2026-05-01T12:23:19Z</time></trkpt><trkpt lat="45.93788432797223" lon="13.79761897333124"><ele>1105.0</ele><time>2026-05-01T12:23:20Z</time></trkpt><trkpt lat="45.93795889567166" lon="13.7977166408548"><ele>1105.0</ele><time>2026-05-01T12:23:21Z</time></trkpt><trkpt lat="45.93803411329964" lon="13.797818468777358"><ele>1105.0</ele><time>2026-05-01T12:23:22Z</time></trkpt><trkpt lat="45.93813745645914" lon="13.797924251018431"><ele>1105.5</ele><time>2026-05-01T12:23:23Z</time></trkpt><trkpt lat="45.938218956621135" lon="13.798004624060752"><ele>1106.0</ele><time>2026-05-01T12:23:24Z</time></trkpt><trkpt lat="45.9383216453522" lon="13.798080031946558"><ele>1106.5</ele><time>2026-05-01T12:23:25Z</time></trkpt><trkpt lat="45.9384409101747" lon="13.798178990236178"><ele>1107.0</ele><time>2026-05-01T12:23:26Z</time></trkpt><trkpt lat="45.938554673833345" lon="13.798264071296236"><ele>1107.0</ele><time>2026-05-01T12:23:27Z</time></trkpt><trkpt lat="45.938667018679986" lon="13.798319029464341"><ele>1107.0</ele><time>2026-05-01T12:23:28Z</time></trkpt><trkpt lat="45.93877779426908" lon="13.798378826818118"><ele>1107.0</ele><time>2026-05-01T12:23:29Z</time></trkpt><trkpt lat="45.938869954008084" lon="13.798437925701183"><ele>1107.0</ele><time>2026-05-01T12:23:30Z</time></trkpt><trkpt lat="45.9389619490605" lon="13.798528375218966"><ele>1107.0</ele><time>2026-05-01T12:23:31Z</time></trkpt><trkpt lat="45.93905871150147" lon="13.798610975359829"><ele>1110.0</ele><time>2026-05-01T12:23:32Z</time></trkpt><trkpt lat="45.93915795646767" lon="13.798701424082957"><ele>1113.0</ele><time>2026-05-01T12:23:33Z</time></trkpt><trkpt lat="45.93925507578941" lon="13.798789435166992"><ele>1116.0</ele><time>2026-05-01T12:23:34Z</time></trkpt><trkpt lat="45.93934726882998" lon="13.798863354418824"><ele>1119.0</ele><time>2026-05-01T12:23:35Z</time></trkpt><trkpt lat="45.93942775302473" lon="13.798923041503231"><ele>1122.0</ele><time>2026-05-01T12:23:36Z</time></trkpt><trkpt lat="45.93949839011708" lon="13.798961472964143"><ele>1122.0</ele><time>2026-05-01T12:23:37Z</time></trkpt><trkpt lat="45.93958448307584" lon="13.799011561117894"><ele>1122.0</ele><time>2026-05-01T12:23:38Z</time></trkpt><trkpt lat="45.93965012523508" lon="13.799078583035136"><ele>1122.0</ele><time>2026-05-01T12:23:39Z</time></trkpt><trkpt lat="45.939701063174056" lon="13.799173041808084"><ele>1122.0</ele><time>2026-05-01T12:23:40Z</time></trkpt><trkpt lat="45.93976058035401" lon="13.79927992298932"><ele>1122.0</ele><time>2026-05-01T12:23:41Z</time></trkpt><trkpt lat="45.939814409595165" lon="13.799426785594143"><ele>1123.6666666666667</ele><time>2026-05-01T12:23:42Z</time></trkpt><trkpt lat="45.93986006293442" lon="13.799556953812132"><ele>1125.3333333333333</ele><time>2026-05-01T12:23:43Z</time></trkpt><trkpt lat="45.93987790629488" lon="13.79966235245331"><ele>1127.0</ele><time>2026-05-01T12:23:44Z</time></trkpt><trkpt lat="45.93988261004186" lon="13.79975702085654"><ele>1128.6666666666665</ele><time>2026-05-01T12:23:45Z</time></trkpt><trkpt lat="45.9398697427528" lon="13.799859549160525"><ele>1130.3333333333333</ele><time>2026-05-01T12:23:46Z</time></trkpt><trkpt lat="45.93984091174756" lon="13.799969710677503"><ele>1132.0</ele><time>2026-05-01T12:23:47Z</time></trkpt><trkpt lat="45.93979495202991" lon="13.800106105305531"><ele>1131.6</ele><time>2026-05-01T12:23:48Z</time></trkpt><trkpt lat="45.93974174368926" lon="13.800257726706514"><ele>1131.2</ele><time>2026-05-01T12:23:49Z</time></trkpt><trkpt lat="45.939688037060016" lon="13.800398324064188"><ele>1130.8</ele><time>2026-05-01T12:23:50Z</time></trkpt><trkpt lat="45.93962256448825" lon="13.800514661383241"><ele>1130.4</ele><time>2026-05-01T12:23:51Z</time></trkpt><trkpt lat="45.93955624222903" lon="13.800617838116487"><ele>1130.0</ele><time>2026-05-01T12:23:52Z</time></trkpt><trkpt lat="45.9394912364911" lon="13.800727305636398"><ele>1129.9999999999998</ele><time>2026-05-01T12:23:53Z</time></trkpt><trkpt lat="45.93944274233019" lon="13.800816959398416"><ele>1130.0</ele><time>2026-05-01T12:23:54Z</time></trkpt><trkpt lat="45.939405262160676" lon="13.800898412683061"><ele>1130.0</ele><time>2026-05-01T12:23:55Z</time></trkpt><trkpt lat="45.93939537557782" lon="13.80098919164902"><ele>1130.0</ele><time>2026-05-01T12:23:56Z</time></trkpt><trkpt lat="45.93940348390983" lon="13.801089301280488"><ele>1130.0</ele><time>2026-05-01T12:23:57Z</time></trkpt><trkpt lat="45.93944251793044" lon="13.801174547904205"><ele>1129.9999999999998</ele><time>2026-05-01T12:23:58Z</time></trkpt><trkpt lat="45.93949306430126" lon="13.801269771760944"><ele>1130.0</ele><time>2026-05-01T12:23:59Z</time></trkpt><trkpt lat="45.93955311862559" lon="13.801379349831848"><ele>1131.8</ele><time>2026-05-01T12:24:00Z</time></trkpt><trkpt lat="45.93962656858111" lon="13.801498586603381"><ele>1133.6</ele><time>2026-05-01T12:24:01Z</time></trkpt><trkpt lat="45.93967641002936" lon="13.801610168658659"><ele>1135.4</ele><time>2026-05-01T12:24:02Z</time></trkpt><trkpt lat="45.93971215450321" lon="13.801717097448122"><ele>1137.2</ele><time>2026-05-01T12:24:03Z</time></trkpt><trkpt lat="45.9397457156097" lon="13.801844577800733"><ele>1139.0</ele><time>2026-05-01T12:24:04Z</time></trkpt><trkpt lat="45.93977798291131" lon="13.801984995517735"><ele>1140.25</ele><time>2026-05-01T12:24:05Z</time></trkpt><trkpt lat="45.93980557738109" lon="13.802129320564607"><ele>1141.5</ele><time>2026-05-01T12:24:06Z</time></trkpt><trkpt lat="45.9398383779351" lon="13.802292827503301"><ele>1142.75</ele><time>2026-05-01T12:24:07Z</time></trkpt><trkpt lat="45.93986845489622" lon="13.802472473802991"><ele>1144.0</ele><time>2026-05-01T12:24:08Z</time></trkpt><trkpt lat="45.939903423404765" lon="13.802661699213965"><ele>1143.5</ele><time>2026-05-01T12:24:09Z</time></trkpt><trkpt lat="45.93993117442535" lon="13.802842484624318"><ele>1143.0</ele><time>2026-05-01T12:24:10Z</time></trkpt><trkpt lat="45.93996592128172" lon="13.80300412480244"><ele>1142.5</ele><time>2026-05-01T12:24:11Z</time></trkpt><trkpt lat="45.94000628219874" lon="13.803152841449618"><ele>1142.0</ele><time>2026-05-01T12:24:12Z</time></trkpt><trkpt lat="45.94005245891254" lon="13.803286977186609"><ele>1142.0</ele><time>2026-05-01T12:24:13Z</time></trkpt><trkpt lat="45.94010614072007" lon="13.80341019224264"><ele>1142.0</ele><time>2026-05-01T12:24:14Z</time></trkpt><trkpt lat="45.94017323789268" lon="13.803534054808294"><ele>1142.0</ele><time>2026-05-01T12:24:15Z</time></trkpt><trkpt lat="45.940248939710315" lon="13.803635367207345"><ele>1142.0</ele><time>2026-05-01T12:24:16Z</time></trkpt><trkpt lat="45.94033270301741" lon="13.8037090798989"><ele>1142.0</ele><time>2026-05-01T12:24:17Z</time></trkpt><trkpt lat="45.940412288753166" lon="13.803757421551305"><ele>1145.2</ele><time>2026-05-01T12:24:18Z</time></trkpt><trkpt lat="45.94049182364091" lon="13.80377902089092"><ele>1148.4</ele><time>2026-05-01T12:24:19Z</time></trkpt><trkpt lat="45.94057701018461" lon="13.80377651477834"><ele>1151.6</ele><time>2026-05-01T12:24:20Z</time></trkpt><trkpt lat="45.940681859886375" lon="13.803760773919977"><ele>1154.8</ele><time>2026-05-01T12:24:21Z</time></trkpt><trkpt lat="45.94077699609104" lon="13.803766467930481"><ele>1158.0</ele><time>2026-05-01T12:24:22Z</time></trkpt><trkpt lat="45.940860020963456" lon="13.803793372527492"><ele>1157.6666666666667</ele><time>2026-05-01T12:24:23Z</time></trkpt><trkpt lat="45.94093040390551" lon="13.803830793884693"><ele>1157.3333333333333</ele><time>2026-05-01T12:24:24Z</time></trkpt><trkpt lat="45.9410108946178" lon="13.803850720115305"><ele>1157.0</ele><time>2026-05-01T12:24:25Z</time></trkpt><trkpt lat="45.941103825241605" lon="13.803844990986333"><ele>1156.6666666666665</ele><time>2026-05-01T12:24:26Z</time></trkpt><trkpt lat="45.94117965426557" lon="13.803788516075613"><ele>1156.3333333333333</ele><time>2026-05-01T12:24:27Z</time></trkpt><trkpt lat="45.941256198553916" lon="13.803725830875209"><ele>1156.0</ele><time>2026-05-01T12:24:28Z</time></trkpt><trkpt lat="45.94133550971459" lon="13.80366487467513"><ele>1156.0</ele><time>2026-05-01T12:24:29Z</time></trkpt><trkpt lat="45.9413988288128" lon="13.803644535733849"><ele>1156.0</ele><time>2026-05-01T12:24:30Z</time></trkpt><trkpt lat="45.941504041412344" lon="13.803718799727006"><ele>1156.0</ele><time>2026-05-01T12:24:32Z</time></trkpt><trkpt lat="45.941548185657695" lon="13.803800765588301"><ele>1156.0</ele><time>2026-05-01T12:24:33Z</time></trkpt><trkpt lat="45.941586681407266" lon="13.80390910447556"><ele>1156.0</ele><time>2026-05-01T12:24:34Z</time></trkpt><trkpt lat="45.94162056913373" lon="13.804018746663196"><ele>1156.0</ele><time>2026-05-01T12:24:35Z</time></trkpt><trkpt lat="45.94162781769664" lon="13.804121067959521"><ele>1156.0</ele><time>2026-05-01T12:24:36Z</time></trkpt><trkpt lat="45.941615466657574" lon="13.804224783616231"><ele>1156.0</ele><time>2026-05-01T12:24:37Z</time></trkpt><trkpt lat="45.941580886416745" lon="13.804328186761122"><ele>1156.0</ele><time>2026-05-01T12:24:38Z</time></trkpt><trkpt lat="45.941524490275256" lon="13.80443194011799"><ele>1156.0</ele><time>2026-05-01T12:24:39Z</time></trkpt><trkpt lat="45.94146893320104" lon="13.804538834162221"><ele>1156.0</ele><time>2026-05-01T12:24:40Z</time></trkpt><trkpt lat="45.94139027150249" lon="13.804654563115514"><ele>1157.0</ele><time>2026-05-01T12:24:41Z</time></trkpt><trkpt lat="45.94131378025169" lon="13.804748231219843"><ele>1158.0</ele><time>2026-05-01T12:24:42Z</time></trkpt><trkpt lat="45.94123307604348" lon="13.804829958313528"><ele>1159.0</ele><time>2026-05-01T12:24:43Z</time></trkpt><trkpt lat="45.94113131356538" lon="13.804875870841979"><ele>1160.0</ele><time>2026-05-01T12:24:44Z</time></trkpt><trkpt lat="45.94102735825313" lon="13.804885115686357"><ele>1161.0</ele><time>2026-05-01T12:24:45Z</time></trkpt><trkpt lat="45.94089518494613" lon="13.804898348047459"><ele>1160.25</ele><time>2026-05-01T12:24:46Z</time></trkpt><trkpt lat="45.94075411234905" lon="13.804925366741472"><ele>1159.5</ele><time>2026-05-01T12:24:47Z</time></trkpt><trkpt lat="45.94065798415161" lon="13.804980188443364"><ele>1158.75</ele><time>2026-05-01T12:24:48Z</time></trkpt><trkpt lat="45.94055114473308" lon="13.805076785320848"><ele>1158.0</ele><time>2026-05-01T12:24:49Z</time></trkpt><trkpt lat="45.94044177310019" lon="13.805174136610779"><ele>1157.4</ele><time>2026-05-01T12:24:50Z</time></trkpt><trkpt lat="45.940342190157104" lon="13.80525742949749"><ele>1156.8</ele><time>2026-05-01T12:24:51Z</time></trkpt><trkpt lat="45.940251205288476" lon="13.805337513383757"><ele>1156.2</ele><time>2026-05-01T12:24:52Z</time></trkpt><trkpt lat="45.94016482092289" lon="13.805413471739827"><ele>1155.6</ele><time>2026-05-01T12:24:53Z</time></trkpt><trkpt lat="45.94010086356214" lon="13.805514065343777"><ele>1155.0</ele><time>2026-05-01T12:24:54Z</time></trkpt><trkpt lat="45.940052715948944" lon="13.805623572732426"><ele>1155.3333333333333</ele><time>2026-05-01T12:24:55Z</time></trkpt><trkpt lat="45.94001319083" lon="13.805705597056779"><ele>1155.6666666666667</ele><time>2026-05-01T12:24:56Z</time></trkpt><trkpt lat="45.93994929736638" lon="13.80576309764728"><ele>1156.0</ele><time>2026-05-01T12:24:57Z</time></trkpt><trkpt lat="45.93986705319154" lon="13.80581858495177"><ele>1156.3333333333335</ele><time>2026-05-01T12:24:58Z</time></trkpt><trkpt lat="45.93979626839732" lon="13.80585251959681"><ele>1156.6666666666667</ele><time>2026-05-01T12:24:59Z</time></trkpt><trkpt lat="45.93970801961384" lon="13.805845081305963"><ele>1157.0</ele><time>2026-05-01T12:25:00Z</time></trkpt><trkpt lat="45.939603648625635" lon="13.805839763996074"><ele>1157.0</ele><time>2026-05-01T12:25:01Z</time></trkpt><trkpt lat="45.93950067370403" lon="13.805841333908608"><ele>1157.0</ele><time>2026-05-01T12:25:02Z</time></trkpt><trkpt lat="45.939405867935974" lon="13.805887229841499"><ele>1157.0</ele><time>2026-05-01T12:25:03Z</time></trkpt><trkpt lat="45.939326910692856" lon="13.805963792623878"><ele>1157.0</ele><time>2026-05-01T12:25:04Z</time></trkpt><trkpt lat="45.939251993166046" lon="13.806037819700597"><ele>1157.0</ele><time>2026-05-01T12:25:05Z</time></trkpt><trkpt lat="45.93919191564854" lon="13.806138806570091"><ele>1156.6</ele><time>2026-05-01T12:25:06Z</time></trkpt><trkpt lat="45.939136553125145" lon="13.806245890673349"><ele>1156.2</ele><time>2026-05-01T12:25:07Z</time></trkpt><trkpt lat="45.939076941082085" lon="13.806355670649493"><ele>1155.8</ele><time>2026-05-01T12:25:08Z</time></trkpt><trkpt lat="45.93902014786825" lon="13.806444491006681"><ele>1155.4</ele><time>2026-05-01T12:25:09Z</time></trkpt><trkpt lat="45.938950893517706" lon="13.806522232558516"><ele>1155.0</ele><time>2026-05-01T12:25:10Z</time></trkpt><trkpt lat="45.93888954642806" lon="13.806614153435776"><ele>1155.0</ele><time>2026-05-01T12:25:11Z</time></trkpt><trkpt lat="45.938853339318655" lon="13.806711255763954"><ele>1155.0</ele><time>2026-05-01T12:25:12Z</time></trkpt><trkpt lat="45.93884368926364" lon="13.80687740102276"><ele>1155.0</ele><time>2026-05-01T12:25:14Z</time></trkpt><trkpt lat="45.93888753094426" lon="13.806951758155307"><ele>1155.0</ele><time>2026-05-01T12:25:15Z</time></trkpt><trkpt lat="45.938943357356216" lon="13.80700210603716"><ele>1155.0</ele><time>2026-05-01T12:25:16Z</time></trkpt><trkpt lat="45.939005444059546" lon="13.807042865913738"><ele>1155.0</ele><time>2026-05-01T12:25:17Z</time></trkpt><trkpt lat="45.93906615315778" lon="13.807080983978882"><ele>1155.5</ele><time>2026-05-01T12:25:18Z</time></trkpt><trkpt lat="45.939118943282125" lon="13.807212938605733"><ele>1156.0</ele><time>2026-05-01T12:25:20Z</time></trkpt><trkpt lat="45.939108346467016" lon="13.807302504273704"><ele>1156.5</ele><time>2026-05-01T12:25:21Z</time></trkpt><trkpt lat="45.939084498044906" lon="13.807399267251306"><ele>1157.0</ele><time>2026-05-01T12:25:22Z</time></trkpt><trkpt lat="45.9390609755084" lon="13.807510473643218"><ele>1157.5</ele><time>2026-05-01T12:25:23Z</time></trkpt><trkpt lat="45.93904572092084" lon="13.80762632602284"><ele>1158.0</ele><time>2026-05-01T12:25:24Z</time></trkpt><trkpt lat="45.93905965242505" lon="13.807722088098867"><ele>1158.0</ele><time>2026-05-01T12:25:25Z</time></trkpt><trkpt lat="45.939105558911116" lon="13.807795198548048"><ele>1158.0</ele><time>2026-05-01T12:25:26Z</time></trkpt><trkpt lat="45.939157142008135" lon="13.807856625371475"><ele>1158.0</ele><time>2026-05-01T12:25:27Z</time></trkpt><trkpt lat="45.93920926382666" lon="13.80791694543329"><ele>1158.0</ele><time>2026-05-01T12:25:28Z</time></trkpt><trkpt lat="45.93929447808152" lon="13.807973578507287"><ele>1158.0</ele><time>2026-05-01T12:25:29Z</time></trkpt><trkpt lat="45.93936075999201" lon="13.808030219635848"><ele>1158.0</ele><time>2026-05-01T12:25:30Z</time></trkpt><trkpt lat="45.93942112909004" lon="13.80812228965398"><ele>1157.8333333333333</ele><time>2026-05-01T12:25:31Z</time></trkpt><trkpt lat="45.939446673033316" lon="13.808214137255698"><ele>1157.6666666666667</ele><time>2026-05-01T12:25:32Z</time></trkpt><trkpt lat="45.939457008572575" lon="13.808379946496508"><ele>1157.5</ele><time>2026-05-01T12:25:34Z</time></trkpt><trkpt lat="45.939454762368946" lon="13.808485257299179"><ele>1157.3333333333335</ele><time>2026-05-01T12:25:35Z</time></trkpt><trkpt lat="45.93943361867545" lon="13.808586821170099"><ele>1157.1666666666667</ele><time>2026-05-01T12:25:36Z</time></trkpt><trkpt lat="45.93939290279118" lon="13.808675064917296"><ele>1157.0</ele><time>2026-05-01T12:25:37Z</time></trkpt><trkpt lat="45.93934196267119" lon="13.808748098407666"><ele>1157.4</ele><time>2026-05-01T12:25:38Z</time></trkpt><trkpt lat="45.93927993828048" lon="13.808802213946663"><ele>1157.8000000000002</ele><time>2026-05-01T12:25:39Z</time></trkpt><trkpt lat="45.9392010713928" lon="13.808852243260295"><ele>1158.2</ele><time>2026-05-01T12:25:40Z</time></trkpt><trkpt lat="45.93910445390598" lon="13.808894610790487"><ele>1158.6000000000001</ele><time>2026-05-01T12:25:41Z</time></trkpt><trkpt lat="45.93899629427482" lon="13.808924393174816"><ele>1159.0</ele><time>2026-05-01T12:25:42Z</time></trkpt><trkpt lat="45.938858138528154" lon="13.808948127865579"><ele>1159.0</ele><time>2026-05-01T12:25:43Z</time></trkpt><trkpt lat="45.938724074471764" lon="13.808962226396043"><ele>1159.0</ele><time>2026-05-01T12:25:44Z</time></trkpt><trkpt lat="45.93862159273477" lon="13.808962364277749"><ele>1159.0</ele><time>2026-05-01T12:25:45Z</time></trkpt><trkpt lat="45.938520847597395" lon="13.80893967785471"><ele>1159.0</ele><time>2026-05-01T12:25:46Z</time></trkpt><trkpt lat="45.93841733766785" lon="13.808908330159527"><ele>1159.0</ele><time>2026-05-01T12:25:47Z</time></trkpt><trkpt lat="45.9383048745203" lon="13.808862639054489"><ele>1156.75</ele><time>2026-05-01T12:25:48Z</time></trkpt><trkpt lat="45.93817615911815" lon="13.808822154534619"><ele>1154.5</ele><time>2026-05-01T12:25:49Z</time></trkpt><trkpt lat="45.93805452351724" lon="13.808801875679247"><ele>1152.25</ele><time>2026-05-01T12:25:50Z</time></trkpt><trkpt lat="45.937935221213195" lon="13.808818776417377"><ele>1150.0</ele><time>2026-05-01T12:25:51Z</time></trkpt><trkpt lat="45.937823989250234" lon="13.808839297234522"><ele>1150.0</ele><time>2026-05-01T12:25:52Z</time></trkpt><trkpt lat="45.93771599173306" lon="13.808858551202222"><ele>1150.0</ele><time>2026-05-01T12:25:53Z</time></trkpt><trkpt lat="45.93762802539028" lon="13.808882680366606"><ele>1150.0</ele><time>2026-05-01T12:25:54Z</time></trkpt><trkpt lat="45.937558119544846" lon="13.808939828450347"><ele>1150.0</ele><time>2026-05-01T12:25:55Z</time></trkpt><trkpt lat="45.937488884554654" lon="13.808999463884735"><ele>1150.0</ele><time>2026-05-01T12:25:56Z</time></trkpt><trkpt lat="45.9374215243769" lon="13.809080654019551"><ele>1150.0</ele><time>2026-05-01T12:25:57Z</time></trkpt><trkpt lat="45.93735946605872" lon="13.809196434695885"><ele>1151.5</ele><time>2026-05-01T12:25:58Z</time></trkpt><trkpt lat="45.93730193173966" lon="13.809310819411753"><ele>1153.0</ele><time>2026-05-01T12:25:59Z</time></trkpt><trkpt lat="45.937248562210335" lon="13.809427241788441"><ele>1154.5</ele><time>2026-05-01T12:26:00Z</time></trkpt><trkpt lat="45.937208299992285" lon="13.809541691533504"><ele>1156.0</ele><time>2026-05-01T12:26:01Z</time></trkpt><trkpt lat="45.937187122531505" lon="13.809661776840782"><ele>1157.5</ele><time>2026-05-01T12:26:02Z</time></trkpt><trkpt lat="45.9371756529831" lon="13.809759832942506"><ele>1159.0</ele><time>2026-05-01T12:26:03Z</time></trkpt><trkpt lat="45.93717923504518" lon="13.809870022544795"><ele>1159.0</ele><time>2026-05-01T12:26:04Z</time></trkpt><trkpt lat="45.93719193658779" lon="13.809985898381974"><ele>1159.0</ele><time>2026-05-01T12:26:05Z</time></trkpt><trkpt lat="45.93721635913696" lon="13.810129255023364"><ele>1159.0</ele><time>2026-05-01T12:26:06Z</time></trkpt><trkpt lat="45.937225261378956" lon="13.810262036055875"><ele>1159.0</ele><time>2026-05-01T12:26:07Z</time></trkpt><trkpt lat="45.9372274933166" lon="13.810385776300054"><ele>1159.0</ele><time>2026-05-01T12:26:08Z</time></trkpt><trkpt lat="45.93723629402797" lon="13.810509252186037"><ele>1159.0</ele><time>2026-05-01T12:26:09Z</time></trkpt><trkpt lat="45.937267841232334" lon="13.810614593588923"><ele>1160.3333333333333</ele><time>2026-05-01T12:26:10Z</time></trkpt><trkpt lat="45.93731750384187" lon="13.810729441868748"><ele>1161.6666666666665</ele><time>2026-05-01T12:26:11Z</time></trkpt><trkpt lat="45.937351049120316" lon="13.810839764420443"><ele>1163.0</ele><time>2026-05-01T12:26:12Z</time></trkpt><trkpt lat="45.93736808972635" lon="13.810953657204347"><ele>1164.3333333333333</ele><time>2026-05-01T12:26:13Z</time></trkpt><trkpt lat="45.93737329880878" lon="13.811069928756192"><ele>1165.6666666666667</ele><time>2026-05-01T12:26:14Z</time></trkpt><trkpt lat="45.93736705933036" lon="13.81118706378256"><ele>1167.0</ele><time>2026-05-01T12:26:15Z</time></trkpt><trkpt lat="45.937363086196704" lon="13.811299815941702"><ele>1168.4</ele><time>2026-05-01T12:26:16Z</time></trkpt><trkpt lat="45.93734795867281" lon="13.811447931128097"><ele>1169.8000000000002</ele><time>2026-05-01T12:26:17Z</time></trkpt><trkpt lat="45.93733751206422" lon="13.81159293406168"><ele>1171.2</ele><time>2026-05-01T12:26:18Z</time></trkpt><trkpt lat="45.93732977646076" lon="13.811735137657905"><ele>1172.6000000000001</ele><time>2026-05-01T12:26:19Z</time></trkpt><trkpt lat="45.937323630367445" lon="13.811877946738997"><ele>1174.0</ele><time>2026-05-01T12:26:20Z</time></trkpt><trkpt lat="45.93730966498491" lon="13.812016360391588"><ele>1174.5</ele><time>2026-05-01T12:26:21Z</time></trkpt><trkpt lat="45.93727271618032" lon="13.812131817345936"><ele>1175.0</ele><time>2026-05-01T12:26:22Z</time></trkpt><trkpt lat="45.93724501241808" lon="13.812239223417313"><ele>1175.5</ele><time>2026-05-01T12:26:23Z</time></trkpt><trkpt lat="45.93722710107187" lon="13.812355136029138"><ele>1176.0</ele><time>2026-05-01T12:26:24Z</time></trkpt><trkpt lat="45.93718958008504" lon="13.812459830722975"><ele>1176.5</ele><time>2026-05-01T12:26:25Z</time></trkpt><trkpt lat="45.93714410046655" lon="13.812577825885153"><ele>1177.0</ele><time>2026-05-01T12:26:26Z</time></trkpt><trkpt lat="45.93706239597338" lon="13.81273178032602"><ele>1179.4</ele><time>2026-05-01T12:26:27Z</time></trkpt><trkpt lat="45.93700244568138" lon="13.81288384193007"><ele>1181.8000000000002</ele><time>2026-05-01T12:26:28Z</time></trkpt><trkpt lat="45.93696648449317" lon="13.813004876642292"><ele>1184.2</ele><time>2026-05-01T12:26:29Z</time></trkpt><trkpt lat="45.936930889337724" lon="13.813111093236824"><ele>1186.6000000000001</ele><time>2026-05-01T12:26:30Z</time></trkpt><trkpt lat="45.93688847415263" lon="13.813225075010456"><ele>1189.0</ele><time>2026-05-01T12:26:31Z</time></trkpt><trkpt lat="45.9368368910598" lon="13.813307099230528"><ele>1189.0</ele><time>2026-05-01T12:26:32Z</time></trkpt><trkpt lat="45.93677442921513" lon="13.813385314124485"><ele>1189.0</ele><time>2026-05-01T12:26:33Z</time></trkpt><trkpt lat="45.93667744936976" lon="13.813470216529899"><ele>1189.0</ele><time>2026-05-01T12:26:34Z</time></trkpt><trkpt lat="45.936588819462116" lon="13.813556756756464"><ele>1189.0</ele><time>2026-05-01T12:26:35Z</time></trkpt><trkpt lat="45.936508078412906" lon="13.813644954682264"><ele>1189.0</ele><time>2026-05-01T12:26:36Z</time></trkpt><trkpt lat="45.93644102476403" lon="13.81372045435562"><ele>1185.0</ele><time>2026-05-01T12:26:37Z</time></trkpt><trkpt lat="45.93636388146551" lon="13.813801936567936"><ele>1181.0</ele><time>2026-05-01T12:26:38Z</time></trkpt><trkpt lat="45.9363017197782" lon="13.813862626604916"><ele>1177.0</ele><time>2026-05-01T12:26:39Z</time></trkpt><trkpt lat="45.93625824568083" lon="13.813929566751018"><ele>1173.0</ele><time>2026-05-01T12:26:40Z</time></trkpt><trkpt lat="45.93621476030616" lon="13.81407620998264"><ele>1169.0</ele><time>2026-05-01T12:26:42Z</time></trkpt><trkpt lat="45.93622832890074" lon="13.814246873466152"><ele>1169.0</ele><time>2026-05-01T12:26:44Z</time></trkpt><trkpt lat="45.93626094790759" lon="13.814365627090709"><ele>1169.0</ele><time>2026-05-01T12:26:45Z</time></trkpt><trkpt lat="45.936293451504625" lon="13.814498062392353"><ele>1169.0</ele><time>2026-05-01T12:26:46Z</time></trkpt><trkpt lat="45.936316766700514" lon="13.814617783389417"><ele>1169.0</ele><time>2026-05-01T12:26:47Z</time></trkpt><trkpt lat="45.93633405450123" lon="13.814734497414987"><ele>1169.0</ele><time>2026-05-01T12:26:48Z</time></trkpt><trkpt lat="45.93634354282477" lon="13.814841565784123"><ele>1169.0</ele><time>2026-05-01T12:26:49Z</time></trkpt><trkpt lat="45.93634924757037" lon="13.814950314872984"><ele>1169.0</ele><time>2026-05-01T12:26:50Z</time></trkpt><trkpt lat="45.93633313621995" lon="13.81504232849484"><ele>1169.0</ele><time>2026-05-01T12:26:51Z</time></trkpt><trkpt lat="45.93629773628041" lon="13.815141615450486"><ele>1169.0</ele><time>2026-05-01T12:26:52Z</time></trkpt><trkpt lat="45.93624584373754" lon="13.815281386740693"><ele>1169.0</ele><time>2026-05-01T12:26:53Z</time></trkpt><trkpt lat="45.93619951085834" lon="13.815408003442922"><ele>1169.0</ele><time>2026-05-01T12:26:54Z</time></trkpt><trkpt lat="45.93617362688459" lon="13.815517051327962"><ele>1169.0</ele><time>2026-05-01T12:26:55Z</time></trkpt><trkpt lat="45.93616017395986" lon="13.815610924451423"><ele>1171.2</ele><time>2026-05-01T12:26:56Z</time></trkpt><trkpt lat="45.93615606252054" lon="13.81573028059354"><ele>1173.4</ele><time>2026-05-01T12:26:57Z</time></trkpt><trkpt lat="45.93616961928504" lon="13.815851808881732"><ele>1175.6</ele><time>2026-05-01T12:26:58Z</time></trkpt><trkpt lat="45.936189919327425" lon="13.815977826923666"><ele>1177.8</ele><time>2026-05-01T12:26:59Z</time></trkpt><trkpt lat="45.93622373356422" lon="13.816127403428332"><ele>1180.0</ele><time>2026-05-01T12:27:00Z</time></trkpt><trkpt lat="45.93625041066871" lon="13.816279210649654"><ele>1179.6666666666665</ele><time>2026-05-01T12:27:01Z</time></trkpt><trkpt lat="45.936245301108094" lon="13.8164152182241"><ele>1179.3333333333333</ele><time>2026-05-01T12:27:02Z</time></trkpt><trkpt lat="45.93622625822485" lon="13.81651359601212"><ele>1179.0</ele><time>2026-05-01T12:27:03Z</time></trkpt><trkpt lat="45.93621949561335" lon="13.816615083933385"><ele>1178.6666666666667</ele><time>2026-05-01T12:27:04Z</time></trkpt><trkpt lat="45.936226282960575" lon="13.816727557727605"><ele>1178.3333333333335</ele><time>2026-05-01T12:27:05Z</time></trkpt><trkpt lat="45.936238956782205" lon="13.816835770290494"><ele>1178.0</ele><time>2026-05-01T12:27:06Z</time></trkpt><trkpt lat="45.93624894411602" lon="13.816962846004659"><ele>1178.0</ele><time>2026-05-01T12:27:07Z</time></trkpt><trkpt lat="45.93623865850583" lon="13.817113888159014"><ele>1178.0</ele><time>2026-05-01T12:27:08Z</time></trkpt><trkpt lat="45.93621300172471" lon="13.817266167814207"><ele>1178.0</ele><time>2026-05-01T12:27:09Z</time></trkpt><trkpt lat="45.936179850260146" lon="13.817410356388272"><ele>1178.0</ele><time>2026-05-01T12:27:10Z</time></trkpt><trkpt lat="45.936151444441236" lon="13.81754871176421"><ele>1178.0</ele><time>2026-05-01T12:27:11Z</time></trkpt><trkpt lat="45.93614073296389" lon="13.81766703991538"><ele>1174.6</ele><time>2026-05-01T12:27:12Z</time></trkpt><trkpt lat="45.93614469641318" lon="13.817791672018997"><ele>1171.1999999999998</ele><time>2026-05-01T12:27:13Z</time></trkpt><trkpt lat="45.93616446547919" lon="13.817930788024585"><ele>1167.8</ele><time>2026-05-01T12:27:14Z</time></trkpt><trkpt lat="45.93619473106797" lon="13.818075198448515"><ele>1164.3999999999999</ele><time>2026-05-01T12:27:15Z</time></trkpt><trkpt lat="45.93623359315318" lon="13.818203072512047"><ele>1161.0</ele><time>2026-05-01T12:27:16Z</time></trkpt><trkpt lat="45.936282227346126" lon="13.818306491871548"><ele>1161.0</ele><time>2026-05-01T12:27:17Z</time></trkpt><trkpt lat="45.936343996946725" lon="13.818388143825924"><ele>1161.0</ele><time>2026-05-01T12:27:18Z</time></trkpt><trkpt lat="45.93642632068048" lon="13.818468508462871"><ele>1161.0</ele><time>2026-05-01T12:27:19Z</time></trkpt><trkpt lat="45.93652614507537" lon="13.818539600293656"><ele>1161.0</ele><time>2026-05-01T12:27:20Z</time></trkpt><trkpt lat="45.936646477276085" lon="13.818616353499788"><ele>1161.0</ele><time>2026-05-01T12:27:21Z</time></trkpt><trkpt lat="45.936780654405396" lon="13.81871226594929"><ele>1161.8</ele><time>2026-05-01T12:27:22Z</time></trkpt><trkpt lat="45.936888595936026" lon="13.818807397612272"><ele>1162.6</ele><time>2026-05-01T12:27:23Z</time></trkpt><trkpt lat="45.93698103641521" lon="13.818893412727414"><ele>1163.4</ele><time>2026-05-01T12:27:24Z</time></trkpt><trkpt lat="45.93706103664365" lon="13.818956572011492"><ele>1164.2</ele><time>2026-05-01T12:27:25Z</time></trkpt><trkpt lat="45.9371233371479" lon="13.819032613673539"><ele>1165.0</ele><time>2026-05-01T12:27:26Z</time></trkpt><trkpt lat="45.93715844423894" lon="13.819137889149872"><ele>1165.0</ele><time>2026-05-01T12:27:27Z</time></trkpt><trkpt lat="45.93716810646979" lon="13.819240583483897"><ele>1165.0</ele><time>2026-05-01T12:27:28Z</time></trkpt><trkpt lat="45.93716134506527" lon="13.81935347456916"><ele>1165.0</ele><time>2026-05-01T12:27:29Z</time></trkpt><trkpt lat="45.93717207633363" lon="13.819454706127287"><ele>1165.0</ele><time>2026-05-01T12:27:30Z</time></trkpt><trkpt lat="45.93724900125197" lon="13.819545945965308"><ele>1165.0</ele><time>2026-05-01T12:27:32Z</time></trkpt><trkpt lat="45.937358733935646" lon="13.81952116457038"><ele>1165.0</ele><time>2026-05-01T12:27:34Z</time></trkpt><trkpt lat="45.93742721159548" lon="13.819472265222316"><ele>1163.6666666666665</ele><time>2026-05-01T12:27:35Z</time></trkpt><trkpt lat="45.937505161184085" lon="13.81941707403558"><ele>1162.3333333333333</ele><time>2026-05-01T12:27:36Z</time></trkpt><trkpt lat="45.93756453353065" lon="13.819386818877183"><ele>1161.0</ele><time>2026-05-01T12:27:37Z</time></trkpt><trkpt lat="45.937629824141986" lon="13.819382316747904"><ele>1159.6666666666667</ele><time>2026-05-01T12:27:38Z</time></trkpt><trkpt lat="45.937687403255495" lon="13.819446403401063"><ele>1158.3333333333335</ele><time>2026-05-01T12:27:39Z</time></trkpt><trkpt lat="45.93773406126192" lon="13.819562835072084"><ele>1157.0</ele><time>2026-05-01T12:27:40Z</time></trkpt><trkpt lat="45.93776605438375" lon="13.819685326558545"><ele>1162.0</ele><time>2026-05-01T12:27:41Z</time></trkpt><trkpt lat="45.937766314213576" lon="13.819793344634267"><ele>1167.0</ele><time>2026-05-01T12:27:42Z</time></trkpt><trkpt lat="45.937746521676935" lon="13.81989644368167"><ele>1172.0</ele><time>2026-05-01T12:27:42.999Z</time></trkpt><trkpt lat="45.93770799151011" lon="13.820028902581472"><ele>1177.0</ele><time>2026-05-01T12:27:43.999Z</time></trkpt><trkpt lat="45.937668191507086" lon="13.820186927208184"><ele>1182.0</ele><time>2026-05-01T12:27:44.999Z</time></trkpt><trkpt lat="45.93761823900355" lon="13.820342343039846"><ele>1182.0</ele><time>2026-05-01T12:27:45.999Z</time></trkpt><trkpt lat="45.937560452798415" lon="13.82047074407617"><ele>1182.0</ele><time>2026-05-01T12:27:46.999Z</time></trkpt><trkpt lat="45.937481521104225" lon="13.82058692071247"><ele>1182.0</ele><time>2026-05-01T12:27:47.999Z</time></trkpt><trkpt lat="45.93739175543766" lon="13.820689952163905"><ele>1182.0</ele><time>2026-05-01T12:27:48.999Z</time></trkpt><trkpt lat="45.937298630634466" lon="13.820777043730637"><ele>1182.0</ele><time>2026-05-01T12:27:49.999Z</time></trkpt><trkpt lat="45.93720144385596" lon="13.820838274636305"><ele>1181.0</ele><time>2026-05-01T12:27:50.999Z</time></trkpt><trkpt lat="45.93709249224319" lon="13.820872003497342"><ele>1180.0</ele><time>2026-05-01T12:27:51.999Z</time></trkpt><trkpt lat="45.93698739017506" lon="13.820884096583269"><ele>1179.0</ele><time>2026-05-01T12:27:52.999Z</time></trkpt><trkpt lat="45.9368991329182" lon="13.820897002508028"><ele>1178.0</ele><time>2026-05-01T12:27:53.999Z</time></trkpt><trkpt lat="45.93683145698191" lon="13.820932028055902"><ele>1177.0</ele><time>2026-05-01T12:27:54.999Z</time></trkpt><trkpt lat="45.9367851650515" lon="13.821002896957994"><ele>1176.0</ele><time>2026-05-01T12:27:55.999Z</time></trkpt><trkpt lat="45.93674222947238" lon="13.82109974659066"><ele>1170.25</ele><time>2026-05-01T12:27:56.999Z</time></trkpt><trkpt lat="45.93670004750749" lon="13.821228970573264"><ele>1164.5</ele><time>2026-05-01T12:27:57.999Z</time></trkpt><trkpt lat="45.936652696586485" lon="13.821399788210142"><ele>1158.75</ele><time>2026-05-01T12:27:58.999Z</time></trkpt><trkpt lat="45.936617094686035" lon="13.821566670083843"><ele>1153.0</ele><time>2026-05-01T12:27:59.999Z</time></trkpt><trkpt lat="45.936596066596245" lon="13.821717177117595"><ele>1154.2</ele><time>2026-05-01T12:28:00.999Z</time></trkpt><trkpt lat="45.936586388916474" lon="13.821849433412302"><ele>1155.4</ele><time>2026-05-01T12:28:01.999Z</time></trkpt><trkpt lat="45.93658880581559" lon="13.821980519085958"><ele>1156.6000000000001</ele><time>2026-05-01T12:28:02.999Z</time></trkpt><trkpt lat="45.93659745652567" lon="13.82211250067451"><ele>1157.8</ele><time>2026-05-01T12:28:03.999Z</time></trkpt><trkpt lat="45.936595445859254" lon="13.822251310096943"><ele>1159.0</ele><time>2026-05-01T12:28:04.999Z</time></trkpt><trkpt lat="45.936572862968674" lon="13.822386628242935"><ele>1159.0</ele><time>2026-05-01T12:28:05.999Z</time></trkpt><trkpt lat="45.93653217077009" lon="13.822529860978355"><ele>1159.0</ele><time>2026-05-01T12:28:06.999Z</time></trkpt><trkpt lat="45.936482399281495" lon="13.822676252034437"><ele>1159.0</ele><time>2026-05-01T12:28:07.999Z</time></trkpt><trkpt lat="45.936428603297124" lon="13.822830304644294"><ele>1159.0</ele><time>2026-05-01T12:28:08.999Z</time></trkpt><trkpt lat="45.936377911317365" lon="13.8229436664307"><ele>1159.0</ele><time>2026-05-01T12:28:09.999Z</time></trkpt><trkpt lat="45.93633455856781" lon="13.823034414173243"><ele>1159.5</ele><time>2026-05-01T12:28:10.999Z</time></trkpt><trkpt lat="45.93630894269702" lon="13.823118875860636"><ele>1160.0</ele><time>2026-05-01T12:28:11.999Z</time></trkpt><trkpt lat="45.93630263851008" lon="13.823210619286245"><ele>1160.5</ele><time>2026-05-01T12:28:12.999Z</time></trkpt><trkpt lat="45.9363093456446" lon="13.823309011402365"><ele>1161.0</ele><time>2026-05-01T12:28:13.999Z</time></trkpt><trkpt lat="45.93633114316515" lon="13.823422861603017"><ele>1161.5</ele><time>2026-05-01T12:28:14.999Z</time></trkpt><trkpt lat="45.93635469411947" lon="13.823538946768728"><ele>1162.0</ele><time>2026-05-01T12:28:15.999Z</time></trkpt><trkpt lat="45.936367174591105" lon="13.823670424251931"><ele>1164.0</ele><time>2026-05-01T12:28:16.999Z</time></trkpt><trkpt lat="45.936366497930784" lon="13.823813591546314"><ele>1166.0</ele><time>2026-05-01T12:28:17.999Z</time></trkpt><trkpt lat="45.936352497822064" lon="13.823935811021048"><ele>1168.0</ele><time>2026-05-01T12:28:18.999Z</time></trkpt><trkpt lat="45.93632616610857" lon="13.824060238880499"><ele>1170.0</ele><time>2026-05-01T12:28:19.999Z</time></trkpt><trkpt lat="45.936290845649" lon="13.824173049567422"><ele>1172.0</ele><time>2026-05-01T12:28:20.999Z</time></trkpt><trkpt lat="45.936246696798825" lon="13.824290503121109"><ele>1174.75</ele><time>2026-05-01T12:28:21.999Z</time></trkpt><trkpt lat="45.936176589869156" lon="13.824430431587187"><ele>1177.5</ele><time>2026-05-01T12:28:22.999Z</time></trkpt><trkpt lat="45.9360865070384" lon="13.82459382167905"><ele>1180.25</ele><time>2026-05-01T12:28:23.999Z</time></trkpt><trkpt lat="45.93598738617541" lon="13.824759580513502"><ele>1183.0</ele><time>2026-05-01T12:28:24.999Z</time></trkpt><trkpt lat="45.93592842207124" lon="13.82489550735138"><ele>1181.4</ele><time>2026-05-01T12:28:25.999Z</time></trkpt><trkpt lat="45.935881460574436" lon="13.825017246886723"><ele>1179.8</ele><time>2026-05-01T12:28:26.999Z</time></trkpt><trkpt lat="45.93585356375563" lon="13.825149767601602"><ele>1178.2</ele><time>2026-05-01T12:28:27.999Z</time></trkpt><trkpt lat="45.935806476222645" lon="13.82528396500471"><ele>1176.6</ele><time>2026-05-01T12:28:28.999Z</time></trkpt><trkpt lat="45.935741334897834" lon="13.825408811567979"><ele>1175.0</ele><time>2026-05-01T12:28:29.999Z</time></trkpt><trkpt lat="45.935671254225895" lon="13.825504190265576"><ele>1175.0</ele><time>2026-05-01T12:28:30.999Z</time></trkpt><trkpt lat="45.93558779842749" lon="13.825615498847911"><ele>1175.0</ele><time>2026-05-01T12:28:31.999Z</time></trkpt><trkpt lat="45.93548741012265" lon="13.825776860840028"><ele>1175.0</ele><time>2026-05-01T12:28:32.999Z</time></trkpt><trkpt lat="45.93541162615309" lon="13.825917825504726"><ele>1175.0</ele><time>2026-05-01T12:28:33.999Z</time></trkpt><trkpt lat="45.935330995557656" lon="13.82601791878576"><ele>1174.8333333333335</ele><time>2026-05-01T12:28:34.999Z</time></trkpt><trkpt lat="45.93526386014892" lon="13.826091520591579"><ele>1174.6666666666667</ele><time>2026-05-01T12:28:35.999Z</time></trkpt><trkpt lat="45.93521381700461" lon="13.826159625405923"><ele>1174.5</ele><time>2026-05-01T12:28:36.999Z</time></trkpt><trkpt lat="45.9351660958254" lon="13.82625678065717"><ele>1174.3333333333333</ele><time>2026-05-01T12:28:37.999Z</time></trkpt><trkpt lat="45.93513043832152" lon="13.826385602196472"><ele>1174.1666666666665</ele><time>2026-05-01T12:28:38.999Z</time></trkpt><trkpt lat="45.93511084403164" lon="13.826513179734711"><ele>1174.0</ele><time>2026-05-01T12:28:39.999Z</time></trkpt><trkpt lat="45.935094473162245" lon="13.826636268694925"><ele>1174.0</ele><time>2026-05-01T12:28:40.999Z</time></trkpt><trkpt lat="45.93508835150477" lon="13.826741618256392"><ele>1174.0</ele><time>2026-05-01T12:28:41.999Z</time></trkpt><trkpt lat="45.93511362855719" lon="13.826875191782184"><ele>1174.0</ele><time>2026-05-01T12:28:43.999Z</time></trkpt><trkpt lat="45.935212942040614" lon="13.826958881557301"><ele>1174.0</ele><time>2026-05-01T12:28:45.999Z</time></trkpt><trkpt lat="45.93530106523384" lon="13.82698454998972"><ele>1174.0</ele><time>2026-05-01T12:28:46.999Z</time></trkpt><trkpt lat="45.93539159981879" lon="13.827022044450828"><ele>1171.6666666666665</ele><time>2026-05-01T12:28:47.999Z</time></trkpt><trkpt lat="45.93546562369001" lon="13.827086194434752"><ele>1169.3333333333333</ele><time>2026-05-01T12:28:49Z</time></trkpt><trkpt lat="45.93552831338021" lon="13.82717580579388"><ele>1167.0</ele><time>2026-05-01T12:28:50Z</time></trkpt><trkpt lat="45.935593642205255" lon="13.827258865585051"><ele>1164.6666666666667</ele><time>2026-05-01T12:28:51Z</time></trkpt><trkpt lat="45.935652936379945" lon="13.82733856359946"><ele>1162.3333333333335</ele><time>2026-05-01T12:28:52Z</time></trkpt><trkpt lat="45.93570412587124" lon="13.82743137427337"><ele>1160.0</ele><time>2026-05-01T12:28:53Z</time></trkpt><trkpt lat="45.9357456742949" lon="13.827524997082318"><ele>1160.0</ele><time>2026-05-01T12:28:54Z</time></trkpt><trkpt lat="45.935782314430035" lon="13.827631372637432"><ele>1160.0</ele><time>2026-05-01T12:28:55Z</time></trkpt><trkpt lat="45.93581805905202" lon="13.827738071526886"><ele>1160.0</ele><time>2026-05-01T12:28:56Z</time></trkpt><trkpt lat="45.93586121623179" lon="13.827830469182311"><ele>1160.0</ele><time>2026-05-01T12:28:57Z</time></trkpt><trkpt lat="45.93592243314847" lon="13.827916913162111"><ele>1160.0</ele><time>2026-05-01T12:28:58Z</time></trkpt><trkpt lat="45.93598376824234" lon="13.82798241791003"><ele>1160.0</ele><time>2026-05-01T12:28:59Z</time></trkpt><trkpt lat="45.93604229902514" lon="13.828027864270219"><ele>1159.8333333333335</ele><time>2026-05-01T12:29:00Z</time></trkpt><trkpt lat="45.93615135400771" lon="13.82808254393006"><ele>1159.6666666666667</ele><time>2026-05-01T12:29:02Z</time></trkpt><trkpt lat="45.93620064615912" lon="13.82815496868223"><ele>1159.5</ele><time>2026-05-01T12:29:04Z</time></trkpt><trkpt lat="45.93616870391729" lon="13.82824162354759"><ele>1159.3333333333333</ele><time>2026-05-01T12:29:06Z</time></trkpt><trkpt lat="45.93608097629357" lon="13.828286704864942"><ele>1159.1666666666665</ele><time>2026-05-01T12:29:08Z</time></trkpt><trkpt lat="45.93601921935803" lon="13.828247371978412"><ele>1159.0</ele><time>2026-05-01T12:29:10Z</time></trkpt><trkpt lat="45.93591291257815" lon="13.828216756208274"><ele>1155.5</ele><time>2026-05-01T12:29:12Z</time></trkpt><trkpt lat="45.93581503038746" lon="13.828313157880343"><ele>1152.0</ele><time>2026-05-01T12:29:14Z</time></trkpt><trkpt lat="45.93576149122845" lon="13.828515918177184"><ele>1148.5</ele><time>2026-05-01T12:29:16Z</time></trkpt><trkpt lat="45.935746565314815" lon="13.828634525687434"><ele>1145.0</ele><time>2026-05-01T12:29:17Z</time></trkpt><trkpt lat="45.93573567754348" lon="13.828785943719003"><ele>1144.8</ele><time>2026-05-01T12:29:18Z</time></trkpt><trkpt lat="45.935716541875124" lon="13.828957846504881"><ele>1144.6</ele><time>2026-05-01T12:29:19Z</time></trkpt><trkpt lat="45.93568249243775" lon="13.829091899594086"><ele>1144.4</ele><time>2026-05-01T12:29:20Z</time></trkpt><trkpt lat="45.935646700151715" lon="13.829194274504847"><ele>1144.2</ele><time>2026-05-01T12:29:21Z</time></trkpt><trkpt lat="45.935589860619615" lon="13.829267745943335"><ele>1144.0</ele><time>2026-05-01T12:29:22Z</time></trkpt><trkpt lat="45.935525455369884" lon="13.82931876429152"><ele>1146.2</ele><time>2026-05-01T12:29:23Z</time></trkpt><trkpt lat="45.935442424757824" lon="13.829366713990256"><ele>1148.4</ele><time>2026-05-01T12:29:24Z</time></trkpt><trkpt lat="45.93534764565006" lon="13.82940007352076"><ele>1150.6</ele><time>2026-05-01T12:29:25Z</time></trkpt><trkpt lat="45.935260671235454" lon="13.829445746024396"><ele>1152.8</ele><time>2026-05-01T12:29:26Z</time></trkpt><trkpt lat="45.93518366532484" lon="13.829510334744729"><ele>1155.0</ele><time>2026-05-01T12:29:27Z</time></trkpt><trkpt lat="45.935106005364396" lon="13.829594299805354"><ele>1153.3333333333333</ele><time>2026-05-01T12:29:28Z</time></trkpt><trkpt lat="45.93503775349098" lon="13.829682326565182"><ele>1151.6666666666667</ele><time>2026-05-01T12:29:29Z</time></trkpt><trkpt lat="45.93496789667257" lon="13.829769820801872"><ele>1150.0</ele><time>2026-05-01T12:29:30Z</time></trkpt><trkpt lat="45.93490298100833" lon="13.829851281770226"><ele>1148.3333333333335</ele><time>2026-05-01T12:29:31Z</time></trkpt><trkpt lat="45.934839163451194" lon="13.82993804087294"><ele>1146.6666666666667</ele><time>2026-05-01T12:29:32Z</time></trkpt><trkpt lat="45.93478036619079" lon="13.83002800641594"><ele>1145.0</ele><time>2026-05-01T12:29:33Z</time></trkpt><trkpt lat="45.9347175530023" lon="13.830128450315932"><ele>1147.1666666666667</ele><time>2026-05-01T12:29:34Z</time></trkpt><trkpt lat="45.934642616028235" lon="13.8302217538418"><ele>1149.3333333333335</ele><time>2026-05-01T12:29:35Z</time></trkpt><trkpt lat="45.934573531040996" lon="13.830288525491232"><ele>1151.5</ele><time>2026-05-01T12:29:36Z</time></trkpt><trkpt lat="45.93449966230766" lon="13.83034410087185"><ele>1153.6666666666667</ele><time>2026-05-01T12:29:37Z</time></trkpt><trkpt lat="45.93442098598339" lon="13.83038102537785"><ele>1155.8333333333333</ele><time>2026-05-01T12:29:38Z</time></trkpt><trkpt lat="45.93434126057293" lon="13.8303902929544"><ele>1158.0</ele><time>2026-05-01T12:29:39Z</time></trkpt><trkpt lat="45.934242904537136" lon="13.83038108474013"><ele>1158.0</ele><time>2026-05-01T12:29:40Z</time></trkpt><trkpt lat="45.93413439349914" lon="13.83036796142299"><ele>1158.0</ele><time>2026-05-01T12:29:41Z</time></trkpt><trkpt lat="45.93400646870626" lon="13.830357480962615"><ele>1158.0</ele><time>2026-05-01T12:29:42Z</time></trkpt><trkpt lat="45.93388815575697" lon="13.830341985409271"><ele>1158.0</ele><time>2026-05-01T12:29:43Z</time></trkpt><trkpt lat="45.933782589920575" lon="13.8303143040613"><ele>1158.0</ele><time>2026-05-01T12:29:44Z</time></trkpt><trkpt lat="45.933698830670124" lon="13.830239975232052"><ele>1158.0</ele><time>2026-05-01T12:29:45Z</time></trkpt><trkpt lat="45.933620269323974" lon="13.830173063476888"><ele>1158.0</ele><time>2026-05-01T12:29:46Z</time></trkpt><trkpt lat="45.933543896866055" lon="13.830128322217968"><ele>1158.0</ele><time>2026-05-01T12:29:47Z</time></trkpt><trkpt lat="45.93347716434292" lon="13.830115415773767"><ele>1158.0</ele><time>2026-05-01T12:29:48Z</time></trkpt><trkpt lat="45.93339691795624" lon="13.830125311099584"><ele>1158.0</ele><time>2026-05-01T12:29:49Z</time></trkpt><trkpt lat="45.933307988491926" lon="13.830158919322773"><ele>1158.75</ele><time>2026-05-01T12:29:50Z</time></trkpt><trkpt lat="45.933199456679006" lon="13.830227563981527"><ele>1159.5</ele><time>2026-05-01T12:29:51Z</time></trkpt><trkpt lat="45.9330676315772" lon="13.830286367056116"><ele>1160.25</ele><time>2026-05-01T12:29:52Z</time></trkpt><trkpt lat="45.93296501991315" lon="13.830313372546831"><ele>1161.0</ele><time>2026-05-01T12:29:53Z</time></trkpt><trkpt lat="45.93287180190708" lon="13.830314959052593"><ele>1161.0</ele><time>2026-05-01T12:29:54Z</time></trkpt><trkpt lat="45.9327736175074" lon="13.830313001843184"><ele>1161.0</ele><time>2026-05-01T12:29:55Z</time></trkpt><trkpt lat="45.932678257736725" lon="13.83030051640761"><ele>1161.0</ele><time>2026-05-01T12:29:56Z</time></trkpt><trkpt lat="45.932604369931425" lon="13.830276907273317"><ele>1161.0</ele><time>2026-05-01T12:29:57Z</time></trkpt><trkpt lat="45.932540259509956" lon="13.83026419275528"><ele>1161.0</ele><time>2026-05-01T12:29:58Z</time></trkpt><trkpt lat="45.93246740179757" lon="13.830265610997417"><ele>1161.0</ele><time>2026-05-01T12:29:59Z</time></trkpt><trkpt lat="45.93239936091726" lon="13.83029975281988"><ele>1159.2</ele><time>2026-05-01T12:30:00Z</time></trkpt><trkpt lat="45.93231536839203" lon="13.830364150365769"><ele>1157.3999999999999</ele><time>2026-05-01T12:30:01Z</time></trkpt><trkpt lat="45.93222840989149" lon="13.830465716042564"><ele>1155.6</ele><time>2026-05-01T12:30:02Z</time></trkpt><trkpt lat="45.93213473634093" lon="13.830582867038249"><ele>1153.8</ele><time>2026-05-01T12:30:03Z</time></trkpt><trkpt lat="45.932036312769526" lon="13.830651655313169"><ele>1152.0</ele><time>2026-05-01T12:30:04Z</time></trkpt><trkpt lat="45.93195163676172" lon="13.830666820535727"><ele>1152.0</ele><time>2026-05-01T12:30:05Z</time></trkpt><trkpt lat="45.9318616256616" lon="13.830690829811683"><ele>1152.0</ele><time>2026-05-01T12:30:06Z</time></trkpt><trkpt lat="45.9317786380023" lon="13.830699835540381"><ele>1152.0</ele><time>2026-05-01T12:30:07Z</time></trkpt><trkpt lat="45.93170294174551" lon="13.830696862395998"><ele>1152.0</ele><time>2026-05-01T12:30:08Z</time></trkpt><trkpt lat="45.93161469485894" lon="13.830688218307872"><ele>1152.0</ele><time>2026-05-01T12:30:09Z</time></trkpt><trkpt lat="45.93153196594113" lon="13.83068693193459"><ele>1152.0</ele><time>2026-05-01T12:30:10Z</time></trkpt><trkpt lat="45.93144749765177" lon="13.830715521460345"><ele>1153.75</ele><time>2026-05-01T12:30:11Z</time></trkpt><trkpt lat="45.931352237527825" lon="13.830783023682866"><ele>1155.5</ele><time>2026-05-01T12:30:12Z</time></trkpt><trkpt lat="45.93122911086419" lon="13.830916387233193"><ele>1157.25</ele><time>2026-05-01T12:30:13Z</time></trkpt><trkpt lat="45.93110280323788" lon="13.831058675165622"><ele>1159.0</ele><time>2026-05-01T12:30:14Z</time></trkpt><trkpt lat="45.930966744819266" lon="13.83121266695237"><ele>1154.3333333333333</ele><time>2026-05-01T12:30:15Z</time></trkpt><trkpt lat="45.93082991630838" lon="13.83136578616693"><ele>1149.6666666666667</ele><time>2026-05-01T12:30:16Z</time></trkpt><trkpt lat="45.93068578448457" lon="13.831464557727857"><ele>1145.0</ele><time>2026-05-01T12:30:17Z</time></trkpt><trkpt lat="45.93057672604255" lon="13.831554360202261"><ele>1145.0</ele><time>2026-05-01T12:30:18Z</time></trkpt><trkpt lat="45.93049034428567" lon="13.831648821046567"><ele>1145.0</ele><time>2026-05-01T12:30:19Z</time></trkpt><trkpt lat="45.930434953646376" lon="13.831740217180036"><ele>1145.0</ele><time>2026-05-01T12:30:20Z</time></trkpt><trkpt lat="45.930394403529085" lon="13.831844900492586"><ele>1145.0</ele><time>2026-05-01T12:30:21Z</time></trkpt><trkpt lat="45.93037120456136" lon="13.831961277625394"><ele>1145.0</ele><time>2026-05-01T12:30:22Z</time></trkpt><trkpt lat="45.93036742619218" lon="13.832063887835128"><ele>1145.0</ele><time>2026-05-01T12:30:23Z</time></trkpt><trkpt lat="45.93038965870882" lon="13.83224763079376"><ele>1144.8333333333335</ele><time>2026-05-01T12:30:25Z</time></trkpt><trkpt lat="45.930407256218636" lon="13.832373579703637"><ele>1144.6666666666667</ele><time>2026-05-01T12:30:26Z</time></trkpt><trkpt lat="45.93043955031102" lon="13.832493899802646"><ele>1144.5</ele><time>2026-05-01T12:30:27Z</time></trkpt><trkpt lat="45.93046849869841" lon="13.832609540701432"><ele>1144.3333333333333</ele><time>2026-05-01T12:30:28Z</time></trkpt><trkpt lat="45.9304975627049" lon="13.83272887538921"><ele>1144.1666666666665</ele><time>2026-05-01T12:30:29Z</time></trkpt><trkpt lat="45.93052984058388" lon="13.832851177874282"><ele>1144.0</ele><time>2026-05-01T12:30:30Z</time></trkpt><trkpt lat="45.93055137724076" lon="13.832959295338489"><ele>1142.0</ele><time>2026-05-01T12:30:31Z</time></trkpt><trkpt lat="45.93057687273611" lon="13.833081938847522"><ele>1140.0</ele><time>2026-05-01T12:30:32Z</time></trkpt><trkpt lat="45.93060582357428" lon="13.833204959890018"><ele>1138.0</ele><time>2026-05-01T12:30:33Z</time></trkpt><trkpt lat="45.93063883840455" lon="13.833331919294048"><ele>1136.0</ele><time>2026-05-01T12:30:34Z</time></trkpt><trkpt lat="45.93067221014441" lon="13.833453412256372"><ele>1134.0</ele><time>2026-05-01T12:30:35Z</time></trkpt><trkpt lat="45.93069873268393" lon="13.833566151572317"><ele>1132.0</ele><time>2026-05-01T12:30:36Z</time></trkpt><trkpt lat="45.930721642190726" lon="13.833671816756409"><ele>1130.2</ele><time>2026-05-01T12:30:37Z</time></trkpt><trkpt lat="45.930743795612905" lon="13.833797433744039"><ele>1128.4</ele><time>2026-05-01T12:30:38Z</time></trkpt><trkpt lat="45.93075173169258" lon="13.833926166535026"><ele>1126.6</ele><time>2026-05-01T12:30:39Z</time></trkpt><trkpt lat="45.93074686411141" lon="13.83405550155238"><ele>1124.8</ele><time>2026-05-01T12:30:40Z</time></trkpt><trkpt lat="45.93073754084555" lon="13.834189939389617"><ele>1123.0</ele><time>2026-05-01T12:30:41Z</time></trkpt><trkpt lat="45.93073154754659" lon="13.834316057962441"><ele>1122.8333333333333</ele><time>2026-05-01T12:30:42Z</time></trkpt><trkpt lat="45.93072730381698" lon="13.834442804610235"><ele>1122.6666666666665</ele><time>2026-05-01T12:30:43Z</time></trkpt><trkpt lat="45.93072803562103" lon="13.834549097645152"><ele>1122.5</ele><time>2026-05-01T12:30:44Z</time></trkpt><trkpt lat="45.930727327947224" lon="13.834646501702276"><ele>1122.3333333333333</ele><time>2026-05-01T12:30:45Z</time></trkpt><trkpt lat="45.930753575895444" lon="13.83473923637103"><ele>1122.1666666666667</ele><time>2026-05-01T12:30:46Z</time></trkpt><trkpt lat="45.93080140161042" lon="13.834829298827438"><ele>1122.0</ele><time>2026-05-01T12:30:47Z</time></trkpt><trkpt lat="45.93087439094888" lon="13.83490815547595"><ele>1123.6</ele><time>2026-05-01T12:30:48Z</time></trkpt><trkpt lat="45.93097433051188" lon="13.834963029353219"><ele>1125.2</ele><time>2026-05-01T12:30:49Z</time></trkpt><trkpt lat="45.931091573925485" lon="13.835016466779027"><ele>1126.8</ele><time>2026-05-01T12:30:50Z</time></trkpt><trkpt lat="45.93118289539162" lon="13.835083465655762"><ele>1128.4</ele><time>2026-05-01T12:30:51Z</time></trkpt><trkpt lat="45.93124478125473" lon="13.835160615342776"><ele>1130.0</ele><time>2026-05-01T12:30:52Z</time></trkpt><trkpt lat="45.93127786669456" lon="13.835256869561153"><ele>1131.6666666666667</ele><time>2026-05-01T12:30:53Z</time></trkpt><trkpt lat="45.931303373670296" lon="13.835361475665636"><ele>1133.3333333333335</ele><time>2026-05-01T12:30:54Z</time></trkpt><trkpt lat="45.93132333874358" lon="13.835491722518622"><ele>1135.0</ele><time>2026-05-01T12:30:55Z</time></trkpt><trkpt lat="45.93133111317593" lon="13.835615501408125"><ele>1136.6666666666667</ele><time>2026-05-01T12:30:56Z</time></trkpt><trkpt lat="45.93131582327623" lon="13.835714316230892"><ele>1138.3333333333333</ele><time>2026-05-01T12:30:57Z</time></trkpt><trkpt lat="45.93127157789567" lon="13.8358209153526"><ele>1140.0</ele><time>2026-05-01T12:30:58Z</time></trkpt><trkpt lat="45.931203352271474" lon="13.835909971000083"><ele>1139.8</ele><time>2026-05-01T12:30:59Z</time></trkpt><trkpt lat="45.931131860379594" lon="13.836016797737868"><ele>1139.6</ele><time>2026-05-01T12:31:00Z</time></trkpt><trkpt lat="45.93102158375304" lon="13.836115269277144"><ele>1139.4</ele><time>2026-05-01T12:31:01Z</time></trkpt><trkpt lat="45.930950597093904" lon="13.836171893101543"><ele>1139.2</ele><time>2026-05-01T12:31:02Z</time></trkpt><trkpt lat="45.93089648402504" lon="13.836240404087407"><ele>1139.0</ele><time>2026-05-01T12:31:03Z</time></trkpt><trkpt lat="45.93083981039631" lon="13.836375970531904"><ele>1139.0</ele><time>2026-05-01T12:31:05Z</time></trkpt><trkpt lat="45.93080376407998" lon="13.836467830691458"><ele>1139.0</ele><time>2026-05-01T12:31:06Z</time></trkpt><trkpt lat="45.9307734786853" lon="13.83655008990376"><ele>1139.0</ele><time>2026-05-01T12:31:07Z</time></trkpt><trkpt lat="45.930741982874565" lon="13.83663401036097"><ele>1139.0</ele><time>2026-05-01T12:31:08Z</time></trkpt><trkpt lat="45.93070134955118" lon="13.836729681784492"><ele>1139.0</ele><time>2026-05-01T12:31:09Z</time></trkpt><trkpt lat="45.93066419750812" lon="13.836886388091015"><ele>1139.0</ele><time>2026-05-01T12:31:10Z</time></trkpt><trkpt lat="45.930625847292944" lon="13.837049764662412"><ele>1140.0</ele><time>2026-05-01T12:31:11Z</time></trkpt><trkpt lat="45.93060165777697" lon="13.837141526279925"><ele>1141.0</ele><time>2026-05-01T12:31:12Z</time></trkpt><trkpt lat="45.930578975802305" lon="13.83728233600363"><ele>1142.0</ele><time>2026-05-01T12:31:14Z</time></trkpt><trkpt lat="45.93059782905584" lon="13.83737240315924"><ele>1143.0</ele><time>2026-05-01T12:31:15Z</time></trkpt><trkpt lat="45.93064218365222" lon="13.837468783976155"><ele>1144.0</ele><time>2026-05-01T12:31:16Z</time></trkpt><trkpt lat="45.93070929268526" lon="13.8375698724005"><ele>1145.0</ele><time>2026-05-01T12:31:17Z</time></trkpt><trkpt lat="45.93078200492034" lon="13.83768204654376"><ele>1145.0</ele><time>2026-05-01T12:31:18Z</time></trkpt><trkpt lat="45.93083826534506" lon="13.83778783769333"><ele>1145.0</ele><time>2026-05-01T12:31:19Z</time></trkpt><trkpt lat="45.930892691689" lon="13.837862117001292"><ele>1145.0</ele><time>2026-05-01T12:31:20Z</time></trkpt><trkpt lat="45.93096635792086" lon="13.837891113543222"><ele>1145.0</ele><time>2026-05-01T12:31:21Z</time></trkpt><trkpt lat="45.93104484330022" lon="13.837935399607137"><ele>1145.0</ele><time>2026-05-01T12:31:22Z</time></trkpt><trkpt lat="45.93112696083646" lon="13.837983859514907"><ele>1145.0</ele><time>2026-05-01T12:31:23Z</time></trkpt><trkpt lat="45.93120312079273" lon="13.83804732297021"><ele>1146.1666666666667</ele><time>2026-05-01T12:31:24Z</time></trkpt><trkpt lat="45.93128480453118" lon="13.838080875258402"><ele>1147.3333333333335</ele><time>2026-05-01T12:31:25Z</time></trkpt><trkpt lat="45.931344620901065" lon="13.838148112622498"><ele>1148.5</ele><time>2026-05-01T12:31:26Z</time></trkpt><trkpt lat="45.93140513811298" lon="13.838229943176394"><ele>1149.6666666666667</ele><time>2026-05-01T12:31:27Z</time></trkpt><trkpt lat="45.93146213049106" lon="13.838333307830233"><ele>1150.8333333333333</ele><time>2026-05-01T12:31:28Z</time></trkpt><trkpt lat="45.931538479460336" lon="13.838452231225167"><ele>1152.0</ele><time>2026-05-01T12:31:29Z</time></trkpt><trkpt lat="45.93160554760551" lon="13.838650157755307"><ele>1152.0</ele><time>2026-05-01T12:31:30Z</time></trkpt><trkpt lat="45.93169182988113" lon="13.838835278938179"><ele>1152.0</ele><time>2026-05-01T12:31:31Z</time></trkpt><trkpt lat="45.93178553099224" lon="13.83899170509451"><ele>1152.0</ele><time>2026-05-01T12:31:32Z</time></trkpt><trkpt lat="45.931848047410696" lon="13.839120146126088"><ele>1152.0</ele><time>2026-05-01T12:31:33Z</time></trkpt><trkpt lat="45.931900265099515" lon="13.839242644330293"><ele>1152.8</ele><time>2026-05-01T12:31:34Z</time></trkpt><trkpt lat="45.93193831926157" lon="13.839365644706383"><ele>1153.6</ele><time>2026-05-01T12:31:35Z</time></trkpt><trkpt lat="45.93198821259486" lon="13.839491745262157"><ele>1154.3999999999999</ele><time>2026-05-01T12:31:36Z</time></trkpt><trkpt lat="45.932037880506705" lon="13.8396222522141"><ele>1155.2</ele><time>2026-05-01T12:31:37Z</time></trkpt><trkpt lat="45.932085456286885" lon="13.839744281500398"><ele>1156.0</ele><time>2026-05-01T12:31:38Z</time></trkpt><trkpt lat="45.932130097840435" lon="13.83984227606666"><ele>1156.0</ele><time>2026-05-01T12:31:39Z</time></trkpt><trkpt lat="45.93219455607007" lon="13.839937326019173"><ele>1156.0</ele><time>2026-05-01T12:31:40Z</time></trkpt><trkpt lat="45.932291189158754" lon="13.84003803298212"><ele>1156.0</ele><time>2026-05-01T12:31:41Z</time></trkpt><trkpt lat="45.93239264985936" lon="13.840124380145076"><ele>1156.0</ele><time>2026-05-01T12:31:42Z</time></trkpt><trkpt lat="45.93247403807219" lon="13.840219637718636"><ele>1156.0</ele><time>2026-05-01T12:31:43Z</time></trkpt><trkpt lat="45.93253537994972" lon="13.840312843650684"><ele>1155.6666666666665</ele><time>2026-05-01T12:31:44Z</time></trkpt><trkpt lat="45.932566655106385" lon="13.840393472112789"><ele>1155.3333333333333</ele><time>2026-05-01T12:31:45Z</time></trkpt><trkpt lat="45.93257381867907" lon="13.840483803019938"><ele>1155.0</ele><time>2026-05-01T12:31:46Z</time></trkpt><trkpt lat="45.93256607298256" lon="13.840590695891237"><ele>1154.6666666666667</ele><time>2026-05-01T12:31:47Z</time></trkpt><trkpt lat="45.93254693281144" lon="13.840734141654886"><ele>1154.3333333333335</ele><time>2026-05-01T12:31:48Z</time></trkpt><trkpt lat="45.93252772725462" lon="13.840925511226576"><ele>1154.0</ele><time>2026-05-01T12:31:49Z</time></trkpt><trkpt lat="45.932527922438986" lon="13.841107048682595"><ele>1153.2</ele><time>2026-05-01T12:31:50Z</time></trkpt><trkpt lat="45.93252570452666" lon="13.84129127740178"><ele>1152.4</ele><time>2026-05-01T12:31:51Z</time></trkpt><trkpt lat="45.932531265392356" lon="13.841467457260052"><ele>1151.6</ele><time>2026-05-01T12:31:52Z</time></trkpt><trkpt lat="45.932516675792805" lon="13.841603290887125"><ele>1150.8</ele><time>2026-05-01T12:31:53Z</time></trkpt><trkpt lat="45.93251422572068" lon="13.841711113750383"><ele>1150.0</ele><time>2026-05-01T12:31:54Z</time></trkpt><trkpt lat="45.9325409241295" lon="13.84180837926885"><ele>1153.1666666666665</ele><time>2026-05-01T12:31:55Z</time></trkpt><trkpt lat="45.932587923771244" lon="13.841875217454785"><ele>1156.3333333333333</ele><time>2026-05-01T12:31:56Z</time></trkpt><trkpt lat="45.9326540619482" lon="13.841918069131996"><ele>1159.5</ele><time>2026-05-01T12:31:57Z</time></trkpt><trkpt lat="45.93273520107309" lon="13.84194918476115"><ele>1162.6666666666667</ele><time>2026-05-01T12:31:58Z</time></trkpt><trkpt lat="45.93281933482268" lon="13.841975086500954"><ele>1165.8333333333335</ele><time>2026-05-01T12:31:59Z</time></trkpt><trkpt lat="45.93290480124871" lon="13.842001967263762"><ele>1169.0</ele><time>2026-05-01T12:32:00Z</time></trkpt><trkpt lat="45.93297405073724" lon="13.84203503428709"><ele>1169.0</ele><time>2026-05-01T12:32:01Z</time></trkpt><trkpt lat="45.93302871412164" lon="13.842091371496753"><ele>1169.0</ele><time>2026-05-01T12:32:02Z</time></trkpt><trkpt lat="45.93306184089834" lon="13.8421794290505"><ele>1169.0</ele><time>2026-05-01T12:32:03Z</time></trkpt><trkpt lat="45.93307699559888" lon="13.842270634321892"><ele>1169.0</ele><time>2026-05-01T12:32:04Z</time></trkpt><trkpt lat="45.93305782032554" lon="13.842436211588037"><ele>1169.0</ele><time>2026-05-01T12:32:06Z</time></trkpt><trkpt lat="45.93304632450368" lon="13.84255036973108"><ele>1169.0</ele><time>2026-05-01T12:32:07Z</time></trkpt><trkpt lat="45.93303034481479" lon="13.842684911436368"><ele>1170.3333333333335</ele><time>2026-05-01T12:32:08Z</time></trkpt><trkpt lat="45.93302476857758" lon="13.842811514427588"><ele>1171.6666666666667</ele><time>2026-05-01T12:32:09Z</time></trkpt><trkpt lat="45.93302342563296" lon="13.842937599812984"><ele>1173.0</ele><time>2026-05-01T12:32:10Z</time></trkpt><trkpt lat="45.933016781301845" lon="13.843059221684324"><ele>1174.3333333333333</ele><time>2026-05-01T12:32:11Z</time></trkpt><trkpt lat="45.93299891328082" lon="13.843182993738589"><ele>1175.6666666666665</ele><time>2026-05-01T12:32:12Z</time></trkpt><trkpt lat="45.93297433867812" lon="13.843301010410357"><ele>1177.0</ele><time>2026-05-01T12:32:13Z</time></trkpt><trkpt lat="45.93294611367796" lon="13.84341531919235"><ele>1180.0</ele><time>2026-05-01T12:32:14Z</time></trkpt><trkpt lat="45.93291201022676" lon="13.843515568261202"><ele>1183.0</ele><time>2026-05-01T12:32:15Z</time></trkpt><trkpt lat="45.93286027121581" lon="13.843608290523397"><ele>1186.0</ele><time>2026-05-01T12:32:16Z</time></trkpt><trkpt lat="45.93282287224709" lon="13.84370199517208"><ele>1189.0</ele><time>2026-05-01T12:32:17Z</time></trkpt><trkpt lat="45.93277102648467" lon="13.843801477613997"><ele>1192.0</ele><time>2026-05-01T12:32:18Z</time></trkpt><trkpt lat="45.93271285364304" lon="13.843898203232214"><ele>1195.0</ele><time>2026-05-01T12:32:19Z</time></trkpt><trkpt lat="45.93263900728365" lon="13.844034924639102"><ele>1194.8</ele><time>2026-05-01T12:32:20Z</time></trkpt><trkpt lat="45.93254368600646" lon="13.84414349436856"><ele>1194.6</ele><time>2026-05-01T12:32:22Z</time></trkpt><trkpt lat="45.932474079029795" lon="13.844232969197693"><ele>1194.4</ele><time>2026-05-01T12:32:23Z</time></trkpt><trkpt lat="45.932418091276865" lon="13.844310089260167"><ele>1194.2</ele><time>2026-05-01T12:32:24Z</time></trkpt><trkpt lat="45.932351529269276" lon="13.844407556636579"><ele>1194.0</ele><time>2026-05-01T12:32:25Z</time></trkpt><trkpt lat="45.93229489998138" lon="13.844513749903593"><ele>1194.0</ele><time>2026-05-01T12:32:26Z</time></trkpt><trkpt lat="45.9322445464309" lon="13.844614860733076"><ele>1194.0</ele><time>2026-05-01T12:32:27Z</time></trkpt><trkpt lat="45.93220160941834" lon="13.844702355601493"><ele>1194.0</ele><time>2026-05-01T12:32:28Z</time></trkpt><trkpt lat="45.93213996555987" lon="13.844775038091521"><ele>1194.0</ele><time>2026-05-01T12:32:29Z</time></trkpt><trkpt lat="45.93207712827528" lon="13.844887416620349"><ele>1194.0</ele><time>2026-05-01T12:32:29.999Z</time></trkpt><trkpt lat="45.93201508729408" lon="13.844992271579656"><ele>1194.0</ele><time>2026-05-01T12:32:30.999Z</time></trkpt><trkpt lat="45.93195045829175" lon="13.845090693110679"><ele>1193.8333333333333</ele><time>2026-05-01T12:32:31.999Z</time></trkpt><trkpt lat="45.93188461570778" lon="13.845187589004924"><ele>1193.6666666666667</ele><time>2026-05-01T12:32:32.999Z</time></trkpt><trkpt lat="45.93182425992126" lon="13.845278057819481"><ele>1193.5</ele><time>2026-05-01T12:32:33.999Z</time></trkpt><trkpt lat="45.93176440989684" lon="13.845350666230114"><ele>1193.3333333333335</ele><time>2026-05-01T12:32:34.999Z</time></trkpt><trkpt lat="45.93168431417143" lon="13.84542916343942"><ele>1193.1666666666667</ele><time>2026-05-01T12:32:35.999Z</time></trkpt><trkpt lat="45.931601101964915" lon="13.845484653688741"><ele>1193.0</ele><time>2026-05-01T12:32:36.999Z</time></trkpt><trkpt lat="45.931524332633046" lon="13.845554077157125"><ele>1193.0</ele><time>2026-05-01T12:32:37.999Z</time></trkpt><trkpt lat="45.931456987060166" lon="13.84563736164066"><ele>1193.0</ele><time>2026-05-01T12:32:38.999Z</time></trkpt><trkpt lat="45.931377796823284" lon="13.845710203941978"><ele>1193.0</ele><time>2026-05-01T12:32:39.999Z</time></trkpt><trkpt lat="45.931305454062134" lon="13.845789699537312"><ele>1193.0</ele><time>2026-05-01T12:32:40.999Z</time></trkpt><trkpt lat="45.931233078503624" lon="13.845851643962751"><ele>1193.0</ele><time>2026-05-01T12:32:41.999Z</time></trkpt><trkpt lat="45.93116264034936" lon="13.84592093996799"><ele>1193.0</ele><time>2026-05-01T12:32:42.999Z</time></trkpt><trkpt lat="45.931094893164406" lon="13.845986014620848"><ele>1195.4</ele><time>2026-05-01T12:32:43.999Z</time></trkpt><trkpt lat="45.931020347763095" lon="13.846063420893888"><ele>1197.8</ele><time>2026-05-01T12:32:44.999Z</time></trkpt><trkpt lat="45.9309501376406" lon="13.846142736848984"><ele>1200.2</ele><time>2026-05-01T12:32:45.999Z</time></trkpt><trkpt lat="45.93087118958258" lon="13.846218264453624"><ele>1202.6</ele><time>2026-05-01T12:32:46.999Z</time></trkpt><trkpt lat="45.93079371738335" lon="13.846298091762266"><ele>1205.0</ele><time>2026-05-01T12:32:47.999Z</time></trkpt><trkpt lat="45.93072160378812" lon="13.84638473450033"><ele>1205.0</ele><time>2026-05-01T12:32:48.999Z</time></trkpt><trkpt lat="45.93066572668351" lon="13.846473541887386"><ele>1205.0</ele><time>2026-05-01T12:32:49.999Z</time></trkpt><trkpt lat="45.9306187510622" lon="13.84654191929728"><ele>1205.0</ele><time>2026-05-01T12:32:50.999Z</time></trkpt><trkpt lat="45.93058240641746" lon="13.846622591078036"><ele>1205.0</ele><time>2026-05-01T12:32:51.999Z</time></trkpt><trkpt lat="45.93053483894886" lon="13.846726538196506"><ele>1205.0</ele><time>2026-05-01T12:32:52.999Z</time></trkpt><trkpt lat="45.93048580017391" lon="13.846848605967358"><ele>1205.0</ele><time>2026-05-01T12:32:53.999Z</time></trkpt><trkpt lat="45.93045342959291" lon="13.846993263038193"><ele>1208.2</ele><time>2026-05-01T12:32:54.999Z</time></trkpt><trkpt lat="45.93042973358535" lon="13.847134829510798"><ele>1211.4</ele><time>2026-05-01T12:32:55.999Z</time></trkpt><trkpt lat="45.93041102440796" lon="13.847296339900783"><ele>1214.6</ele><time>2026-05-01T12:32:56.999Z</time></trkpt><trkpt lat="45.93039430305858" lon="13.847443755999395"><ele>1217.8</ele><time>2026-05-01T12:32:57.999Z</time></trkpt><trkpt lat="45.93040304257917" lon="13.847558912951587"><ele>1221.0</ele><time>2026-05-01T12:32:58.999Z</time></trkpt><trkpt lat="45.93037981894054" lon="13.847651394751193"><ele>1223.75</ele><time>2026-05-01T12:32:59.999Z</time></trkpt><trkpt lat="45.93040880280083" lon="13.847822025818472"><ele>1226.5</ele><time>2026-05-01T12:33:02Z</time></trkpt><trkpt lat="45.93035518826489" lon="13.847965569412276"><ele>1229.25</ele><time>2026-05-01T12:33:04Z</time></trkpt><trkpt lat="45.9302620517006" lon="13.848074761652866"><ele>1232.0</ele><time>2026-05-01T12:33:06Z</time></trkpt><trkpt lat="45.930249049527376" lon="13.848225536591473"><ele>1232.0</ele><time>2026-05-01T12:33:08Z</time></trkpt><trkpt lat="45.93026507980887" lon="13.848316133424715"><ele>1232.0</ele><time>2026-05-01T12:33:09Z</time></trkpt><trkpt lat="45.9303007763447" lon="13.848441913058517"><ele>1232.0</ele><time>2026-05-01T12:33:10Z</time></trkpt><trkpt lat="45.93032963915622" lon="13.848565737592278"><ele>1232.0</ele><time>2026-05-01T12:33:11Z</time></trkpt><trkpt lat="45.93031988170688" lon="13.848660667378445"><ele>1232.0</ele><time>2026-05-01T12:33:12Z</time></trkpt><trkpt lat="45.93029315330156" lon="13.848742979846728"><ele>1232.0</ele><time>2026-05-01T12:33:13Z</time></trkpt><trkpt lat="45.93024707526932" lon="13.84880854566093"><ele>1232.0</ele><time>2026-05-01T12:33:14Z</time></trkpt><trkpt lat="45.930188574384964" lon="13.848854465232156"><ele>1232.0</ele><time>2026-05-01T12:33:15Z</time></trkpt><trkpt lat="45.93007615184764" lon="13.848880221730312"><ele>1232.0</ele><time>2026-05-01T12:33:17Z</time></trkpt><trkpt lat="45.92994216922496" lon="13.848918527531891"><ele>1232.0</ele><time>2026-05-01T12:33:19Z</time></trkpt><trkpt lat="45.929836491834685" lon="13.848970890763606"><ele>1232.0</ele><time>2026-05-01T12:33:20Z</time></trkpt><trkpt lat="45.92973082790668" lon="13.849031131386702"><ele>1232.0</ele><time>2026-05-01T12:33:21Z</time></trkpt><trkpt lat="45.9296359337772" lon="13.84908482220905"><ele>1232.0</ele><time>2026-05-01T12:33:22Z</time></trkpt><trkpt lat="45.92955328815902" lon="13.849134634454424"><ele>1232.0</ele><time>2026-05-01T12:33:23Z</time></trkpt><trkpt lat="45.92948524645046" lon="13.849183473998771"><ele>1232.0</ele><time>2026-05-01T12:33:24Z</time></trkpt><trkpt lat="45.92942480879193" lon="13.849247050511405"><ele>1232.0</ele><time>2026-05-01T12:33:25Z</time></trkpt><trkpt lat="45.92938498675872" lon="13.849322089284911"><ele>1232.0</ele><time>2026-05-01T12:33:26Z</time></trkpt><trkpt lat="45.929334246494165" lon="13.84948385265591"><ele>1233.2</ele><time>2026-05-01T12:33:28Z</time></trkpt><trkpt lat="45.92933563428749" lon="13.849659942125793"><ele>1234.4</ele><time>2026-05-01T12:33:30Z</time></trkpt><trkpt lat="45.92932922071019" lon="13.849808342994995"><ele>1235.6</ele><time>2026-05-01T12:33:31Z</time></trkpt><trkpt lat="45.92931069743362" lon="13.84996640411115"><ele>1236.8</ele><time>2026-05-01T12:33:32Z</time></trkpt><trkpt lat="45.92927543544807" lon="13.850102526198784"><ele>1238.0</ele><time>2026-05-01T12:33:33Z</time></trkpt><trkpt lat="45.92921836419288" lon="13.850207066098482"><ele>1238.0</ele><time>2026-05-01T12:33:34Z</time></trkpt><trkpt lat="45.92915295740221" lon="13.85030065066686"><ele>1238.0</ele><time>2026-05-01T12:33:35Z</time></trkpt><trkpt lat="45.92908345361867" lon="13.850363611958027"><ele>1238.0</ele><time>2026-05-01T12:33:36Z</time></trkpt><trkpt lat="45.92904138285946" lon="13.850432580587013"><ele>1238.0</ele><time>2026-05-01T12:33:37Z</time></trkpt><trkpt lat="45.92899943639691" lon="13.850555816301592"><ele>1238.0</ele><time>2026-05-01T12:33:39Z</time></trkpt><trkpt lat="45.929025364165945" lon="13.850711733246941"><ele>1238.0</ele><time>2026-05-01T12:33:41Z</time></trkpt><trkpt lat="45.929066635709965" lon="13.850810940743646"><ele>1238.0</ele><time>2026-05-01T12:33:42Z</time></trkpt><trkpt lat="45.929116709474286" lon="13.850943233437714"><ele>1238.0</ele><time>2026-05-01T12:33:43Z</time></trkpt><trkpt lat="45.9291454785296" lon="13.851068887117789"><ele>1238.0</ele><time>2026-05-01T12:33:44Z</time></trkpt><trkpt lat="45.9291530982562" lon="13.85118835324848"><ele>1238.0</ele><time>2026-05-01T12:33:45Z</time></trkpt><trkpt lat="45.92915542047738" lon="13.85131857696897"><ele>1238.0</ele><time>2026-05-01T12:33:46Z</time></trkpt><trkpt lat="45.92916012049845" lon="13.851468717837625"><ele>1238.4</ele><time>2026-05-01T12:33:47Z</time></trkpt><trkpt lat="45.929170573718466" lon="13.851594498020384"><ele>1238.8</ele><time>2026-05-01T12:33:48Z</time></trkpt><trkpt lat="45.92918868306263" lon="13.851728792391816"><ele>1239.2</ele><time>2026-05-01T12:33:49Z</time></trkpt><trkpt lat="45.929195065195294" lon="13.851855086286958"><ele>1239.6</ele><time>2026-05-01T12:33:49.999Z</time></trkpt><trkpt lat="45.92919526167853" lon="13.851969507532736"><ele>1240.0</ele><time>2026-05-01T12:33:50.999Z</time></trkpt><trkpt lat="45.929151554349524" lon="13.852145304304539"><ele>1240.8333333333333</ele><time>2026-05-01T12:33:52.999Z</time></trkpt><trkpt lat="45.92912600297377" lon="13.852236434435474"><ele>1241.6666666666665</ele><time>2026-05-01T12:33:53.999Z</time></trkpt><trkpt lat="45.92909853459265" lon="13.852328152609791"><ele>1242.5</ele><time>2026-05-01T12:33:54.999Z</time></trkpt><trkpt lat="45.92906211512647" lon="13.852477180293784"><ele>1243.3333333333333</ele><time>2026-05-01T12:33:56.999Z</time></trkpt><trkpt lat="45.929053353817004" lon="13.852596346948054"><ele>1244.1666666666667</ele><time>2026-05-01T12:33:58.999Z</time></trkpt><trkpt lat="45.929049133886735" lon="13.852727166061914"><ele>1245.0</ele><time>2026-05-01T12:34:01.999Z</time></trkpt><trkpt lat="45.92907146856284" lon="13.852867555961382"><ele>1247.0</ele><time>2026-05-01T12:34:04.999Z</time></trkpt><trkpt lat="45.92907597676981" lon="13.853024365273555"><ele>1249.0</ele><time>2026-05-01T12:34:06.999Z</time></trkpt><trkpt lat="45.9290748332379" lon="13.853116002211848"><ele>1251.0</ele><time>2026-05-01T12:34:07.999Z</time></trkpt><trkpt lat="45.929058237186275" lon="13.85328480625338"><ele>1253.0</ele><time>2026-05-01T12:34:09.999Z</time></trkpt><trkpt lat="45.92901805702428" lon="13.853435322369574"><ele>1255.0</ele><time>2026-05-01T12:34:11.999Z</time></trkpt><trkpt lat="45.9289703312882" lon="13.85355272948813"><ele>1256.5</ele><time>2026-05-01T12:34:13.999Z</time></trkpt><trkpt lat="45.928928640866275" lon="13.853652426566242"><ele>1258.0</ele><time>2026-05-01T12:34:15.999Z</time></trkpt><trkpt lat="45.92889485270947" lon="13.853807614521138"><ele>1259.5</ele><time>2026-05-01T12:34:17.999Z</time></trkpt><trkpt lat="45.928873084063135" lon="13.853895656197722"><ele>1261.0</ele><time>2026-05-01T12:34:18.999Z</time></trkpt><trkpt lat="45.92884903871198" lon="13.8539869431895"><ele>1262.5</ele><time>2026-05-01T12:34:19.999Z</time></trkpt><trkpt lat="45.92882316245718" lon="13.854076611260554"><ele>1264.0</ele><time>2026-05-01T12:34:20.999Z</time></trkpt><trkpt lat="45.928800324926776" lon="13.854168458202945"><ele>1264.0</ele><time>2026-05-01T12:34:21.999Z</time></trkpt><trkpt lat="45.928772590479326" lon="13.854268237002005"><ele>1264.0</ele><time>2026-05-01T12:34:22.999Z</time></trkpt><trkpt lat="45.92874585949414" lon="13.854353803383264"><ele>1264.0</ele><time>2026-05-01T12:34:23.999Z</time></trkpt><trkpt lat="45.92869832266798" lon="13.854531117959986"><ele>1264.0</ele><time>2026-05-01T12:34:25.999Z</time></trkpt><trkpt lat="45.928676047064336" lon="13.854624748460186"><ele>1264.0</ele><time>2026-05-01T12:34:26.999Z</time></trkpt><trkpt lat="45.928651850586554" lon="13.85472165944804"><ele>1264.0</ele><time>2026-05-01T12:34:27.999Z</time></trkpt><trkpt lat="45.92862884424726" lon="13.854823817229077"><ele>1264.0</ele><time>2026-05-01T12:34:28.999Z</time></trkpt><trkpt lat="45.92861259615804" lon="13.85492533310201"><ele>1264.0</ele><time>2026-05-01T12:34:29.999Z</time></trkpt><trkpt lat="45.928606079327444" lon="13.855027866559494"><ele>1264.0</ele><time>2026-05-01T12:34:30.999Z</time></trkpt><trkpt lat="45.92859351713013" lon="13.855136904074428"><ele>1264.0</ele><time>2026-05-01T12:34:31.999Z</time></trkpt><trkpt lat="45.92858439681444" lon="13.85524758272846"><ele>1264.0</ele><time>2026-05-01T12:34:32.999Z</time></trkpt><trkpt lat="45.92857543008508" lon="13.85536058474011"><ele>1264.0</ele><time>2026-05-01T12:34:33.999Z</time></trkpt><trkpt lat="45.92857130405411" lon="13.855476605450773"><ele>1264.0</ele><time>2026-05-01T12:34:34.999Z</time></trkpt><trkpt lat="45.92856820314659" lon="13.855591994919365"><ele>1264.0</ele><time>2026-05-01T12:34:35.999Z</time></trkpt><trkpt lat="45.928577412449464" lon="13.855710317019248"><ele>1264.0</ele><time>2026-05-01T12:34:36.999Z</time></trkpt><trkpt lat="45.928592505373224" lon="13.85581663339868"><ele>1264.0</ele><time>2026-05-01T12:34:37.999Z</time></trkpt><trkpt lat="45.928611053804765" lon="13.855927347993784"><ele>1264.0</ele><time>2026-05-01T12:34:38.999Z</time></trkpt><trkpt lat="45.92863260786386" lon="13.856040186764012"><ele>1264.0</ele><time>2026-05-01T12:34:39.999Z</time></trkpt><trkpt lat="45.9286532086885" lon="13.85615456175055"><ele>1262.6666666666665</ele><time>2026-05-01T12:34:40.999Z</time></trkpt><trkpt lat="45.92868076297194" lon="13.85627034943765"><ele>1261.3333333333333</ele><time>2026-05-01T12:34:41.999Z</time></trkpt><trkpt lat="45.928716469228945" lon="13.85637973180148"><ele>1260.0</ele><time>2026-05-01T12:34:42.999Z</time></trkpt><trkpt lat="45.92876065497881" lon="13.856485767044303"><ele>1258.6666666666667</ele><time>2026-05-01T12:34:43.999Z</time></trkpt><trkpt lat="45.928810676862" lon="13.856580813437278"><ele>1257.3333333333335</ele><time>2026-05-01T12:34:44.999Z</time></trkpt><trkpt lat="45.92885924620398" lon="13.856670133984688"><ele>1256.0</ele><time>2026-05-01T12:34:45.999Z</time></trkpt><trkpt lat="45.92890689688598" lon="13.856758420260585"><ele>1254.5</ele><time>2026-05-01T12:34:46.999Z</time></trkpt><trkpt lat="45.92895924392182" lon="13.856844385797805"><ele>1253.0</ele><time>2026-05-01T12:34:47.999Z</time></trkpt><trkpt lat="45.92900751031418" lon="13.856916529833153"><ele>1251.5</ele><time>2026-05-01T12:34:48.999Z</time></trkpt><trkpt lat="45.9290582818526" lon="13.856984142562744"><ele>1250.0</ele><time>2026-05-01T12:34:49.999Z</time></trkpt><trkpt lat="45.929124250353404" lon="13.857039878674843"><ele>1248.5</ele><time>2026-05-01T12:34:50.999Z</time></trkpt><trkpt lat="45.92920508035986" lon="13.857078684830752"><ele>1247.0</ele><time>2026-05-01T12:34:51.999Z</time></trkpt><trkpt lat="45.929294691740296" lon="13.857094969633023"><ele>1250.0</ele><time>2026-05-01T12:34:52.999Z</time></trkpt><trkpt lat="45.92938592832326" lon="13.857108702095628"><ele>1253.0</ele><time>2026-05-01T12:34:53.999Z</time></trkpt><trkpt lat="45.929471612152646" lon="13.857123869224177"><ele>1256.0</ele><time>2026-05-01T12:34:54.999Z</time></trkpt><trkpt lat="45.92955441373343" lon="13.857143673304668"><ele>1259.0</ele><time>2026-05-01T12:34:55.999Z</time></trkpt><trkpt lat="45.92963202388546" lon="13.857160471925068"><ele>1262.0</ele><time>2026-05-01T12:34:56.999Z</time></trkpt><trkpt lat="45.92970964126766" lon="13.857195524537293"><ele>1265.0</ele><time>2026-05-01T12:34:57.999Z</time></trkpt><trkpt lat="45.929783679546055" lon="13.85724913247013"><ele>1265.0</ele><time>2026-05-01T12:34:58.999Z</time></trkpt><trkpt lat="45.929837898641715" lon="13.857321268434895"><ele>1265.0</ele><time>2026-05-01T12:34:59.999Z</time></trkpt><trkpt lat="45.92988002996121" lon="13.857419810472583"><ele>1265.0</ele><time>2026-05-01T12:35:00.999Z</time></trkpt><trkpt lat="45.929921745936085" lon="13.857530749697546"><ele>1265.0</ele><time>2026-05-01T12:35:01.999Z</time></trkpt><trkpt lat="45.92993990795843" lon="13.857649071751174"><ele>1265.0</ele><time>2026-05-01T12:35:02.999Z</time></trkpt><trkpt lat="45.929928832647136" lon="13.857750818461376"><ele>1265.0</ele><time>2026-05-01T12:35:03.999Z</time></trkpt><trkpt lat="45.92990449269594" lon="13.857848926591542"><ele>1263.0</ele><time>2026-05-01T12:35:04.999Z</time></trkpt><trkpt lat="45.92984901528989" lon="13.857981807538817"><ele>1261.0</ele><time>2026-05-01T12:35:06.999Z</time></trkpt><trkpt lat="45.92981414010545" lon="13.858079110252373"><ele>1259.0</ele><time>2026-05-01T12:35:08.999Z</time></trkpt><trkpt lat="45.9298155629527" lon="13.858192149173147"><ele>1257.0</ele><time>2026-05-01T12:35:10.999Z</time></trkpt><trkpt lat="45.92988590473967" lon="13.858304852949606"><ele>1255.0</ele><time>2026-05-01T12:35:12.999Z</time></trkpt><trkpt lat="45.929956432402335" lon="13.858460995786514"><ele>1253.0</ele><time>2026-05-01T12:35:14.999Z</time></trkpt><trkpt lat="45.92997976487395" lon="13.858555292831657"><ele>1251.0</ele><time>2026-05-01T12:35:15.999Z</time></trkpt><trkpt lat="45.92999906919009" lon="13.85865070556535"><ele>1249.0</ele><time>2026-05-01T12:35:16.999Z</time></trkpt><trkpt lat="45.93004944704347" lon="13.858714103754298"><ele>1247.0</ele><time>2026-05-01T12:35:19.999Z</time></trkpt><trkpt lat="45.93011783388751" lon="13.8587622768669"><ele>1245.0</ele><time>2026-05-01T12:35:55.999Z</time></trkpt><trkpt lat="45.93019385309646" lon="13.858791579601808"><ele>1243.0</ele><time>2026-05-01T12:35:57.999Z</time></trkpt><trkpt lat="45.93030069284787" lon="13.858820064668997"><ele>1243.0</ele><time>2026-05-01T12:35:59.999Z</time></trkpt><trkpt lat="45.93042743364194" lon="13.85884821481114"><ele>1243.0</ele><time>2026-05-01T12:36:01.999Z</time></trkpt><trkpt lat="45.930496888459686" lon="13.858856947015536"><ele>1243.0</ele><time>2026-05-01T12:36:02.999Z</time></trkpt><trkpt lat="45.930570953523294" lon="13.858873041413212"><ele>1243.0</ele><time>2026-05-01T12:36:03.999Z</time></trkpt><trkpt lat="45.930641111924864" lon="13.85889627555558"><ele>1243.0</ele><time>2026-05-01T12:36:04.999Z</time></trkpt><trkpt lat="45.930705991059675" lon="13.858932038925369"><ele>1243.0</ele><time>2026-05-01T12:36:05.999Z</time></trkpt><trkpt lat="45.9307667394048" lon="13.858965027186791"><ele>1243.0</ele><time>2026-05-01T12:36:06.999Z</time></trkpt><trkpt lat="45.930872136119454" lon="13.85900282026021"><ele>1243.0</ele><time>2026-05-01T12:36:08.999Z</time></trkpt><trkpt lat="45.930958856499494" lon="13.85904091468812"><ele>1243.0</ele><time>2026-05-01T12:36:10.999Z</time></trkpt><trkpt lat="45.93105379392746" lon="13.859100429197344"><ele>1243.0</ele><time>2026-05-01T12:36:12.999Z</time></trkpt><trkpt lat="45.931180824915316" lon="13.859104061862977"><ele>1243.0</ele><time>2026-05-01T12:36:14.999Z</time></trkpt><trkpt lat="45.93124604444499" lon="13.859106573876439"><ele>1243.1428571428573</ele><time>2026-05-01T12:36:15.999Z</time></trkpt><trkpt lat="45.93131516293599" lon="13.859109395193022"><ele>1243.2857142857142</ele><time>2026-05-01T12:36:16.999Z</time></trkpt><trkpt lat="45.93138046825155" lon="13.859115416424494"><ele>1243.4285714285716</ele><time>2026-05-01T12:36:17.999Z</time></trkpt><trkpt lat="45.93144744205625" lon="13.859116258790522"><ele>1243.5714285714287</ele><time>2026-05-01T12:36:18.999Z</time></trkpt><trkpt lat="45.931510837808766" lon="13.859112400763927"><ele>1243.7142857142858</ele><time>2026-05-01T12:36:19.999Z</time></trkpt><trkpt lat="45.931578741707455" lon="13.859106261870073"><ele>1243.857142857143</ele><time>2026-05-01T12:36:20.999Z</time></trkpt><trkpt lat="45.93165097213001" lon="13.859122633577401"><ele>1244.0</ele><time>2026-05-01T12:36:21.999Z</time></trkpt><trkpt lat="45.93172427146136" lon="13.859114205904461"><ele>1242.5</ele><time>2026-05-01T12:36:22.999Z</time></trkpt><trkpt lat="45.93179980643964" lon="13.85910219189013"><ele>1241.0</ele><time>2026-05-01T12:36:23.999Z</time></trkpt><trkpt lat="45.931879161197024" lon="13.85908950053082"><ele>1239.5</ele><time>2026-05-01T12:36:24.999Z</time></trkpt><trkpt lat="45.93196224676787" lon="13.859076212498342"><ele>1238.0</ele><time>2026-05-01T12:36:25.999Z</time></trkpt><trkpt lat="45.93204423439029" lon="13.859069777238297"><ele>1236.5</ele><time>2026-05-01T12:36:26.999Z</time></trkpt><trkpt lat="45.93212674792227" lon="13.859073677525329"><ele>1235.0</ele><time>2026-05-01T12:36:27.999Z</time></trkpt><trkpt lat="45.93220825019376" lon="13.8590848432409"><ele>1235.0</ele><time>2026-05-01T12:36:28.999Z</time></trkpt><trkpt lat="45.93228856262637" lon="13.859097016279506"><ele>1235.0</ele><time>2026-05-01T12:36:29.999Z</time></trkpt><trkpt lat="45.93236232077968" lon="13.859086190476418"><ele>1235.0</ele><time>2026-05-01T12:36:30.999Z</time></trkpt><trkpt lat="45.93249060098427" lon="13.859103250121715"><ele>1235.0</ele><time>2026-05-01T12:36:32.999Z</time></trkpt><trkpt lat="45.932554389902315" lon="13.859090218046859"><ele>1235.0</ele><time>2026-05-01T12:36:33.999Z</time></trkpt><trkpt lat="45.93262473777592" lon="13.859067008148848"><ele>1235.0</ele><time>2026-05-01T12:36:34.999Z</time></trkpt><trkpt lat="45.932692030224985" lon="13.859030403467491"><ele>1233.7142857142856</ele><time>2026-05-01T12:36:35.999Z</time></trkpt><trkpt lat="45.93275906993868" lon="13.859003033038885"><ele>1232.4285714285713</ele><time>2026-05-01T12:36:36.999Z</time></trkpt><trkpt lat="45.932824746697236" lon="13.858962660669956"><ele>1231.142857142857</ele><time>2026-05-01T12:36:37.999Z</time></trkpt><trkpt lat="45.93289296605131" lon="13.85891292024448"><ele>1229.8571428571427</ele><time>2026-05-01T12:36:38.999Z</time></trkpt><trkpt lat="45.932942841707025" lon="13.858837282382591"><ele>1228.5714285714284</ele><time>2026-05-01T12:36:39.999Z</time></trkpt><trkpt lat="45.933012312836155" lon="13.858788733581004"><ele>1227.2857142857142</ele><time>2026-05-01T12:36:40.999Z</time></trkpt><trkpt lat="45.9330850998339" lon="13.858747644103815"><ele>1226.0</ele><time>2026-05-01T12:36:41.999Z</time></trkpt><trkpt lat="45.93315017045161" lon="13.858701669107553"><ele>1226.0</ele><time>2026-05-01T12:36:42.999Z</time></trkpt><trkpt lat="45.93322518635864" lon="13.858675110489804"><ele>1226.0</ele><time>2026-05-01T12:36:43.999Z</time></trkpt><trkpt lat="45.93329602052643" lon="13.858651255965283"><ele>1226.0</ele><time>2026-05-01T12:36:44.999Z</time></trkpt><trkpt lat="45.93336557740401" lon="13.85865895905073"><ele>1226.0</ele><time>2026-05-01T12:36:45.999Z</time></trkpt><trkpt lat="45.93344217021915" lon="13.85869042597407"><ele>1226.0</ele><time>2026-05-01T12:36:46.999Z</time></trkpt><trkpt lat="45.93351613995406" lon="13.85870816355014"><ele>1226.0</ele><time>2026-05-01T12:36:47.999Z</time></trkpt><trkpt lat="45.933593976007444" lon="13.858730829272002"><ele>1225.0</ele><time>2026-05-01T12:36:48.999Z</time></trkpt><trkpt lat="45.93366197042211" lon="13.858749764403072"><ele>1224.0</ele><time>2026-05-01T12:36:49.999Z</time></trkpt><trkpt lat="45.9337346487678" lon="13.858755242517677"><ele>1223.0</ele><time>2026-05-01T12:36:50.999Z</time></trkpt><trkpt lat="45.93380657870367" lon="13.858784853907558"><ele>1222.0</ele><time>2026-05-01T12:36:51.999Z</time></trkpt><trkpt lat="45.93388686160953" lon="13.858785583157287"><ele>1221.0</ele><time>2026-05-01T12:36:52.999Z</time></trkpt><trkpt lat="45.93395493821433" lon="13.85878127254243"><ele>1220.0</ele><time>2026-05-01T12:36:53.999Z</time></trkpt><trkpt lat="45.934024908150505" lon="13.858777147974601"><ele>1219.0</ele><time>2026-05-01T12:36:54.999Z</time></trkpt><trkpt lat="45.93409026554929" lon="13.858785503809791"><ele>1219.0</ele><time>2026-05-01T12:36:55.999Z</time></trkpt><trkpt lat="45.93421415040014" lon="13.858830436267892"><ele>1219.0</ele><time>2026-05-01T12:36:57.999Z</time></trkpt><trkpt lat="45.93426739854801" lon="13.858884848086483"><ele>1219.0</ele><time>2026-05-01T12:36:58.999Z</time></trkpt><trkpt lat="45.93435039310695" lon="13.858998039457319"><ele>1219.0</ele><time>2026-05-01T12:37:00.999Z</time></trkpt><trkpt lat="45.93443332302375" lon="13.859118221543186"><ele>1219.0</ele><time>2026-05-01T12:37:02.999Z</time></trkpt><trkpt lat="45.93450794504264" lon="13.859223026101049"><ele>1218.2</ele><time>2026-05-01T12:37:04.999Z</time></trkpt><trkpt lat="45.934630080458035" lon="13.85927098427885"><ele>1217.4</ele><time>2026-05-01T12:37:06.999Z</time></trkpt><trkpt lat="45.93471247666323" lon="13.859277147157707"><ele>1216.6</ele><time>2026-05-01T12:37:07.999Z</time></trkpt><trkpt lat="45.934823956311476" lon="13.859279575534067"><ele>1215.8</ele><time>2026-05-01T12:37:08.999Z</time></trkpt><trkpt lat="45.93492368735636" lon="13.859283570323763"><ele>1215.0</ele><time>2026-05-01T12:37:09.999Z</time></trkpt><trkpt lat="45.935017690227006" lon="13.859303886553203"><ele>1211.7142857142858</ele><time>2026-05-01T12:37:10.999Z</time></trkpt><trkpt lat="45.93510009774098" lon="13.859326877461756"><ele>1208.4285714285716</ele><time>2026-05-01T12:37:11.999Z</time></trkpt><trkpt lat="45.93517370992069" lon="13.859354001973811"><ele>1205.142857142857</ele><time>2026-05-01T12:37:12.999Z</time></trkpt><trkpt lat="45.935240384562036" lon="13.859381491561518"><ele>1201.857142857143</ele><time>2026-05-01T12:37:13.999Z</time></trkpt><trkpt lat="45.935301313682686" lon="13.859411974840782"><ele>1198.5714285714284</ele><time>2026-05-01T12:37:14.999Z</time></trkpt><trkpt lat="45.93536557394128" lon="13.859445219150205"><ele>1195.2857142857142</ele><time>2026-05-01T12:37:15.999Z</time></trkpt><trkpt lat="45.93541899954631" lon="13.859502494777892"><ele>1192.0</ele><time>2026-05-01T12:37:16.999Z</time></trkpt><trkpt lat="45.935471206325516" lon="13.859554616515323"><ele>1192.0</ele><time>2026-05-01T12:37:17.999Z</time></trkpt><trkpt lat="45.93552860321717" lon="13.859598702571722"><ele>1192.0</ele><time>2026-05-01T12:37:18.999Z</time></trkpt><trkpt lat="45.93560011401462" lon="13.859619574076444"><ele>1192.0</ele><time>2026-05-01T12:37:19.999Z</time></trkpt><trkpt lat="45.93569108965192" lon="13.859621833366516"><ele>1192.0</ele><time>2026-05-01T12:37:20.999Z</time></trkpt><trkpt lat="45.93577618703754" lon="13.859606941475958"><ele>1192.0</ele><time>2026-05-01T12:37:21.999Z</time></trkpt><trkpt lat="45.935862021845985" lon="13.859577634619551"><ele>1192.0</ele><time>2026-05-01T12:37:22.999Z</time></trkpt><trkpt lat="45.93595549791272" lon="13.85955341007101"><ele>1192.5</ele><time>2026-05-01T12:37:23.999Z</time></trkpt><trkpt lat="45.93603989468528" lon="13.85951470988552"><ele>1193.0</ele><time>2026-05-01T12:37:24.999Z</time></trkpt><trkpt lat="45.93612519055061" lon="13.85946568104818"><ele>1193.5</ele><time>2026-05-01T12:37:25.999Z</time></trkpt><trkpt lat="45.93619638097569" lon="13.859396807771542"><ele>1194.0</ele><time>2026-05-01T12:37:26.999Z</time></trkpt><trkpt lat="45.936272723588054" lon="13.859358619391855"><ele>1194.5</ele><time>2026-05-01T12:37:27.999Z</time></trkpt><trkpt lat="45.93635367635556" lon="13.859303718219342"><ele>1195.0</ele><time>2026-05-01T12:37:28.999Z</time></trkpt><trkpt lat="45.9364210741321" lon="13.859247402749574"><ele>1195.0</ele><time>2026-05-01T12:37:29.999Z</time></trkpt><trkpt lat="45.936505843084895" lon="13.859188639372931"><ele>1195.0</ele><time>2026-05-01T12:37:30.999Z</time></trkpt><trkpt lat="45.93658538437633" lon="13.859127126568932"><ele>1195.0</ele><time>2026-05-01T12:37:31.999Z</time></trkpt><trkpt lat="45.93666372580206" lon="13.85907125386906"><ele>1195.0</ele><time>2026-05-01T12:37:32.999Z</time></trkpt><trkpt lat="45.93675477639792" lon="13.859034733892972"><ele>1195.0</ele><time>2026-05-01T12:37:33.999Z</time></trkpt><trkpt lat="45.93683458760669" lon="13.858980370400861"><ele>1190.0</ele><time>2026-05-01T12:37:34.999Z</time></trkpt><trkpt lat="45.936912407766826" lon="13.858927363079642"><ele>1185.0</ele><time>2026-05-01T12:37:35.999Z</time></trkpt><trkpt lat="45.93699578085376" lon="13.858870590502123"><ele>1180.0</ele><time>2026-05-01T12:37:36.999Z</time></trkpt><trkpt lat="45.93707558906049" lon="13.85881648871194"><ele>1175.0</ele><time>2026-05-01T12:37:37.999Z</time></trkpt><trkpt lat="45.93715878024268" lon="13.858759166510438"><ele>1170.0</ele><time>2026-05-01T12:37:38.999Z</time></trkpt><trkpt lat="45.93724361108635" lon="13.85869766069762"><ele>1170.0</ele><time>2026-05-01T12:37:39.999Z</time></trkpt><trkpt lat="45.93733213853817" lon="13.858628539649182"><ele>1170.0</ele><time>2026-05-01T12:37:40.999Z</time></trkpt><trkpt lat="45.9374080903698" lon="13.858535074201788"><ele>1170.0</ele><time>2026-05-01T12:37:41.999Z</time></trkpt><trkpt lat="45.93748758833679" lon="13.858459535105132"><ele>1170.0</ele><time>2026-05-01T12:37:42.999Z</time></trkpt><trkpt lat="45.937555747521635" lon="13.858391148558773"><ele>1170.0</ele><time>2026-05-01T12:37:43.999Z</time></trkpt><trkpt lat="45.93763383632607" lon="13.858326173708962"><ele>1169.0</ele><time>2026-05-01T12:37:44.999Z</time></trkpt><trkpt lat="45.937693717962546" lon="13.858257938901009"><ele>1168.0</ele><time>2026-05-01T12:37:45.999Z</time></trkpt><trkpt lat="45.93775353669553" lon="13.858196976837847"><ele>1167.0</ele><time>2026-05-01T12:37:46.999Z</time></trkpt><trkpt lat="45.93782658503498" lon="13.858131413971934"><ele>1166.0</ele><time>2026-05-01T12:37:47.999Z</time></trkpt><trkpt lat="45.93789689471587" lon="13.858059305790194"><ele>1165.0</ele><time>2026-05-01T12:37:48.999Z</time></trkpt><trkpt lat="45.937950024840156" lon="13.857996362596513"><ele>1164.0</ele><time>2026-05-01T12:37:49.999Z</time></trkpt><trkpt lat="45.93800759557692" lon="13.857911443218775"><ele>1164.0</ele><time>2026-05-01T12:37:50.999Z</time></trkpt><trkpt lat="45.93808838665547" lon="13.857808905975208"><ele>1164.0</ele><time>2026-05-01T12:37:51.999Z</time></trkpt><trkpt lat="45.93814498591465" lon="13.857715695946634"><ele>1164.0</ele><time>2026-05-01T12:37:53Z</time></trkpt><trkpt lat="45.93820448268673" lon="13.857635744518152"><ele>1164.0</ele><time>2026-05-01T12:37:54Z</time></trkpt><trkpt lat="45.938248828609936" lon="13.857556463127572"><ele>1164.0</ele><time>2026-05-01T12:37:55Z</time></trkpt><trkpt lat="45.938300232083954" lon="13.857496395599268"><ele>1164.0</ele><time>2026-05-01T12:37:56Z</time></trkpt><trkpt lat="45.93834590944017" lon="13.85742255604411"><ele>1160.2</ele><time>2026-05-01T12:37:57Z</time></trkpt><trkpt lat="45.93839131635611" lon="13.857344518875768"><ele>1156.4</ele><time>2026-05-01T12:37:58Z</time></trkpt><trkpt lat="45.93843488017276" lon="13.857265442460486"><ele>1152.6</ele><time>2026-05-01T12:37:59Z</time></trkpt><trkpt lat="45.93850903481512" lon="13.857117117782204"><ele>1148.8</ele><time>2026-05-01T12:38:01Z</time></trkpt><trkpt lat="45.938560273971156" lon="13.857003039776252"><ele>1145.0</ele><time>2026-05-01T12:38:03Z</time></trkpt><trkpt lat="45.93861464371703" lon="13.856877262259337"><ele>1147.0</ele><time>2026-05-01T12:38:05Z</time></trkpt><trkpt lat="45.93866802737398" lon="13.856749933771518"><ele>1149.0</ele><time>2026-05-01T12:38:07Z</time></trkpt><trkpt lat="45.9387128134674" lon="13.856602525968317"><ele>1151.0</ele><time>2026-05-01T12:38:09Z</time></trkpt><trkpt lat="45.93876762128697" lon="13.856458001331035"><ele>1153.0</ele><time>2026-05-01T12:38:11Z</time></trkpt><trkpt lat="45.93880007402972" lon="13.856376775113006"><ele>1155.0</ele><time>2026-05-01T12:38:12Z</time></trkpt><trkpt lat="45.93883631472875" lon="13.856281564317664"><ele>1155.0</ele><time>2026-05-01T12:38:13Z</time></trkpt><trkpt lat="45.93886494123933" lon="13.856182693039855"><ele>1155.0</ele><time>2026-05-01T12:38:14Z</time></trkpt><trkpt lat="45.93890628261145" lon="13.856103788653545"><ele>1155.0</ele><time>2026-05-01T12:38:15Z</time></trkpt><trkpt lat="45.938937527765674" lon="13.856004820681111"><ele>1155.0</ele><time>2026-05-01T12:38:16Z</time></trkpt><trkpt lat="45.938966697189436" lon="13.855907238669273"><ele>1155.0</ele><time>2026-05-01T12:38:17Z</time></trkpt><trkpt lat="45.939001791076045" lon="13.85579186124457"><ele>1155.0</ele><time>2026-05-01T12:38:18Z</time></trkpt><trkpt lat="45.93903350980593" lon="13.855701102577713"><ele>1157.2</ele><time>2026-05-01T12:38:19Z</time></trkpt><trkpt lat="45.93909140955557" lon="13.855551421295893"><ele>1159.4</ele><time>2026-05-01T12:38:21Z</time></trkpt><trkpt lat="45.93911309797433" lon="13.855458569307626"><ele>1161.6</ele><time>2026-05-01T12:38:22Z</time></trkpt><trkpt lat="45.93917442149067" lon="13.855392982670404"><ele>1163.8</ele><time>2026-05-01T12:38:23Z</time></trkpt><trkpt lat="45.93925528793741" lon="13.855271940521886"><ele>1166.0</ele><time>2026-05-01T12:38:25Z</time></trkpt><trkpt lat="45.93931621396859" lon="13.855213364037636"><ele>1162.6</ele><time>2026-05-01T12:38:26Z</time></trkpt><trkpt lat="45.939405404902665" lon="13.855098491670411"><ele>1159.1999999999998</ele><time>2026-05-01T12:38:28Z</time></trkpt><trkpt lat="45.93951452387725" lon="13.855014763645306"><ele>1155.8000000000002</ele><time>2026-05-01T12:38:30Z</time></trkpt><trkpt lat="45.93960303264233" lon="13.854937874308584"><ele>1152.4</ele><time>2026-05-01T12:38:32Z</time></trkpt><trkpt lat="45.93967428817935" lon="13.854875685528937"><ele>1149.0</ele><time>2026-05-01T12:38:33Z</time></trkpt><trkpt lat="45.93974284799501" lon="13.854815849325583"><ele>1149.0</ele><time>2026-05-01T12:38:34Z</time></trkpt><trkpt lat="45.93980429788527" lon="13.85473443190471"><ele>1149.0</ele><time>2026-05-01T12:38:35Z</time></trkpt><trkpt lat="45.93987191359754" lon="13.854680014425087"><ele>1149.0</ele><time>2026-05-01T12:38:36Z</time></trkpt><trkpt lat="45.93994128768821" lon="13.854616526673468"><ele>1149.0</ele><time>2026-05-01T12:38:37Z</time></trkpt><trkpt lat="45.94001174035231" lon="13.854566885267355"><ele>1149.0</ele><time>2026-05-01T12:38:38Z</time></trkpt><trkpt lat="45.94008620067948" lon="13.854525865435917"><ele>1149.0</ele><time>2026-05-01T12:38:39Z</time></trkpt><trkpt lat="45.940150272466475" lon="13.854497540576304"><ele>1146.0</ele><time>2026-05-01T12:38:40Z</time></trkpt><trkpt lat="45.94021971802933" lon="13.854467045793973"><ele>1143.0</ele><time>2026-05-01T12:38:41Z</time></trkpt><trkpt lat="45.94027930587569" lon="13.854435485798357"><ele>1140.0</ele><time>2026-05-01T12:38:42Z</time></trkpt><trkpt lat="45.94040525631764" lon="13.854384309609578"><ele>1137.0</ele><time>2026-05-01T12:38:44Z</time></trkpt><trkpt lat="45.9404753411062" lon="13.854381668210277"><ele>1134.0</ele><time>2026-05-01T12:38:45Z</time></trkpt><trkpt lat="45.94054015060243" lon="13.854367788818424"><ele>1131.0</ele><time>2026-05-01T12:38:46Z</time></trkpt><trkpt lat="45.9406066460149" lon="13.854373924927346"><ele>1131.0</ele><time>2026-05-01T12:38:47Z</time></trkpt><trkpt lat="45.94072729155673" lon="13.85438262769384"><ele>1131.0</ele><time>2026-05-01T12:38:49Z</time></trkpt><trkpt lat="45.94083977121679" lon="13.854419067139432"><ele>1131.0</ele><time>2026-05-01T12:38:51Z</time></trkpt><trkpt lat="45.940905795605296" lon="13.854420248794474"><ele>1131.0</ele><time>2026-05-01T12:38:52Z</time></trkpt><trkpt lat="45.941029840193046" lon="13.854401804794968"><ele>1131.0</ele><time>2026-05-01T12:38:54Z</time></trkpt><trkpt lat="45.9411385345262" lon="13.854326344358414"><ele>1130.8</ele><time>2026-05-01T12:38:56Z</time></trkpt><trkpt lat="45.94123312259975" lon="13.854226656464407"><ele>1130.6</ele><time>2026-05-01T12:38:58Z</time></trkpt><trkpt lat="45.941333926129744" lon="13.854121478482325"><ele>1130.4</ele><time>2026-05-01T12:39:00Z</time></trkpt><trkpt lat="45.94138764198763" lon="13.854069790190298"><ele>1130.2</ele><time>2026-05-01T12:39:01Z</time></trkpt><trkpt lat="45.941450806286525" lon="13.853997235196026"><ele>1130.0</ele><time>2026-05-01T12:39:02Z</time></trkpt><trkpt lat="45.94152305447333" lon="13.85391832087289"><ele>1130.0</ele><time>2026-05-01T12:39:03Z</time></trkpt><trkpt lat="45.94159305702921" lon="13.853840280223498"><ele>1130.0</ele><time>2026-05-01T12:39:04Z</time></trkpt><trkpt lat="45.941662458226325" lon="13.85375723268914"><ele>1130.0</ele><time>2026-05-01T12:39:05Z</time></trkpt><trkpt lat="45.94173697599973" lon="13.853679304920302"><ele>1130.0</ele><time>2026-05-01T12:39:06Z</time></trkpt><trkpt lat="45.94180969012314" lon="13.853596712334387"><ele>1130.0</ele><time>2026-05-01T12:39:07Z</time></trkpt><trkpt lat="45.941873476767135" lon="13.853534889148422"><ele>1130.0</ele><time>2026-05-01T12:39:08Z</time></trkpt><trkpt lat="45.94193811575103" lon="13.853472687332955"><ele>1128.5</ele><time>2026-05-01T12:39:09Z</time></trkpt><trkpt lat="45.94200219490083" lon="13.85341640647388"><ele>1127.0</ele><time>2026-05-01T12:39:10Z</time></trkpt><trkpt lat="45.94205830401062" lon="13.85337128974401"><ele>1125.5</ele><time>2026-05-01T12:39:11Z</time></trkpt><trkpt lat="45.94211994624902" lon="13.853312474285616"><ele>1124.0</ele><time>2026-05-01T12:39:12Z</time></trkpt><trkpt lat="45.94218662249063" lon="13.853260680794087"><ele>1122.5</ele><time>2026-05-01T12:39:13Z</time></trkpt><trkpt lat="45.94226208945615" lon="13.853212739683295"><ele>1121.0</ele><time>2026-05-01T12:39:14Z</time></trkpt><trkpt lat="45.94233805977364" lon="13.853159478849545"><ele>1121.0</ele><time>2026-05-01T12:39:15Z</time></trkpt><trkpt lat="45.94242933134586" lon="13.85313463422443"><ele>1121.0</ele><time>2026-05-01T12:39:16Z</time></trkpt><trkpt lat="45.94256114022728" lon="13.853114904013117"><ele>1121.0</ele><time>2026-05-01T12:39:17Z</time></trkpt><trkpt lat="45.942708796686226" lon="13.853096762303664"><ele>1121.0</ele><time>2026-05-01T12:39:18Z</time></trkpt><trkpt lat="45.94282977886885" lon="13.853114623356927"><ele>1120.6666666666667</ele><time>2026-05-01T12:39:19Z</time></trkpt><trkpt lat="45.94292006060586" lon="13.853142698618388"><ele>1120.3333333333335</ele><time>2026-05-01T12:39:20Z</time></trkpt><trkpt lat="45.943016754916755" lon="13.853177660413914"><ele>1120.0</ele><time>2026-05-01T12:39:21Z</time></trkpt><trkpt lat="45.94310836965213" lon="13.853215282890918"><ele>1119.6666666666667</ele><time>2026-05-01T12:39:22Z</time></trkpt><trkpt lat="45.94318635831012" lon="13.853253059572062"><ele>1119.3333333333333</ele><time>2026-05-01T12:39:23Z</time></trkpt><trkpt lat="45.94325436775007" lon="13.85329355969356"><ele>1119.0</ele><time>2026-05-01T12:39:24Z</time></trkpt><trkpt lat="45.94331524747092" lon="13.853334058023458"><ele>1119.5</ele><time>2026-05-01T12:39:25Z</time></trkpt><trkpt lat="45.943399475404604" lon="13.8534000219691"><ele>1120.0</ele><time>2026-05-01T12:39:26Z</time></trkpt><trkpt lat="45.943490363750406" lon="13.853510939349416"><ele>1120.5</ele><time>2026-05-01T12:39:27Z</time></trkpt><trkpt lat="45.94358278752477" lon="13.853639555398898"><ele>1121.0</ele><time>2026-05-01T12:39:28Z</time></trkpt><trkpt lat="45.94367601412713" lon="13.853755259412072"><ele>1121.0</ele><time>2026-05-01T12:39:29Z</time></trkpt><trkpt lat="45.94376776596656" lon="13.853841960901397"><ele>1121.0</ele><time>2026-05-01T12:39:30Z</time></trkpt><trkpt lat="45.94385969277585" lon="13.853908337918515"><ele>1121.0</ele><time>2026-05-01T12:39:31Z</time></trkpt><trkpt lat="45.943956199656824" lon="13.853974612516039"><ele>1121.0</ele><time>2026-05-01T12:39:32Z</time></trkpt><trkpt lat="45.94403310057296" lon="13.854034901024532"><ele>1121.0</ele><time>2026-05-01T12:39:33Z</time></trkpt><trkpt lat="45.94409731720068" lon="13.854103159930299"><ele>1121.0</ele><time>2026-05-01T12:39:34Z</time></trkpt><trkpt lat="45.94415591244205" lon="13.854183755149936"><ele>1121.0</ele><time>2026-05-01T12:39:35Z</time></trkpt><trkpt lat="45.94418712762842" lon="13.854272885071754"><ele>1121.0</ele><time>2026-05-01T12:39:36Z</time></trkpt><trkpt lat="45.944145423559355" lon="13.854349135548299"><ele>1121.0</ele><time>2026-05-01T12:39:37Z</time></trkpt><trkpt lat="45.94414053848681" lon="13.85446028067059"><ele>1121.0</ele><time>2026-05-01T12:39:38Z</time></trkpt><trkpt lat="45.94412340711981" lon="13.85461114867251"><ele>1121.0</ele><time>2026-05-01T12:39:39Z</time></trkpt><trkpt lat="45.944109378806104" lon="13.85479044924072"><ele>1119.3999999999999</ele><time>2026-05-01T12:39:40Z</time></trkpt><trkpt lat="45.94405988162932" lon="13.854975155292092"><ele>1117.8</ele><time>2026-05-01T12:39:41Z</time></trkpt><trkpt lat="45.9440306817924" lon="13.855123328755019"><ele>1116.1999999999998</ele><time>2026-05-01T12:39:42Z</time></trkpt><trkpt lat="45.94402918306663" lon="13.85524109030922"><ele>1114.6</ele><time>2026-05-01T12:39:43Z</time></trkpt><trkpt lat="45.94403795549656" lon="13.855346600505547"><ele>1113.0</ele><time>2026-05-01T12:39:44Z</time></trkpt><trkpt lat="45.944073785379146" lon="13.855456673644214"><ele>1112.6</ele><time>2026-05-01T12:39:45Z</time></trkpt><trkpt lat="45.944118714787436" lon="13.855571558869741"><ele>1112.1999999999998</ele><time>2026-05-01T12:39:46Z</time></trkpt><trkpt lat="45.94417316230859" lon="13.855692869537872"><ele>1111.8</ele><time>2026-05-01T12:39:47Z</time></trkpt><trkpt lat="45.94422057685186" lon="13.85580611328552"><ele>1111.3999999999999</ele><time>2026-05-01T12:39:48Z</time></trkpt><trkpt lat="45.94427498338436" lon="13.855924337166618"><ele>1111.0</ele><time>2026-05-01T12:39:49Z</time></trkpt><trkpt lat="45.944335615500314" lon="13.856036813231619"><ele>1105.6</ele><time>2026-05-01T12:39:50Z</time></trkpt><trkpt lat="45.944406333149615" lon="13.856135081185766"><ele>1100.1999999999998</ele><time>2026-05-01T12:39:51Z</time></trkpt><trkpt lat="45.94448249905206" lon="13.856199279287605"><ele>1094.8000000000002</ele><time>2026-05-01T12:39:52Z</time></trkpt><trkpt lat="45.94455855874459" lon="13.856246748246281"><ele>1089.4</ele><time>2026-05-01T12:39:53Z</time></trkpt><trkpt lat="45.94464589038704" lon="13.856278202772112"><ele>1084.0</ele><time>2026-05-01T12:39:54Z</time></trkpt><trkpt lat="45.9447497599879" lon="13.85630174949759"><ele>1084.0</ele><time>2026-05-01T12:39:55Z</time></trkpt><trkpt lat="45.944864833059036" lon="13.85632540209747"><ele>1084.0</ele><time>2026-05-01T12:39:56Z</time></trkpt><trkpt lat="45.944958275055356" lon="13.85633008219828"><ele>1084.0</ele><time>2026-05-01T12:39:57Z</time></trkpt><trkpt lat="45.94503895381305" lon="13.856314852252547"><ele>1084.0</ele><time>2026-05-01T12:39:58Z</time></trkpt><trkpt lat="45.94510076195345" lon="13.85626979065804"><ele>1084.0</ele><time>2026-05-01T12:39:59Z</time></trkpt><trkpt lat="45.94516934661777" lon="13.856203912388372"><ele>1084.0</ele><time>2026-05-01T12:40:00Z</time></trkpt><trkpt lat="45.945233569026456" lon="13.856121255225032"><ele>1084.5</ele><time>2026-05-01T12:40:01Z</time></trkpt><trkpt lat="45.94529303133548" lon="13.85605759575145"><ele>1085.0</ele><time>2026-05-01T12:40:02Z</time></trkpt><trkpt lat="45.94536404210695" lon="13.856015623303632"><ele>1085.5</ele><time>2026-05-01T12:40:03Z</time></trkpt><trkpt lat="45.945457057473625" lon="13.855984262538884"><ele>1086.0</ele><time>2026-05-01T12:40:04Z</time></trkpt><trkpt lat="45.94556543928668" lon="13.855943673152328"><ele>1086.5</ele><time>2026-05-01T12:40:05Z</time></trkpt><trkpt lat="45.945649704609465" lon="13.855930517868655"><ele>1087.0</ele><time>2026-05-01T12:40:06Z</time></trkpt><trkpt lat="45.945720517724745" lon="13.855901303400058"><ele>1087.0</ele><time>2026-05-01T12:40:07Z</time></trkpt><trkpt lat="45.94580324945625" lon="13.855843117480836"><ele>1087.0</ele><time>2026-05-01T12:40:08Z</time></trkpt><trkpt lat="45.94588238940252" lon="13.855704629298849"><ele>1087.0</ele><time>2026-05-01T12:40:10Z</time></trkpt><trkpt lat="45.945961371965005" lon="13.855559667461938"><ele>1087.0</ele><time>2026-05-01T12:40:11Z</time></trkpt><trkpt lat="45.946051203251045" lon="13.855407161982173"><ele>1087.25</ele><time>2026-05-01T12:40:12Z</time></trkpt><trkpt lat="45.9461575669254" lon="13.855309416504777"><ele>1087.5</ele><time>2026-05-01T12:40:13Z</time></trkpt><trkpt lat="45.946284654108794" lon="13.855201167795924"><ele>1087.75</ele><time>2026-05-01T12:40:14Z</time></trkpt><trkpt lat="45.94638381411996" lon="13.855145113794554"><ele>1088.0</ele><time>2026-05-01T12:40:15Z</time></trkpt><trkpt lat="45.946480456969276" lon="13.855076361484645"><ele>1088.0</ele><time>2026-05-01T12:40:16Z</time></trkpt><trkpt lat="45.94658718624631" lon="13.854984844349733"><ele>1088.0</ele><time>2026-05-01T12:40:17Z</time></trkpt><trkpt lat="45.9466644144243" lon="13.854896517637519"><ele>1088.0</ele><time>2026-05-01T12:40:18Z</time></trkpt><trkpt lat="45.94673933186201" lon="13.854809728999731"><ele>1088.0</ele><time>2026-05-01T12:40:19Z</time></trkpt><trkpt lat="45.946811639464805" lon="13.854727875123363"><ele>1088.0</ele><time>2026-05-01T12:40:20Z</time></trkpt><trkpt lat="45.94688662545367" lon="13.854698321804957"><ele>1087.25</ele><time>2026-05-01T12:40:21Z</time></trkpt><trkpt lat="45.946962790605674" lon="13.854717154471908"><ele>1086.5</ele><time>2026-05-01T12:40:22Z</time></trkpt><trkpt lat="45.94708741177319" lon="13.854756280949191"><ele>1085.75</ele><time>2026-05-01T12:40:24Z</time></trkpt><trkpt lat="45.947204676010095" lon="13.854794732550905"><ele>1085.0</ele><time>2026-05-01T12:40:26Z</time></trkpt><trkpt lat="45.94732633398601" lon="13.854873810158688"><ele>1085.0</ele><time>2026-05-01T12:40:28Z</time></trkpt><trkpt lat="45.94739813428222" lon="13.8549158589042"><ele>1085.0</ele><time>2026-05-01T12:40:29Z</time></trkpt><trkpt lat="45.94747762106096" lon="13.85492658318166"><ele>1085.0</ele><time>2026-05-01T12:40:30Z</time></trkpt><trkpt lat="45.94756353302238" lon="13.854930619230734"><ele>1085.0</ele><time>2026-05-01T12:40:31Z</time></trkpt><trkpt lat="45.94765084114006" lon="13.85493668500704"><ele>1085.0</ele><time>2026-05-01T12:40:32Z</time></trkpt><trkpt lat="45.94773838687595" lon="13.854948980109105"><ele>1085.0</ele><time>2026-05-01T12:40:33Z</time></trkpt><trkpt lat="45.947847094437" lon="13.854974779141251"><ele>1084.8</ele><time>2026-05-01T12:40:34Z</time></trkpt><trkpt lat="45.94794909803316" lon="13.854996249889496"><ele>1084.6</ele><time>2026-05-01T12:40:35Z</time></trkpt><trkpt lat="45.948034863577" lon="13.855035183036923"><ele>1084.4</ele><time>2026-05-01T12:40:36Z</time></trkpt><trkpt lat="45.94812298995095" lon="13.855049736799405"><ele>1084.2</ele><time>2026-05-01T12:40:37Z</time></trkpt><trkpt lat="45.948213550222654" lon="13.855072513280847"><ele>1084.0</ele><time>2026-05-01T12:40:38Z</time></trkpt><trkpt lat="45.94830225708865" lon="13.855086838474461"><ele>1082.75</ele><time>2026-05-01T12:40:39Z</time></trkpt><trkpt lat="45.948383488521294" lon="13.855110077010586"><ele>1081.5</ele><time>2026-05-01T12:40:40Z</time></trkpt><trkpt lat="45.94848984842826" lon="13.855089095563757"><ele>1080.25</ele><time>2026-05-01T12:40:41Z</time></trkpt><trkpt lat="45.948640584625615" lon="13.855073888802703"><ele>1079.0</ele><time>2026-05-01T12:40:42Z</time></trkpt><trkpt lat="45.948822301148645" lon="13.855044318583378"><ele>1079.0</ele><time>2026-05-01T12:40:43Z</time></trkpt><trkpt lat="45.94895868619217" lon="13.855025575516416"><ele>1079.0</ele><time>2026-05-01T12:40:44Z</time></trkpt><trkpt lat="45.9490695260931" lon="13.854996186599866"><ele>1079.0</ele><time>2026-05-01T12:40:45Z</time></trkpt><trkpt lat="45.9491710225746" lon="13.854975428354704"><ele>1079.0</ele><time>2026-05-01T12:40:46Z</time></trkpt><trkpt lat="45.94927188475853" lon="13.854942456786091"><ele>1078.2</ele><time>2026-05-01T12:40:47Z</time></trkpt><trkpt lat="45.949378655849095" lon="13.854883631381357"><ele>1077.4</ele><time>2026-05-01T12:40:48Z</time></trkpt><trkpt lat="45.94948194574169" lon="13.854868125210198"><ele>1076.6</ele><time>2026-05-01T12:40:49Z</time></trkpt><trkpt lat="45.94959129266006" lon="13.854839733133831"><ele>1075.8</ele><time>2026-05-01T12:40:50Z</time></trkpt><trkpt lat="45.949704073138506" lon="13.854853621324168"><ele>1075.0</ele><time>2026-05-01T12:40:51Z</time></trkpt><trkpt lat="45.94980678261292" lon="13.854859421866175"><ele>1075.0</ele><time>2026-05-01T12:40:52Z</time></trkpt><trkpt lat="45.94991196892702" lon="13.854871634115714"><ele>1075.0</ele><time>2026-05-01T12:40:53Z</time></trkpt><trkpt lat="45.95002989238053" lon="13.854890320130428"><ele>1075.0</ele><time>2026-05-01T12:40:54Z</time></trkpt><trkpt lat="45.95016891082943" lon="13.85491776471338"><ele>1075.0</ele><time>2026-05-01T12:40:55Z</time></trkpt><trkpt lat="45.95030314033191" lon="13.854949091393916"><ele>1076.0</ele><time>2026-05-01T12:40:56Z</time></trkpt><trkpt lat="45.95042545296498" lon="13.854967909437963"><ele>1077.0</ele><time>2026-05-01T12:40:57Z</time></trkpt><trkpt lat="45.950526966454554" lon="13.855019889333215"><ele>1078.0</ele><time>2026-05-01T12:40:58Z</time></trkpt><trkpt lat="45.95062570116611" lon="13.85505922677526"><ele>1079.0</ele><time>2026-05-01T12:40:59Z</time></trkpt><trkpt lat="45.95072942797858" lon="13.855096724986188"><ele>1080.0</ele><time>2026-05-01T12:41:00Z</time></trkpt><trkpt lat="45.950818812886574" lon="13.85526500296644"><ele>1076.75</ele><time>2026-05-01T12:41:01Z</time></trkpt><trkpt lat="45.95093782928898" lon="13.855337218887755"><ele>1073.5</ele><time>2026-05-01T12:41:02Z</time></trkpt><trkpt lat="45.951058858585846" lon="13.855324211849295"><ele>1070.25</ele><time>2026-05-01T12:41:03Z</time></trkpt><trkpt lat="45.951167224641004" lon="13.855338523046186"><ele>1067.0</ele><time>2026-05-01T12:41:04Z</time></trkpt><trkpt lat="45.951285474734924" lon="13.855328725286386"><ele>1067.0</ele><time>2026-05-01T12:41:05Z</time></trkpt><trkpt lat="45.95142138716354" lon="13.855300380926328"><ele>1067.0</ele><time>2026-05-01T12:41:06Z</time></trkpt><trkpt lat="45.95156571988332" lon="13.85530869113777"><ele>1067.0</ele><time>2026-05-01T12:41:07Z</time></trkpt><trkpt lat="45.95168334946296" lon="13.855321601582034"><ele>1067.0</ele><time>2026-05-01T12:41:08Z</time></trkpt><trkpt lat="45.95177826271687" lon="13.855364352219684"><ele>1066.4</ele><time>2026-05-01T12:41:09Z</time></trkpt><trkpt lat="45.95185739366175" lon="13.855455550264818"><ele>1065.8000000000002</ele><time>2026-05-01T12:41:10Z</time></trkpt><trkpt lat="45.951954860192835" lon="13.855529380211555"><ele>1065.2</ele><time>2026-05-01T12:41:11Z</time></trkpt><trkpt lat="45.952045974166396" lon="13.855603506278035"><ele>1064.6000000000001</ele><time>2026-05-01T12:41:12Z</time></trkpt><trkpt lat="45.95211653869982" lon="13.85567718839425"><ele>1064.0</ele><time>2026-05-01T12:41:13Z</time></trkpt><trkpt lat="45.95219019280771" lon="13.855701916441328"><ele>1064.0</ele><time>2026-05-01T12:41:14Z</time></trkpt><trkpt lat="45.952281496805114" lon="13.855697703307303"><ele>1064.0</ele><time>2026-05-01T12:41:15Z</time></trkpt><trkpt lat="45.95239051757644" lon="13.855671021151444"><ele>1064.0</ele><time>2026-05-01T12:41:16Z</time></trkpt><trkpt lat="45.95252442208381" lon="13.855654422972338"><ele>1064.0</ele><time>2026-05-01T12:41:17Z</time></trkpt><trkpt lat="45.95263584021576" lon="13.85563476647873"><ele>1064.0</ele><time>2026-05-01T12:41:18Z</time></trkpt><trkpt lat="45.95271995926553" lon="13.855633256662983"><ele>1063.2</ele><time>2026-05-01T12:41:19Z</time></trkpt><trkpt lat="45.952834269263775" lon="13.855678590595534"><ele>1062.4</ele><time>2026-05-01T12:41:21Z</time></trkpt><trkpt lat="45.95290608925112" lon="13.855721113031233"><ele>1061.6</ele><time>2026-05-01T12:41:22Z</time></trkpt><trkpt lat="45.95296705707446" lon="13.855770569688639"><ele>1060.8</ele><time>2026-05-01T12:41:23Z</time></trkpt><trkpt lat="45.95306850696409" lon="13.8558796638638"><ele>1060.0</ele><time>2026-05-01T12:41:25.001Z</time></trkpt><trkpt lat="45.953116128514715" lon="13.855975060441718"><ele>1059.1666666666665</ele><time>2026-05-01T12:41:26.001Z</time></trkpt><trkpt lat="45.95313866004899" lon="13.856094740254212"><ele>1058.3333333333333</ele><time>2026-05-01T12:41:27.001Z</time></trkpt><trkpt lat="45.95311625474156" lon="13.856203041650488"><ele>1057.5</ele><time>2026-05-01T12:41:28.001Z</time></trkpt><trkpt lat="45.95310842334243" lon="13.85633549771583"><ele>1056.6666666666667</ele><time>2026-05-01T12:41:29.001Z</time></trkpt><trkpt lat="45.95310869542998" lon="13.856454652841133"><ele>1055.8333333333335</ele><time>2026-05-01T12:41:30.001Z</time></trkpt><trkpt lat="45.95311055049082" lon="13.856570694063837"><ele>1055.0</ele><time>2026-05-01T12:41:31.001Z</time></trkpt><trkpt lat="45.95316718303806" lon="13.856673171785665"><ele>1055.0</ele><time>2026-05-01T12:41:32.001Z</time></trkpt><trkpt lat="45.953215033694995" lon="13.856770013446779"><ele>1055.0</ele><time>2026-05-01T12:41:33.001Z</time></trkpt><trkpt lat="45.95329487763775" lon="13.85683872314269"><ele>1055.0</ele><time>2026-05-01T12:41:34.001Z</time></trkpt><trkpt lat="45.95337693528376" lon="13.856916623790669"><ele>1055.0</ele><time>2026-05-01T12:41:35.001Z</time></trkpt><trkpt lat="45.95346373850148" lon="13.856971889316874"><ele>1055.0</ele><time>2026-05-01T12:41:36.001Z</time></trkpt><trkpt lat="45.953558702975684" lon="13.857007515552068"><ele>1050.75</ele><time>2026-05-01T12:41:37.001Z</time></trkpt><trkpt lat="45.95368170008546" lon="13.857042322217058"><ele>1046.5</ele><time>2026-05-01T12:41:38.001Z</time></trkpt><trkpt lat="45.95379542234825" lon="13.85705899859457"><ele>1042.25</ele><time>2026-05-01T12:41:39Z</time></trkpt><trkpt lat="45.95388021389095" lon="13.857058380543066"><ele>1038.0</ele><time>2026-05-01T12:41:40Z</time></trkpt><trkpt lat="45.95400556015568" lon="13.85704806225792"><ele>1038.0</ele><time>2026-05-01T12:41:41Z</time></trkpt><trkpt lat="45.954124486522815" lon="13.856974985666131"><ele>1038.0</ele><time>2026-05-01T12:41:42Z</time></trkpt><trkpt lat="45.954253054909685" lon="13.856881507147076"><ele>1038.0</ele><time>2026-05-01T12:41:43Z</time></trkpt><trkpt lat="45.95438971801529" lon="13.856765890450552"><ele>1038.0</ele><time>2026-05-01T12:41:44Z</time></trkpt><trkpt lat="45.954548727002894" lon="13.856639202395671"><ele>1037.5</ele><time>2026-05-01T12:41:45Z</time></trkpt><trkpt lat="45.9546705640942" lon="13.856503684623128"><ele>1037.0</ele><time>2026-05-01T12:41:46Z</time></trkpt><trkpt lat="45.954760771325695" lon="13.856358403391592"><ele>1036.5</ele><time>2026-05-01T12:41:47Z</time></trkpt><trkpt lat="45.95486198485419" lon="13.856219655897963"><ele>1036.0</ele><time>2026-05-01T12:41:48Z</time></trkpt><trkpt lat="45.95496606479698" lon="13.856096315767639"><ele>1032.3333333333333</ele><time>2026-05-01T12:41:49Z</time></trkpt><trkpt lat="45.95507053118004" lon="13.855923777125282"><ele>1028.6666666666667</ele><time>2026-05-01T12:41:50Z</time></trkpt><trkpt lat="45.95515159048686" lon="13.85572658354074"><ele>1025.0</ele><time>2026-05-01T12:41:51Z</time></trkpt><trkpt lat="45.955250635781674" lon="13.855566910020682"><ele>1025.0</ele><time>2026-05-01T12:41:52Z</time></trkpt><trkpt lat="45.95535332339523" lon="13.855447643761392"><ele>1025.0</ele><time>2026-05-01T12:41:53Z</time></trkpt><trkpt lat="45.955456432421755" lon="13.855339576057405"><ele>1025.0</ele><time>2026-05-01T12:41:54Z</time></trkpt><trkpt lat="45.95556860982129" lon="13.855247368267618"><ele>1025.0</ele><time>2026-05-01T12:41:55Z</time></trkpt><trkpt lat="45.95567269022881" lon="13.855173920156252"><ele>1023.8333333333334</ele><time>2026-05-01T12:41:56Z</time></trkpt><trkpt lat="45.95576361256576" lon="13.855107354086979"><ele>1022.6666666666667</ele><time>2026-05-01T12:41:57Z</time></trkpt><trkpt lat="45.95584415787347" lon="13.855021168987578"><ele>1021.5</ele><time>2026-05-01T12:41:58Z</time></trkpt><trkpt lat="45.95590081925385" lon="13.85493256462933"><ele>1020.3333333333333</ele><time>2026-05-01T12:41:59Z</time></trkpt><trkpt lat="45.95594585396785" lon="13.854854107985258"><ele>1019.1666666666666</ele><time>2026-05-01T12:42:00Z</time></trkpt><trkpt lat="45.9559663613967" lon="13.854766383181069"><ele>1018.0</ele><time>2026-05-01T12:42:01Z</time></trkpt><trkpt lat="45.95594645691262" lon="13.854639215947309"><ele>1018.0</ele><time>2026-05-01T12:42:02Z</time></trkpt><trkpt lat="45.95588512432244" lon="13.854536007650305"><ele>1018.0</ele><time>2026-05-01T12:42:03Z</time></trkpt><trkpt lat="45.955825782829756" lon="13.854427519167073"><ele>1018.0</ele><time>2026-05-01T12:42:04Z</time></trkpt><trkpt lat="45.955780495531464" lon="13.854320929892681"><ele>1018.0</ele><time>2026-05-01T12:42:05Z</time></trkpt><trkpt lat="45.955810113821066" lon="13.854212265384884"><ele>1018.0</ele><time>2026-05-01T12:42:07Z</time></trkpt><trkpt lat="45.955893907445365" lon="13.854145399594994"><ele>1019.5999999999999</ele><time>2026-05-01T12:42:09Z</time></trkpt><trkpt lat="45.955952456041125" lon="13.854097489380854"><ele>1021.1999999999999</ele><time>2026-05-01T12:42:10Z</time></trkpt><trkpt lat="45.956037962232195" lon="13.854100164229346"><ele>1022.8</ele><time>2026-05-01T12:42:12Z</time></trkpt><trkpt lat="45.9561613991421" lon="13.85409979984353"><ele>1024.3999999999999</ele><time>2026-05-01T12:42:14Z</time></trkpt><trkpt lat="45.95626136219877" lon="13.854048421688898"><ele>1026.0</ele><time>2026-05-01T12:42:15Z</time></trkpt><trkpt lat="45.95638223466851" lon="13.853946604530787"><ele>1026.0</ele><time>2026-05-01T12:42:16Z</time></trkpt><trkpt lat="45.95650409272995" lon="13.853844330932464"><ele>1026.0</ele><time>2026-05-01T12:42:17Z</time></trkpt><trkpt lat="45.9566378289616" lon="13.85378101248409"><ele>1026.0</ele><time>2026-05-01T12:42:18Z</time></trkpt><trkpt lat="45.95676520605913" lon="13.853708382793744"><ele>1026.0</ele><time>2026-05-01T12:42:19Z</time></trkpt><trkpt lat="45.95689612697897" lon="13.853628419429766"><ele>1027.0</ele><time>2026-05-01T12:42:20Z</time></trkpt><trkpt lat="45.95700558861168" lon="13.853529176093717"><ele>1028.0</ele><time>2026-05-01T12:42:21Z</time></trkpt><trkpt lat="45.95711973375432" lon="13.853446265378636"><ele>1029.0</ele><time>2026-05-01T12:42:22Z</time></trkpt><trkpt lat="45.957228346433986" lon="13.853347854163916"><ele>1030.0</ele><time>2026-05-01T12:42:23Z</time></trkpt><trkpt lat="45.95734201442132" lon="13.853226610475279"><ele>1030.0</ele><time>2026-05-01T12:42:24Z</time></trkpt><trkpt lat="45.95746653025887" lon="13.85309227821058"><ele>1030.0</ele><time>2026-05-01T12:42:25Z</time></trkpt><trkpt lat="45.95760159445617" lon="13.852964595273692"><ele>1030.0</ele><time>2026-05-01T12:42:26Z</time></trkpt><trkpt lat="45.95775113224696" lon="13.852836931314213"><ele>1029.0</ele><time>2026-05-01T12:42:27Z</time></trkpt><trkpt lat="45.95789777574378" lon="13.852718201277877"><ele>1028.0</ele><time>2026-05-01T12:42:28Z</time></trkpt><trkpt lat="45.95804480549996" lon="13.852598702630544"><ele>1027.0</ele><time>2026-05-01T12:42:29Z</time></trkpt><trkpt lat="45.958180288366464" lon="13.852478866258151"><ele>1027.0</ele><time>2026-05-01T12:42:30Z</time></trkpt><trkpt lat="45.95831912781292" lon="13.852371729219087"><ele>1027.0</ele><time>2026-05-01T12:42:31Z</time></trkpt><trkpt lat="45.95845694933477" lon="13.852261559861477"><ele>1027.0</ele><time>2026-05-01T12:42:32Z</time></trkpt><trkpt lat="45.958590923524476" lon="13.85215147569661"><ele>1025.25</ele><time>2026-05-01T12:42:33Z</time></trkpt><trkpt lat="45.95871358712667" lon="13.852035781433854"><ele>1023.5</ele><time>2026-05-01T12:42:34Z</time></trkpt><trkpt lat="45.95884177155898" lon="13.851917981806205"><ele>1021.75</ele><time>2026-05-01T12:42:35Z</time></trkpt><trkpt lat="45.95896781010881" lon="13.851819286920982"><ele>1020.0</ele><time>2026-05-01T12:42:36Z</time></trkpt><trkpt lat="45.95909002950935" lon="13.85172223589398"><ele>1020.0</ele><time>2026-05-01T12:42:37Z</time></trkpt><trkpt lat="45.95918824734131" lon="13.851642789168219"><ele>1020.0</ele><time>2026-05-01T12:42:38Z</time></trkpt><trkpt lat="45.95925908794494" lon="13.851597816153358"><ele>1020.0</ele><time>2026-05-01T12:42:39Z</time></trkpt><trkpt lat="45.9593613551899" lon="13.851601246811006"><ele>1020.0</ele><time>2026-05-01T12:42:41Z</time></trkpt><trkpt lat="45.95937620486006" lon="13.851810963307924"><ele>1020.0</ele><time>2026-05-01T12:42:43Z</time></trkpt><trkpt lat="45.95925320041199" lon="13.851925651145766"><ele>1019.0</ele><time>2026-05-01T12:42:44Z</time></trkpt><trkpt lat="45.959201678175894" lon="13.85209536615003"><ele>1018.0</ele><time>2026-05-01T12:42:45Z</time></trkpt><trkpt lat="45.95916391246071" lon="13.852327795659336"><ele>1017.0</ele><time>2026-05-01T12:42:46Z</time></trkpt><trkpt lat="45.95917828269704" lon="13.852563412760329"><ele>1013.25</ele><time>2026-05-01T12:42:47Z</time></trkpt><trkpt lat="45.95919027518596" lon="13.852758052298404"><ele>1009.5</ele><time>2026-05-01T12:42:48Z</time></trkpt><trkpt lat="45.95921246178815" lon="13.85293550867457"><ele>1005.75</ele><time>2026-05-01T12:42:49Z</time></trkpt><trkpt lat="45.95923801865863" lon="13.853084699094023"><ele>1002.0</ele><time>2026-05-01T12:42:50Z</time></trkpt><trkpt lat="45.95928184227697" lon="13.853208667603003"><ele>1001.75</ele><time>2026-05-01T12:42:51Z</time></trkpt><trkpt lat="45.95936250633656" lon="13.853310760968487"><ele>1001.5</ele><time>2026-05-01T12:42:52Z</time></trkpt><trkpt lat="45.95948719929043" lon="13.853303716455853"><ele>1001.25</ele><time>2026-05-01T12:42:53Z</time></trkpt><trkpt lat="45.95962986173028" lon="13.853319120494954"><ele>1001.0</ele><time>2026-05-01T12:42:54Z</time></trkpt><trkpt lat="45.959767857510045" lon="13.853306074246348"><ele>1001.0</ele><time>2026-05-01T12:42:55Z</time></trkpt><trkpt lat="45.95989629862014" lon="13.853294880355762"><ele>1001.0</ele><time>2026-05-01T12:42:56Z</time></trkpt><trkpt lat="45.960017104185944" lon="13.853342463854998"><ele>1001.0</ele><time>2026-05-01T12:42:57Z</time></trkpt><trkpt lat="45.960080120519926" lon="13.853503119872153"><ele>1001.0</ele><time>2026-05-01T12:42:58Z</time></trkpt><trkpt lat="45.96015277061355" lon="13.853657156811911"><ele>1001.5</ele><time>2026-05-01T12:42:59Z</time></trkpt><trkpt lat="45.96020025242133" lon="13.853838406058319"><ele>1002.0</ele><time>2026-05-01T12:43:00Z</time></trkpt><trkpt lat="45.96020785846255" lon="13.854038374331193"><ele>1002.5</ele><time>2026-05-01T12:43:01Z</time></trkpt><trkpt lat="45.96017732379316" lon="13.854245508002501"><ele>1003.0</ele><time>2026-05-01T12:43:02Z</time></trkpt><trkpt lat="45.960115740051386" lon="13.854422858804414"><ele>1001.25</ele><time>2026-05-01T12:43:03Z</time></trkpt><trkpt lat="45.960027517181935" lon="13.854554909522857"><ele>999.5</ele><time>2026-05-01T12:43:04Z</time></trkpt><trkpt lat="45.959922997113665" lon="13.854654319729107"><ele>997.75</ele><time>2026-05-01T12:43:05Z</time></trkpt><trkpt lat="45.95981513043565" lon="13.854741988257599"><ele>996.0</ele><time>2026-05-01T12:43:06Z</time></trkpt><trkpt lat="45.95971167182543" lon="13.854812322268092"><ele>996.0</ele><time>2026-05-01T12:43:07Z</time></trkpt><trkpt lat="45.95957410464939" lon="13.854891647834197"><ele>996.0</ele><time>2026-05-01T12:43:08Z</time></trkpt><trkpt lat="45.95944555832696" lon="13.854888857978876"><ele>996.0</ele><time>2026-05-01T12:43:09Z</time></trkpt><trkpt lat="45.9593207063671" lon="13.854863726670002"><ele>996.0</ele><time>2026-05-01T12:43:10Z</time></trkpt><trkpt lat="45.95919933283298" lon="13.854867421312894"><ele>995.5</ele><time>2026-05-01T12:43:11Z</time></trkpt><trkpt lat="45.95905976751991" lon="13.854924804859793"><ele>995.0</ele><time>2026-05-01T12:43:12Z</time></trkpt><trkpt lat="45.95892438437309" lon="13.854985884341636"><ele>994.5</ele><time>2026-05-01T12:43:13Z</time></trkpt><trkpt lat="45.958793271828135" lon="13.855050445614038"><ele>994.0</ele><time>2026-05-01T12:43:14Z</time></trkpt><trkpt lat="45.9586606019897" lon="13.855120908428908"><ele>994.0</ele><time>2026-05-01T12:43:15Z</time></trkpt><trkpt lat="45.95852159153564" lon="13.855201464451493"><ele>994.0</ele><time>2026-05-01T12:43:16Z</time></trkpt><trkpt lat="45.958376315529264" lon="13.855291480521947"><ele>994.0</ele><time>2026-05-01T12:43:17Z</time></trkpt><trkpt lat="45.95823575741967" lon="13.855395237727354"><ele>991.0</ele><time>2026-05-01T12:43:18Z</time></trkpt><trkpt lat="45.95809385027844" lon="13.855517956236113"><ele>988.0</ele><time>2026-05-01T12:43:19Z</time></trkpt><trkpt lat="45.95794764915843" lon="13.855617340936455"><ele>985.0</ele><time>2026-05-01T12:43:20Z</time></trkpt><trkpt lat="45.95781230947549" lon="13.855727805647247"><ele>985.0</ele><time>2026-05-01T12:43:21Z</time></trkpt><trkpt lat="45.95768155165605" lon="13.855852182902487"><ele>985.0</ele><time>2026-05-01T12:43:22Z</time></trkpt><trkpt lat="45.95754408364676" lon="13.855939051889315"><ele>985.0</ele><time>2026-05-01T12:43:23Z</time></trkpt><trkpt lat="45.95741013957586" lon="13.85603133864521"><ele>985.0</ele><time>2026-05-01T12:43:24Z</time></trkpt><trkpt lat="45.95727795007381" lon="13.856129070334601"><ele>985.0</ele><time>2026-05-01T12:43:25Z</time></trkpt><trkpt lat="45.9571480266296" lon="13.856230265116702"><ele>985.0</ele><time>2026-05-01T12:43:26Z</time></trkpt><trkpt lat="45.957021854259466" lon="13.85633521680427"><ele>985.0</ele><time>2026-05-01T12:43:27Z</time></trkpt><trkpt lat="45.95690183762916" lon="13.856454419652513"><ele>985.0</ele><time>2026-05-01T12:43:28Z</time></trkpt><trkpt lat="45.95679403250606" lon="13.85659921522504"><ele>985.0</ele><time>2026-05-01T12:43:29Z</time></trkpt><trkpt lat="45.95670530530269" lon="13.856772903025277"><ele>985.0</ele><time>2026-05-01T12:43:30.001Z</time></trkpt><trkpt lat="45.95660754449795" lon="13.856940662237792"><ele>985.0</ele><time>2026-05-01T12:43:31.001Z</time></trkpt><trkpt lat="45.95651361893757" lon="13.85710534413014"><ele>985.3333333333333</ele><time>2026-05-01T12:43:32.001Z</time></trkpt><trkpt lat="45.956418882125966" lon="13.857282515219532"><ele>985.6666666666667</ele><time>2026-05-01T12:43:33.001Z</time></trkpt><trkpt lat="45.95631171202553" lon="13.857461955550418"><ele>986.0</ele><time>2026-05-01T12:43:34.001Z</time></trkpt><trkpt lat="45.956220657509846" lon="13.857656523469933"><ele>986.6666666666667</ele><time>2026-05-01T12:43:35.001Z</time></trkpt><trkpt lat="45.95614389622383" lon="13.857853992702855"><ele>987.3333333333333</ele><time>2026-05-01T12:43:36.001Z</time></trkpt><trkpt lat="45.95605666165299" lon="13.858031625074684"><ele>988.0</ele><time>2026-05-01T12:43:37.001Z</time></trkpt><trkpt lat="45.95596831440868" lon="13.858210024557874"><ele>988.0</ele><time>2026-05-01T12:43:38.001Z</time></trkpt><trkpt lat="45.95588317744006" lon="13.858376067802723"><ele>988.0</ele><time>2026-05-01T12:43:39.001Z</time></trkpt><trkpt lat="45.95579397895661" lon="13.858538188621425"><ele>988.0</ele><time>2026-05-01T12:43:40.001Z</time></trkpt><trkpt lat="45.95570021891357" lon="13.858692622056621"><ele>988.0</ele><time>2026-05-01T12:43:41.001Z</time></trkpt><trkpt lat="45.955603170626354" lon="13.85884684098897"><ele>984.75</ele><time>2026-05-01T12:43:42.001Z</time></trkpt><trkpt lat="45.955501458582205" lon="13.858998195616604"><ele>981.5</ele><time>2026-05-01T12:43:43.001Z</time></trkpt><trkpt lat="45.955412715748274" lon="13.859170646912723"><ele>978.25</ele><time>2026-05-01T12:43:44.001Z</time></trkpt><trkpt lat="45.95529761818146" lon="13.859310548686585"><ele>975.0</ele><time>2026-05-01T12:43:45.001Z</time></trkpt><trkpt lat="45.9552030197301" lon="13.859477778173472"><ele>974.6666666666667</ele><time>2026-05-01T12:43:46.001Z</time></trkpt><trkpt lat="45.95510376180143" lon="13.859649814037452"><ele>974.3333333333334</ele><time>2026-05-01T12:43:47.001Z</time></trkpt><trkpt lat="45.95498558629429" lon="13.859798948756165"><ele>974.0</ele><time>2026-05-01T12:43:48.001Z</time></trkpt><trkpt lat="45.95485879447066" lon="13.859942051553753"><ele>973.6666666666667</ele><time>2026-05-01T12:43:49.001Z</time></trkpt><trkpt lat="45.95473038582016" lon="13.860095311202073"><ele>973.3333333333333</ele><time>2026-05-01T12:43:50.001Z</time></trkpt><trkpt lat="45.954604954604065" lon="13.860244793020295"><ele>973.0</ele><time>2026-05-01T12:43:51.001Z</time></trkpt><trkpt lat="45.95448040285293" lon="13.860405891134292"><ele>973.0</ele><time>2026-05-01T12:43:52.001Z</time></trkpt><trkpt lat="45.95434988183271" lon="13.860553189501159"><ele>973.0</ele><time>2026-05-01T12:43:53.001Z</time></trkpt><trkpt lat="45.954228705195256" lon="13.860686705076292"><ele>973.0</ele><time>2026-05-01T12:43:54.001Z</time></trkpt><trkpt lat="45.954103398144944" lon="13.860789454131655"><ele>972.5</ele><time>2026-05-01T12:43:55.001Z</time></trkpt><trkpt lat="45.95399501628779" lon="13.860901790306354"><ele>972.0</ele><time>2026-05-01T12:43:56.001Z</time></trkpt><trkpt lat="45.95388749174294" lon="13.861013456914776"><ele>971.5</ele><time>2026-05-01T12:43:57Z</time></trkpt><trkpt lat="45.95377396040089" lon="13.861130616096231"><ele>971.0</ele><time>2026-05-01T12:43:58Z</time></trkpt><trkpt lat="45.95365708960222" lon="13.861250748884048"><ele>970.6666666666667</ele><time>2026-05-01T12:43:59Z</time></trkpt><trkpt lat="45.95353628127728" lon="13.861374929633303"><ele>970.3333333333333</ele><time>2026-05-01T12:44:00Z</time></trkpt><trkpt lat="45.9534097785578" lon="13.861504504363209"><ele>970.0</ele><time>2026-05-01T12:44:01Z</time></trkpt><trkpt lat="45.953278583464254" lon="13.861637061113957"><ele>972.0</ele><time>2026-05-01T12:44:02Z</time></trkpt><trkpt lat="45.953151245057484" lon="13.861791009757036"><ele>974.0</ele><time>2026-05-01T12:44:03Z</time></trkpt><trkpt lat="45.95299693685386" lon="13.861913831042138"><ele>976.0</ele><time>2026-05-01T12:44:04Z</time></trkpt><trkpt lat="45.95283648179851" lon="13.862048051509076"><ele>976.0</ele><time>2026-05-01T12:44:05Z</time></trkpt><trkpt lat="45.952667692370575" lon="13.862232683608822"><ele>976.0</ele><time>2026-05-01T12:44:06Z</time></trkpt><trkpt lat="45.9525063812787" lon="13.862426798857522"><ele>976.0</ele><time>2026-05-01T12:44:07Z</time></trkpt><trkpt lat="45.952346448852566" lon="13.86260495308111"><ele>973.6666666666666</ele><time>2026-05-01T12:44:08Z</time></trkpt><trkpt lat="45.952199387192" lon="13.86277845037912"><ele>971.3333333333333</ele><time>2026-05-01T12:44:09Z</time></trkpt><trkpt lat="45.95205397623474" lon="13.862971517918162"><ele>969.0</ele><time>2026-05-01T12:44:10Z</time></trkpt><trkpt lat="45.95189789301131" lon="13.86314170561047"><ele>969.0</ele><time>2026-05-01T12:44:11Z</time></trkpt><trkpt lat="45.951742444945786" lon="13.863326732671117"><ele>969.0</ele><time>2026-05-01T12:44:12Z</time></trkpt><trkpt lat="45.95159419000766" lon="13.863517488160193"><ele>969.0</ele><time>2026-05-01T12:44:13Z</time></trkpt><trkpt lat="45.951451626199336" lon="13.863713528387153"><ele>966.0</ele><time>2026-05-01T12:44:14Z</time></trkpt><trkpt lat="45.95130426441258" lon="13.863903398057749"><ele>963.0</ele><time>2026-05-01T12:44:15Z</time></trkpt><trkpt lat="45.95115362378221" lon="13.86409293318516"><ele>960.0</ele><time>2026-05-01T12:44:16Z</time></trkpt><trkpt lat="45.951010399014244" lon="13.86427326717829"><ele>955.3333333333333</ele><time>2026-05-01T12:44:17Z</time></trkpt><trkpt lat="45.95086052875007" lon="13.864433511548853"><ele>950.6666666666666</ele><time>2026-05-01T12:44:18Z</time></trkpt><trkpt lat="45.95072050533742" lon="13.864614165546985"><ele>946.0</ele><time>2026-05-01T12:44:19Z</time></trkpt><trkpt lat="45.950588033261404" lon="13.864793131456578"><ele>946.0</ele><time>2026-05-01T12:44:20Z</time></trkpt><trkpt lat="45.950475044858685" lon="13.864986502627403"><ele>946.0</ele><time>2026-05-01T12:44:21Z</time></trkpt><trkpt lat="45.95039900988305" lon="13.86521083527004"><ele>946.0</ele><time>2026-05-01T12:44:22Z</time></trkpt><trkpt lat="45.95029952857715" lon="13.865414643333363"><ele>948.6666666666666</ele><time>2026-05-01T12:44:23Z</time></trkpt><trkpt lat="45.95019155010391" lon="13.865606239515737"><ele>951.3333333333333</ele><time>2026-05-01T12:44:24Z</time></trkpt><trkpt lat="45.95007936618551" lon="13.86577825322364"><ele>954.0</ele><time>2026-05-01T12:44:25Z</time></trkpt><trkpt lat="45.94996423722398" lon="13.865934894825363"><ele>948.6666666666667</ele><time>2026-05-01T12:44:26Z</time></trkpt><trkpt lat="45.94984330527192" lon="13.866093131353566"><ele>943.3333333333334</ele><time>2026-05-01T12:44:27Z</time></trkpt><trkpt lat="45.949718635761975" lon="13.866254151346656"><ele>938.0</ele><time>2026-05-01T12:44:28Z</time></trkpt><trkpt lat="45.949599941628534" lon="13.866406209367806"><ele>938.0</ele><time>2026-05-01T12:44:29Z</time></trkpt><trkpt lat="45.94948972793964" lon="13.866569494676032"><ele>938.0</ele><time>2026-05-01T12:44:30Z</time></trkpt><trkpt lat="45.9493550227345" lon="13.866713674814342"><ele>938.0</ele><time>2026-05-01T12:44:31Z</time></trkpt><trkpt lat="45.94921934608405" lon="13.866867570546441"><ele>937.3333333333334</ele><time>2026-05-01T12:44:32Z</time></trkpt><trkpt lat="45.94908590471223" lon="13.867035297349116"><ele>936.6666666666667</ele><time>2026-05-01T12:44:33Z</time></trkpt><trkpt lat="45.94896155386135" lon="13.867200500974917"><ele>936.0</ele><time>2026-05-01T12:44:34Z</time></trkpt><trkpt lat="45.9488388652833" lon="13.867358510103493"><ele>936.0</ele><time>2026-05-01T12:44:35Z</time></trkpt><trkpt lat="45.94872154939834" lon="13.86751243026383"><ele>936.0</ele><time>2026-05-01T12:44:36Z</time></trkpt><trkpt lat="45.94860475019384" lon="13.867661846063008"><ele>936.0</ele><time>2026-05-01T12:44:37Z</time></trkpt><trkpt lat="45.94848429849149" lon="13.867814019937384"><ele>933.0</ele><time>2026-05-01T12:44:38Z</time></trkpt><trkpt lat="45.948362385553985" lon="13.867961228944953"><ele>930.0</ele><time>2026-05-01T12:44:39Z</time></trkpt><trkpt lat="45.94824807191614" lon="13.868107770771928"><ele>927.0</ele><time>2026-05-01T12:44:40Z</time></trkpt><trkpt lat="45.948127381305255" lon="13.868225881603559"><ele>927.0</ele><time>2026-05-01T12:44:41Z</time></trkpt><trkpt lat="45.948016308299195" lon="13.868357282733157"><ele>927.0</ele><time>2026-05-01T12:44:42Z</time></trkpt><trkpt lat="45.947907101657655" lon="13.868486042833878"><ele>927.0</ele><time>2026-05-01T12:44:43Z</time></trkpt><trkpt lat="45.94779334173611" lon="13.868618847033963"><ele>927.0</ele><time>2026-05-01T12:44:44Z</time></trkpt><trkpt lat="45.947684540702184" lon="13.868745862234023"><ele>927.0</ele><time>2026-05-01T12:44:45Z</time></trkpt><trkpt lat="45.947578931814185" lon="13.86886915078047"><ele>927.0</ele><time>2026-05-01T12:44:46Z</time></trkpt><trkpt lat="45.947477825896506" lon="13.86898718251125"><ele>927.0</ele><time>2026-05-01T12:44:47Z</time></trkpt><trkpt lat="45.94737442426906" lon="13.869107894491195"><ele>927.0</ele><time>2026-05-01T12:44:48Z</time></trkpt><trkpt lat="45.94728225977737" lon="13.869247956586445"><ele>921.25</ele><time>2026-05-01T12:44:49Z</time></trkpt><trkpt lat="45.947180336369186" lon="13.869366889484517"><ele>915.5</ele><time>2026-05-01T12:44:50Z</time></trkpt><trkpt lat="45.94708287718198" lon="13.869485676474156"><ele>909.75</ele><time>2026-05-01T12:44:51Z</time></trkpt><trkpt lat="45.94699270963545" lon="13.869600548678303"><ele>904.0</ele><time>2026-05-01T12:44:52Z</time></trkpt><trkpt lat="45.94691389266341" lon="13.869701123094622"><ele>904.0</ele><time>2026-05-01T12:44:53Z</time></trkpt><trkpt lat="45.94684376621136" lon="13.869790678991293"><ele>904.0000000000001</ele><time>2026-05-01T12:44:54Z</time></trkpt><trkpt lat="45.946779051169024" lon="13.869874740593382"><ele>904.0000000000001</ele><time>2026-05-01T12:44:55Z</time></trkpt><trkpt lat="45.94672346038935" lon="13.869953068128476"><ele>904.0</ele><time>2026-05-01T12:44:56Z</time></trkpt><trkpt lat="45.946633449202885" lon="13.870047218344041"><ele>904.0</ele><time>2026-05-01T12:44:58Z</time></trkpt><trkpt lat="45.946720086543074" lon="13.870287951721107"><ele>904.2</ele><time>2026-05-01T12:45:00Z</time></trkpt><trkpt lat="45.94675802348989" lon="13.87041981520799"><ele>904.4000000000001</ele><time>2026-05-01T12:45:02Z</time></trkpt><trkpt lat="45.946728749707894" lon="13.870594653363378"><ele>904.6</ele><time>2026-05-01T12:45:04Z</time></trkpt><trkpt lat="45.946685066373654" lon="13.870705221499984"><ele>904.8</ele><time>2026-05-01T12:45:05Z</time></trkpt><trkpt lat="45.946618972953814" lon="13.87081601394557"><ele>905.0</ele><time>2026-05-01T12:45:06Z</time></trkpt><trkpt lat="45.94653887776592" lon="13.870921900997054"><ele>903.4</ele><time>2026-05-01T12:45:07Z</time></trkpt><trkpt lat="45.94645381663993" lon="13.871020044279339"><ele>901.8</ele><time>2026-05-01T12:45:08Z</time></trkpt><trkpt lat="45.94637930481029" lon="13.871120823058277"><ele>900.2</ele><time>2026-05-01T12:45:09Z</time></trkpt><trkpt lat="45.946313912493686" lon="13.87123035294538"><ele>898.6</ele><time>2026-05-01T12:45:10Z</time></trkpt><trkpt lat="45.94625621907826" lon="13.871335704109113"><ele>897.0</ele><time>2026-05-01T12:45:11Z</time></trkpt><trkpt lat="45.9462080587164" lon="13.871455147417063"><ele>897.0</ele><time>2026-05-01T12:45:12Z</time></trkpt><trkpt lat="45.94616926678606" lon="13.871582207015349"><ele>897.0</ele><time>2026-05-01T12:45:13Z</time></trkpt><trkpt lat="45.946138117978315" lon="13.871717878789962"><ele>897.0</ele><time>2026-05-01T12:45:14Z</time></trkpt><trkpt lat="45.94610728007924" lon="13.871857446325809"><ele>897.0</ele><time>2026-05-01T12:45:15Z</time></trkpt><trkpt lat="45.9460844005874" lon="13.872003916347417"><ele>897.0</ele><time>2026-05-01T12:45:16Z</time></trkpt><trkpt lat="45.94607435369705" lon="13.872161212033092"><ele>896.6</ele><time>2026-05-01T12:45:17Z</time></trkpt><trkpt lat="45.946059579896804" lon="13.872320392151531"><ele>896.2</ele><time>2026-05-01T12:45:18Z</time></trkpt><trkpt lat="45.94601165934091" lon="13.87246258117436"><ele>895.8</ele><time>2026-05-01T12:45:19Z</time></trkpt><trkpt lat="45.9459544098298" lon="13.872567386016478"><ele>895.4</ele><time>2026-05-01T12:45:20Z</time></trkpt><trkpt lat="45.94589630238866" lon="13.872642958239862"><ele>895.0</ele><time>2026-05-01T12:45:21Z</time></trkpt><trkpt lat="45.94582473636038" lon="13.87270370480901"><ele>895.0</ele><time>2026-05-01T12:45:22Z</time></trkpt><trkpt lat="45.94574325714599" lon="13.872761185925105"><ele>895.0</ele><time>2026-05-01T12:45:23Z</time></trkpt><trkpt lat="45.945654352569356" lon="13.87280754579321"><ele>895.0</ele><time>2026-05-01T12:45:24Z</time></trkpt><trkpt lat="45.94555737833408" lon="13.87283782243254"><ele>895.0</ele><time>2026-05-01T12:45:25Z</time></trkpt><trkpt lat="45.945456410724894" lon="13.872864814104366"><ele>895.0</ele><time>2026-05-01T12:45:26Z</time></trkpt><trkpt lat="45.94535106505326" lon="13.872904948020878"><ele>895.0</ele><time>2026-05-01T12:45:27Z</time></trkpt><trkpt lat="45.94524202042983" lon="13.872955009403396"><ele>895.0</ele><time>2026-05-01T12:45:28Z</time></trkpt><trkpt lat="45.945128821297054" lon="13.873014315270531"><ele>895.0</ele><time>2026-05-01T12:45:29Z</time></trkpt><trkpt lat="45.945015170457964" lon="13.873085389410894"><ele>895.0</ele><time>2026-05-01T12:45:30Z</time></trkpt><trkpt lat="45.944919074957454" lon="13.873181964345338"><ele>894.25</ele><time>2026-05-01T12:45:31Z</time></trkpt><trkpt lat="45.94485119351038" lon="13.87330160581252"><ele>893.5</ele><time>2026-05-01T12:45:32Z</time></trkpt><trkpt lat="45.944811290471065" lon="13.873451671504567"><ele>892.75</ele><time>2026-05-01T12:45:33Z</time></trkpt><trkpt lat="45.94479995956288" lon="13.873629094134968"><ele>892.0</ele><time>2026-05-01T12:45:34Z</time></trkpt><trkpt lat="45.94478911431733" lon="13.87381031690056"><ele>892.0</ele><time>2026-05-01T12:45:35Z</time></trkpt><trkpt lat="45.94476082824061" lon="13.873985461014398"><ele>892.0</ele><time>2026-05-01T12:45:36.001Z</time></trkpt><trkpt lat="45.94469689413858" lon="13.87414373767991"><ele>892.0</ele><time>2026-05-01T12:45:37.001Z</time></trkpt><trkpt lat="45.94459959840211" lon="13.87427103621727"><ele>892.0</ele><time>2026-05-01T12:45:38.001Z</time></trkpt><trkpt lat="45.94449852556175" lon="13.87439252628971"><ele>892.0</ele><time>2026-05-01T12:45:39.001Z</time></trkpt><trkpt lat="45.94440412937475" lon="13.874530229206"><ele>892.0</ele><time>2026-05-01T12:45:40.001Z</time></trkpt><trkpt lat="45.94431599980754" lon="13.874678484542443"><ele>892.0</ele><time>2026-05-01T12:45:41.001Z</time></trkpt><trkpt lat="45.94423427263176" lon="13.874824371958093"><ele>892.0</ele><time>2026-05-01T12:45:42.001Z</time></trkpt><trkpt lat="45.94415674516102" lon="13.874963408375676"><ele>892.25</ele><time>2026-05-01T12:45:43.001Z</time></trkpt><trkpt lat="45.94408339602089" lon="13.875113857725239"><ele>892.5</ele><time>2026-05-01T12:45:44.001Z</time></trkpt><trkpt lat="45.94402793951373" lon="13.87528444883351"><ele>892.75</ele><time>2026-05-01T12:45:45.001Z</time></trkpt><trkpt lat="45.943986347101756" lon="13.875463482403518"><ele>893.0</ele><time>2026-05-01T12:45:46.001Z</time></trkpt><trkpt lat="45.94395217280354" lon="13.875627079096242"><ele>893.0</ele><time>2026-05-01T12:45:47.001Z</time></trkpt><trkpt lat="45.94391911209009" lon="13.875778465976174"><ele>893.0</ele><time>2026-05-01T12:45:48.001Z</time></trkpt><trkpt lat="45.94387747051931" lon="13.875912924856515"><ele>893.0</ele><time>2026-05-01T12:45:49.001Z</time></trkpt><trkpt lat="45.94383578152092" lon="13.876033213667165"><ele>893.0</ele><time>2026-05-01T12:45:50.001Z</time></trkpt><trkpt lat="45.94381429552589" lon="13.876164324234761"><ele>893.0</ele><time>2026-05-01T12:45:51.001Z</time></trkpt><trkpt lat="45.943833027026834" lon="13.87629523964688"><ele>893.5999999999999</ele><time>2026-05-01T12:45:52.001Z</time></trkpt><trkpt lat="45.9438917598083" lon="13.876389519990212"><ele>894.1999999999999</ele><time>2026-05-01T12:45:53.001Z</time></trkpt><trkpt lat="45.9439908673411" lon="13.876438257866633"><ele>894.8</ele><time>2026-05-01T12:45:54.001Z</time></trkpt><trkpt lat="45.94410207019762" lon="13.876514113219882"><ele>895.4</ele><time>2026-05-01T12:45:55.001Z</time></trkpt><trkpt lat="45.94420853565698" lon="13.87658601227144"><ele>896.0</ele><time>2026-05-01T12:45:56.001Z</time></trkpt><trkpt lat="45.94430934883075" lon="13.876639948699227"><ele>896.0</ele><time>2026-05-01T12:45:57.001Z</time></trkpt><trkpt lat="45.94438837488363" lon="13.876731732036339"><ele>895.9999999999999</ele><time>2026-05-01T12:45:58.001Z</time></trkpt><trkpt lat="45.94447444321523" lon="13.876829005827373"><ele>895.9999999999999</ele><time>2026-05-01T12:45:59.001Z</time></trkpt><trkpt lat="45.94454430970506" lon="13.876951076127169"><ele>896.0</ele><time>2026-05-01T12:46:00.001Z</time></trkpt><trkpt lat="45.94458263796135" lon="13.877113135054461"><ele>896.0</ele><time>2026-05-01T12:46:01Z</time></trkpt><trkpt lat="45.94460340900494" lon="13.877286783638889"><ele>895.25</ele><time>2026-05-01T12:46:02Z</time></trkpt><trkpt lat="45.94462184109469" lon="13.877458922938162"><ele>894.5</ele><time>2026-05-01T12:46:03Z</time></trkpt><trkpt lat="45.94463209815346" lon="13.877637306101182"><ele>893.75</ele><time>2026-05-01T12:46:04Z</time></trkpt><trkpt lat="45.94463661760494" lon="13.877818597848098"><ele>893.0</ele><time>2026-05-01T12:46:05Z</time></trkpt><trkpt lat="45.94464293666746" lon="13.878002317275874"><ele>894.25</ele><time>2026-05-01T12:46:06Z</time></trkpt><trkpt lat="45.94465077097663" lon="13.878187908118203"><ele>895.5</ele><time>2026-05-01T12:46:07Z</time></trkpt><trkpt lat="45.944659500639155" lon="13.878374282964389"><ele>896.75</ele><time>2026-05-01T12:46:08Z</time></trkpt><trkpt lat="45.944669199191" lon="13.87855849065176"><ele>898.0</ele><time>2026-05-01T12:46:09Z</time></trkpt><trkpt lat="45.94467698131069" lon="13.878733958847754"><ele>898.0</ele><time>2026-05-01T12:46:10Z</time></trkpt><trkpt lat="45.94467073468453" lon="13.878897805822492"><ele>898.0</ele><time>2026-05-01T12:46:11Z</time></trkpt><trkpt lat="45.94464768182321" lon="13.87904478056866"><ele>898.0</ele><time>2026-05-01T12:46:12Z</time></trkpt><trkpt lat="45.944619796810144" lon="13.879171888941078"><ele>898.0</ele><time>2026-05-01T12:46:13Z</time></trkpt><trkpt lat="45.944580723739016" lon="13.87929805143414"><ele>898.0</ele><time>2026-05-01T12:46:14Z</time></trkpt><trkpt lat="45.94452372810653" lon="13.8794229019657"><ele>897.0</ele><time>2026-05-01T12:46:15Z</time></trkpt><trkpt lat="45.94445643601378" lon="13.879547942027049"><ele>896.0</ele><time>2026-05-01T12:46:16Z</time></trkpt><trkpt lat="45.944383029675514" lon="13.879681145962678"><ele>895.0</ele><time>2026-05-01T12:46:17Z</time></trkpt><trkpt lat="45.944308676153504" lon="13.87982587566923"><ele>894.0</ele><time>2026-05-01T12:46:18Z</time></trkpt><trkpt lat="45.94423109486462" lon="13.879978590437688"><ele>895.75</ele><time>2026-05-01T12:46:19Z</time></trkpt><trkpt lat="45.94414972397384" lon="13.880137311930566"><ele>897.5</ele><time>2026-05-01T12:46:20Z</time></trkpt><trkpt lat="45.9440491231684" lon="13.880278757243257"><ele>899.25</ele><time>2026-05-01T12:46:21Z</time></trkpt><trkpt lat="45.94392259601103" lon="13.88037767989195"><ele>901.0</ele><time>2026-05-01T12:46:22Z</time></trkpt><trkpt lat="45.94380842314299" lon="13.880502430085217"><ele>901.0</ele><time>2026-05-01T12:46:23Z</time></trkpt><trkpt lat="45.943682239745996" lon="13.880588720181873"><ele>901.0</ele><time>2026-05-01T12:46:24Z</time></trkpt><trkpt lat="45.943569731265036" lon="13.880657051565638"><ele>901.0</ele><time>2026-05-01T12:46:25Z</time></trkpt><trkpt lat="45.94346023121134" lon="13.88068920727071"><ele>901.0</ele><time>2026-05-01T12:46:26Z</time></trkpt><trkpt lat="45.943373568806145" lon="13.880774291668553"><ele>900.75</ele><time>2026-05-01T12:46:27Z</time></trkpt><trkpt lat="45.943320116460775" lon="13.880919569388467"><ele>900.5</ele><time>2026-05-01T12:46:28Z</time></trkpt><trkpt lat="45.94331704772789" lon="13.881111992779632"><ele>900.25</ele><time>2026-05-01T12:46:29Z</time></trkpt><trkpt lat="45.943303058843654" lon="13.881300919684273"><ele>900.0</ele><time>2026-05-01T12:46:30Z</time></trkpt><trkpt lat="45.94329500830616" lon="13.881500610643299"><ele>901.5</ele><time>2026-05-01T12:46:31Z</time></trkpt><trkpt lat="45.94329507850857" lon="13.881698457007985"><ele>903.0</ele><time>2026-05-01T12:46:32Z</time></trkpt><trkpt lat="45.94331238472905" lon="13.881883692857619"><ele>904.5</ele><time>2026-05-01T12:46:33Z</time></trkpt><trkpt lat="45.94334444123773" lon="13.882058213067173"><ele>906.0</ele><time>2026-05-01T12:46:34Z</time></trkpt><trkpt lat="45.94338620177702" lon="13.882216650974154"><ele>907.25</ele><time>2026-05-01T12:46:35Z</time></trkpt><trkpt lat="45.94343482335085" lon="13.88237052994962"><ele>908.5</ele><time>2026-05-01T12:46:36Z</time></trkpt><trkpt lat="45.9434700807143" lon="13.882533874758066"><ele>909.75</ele><time>2026-05-01T12:46:37Z</time></trkpt><trkpt lat="45.943490294419775" lon="13.88269972109162"><ele>911.0</ele><time>2026-05-01T12:46:38Z</time></trkpt><trkpt lat="45.943434210731404" lon="13.882870007526762"><ele>909.75</ele><time>2026-05-01T12:46:39Z</time></trkpt><trkpt lat="45.94337412179514" lon="13.883039620137579"><ele>908.5</ele><time>2026-05-01T12:46:40Z</time></trkpt><trkpt lat="45.94330963312458" lon="13.88321371374746"><ele>907.25</ele><time>2026-05-01T12:46:41Z</time></trkpt><trkpt lat="45.94326374474311" lon="13.883406473974594"><ele>906.0</ele><time>2026-05-01T12:46:42Z</time></trkpt><trkpt lat="45.94324608398793" lon="13.883622077054909"><ele>906.0</ele><time>2026-05-01T12:46:43Z</time></trkpt><trkpt lat="45.94325095008276" lon="13.883843136628393"><ele>906.0</ele><time>2026-05-01T12:46:44Z</time></trkpt><trkpt lat="45.94325205912805" lon="13.88406289970286"><ele>906.0</ele><time>2026-05-01T12:46:45Z</time></trkpt><trkpt lat="45.94325175279823" lon="13.8842767773678"><ele>905.0</ele><time>2026-05-01T12:46:46Z</time></trkpt><trkpt lat="45.94326806898904" lon="13.884494541872881"><ele>904.0</ele><time>2026-05-01T12:46:47Z</time></trkpt><trkpt lat="45.943298963228095" lon="13.88471319259226"><ele>903.0</ele><time>2026-05-01T12:46:48Z</time></trkpt><trkpt lat="45.94333933767906" lon="13.884927182654879"><ele>903.0</ele><time>2026-05-01T12:46:49Z</time></trkpt><trkpt lat="45.94338315778526" lon="13.885138678587701"><ele>903.0</ele><time>2026-05-01T12:46:50Z</time></trkpt><trkpt lat="45.943438004692645" lon="13.885338073822032"><ele>903.0</ele><time>2026-05-01T12:46:51Z</time></trkpt><trkpt lat="45.943504778099154" lon="13.885519271933212"><ele>903.0</ele><time>2026-05-01T12:46:52Z</time></trkpt><trkpt lat="45.94358105219463" lon="13.885693182731114"><ele>903.0</ele><time>2026-05-01T12:46:53Z</time></trkpt><trkpt lat="45.943657148990354" lon="13.885859669172046"><ele>903.0</ele><time>2026-05-01T12:46:54Z</time></trkpt><trkpt lat="45.943733452982286" lon="13.886017005828112"><ele>903.0</ele><time>2026-05-01T12:46:55Z</time></trkpt><trkpt lat="45.94380909584496" lon="13.88617062157394"><ele>903.0</ele><time>2026-05-01T12:46:56Z</time></trkpt><trkpt lat="45.943879042658914" lon="13.886318428455038"><ele>903.0</ele><time>2026-05-01T12:46:57Z</time></trkpt><trkpt lat="45.94394394571834" lon="13.886458733988276"><ele>903.0</ele><time>2026-05-01T12:46:58Z</time></trkpt><trkpt lat="45.94400451591655" lon="13.886594658214781"><ele>903.0</ele><time>2026-05-01T12:46:59Z</time></trkpt><trkpt lat="45.94405854530795" lon="13.886742787215736"><ele>903.0</ele><time>2026-05-01T12:47:00Z</time></trkpt><trkpt lat="45.94410660428956" lon="13.886899172901428"><ele>902.8</ele><time>2026-05-01T12:47:01Z</time></trkpt><trkpt lat="45.94414675260509" lon="13.887061112097857"><ele>902.5999999999999</ele><time>2026-05-01T12:47:02Z</time></trkpt><trkpt lat="45.94417372993953" lon="13.887219775576614"><ele>902.4000000000001</ele><time>2026-05-01T12:47:03Z</time></trkpt><trkpt lat="45.944200005907554" lon="13.887357517974024"><ele>902.2</ele><time>2026-05-01T12:47:04Z</time></trkpt><trkpt lat="45.9442302611943" lon="13.887493144190936"><ele>902.0</ele><time>2026-05-01T12:47:05Z</time></trkpt><trkpt lat="45.944253112134824" lon="13.887633688288757"><ele>902.5</ele><time>2026-05-01T12:47:06Z</time></trkpt><trkpt lat="45.944256672098014" lon="13.887790199267123"><ele>903.0</ele><time>2026-05-01T12:47:07Z</time></trkpt><trkpt lat="45.94423839993491" lon="13.887957218701853"><ele>903.5</ele><time>2026-05-01T12:47:08Z</time></trkpt><trkpt lat="45.944202329117005" lon="13.888125018863018"><ele>904.0</ele><time>2026-05-01T12:47:09Z</time></trkpt><trkpt lat="45.944156154197124" lon="13.888291918710289"><ele>904.5</ele><time>2026-05-01T12:47:10Z</time></trkpt><trkpt lat="45.94410943673276" lon="13.888469984748939"><ele>905.0</ele><time>2026-05-01T12:47:11Z</time></trkpt><trkpt lat="45.94406881262324" lon="13.888646165822436"><ele>905.5</ele><time>2026-05-01T12:47:12Z</time></trkpt><trkpt lat="45.94403378910173" lon="13.888829019603657"><ele>906.0</ele><time>2026-05-01T12:47:13Z</time></trkpt><trkpt lat="45.94399548424876" lon="13.889017468248147"><ele>906.0</ele><time>2026-05-01T12:47:14Z</time></trkpt><trkpt lat="45.943935408558694" lon="13.889192352284406"><ele>906.0</ele><time>2026-05-01T12:47:15Z</time></trkpt><trkpt lat="45.94384788752487" lon="13.88935106933587"><ele>906.0</ele><time>2026-05-01T12:47:16Z</time></trkpt><trkpt lat="45.94373842381829" lon="13.889480561744907"><ele>906.0</ele><time>2026-05-01T12:47:17Z</time></trkpt><trkpt lat="45.94362196447219" lon="13.889591545164494"><ele>906.75</ele><time>2026-05-01T12:47:18Z</time></trkpt><trkpt lat="45.94350500335997" lon="13.88969771616293"><ele>907.5</ele><time>2026-05-01T12:47:19Z</time></trkpt><trkpt lat="45.94338248732383" lon="13.889794563344983"><ele>908.25</ele><time>2026-05-01T12:47:20Z</time></trkpt><trkpt lat="45.94326278996422" lon="13.889892018646773"><ele>909.0</ele><time>2026-05-01T12:47:21Z</time></trkpt><trkpt lat="45.943134585060356" lon="13.890003165641097"><ele>907.5</ele><time>2026-05-01T12:47:22Z</time></trkpt><trkpt lat="45.94301399312406" lon="13.890102637391436"><ele>906.0</ele><time>2026-05-01T12:47:23Z</time></trkpt><trkpt lat="45.942894805884" lon="13.890198372980711"><ele>904.5</ele><time>2026-05-01T12:47:24Z</time></trkpt><trkpt lat="45.942779961057646" lon="13.890290649700779"><ele>903.0</ele><time>2026-05-01T12:47:25Z</time></trkpt><trkpt lat="45.94267327070521" lon="13.890378410985623"><ele>903.0</ele><time>2026-05-01T12:47:26Z</time></trkpt><trkpt lat="45.942576939573925" lon="13.890463119055903"><ele>903.0</ele><time>2026-05-01T12:47:27Z</time></trkpt><trkpt lat="45.942492625243474" lon="13.890530764274486"><ele>903.0</ele><time>2026-05-01T12:47:28Z</time></trkpt><trkpt lat="45.9424184531894" lon="13.89057228480155"><ele>903.0</ele><time>2026-05-01T12:47:29Z</time></trkpt><trkpt lat="45.94235170917404" lon="13.890615385640954"><ele>903.0</ele><time>2026-05-01T12:47:30Z</time></trkpt><trkpt lat="45.94227291129426" lon="13.890642410995703"><ele>903.0</ele><time>2026-05-01T12:47:32Z</time></trkpt><trkpt lat="45.94221408881762" lon="13.890702675523992"><ele>900.4</ele><time>2026-05-01T12:47:34Z</time></trkpt><trkpt lat="45.942155379778264" lon="13.890853610272949"><ele>897.8</ele><time>2026-05-01T12:47:36Z</time></trkpt><trkpt lat="45.94209746692256" lon="13.890979592881157"><ele>895.2</ele><time>2026-05-01T12:47:38Z</time></trkpt><trkpt lat="45.942062256207485" lon="13.891072030060513"><ele>892.6</ele><time>2026-05-01T12:47:39Z</time></trkpt><trkpt lat="45.94203132519269" lon="13.891181165687986"><ele>890.0</ele><time>2026-05-01T12:47:40Z</time></trkpt><trkpt lat="45.942004236802916" lon="13.891297661436456"><ele>890.0000000000001</ele><time>2026-05-01T12:47:41Z</time></trkpt><trkpt lat="45.9419774527417" lon="13.891421662492514"><ele>890.0</ele><time>2026-05-01T12:47:42.001Z</time></trkpt><trkpt lat="45.94195496160234" lon="13.89153461180794"><ele>890.0</ele><time>2026-05-01T12:47:43.001Z</time></trkpt><trkpt lat="45.941931762961524" lon="13.891644294366163"><ele>890.0</ele><time>2026-05-01T12:47:44.001Z</time></trkpt><trkpt lat="45.94190935869615" lon="13.89176129577725"><ele>890.0000000000001</ele><time>2026-05-01T12:47:45.001Z</time></trkpt><trkpt lat="45.94188765795248" lon="13.891890870368316"><ele>890.0</ele><time>2026-05-01T12:47:46.001Z</time></trkpt><trkpt lat="45.94186518553586" lon="13.892044613783941"><ele>890.25</ele><time>2026-05-01T12:47:47.001Z</time></trkpt><trkpt lat="45.941834513853294" lon="13.892224890124128"><ele>890.5</ele><time>2026-05-01T12:47:48.001Z</time></trkpt><trkpt lat="45.94185024534599" lon="13.892425770426357"><ele>890.75</ele><time>2026-05-01T12:47:49.001Z</time></trkpt><trkpt lat="45.94185700211951" lon="13.892632203968288"><ele>891.0</ele><time>2026-05-01T12:47:50.001Z</time></trkpt><trkpt lat="45.94186791975341" lon="13.892846910988359"><ele>891.0</ele><time>2026-05-01T12:47:51.001Z</time></trkpt><trkpt lat="45.94187178993085" lon="13.89307083496584"><ele>891.0</ele><time>2026-05-01T12:47:52.001Z</time></trkpt><trkpt lat="45.94186685300825" lon="13.893295649405916"><ele>891.0</ele><time>2026-05-01T12:47:53.001Z</time></trkpt><trkpt lat="45.94185189833659" lon="13.893512614658214"><ele>891.75</ele><time>2026-05-01T12:47:54.001Z</time></trkpt><trkpt lat="45.941824511732115" lon="13.893716575800282"><ele>892.5</ele><time>2026-05-01T12:47:55.001Z</time></trkpt><trkpt lat="45.94176587334509" lon="13.893896388304851"><ele>893.25</ele><time>2026-05-01T12:47:56.001Z</time></trkpt><trkpt lat="45.941682536068015" lon="13.894070665011071"><ele>894.0</ele><time>2026-05-01T12:47:57.001Z</time></trkpt><trkpt lat="45.941588855128465" lon="13.894240762527062"><ele>892.75</ele><time>2026-05-01T12:47:58.001Z</time></trkpt><trkpt lat="45.94150675791153" lon="13.894414481437229"><ele>891.5</ele><time>2026-05-01T12:47:59.001Z</time></trkpt><trkpt lat="45.941439989716436" lon="13.894576981678554"><ele>890.25</ele><time>2026-05-01T12:48:00Z</time></trkpt><trkpt lat="45.94138846905072" lon="13.894732520353903"><ele>889.0</ele><time>2026-05-01T12:48:01Z</time></trkpt><trkpt lat="45.94137355394735" lon="13.894880986582614"><ele>889.0</ele><time>2026-05-01T12:48:02Z</time></trkpt><trkpt lat="45.941363176853464" lon="13.895015220338134"><ele>889.0000000000001</ele><time>2026-05-01T12:48:03Z</time></trkpt><trkpt lat="45.941335686496075" lon="13.895148390672277"><ele>889.0000000000001</ele><time>2026-05-01T12:48:04Z</time></trkpt><trkpt lat="45.94129777668593" lon="13.895288608106798"><ele>889.0</ele><time>2026-05-01T12:48:05Z</time></trkpt><trkpt lat="45.94122695823262" lon="13.895419061089223"><ele>889.0</ele><time>2026-05-01T12:48:06Z</time></trkpt><trkpt lat="45.94113712790271" lon="13.895522017558509"><ele>889.2</ele><time>2026-05-01T12:48:07Z</time></trkpt><trkpt lat="45.94105162114104" lon="13.895608416350317"><ele>889.4000000000001</ele><time>2026-05-01T12:48:08Z</time></trkpt><trkpt lat="45.94097710254756" lon="13.895693759864814"><ele>889.6</ele><time>2026-05-01T12:48:09Z</time></trkpt><trkpt lat="45.940911122971" lon="13.895782956869331"><ele>889.8</ele><time>2026-05-01T12:48:10Z</time></trkpt><trkpt lat="45.94084802953751" lon="13.89589364996023"><ele>890.0</ele><time>2026-05-01T12:48:11Z</time></trkpt><trkpt lat="45.94078566351131" lon="13.896011583481949"><ele>891.2</ele><time>2026-05-01T12:48:12Z</time></trkpt><trkpt lat="45.94072316577859" lon="13.896133781890146"><ele>892.4</ele><time>2026-05-01T12:48:13Z</time></trkpt><trkpt lat="45.94068346976783" lon="13.896276955110011"><ele>893.5999999999999</ele><time>2026-05-01T12:48:14Z</time></trkpt><trkpt lat="45.94066259295718" lon="13.896436549731495"><ele>894.8</ele><time>2026-05-01T12:48:15Z</time></trkpt><trkpt lat="45.94064616104808" lon="13.89660706510178"><ele>896.0</ele><time>2026-05-01T12:48:16Z</time></trkpt><trkpt lat="45.940623843627826" lon="13.896785743000084"><ele>898.25</ele><time>2026-05-01T12:48:17Z</time></trkpt><trkpt lat="45.940581913654064" lon="13.896969370206774"><ele>900.5</ele><time>2026-05-01T12:48:18Z</time></trkpt><trkpt lat="45.94050059160134" lon="13.89713667998178"><ele>902.75</ele><time>2026-05-01T12:48:19Z</time></trkpt><trkpt lat="45.940406446538255" lon="13.897314107567126"><ele>905.0</ele><time>2026-05-01T12:48:20Z</time></trkpt><trkpt lat="45.94032313317983" lon="13.897508102025313"><ele>905.0</ele><time>2026-05-01T12:48:21Z</time></trkpt><trkpt lat="45.940220464303145" lon="13.897683710812576"><ele>905.0</ele><time>2026-05-01T12:48:22Z</time></trkpt><trkpt lat="45.94009731309611" lon="13.897841749750807"><ele>905.0</ele><time>2026-05-01T12:48:23Z</time></trkpt><trkpt lat="45.93996155896628" lon="13.897988174510026"><ele>903.0</ele><time>2026-05-01T12:48:24Z</time></trkpt><trkpt lat="45.939822944357886" lon="13.898104210059326"><ele>901.0</ele><time>2026-05-01T12:48:25Z</time></trkpt><trkpt lat="45.93969377056856" lon="13.898184510432367"><ele>899.0</ele><time>2026-05-01T12:48:26Z</time></trkpt><trkpt lat="45.93959444456504" lon="13.8982255552216"><ele>897.0</ele><time>2026-05-01T12:48:27Z</time></trkpt><trkpt lat="45.939508896523726" lon="13.898301505353649"><ele>897.0</ele><time>2026-05-01T12:48:29Z</time></trkpt><trkpt lat="45.93942808162126" lon="13.898354031271397"><ele>897.0</ele><time>2026-05-01T12:58:54Z</time></trkpt><trkpt lat="45.93935750929072" lon="13.898495015126334"><ele>897.0</ele><time>2026-05-01T12:58:56Z</time></trkpt><trkpt lat="45.939314766348474" lon="13.898580636501759"><ele>897.0</ele><time>2026-05-01T12:58:57Z</time></trkpt><trkpt lat="45.939259248510155" lon="13.898663311428749"><ele>897.0</ele><time>2026-05-01T12:58:58Z</time></trkpt><trkpt lat="45.93920145373203" lon="13.898747031875585"><ele>897.0</ele><time>2026-05-01T12:58:59Z</time></trkpt><trkpt lat="45.93914717807615" lon="13.89883063058676"><ele>897.6666666666666</ele><time>2026-05-01T12:59:00Z</time></trkpt><trkpt lat="45.93909195903685" lon="13.89890955603761"><ele>898.3333333333333</ele><time>2026-05-01T12:59:01Z</time></trkpt><trkpt lat="45.93903311313009" lon="13.898977453549408"><ele>899.0</ele><time>2026-05-01T12:59:02Z</time></trkpt><trkpt lat="45.93896842153067" lon="13.89905543125166"><ele>899.6666666666666</ele><time>2026-05-01T12:59:03Z</time></trkpt><trkpt lat="45.93890099312698" lon="13.899134801368259"><ele>900.3333333333333</ele><time>2026-05-01T12:59:04Z</time></trkpt><trkpt lat="45.93882360537949" lon="13.899199008473646"><ele>901.0</ele><time>2026-05-01T12:59:05Z</time></trkpt><trkpt lat="45.93872141537209" lon="13.899246350342931"><ele>901.5</ele><time>2026-05-01T12:59:06Z</time></trkpt><trkpt lat="45.93861055258892" lon="13.899262090450282"><ele>902.0</ele><time>2026-05-01T12:59:07Z</time></trkpt><trkpt lat="45.93850560854326" lon="13.899288730066454"><ele>902.5</ele><time>2026-05-01T12:59:08Z</time></trkpt><trkpt lat="45.93840181923864" lon="13.89936375147502"><ele>903.0</ele><time>2026-05-01T12:59:09Z</time></trkpt><trkpt lat="45.93830717389933" lon="13.899481401721788"><ele>901.25</ele><time>2026-05-01T12:59:10Z</time></trkpt><trkpt lat="45.93826120159777" lon="13.89965211032439"><ele>899.5</ele><time>2026-05-01T12:59:11Z</time></trkpt><trkpt lat="45.93822672433047" lon="13.899827747479359"><ele>897.75</ele><time>2026-05-01T12:59:12Z</time></trkpt><trkpt lat="45.93819690615588" lon="13.900007337178444"><ele>896.0</ele><time>2026-05-01T12:59:13Z</time></trkpt><trkpt lat="45.93816534547662" lon="13.900178975120836"><ele>896.0</ele><time>2026-05-01T12:59:14Z</time></trkpt><trkpt lat="45.93813161284787" lon="13.900345904533753"><ele>896.0</ele><time>2026-05-01T12:59:15Z</time></trkpt><trkpt lat="45.93808515924903" lon="13.900505537401695"><ele>896.0</ele><time>2026-05-01T12:59:16Z</time></trkpt><trkpt lat="45.93801027347479" lon="13.90065288035032"><ele>896.0</ele><time>2026-05-01T12:59:17Z</time></trkpt><trkpt lat="45.937919557491846" lon="13.900779589540644"><ele>896.0</ele><time>2026-05-01T12:59:18Z</time></trkpt><trkpt lat="45.93781835784295" lon="13.900872654011568"><ele>896.0</ele><time>2026-05-01T12:59:19Z</time></trkpt><trkpt lat="45.9377006047174" lon="13.900916774118645"><ele>896.0</ele><time>2026-05-01T12:59:20Z</time></trkpt><trkpt lat="45.937574210437546" lon="13.900924813567515"><ele>896.0</ele><time>2026-05-01T12:59:21Z</time></trkpt><trkpt lat="45.937452201184854" lon="13.900936595852981"><ele>896.5</ele><time>2026-05-01T12:59:22Z</time></trkpt><trkpt lat="45.93733916020001" lon="13.900956342798937"><ele>897.0</ele><time>2026-05-01T12:59:23Z</time></trkpt><trkpt lat="45.93725018842609" lon="13.901062213878992"><ele>897.5</ele><time>2026-05-01T12:59:24Z</time></trkpt><trkpt lat="45.93716824355578" lon="13.901167863308697"><ele>898.0</ele><time>2026-05-01T12:59:25Z</time></trkpt><trkpt lat="45.93707615239158" lon="13.901267722068278"><ele>898.0</ele><time>2026-05-01T12:59:26Z</time></trkpt><trkpt lat="45.93702012308151" lon="13.901426807536382"><ele>898.0</ele><time>2026-05-01T12:59:27Z</time></trkpt><trkpt lat="45.93694837683498" lon="13.901582069016312"><ele>898.0</ele><time>2026-05-01T12:59:28Z</time></trkpt><trkpt lat="45.936844619179034" lon="13.901685789156174"><ele>898.0</ele><time>2026-05-01T12:59:29Z</time></trkpt><trkpt lat="45.936746366460405" lon="13.901784257629378"><ele>897.0</ele><time>2026-05-01T12:59:30Z</time></trkpt><trkpt lat="45.936644103431036" lon="13.901855741561103"><ele>896.0</ele><time>2026-05-01T12:59:31Z</time></trkpt><trkpt lat="45.93654633893735" lon="13.901905610552786"><ele>895.0</ele><time>2026-05-01T12:59:32Z</time></trkpt><trkpt lat="45.93647528026608" lon="13.902019999478266"><ele>894.0</ele><time>2026-05-01T12:59:33Z</time></trkpt><trkpt lat="45.93640557248227" lon="13.902148671458345"><ele>893.0</ele><time>2026-05-01T12:59:34Z</time></trkpt><trkpt lat="45.9363480816898" lon="13.90229535507986"><ele>893.0</ele><time>2026-05-01T12:59:35Z</time></trkpt><trkpt lat="45.93629901958693" lon="13.90244849989459"><ele>893.0</ele><time>2026-05-01T12:59:36Z</time></trkpt><trkpt lat="45.93626608023934" lon="13.90261280928426"><ele>893.0</ele><time>2026-05-01T12:59:37Z</time></trkpt><trkpt lat="45.936266490431" lon="13.902778931101068"><ele>893.0</ele><time>2026-05-01T12:59:38Z</time></trkpt><trkpt lat="45.93630408217028" lon="13.902928776260401"><ele>892.8333333333334</ele><time>2026-05-01T12:59:39Z</time></trkpt><trkpt lat="45.93633637134965" lon="13.903060788371873"><ele>892.6666666666667</ele><time>2026-05-01T12:59:40Z</time></trkpt><trkpt lat="45.93633956915341" lon="13.90317365054579"><ele>892.5</ele><time>2026-05-01T12:59:41Z</time></trkpt><trkpt lat="45.936302781515224" lon="13.903266468865008"><ele>892.3333333333333</ele><time>2026-05-01T12:59:42Z</time></trkpt><trkpt lat="45.93623933793911" lon="13.903310907368823"><ele>892.1666666666666</ele><time>2026-05-01T12:59:43Z</time></trkpt><trkpt lat="45.93616012732021" lon="13.903277923782907"><ele>892.0</ele><time>2026-05-01T12:59:44Z</time></trkpt><trkpt lat="45.9361210182983" lon="13.903139929822247"><ele>892.0</ele><time>2026-05-01T12:59:45Z</time></trkpt><trkpt lat="45.93604160140164" lon="13.903048194651078"><ele>892.0</ele><time>2026-05-01T12:59:46Z</time></trkpt><trkpt lat="45.93597281716491" lon="13.902948273743428"><ele>892.0</ele><time>2026-05-01T12:59:47Z</time></trkpt><trkpt lat="45.9359122023381" lon="13.902878638046468"><ele>892.0</ele><time>2026-05-01T12:59:48Z</time></trkpt><trkpt lat="45.935792653249536" lon="13.902929311369721"><ele>892.0</ele><time>2026-05-01T12:59:50Z</time></trkpt><trkpt lat="45.93581174959444" lon="13.903079741018123"><ele>892.0</ele><time>2026-05-01T12:59:51Z</time></trkpt><trkpt lat="45.93587637697663" lon="13.903207476745548"><ele>892.0</ele><time>2026-05-01T12:59:52Z</time></trkpt><trkpt lat="45.93589693924592" lon="13.903351643664527"><ele>892.0</ele><time>2026-05-01T12:59:53Z</time></trkpt><trkpt lat="45.9359204889817" lon="13.903501027393935"><ele>892.0</ele><time>2026-05-01T12:59:54Z</time></trkpt><trkpt lat="45.93582531247742" lon="13.903618656044769"><ele>892.0</ele><time>2026-05-01T12:59:55Z</time></trkpt><trkpt lat="45.93571664793788" lon="13.90369457949946"><ele>890.0</ele><time>2026-05-01T12:59:56Z</time></trkpt><trkpt lat="45.93557836204486" lon="13.903744237436449"><ele>888.0</ele><time>2026-05-01T12:59:57Z</time></trkpt><trkpt lat="45.935434464378794" lon="13.903733975565311"><ele>886.0</ele><time>2026-05-01T12:59:58Z</time></trkpt><trkpt lat="45.93528635112958" lon="13.903723282917834"><ele>884.0</ele><time>2026-05-01T12:59:59Z</time></trkpt><trkpt lat="45.935140752499066" lon="13.903688316051372"><ele>880.5</ele><time>2026-05-01T13:00:00Z</time></trkpt><trkpt lat="45.93499594666245" lon="13.903693928811704"><ele>877.0</ele><time>2026-05-01T13:00:01Z</time></trkpt><trkpt lat="45.93485448924486" lon="13.903731774567158"><ele>873.5</ele><time>2026-05-01T13:00:02Z</time></trkpt><trkpt lat="45.93471763073898" lon="13.90378899687776"><ele>870.0</ele><time>2026-05-01T13:00:03Z</time></trkpt><trkpt lat="45.93458896061706" lon="13.90386395980853"><ele>870.0</ele><time>2026-05-01T13:00:04Z</time></trkpt><trkpt lat="45.934471531978" lon="13.90395565453197"><ele>870.0</ele><time>2026-05-01T13:00:05Z</time></trkpt><trkpt lat="45.93436050565527" lon="13.904056589895456"><ele>870.0</ele><time>2026-05-01T13:00:06Z</time></trkpt><trkpt lat="45.93425000808224" lon="13.904149503276066"><ele>870.0</ele><time>2026-05-01T13:00:07Z</time></trkpt><trkpt lat="45.93414361779667" lon="13.904218510409017"><ele>865.5</ele><time>2026-05-01T13:00:08Z</time></trkpt><trkpt lat="45.934042376393506" lon="13.904275912716338"><ele>861.0</ele><time>2026-05-01T13:00:09Z</time></trkpt><trkpt lat="45.93394174524825" lon="13.904334534549273"><ele>856.5</ele><time>2026-05-01T13:00:10Z</time></trkpt><trkpt lat="45.93384701508393" lon="13.904394185472912"><ele>852.0</ele><time>2026-05-01T13:00:11Z</time></trkpt><trkpt lat="45.933631188059685" lon="13.904604012084013"><ele>852.0</ele><time>2026-05-01T13:00:11.999Z</time></trkpt><trkpt lat="45.93349819708043" lon="13.904723548662796"><ele>852.0</ele><time>2026-05-01T13:00:12.999Z</time></trkpt><trkpt lat="45.93335696064953" lon="13.904841660731561"><ele>852.0</ele><time>2026-05-01T13:00:13.999Z</time></trkpt><trkpt lat="45.93321818094682" lon="13.904950866696565"><ele>850.6666666666667</ele><time>2026-05-01T13:00:14.999Z</time></trkpt><trkpt lat="45.933068954077854" lon="13.905001153029959"><ele>849.3333333333334</ele><time>2026-05-01T13:00:15.999Z</time></trkpt><trkpt lat="45.93292265533692" lon="13.905042721998132"><ele>848.0</ele><time>2026-05-01T13:00:17Z</time></trkpt><trkpt lat="45.93276722204989" lon="13.905099527572768"><ele>848.0</ele><time>2026-05-01T13:00:18Z</time></trkpt><trkpt lat="45.93260945939151" lon="13.905127136210703"><ele>848.0</ele><time>2026-05-01T13:00:19Z</time></trkpt><trkpt lat="45.93247440054898" lon="13.905188562173542"><ele>848.0</ele><time>2026-05-01T13:00:20Z</time></trkpt><trkpt lat="45.9323618145667" lon="13.905297440474618"><ele>848.0</ele><time>2026-05-01T13:00:21Z</time></trkpt><trkpt lat="45.93223128155277" lon="13.905386352418702"><ele>847.5</ele><time>2026-05-01T13:00:22Z</time></trkpt><trkpt lat="45.93210169661567" lon="13.905344423968003"><ele>847.0</ele><time>2026-05-01T13:00:23Z</time></trkpt><trkpt lat="45.93200334095619" lon="13.905247969130437"><ele>846.5</ele><time>2026-05-01T13:00:24Z</time></trkpt><trkpt lat="45.93190346218842" lon="13.905142921247885"><ele>846.0</ele><time>2026-05-01T13:00:25Z</time></trkpt><trkpt lat="45.93180305553598" lon="13.904983751591379"><ele>843.25</ele><time>2026-05-01T13:00:26Z</time></trkpt><trkpt lat="45.931705332015156" lon="13.904837550667278"><ele>840.5</ele><time>2026-05-01T13:00:27Z</time></trkpt><trkpt lat="45.93159747912309" lon="13.904741925029425"><ele>837.75</ele><time>2026-05-01T13:00:28Z</time></trkpt><trkpt lat="45.931464031683795" lon="13.904684450281062"><ele>835.0</ele><time>2026-05-01T13:00:29Z</time></trkpt><trkpt lat="45.931313505639416" lon="13.90471463276325"><ele>835.0</ele><time>2026-05-01T13:00:30Z</time></trkpt><trkpt lat="45.931184434407726" lon="13.90482825770315"><ele>835.0</ele><time>2026-05-01T13:00:31Z</time></trkpt><trkpt lat="45.931069182226636" lon="13.905017645473002"><ele>835.0</ele><time>2026-05-01T13:00:32Z</time></trkpt><trkpt lat="45.93095211153269" lon="13.9052314379003"><ele>839.6666666666666</ele><time>2026-05-01T13:00:33Z</time></trkpt><trkpt lat="45.93078551788175" lon="13.905331088908476"><ele>844.3333333333333</ele><time>2026-05-01T13:00:34Z</time></trkpt><trkpt lat="45.93066371549338" lon="13.905455430442013"><ele>849.0</ele><time>2026-05-01T13:00:35Z</time></trkpt><trkpt lat="45.930533242534054" lon="13.905520220052367"><ele>849.0</ele><time>2026-05-01T13:00:36Z</time></trkpt><trkpt lat="45.93040077945152" lon="13.905542335475985"><ele>849.0</ele><time>2026-05-01T13:00:37Z</time></trkpt><trkpt lat="45.93026473738709" lon="13.905508414280664"><ele>849.0</ele><time>2026-05-01T13:00:38Z</time></trkpt><trkpt lat="45.930142089252314" lon="13.905419721530727"><ele>849.0</ele><time>2026-05-01T13:00:39Z</time></trkpt><trkpt lat="45.93001973312353" lon="13.905350901920748"><ele>848.5</ele><time>2026-05-01T13:00:40Z</time></trkpt><trkpt lat="45.929908424004715" lon="13.905268688574585"><ele>848.0</ele><time>2026-05-01T13:00:41Z</time></trkpt><trkpt lat="45.92978488334128" lon="13.90523712503553"><ele>847.5</ele><time>2026-05-01T13:00:42Z</time></trkpt><trkpt lat="45.92964517145687" lon="13.905251193650713"><ele>847.0</ele><time>2026-05-01T13:00:43Z</time></trkpt><trkpt lat="45.92950735835463" lon="13.905336674739695"><ele>847.0</ele><time>2026-05-01T13:00:44Z</time></trkpt><trkpt lat="45.929380731675685" lon="13.905464431582853"><ele>847.0</ele><time>2026-05-01T13:00:45Z</time></trkpt><trkpt lat="45.92925794524066" lon="13.905598439748857"><ele>847.0</ele><time>2026-05-01T13:00:46Z</time></trkpt><trkpt lat="45.92912632677067" lon="13.905695811682799"><ele>848.0</ele><time>2026-05-01T13:00:47Z</time></trkpt><trkpt lat="45.92903135517881" lon="13.905853080047049"><ele>849.0</ele><time>2026-05-01T13:00:48Z</time></trkpt><trkpt lat="45.92893385562687" lon="13.90597396926574"><ele>850.0</ele><time>2026-05-01T13:00:49Z</time></trkpt><trkpt lat="45.92884074269522" lon="13.906095614756328"><ele>851.0</ele><time>2026-05-01T13:00:50Z</time></trkpt><trkpt lat="45.92876435582282" lon="13.906236691735199"><ele>851.0</ele><time>2026-05-01T13:00:51Z</time></trkpt><trkpt lat="45.9286929752869" lon="13.90638684587007"><ele>851.0</ele><time>2026-05-01T13:00:52Z</time></trkpt><trkpt lat="45.928647005465436" lon="13.906575114833135"><ele>851.0</ele><time>2026-05-01T13:00:53Z</time></trkpt><trkpt lat="45.928609382758864" lon="13.90677773217465"><ele>851.0</ele><time>2026-05-01T13:00:54Z</time></trkpt><trkpt lat="45.928583409884155" lon="13.906982326583764"><ele>851.25</ele><time>2026-05-01T13:00:55Z</time></trkpt><trkpt lat="45.92856841844982" lon="13.907191121614568"><ele>851.5</ele><time>2026-05-01T13:00:56Z</time></trkpt><trkpt lat="45.92855988810429" lon="13.907403519805442"><ele>851.75</ele><time>2026-05-01T13:00:57Z</time></trkpt><trkpt lat="45.92851904911894" lon="13.907603710190905"><ele>852.0</ele><time>2026-05-01T13:00:58Z</time></trkpt><trkpt lat="45.92846217456888" lon="13.907799489164567"><ele>845.75</ele><time>2026-05-01T13:00:59Z</time></trkpt><trkpt lat="45.92838655310773" lon="13.907984854848767"><ele>839.5</ele><time>2026-05-01T13:01:00Z</time></trkpt><trkpt lat="45.92832787248757" lon="13.908177806129505"><ele>833.25</ele><time>2026-05-01T13:01:01Z</time></trkpt><trkpt lat="45.92825208839769" lon="13.908353884162807"><ele>827.0</ele><time>2026-05-01T13:01:02Z</time></trkpt><trkpt lat="45.92819542310726" lon="13.908539609961997"><ele>826.0</ele><time>2026-05-01T13:01:03Z</time></trkpt><trkpt lat="45.92815994928792" lon="13.908730676104843"><ele>825.0</ele><time>2026-05-01T13:01:04Z</time></trkpt><trkpt lat="45.92814584903026" lon="13.908925134901342"><ele>824.0</ele><time>2026-05-01T13:01:05Z</time></trkpt><trkpt lat="45.92816582910248" lon="13.909114708001535"><ele>823.0</ele><time>2026-05-01T13:01:06Z</time></trkpt><trkpt lat="45.928187642222575" lon="13.909300796140224"><ele>822.4</ele><time>2026-05-01T13:01:07Z</time></trkpt><trkpt lat="45.928139980939704" lon="13.909461718882435"><ele>821.8</ele><time>2026-05-01T13:01:08Z</time></trkpt><trkpt lat="45.928048893542574" lon="13.90955284910451"><ele>821.2</ele><time>2026-05-01T13:01:09Z</time></trkpt><trkpt lat="45.92798039728217" lon="13.90961249372256"><ele>820.6</ele><time>2026-05-01T13:01:10Z</time></trkpt><trkpt lat="45.92791884069509" lon="13.909687151949113"><ele>820.0</ele><time>2026-05-01T13:01:11Z</time></trkpt><trkpt lat="45.927853076829116" lon="13.909731036769955"><ele>820.0</ele><time>2026-05-01T13:01:12Z</time></trkpt><trkpt lat="45.9278000093343" lon="13.909814049164243"><ele>820.0</ele><time>2026-05-01T13:01:13Z</time></trkpt><trkpt lat="45.92774867358226" lon="13.909920865891864"><ele>820.0</ele><time>2026-05-01T13:01:14Z</time></trkpt><trkpt lat="45.92769984275893" lon="13.91005147870437"><ele>820.0</ele><time>2026-05-01T13:01:15Z</time></trkpt><trkpt lat="45.92766968465709" lon="13.910193350516625"><ele>820.0</ele><time>2026-05-01T13:01:16Z</time></trkpt><trkpt lat="45.927628816092856" lon="13.910334721627631"><ele>819.75</ele><time>2026-05-01T13:01:17Z</time></trkpt><trkpt lat="45.92758508001038" lon="13.910483899761237"><ele>819.5</ele><time>2026-05-01T13:01:18Z</time></trkpt><trkpt lat="45.927538312288746" lon="13.910636468422434"><ele>819.25</ele><time>2026-05-01T13:01:19Z</time></trkpt><trkpt lat="45.92746360193576" lon="13.910781146276051"><ele>819.0</ele><time>2026-05-01T13:01:20Z</time></trkpt><trkpt lat="45.92739367444427" lon="13.910930190541519"><ele>818.75</ele><time>2026-05-01T13:01:21Z</time></trkpt><trkpt lat="45.92732892831127" lon="13.91108716061247"><ele>818.5</ele><time>2026-05-01T13:01:22Z</time></trkpt><trkpt lat="45.92725642422747" lon="13.911223441537896"><ele>818.25</ele><time>2026-05-01T13:01:23Z</time></trkpt><trkpt lat="45.92718535148716" lon="13.911355835042013"><ele>818.0</ele><time>2026-05-01T13:01:24Z</time></trkpt><trkpt lat="45.927115487156534" lon="13.9114849158265"><ele>818.0</ele><time>2026-05-01T13:01:25Z</time></trkpt><trkpt lat="45.92704686049931" lon="13.91162307248593"><ele>818.0</ele><time>2026-05-01T13:01:26Z</time></trkpt><trkpt lat="45.9269833248439" lon="13.91178161909812"><ele>818.0</ele><time>2026-05-01T13:01:27Z</time></trkpt><trkpt lat="45.92692701747188" lon="13.911960393490627"><ele>818.0</ele><time>2026-05-01T13:01:28Z</time></trkpt><trkpt lat="45.926876716953615" lon="13.912154050037556"><ele>818.75</ele><time>2026-05-01T13:01:29Z</time></trkpt><trkpt lat="45.926818456308595" lon="13.912353020423062"><ele>819.5</ele><time>2026-05-01T13:01:30Z</time></trkpt><trkpt lat="45.926787371952365" lon="13.912562083762493"><ele>820.25</ele><time>2026-05-01T13:01:31Z</time></trkpt><trkpt lat="45.92669527956285" lon="13.9127230374506"><ele>821.0</ele><time>2026-05-01T13:01:32Z</time></trkpt><trkpt lat="45.92654935534098" lon="13.912847328228505"><ele>822.0</ele><time>2026-05-01T13:01:33Z</time></trkpt><trkpt lat="45.92638622383693" lon="13.912969376279403"><ele>823.0</ele><time>2026-05-01T13:01:34Z</time></trkpt><trkpt lat="45.92623081554487" lon="13.913103642149583"><ele>824.0</ele><time>2026-05-01T13:01:35Z</time></trkpt><trkpt lat="45.92608308844361" lon="13.913193738583876"><ele>824.0</ele><time>2026-05-01T13:01:36Z</time></trkpt><trkpt lat="45.925958135104906" lon="13.913276658786247"><ele>824.0</ele><time>2026-05-01T13:01:37Z</time></trkpt><trkpt lat="45.92583737990064" lon="13.91336502103778"><ele>824.0</ele><time>2026-05-01T13:01:38Z</time></trkpt><trkpt lat="45.92572147886324" lon="13.913472971414683"><ele>824.0</ele><time>2026-05-01T13:01:39Z</time></trkpt><trkpt lat="45.92561337605168" lon="13.913611248359121"><ele>825.5</ele><time>2026-05-01T13:01:40Z</time></trkpt><trkpt lat="45.925521005877194" lon="13.913771121774497"><ele>827.0</ele><time>2026-05-01T13:01:41Z</time></trkpt><trkpt lat="45.92543861529724" lon="13.913939459212145"><ele>828.5</ele><time>2026-05-01T13:01:42Z</time></trkpt><trkpt lat="45.925374919089265" lon="13.914113765172836"><ele>830.0</ele><time>2026-05-01T13:01:43Z</time></trkpt><trkpt lat="45.92534476800871" lon="13.914290886793117"><ele>830.5</ele><time>2026-05-01T13:01:44Z</time></trkpt><trkpt lat="45.925359693174926" lon="13.914465391126706"><ele>831.0</ele><time>2026-05-01T13:01:45Z</time></trkpt><trkpt lat="45.92540603877311" lon="13.914637393455676"><ele>831.5</ele><time>2026-05-01T13:01:46Z</time></trkpt><trkpt lat="45.925456363268445" lon="13.914809561468282"><ele>832.0</ele><time>2026-05-01T13:01:47Z</time></trkpt><trkpt lat="45.92545507635613" lon="13.914997796078433"><ele>832.25</ele><time>2026-05-01T13:01:48Z</time></trkpt><trkpt lat="45.92537568669932" lon="13.915159915901318"><ele>832.5</ele><time>2026-05-01T13:01:49Z</time></trkpt><trkpt lat="45.925256049819616" lon="13.91527577240352"><ele>832.75</ele><time>2026-05-01T13:01:50Z</time></trkpt><trkpt lat="45.92512457625909" lon="13.91542271727327"><ele>833.0</ele><time>2026-05-01T13:01:51Z</time></trkpt><trkpt lat="45.92498287232967" lon="13.915539719005421"><ele>833.0</ele><time>2026-05-01T13:01:52Z</time></trkpt><trkpt lat="45.924871954981754" lon="13.915668454380866"><ele>833.0</ele><time>2026-05-01T13:01:53Z</time></trkpt><trkpt lat="45.924763596253875" lon="13.915789883016725"><ele>833.0</ele><time>2026-05-01T13:01:54Z</time></trkpt><trkpt lat="45.92465402255469" lon="13.915911463031337"><ele>833.0</ele><time>2026-05-01T13:01:54.999Z</time></trkpt><trkpt lat="45.924542260445854" lon="13.916041223718445"><ele>834.25</ele><time>2026-05-01T13:01:55.999Z</time></trkpt><trkpt lat="45.92442678993313" lon="13.916167473924627"><ele>835.5</ele><time>2026-05-01T13:01:56.999Z</time></trkpt><trkpt lat="45.92430835014213" lon="13.916292079142426"><ele>836.75</ele><time>2026-05-01T13:01:57.999Z</time></trkpt><trkpt lat="45.924189155841866" lon="13.916416608992268"><ele>838.0</ele><time>2026-05-01T13:01:58.999Z</time></trkpt><trkpt lat="45.924074757288714" lon="13.916543920760523"><ele>838.0</ele><time>2026-05-01T13:01:59.999Z</time></trkpt><trkpt lat="45.92396632288669" lon="13.916680499823235"><ele>838.0</ele><time>2026-05-01T13:02:00.999Z</time></trkpt><trkpt lat="45.923859518422574" lon="13.916827891907053"><ele>838.0</ele><time>2026-05-01T13:02:01.999Z</time></trkpt><trkpt lat="45.92374697751977" lon="13.916969318842709"><ele>838.0</ele><time>2026-05-01T13:02:02.999Z</time></trkpt><trkpt lat="45.923629357928625" lon="13.917105578265627"><ele>838.5</ele><time>2026-05-01T13:02:03.999Z</time></trkpt><trkpt lat="45.92351065037316" lon="13.917239637461241"><ele>839.0</ele><time>2026-05-01T13:02:04.999Z</time></trkpt><trkpt lat="45.92339375870311" lon="13.91736089666348"><ele>839.5</ele><time>2026-05-01T13:02:05.999Z</time></trkpt><trkpt lat="45.9232936630518" lon="13.917468166552727"><ele>840.0</ele><time>2026-05-01T13:02:06.999Z</time></trkpt><trkpt lat="45.923225892213196" lon="13.917579409135575"><ele>840.0</ele><time>2026-05-01T13:02:07.999Z</time></trkpt><trkpt lat="45.923191873566715" lon="13.91770843432449"><ele>840.0</ele><time>2026-05-01T13:02:08.999Z</time></trkpt><trkpt lat="45.92319758336672" lon="13.917880533972497"><ele>840.0</ele><time>2026-05-01T13:02:09.999Z</time></trkpt><trkpt lat="45.92318677534131" lon="13.918087898599948"><ele>840.0</ele><time>2026-05-01T13:02:10.999Z</time></trkpt><trkpt lat="45.92314118563923" lon="13.918294628552358"><ele>838.3333333333333</ele><time>2026-05-01T13:02:11.999Z</time></trkpt><trkpt lat="45.92304145006544" lon="13.918485077871217"><ele>836.6666666666666</ele><time>2026-05-01T13:02:12.999Z</time></trkpt><trkpt lat="45.92287781942355" lon="13.918610986412208"><ele>835.0</ele><time>2026-05-01T13:02:13.999Z</time></trkpt><trkpt lat="45.922736175303115" lon="13.918792609833067"><ele>835.0</ele><time>2026-05-01T13:02:14.999Z</time></trkpt><trkpt lat="45.92258351555202" lon="13.918945794250849"><ele>835.0</ele><time>2026-05-01T13:02:15.999Z</time></trkpt><trkpt lat="45.92245379055115" lon="13.91910180675215"><ele>835.0</ele><time>2026-05-01T13:02:16.999Z</time></trkpt><trkpt lat="45.92233828694812" lon="13.91927666432319"><ele>832.0</ele><time>2026-05-01T13:02:17.999Z</time></trkpt><trkpt lat="45.92224507349689" lon="13.91946814116795"><ele>829.0</ele><time>2026-05-01T13:02:18.999Z</time></trkpt><trkpt lat="45.92218085397878" lon="13.919666194592343"><ele>826.0</ele><time>2026-05-01T13:02:19.999Z</time></trkpt><trkpt lat="45.92210741563795" lon="13.919888704302343"><ele>827.0</ele><time>2026-05-01T13:02:20.999Z</time></trkpt><trkpt lat="45.9220292475394" lon="13.92010183520502"><ele>828.0</ele><time>2026-05-01T13:02:21.999Z</time></trkpt><trkpt lat="45.92195140867584" lon="13.920309702216555"><ele>829.0</ele><time>2026-05-01T13:02:23Z</time></trkpt><trkpt lat="45.9218782918155" lon="13.920502337260574"><ele>829.0</ele><time>2026-05-01T13:02:24Z</time></trkpt><trkpt lat="45.92180713818094" lon="13.920692604920463"><ele>829.0</ele><time>2026-05-01T13:02:25Z</time></trkpt><trkpt lat="45.921722421101116" lon="13.92087832634035"><ele>829.0</ele><time>2026-05-01T13:02:26Z</time></trkpt><trkpt lat="45.92159808516698" lon="13.921030201158098"><ele>827.3333333333333</ele><time>2026-05-01T13:02:27Z</time></trkpt><trkpt lat="45.921467964335754" lon="13.921172886677944"><ele>825.6666666666667</ele><time>2026-05-01T13:02:28Z</time></trkpt><trkpt lat="45.92133314402093" lon="13.92132333259899"><ele>824.0</ele><time>2026-05-01T13:02:29Z</time></trkpt><trkpt lat="45.921180084186126" lon="13.921449629059499"><ele>824.0</ele><time>2026-05-01T13:02:30Z</time></trkpt><trkpt lat="45.921023534262126" lon="13.921569874224259"><ele>824.0</ele><time>2026-05-01T13:02:31Z</time></trkpt><trkpt lat="45.920858818309135" lon="13.921675756115066"><ele>824.0</ele><time>2026-05-01T13:02:32Z</time></trkpt><trkpt lat="45.92068057896611" lon="13.921714222046928"><ele>822.0</ele><time>2026-05-01T13:02:33Z</time></trkpt><trkpt lat="45.92050757895432" lon="13.92181382780297"><ele>820.0</ele><time>2026-05-01T13:02:34Z</time></trkpt><trkpt lat="45.92033910357289" lon="13.921932582149662"><ele>818.0</ele><time>2026-05-01T13:02:35Z</time></trkpt><trkpt lat="45.9202046733665" lon="13.922104998672957"><ele>818.0</ele><time>2026-05-01T13:02:36Z</time></trkpt><trkpt lat="45.92008779821399" lon="13.922316698249364"><ele>818.0</ele><time>2026-05-01T13:02:37Z</time></trkpt><trkpt lat="45.91997770051606" lon="13.922550840788297"><ele>818.0</ele><time>2026-05-01T13:02:38Z</time></trkpt><trkpt lat="45.919879807618265" lon="13.922797756346919"><ele>819.0</ele><time>2026-05-01T13:02:39Z</time></trkpt><trkpt lat="45.919772452457885" lon="13.923041757067297"><ele>820.0</ele><time>2026-05-01T13:02:40Z</time></trkpt><trkpt lat="45.91962289390573" lon="13.923242196595897"><ele>821.0</ele><time>2026-05-01T13:02:41Z</time></trkpt><trkpt lat="45.919445804661926" lon="13.923419304770057"><ele>820.6666666666667</ele><time>2026-05-01T13:02:42Z</time></trkpt><trkpt lat="45.91927660170037" lon="13.92359442120497"><ele>820.3333333333333</ele><time>2026-05-01T13:02:43Z</time></trkpt><trkpt lat="45.919133520556315" lon="13.92374157876025"><ele>820.0</ele><time>2026-05-01T13:02:44Z</time></trkpt><trkpt lat="45.918984366403585" lon="13.923817104612663"><ele>820.0</ele><time>2026-05-01T13:02:45Z</time></trkpt><trkpt lat="45.918825456311744" lon="13.923785477275766"><ele>820.0</ele><time>2026-05-01T13:02:46Z</time></trkpt><trkpt lat="45.91866234646897" lon="13.92378677455296"><ele>820.0</ele><time>2026-05-01T13:02:47Z</time></trkpt><trkpt lat="45.91850513815115" lon="13.923768351826764"><ele>821.0</ele><time>2026-05-01T13:02:48Z</time></trkpt><trkpt lat="45.918371362413964" lon="13.923800259136799"><ele>822.0</ele><time>2026-05-01T13:02:49Z</time></trkpt><trkpt lat="45.91825659309746" lon="13.923893400980516"><ele>823.0</ele><time>2026-05-01T13:02:50Z</time></trkpt><trkpt lat="45.91816763031979" lon="13.924013475402313"><ele>824.0</ele><time>2026-05-01T13:02:51Z</time></trkpt><trkpt lat="45.918078234763854" lon="13.924132510501476"><ele>825.0</ele><time>2026-05-01T13:02:52Z</time></trkpt><trkpt lat="45.91798938667542" lon="13.924235445252556"><ele>826.0</ele><time>2026-05-01T13:02:53Z</time></trkpt><trkpt lat="45.91789798249851" lon="13.9243477019343"><ele>827.0</ele><time>2026-05-01T13:02:54Z</time></trkpt><trkpt lat="45.917801337069356" lon="13.924461927307185"><ele>828.0</ele><time>2026-05-01T13:02:55Z</time></trkpt><trkpt lat="45.91770264286931" lon="13.924574892647202"><ele>828.0</ele><time>2026-05-01T13:02:56Z</time></trkpt><trkpt lat="45.91759976037561" lon="13.924681370749331"><ele>828.0</ele><time>2026-05-01T13:02:57Z</time></trkpt><trkpt lat="45.9174965731964" lon="13.924795887159629"><ele>828.0</ele><time>2026-05-01T13:02:58Z</time></trkpt><trkpt lat="45.917399011180024" lon="13.924925621178163"><ele>828.0</ele><time>2026-05-01T13:02:59Z</time></trkpt><trkpt lat="45.9172905769626" lon="13.925048238435414"><ele>828.25</ele><time>2026-05-01T13:03:00Z</time></trkpt><trkpt lat="45.917195934444884" lon="13.925205323765674"><ele>828.5</ele><time>2026-05-01T13:03:01Z</time></trkpt><trkpt lat="45.91711882170047" lon="13.925386663367346"><ele>828.75</ele><time>2026-05-01T13:03:02Z</time></trkpt><trkpt lat="45.917028972733135" lon="13.925557876523065"><ele>829.0</ele><time>2026-05-01T13:03:03Z</time></trkpt><trkpt lat="45.91692997721462" lon="13.925724996150379"><ele>829.0</ele><time>2026-05-01T13:03:04Z</time></trkpt><trkpt lat="45.91680792787389" lon="13.925855264265492"><ele>829.0</ele><time>2026-05-01T13:03:05Z</time></trkpt><trkpt lat="45.91666908695335" lon="13.925953513287118"><ele>829.0</ele><time>2026-05-01T13:03:06Z</time></trkpt><trkpt lat="45.91652140118242" lon="13.926041175714834"><ele>827.75</ele><time>2026-05-01T13:03:07Z</time></trkpt><trkpt lat="45.916378287186134" lon="13.926123673225527"><ele>826.5</ele><time>2026-05-01T13:03:08Z</time></trkpt><trkpt lat="45.91623850074118" lon="13.92617203460475"><ele>825.25</ele><time>2026-05-01T13:03:09Z</time></trkpt><trkpt lat="45.91611145382945" lon="13.926245114638137"><ele>824.0</ele><time>2026-05-01T13:03:10Z</time></trkpt><trkpt lat="45.91600753316313" lon="13.926397147805375"><ele>824.0</ele><time>2026-05-01T13:03:11Z</time></trkpt><trkpt lat="45.91591193139942" lon="13.926557528426633"><ele>824.0</ele><time>2026-05-01T13:03:12Z</time></trkpt><trkpt lat="45.91580983097376" lon="13.926718992495385"><ele>824.0</ele><time>2026-05-01T13:03:13Z</time></trkpt><trkpt lat="45.91569172517556" lon="13.92686545836395"><ele>823.6666666666667</ele><time>2026-05-01T13:03:14Z</time></trkpt><trkpt lat="45.91555850202847" lon="13.92700957658311"><ele>823.3333333333333</ele><time>2026-05-01T13:03:15Z</time></trkpt><trkpt lat="45.915416559480484" lon="13.927152293067223"><ele>823.0</ele><time>2026-05-01T13:03:16Z</time></trkpt><trkpt lat="45.9152702181493" lon="13.927295249687624"><ele>823.0</ele><time>2026-05-01T13:03:17Z</time></trkpt><trkpt lat="45.91512700006423" lon="13.927426034958554"><ele>823.0</ele><time>2026-05-01T13:03:18Z</time></trkpt><trkpt lat="45.91498654420579" lon="13.927535753805918"><ele>823.0</ele><time>2026-05-01T13:03:19Z</time></trkpt><trkpt lat="45.91484879614177" lon="13.927636467078104"><ele>822.0</ele><time>2026-05-01T13:03:20Z</time></trkpt><trkpt lat="45.914701314410856" lon="13.927742999491068"><ele>821.0</ele><time>2026-05-01T13:03:21Z</time></trkpt><trkpt lat="45.91459899964988" lon="13.927956248072535"><ele>820.0</ele><time>2026-05-01T13:03:22Z</time></trkpt><trkpt lat="45.91450756363034" lon="13.92818139676982"><ele>820.0</ele><time>2026-05-01T13:03:23Z</time></trkpt><trkpt lat="45.91446606258074" lon="13.928344662907936"><ele>820.0</ele><time>2026-05-01T13:03:24Z</time></trkpt><trkpt lat="45.91444371859385" lon="13.928568013896667"><ele>820.0</ele><time>2026-05-01T13:03:25Z</time></trkpt><trkpt lat="45.914405334244925" lon="13.928755143495188"><ele>820.0</ele><time>2026-05-01T13:03:26Z</time></trkpt><trkpt lat="45.9143006406407" lon="13.928845105496581"><ele>822.0</ele><time>2026-05-01T13:03:27Z</time></trkpt><trkpt lat="45.91419244681802" lon="13.928908601931973"><ele>824.0</ele><time>2026-05-01T13:03:28Z</time></trkpt><trkpt lat="45.91405922479771" lon="13.92896321505644"><ele>826.0</ele><time>2026-05-01T13:03:29Z</time></trkpt><trkpt lat="45.91390382067652" lon="13.92902177443677"><ele>828.0</ele><time>2026-05-01T13:03:30Z</time></trkpt><trkpt lat="45.91376258841826" lon="13.929116872482332"><ele>828.0</ele><time>2026-05-01T13:03:31Z</time></trkpt><trkpt lat="45.91364700323191" lon="13.929222426258765"><ele>828.0</ele><time>2026-05-01T13:03:32Z</time></trkpt><trkpt lat="45.913574532592975" lon="13.929359842666479"><ele>828.0</ele><time>2026-05-01T13:03:33Z</time></trkpt><trkpt lat="45.91354456162735" lon="13.92946291897432"><ele>828.0</ele><time>2026-05-01T13:03:34Z</time></trkpt><trkpt lat="45.91353326542466" lon="13.929583641414354"><ele>828.0</ele><time>2026-05-01T13:03:35Z</time></trkpt><trkpt lat="45.91354080671835" lon="13.929713862229141"><ele>827.8</ele><time>2026-05-01T13:03:36Z</time></trkpt><trkpt lat="45.91360474446658" lon="13.92984200368062"><ele>827.5999999999999</ele><time>2026-05-01T13:03:37Z</time></trkpt><trkpt lat="45.91366319155269" lon="13.929980012654156"><ele>827.4000000000001</ele><time>2026-05-01T13:03:38Z</time></trkpt><trkpt lat="45.91373096104925" lon="13.930077849742801"><ele>827.2</ele><time>2026-05-01T13:03:38.999Z</time></trkpt><trkpt lat="45.91378081258845" lon="13.930153235449094"><ele>827.0</ele><time>2026-05-01T13:03:39.999Z</time></trkpt><trkpt lat="45.91379956213263" lon="13.930316218358755"><ele>827.5</ele><time>2026-05-01T13:03:41.999Z</time></trkpt><trkpt lat="45.91366281589549" lon="13.930342982927783"><ele>828.0</ele><time>2026-05-01T13:03:43.999Z</time></trkpt><trkpt lat="45.913577840732636" lon="13.930326934386706"><ele>828.5</ele><time>2026-05-01T13:03:44.999Z</time></trkpt><trkpt lat="45.91346812987116" lon="13.93028021050018"><ele>829.0</ele><time>2026-05-01T13:03:45.999Z</time></trkpt><trkpt lat="45.91334943807571" lon="13.930199743945728"><ele>829.2</ele><time>2026-05-01T13:03:46.999Z</time></trkpt><trkpt lat="45.913248090267416" lon="13.930114107235994"><ele>829.4000000000001</ele><time>2026-05-01T13:03:47.999Z</time></trkpt><trkpt lat="45.91316440037893" lon="13.930048948936708"><ele>829.6</ele><time>2026-05-01T13:03:48.999Z</time></trkpt><trkpt lat="45.91307975019501" lon="13.929977537733386"><ele>829.8</ele><time>2026-05-01T13:03:49.999Z</time></trkpt><trkpt lat="45.912993802028" lon="13.92992267086662"><ele>830.0</ele><time>2026-05-01T13:03:50.999Z</time></trkpt><trkpt lat="45.9128976316308" lon="13.929908233183571"><ele>830.0</ele><time>2026-05-01T13:03:51.999Z</time></trkpt><trkpt lat="45.91280223466589" lon="13.929945941196896"><ele>830.0</ele><time>2026-05-01T13:03:52.999Z</time></trkpt><trkpt lat="45.912714275052814" lon="13.930051449394288"><ele>830.0</ele><time>2026-05-01T13:03:53.999Z</time></trkpt><trkpt lat="45.91263023102955" lon="13.93019688405899"><ele>830.0</ele><time>2026-05-01T13:03:54.999Z</time></trkpt><trkpt lat="45.912614684236985" lon="13.930363178194971"><ele>830.0000000000001</ele><time>2026-05-01T13:03:55.999Z</time></trkpt><trkpt lat="45.912596050784494" lon="13.930491467546679"><ele>830.0</ele><time>2026-05-01T13:03:56.999Z</time></trkpt><trkpt lat="45.91254608511034" lon="13.93056323731108"><ele>830.0</ele><time>2026-05-01T13:03:57.999Z</time></trkpt><trkpt lat="45.91246608400378" lon="13.930569343837"><ele>830.0</ele><time>2026-05-01T13:03:58.999Z</time></trkpt><trkpt lat="45.91239575879236" lon="13.930498870382074"><ele>830.0000000000001</ele><time>2026-05-01T13:03:59.999Z</time></trkpt><trkpt lat="45.91230427868556" lon="13.930428027558841"><ele>830.0</ele><time>2026-05-01T13:04:00.999Z</time></trkpt><trkpt lat="45.9121778139158" lon="13.930354862522547"><ele>835.25</ele><time>2026-05-01T13:04:01.999Z</time></trkpt><trkpt lat="45.91207372669021" lon="13.930249297784371"><ele>840.5</ele><time>2026-05-01T13:04:02.999Z</time></trkpt><trkpt lat="45.91195230936068" lon="13.930168091364376"><ele>845.75</ele><time>2026-05-01T13:04:03.999Z</time></trkpt><trkpt lat="45.91183145948313" lon="13.930090023913785"><ele>851.0</ele><time>2026-05-01T13:04:04.999Z</time></trkpt><trkpt lat="45.91170791904221" lon="13.930020706352774"><ele>851.5</ele><time>2026-05-01T13:04:05.999Z</time></trkpt><trkpt lat="45.911589022829986" lon="13.929937877119562"><ele>852.0</ele><time>2026-05-01T13:04:06.999Z</time></trkpt><trkpt lat="45.91149982757823" lon="13.929834017122941"><ele>852.5</ele><time>2026-05-01T13:04:07.999Z</time></trkpt><trkpt lat="45.91146981740918" lon="13.929672043554639"><ele>853.0</ele><time>2026-05-01T13:04:08.999Z</time></trkpt><trkpt lat="45.91144283759102" lon="13.929485537575198"><ele>853.0</ele><time>2026-05-01T13:04:09.999Z</time></trkpt><trkpt lat="45.91138903621934" lon="13.929313001425811"><ele>853.0</ele><time>2026-05-01T13:04:10.999Z</time></trkpt><trkpt lat="45.911307643467296" lon="13.929169735210568"><ele>853.0</ele><time>2026-05-01T13:04:11.999Z</time></trkpt><trkpt lat="45.91120790826964" lon="13.929071325536055"><ele>853.0</ele><time>2026-05-01T13:04:12.999Z</time></trkpt><trkpt lat="45.91111536295323" lon="13.928982971681275"><ele>852.75</ele><time>2026-05-01T13:04:13.999Z</time></trkpt><trkpt lat="45.910997207421964" lon="13.928988207427334"><ele>852.5</ele><time>2026-05-01T13:04:14.999Z</time></trkpt><trkpt lat="45.91088742955503" lon="13.928961928645647"><ele>852.25</ele><time>2026-05-01T13:04:15.999Z</time></trkpt><trkpt lat="45.910775829086354" lon="13.92892853623483"><ele>852.0</ele><time>2026-05-01T13:04:16.999Z</time></trkpt><trkpt lat="45.910664124120906" lon="13.928886420329636"><ele>852.8</ele><time>2026-05-01T13:04:17.999Z</time></trkpt><trkpt lat="45.91055088651485" lon="13.928849280554493"><ele>853.6</ele><time>2026-05-01T13:04:18.999Z</time></trkpt><trkpt lat="45.910452379793675" lon="13.928821042593746"><ele>854.3999999999999</ele><time>2026-05-01T13:04:19.999Z</time></trkpt><trkpt lat="45.910364312115604" lon="13.928802339001615"><ele>855.1999999999999</ele><time>2026-05-01T13:04:20.999Z</time></trkpt><trkpt lat="45.91027717757379" lon="13.928811864786693"><ele>856.0</ele><time>2026-05-01T13:04:21.999Z</time></trkpt><trkpt lat="45.91018847448199" lon="13.928832957580207"><ele>855.9999999999999</ele><time>2026-05-01T13:04:22.999Z</time></trkpt><trkpt lat="45.910099300615705" lon="13.92884634946611"><ele>856.0</ele><time>2026-05-01T13:04:23.999Z</time></trkpt><trkpt lat="45.91001299470343" lon="13.928864288857188"><ele>856.0</ele><time>2026-05-01T13:04:24.999Z</time></trkpt><trkpt lat="45.90994354006676" lon="13.928915418134341"><ele>856.0</ele><time>2026-05-01T13:04:25.999Z</time></trkpt><trkpt lat="45.90988156855109" lon="13.929006238378015"><ele>855.9999999999999</ele><time>2026-05-01T13:04:26.999Z</time></trkpt><trkpt lat="45.90983406576743" lon="13.929140883866086"><ele>856.0</ele><time>2026-05-01T13:04:27.999Z</time></trkpt><trkpt lat="45.909780589224866" lon="13.929284828311902"><ele>860.75</ele><time>2026-05-01T13:04:29Z</time></trkpt><trkpt lat="45.90977043821016" lon="13.929448893534374"><ele>865.5</ele><time>2026-05-01T13:04:30Z</time></trkpt><trkpt lat="45.90980467989823" lon="13.929615737387353"><ele>870.25</ele><time>2026-05-01T13:04:31Z</time></trkpt><trkpt lat="45.90987974610211" lon="13.929773536445309"><ele>875.0</ele><time>2026-05-01T13:04:32Z</time></trkpt><trkpt lat="45.9099663626775" lon="13.929901137209878"><ele>875.0000000000001</ele><time>2026-05-01T13:04:33Z</time></trkpt><trkpt lat="45.91003960479753" lon="13.930011152648769"><ele>875.0</ele><time>2026-05-01T13:04:34Z</time></trkpt><trkpt lat="45.91009148276856" lon="13.930089896051864"><ele>875.0</ele><time>2026-05-01T13:04:35Z</time></trkpt><trkpt lat="45.910137281197606" lon="13.930167156454909"><ele>875.0</ele><time>2026-05-01T13:04:36Z</time></trkpt><trkpt lat="45.91014025017594" lon="13.930317530204682"><ele>875.0000000000001</ele><time>2026-05-01T13:04:38Z</time></trkpt><trkpt lat="45.91008807358807" lon="13.930377682952168"><ele>875.0</ele><time>2026-05-01T13:04:39Z</time></trkpt><trkpt lat="45.90998840599929" lon="13.930413500751579"><ele>878.2</ele><time>2026-05-01T13:04:40Z</time></trkpt><trkpt lat="45.909885798392736" lon="13.93052372448137"><ele>881.4</ele><time>2026-05-01T13:04:41Z</time></trkpt><trkpt lat="45.90978014281" lon="13.930584391723817"><ele>884.5999999999999</ele><time>2026-05-01T13:04:42Z</time></trkpt><trkpt lat="45.90969787656672" lon="13.930668531238464"><ele>887.8</ele><time>2026-05-01T13:04:43Z</time></trkpt><trkpt lat="45.90960585179715" lon="13.930738436568264"><ele>891.0</ele><time>2026-05-01T13:04:44Z</time></trkpt><trkpt lat="45.90950439328489" lon="13.930816034528267"><ele>895.25</ele><time>2026-05-01T13:04:45Z</time></trkpt><trkpt lat="45.90939673275254" lon="13.930925037150049"><ele>899.5</ele><time>2026-05-01T13:04:46Z</time></trkpt><trkpt lat="45.90930248892912" lon="13.93106013013202"><ele>903.75</ele><time>2026-05-01T13:04:47Z</time></trkpt><trkpt lat="45.90922917327887" lon="13.93118841978911"><ele>908.0</ele><time>2026-05-01T13:04:48Z</time></trkpt><trkpt lat="45.90915073028689" lon="13.931291065566304"><ele>908.0</ele><time>2026-05-01T13:04:49Z</time></trkpt><trkpt lat="45.909044932328044" lon="13.93124022062814"><ele>908.0</ele><time>2026-05-01T13:04:50Z</time></trkpt><trkpt lat="45.90887260818586" lon="13.931312666641439"><ele>908.0</ele><time>2026-05-01T13:04:52Z</time></trkpt><trkpt lat="45.90879790428088" lon="13.931354670580717"><ele>908.0</ele><time>2026-05-01T13:04:53Z</time></trkpt><trkpt lat="45.90872527781223" lon="13.931438773277955"><ele>908.0</ele><time>2026-05-01T13:04:54Z</time></trkpt><trkpt lat="45.90862082458067" lon="13.931498877923202"><ele>908.0</ele><time>2026-05-01T13:04:55Z</time></trkpt><trkpt lat="45.908526981121796" lon="13.931555152900593"><ele>908.0</ele><time>2026-05-01T13:04:56Z</time></trkpt><trkpt lat="45.90845462243607" lon="13.931604026487506"><ele>908.0</ele><time>2026-05-01T13:04:57Z</time></trkpt><trkpt lat="45.90839046904735" lon="13.931665562848307"><ele>908.0</ele><time>2026-05-01T13:04:58Z</time></trkpt><trkpt lat="45.90838918659285" lon="13.931872930241758"><ele>908.8</ele><time>2026-05-01T13:05:00Z</time></trkpt><trkpt lat="45.90839261165346" lon="13.932021934567649"><ele>909.5999999999999</ele><time>2026-05-01T13:05:01Z</time></trkpt><trkpt lat="45.90837579127343" lon="13.932171704972859"><ele>910.4000000000001</ele><time>2026-05-01T13:05:02Z</time></trkpt><trkpt lat="45.908326774911146" lon="13.93229769576534"><ele>911.2</ele><time>2026-05-01T13:05:03Z</time></trkpt><trkpt lat="45.908237278836076" lon="13.9323487045125"><ele>912.0</ele><time>2026-05-01T13:05:04Z</time></trkpt><trkpt lat="45.908173996068534" lon="13.932428713879501"><ele>912.0</ele><time>2026-05-01T13:05:05Z</time></trkpt><trkpt lat="45.908126498291736" lon="13.932518021790997"><ele>912.0</ele><time>2026-05-01T13:05:06Z</time></trkpt><trkpt lat="45.90808315143189" lon="13.932594237767603"><ele>912.0</ele><time>2026-05-01T13:05:07Z</time></trkpt><trkpt lat="45.90806403457182" lon="13.932685221184595"><ele>912.0</ele><time>2026-05-01T13:05:08Z</time></trkpt><trkpt lat="45.908072918164734" lon="13.932808558846919"><ele>912.0</ele><time>2026-05-01T13:05:09Z</time></trkpt><trkpt lat="45.90806014532089" lon="13.932943583920538"><ele>912.0</ele><time>2026-05-01T13:05:10Z</time></trkpt><trkpt lat="45.90806214130473" lon="13.933078749016309"><ele>914.2</ele><time>2026-05-01T13:05:11Z</time></trkpt><trkpt lat="45.90806084902225" lon="13.933221988485174"><ele>916.4000000000001</ele><time>2026-05-01T13:05:12Z</time></trkpt><trkpt lat="45.908051491527544" lon="13.933365076826302"><ele>918.5999999999999</ele><time>2026-05-01T13:05:13Z</time></trkpt><trkpt lat="45.908027376781796" lon="13.933498176247708"><ele>920.8</ele><time>2026-05-01T13:05:14Z</time></trkpt><trkpt lat="45.90798496494248" lon="13.933624168991434"><ele>923.0</ele><time>2026-05-01T13:05:15Z</time></trkpt><trkpt lat="45.90793339641871" lon="13.933732361148813"><ele>925.4</ele><time>2026-05-01T13:05:16Z</time></trkpt><trkpt lat="45.907881797768106" lon="13.93384257223"><ele>927.8</ele><time>2026-05-01T13:05:17Z</time></trkpt><trkpt lat="45.90783057441983" lon="13.933957333409197"><ele>930.2</ele><time>2026-05-01T13:05:18Z</time></trkpt><trkpt lat="45.907770560450594" lon="13.934098829236408"><ele>932.6</ele><time>2026-05-01T13:05:19Z</time></trkpt><trkpt lat="45.90771948678981" lon="13.934249328550573"><ele>935.0</ele><time>2026-05-01T13:05:20Z</time></trkpt><trkpt lat="45.90765776365188" lon="13.934536410325647"><ele>933.6</ele><time>2026-05-01T13:05:22Z</time></trkpt><trkpt lat="45.90763109902522" lon="13.93466327682032"><ele>932.2</ele><time>2026-05-01T13:05:23Z</time></trkpt><trkpt lat="45.907583933935214" lon="13.93478078000341"><ele>930.8</ele><time>2026-05-01T13:05:24Z</time></trkpt><trkpt lat="45.90755208147332" lon="13.934902861278019"><ele>929.4</ele><time>2026-05-01T13:05:25Z</time></trkpt><trkpt lat="45.90752909418882" lon="13.935047076583384"><ele>928.0</ele><time>2026-05-01T13:05:25.999Z</time></trkpt><trkpt lat="45.90747630672403" lon="13.935175713826247"><ele>930.8</ele><time>2026-05-01T13:05:26.999Z</time></trkpt><trkpt lat="45.90744974236775" lon="13.935327420190491"><ele>933.5999999999999</ele><time>2026-05-01T13:05:27.999Z</time></trkpt><trkpt lat="45.90740869674187" lon="13.935459210721119"><ele>936.4000000000001</ele><time>2026-05-01T13:05:28.999Z</time></trkpt><trkpt lat="45.907375563949685" lon="13.935604536710665"><ele>939.2</ele><time>2026-05-01T13:05:29.999Z</time></trkpt><trkpt lat="45.90735713837" lon="13.935757103824688"><ele>942.0</ele><time>2026-05-01T13:05:30.999Z</time></trkpt><trkpt lat="45.907337606868715" lon="13.935915037903628"><ele>945.0</ele><time>2026-05-01T13:05:31.999Z</time></trkpt><trkpt lat="45.90727724360333" lon="13.93605163603874"><ele>948.0</ele><time>2026-05-01T13:05:32.999Z</time></trkpt><trkpt lat="45.907231076130984" lon="13.936202883963956"><ele>951.0</ele><time>2026-05-01T13:05:33.999Z</time></trkpt><trkpt lat="45.9071699372594" lon="13.936314652659735"><ele>954.0</ele><time>2026-05-01T13:05:34.999Z</time></trkpt><trkpt lat="45.90712713024985" lon="13.93639895843553"><ele>957.0</ele><time>2026-05-01T13:05:35.999Z</time></trkpt><trkpt lat="45.90706633621418" lon="13.936470963400573"><ele>957.0</ele><time>2026-05-01T13:05:36.999Z</time></trkpt><trkpt lat="45.90702830168441" lon="13.93655046023306"><ele>957.0</ele><time>2026-05-01T13:05:37.999Z</time></trkpt><trkpt lat="45.907027373866896" lon="13.936708892180228"><ele>957.0</ele><time>2026-05-01T13:05:39.999Z</time></trkpt><trkpt lat="45.907101035484686" lon="13.936748379252892"><ele>957.0</ele><time>2026-05-01T13:05:40.999Z</time></trkpt><trkpt lat="45.90716761732625" lon="13.936716511274318"><ele>957.0</ele><time>2026-05-01T13:05:41.999Z</time></trkpt><trkpt lat="45.907225645062894" lon="13.936615554853526"><ele>957.0</ele><time>2026-05-01T13:05:42.999Z</time></trkpt><trkpt lat="45.90731255901601" lon="13.936513203306495"><ele>957.0</ele><time>2026-05-01T13:05:43.999Z</time></trkpt><trkpt lat="45.907418325063546" lon="13.936427503981351"><ele>957.0</ele><time>2026-05-01T13:05:44.999Z</time></trkpt><trkpt lat="45.90753657935796" lon="13.936315078653182"><ele>957.0</ele><time>2026-05-01T13:05:45.999Z</time></trkpt><trkpt lat="45.907632829432494" lon="13.936151703075872"><ele>957.0</ele><time>2026-05-01T13:05:46.999Z</time></trkpt><trkpt lat="45.90770780960857" lon="13.93600724532639"><ele>958.5</ele><time>2026-05-01T13:05:47.999Z</time></trkpt><trkpt lat="45.90776618529679" lon="13.935892688320484"><ele>960.0</ele><time>2026-05-01T13:05:48.999Z</time></trkpt><trkpt lat="45.90782584921301" lon="13.93581593624601"><ele>961.5</ele><time>2026-05-01T13:05:49.999Z</time></trkpt><trkpt lat="45.907891435050885" lon="13.935730091650262"><ele>963.0</ele><time>2026-05-01T13:05:51.999Z</time></trkpt><trkpt lat="45.907934161618" lon="13.935659518639325"><ele>964.5</ele><time>2026-05-01T13:05:53.999Z</time></trkpt><trkpt lat="45.90799190024405" lon="13.935559941801113"><ele>966.0</ele><time>2026-05-01T13:05:55.999Z</time></trkpt><trkpt lat="45.90802906302274" lon="13.935473889569225"><ele>966.0</ele><time>2026-05-01T13:05:57.999Z</time></trkpt><trkpt lat="45.90806377699428" lon="13.935377496484035"><ele>966.0</ele><time>2026-05-01T13:06:01.999Z</time></trkpt><trkpt lat="45.90811682462281" lon="13.935296322790698"><ele>966.0</ele><time>2026-05-01T13:06:03.999Z</time></trkpt><trkpt lat="45.90817323173553" lon="13.935212258471136"><ele>966.0</ele><time>2026-05-01T13:06:06.999Z</time></trkpt><trkpt lat="45.90824337129875" lon="13.935151750695248"><ele>966.0</ele><time>2026-05-01T13:06:09.999Z</time></trkpt><trkpt lat="45.90830415956407" lon="13.935223618805678"><ele>966.0</ele><time>2026-05-01T13:06:11.999Z</time></trkpt><trkpt lat="45.90838009137883" lon="13.93527698920512"><ele>966.8</ele><time>2026-05-01T13:06:13.999Z</time></trkpt><trkpt lat="45.908461622742074" lon="13.935263962729994"><ele>967.5999999999999</ele><time>2026-05-01T13:06:15.999Z</time></trkpt><trkpt lat="45.90853222077124" lon="13.935230969225177"><ele>968.4</ele><time>2026-05-01T13:06:17.999Z</time></trkpt><trkpt lat="45.90860530791549" lon="13.935289527605635"><ele>969.2</ele><time>2026-05-01T13:06:21.999Z</time></trkpt><trkpt lat="45.90856332932712" lon="13.935409083540732"><ele>970.0</ele><time>2026-05-01T13:06:23.999Z</time></trkpt><trkpt lat="45.908706734326316" lon="13.935264173694472"><ele>969.9999999999999</ele><time>2026-05-01T13:06:28.999Z</time></trkpt><trkpt lat="45.90865628572943" lon="13.935191058776077"><ele>970.0</ele><time>2026-05-01T13:06:33.999Z</time></trkpt><trkpt lat="45.908579705581154" lon="13.935209595392317"><ele>970.0</ele><time>2026-05-01T13:06:36.999Z</time></trkpt><trkpt lat="45.90848735352269" lon="13.935233251199499"><ele>970.0</ele><time>2026-05-01T13:06:39.999Z</time></trkpt><trkpt lat="45.9084168727002" lon="13.935221605968717"><ele>969.9999999999999</ele><time>2026-05-01T13:06:41.999Z</time></trkpt><trkpt lat="45.90833782138595" lon="13.93519802019903"><ele>970.0</ele><time>2026-05-01T13:06:43.999Z</time></trkpt><trkpt lat="45.90827070712641" lon="13.93515729743867"><ele>969.3333333333333</ele><time>2026-05-01T13:06:45.999Z</time></trkpt><trkpt lat="45.90818874632404" lon="13.93516034986813"><ele>968.6666666666666</ele><time>2026-05-01T13:06:48.999Z</time></trkpt><trkpt lat="45.908122566255614" lon="13.935227102954421"><ele>968.0</ele><time>2026-05-01T13:06:51.999Z</time></trkpt><trkpt lat="45.90807679824141" lon="13.935322166762486"><ele>967.3333333333333</ele><time>2026-05-01T13:06:53.999Z</time></trkpt><trkpt lat="45.908031676597574" lon="13.935437410166765"><ele>966.6666666666666</ele><time>2026-05-01T13:06:56Z</time></trkpt><trkpt lat="45.907988951805734" lon="13.935529062197636"><ele>966.0</ele><time>2026-05-01T13:06:58Z</time></trkpt><trkpt lat="45.90793889131717" lon="13.935627829818964"><ele>966.0</ele><time>2026-05-01T13:07:00Z</time></trkpt><trkpt lat="45.90789772448616" lon="13.93570123998141"><ele>966.0</ele><time>2026-05-01T13:07:02Z</time></trkpt><trkpt lat="45.907812393357574" lon="13.935778714543046"><ele>966.0</ele><time>2026-05-01T13:07:05Z</time></trkpt><trkpt lat="45.9077506049242" lon="13.935859601006968"><ele>966.0</ele><time>2026-05-01T13:07:07Z</time></trkpt><trkpt lat="45.90768096772825" lon="13.935954045934158"><ele>966.0</ele><time>2026-05-01T13:07:09Z</time></trkpt><trkpt lat="45.90761481023438" lon="13.936064046155826"><ele>966.0</ele><time>2026-05-01T13:07:11Z</time></trkpt><trkpt lat="45.90755969965563" lon="13.93620217055158"><ele>964.5</ele><time>2026-05-01T13:07:13Z</time></trkpt><trkpt lat="45.9075158763974" lon="13.936273933223418"><ele>963.0</ele><time>2026-05-01T13:07:13.999Z</time></trkpt><trkpt lat="45.90746396320542" lon="13.936351599843233"><ele>961.5</ele><time>2026-05-01T13:07:14.999Z</time></trkpt><trkpt lat="45.907390441105875" lon="13.936418594788519"><ele>960.0</ele><time>2026-05-01T13:07:15.999Z</time></trkpt><trkpt lat="45.90731171051904" lon="13.936490702250975"><ele>958.5</ele><time>2026-05-01T13:07:16.999Z</time></trkpt><trkpt lat="45.90724021666988" lon="13.936561671712894"><ele>957.0</ele><time>2026-05-01T13:07:17.999Z</time></trkpt><trkpt lat="45.907189013211664" lon="13.93664242589335"><ele>957.0</ele><time>2026-05-01T13:07:18.999Z</time></trkpt><trkpt lat="45.907131750960765" lon="13.936684378012997"><ele>957.0</ele><time>2026-05-01T13:07:19.999Z</time></trkpt><trkpt lat="45.90704891429734" lon="13.936671598683203"><ele>957.0</ele><time>2026-05-01T13:07:21.999Z</time></trkpt><trkpt lat="45.90708182173001" lon="13.936484880096765"><ele>957.0</ele><time>2026-05-01T13:07:23.999Z</time></trkpt><trkpt lat="45.90714915124347" lon="13.936384346496867"><ele>957.0</ele><time>2026-05-01T13:07:24.999Z</time></trkpt><trkpt lat="45.907212994058916" lon="13.936258893318524"><ele>957.0</ele><time>2026-05-01T13:07:25.999Z</time></trkpt><trkpt lat="45.90726997354668" lon="13.936129911209793"><ele>957.0</ele><time>2026-05-01T13:07:26.999Z</time></trkpt><trkpt lat="45.907325103203895" lon="13.93599150202994"><ele>957.0</ele><time>2026-05-01T13:07:27.999Z</time></trkpt><trkpt lat="45.90736873154118" lon="13.93583298865182"><ele>957.0</ele><time>2026-05-01T13:07:28.999Z</time></trkpt><trkpt lat="45.90739189403593" lon="13.935666780839458"><ele>953.25</ele><time>2026-05-01T13:07:29.999Z</time></trkpt><trkpt lat="45.90741563406376" lon="13.935495790999557"><ele>949.5</ele><time>2026-05-01T13:07:30.999Z</time></trkpt><trkpt lat="45.90745163399627" lon="13.935331008916805"><ele>945.75</ele><time>2026-05-01T13:07:31.999Z</time></trkpt><trkpt lat="45.90750061175581" lon="13.935175483327795"><ele>942.0</ele><time>2026-05-01T13:07:32.999Z</time></trkpt><trkpt lat="45.907549470712375" lon="13.935018402148685"><ele>944.25</ele><time>2026-05-01T13:07:33.999Z</time></trkpt><trkpt lat="45.907591941807304" lon="13.934860789398199"><ele>946.5</ele><time>2026-05-01T13:07:34.999Z</time></trkpt><trkpt lat="45.90762809936141" lon="13.934702226535508"><ele>948.75</ele><time>2026-05-01T13:07:35.999Z</time></trkpt><trkpt lat="45.90766500112823" lon="13.934546492519244"><ele>951.0</ele><time>2026-05-01T13:07:36.999Z</time></trkpt><trkpt lat="45.90770324363281" lon="13.934391948966711"><ele>951.0</ele><time>2026-05-01T13:07:37.999Z</time></trkpt><trkpt lat="45.90774879130006" lon="13.934235303008773"><ele>951.0</ele><time>2026-05-01T13:07:38.999Z</time></trkpt><trkpt lat="45.90780293914056" lon="13.934091486517122"><ele>951.0</ele><time>2026-05-01T13:07:39.999Z</time></trkpt><trkpt lat="45.90786630739188" lon="13.933951198849448"><ele>951.0</ele><time>2026-05-01T13:07:40.999Z</time></trkpt><trkpt lat="45.90792806301784" lon="13.933813077976245"><ele>947.8</ele><time>2026-05-01T13:07:41.999Z</time></trkpt><trkpt lat="45.907986080811646" lon="13.933676433517435"><ele>944.5999999999999</ele><time>2026-05-01T13:07:42.999Z</time></trkpt><trkpt lat="45.90803652728653" lon="13.93355015024884"><ele>941.4</ele><time>2026-05-01T13:07:43.999Z</time></trkpt><trkpt lat="45.90807000723335" lon="13.933411269537368"><ele>938.2</ele><time>2026-05-01T13:07:44.999Z</time></trkpt><trkpt lat="45.90808902274533" lon="13.933265456059685"><ele>935.0</ele><time>2026-05-01T13:07:45.999Z</time></trkpt><trkpt lat="45.90809028700115" lon="13.933114657948263"><ele>933.0000000000001</ele><time>2026-05-01T13:07:46.999Z</time></trkpt><trkpt lat="45.90808986016028" lon="13.93296268185453"><ele>931.0</ele><time>2026-05-01T13:07:47.999Z</time></trkpt><trkpt lat="45.90808682713631" lon="13.932818520707789"><ele>929.0</ele><time>2026-05-01T13:07:48.999Z</time></trkpt><trkpt lat="45.908085942340016" lon="13.932688033062053"><ele>927.0</ele><time>2026-05-01T13:07:49.999Z</time></trkpt><trkpt lat="45.90811220464666" lon="13.932592806810284"><ele>925.0000000000001</ele><time>2026-05-01T13:07:50.999Z</time></trkpt><trkpt lat="45.90815849407817" lon="13.932507074008265"><ele>923.0</ele><time>2026-05-01T13:07:51.999Z</time></trkpt><trkpt lat="45.908240264013905" lon="13.932408523382945"><ele>920.25</ele><time>2026-05-01T13:07:52.999Z</time></trkpt><trkpt lat="45.908344532381975" lon="13.932295645951568"><ele>917.5</ele><time>2026-05-01T13:07:53.999Z</time></trkpt><trkpt lat="45.90841269386177" lon="13.9321423495339"><ele>914.75</ele><time>2026-05-01T13:07:54.999Z</time></trkpt><trkpt lat="45.90842298370056" lon="13.931977643524322"><ele>912.0</ele><time>2026-05-01T13:07:55.999Z</time></trkpt><trkpt lat="45.90842258152651" lon="13.931828048632362"><ele>911.3333333333334</ele><time>2026-05-01T13:07:56.999Z</time></trkpt><trkpt lat="45.90841845879681" lon="13.931715687509907"><ele>910.6666666666667</ele><time>2026-05-01T13:07:57.999Z</time></trkpt><trkpt lat="45.908489567943164" lon="13.931645184599128"><ele>910.0</ele><time>2026-05-01T13:07:59.999Z</time></trkpt><trkpt lat="45.9085681490702" lon="13.93161907031963"><ele>909.3333333333334</ele><time>2026-05-01T13:08:00.999Z</time></trkpt><trkpt lat="45.908650483752034" lon="13.931553749160894"><ele>908.6666666666667</ele><time>2026-05-01T13:08:01.999Z</time></trkpt><trkpt lat="45.908725840507444" lon="13.931477712437365"><ele>908.0</ele><time>2026-05-01T13:08:02.999Z</time></trkpt><trkpt lat="45.90879471965557" lon="13.931417131725086"><ele>908.0000000000001</ele><time>2026-05-01T13:08:03.999Z</time></trkpt><trkpt lat="45.90886492846229" lon="13.931355499045868"><ele>908.0</ele><time>2026-05-01T13:08:04.999Z</time></trkpt><trkpt lat="45.90894189956002" lon="13.931312087866782"><ele>908.0</ele><time>2026-05-01T13:08:05.999Z</time></trkpt><trkpt lat="45.909024180658065" lon="13.931306500690589"><ele>908.0</ele><time>2026-05-01T13:08:06.999Z</time></trkpt><trkpt lat="45.90912138892708" lon="13.93130260869425"><ele>908.0000000000001</ele><time>2026-05-01T13:08:07.999Z</time></trkpt><trkpt lat="45.90921475185295" lon="13.931252611931713"><ele>908.0</ele><time>2026-05-01T13:08:08.999Z</time></trkpt><trkpt lat="45.909298126026464" lon="13.931149262285658"><ele>908.5</ele><time>2026-05-01T13:08:09.999Z</time></trkpt><trkpt lat="45.909374285280435" lon="13.931015251955262"><ele>909.0</ele><time>2026-05-01T13:08:10.999Z</time></trkpt><trkpt lat="45.90946356262129" lon="13.930888897821301"><ele>909.5</ele><time>2026-05-01T13:08:11.999Z</time></trkpt><trkpt lat="45.90957567625864" lon="13.930791312077986"><ele>910.0</ele><time>2026-05-01T13:08:12.999Z</time></trkpt><trkpt lat="45.90969381630095" lon="13.930696020626334"><ele>905.25</ele><time>2026-05-01T13:08:13.999Z</time></trkpt><trkpt lat="45.909805108112" lon="13.930609149287724"><ele>900.5</ele><time>2026-05-01T13:08:14.999Z</time></trkpt><trkpt lat="45.909915340403586" lon="13.930522880596472"><ele>895.75</ele><time>2026-05-01T13:08:15.999Z</time></trkpt><trkpt lat="45.910014648526435" lon="13.930443102904535"><ele>891.0</ele><time>2026-05-01T13:08:16.999Z</time></trkpt><trkpt lat="45.910096548329946" lon="13.930376755301376"><ele>889.0</ele><time>2026-05-01T13:08:17.999Z</time></trkpt><trkpt lat="45.910167278145856" lon="13.930312643667712"><ele>887.0</ele><time>2026-05-01T13:08:18.999Z</time></trkpt><trkpt lat="45.91019962509629" lon="13.930227097380925"><ele>885.0</ele><time>2026-05-01T13:08:19.999Z</time></trkpt><trkpt lat="45.91010454549892" lon="13.929973796029952"><ele>883.0</ele><time>2026-05-01T13:08:21.999Z</time></trkpt><trkpt lat="45.909988516364415" lon="13.929834403807272"><ele>881.0</ele><time>2026-05-01T13:08:22.999Z</time></trkpt><trkpt lat="45.90988102001361" lon="13.929696610771337"><ele>879.0</ele><time>2026-05-01T13:08:23.999Z</time></trkpt><trkpt lat="45.90981728674993" lon="13.929542851329519"><ele>877.0</ele><time>2026-05-01T13:08:24.999Z</time></trkpt><trkpt lat="45.90978576501883" lon="13.929389155057113"><ele>875.0</ele><time>2026-05-01T13:08:25.999Z</time></trkpt><trkpt lat="45.909818599289274" lon="13.929236032000563"><ele>873.8</ele><time>2026-05-01T13:08:26.999Z</time></trkpt><trkpt lat="45.909870416255764" lon="13.929100531893337"><ele>872.6</ele><time>2026-05-01T13:08:27.999Z</time></trkpt><trkpt lat="45.909936652891645" lon="13.928982347645883"><ele>871.4000000000001</ele><time>2026-05-01T13:08:28.999Z</time></trkpt><trkpt lat="45.91001126413211" lon="13.928903933312482"><ele>870.2</ele><time>2026-05-01T13:08:29.999Z</time></trkpt><trkpt lat="45.910094655120474" lon="13.928873836766268"><ele>869.0</ele><time>2026-05-01T13:08:30.999Z</time></trkpt><trkpt lat="45.9101999550818" lon="13.928877921556575"><ele>865.75</ele><time>2026-05-01T13:08:31.999Z</time></trkpt><trkpt lat="45.910325163066744" lon="13.928858067270989"><ele>862.5</ele><time>2026-05-01T13:08:32.999Z</time></trkpt><trkpt lat="45.91044035422844" lon="13.928860288523545"><ele>859.25</ele><time>2026-05-01T13:08:33.999Z</time></trkpt><trkpt lat="45.91054698532788" lon="13.928896434722628"><ele>856.0</ele><time>2026-05-01T13:08:34.999Z</time></trkpt><trkpt lat="45.910659019663456" lon="13.928931606587506"><ele>856.0</ele><time>2026-05-01T13:08:35.999Z</time></trkpt><trkpt lat="45.91076770816071" lon="13.928966062460422"><ele>855.9999999999999</ele><time>2026-05-01T13:08:36.999Z</time></trkpt><trkpt lat="45.91087470321188" lon="13.928999981437487"><ele>855.9999999999999</ele><time>2026-05-01T13:08:37.999Z</time></trkpt><trkpt lat="45.91097902992824" lon="13.929035278167984"><ele>856.0</ele><time>2026-05-01T13:08:38.999Z</time></trkpt><trkpt lat="45.91109002989947" lon="13.9290463172588"><ele>856.0</ele><time>2026-05-01T13:08:39.999Z</time></trkpt><trkpt lat="45.911192597793594" lon="13.929093802343138"><ele>855.25</ele><time>2026-05-01T13:08:40.999Z</time></trkpt><trkpt lat="45.911286039311655" lon="13.929170505638162"><ele>854.5</ele><time>2026-05-01T13:08:41.999Z</time></trkpt><trkpt lat="45.911353789545295" lon="13.92932164426755"><ele>853.75</ele><time>2026-05-01T13:08:42.999Z</time></trkpt><trkpt lat="45.911405289891775" lon="13.929474350936681"><ele>853.0</ele><time>2026-05-01T13:08:43.999Z</time></trkpt><trkpt lat="45.91144206881702" lon="13.92961774487903"><ele>852.9999999999999</ele><time>2026-05-01T13:08:44.999Z</time></trkpt><trkpt lat="45.91145628319982" lon="13.92975728937494"><ele>853.0</ele><time>2026-05-01T13:08:45.999Z</time></trkpt><trkpt lat="45.911486099572386" lon="13.929860433495701"><ele>853.0</ele><time>2026-05-01T13:08:46.999Z</time></trkpt><trkpt lat="45.91152754366488" lon="13.929945206398363"><ele>853.0</ele><time>2026-05-01T13:08:47.999Z</time></trkpt><trkpt lat="45.91160339776207" lon="13.929975252792211"><ele>852.9999999999999</ele><time>2026-05-01T13:08:48.999Z</time></trkpt><trkpt lat="45.91168645979854" lon="13.930025474119676"><ele>853.0</ele><time>2026-05-01T13:08:49.999Z</time></trkpt><trkpt lat="45.911781520292585" lon="13.930084315206786"><ele>852.5</ele><time>2026-05-01T13:08:50.999Z</time></trkpt><trkpt lat="45.911883426807925" lon="13.930158200255121"><ele>852.0</ele><time>2026-05-01T13:08:51.999Z</time></trkpt><trkpt lat="45.91199119765587" lon="13.93023711866921"><ele>851.5</ele><time>2026-05-01T13:08:52.999Z</time></trkpt><trkpt lat="45.91209024635167" lon="13.930307181483377"><ele>851.0</ele><time>2026-05-01T13:08:53.999Z</time></trkpt><trkpt lat="45.91219022991934" lon="13.930378282410217"><ele>851.0000000000001</ele><time>2026-05-01T13:08:54.999Z</time></trkpt><trkpt lat="45.91228414297405" lon="13.930443263436798"><ele>851.0</ele><time>2026-05-01T13:08:55.999Z</time></trkpt><trkpt lat="45.91236336003209" lon="13.930524672608245"><ele>851.0</ele><time>2026-05-01T13:08:56.999Z</time></trkpt><trkpt lat="45.91244359024533" lon="13.93056150451156"><ele>851.0</ele><time>2026-05-01T13:08:57.999Z</time></trkpt><trkpt lat="45.91250766479068" lon="13.930605773651273"><ele>851.0000000000001</ele><time>2026-05-01T13:08:58.999Z</time></trkpt><trkpt lat="45.91259069602394" lon="13.930577933023459"><ele>851.0</ele><time>2026-05-01T13:08:59.999Z</time></trkpt><trkpt lat="45.91265016932285" lon="13.93029816906632"><ele>846.8</ele><time>2026-05-01T13:09:01.999Z</time></trkpt><trkpt lat="45.912679676912475" lon="13.93017183291985"><ele>842.5999999999999</ele><time>2026-05-01T13:09:03Z</time></trkpt><trkpt lat="45.91275171401955" lon="13.930060140360748"><ele>838.4</ele><time>2026-05-01T13:09:04Z</time></trkpt><trkpt lat="45.91284776406011" lon="13.929983670273876"><ele>834.2</ele><time>2026-05-01T13:09:05Z</time></trkpt><trkpt lat="45.91294888937297" lon="13.929945646367853"><ele>830.0</ele><time>2026-05-01T13:09:06Z</time></trkpt><trkpt lat="45.9130440381579" lon="13.93000616871417"><ele>830.0</ele><time>2026-05-01T13:09:07Z</time></trkpt><trkpt lat="45.91313580537173" lon="13.930075157773908"><ele>830.0</ele><time>2026-05-01T13:09:08Z</time></trkpt><trkpt lat="45.913232119581316" lon="13.930150980213554"><ele>830.0</ele><time>2026-05-01T13:09:09Z</time></trkpt><trkpt lat="45.913322803618904" lon="13.93022237043785"><ele>830.0</ele><time>2026-05-01T13:09:10Z</time></trkpt><trkpt lat="45.91342734260717" lon="13.930304667977818"><ele>830.0</ele><time>2026-05-01T13:09:11Z</time></trkpt><trkpt lat="45.91353691363936" lon="13.930363281719384"><ele>829.8</ele><time>2026-05-01T13:09:12Z</time></trkpt><trkpt lat="45.91364032611964" lon="13.930374032372669"><ele>829.6</ele><time>2026-05-01T13:09:13Z</time></trkpt><trkpt lat="45.91372890402038" lon="13.93037579555732"><ele>829.4000000000001</ele><time>2026-05-01T13:09:14Z</time></trkpt><trkpt lat="45.91379889481691" lon="13.930385152189471"><ele>829.2</ele><time>2026-05-01T13:09:15Z</time></trkpt><trkpt lat="45.91393220818268" lon="13.930459403789131"><ele>829.0</ele><time>2026-05-01T13:09:17Z</time></trkpt><trkpt lat="45.91400278445989" lon="13.930571964269243"><ele>829.0</ele><time>2026-05-01T13:09:18Z</time></trkpt><trkpt lat="45.914074682467835" lon="13.93070103093104"><ele>829.0</ele><time>2026-05-01T13:09:19Z</time></trkpt><trkpt lat="45.91415518324555" lon="13.930834652841732"><ele>829.0</ele><time>2026-05-01T13:09:20Z</time></trkpt><trkpt lat="45.914234444882794" lon="13.930981663317478"><ele>829.0</ele><time>2026-05-01T13:09:21Z</time></trkpt><trkpt lat="45.914321416650836" lon="13.931120067257194"><ele>825.75</ele><time>2026-05-01T13:09:22Z</time></trkpt><trkpt lat="45.91441743719712" lon="13.93125127764708"><ele>822.5</ele><time>2026-05-01T13:09:23Z</time></trkpt><trkpt lat="45.914510095344575" lon="13.931382786691524"><ele>819.25</ele><time>2026-05-01T13:09:24Z</time></trkpt><trkpt lat="45.91459068328941" lon="13.931508247741599"><ele>816.0</ele><time>2026-05-01T13:09:25Z</time></trkpt><trkpt lat="45.914665527931234" lon="13.931628406907407"><ele>817.1999999999999</ele><time>2026-05-01T13:09:26Z</time></trkpt><trkpt lat="45.91473155879668" lon="13.931738851036037"><ele>818.4</ele><time>2026-05-01T13:09:27Z</time></trkpt><trkpt lat="45.91478107082406" lon="13.93186143718378"><ele>819.6</ele><time>2026-05-01T13:09:28Z</time></trkpt><trkpt lat="45.9147958154282" lon="13.93201429269055"><ele>820.8</ele><time>2026-05-01T13:09:29Z</time></trkpt><trkpt lat="45.914768995719946" lon="13.932176254150326"><ele>822.0</ele><time>2026-05-01T13:09:30Z</time></trkpt><trkpt lat="45.91474061855075" lon="13.932339946250034"><ele>822.0</ele><time>2026-05-01T13:09:31Z</time></trkpt><trkpt lat="45.914717733173674" lon="13.93250485692619"><ele>822.0</ele><time>2026-05-01T13:09:31.999Z</time></trkpt><trkpt lat="45.91469429017462" lon="13.932676595213197"><ele>822.0</ele><time>2026-05-01T13:09:32.999Z</time></trkpt><trkpt lat="45.91467405511016" lon="13.932840718128846"><ele>822.0</ele><time>2026-05-01T13:09:33.999Z</time></trkpt><trkpt lat="45.914648988771724" lon="13.93301122388277"><ele>822.75</ele><time>2026-05-01T13:09:34.999Z</time></trkpt><trkpt lat="45.91460033479394" lon="13.933163204542971"><ele>823.5</ele><time>2026-05-01T13:09:35.999Z</time></trkpt><trkpt lat="45.91451336974472" lon="13.933277776097048"><ele>824.25</ele><time>2026-05-01T13:09:36.999Z</time></trkpt><trkpt lat="45.91440156169286" lon="13.933348753773782"><ele>825.0</ele><time>2026-05-01T13:09:37.999Z</time></trkpt><trkpt lat="45.914276914236794" lon="13.933359698223022"><ele>827.5</ele><time>2026-05-01T13:09:38.999Z</time></trkpt><trkpt lat="45.91415599223749" lon="13.933430856306805"><ele>830.0</ele><time>2026-05-01T13:09:39.999Z</time></trkpt><trkpt lat="45.91405525196428" lon="13.933552988227538"><ele>832.5</ele><time>2026-05-01T13:09:40.999Z</time></trkpt><trkpt lat="45.913958150374306" lon="13.933679540369784"><ele>835.0</ele><time>2026-05-01T13:09:41.999Z</time></trkpt><trkpt lat="45.91387113062983" lon="13.933822789320061"><ele>835.0</ele><time>2026-05-01T13:09:42.999Z</time></trkpt><trkpt lat="45.91378438313352" lon="13.933963772819588"><ele>835.0</ele><time>2026-05-01T13:09:43.999Z</time></trkpt><trkpt lat="45.913690193659356" lon="13.934098980568622"><ele>835.0</ele><time>2026-05-01T13:09:44.999Z</time></trkpt><trkpt lat="45.91358898646522" lon="13.93423366059877"><ele>835.0</ele><time>2026-05-01T13:09:45.999Z</time></trkpt><trkpt lat="45.91348721225232" lon="13.934374624757517"><ele>836.25</ele><time>2026-05-01T13:09:46.999Z</time></trkpt><trkpt lat="45.9133859261585" lon="13.934520189704411"><ele>837.5</ele><time>2026-05-01T13:09:47.999Z</time></trkpt><trkpt lat="45.91328836008954" lon="13.934669671412786"><ele>838.75</ele><time>2026-05-01T13:09:48.999Z</time></trkpt><trkpt lat="45.91319638613637" lon="13.934824790057501"><ele>840.0</ele><time>2026-05-01T13:09:49.999Z</time></trkpt><trkpt lat="45.91311694876297" lon="13.9349899365242"><ele>840.5</ele><time>2026-05-01T13:09:50.999Z</time></trkpt><trkpt lat="45.91305407132334" lon="13.9351619936102"><ele>841.0</ele><time>2026-05-01T13:09:51.999Z</time></trkpt><trkpt lat="45.91299884789302" lon="13.935333399459587"><ele>841.5</ele><time>2026-05-01T13:09:52.999Z</time></trkpt><trkpt lat="45.91294002951549" lon="13.935497761200232"><ele>842.0</ele><time>2026-05-01T13:09:53.999Z</time></trkpt><trkpt lat="45.912880966155285" lon="13.93565615594498"><ele>842.0</ele><time>2026-05-01T13:09:54.999Z</time></trkpt><trkpt lat="45.91282443250154" lon="13.935817292567746"><ele>842.0</ele><time>2026-05-01T13:09:55.999Z</time></trkpt><trkpt lat="45.912767148571334" lon="13.93597392235169"><ele>842.0</ele><time>2026-05-01T13:09:56.999Z</time></trkpt><trkpt lat="45.91270627250403" lon="13.936127490706422"><ele>842.0</ele><time>2026-05-01T13:09:57.999Z</time></trkpt><trkpt lat="45.91264744141613" lon="13.936284811840636"><ele>841.75</ele><time>2026-05-01T13:09:58.999Z</time></trkpt><trkpt lat="45.912591733821394" lon="13.936449504690655"><ele>841.5</ele><time>2026-05-01T13:09:59.999Z</time></trkpt><trkpt lat="45.91253551772864" lon="13.936613620847485"><ele>841.25</ele><time>2026-05-01T13:10:00.999Z</time></trkpt><trkpt lat="45.91247756478913" lon="13.936779672512131"><ele>841.0</ele><time>2026-05-01T13:10:01.999Z</time></trkpt><trkpt lat="45.912423481986316" lon="13.936950663397567"><ele>841.0</ele><time>2026-05-01T13:10:02.999Z</time></trkpt><trkpt lat="45.91237637228428" lon="13.93712598078526"><ele>841.0</ele><time>2026-05-01T13:10:03.999Z</time></trkpt><trkpt lat="45.91232747069761" lon="13.937298873254106"><ele>841.0</ele><time>2026-05-01T13:10:04.999Z</time></trkpt><trkpt lat="45.91226464792281" lon="13.937454780882952"><ele>841.0</ele><time>2026-05-01T13:10:05.999Z</time></trkpt><trkpt lat="45.91219459677212" lon="13.937610880186547"><ele>841.0</ele><time>2026-05-01T13:10:06.999Z</time></trkpt><trkpt lat="45.91214099512802" lon="13.937780052552824"><ele>841.0</ele><time>2026-05-01T13:10:07.999Z</time></trkpt><trkpt lat="45.91210263150866" lon="13.937958505107597"><ele>841.0</ele><time>2026-05-01T13:10:08.999Z</time></trkpt><trkpt lat="45.91207374084364" lon="13.938136171972793"><ele>841.0</ele><time>2026-05-01T13:10:09.999Z</time></trkpt><trkpt lat="45.91203641753182" lon="13.938313265646736"><ele>841.25</ele><time>2026-05-01T13:10:10.999Z</time></trkpt><trkpt lat="45.91202573687117" lon="13.938492394309726"><ele>841.5</ele><time>2026-05-01T13:10:11.999Z</time></trkpt><trkpt lat="45.91199113602134" lon="13.93866599677289"><ele>841.75</ele><time>2026-05-01T13:10:12.999Z</time></trkpt><trkpt lat="45.91195573889606" lon="13.93884212940674"><ele>842.0</ele><time>2026-05-01T13:10:13.999Z</time></trkpt><trkpt lat="45.91194604759203" lon="13.939024084291686"><ele>842.0</ele><time>2026-05-01T13:10:14.999Z</time></trkpt><trkpt lat="45.91197569203091" lon="13.939209948516059"><ele>842.0</ele><time>2026-05-01T13:10:15.999Z</time></trkpt><trkpt lat="45.91203025456725" lon="13.939382617176127"><ele>842.0</ele><time>2026-05-01T13:10:16.999Z</time></trkpt><trkpt lat="45.91209141391299" lon="13.93954798344939"><ele>842.0</ele><time>2026-05-01T13:10:17.999Z</time></trkpt><trkpt lat="45.912131502248045" lon="13.93971796669036"><ele>844.25</ele><time>2026-05-01T13:10:18.999Z</time></trkpt><trkpt lat="45.91211975510075" lon="13.939890952721582"><ele>846.5</ele><time>2026-05-01T13:10:19.999Z</time></trkpt><trkpt lat="45.91210171985486" lon="13.940065656264903"><ele>848.75</ele><time>2026-05-01T13:10:20.999Z</time></trkpt><trkpt lat="45.912116302519806" lon="13.940243300450279"><ele>851.0</ele><time>2026-05-01T13:10:21.999Z</time></trkpt><trkpt lat="45.91215500495534" lon="13.940418514383477"><ele>854.5</ele><time>2026-05-01T13:10:22.999Z</time></trkpt><trkpt lat="45.91219954096633" lon="13.94058858059373"><ele>858.0</ele><time>2026-05-01T13:10:23.999Z</time></trkpt><trkpt lat="45.912249264451" lon="13.940752798782698"><ele>861.5</ele><time>2026-05-01T13:10:24.999Z</time></trkpt><trkpt lat="45.912312776878686" lon="13.94090651036319"><ele>865.0</ele><time>2026-05-01T13:10:25.999Z</time></trkpt><trkpt lat="45.912376790205755" lon="13.941047399821665"><ele>866.75</ele><time>2026-05-01T13:10:26.999Z</time></trkpt><trkpt lat="45.91242149162405" lon="13.941195488218721"><ele>868.5</ele><time>2026-05-01T13:10:27.999Z</time></trkpt><trkpt lat="45.91243839992442" lon="13.94136047340759"><ele>870.25</ele><time>2026-05-01T13:10:28.999Z</time></trkpt><trkpt lat="45.91245074484287" lon="13.941532030238394"><ele>872.0</ele><time>2026-05-01T13:10:29.999Z</time></trkpt><trkpt lat="45.91246338414161" lon="13.941704502169552"><ele>874.0</ele><time>2026-05-01T13:10:30.999Z</time></trkpt><trkpt lat="45.912475062443" lon="13.94187317111763"><ele>876.0</ele><time>2026-05-01T13:10:31.999Z</time></trkpt><trkpt lat="45.91249341563335" lon="13.942033077688052"><ele>878.0</ele><time>2026-05-01T13:10:32.999Z</time></trkpt><trkpt lat="45.91250946125294" lon="13.942165005306855"><ele>880.0</ele><time>2026-05-01T13:10:33.999Z</time></trkpt><trkpt lat="45.91258912158094" lon="13.94227236755889"><ele>882.0</ele><time>2026-05-01T13:10:34.999Z</time></trkpt><trkpt lat="45.91268963145835" lon="13.94234968607183"><ele>882.25</ele><time>2026-05-01T13:10:35.999Z</time></trkpt><trkpt lat="45.91281004685835" lon="13.94239205239732"><ele>882.5</ele><time>2026-05-01T13:10:36.999Z</time></trkpt><trkpt lat="45.91292055973479" lon="13.942469050412095"><ele>882.75</ele><time>2026-05-01T13:10:37.999Z</time></trkpt><trkpt lat="45.91302805798516" lon="13.942523252892759"><ele>883.0</ele><time>2026-05-01T13:10:38.999Z</time></trkpt><trkpt lat="45.913093943446135" lon="13.94264948226221"><ele>883.0</ele><time>2026-05-01T13:10:39.999Z</time></trkpt><trkpt lat="45.91311794994218" lon="13.942813465104175"><ele>883.0</ele><time>2026-05-01T13:10:40.999Z</time></trkpt><trkpt lat="45.91310361623537" lon="13.942987116858253"><ele>883.0</ele><time>2026-05-01T13:10:41.999Z</time></trkpt><trkpt lat="45.91302861645019" lon="13.943132951222072"><ele>883.0</ele><time>2026-05-01T13:10:42.999Z</time></trkpt><trkpt lat="45.91294038436441" lon="13.943272138675805"><ele>882.0</ele><time>2026-05-01T13:10:43.999Z</time></trkpt><trkpt lat="45.91285330526638" lon="13.94343320145601"><ele>881.0</ele><time>2026-05-01T13:10:44.999Z</time></trkpt><trkpt lat="45.912756890827254" lon="13.943594680153957"><ele>880.0</ele><time>2026-05-01T13:10:45.999Z</time></trkpt><trkpt lat="45.91265417805092" lon="13.943731910257313"><ele>879.0</ele><time>2026-05-01T13:10:46.999Z</time></trkpt><trkpt lat="45.91254796532989" lon="13.94383200685085"><ele>878.0</ele><time>2026-05-01T13:10:47.999Z</time></trkpt><trkpt lat="45.91244493205951" lon="13.943914709149757"><ele>877.0</ele><time>2026-05-01T13:10:48.999Z</time></trkpt><trkpt lat="45.91233900867785" lon="13.94397065152669"><ele>876.0</ele><time>2026-05-01T13:10:49.999Z</time></trkpt><trkpt lat="45.912226820020926" lon="13.943975309899512"><ele>875.0</ele><time>2026-05-01T13:10:50.999Z</time></trkpt><trkpt lat="45.91212416475342" lon="13.943917255493275"><ele>875.0</ele><time>2026-05-01T13:10:51.999Z</time></trkpt><trkpt lat="45.912028602540005" lon="13.943838634247351"><ele>875.0</ele><time>2026-05-01T13:10:52.999Z</time></trkpt><trkpt lat="45.91193076565347" lon="13.943790192230496"><ele>875.0</ele><time>2026-05-01T13:10:53.999Z</time></trkpt><trkpt lat="45.911829619109085" lon="13.943786861863897"><ele>875.0</ele><time>2026-05-01T13:10:54.999Z</time></trkpt><trkpt lat="45.91174243158673" lon="13.943793197627175"><ele>875.0</ele><time>2026-05-01T13:10:55.999Z</time></trkpt><trkpt lat="45.91166853193563" lon="13.943847634432414"><ele>872.6</ele><time>2026-05-01T13:10:56.999Z</time></trkpt><trkpt lat="45.91159536679551" lon="13.943886891266688"><ele>870.2</ele><time>2026-05-01T13:10:57.999Z</time></trkpt><trkpt lat="45.911516731465056" lon="13.943927927089282"><ele>867.8</ele><time>2026-05-01T13:10:58.999Z</time></trkpt><trkpt lat="45.9114321887046" lon="13.943965501848027"><ele>865.4</ele><time>2026-05-01T13:10:59.999Z</time></trkpt><trkpt lat="45.91132674659486" lon="13.943954372368026"><ele>863.0</ele><time>2026-05-01T13:11:00.999Z</time></trkpt><trkpt lat="45.91121587430029" lon="13.943932367846001"><ele>863.0</ele><time>2026-05-01T13:11:01.999Z</time></trkpt><trkpt lat="45.91106807540882" lon="13.9438887905297"><ele>863.0</ele><time>2026-05-01T13:11:02.999Z</time></trkpt><trkpt lat="45.91088984843626" lon="13.943887018428743"><ele>863.0</ele><time>2026-05-01T13:11:03.999Z</time></trkpt><trkpt lat="45.91071641776234" lon="13.943938274700182"><ele>862.3333333333334</ele><time>2026-05-01T13:11:05Z</time></trkpt><trkpt lat="45.91054510050209" lon="13.943977755004099"><ele>861.6666666666667</ele><time>2026-05-01T13:11:06Z</time></trkpt><trkpt lat="45.910373755575506" lon="13.943995577334249"><ele>861.0</ele><time>2026-05-01T13:11:07Z</time></trkpt><trkpt lat="45.910210944410316" lon="13.944004667225093"><ele>861.0</ele><time>2026-05-01T13:11:08Z</time></trkpt><trkpt lat="45.910051915099125" lon="13.943970787817163"><ele>861.0</ele><time>2026-05-01T13:11:09Z</time></trkpt><trkpt lat="45.909883808683304" lon="13.943976015469266"><ele>861.0</ele><time>2026-05-01T13:11:10Z</time></trkpt><trkpt lat="45.909727397648304" lon="13.94406453012376"><ele>861.0</ele><time>2026-05-01T13:11:11Z</time></trkpt><trkpt lat="45.90956982558514" lon="13.944178254463646"><ele>861.0</ele><time>2026-05-01T13:11:12Z</time></trkpt><trkpt lat="45.909420108716034" lon="13.9442327973767"><ele>861.0</ele><time>2026-05-01T13:11:13Z</time></trkpt><trkpt lat="45.90926552492198" lon="13.944276661333742"><ele>851.0</ele><time>2026-05-01T13:11:14Z</time></trkpt><trkpt lat="45.9091026203688" lon="13.944315872050607"><ele>841.0</ele><time>2026-05-01T13:11:15Z</time></trkpt><trkpt lat="45.908940156966516" lon="13.944367654055592"><ele>831.0</ele><time>2026-05-01T13:11:16Z</time></trkpt><trkpt lat="45.908778310047595" lon="13.94437533282456"><ele>831.0</ele><time>2026-05-01T13:11:17Z</time></trkpt><trkpt lat="45.90861773139207" lon="13.944422935804486"><ele>831.0</ele><time>2026-05-01T13:11:18Z</time></trkpt><trkpt lat="45.9084654280619" lon="13.94447029828193"><ele>831.0</ele><time>2026-05-01T13:11:19Z</time></trkpt><trkpt lat="45.90831309300231" lon="13.944524711598152"><ele>831.3333333333333</ele><time>2026-05-01T13:11:20Z</time></trkpt><trkpt lat="45.90817195157522" lon="13.944629457238984"><ele>831.6666666666666</ele><time>2026-05-01T13:11:21Z</time></trkpt><trkpt lat="45.90802461197036" lon="13.944717041662683"><ele>832.0</ele><time>2026-05-01T13:11:22Z</time></trkpt><trkpt lat="45.90788544766374" lon="13.94483272953033"><ele>832.0</ele><time>2026-05-01T13:11:23Z</time></trkpt><trkpt lat="45.90774557842054" lon="13.944931725663196"><ele>832.0</ele><time>2026-05-01T13:11:24Z</time></trkpt><trkpt lat="45.907597525746425" lon="13.944976106717036"><ele>832.0</ele><time>2026-05-01T13:11:25Z</time></trkpt><trkpt lat="45.907455670424035" lon="13.945052997344982"><ele>828.3333333333333</ele><time>2026-05-01T13:11:26Z</time></trkpt><trkpt lat="45.90732262388637" lon="13.945139124513483"><ele>824.6666666666667</ele><time>2026-05-01T13:11:27Z</time></trkpt><trkpt lat="45.90718286892874" lon="13.945237591895868"><ele>821.0</ele><time>2026-05-01T13:11:28Z</time></trkpt><trkpt lat="45.907077285307096" lon="13.945406031094187"><ele>821.0</ele><time>2026-05-01T13:11:29Z</time></trkpt><trkpt lat="45.906979561022695" lon="13.94558434108395"><ele>821.0</ele><time>2026-05-01T13:11:30Z</time></trkpt><trkpt lat="45.906877651532255" lon="13.94575580127087"><ele>821.0</ele><time>2026-05-01T13:11:31Z</time></trkpt><trkpt lat="45.90678290636897" lon="13.945938914999388"><ele>820.0</ele><time>2026-05-01T13:11:32Z</time></trkpt><trkpt lat="45.90669943178433" lon="13.946134625599615"><ele>819.0</ele><time>2026-05-01T13:11:33Z</time></trkpt><trkpt lat="45.906594490501774" lon="13.946302136965432"><ele>818.0</ele><time>2026-05-01T13:11:34Z</time></trkpt><trkpt lat="45.906465400820856" lon="13.946424984401185"><ele>818.0</ele><time>2026-05-01T13:11:35Z</time></trkpt><trkpt lat="45.90630942061716" lon="13.946488558045475"><ele>818.0</ele><time>2026-05-01T13:11:36Z</time></trkpt><trkpt lat="45.906149678832215" lon="13.94652598790392"><ele>818.0</ele><time>2026-05-01T13:11:37Z</time></trkpt><trkpt lat="45.90597761034049" lon="13.946536336432175"><ele>815.3333333333334</ele><time>2026-05-01T13:11:38Z</time></trkpt><trkpt lat="45.90580245920182" lon="13.94654935657464"><ele>812.6666666666667</ele><time>2026-05-01T13:11:39Z</time></trkpt><trkpt lat="45.905621994993695" lon="13.946610230696281"><ele>810.0</ele><time>2026-05-01T13:11:39.999Z</time></trkpt><trkpt lat="45.905438378393804" lon="13.946683972982317"><ele>809.0</ele><time>2026-05-01T13:11:40.999Z</time></trkpt><trkpt lat="45.905263462230366" lon="13.946737643965719"><ele>808.0</ele><time>2026-05-01T13:11:41.999Z</time></trkpt><trkpt lat="45.90509806118254" lon="13.946792421390269"><ele>807.0</ele><time>2026-05-01T13:11:42.999Z</time></trkpt><trkpt lat="45.90492790829779" lon="13.94684192201591"><ele>805.6666666666667</ele><time>2026-05-01T13:11:43.999Z</time></trkpt><trkpt lat="45.904758755220946" lon="13.94692429648492"><ele>804.3333333333334</ele><time>2026-05-01T13:11:44.999Z</time></trkpt><trkpt lat="45.90459433326504" lon="13.947049348849868"><ele>803.0</ele><time>2026-05-01T13:11:45.999Z</time></trkpt><trkpt lat="45.904474828401376" lon="13.947268997426619"><ele>803.0</ele><time>2026-05-01T13:11:46.999Z</time></trkpt><trkpt lat="45.90435621208689" lon="13.947510106084707"><ele>803.0</ele><time>2026-05-01T13:11:47.999Z</time></trkpt><trkpt lat="45.90423981021268" lon="13.947772907117765"><ele>803.0</ele><time>2026-05-01T13:11:48.999Z</time></trkpt><trkpt lat="45.90413470932862" lon="13.948029778040453"><ele>801.0</ele><time>2026-05-01T13:11:49.999Z</time></trkpt><trkpt lat="45.90404261422525" lon="13.948291329429196"><ele>799.0</ele><time>2026-05-01T13:11:50.999Z</time></trkpt><trkpt lat="45.90397231073068" lon="13.948579751261473"><ele>797.0</ele><time>2026-05-01T13:11:51.999Z</time></trkpt><trkpt lat="45.90391102582117" lon="13.948874766720976"><ele>797.0</ele><time>2026-05-01T13:11:52.999Z</time></trkpt><trkpt lat="45.903875545469866" lon="13.949105152246856"><ele>797.0</ele><time>2026-05-01T13:11:53.999Z</time></trkpt><trkpt lat="45.903853730339584" lon="13.949357818514807"><ele>797.0</ele><time>2026-05-01T13:11:54.999Z</time></trkpt><trkpt lat="45.9038554015203" lon="13.949587907984256"><ele>797.5</ele><time>2026-05-01T13:11:55.999Z</time></trkpt><trkpt lat="45.903859194565115" lon="13.949781976411758"><ele>798.0</ele><time>2026-05-01T13:11:56.999Z</time></trkpt><trkpt lat="45.90375998500489" lon="13.94990845230669"><ele>798.5</ele><time>2026-05-01T13:11:57.999Z</time></trkpt><trkpt lat="45.903659880755036" lon="13.950066552071402"><ele>799.0</ele><time>2026-05-01T13:11:58.999Z</time></trkpt><trkpt lat="45.90353005373686" lon="13.9502081031638"><ele>797.3333333333333</ele><time>2026-05-01T13:11:59.999Z</time></trkpt><trkpt lat="45.90337823690429" lon="13.95035394598206"><ele>795.6666666666667</ele><time>2026-05-01T13:12:00.999Z</time></trkpt><trkpt lat="45.903243129335685" lon="13.95048260816918"><ele>794.0</ele><time>2026-05-01T13:12:01.999Z</time></trkpt><trkpt lat="45.90310003070306" lon="13.950591645346456"><ele>794.0</ele><time>2026-05-01T13:12:02.999Z</time></trkpt><trkpt lat="45.90296708560308" lon="13.950725475115846"><ele>794.0</ele><time>2026-05-01T13:12:03.999Z</time></trkpt><trkpt lat="45.90284343414081" lon="13.950864129736157"><ele>794.0</ele><time>2026-05-01T13:12:04.999Z</time></trkpt><trkpt lat="45.90275802888907" lon="13.951069159559358"><ele>795.0</ele><time>2026-05-01T13:12:05.999Z</time></trkpt><trkpt lat="45.902675307153096" lon="13.951270130463003"><ele>796.0</ele><time>2026-05-01T13:12:06.999Z</time></trkpt><trkpt lat="45.90256276439858" lon="13.951434187170124"><ele>797.0</ele><time>2026-05-01T13:12:07.999Z</time></trkpt><trkpt lat="45.90245048834589" lon="13.951596873288421"><ele>794.6666666666667</ele><time>2026-05-01T13:12:08.999Z</time></trkpt><trkpt lat="45.902358073171996" lon="13.951783789667848"><ele>792.3333333333333</ele><time>2026-05-01T13:12:09.999Z</time></trkpt><trkpt lat="45.90228084312965" lon="13.951994855386909"><ele>790.0</ele><time>2026-05-01T13:12:10.999Z</time></trkpt><trkpt lat="45.90222037031215" lon="13.952223391307275"><ele>790.0</ele><time>2026-05-01T13:12:11.999Z</time></trkpt><trkpt lat="45.90215946967774" lon="13.952444577996975"><ele>790.0</ele><time>2026-05-01T13:12:12.999Z</time></trkpt><trkpt lat="45.902060581554686" lon="13.9526280632341"><ele>790.0</ele><time>2026-05-01T13:12:13.999Z</time></trkpt><trkpt lat="45.90195692249516" lon="13.952795669958501"><ele>790.6666666666666</ele><time>2026-05-01T13:12:14.999Z</time></trkpt><trkpt lat="45.9018401975943" lon="13.952962377565026"><ele>791.3333333333333</ele><time>2026-05-01T13:12:15.999Z</time></trkpt><trkpt lat="45.90171731354552" lon="13.95313018810679"><ele>792.0</ele><time>2026-05-01T13:12:16.999Z</time></trkpt><trkpt lat="45.901616358731175" lon="13.95333031280586"><ele>790.0</ele><time>2026-05-01T13:12:17.999Z</time></trkpt><trkpt lat="45.90151533983689" lon="13.953530853496716"><ele>788.0</ele><time>2026-05-01T13:12:18.999Z</time></trkpt><trkpt lat="45.9014230973537" lon="13.953742614381458"><ele>786.0</ele><time>2026-05-01T13:12:19.999Z</time></trkpt><trkpt lat="45.90130047719737" lon="13.953903743660682"><ele>786.0</ele><time>2026-05-01T13:12:20.999Z</time></trkpt><trkpt lat="45.90118491397634" lon="13.95406504452936"><ele>786.0</ele><time>2026-05-01T13:12:21.999Z</time></trkpt><trkpt lat="45.901076881195436" lon="13.954214469175392"><ele>786.0</ele><time>2026-05-01T13:12:22.999Z</time></trkpt><trkpt lat="45.900976848150606" lon="13.954364607851682"><ele>785.25</ele><time>2026-05-01T13:12:23.999Z</time></trkpt><trkpt lat="45.90089738865169" lon="13.954529178106888"><ele>784.5</ele><time>2026-05-01T13:12:24.999Z</time></trkpt><trkpt lat="45.90080432459723" lon="13.95468983173841"><ele>783.75</ele><time>2026-05-01T13:12:25.999Z</time></trkpt><trkpt lat="45.90070944586676" lon="13.95486310444954"><ele>783.0</ele><time>2026-05-01T13:12:26.999Z</time></trkpt><trkpt lat="45.90062142683179" lon="13.955056714612418"><ele>780.3333333333333</ele><time>2026-05-01T13:12:27.999Z</time></trkpt><trkpt lat="45.90053182226957" lon="13.955243347088363"><ele>777.6666666666666</ele><time>2026-05-01T13:12:28.999Z</time></trkpt><trkpt lat="45.90042341883054" lon="13.955409467751718"><ele>775.0</ele><time>2026-05-01T13:12:29.999Z</time></trkpt><trkpt lat="45.90030705890032" lon="13.955536939130164"><ele>775.0</ele><time>2026-05-01T13:12:30.999Z</time></trkpt><trkpt lat="45.90017495492773" lon="13.955656718789365"><ele>775.0</ele><time>2026-05-01T13:12:31.999Z</time></trkpt><trkpt lat="45.90007603073457" lon="13.95581507435089"><ele>775.0</ele><time>2026-05-01T13:12:32.999Z</time></trkpt><trkpt lat="45.8999977998712" lon="13.956029102539558"><ele>775.3333333333333</ele><time>2026-05-01T13:12:33.999Z</time></trkpt><trkpt lat="45.89994137821638" lon="13.956260967333009"><ele>775.6666666666667</ele><time>2026-05-01T13:12:34.999Z</time></trkpt><trkpt lat="45.899832512453145" lon="13.956457018560013"><ele>776.0</ele><time>2026-05-01T13:12:35.999Z</time></trkpt><trkpt lat="45.89969617495141" lon="13.956639062646737"><ele>774.6666666666667</ele><time>2026-05-01T13:12:36.999Z</time></trkpt><trkpt lat="45.89959222983091" lon="13.956888651155243"><ele>773.3333333333333</ele><time>2026-05-01T13:12:37.999Z</time></trkpt><trkpt lat="45.89950330270128" lon="13.957138939437522"><ele>772.0</ele><time>2026-05-01T13:12:38.999Z</time></trkpt><trkpt lat="45.89941860131467" lon="13.957393709778021"><ele>772.0</ele><time>2026-05-01T13:12:39.999Z</time></trkpt><trkpt lat="45.899314789315525" lon="13.95762491822514"><ele>772.0</ele><time>2026-05-01T13:12:40.999Z</time></trkpt><trkpt lat="45.89918066352621" lon="13.957857721989138"><ele>772.0</ele><time>2026-05-01T13:12:41.999Z</time></trkpt><trkpt lat="45.89904801185887" lon="13.958096726772323"><ele>772.0</ele><time>2026-05-01T13:12:42.999Z</time></trkpt><trkpt lat="45.898921850957656" lon="13.958324986435915"><ele>772.0</ele><time>2026-05-01T13:12:43.999Z</time></trkpt><trkpt lat="45.89880405103266" lon="13.958551306899572"><ele>772.0</ele><time>2026-05-01T13:12:44.999Z</time></trkpt><trkpt lat="45.89869898532418" lon="13.958758659759186"><ele>772.0</ele><time>2026-05-01T13:12:45.999Z</time></trkpt><trkpt lat="45.89859902814387" lon="13.95896406112982"><ele>772.0</ele><time>2026-05-01T13:12:46.999Z</time></trkpt><trkpt lat="45.89850584515682" lon="13.959177197634174"><ele>772.0</ele><time>2026-05-01T13:12:47.999Z</time></trkpt><trkpt lat="45.8984370835396" lon="13.959400818083672"><ele>770.6666666666666</ele><time>2026-05-01T13:12:48.999Z</time></trkpt><trkpt lat="45.89836952436832" lon="13.95960881243619"><ele>769.3333333333333</ele><time>2026-05-01T13:12:49.999Z</time></trkpt><trkpt lat="45.898349369205064" lon="13.959826250789845"><ele>768.0</ele><time>2026-05-01T13:12:50.999Z</time></trkpt><trkpt lat="45.89839107436594" lon="13.960047267303606"><ele>765.0</ele><time>2026-05-01T13:12:51.999Z</time></trkpt><trkpt lat="45.89833305591095" lon="13.960231338324478"><ele>762.0</ele><time>2026-05-01T13:12:53Z</time></trkpt><trkpt lat="45.898226332328555" lon="13.960366847619134"><ele>759.0</ele><time>2026-05-01T13:12:54Z</time></trkpt><trkpt lat="45.89813485576268" lon="13.960559750999435"><ele>756.0</ele><time>2026-05-01T13:12:55Z</time></trkpt><trkpt lat="45.898073673094835" lon="13.960786263011494"><ele>753.6666666666666</ele><time>2026-05-01T13:12:56Z</time></trkpt><trkpt lat="45.89803302438425" lon="13.96104409450237"><ele>751.3333333333333</ele><time>2026-05-01T13:12:57Z</time></trkpt><trkpt lat="45.89800700976844" lon="13.961319121403383"><ele>749.0</ele><time>2026-05-01T13:12:58Z</time></trkpt><trkpt lat="45.89797723087423" lon="13.961589785005925"><ele>748.6666666666666</ele><time>2026-05-01T13:12:59Z</time></trkpt><trkpt lat="45.8979546206493" lon="13.961843336863028"><ele>748.3333333333334</ele><time>2026-05-01T13:13:00Z</time></trkpt><trkpt lat="45.897887568228064" lon="13.962053820363906"><ele>748.0</ele><time>2026-05-01T13:13:01Z</time></trkpt><trkpt lat="45.89777944883692" lon="13.962231066730787"><ele>748.0</ele><time>2026-05-01T13:13:02Z</time></trkpt><trkpt lat="45.89763566090562" lon="13.962427129500838"><ele>748.0</ele><time>2026-05-01T13:13:03Z</time></trkpt><trkpt lat="45.897496466043116" lon="13.962666318525184"><ele>748.0</ele><time>2026-05-01T13:13:04Z</time></trkpt><trkpt lat="45.89737356825377" lon="13.962922002422493"><ele>748.3333333333334</ele><time>2026-05-01T13:13:05Z</time></trkpt><trkpt lat="45.89728928780283" lon="13.963210386373948"><ele>748.6666666666666</ele><time>2026-05-01T13:13:06Z</time></trkpt><trkpt lat="45.89723778237979" lon="13.963489718981213"><ele>749.0</ele><time>2026-05-01T13:13:07Z</time></trkpt><trkpt lat="45.89721367416246" lon="13.9637646752599"><ele>749.3333333333333</ele><time>2026-05-01T13:13:08Z</time></trkpt><trkpt lat="45.8972289503891" lon="13.964022119945717"><ele>749.6666666666666</ele><time>2026-05-01T13:13:09Z</time></trkpt><trkpt lat="45.897270400299874" lon="13.96425527055708"><ele>750.0</ele><time>2026-05-01T13:13:10Z</time></trkpt><trkpt lat="45.8973154540758" lon="13.964478781111863"><ele>750.0</ele><time>2026-05-01T13:13:11Z</time></trkpt><trkpt lat="45.897359429888034" lon="13.964697676526669"><ele>750.0</ele><time>2026-05-01T13:13:12Z</time></trkpt><trkpt lat="45.897424989532766" lon="13.964919275505613"><ele>750.0</ele><time>2026-05-01T13:13:13Z</time></trkpt><trkpt lat="45.897516112392694" lon="13.965112136816602"><ele>744.6666666666666</ele><time>2026-05-01T13:13:14Z</time></trkpt><trkpt lat="45.89764502591505" lon="13.965274940767879"><ele>739.3333333333333</ele><time>2026-05-01T13:13:15Z</time></trkpt><trkpt lat="45.89780878224145" lon="13.965397355836044"><ele>734.0</ele><time>2026-05-01T13:13:16Z</time></trkpt><trkpt lat="45.89799655932252" lon="13.96548596478324"><ele>734.0</ele><time>2026-05-01T13:13:17Z</time></trkpt><trkpt lat="45.89817412443094" lon="13.965555546730918"><ele>734.0</ele><time>2026-05-01T13:13:18Z</time></trkpt><trkpt lat="45.898322178944085" lon="13.965679185408645"><ele>734.0</ele><time>2026-05-01T13:13:19Z</time></trkpt><trkpt lat="45.89845538988175" lon="13.965817010464818"><ele>734.25</ele><time>2026-05-01T13:13:20Z</time></trkpt><trkpt lat="45.89853914103497" lon="13.966006072302992"><ele>734.5</ele><time>2026-05-01T13:13:21Z</time></trkpt><trkpt lat="45.89856851125492" lon="13.966206130856605"><ele>734.75</ele><time>2026-05-01T13:13:22Z</time></trkpt><trkpt lat="45.8985713601854" lon="13.966386753085173"><ele>735.0</ele><time>2026-05-01T13:13:23Z</time></trkpt><trkpt lat="45.89851482133959" lon="13.966529269260686"><ele>735.0</ele><time>2026-05-01T13:13:24Z</time></trkpt><trkpt lat="45.898433258561816" lon="13.96662963183334"><ele>735.0</ele><time>2026-05-01T13:13:25Z</time></trkpt><trkpt lat="45.898310804287874" lon="13.966614355914752"><ele>735.0</ele><time>2026-05-01T13:13:26Z</time></trkpt><trkpt lat="45.898208978307615" lon="13.966684205676367"><ele>735.0</ele><time>2026-05-01T13:13:27Z</time></trkpt><trkpt lat="45.89812487939343" lon="13.966778512119028"><ele>731.0</ele><time>2026-05-01T13:13:28Z</time></trkpt><trkpt lat="45.89807441152444" lon="13.966929228895399"><ele>727.0</ele><time>2026-05-01T13:13:29Z</time></trkpt><trkpt lat="45.89807437575727" lon="13.967130529600407"><ele>723.0</ele><time>2026-05-01T13:13:30Z</time></trkpt><trkpt lat="45.89812069881301" lon="13.967371718005595"><ele>719.0</ele><time>2026-05-01T13:13:31Z</time></trkpt><trkpt lat="45.89815364125237" lon="13.96758121938966"><ele>716.3333333333333</ele><time>2026-05-01T13:13:32Z</time></trkpt><trkpt lat="45.8981027330892" lon="13.967786834151607"><ele>713.6666666666666</ele><time>2026-05-01T13:13:33Z</time></trkpt><trkpt lat="45.89801853767671" lon="13.967996625113535"><ele>711.0</ele><time>2026-05-01T13:13:34Z</time></trkpt><trkpt lat="45.89788695690389" lon="13.968180818385747"><ele>711.0</ele><time>2026-05-01T13:13:35Z</time></trkpt><trkpt lat="45.897744435169784" lon="13.968377109255195"><ele>711.0</ele><time>2026-05-01T13:13:36Z</time></trkpt><trkpt lat="45.89759070375481" lon="13.968569118407343"><ele>711.0</ele><time>2026-05-01T13:13:37Z</time></trkpt><trkpt lat="45.8974475392008" lon="13.96878117582257"><ele>710.6666666666666</ele><time>2026-05-01T13:13:38Z</time></trkpt><trkpt lat="45.897313227764464" lon="13.969002873074079"><ele>710.3333333333333</ele><time>2026-05-01T13:13:39Z</time></trkpt><trkpt lat="45.89719186027418" lon="13.969242596218924"><ele>710.0</ele><time>2026-05-01T13:13:40Z</time></trkpt><trkpt lat="45.89709440738198" lon="13.969506608974658"><ele>709.5</ele><time>2026-05-01T13:13:41Z</time></trkpt><trkpt lat="45.89702253044073" lon="13.969806013396544"><ele>709.0</ele><time>2026-05-01T13:13:42Z</time></trkpt><trkpt lat="45.89697341468388" lon="13.970137743425699"><ele>707.3333333333334</ele><time>2026-05-01T13:13:43Z</time></trkpt><trkpt lat="45.896954303542714" lon="13.970461015855609"><ele>705.6666666666666</ele><time>2026-05-01T13:13:44Z</time></trkpt><trkpt lat="45.896939732129134" lon="13.97076748965738"><ele>704.0</ele><time>2026-05-01T13:13:45Z</time></trkpt><trkpt lat="45.896919061651815" lon="13.971061381831662"><ele>704.0</ele><time>2026-05-01T13:13:46Z</time></trkpt><trkpt lat="45.89689339505287" lon="13.971347633214215"><ele>704.0</ele><time>2026-05-01T13:13:47Z</time></trkpt><trkpt lat="45.896870499651875" lon="13.971613016230906"><ele>704.0</ele><time>2026-05-01T13:13:48Z</time></trkpt><trkpt lat="45.896850850372054" lon="13.971860921417495"><ele>705.0</ele><time>2026-05-01T13:13:49Z</time></trkpt><trkpt lat="45.89681593465836" lon="13.972091572111077"><ele>706.0</ele><time>2026-05-01T13:13:50Z</time></trkpt><trkpt lat="45.896759537842236" lon="13.972290775291636"><ele>707.0</ele><time>2026-05-01T13:13:51Z</time></trkpt><trkpt lat="45.89668014363523" lon="13.972471417414207"><ele>708.6666666666666</ele><time>2026-05-01T13:13:52Z</time></trkpt><trkpt lat="45.89655070606328" lon="13.97258892179656"><ele>710.3333333333334</ele><time>2026-05-01T13:13:53Z</time></trkpt><trkpt lat="45.89641041406403" lon="13.972704878371012"><ele>712.0</ele><time>2026-05-01T13:13:54Z</time></trkpt><trkpt lat="45.89626691910872" lon="13.972842807693775"><ele>712.0</ele><time>2026-05-01T13:13:55Z</time></trkpt><trkpt lat="45.8961292695232" lon="13.972982508915132"><ele>712.0</ele><time>2026-05-01T13:13:56Z</time></trkpt><trkpt lat="45.89601445459597" lon="13.97314772587426"><ele>712.0</ele><time>2026-05-01T13:13:57Z</time></trkpt><trkpt lat="45.89592756578696" lon="13.973323040617549"><ele>710.75</ele><time>2026-05-01T13:13:58Z</time></trkpt><trkpt lat="45.89586159087544" lon="13.973495116789941"><ele>709.5</ele><time>2026-05-01T13:13:59Z</time></trkpt><trkpt lat="45.89579078367232" lon="13.973670916683563"><ele>708.25</ele><time>2026-05-01T13:14:00Z</time></trkpt><trkpt lat="45.895711696458974" lon="13.973866729415558"><ele>707.0</ele><time>2026-05-01T13:14:01Z</time></trkpt><trkpt lat="45.895625033591635" lon="13.974089169700491"><ele>704.6666666666666</ele><time>2026-05-01T13:14:02Z</time></trkpt><trkpt lat="45.895542839995194" lon="13.974316351591732"><ele>702.3333333333334</ele><time>2026-05-01T13:14:03Z</time></trkpt><trkpt lat="45.89545804822233" lon="13.97456060166033"><ele>700.0</ele><time>2026-05-01T13:14:04Z</time></trkpt><trkpt lat="45.895343181411434" lon="13.974782484133847"><ele>700.0</ele><time>2026-05-01T13:14:05Z</time></trkpt><trkpt lat="45.895212413264595" lon="13.97499035702825"><ele>700.0</ele><time>2026-05-01T13:14:06Z</time></trkpt><trkpt lat="45.895063240617965" lon="13.975182937649791"><ele>700.0</ele><time>2026-05-01T13:14:07Z</time></trkpt><trkpt lat="45.89491102076345" lon="13.975370482274503"><ele>701.3333333333334</ele><time>2026-05-01T13:14:08Z</time></trkpt><trkpt lat="45.89476033585498" lon="13.975570153744089"><ele>702.6666666666666</ele><time>2026-05-01T13:14:09Z</time></trkpt><trkpt lat="45.8946342469514" lon="13.975816271104245"><ele>704.0</ele><time>2026-05-01T13:14:10Z</time></trkpt><trkpt lat="45.89450960428148" lon="13.976063293198902"><ele>703.0</ele><time>2026-05-01T13:14:11Z</time></trkpt><trkpt lat="45.89439658881505" lon="13.976327783766095"><ele>702.0</ele><time>2026-05-01T13:14:12Z</time></trkpt><trkpt lat="45.89426461621563" lon="13.976583323372871"><ele>701.0</ele><time>2026-05-01T13:14:13Z</time></trkpt><trkpt lat="45.89413825311944" lon="13.976852482301325"><ele>701.0</ele><time>2026-05-01T13:14:14Z</time></trkpt><trkpt lat="45.894012033360895" lon="13.977127481094444"><ele>701.0</ele><time>2026-05-01T13:14:15Z</time></trkpt><trkpt lat="45.893884780056744" lon="13.977406492360187"><ele>703.5</ele><time>2026-05-01T13:14:16Z</time></trkpt><trkpt lat="45.89376386390188" lon="13.977688877068559"><ele>706.0</ele><time>2026-05-01T13:14:17Z</time></trkpt><trkpt lat="45.89366691885498" lon="13.977981534201229"><ele>706.0</ele><time>2026-05-01T13:14:18Z</time></trkpt><trkpt lat="45.89354754612624" lon="13.978236115293853"><ele>706.0</ele><time>2026-05-01T13:14:19Z</time></trkpt><trkpt lat="45.89343285354053" lon="13.97846423738864"><ele>706.0</ele><time>2026-05-01T13:14:20Z</time></trkpt><trkpt lat="45.893317258045364" lon="13.978683399537479"><ele>705.6666666666667</ele><time>2026-05-01T13:14:21Z</time></trkpt><trkpt lat="45.89319216271537" lon="13.97887859152594"><ele>705.3333333333334</ele><time>2026-05-01T13:14:22Z</time></trkpt><trkpt lat="45.89302753164468" lon="13.979050345499543"><ele>705.0</ele><time>2026-05-01T13:14:23Z</time></trkpt><trkpt lat="45.89283421750059" lon="13.979192518442778"><ele>705.0</ele><time>2026-05-01T13:14:24Z</time></trkpt><trkpt lat="45.89265341208672" lon="13.979375118292173"><ele>705.0</ele><time>2026-05-01T13:14:24.999Z</time></trkpt><trkpt lat="45.89247021529918" lon="13.97956072309635"><ele>705.0</ele><time>2026-05-01T13:14:25.999Z</time></trkpt><trkpt lat="45.892310801364424" lon="13.979801105592758"><ele>700.6666666666666</ele><time>2026-05-01T13:14:26.999Z</time></trkpt><trkpt lat="45.89218223765252" lon="13.980068253535567"><ele>696.3333333333333</ele><time>2026-05-01T13:14:27.999Z</time></trkpt><trkpt lat="45.89206565931378" lon="13.980311043562171"><ele>692.0</ele><time>2026-05-01T13:14:28.999Z</time></trkpt><trkpt lat="45.89194582412205" lon="13.980540763489056"><ele>692.0</ele><time>2026-05-01T13:14:29.999Z</time></trkpt><trkpt lat="45.891839147702434" lon="13.980779946205011"><ele>692.0</ele><time>2026-05-01T13:14:30.999Z</time></trkpt><trkpt lat="45.891725288743736" lon="13.980990319901204"><ele>692.0</ele><time>2026-05-01T13:14:31.999Z</time></trkpt><trkpt lat="45.891585121722244" lon="13.981146172152217"><ele>690.6666666666666</ele><time>2026-05-01T13:14:32.999Z</time></trkpt><trkpt lat="45.89142915834366" lon="13.981318626305749"><ele>689.3333333333334</ele><time>2026-05-01T13:14:33.999Z</time></trkpt><trkpt lat="45.891269083622134" lon="13.981502620737285"><ele>688.0</ele><time>2026-05-01T13:14:34.999Z</time></trkpt><trkpt lat="45.89112895350808" lon="13.981736893460173"><ele>688.0</ele><time>2026-05-01T13:14:35.999Z</time></trkpt><trkpt lat="45.89098904843962" lon="13.98198185130015"><ele>688.0</ele><time>2026-05-01T13:14:36.999Z</time></trkpt><trkpt lat="45.89083950358977" lon="13.982220159642633"><ele>688.0</ele><time>2026-05-01T13:14:37.999Z</time></trkpt><trkpt lat="45.89069582662394" lon="13.982470994683327"><ele>681.5</ele><time>2026-05-01T13:14:38.999Z</time></trkpt><trkpt lat="45.89055356304334" lon="13.982719360404628"><ele>675.0</ele><time>2026-05-01T13:14:39.999Z</time></trkpt><trkpt lat="45.890408919205875" lon="13.98297187930288"><ele>675.0</ele><time>2026-05-01T13:14:40.999Z</time></trkpt><trkpt lat="45.89026360583598" lon="13.983225567069692"><ele>675.0</ele><time>2026-05-01T13:14:41.999Z</time></trkpt><trkpt lat="45.89012980782022" lon="13.983498410531189"><ele>669.0</ele><time>2026-05-01T13:14:42.999Z</time></trkpt><trkpt lat="45.88997579869366" lon="13.983753109584615"><ele>663.0</ele><time>2026-05-01T13:14:43.999Z</time></trkpt><trkpt lat="45.88982453543889" lon="13.984011776746547"><ele>663.5</ele><time>2026-05-01T13:14:44.999Z</time></trkpt><trkpt lat="45.88967781541914" lon="13.984274032004675"><ele>664.0</ele><time>2026-05-01T13:14:45.999Z</time></trkpt><trkpt lat="45.88953315243533" lon="13.984541265256341"><ele>664.0</ele><time>2026-05-01T13:14:46.999Z</time></trkpt><trkpt lat="45.88939387868151" lon="13.984807396718681"><ele>664.0</ele><time>2026-05-01T13:14:47.999Z</time></trkpt><trkpt lat="45.88926041292347" lon="13.985077561420844"><ele>655.0</ele><time>2026-05-01T13:14:48.999Z</time></trkpt><trkpt lat="45.88913258675776" lon="13.985351240482315"><ele>646.0</ele><time>2026-05-01T13:14:49.999Z</time></trkpt><trkpt lat="45.88901269572242" lon="13.985623507346894"><ele>646.0</ele><time>2026-05-01T13:14:50.999Z</time></trkpt><trkpt lat="45.888891171435944" lon="13.985890156271289"><ele>646.0</ele><time>2026-05-01T13:14:51.999Z</time></trkpt><trkpt lat="45.888763697752985" lon="13.986162166773228"><ele>646.0</ele><time>2026-05-01T13:14:52.999Z</time></trkpt><trkpt lat="45.88863897696038" lon="13.986436351382721"><ele>646.0</ele><time>2026-05-01T13:14:53.999Z</time></trkpt><trkpt lat="45.888513378334075" lon="13.986708459734908"><ele>639.0</ele><time>2026-05-01T13:14:54.999Z</time></trkpt><trkpt lat="45.88839848111824" lon="13.98698916601564"><ele>632.0</ele><time>2026-05-01T13:14:55.999Z</time></trkpt><trkpt lat="45.88829100488263" lon="13.987282251187033"><ele>632.3333333333333</ele><time>2026-05-01T13:14:56.999Z</time></trkpt><trkpt lat="45.88818806530392" lon="13.98757035442317"><ele>632.6666666666666</ele><time>2026-05-01T13:14:57.999Z</time></trkpt><trkpt lat="45.88807181102393" lon="13.987842419974648"><ele>633.0</ele><time>2026-05-01T13:14:59Z</time></trkpt><trkpt lat="45.8879402645677" lon="13.988094814984901"><ele>633.0</ele><time>2026-05-01T13:15:00Z</time></trkpt><trkpt lat="45.887809476537036" lon="13.988340921143092"><ele>633.0</ele><time>2026-05-01T13:15:01Z</time></trkpt><trkpt lat="45.887668717173995" lon="13.988578106025486"><ele>633.0</ele><time>2026-05-01T13:15:02Z</time></trkpt><trkpt lat="45.88751992512331" lon="13.988797135183072"><ele>631.6666666666666</ele><time>2026-05-01T13:15:03Z</time></trkpt><trkpt lat="45.887361408215" lon="13.989011588684825"><ele>630.3333333333333</ele><time>2026-05-01T13:15:04Z</time></trkpt><trkpt lat="45.887213331934" lon="13.989240394138209"><ele>629.0</ele><time>2026-05-01T13:15:05Z</time></trkpt><trkpt lat="45.88708770421798" lon="13.989488189990894"><ele>628.0</ele><time>2026-05-01T13:15:06Z</time></trkpt><trkpt lat="45.88697984965101" lon="13.989755046118056"><ele>627.0</ele><time>2026-05-01T13:15:07Z</time></trkpt><trkpt lat="45.886862338719446" lon="13.990011239111999"><ele>626.0</ele><time>2026-05-01T13:15:08Z</time></trkpt><trkpt lat="45.88672812513788" lon="13.990257684751802"><ele>625.6666666666666</ele><time>2026-05-01T13:15:09Z</time></trkpt><trkpt lat="45.886582600758544" lon="13.990488364903937"><ele>625.3333333333334</ele><time>2026-05-01T13:15:10Z</time></trkpt><trkpt lat="45.8864210781895" lon="13.99071015567594"><ele>625.0</ele><time>2026-05-01T13:15:11Z</time></trkpt><trkpt lat="45.886264250594984" lon="13.990938540811575"><ele>625.0</ele><time>2026-05-01T13:15:12Z</time></trkpt><trkpt lat="45.886123970306976" lon="13.99119378626009"><ele>625.0</ele><time>2026-05-01T13:15:13Z</time></trkpt><trkpt lat="45.885993058799436" lon="13.991465096101901"><ele>624.5</ele><time>2026-05-01T13:15:14Z</time></trkpt><trkpt lat="45.88585641866627" lon="13.991735945343587"><ele>624.0</ele><time>2026-05-01T13:15:15Z</time></trkpt><trkpt lat="45.8857209756238" lon="13.99200283002367"><ele>624.0</ele><time>2026-05-01T13:15:16Z</time></trkpt><trkpt lat="45.8855974773363" lon="13.992289030778146"><ele>624.0</ele><time>2026-05-01T13:15:17Z</time></trkpt><trkpt lat="45.88550492889296" lon="13.992600636312984"><ele>623.5</ele><time>2026-05-01T13:15:18Z</time></trkpt><trkpt lat="45.88543356536363" lon="13.992923513614272"><ele>623.0</ele><time>2026-05-01T13:15:19Z</time></trkpt><trkpt lat="45.885355214422454" lon="13.993247097894141"><ele>621.6666666666666</ele><time>2026-05-01T13:15:20Z</time></trkpt><trkpt lat="45.88528076906244" lon="13.993558542154426"><ele>620.3333333333334</ele><time>2026-05-01T13:15:21Z</time></trkpt><trkpt lat="45.8852433796771" lon="13.993856636629703"><ele>619.0</ele><time>2026-05-01T13:15:22Z</time></trkpt><trkpt lat="45.88525319821353" lon="13.994143581935122"><ele>620.0</ele><time>2026-05-01T13:15:23Z</time></trkpt><trkpt lat="45.88529877509552" lon="13.99440994484385"><ele>621.0</ele><time>2026-05-01T13:15:24Z</time></trkpt><trkpt lat="45.88531591688188" lon="13.994650283031788"><ele>622.0</ele><time>2026-05-01T13:15:25Z</time></trkpt><trkpt lat="45.88526591921976" lon="13.994900965036251"><ele>622.0</ele><time>2026-05-01T13:15:26Z</time></trkpt><trkpt lat="45.88514073665184" lon="13.995143124172298"><ele>622.0</ele><time>2026-05-01T13:15:27Z</time></trkpt><trkpt lat="45.88499296188854" lon="13.995404926752071"><ele>622.0</ele><time>2026-05-01T13:15:28Z</time></trkpt><trkpt lat="45.884856935585546" lon="13.995679809483722"><ele>623.5</ele><time>2026-05-01T13:15:29Z</time></trkpt><trkpt lat="45.884727949024104" lon="13.995962804002227"><ele>625.0</ele><time>2026-05-01T13:15:30Z</time></trkpt><trkpt lat="45.88460253582233" lon="13.996250122065637"><ele>625.0</ele><time>2026-05-01T13:15:31Z</time></trkpt><trkpt lat="45.88448142197331" lon="13.99651851753358"><ele>625.0</ele><time>2026-05-01T13:15:32Z</time></trkpt><trkpt lat="45.88436811144687" lon="13.996775383192235"><ele>625.0</ele><time>2026-05-01T13:15:33Z</time></trkpt><trkpt lat="45.88425708406762" lon="13.997012801357918"><ele>626.3333333333334</ele><time>2026-05-01T13:15:34Z</time></trkpt><trkpt lat="45.884167044079256" lon="13.997245120706545"><ele>627.6666666666666</ele><time>2026-05-01T13:15:35Z</time></trkpt><trkpt lat="45.8840925293017" lon="13.99746439299267"><ele>629.0</ele><time>2026-05-01T13:15:36Z</time></trkpt><trkpt lat="45.88401457849264" lon="13.997689810864921"><ele>629.0</ele><time>2026-05-01T13:15:37Z</time></trkpt><trkpt lat="45.88394731925533" lon="13.997846517727023"><ele>629.0</ele><time>2026-05-01T13:15:38Z</time></trkpt><trkpt lat="45.88385116423985" lon="13.997996121975397"><ele>629.0</ele><time>2026-05-01T13:15:39Z</time></trkpt><trkpt lat="45.88373819908385" lon="13.998126015754945"><ele>629.0</ele><time>2026-05-01T13:15:40Z</time></trkpt><trkpt lat="45.88361436101638" lon="13.998245136366771"><ele>628.0</ele><time>2026-05-01T13:15:41Z</time></trkpt><trkpt lat="45.883494933116125" lon="13.998371678343423"><ele>627.0</ele><time>2026-05-01T13:15:42Z</time></trkpt><trkpt lat="45.88336761191033" lon="13.99848433518836"><ele>626.0</ele><time>2026-05-01T13:15:43Z</time></trkpt><trkpt lat="45.88323561121314" lon="13.998590339345897"><ele>625.0</ele><time>2026-05-01T13:15:44Z</time></trkpt><trkpt lat="45.88310076374009" lon="13.998689688473547"><ele>625.0</ele><time>2026-05-01T13:15:45Z</time></trkpt><trkpt lat="45.8829582714647" lon="13.998779443731703"><ele>625.0</ele><time>2026-05-01T13:15:46Z</time></trkpt><trkpt lat="45.88281559263073" lon="13.998872700711729"><ele>625.0</ele><time>2026-05-01T13:15:47Z</time></trkpt><trkpt lat="45.88267596970249" lon="13.998975300008851"><ele>625.6666666666667</ele><time>2026-05-01T13:15:48Z</time></trkpt><trkpt lat="45.88254104979204" lon="13.999089441787506"><ele>626.3333333333334</ele><time>2026-05-01T13:15:49Z</time></trkpt><trkpt lat="45.8824123912531" lon="13.999224153862704"><ele>627.0</ele><time>2026-05-01T13:15:50Z</time></trkpt><trkpt lat="45.88229842230033" lon="13.999371813200293"><ele>624.5</ele><time>2026-05-01T13:15:51Z</time></trkpt><trkpt lat="45.88220989695116" lon="13.999527915739248"><ele>622.0</ele><time>2026-05-01T13:15:52Z</time></trkpt><trkpt lat="45.88214281651098" lon="13.999689776841679"><ele>619.5</ele><time>2026-05-01T13:15:53Z</time></trkpt><trkpt lat="45.8820853205488" lon="13.999838229881716"><ele>617.0</ele><time>2026-05-01T13:15:54Z</time></trkpt><trkpt lat="45.882032598025475" lon="13.999973335998613"><ele>617.0</ele><time>2026-05-01T13:15:55Z</time></trkpt><trkpt lat="45.88197970735012" lon="14.000102914999681"><ele>617.0</ele><time>2026-05-01T13:15:56Z</time></trkpt><trkpt lat="45.88192791893265" lon="14.000223011515555"><ele>617.0</ele><time>2026-05-01T13:15:57Z</time></trkpt><trkpt lat="45.88187856960912" lon="14.000342118612009"><ele>617.0</ele><time>2026-05-01T13:15:58Z</time></trkpt><trkpt lat="45.88183216429733" lon="14.000460431474982"><ele>617.0</ele><time>2026-05-01T13:15:59Z</time></trkpt><trkpt lat="45.88179102040552" lon="14.000575462954188"><ele>618.3333333333333</ele><time>2026-05-01T13:16:00Z</time></trkpt><trkpt lat="45.88175180912835" lon="14.000685490437375"><ele>619.6666666666666</ele><time>2026-05-01T13:16:01Z</time></trkpt><trkpt lat="45.88171232990731" lon="14.000801218203861"><ele>621.0</ele><time>2026-05-01T13:16:02Z</time></trkpt><trkpt lat="45.88167574354236" lon="14.000914254947556"><ele>622.3333333333334</ele><time>2026-05-01T13:16:03Z</time></trkpt><trkpt lat="45.88164209264186" lon="14.001028094915227"><ele>623.6666666666667</ele><time>2026-05-01T13:16:04Z</time></trkpt><trkpt lat="45.88160593116728" lon="14.001140519570884"><ele>625.0</ele><time>2026-05-01T13:16:05Z</time></trkpt><trkpt lat="45.88157760143537" lon="14.001259927046426"><ele>625.0</ele><time>2026-05-01T13:16:06Z</time></trkpt><trkpt lat="45.881545706463484" lon="14.001368060335809"><ele>625.0</ele><time>2026-05-01T13:16:07Z</time></trkpt><trkpt lat="45.88150224951257" lon="14.001445688223816"><ele>625.0</ele><time>2026-05-01T13:16:08Z</time></trkpt><trkpt lat="45.88143699825311" lon="14.001472011153034"><ele>625.0</ele><time>2026-05-01T13:16:09Z</time></trkpt><trkpt lat="45.881363623574074" lon="14.001416374797897"><ele>625.0</ele><time>2026-05-01T13:16:10Z</time></trkpt><trkpt lat="45.881315599107225" lon="14.00127663428507"><ele>625.0</ele><time>2026-05-01T13:16:11Z</time></trkpt><trkpt lat="45.88123907840456" lon="14.001161665213154"><ele>625.0</ele><time>2026-05-01T13:16:12Z</time></trkpt><trkpt lat="45.88116751915138" lon="14.001003365156299"><ele>625.0</ele><time>2026-05-01T13:16:13Z</time></trkpt><trkpt lat="45.881098200668546" lon="14.000820653979876"><ele>625.0</ele><time>2026-05-01T13:16:14Z</time></trkpt><trkpt lat="45.88104546527273" lon="14.000613506501491"><ele>625.0</ele><time>2026-05-01T13:16:15Z</time></trkpt><trkpt lat="45.88100854832156" lon="14.000385688531154"><ele>626.0</ele><time>2026-05-01T13:16:16Z</time></trkpt><trkpt lat="45.88099314184323" lon="14.000143923529158"><ele>627.0</ele><time>2026-05-01T13:16:17Z</time></trkpt><trkpt lat="45.88098766395082" lon="13.999898859491099"><ele>628.0</ele><time>2026-05-01T13:16:18Z</time></trkpt><trkpt lat="45.88099045716901" lon="13.999657838216775"><ele>628.0</ele><time>2026-05-01T13:16:19Z</time></trkpt><trkpt lat="45.88098827591131" lon="13.999428462287328"><ele>628.0</ele><time>2026-05-01T13:16:20Z</time></trkpt><trkpt lat="45.88098713379472" lon="13.99919881249154"><ele>628.0</ele><time>2026-05-01T13:16:21Z</time></trkpt><trkpt lat="45.880982708220365" lon="13.998982543340277"><ele>628.0</ele><time>2026-05-01T13:16:22Z</time></trkpt><trkpt lat="45.880974946067106" lon="13.99877226208921"><ele>628.0</ele><time>2026-05-01T13:16:23Z</time></trkpt><trkpt lat="45.880966133069045" lon="13.998564010814228"><ele>628.0</ele><time>2026-05-01T13:16:24Z</time></trkpt><trkpt lat="45.88096092412261" lon="13.99835342186483"><ele>628.0</ele><time>2026-05-01T13:16:25Z</time></trkpt><trkpt lat="45.88095921453529" lon="13.998135554698976"><ele>632.3333333333334</ele><time>2026-05-01T13:16:26Z</time></trkpt><trkpt lat="45.88096130320372" lon="13.997914603200103"><ele>636.6666666666666</ele><time>2026-05-01T13:16:27Z</time></trkpt><trkpt lat="45.88097072261371" lon="13.997689935253698"><ele>641.0</ele><time>2026-05-01T13:16:28Z</time></trkpt><trkpt lat="45.88099152066134" lon="13.997465685737176"><ele>643.6666666666666</ele><time>2026-05-01T13:16:29Z</time></trkpt><trkpt lat="45.8810130116165" lon="13.997236608368986"><ele>646.3333333333334</ele><time>2026-05-01T13:16:30Z</time></trkpt><trkpt lat="45.88103554001574" lon="13.997010592004171"><ele>649.0</ele><time>2026-05-01T13:16:31Z</time></trkpt><trkpt lat="45.88106123351305" lon="13.996780540300955"><ele>646.6666666666667</ele><time>2026-05-01T13:16:32Z</time></trkpt><trkpt lat="45.88109301134297" lon="13.996552147886517"><ele>644.3333333333334</ele><time>2026-05-01T13:16:33Z</time></trkpt><trkpt lat="45.88112173027929" lon="13.996328191671623"><ele>642.0</ele><time>2026-05-01T13:16:34Z</time></trkpt><trkpt lat="45.881134766922706" lon="13.996105893295438"><ele>642.0</ele><time>2026-05-01T13:16:35Z</time></trkpt><trkpt lat="45.88113591221857" lon="13.99588811523773"><ele>642.0</ele><time>2026-05-01T13:16:36Z</time></trkpt><trkpt lat="45.88113995659706" lon="13.995671146607396"><ele>642.0</ele><time>2026-05-01T13:16:37Z</time></trkpt><trkpt lat="45.88115084579651" lon="13.995465366714008"><ele>642.0</ele><time>2026-05-01T13:16:38Z</time></trkpt><trkpt lat="45.881176252310354" lon="13.995261351829306"><ele>640.5</ele><time>2026-05-01T13:16:39Z</time></trkpt><trkpt lat="45.881223082289864" lon="13.99507012024619"><ele>639.0</ele><time>2026-05-01T13:16:40Z</time></trkpt><trkpt lat="45.88127707872268" lon="13.99486271901497"><ele>637.5</ele><time>2026-05-01T13:16:41Z</time></trkpt><trkpt lat="45.88132297763658" lon="13.994656043880376"><ele>636.0</ele><time>2026-05-01T13:16:42Z</time></trkpt><trkpt lat="45.88136665718536" lon="13.994445679842212"><ele>634.0</ele><time>2026-05-01T13:16:43Z</time></trkpt><trkpt lat="45.88141150842193" lon="13.994232586975214"><ele>632.0</ele><time>2026-05-01T13:16:44Z</time></trkpt><trkpt lat="45.88146077354884" lon="13.994009140617951"><ele>630.0</ele><time>2026-05-01T13:16:45Z</time></trkpt><trkpt lat="45.88151111616257" lon="13.9937822257062"><ele>625.0</ele><time>2026-05-01T13:16:46Z</time></trkpt><trkpt lat="45.881559199766116" lon="13.99354543256627"><ele>620.0</ele><time>2026-05-01T13:16:47Z</time></trkpt><trkpt lat="45.881607672750846" lon="13.993304682775777"><ele>615.0</ele><time>2026-05-01T13:16:48Z</time></trkpt><trkpt lat="45.88165030953834" lon="13.993051414717785"><ele>610.0</ele><time>2026-05-01T13:16:48.999Z</time></trkpt><trkpt lat="45.88167829869852" lon="13.99278976378116"><ele>605.0</ele><time>2026-05-01T13:16:49.999Z</time></trkpt><trkpt lat="45.88170071662273" lon="13.992521878267382"><ele>600.0</ele><time>2026-05-01T13:16:50.999Z</time></trkpt><trkpt lat="45.88172111161132" lon="13.992249275401148"><ele>597.3333333333334</ele><time>2026-05-01T13:16:51.999Z</time></trkpt><trkpt lat="45.8817398735899" lon="13.991968879113047"><ele>594.6666666666667</ele><time>2026-05-01T13:16:52.999Z</time></trkpt><trkpt lat="45.88176250076806" lon="13.991684256005788"><ele>592.0</ele><time>2026-05-01T13:16:53.999Z</time></trkpt><trkpt lat="45.881789565460714" lon="13.991400166937787"><ele>605.0</ele><time>2026-05-01T13:16:54.999Z</time></trkpt><trkpt lat="45.8818210485534" lon="13.991116846804587"><ele>618.0</ele><time>2026-05-01T13:16:55.999Z</time></trkpt><trkpt lat="45.88184861276806" lon="13.990838513246139"><ele>631.0</ele><time>2026-05-01T13:16:56.999Z</time></trkpt><trkpt lat="45.881847106074616" lon="13.99055336361248"><ele>631.0</ele><time>2026-05-01T13:16:57.999Z</time></trkpt><trkpt lat="45.88181248889631" lon="13.990286801167002"><ele>631.0</ele><time>2026-05-01T13:16:58.999Z</time></trkpt><trkpt lat="45.881782667263145" lon="13.990026756492277"><ele>631.0</ele><time>2026-05-01T13:16:59.999Z</time></trkpt><trkpt lat="45.881777851493595" lon="13.989767599922144"><ele>630.0</ele><time>2026-05-01T13:17:00.999Z</time></trkpt><trkpt lat="45.8817947990576" lon="13.989518461224822"><ele>629.0</ele><time>2026-05-01T13:17:01.999Z</time></trkpt><trkpt lat="45.88183738101206" lon="13.989273252247905"><ele>628.0</ele><time>2026-05-01T13:17:02.999Z</time></trkpt><trkpt lat="45.88192710414216" lon="13.989037555272644"><ele>623.3333333333334</ele><time>2026-05-01T13:17:03.999Z</time></trkpt><trkpt lat="45.882027421691554" lon="13.988817877162823"><ele>618.6666666666666</ele><time>2026-05-01T13:17:05Z</time></trkpt><trkpt lat="45.88213507259112" lon="13.988586444245318"><ele>614.0</ele><time>2026-05-01T13:17:06Z</time></trkpt><trkpt lat="45.88226711878501" lon="13.988379039470608"><ele>620.0</ele><time>2026-05-01T13:17:07Z</time></trkpt><trkpt lat="45.88239300756876" lon="13.988166032955043"><ele>626.0</ele><time>2026-05-01T13:17:08Z</time></trkpt><trkpt lat="45.88252850633124" lon="13.987952313772922"><ele>632.0</ele><time>2026-05-01T13:17:09Z</time></trkpt><trkpt lat="45.882675847357916" lon="13.987760360880827"><ele>632.0</ele><time>2026-05-01T13:17:10Z</time></trkpt><trkpt lat="45.882823292231485" lon="13.987569473893707"><ele>632.0</ele><time>2026-05-01T13:17:11Z</time></trkpt><trkpt lat="45.88294627380502" lon="13.987350719732905"><ele>632.0</ele><time>2026-05-01T13:17:12Z</time></trkpt><trkpt lat="45.88305391154725" lon="13.987114451205027"><ele>620.3333333333333</ele><time>2026-05-01T13:17:13Z</time></trkpt><trkpt lat="45.88314979317273" lon="13.986887378452366"><ele>608.6666666666666</ele><time>2026-05-01T13:17:14Z</time></trkpt><trkpt lat="45.88322531665497" lon="13.98666858309583"><ele>597.0</ele><time>2026-05-01T13:17:15Z</time></trkpt><trkpt lat="45.88326832188623" lon="13.986433254427013"><ele>588.3333333333334</ele><time>2026-05-01T13:17:16Z</time></trkpt><trkpt lat="45.88326283349791" lon="13.986154882818346"><ele>579.6666666666667</ele><time>2026-05-01T13:17:17Z</time></trkpt><trkpt lat="45.88323397582129" lon="13.985867782290297"><ele>571.0</ele><time>2026-05-01T13:17:18Z</time></trkpt><trkpt lat="45.88316575353211" lon="13.98559666691049"><ele>569.6666666666667</ele><time>2026-05-01T13:17:19Z</time></trkpt><trkpt lat="45.883067920124304" lon="13.985344413225404"><ele>568.3333333333334</ele><time>2026-05-01T13:17:20Z</time></trkpt><trkpt lat="45.883002161756664" lon="13.98506567370464"><ele>567.0</ele><time>2026-05-01T13:17:21Z</time></trkpt><trkpt lat="45.88297868772998" lon="13.984775198557646"><ele>570.6666666666666</ele><time>2026-05-01T13:17:22Z</time></trkpt><trkpt lat="45.88296130246514" lon="13.984473214100296"><ele>574.3333333333333</ele><time>2026-05-01T13:17:23Z</time></trkpt><trkpt lat="45.88293379052352" lon="13.984173352851334"><ele>578.0</ele><time>2026-05-01T13:17:24Z</time></trkpt><trkpt lat="45.882917681772334" lon="13.983867615137248"><ele>578.0</ele><time>2026-05-01T13:17:25Z</time></trkpt><trkpt lat="45.8828949101853" lon="13.983550468991593"><ele>578.0</ele><time>2026-05-01T13:17:26Z</time></trkpt><trkpt lat="45.88286760749767" lon="13.983233963260831"><ele>578.0</ele><time>2026-05-01T13:17:27Z</time></trkpt><trkpt lat="45.88285828850867" lon="13.982933015093808"><ele>578.3333333333333</ele><time>2026-05-01T13:17:28Z</time></trkpt><trkpt lat="45.882808033851134" lon="13.98264328763198"><ele>578.6666666666666</ele><time>2026-05-01T13:17:29Z</time></trkpt><trkpt lat="45.88275853485164" lon="13.982360388509107"><ele>579.0</ele><time>2026-05-01T13:17:30Z</time></trkpt><trkpt lat="45.88268181332816" lon="13.982084998054496"><ele>563.6666666666666</ele><time>2026-05-01T13:17:31Z</time></trkpt><trkpt lat="45.882587982493206" lon="13.981823246036898"><ele>548.3333333333333</ele><time>2026-05-01T13:17:32Z</time></trkpt><trkpt lat="45.88248205478965" lon="13.981574888614311"><ele>533.0</ele><time>2026-05-01T13:17:33Z</time></trkpt><trkpt lat="45.88234404460287" lon="13.981375619433969"><ele>533.0</ele><time>2026-05-01T13:17:34Z</time></trkpt><trkpt lat="45.882225683697094" lon="13.981174188881676"><ele>533.0</ele><time>2026-05-01T13:17:35Z</time></trkpt><trkpt lat="45.88210640010732" lon="13.980941177461823"><ele>533.0</ele><time>2026-05-01T13:17:36Z</time></trkpt><trkpt lat="45.88200887303312" lon="13.980661083433521"><ele>535.3333333333333</ele><time>2026-05-01T13:17:37Z</time></trkpt><trkpt lat="45.881956749609564" lon="13.980338747022998"><ele>537.6666666666666</ele><time>2026-05-01T13:17:38Z</time></trkpt><trkpt lat="45.88188539687153" lon="13.980125525221803"><ele>540.0</ele><time>2026-05-01T13:17:39Z</time></trkpt><trkpt lat="45.88182542793358" lon="13.979848047660552"><ele>541.3333333333334</ele><time>2026-05-01T13:17:40Z</time></trkpt><trkpt lat="45.881799840004625" lon="13.979573331923147"><ele>542.6666666666667</ele><time>2026-05-01T13:17:41Z</time></trkpt><trkpt lat="45.88180638679918" lon="13.979330347338944"><ele>544.0</ele><time>2026-05-01T13:17:42Z</time></trkpt><trkpt lat="45.88190123361401" lon="13.979116525060189"><ele>544.0</ele><time>2026-05-01T13:17:43Z</time></trkpt><trkpt lat="45.882012612295675" lon="13.978832426592863"><ele>544.0</ele><time>2026-05-01T13:17:44Z</time></trkpt><trkpt lat="45.88214248206986" lon="13.978556344846625"><ele>539.3333333333334</ele><time>2026-05-01T13:17:45Z</time></trkpt><trkpt lat="45.88223201350245" lon="13.978291101215081"><ele>534.6666666666666</ele><time>2026-05-01T13:17:46Z</time></trkpt><trkpt lat="45.88231105883668" lon="13.978037758050762"><ele>530.0</ele><time>2026-05-01T13:17:47Z</time></trkpt><trkpt lat="45.882335984606975" lon="13.977724188458787"><ele>528.3333333333333</ele><time>2026-05-01T13:17:48Z</time></trkpt><trkpt lat="45.88231937255188" lon="13.977425536791541"><ele>526.6666666666666</ele><time>2026-05-01T13:17:49Z</time></trkpt><trkpt lat="45.88226400722075" lon="13.977140614091509"><ele>525.0</ele><time>2026-05-01T13:17:50Z</time></trkpt><trkpt lat="45.882163153938656" lon="13.976848703599012"><ele>525.6666666666666</ele><time>2026-05-01T13:17:51Z</time></trkpt><trkpt lat="45.88203981827896" lon="13.976599620259591"><ele>526.3333333333333</ele><time>2026-05-01T13:17:52Z</time></trkpt><trkpt lat="45.88190253688119" lon="13.976392972258342"><ele>527.0</ele><time>2026-05-01T13:17:53Z</time></trkpt><trkpt lat="45.881767000753165" lon="13.9762148542318"><ele>518.3333333333333</ele><time>2026-05-01T13:17:54Z</time></trkpt><trkpt lat="45.88164965436007" lon="13.976037196855728"><ele>509.66666666666663</ele><time>2026-05-01T13:17:55Z</time></trkpt><trkpt lat="45.88156354554495" lon="13.975831767808227"><ele>501.0</ele><time>2026-05-01T13:17:56Z</time></trkpt><trkpt lat="45.881600341438094" lon="13.97562223835933"><ele>501.0</ele><time>2026-05-01T13:17:57Z</time></trkpt><trkpt lat="45.88162913007481" lon="13.975372830696324"><ele>501.0</ele><time>2026-05-01T13:17:58Z</time></trkpt><trkpt lat="45.8816854439285" lon="13.975080319530782"><ele>501.0</ele><time>2026-05-01T13:17:59Z</time></trkpt><trkpt lat="45.88176451739638" lon="13.974816998066299"><ele>512.6666666666666</ele><time>2026-05-01T13:18:00Z</time></trkpt><trkpt lat="45.88182822193907" lon="13.974571437050114"><ele>524.3333333333333</ele><time>2026-05-01T13:18:01Z</time></trkpt><trkpt lat="45.88188992925595" lon="13.974367829086983"><ele>536.0</ele><time>2026-05-01T13:18:02Z</time></trkpt><trkpt lat="45.88196136861962" lon="13.974201433204552"><ele>535.3333333333333</ele><time>2026-05-01T13:18:03Z</time></trkpt><trkpt lat="45.881909608422276" lon="13.973980494128497"><ele>534.6666666666666</ele><time>2026-05-01T13:18:04Z</time></trkpt><trkpt lat="45.881839224409894" lon="13.973791717202516"><ele>534.0</ele><time>2026-05-01T13:18:05Z</time></trkpt><trkpt lat="45.88170340496692" lon="13.973629471530975"><ele>519.6666666666666</ele><time>2026-05-01T13:18:06Z</time></trkpt><trkpt lat="45.88156487909296" lon="13.973499222473825"><ele>505.3333333333333</ele><time>2026-05-01T13:18:07Z</time></trkpt><trkpt lat="45.881457442334195" lon="13.973348766247762"><ele>491.0</ele><time>2026-05-01T13:18:08Z</time></trkpt><trkpt lat="45.88139719967279" lon="13.973125196712711"><ele>491.0</ele><time>2026-05-01T13:18:09Z</time></trkpt><trkpt lat="45.881350585220744" lon="13.972875187894587"><ele>491.0</ele><time>2026-05-01T13:18:10Z</time></trkpt><trkpt lat="45.88127093026916" lon="13.972637569346643"><ele>491.0</ele><time>2026-05-01T13:18:11Z</time></trkpt><trkpt lat="45.8811803200806" lon="13.972403089848582"><ele>494.66666666666663</ele><time>2026-05-01T13:18:12Z</time></trkpt><trkpt lat="45.8810932564105" lon="13.972153771231651"><ele>498.33333333333337</ele><time>2026-05-01T13:18:13Z</time></trkpt><trkpt lat="45.881002630479216" lon="13.97190593563785"><ele>502.0</ele><time>2026-05-01T13:18:14Z</time></trkpt><trkpt lat="45.88090158798643" lon="13.971689430543156"><ele>493.33333333333337</ele><time>2026-05-01T13:18:15Z</time></trkpt><trkpt lat="45.88078555189788" lon="13.971501830687156"><ele>484.66666666666663</ele><time>2026-05-01T13:18:16Z</time></trkpt><trkpt lat="45.880691133490814" lon="13.971305375410589"><ele>476.0</ele><time>2026-05-01T13:18:17Z</time></trkpt><trkpt lat="45.88061906538369" lon="13.97107628265052"><ele>478.3333333333333</ele><time>2026-05-01T13:18:18Z</time></trkpt><trkpt lat="45.88056402772309" lon="13.97083426924445"><ele>480.66666666666663</ele><time>2026-05-01T13:18:19Z</time></trkpt><trkpt lat="45.880536032816465" lon="13.97058317634381"><ele>483.0</ele><time>2026-05-01T13:18:20Z</time></trkpt><trkpt lat="45.880528548377896" lon="13.970327705455093"><ele>483.0</ele><time>2026-05-01T13:18:21Z</time></trkpt><trkpt lat="45.88055237819822" lon="13.970067136019736"><ele>483.0</ele><time>2026-05-01T13:18:22Z</time></trkpt><trkpt lat="45.88057815323845" lon="13.969797008351199"><ele>483.0</ele><time>2026-05-01T13:18:23Z</time></trkpt><trkpt lat="45.880580158248" lon="13.969541395361595"><ele>481.33333333333337</ele><time>2026-05-01T13:18:24Z</time></trkpt><trkpt lat="45.88054075627032" lon="13.969294869909982"><ele>479.6666666666667</ele><time>2026-05-01T13:18:25Z</time></trkpt><trkpt lat="45.8804509482274" lon="13.969066136828852"><ele>478.0</ele><time>2026-05-01T13:18:26Z</time></trkpt><trkpt lat="45.88031783176307" lon="13.968847068114684"><ele>478.0</ele><time>2026-05-01T13:18:27Z</time></trkpt><trkpt lat="45.88018983408128" lon="13.968618438791134"><ele>478.0</ele><time>2026-05-01T13:18:28Z</time></trkpt><trkpt lat="45.88008238895083" lon="13.96836464094606"><ele>478.0</ele><time>2026-05-01T13:18:29Z</time></trkpt><trkpt lat="45.87998230531522" lon="13.968089843307636"><ele>472.33333333333337</ele><time>2026-05-01T13:18:30Z</time></trkpt><trkpt lat="45.87988722690067" lon="13.96782954724292"><ele>466.66666666666663</ele><time>2026-05-01T13:18:31Z</time></trkpt><trkpt lat="45.879796079669" lon="13.967570913224888"><ele>461.0</ele><time>2026-05-01T13:18:32Z</time></trkpt><trkpt lat="45.87971032538908" lon="13.967323342177291"><ele>461.0</ele><time>2026-05-01T13:18:33Z</time></trkpt><trkpt lat="45.879623285778585" lon="13.967086823639047"><ele>461.0</ele><time>2026-05-01T13:18:34Z</time></trkpt><trkpt lat="45.879537151683195" lon="13.966857842913273"><ele>461.0</ele><time>2026-05-01T13:18:35Z</time></trkpt><trkpt lat="45.879457607455755" lon="13.966637854196964"><ele>463.5</ele><time>2026-05-01T13:18:36Z</time></trkpt><trkpt lat="45.879391529191146" lon="13.966445666874606"><ele>466.0</ele><time>2026-05-01T13:18:37Z</time></trkpt><trkpt lat="45.87933214905016" lon="13.966286972258295"><ele>468.5</ele><time>2026-05-01T13:18:38Z</time></trkpt><trkpt lat="45.879287650816316" lon="13.96616885739981"><ele>471.0</ele><time>2026-05-01T13:18:39Z</time></trkpt><trkpt lat="45.87920974977232" lon="13.96608312795275"><ele>471.0</ele><time>2026-05-01T13:18:41Z</time></trkpt><trkpt lat="45.879138192779614" lon="13.966191221075277"><ele>471.0</ele><time>2026-05-01T13:18:43Z</time></trkpt><trkpt lat="45.87916432309427" lon="13.966301485105417"><ele>471.0</ele><time>2026-05-01T13:18:44Z</time></trkpt><trkpt lat="45.8792169125037" lon="13.966437842018914"><ele>471.0</ele><time>2026-05-01T13:18:45Z</time></trkpt><trkpt lat="45.87928573384566" lon="13.966585277059986"><ele>471.0</ele><time>2026-05-01T13:18:46Z</time></trkpt><trkpt lat="45.87931960598678" lon="13.966729662927698"><ele>468.5</ele><time>2026-05-01T13:18:47Z</time></trkpt><trkpt lat="45.87932003106511" lon="13.966916012946367"><ele>466.0</ele><time>2026-05-01T13:18:48Z</time></trkpt><trkpt lat="45.87931626094879" lon="13.967108213187542"><ele>463.5</ele><time>2026-05-01T13:18:49Z</time></trkpt><trkpt lat="45.87934227633825" lon="13.967282594112582"><ele>461.0</ele><time>2026-05-01T13:18:50Z</time></trkpt><trkpt lat="45.87935720613161" lon="13.967440624370145"><ele>459.25</ele><time>2026-05-01T13:18:50.999Z</time></trkpt><trkpt lat="45.87938217954086" lon="13.967607356730412"><ele>457.5</ele><time>2026-05-01T13:18:51.999Z</time></trkpt><trkpt lat="45.87940346001405" lon="13.967771499401815"><ele>455.75</ele><time>2026-05-01T13:18:52.999Z</time></trkpt><trkpt lat="45.87942100414208" lon="13.967932872759807"><ele>454.0</ele><time>2026-05-01T13:18:53.999Z</time></trkpt><trkpt lat="45.87943928185372" lon="13.96808671098139"><ele>454.0</ele><time>2026-05-01T13:18:54.999Z</time></trkpt><trkpt lat="45.879448195565374" lon="13.968238835501555"><ele>454.0</ele><time>2026-05-01T13:18:55.999Z</time></trkpt><trkpt lat="45.87944795894211" lon="13.968385555206451"><ele>454.0</ele><time>2026-05-01T13:18:56.999Z</time></trkpt><trkpt lat="45.87943884073916" lon="13.968526425568493"><ele>454.0</ele><time>2026-05-01T13:18:57.999Z</time></trkpt><trkpt lat="45.87943279036766" lon="13.968676948159862"><ele>454.0</ele><time>2026-05-01T13:18:58.999Z</time></trkpt><trkpt lat="45.87943630161467" lon="13.968836174491436"><ele>454.0</ele><time>2026-05-01T13:18:59.999Z</time></trkpt><trkpt lat="45.87945453207792" lon="13.968998077146331"><ele>454.0</ele><time>2026-05-01T13:19:00.999Z</time></trkpt><trkpt lat="45.87948230836999" lon="13.969159091704007"><ele>454.0</ele><time>2026-05-01T13:19:01.999Z</time></trkpt><trkpt lat="45.879528220483714" lon="13.969318268175343"><ele>454.0</ele><time>2026-05-01T13:19:02.999Z</time></trkpt><trkpt lat="45.87955053250638" lon="13.969453914303369"><ele>454.0</ele><time>2026-05-01T13:19:03.999Z</time></trkpt><trkpt lat="45.87949225482496" lon="13.96960642378562"><ele>454.0</ele><time>2026-05-01T13:19:04.999Z</time></trkpt><trkpt lat="45.87944327850168" lon="13.969785464755601"><ele>454.0</ele><time>2026-05-01T13:19:05.999Z</time></trkpt><trkpt lat="45.87942595346853" lon="13.969945470068929"><ele>454.0</ele><time>2026-05-01T13:19:06.999Z</time></trkpt><trkpt lat="45.87939415293106" lon="13.970085111234098"><ele>454.0</ele><time>2026-05-01T13:19:07.999Z</time></trkpt><trkpt lat="45.87937715159658" lon="13.970203306175879"><ele>454.0</ele><time>2026-05-01T13:19:08.999Z</time></trkpt><trkpt lat="45.87935941234363" lon="13.970299945977127"><ele>447.6</ele><time>2026-05-01T13:19:09.999Z</time></trkpt><trkpt lat="45.879267135806295" lon="13.970356848215214"><ele>441.2</ele><time>2026-05-01T13:19:12Z</time></trkpt><trkpt lat="45.879207078618144" lon="13.970254006768544"><ele>434.8</ele><time>2026-05-01T13:19:13Z</time></trkpt><trkpt lat="45.879231130065875" lon="13.970074350342413"><ele>428.40000000000003</ele><time>2026-05-01T13:19:14Z</time></trkpt><trkpt lat="45.87919833406772" lon="13.969899591739232"><ele>422.0</ele><time>2026-05-01T13:19:15Z</time></trkpt><trkpt lat="45.87916890596191" lon="13.96970942978101"><ele>422.0</ele><time>2026-05-01T13:19:16Z</time></trkpt><trkpt lat="45.87910977040107" lon="13.969510710201849"><ele>422.0</ele><time>2026-05-01T13:19:17Z</time></trkpt><trkpt lat="45.87902852715711" lon="13.969341076009929"><ele>422.0</ele><time>2026-05-01T13:19:18Z</time></trkpt><trkpt lat="45.878961132351115" lon="13.969186604020678"><ele>422.0</ele><time>2026-05-01T13:19:19Z</time></trkpt><trkpt lat="45.878905252788776" lon="13.969055728069565"><ele>422.66666666666663</ele><time>2026-05-01T13:19:20Z</time></trkpt><trkpt lat="45.87887020488435" lon="13.968946815816903"><ele>423.3333333333333</ele><time>2026-05-01T13:19:21Z</time></trkpt><trkpt lat="45.8788252916105" lon="13.968870569396584"><ele>424.0</ele><time>2026-05-01T13:19:22Z</time></trkpt><trkpt lat="45.87875188294241" lon="13.96883320993372"><ele>424.66666666666663</ele><time>2026-05-01T13:19:23Z</time></trkpt><trkpt lat="45.87867676875872" lon="13.96888856010073"><ele>425.3333333333333</ele><time>2026-05-01T13:19:24Z</time></trkpt><trkpt lat="45.87867060175706" lon="13.96904297707726"><ele>426.0</ele><time>2026-05-01T13:19:25Z</time></trkpt><trkpt lat="45.878713467306895" lon="13.969161740569962"><ele>425.0</ele><time>2026-05-01T13:19:26Z</time></trkpt><trkpt lat="45.878783748381636" lon="13.969295162593623"><ele>424.0</ele><time>2026-05-01T13:19:27Z</time></trkpt><trkpt lat="45.878825937075966" lon="13.969439034524223"><ele>423.0</ele><time>2026-05-01T13:19:28Z</time></trkpt><trkpt lat="45.87879819816457" lon="13.969631309797673"><ele>422.0</ele><time>2026-05-01T13:19:29Z</time></trkpt><trkpt lat="45.87877649329598" lon="13.969841237663157"><ele>420.75</ele><time>2026-05-01T13:19:30Z</time></trkpt><trkpt lat="45.878767497824136" lon="13.970047297851485"><ele>419.5</ele><time>2026-05-01T13:19:31Z</time></trkpt><trkpt lat="45.87874635681394" lon="13.970245262359821"><ele>418.25</ele><time>2026-05-01T13:19:32Z</time></trkpt><trkpt lat="45.87875056181427" lon="13.97044721609087"><ele>417.0</ele><time>2026-05-01T13:19:33Z</time></trkpt><trkpt lat="45.87877570560225" lon="13.970668879359204"><ele>415.33333333333337</ele><time>2026-05-01T13:19:34Z</time></trkpt><trkpt lat="45.8788238210366" lon="13.970907267151611"><ele>413.6666666666667</ele><time>2026-05-01T13:19:35Z</time></trkpt><trkpt lat="45.878861650599205" lon="13.97116615858925"><ele>412.0</ele><time>2026-05-01T13:19:36Z</time></trkpt><trkpt lat="45.878912256253855" lon="13.971439287894674"><ele>409.0</ele><time>2026-05-01T13:19:37Z</time></trkpt><trkpt lat="45.87894823051025" lon="13.971732586238609"><ele>406.0</ele><time>2026-05-01T13:19:38Z</time></trkpt><trkpt lat="45.87897649616667" lon="13.97204184682097"><ele>403.0</ele><time>2026-05-01T13:19:39Z</time></trkpt><trkpt lat="45.87900920745889" lon="13.97231497151338"><ele>401.4</ele><time>2026-05-01T13:19:40Z</time></trkpt><trkpt lat="45.8790352532252" lon="13.972526184628297"><ele>399.79999999999995</ele><time>2026-05-01T13:19:41Z</time></trkpt><trkpt lat="45.87905853365299" lon="13.972683453181206"><ele>398.2</ele><time>2026-05-01T13:19:42Z</time></trkpt><trkpt lat="45.87907657780425" lon="13.972808594451323"><ele>396.6</ele><time>2026-05-01T13:19:43Z</time></trkpt><trkpt lat="45.879080656702804" lon="13.972904724520923"><ele>395.0</ele><time>2026-05-01T13:19:44Z</time></trkpt><trkpt lat="45.87894874251354" lon="13.972871794669643"><ele>395.0</ele><time>2026-05-01T13:19:47Z</time></trkpt><trkpt lat="45.878961336630724" lon="13.97270628582892"><ele>395.0</ele><time>2026-05-01T13:19:48Z</time></trkpt><trkpt lat="45.878924986703495" lon="13.97250258051423"><ele>395.0</ele><time>2026-05-01T13:19:49Z</time></trkpt><trkpt lat="45.87887226317769" lon="13.972277118800596"><ele>395.0</ele><time>2026-05-01T13:19:50Z</time></trkpt><trkpt lat="45.878764615124496" lon="13.97203198167004"><ele>399.0</ele><time>2026-05-01T13:19:51Z</time></trkpt><trkpt lat="45.87865766543559" lon="13.971725448718832"><ele>403.0</ele><time>2026-05-01T13:19:52Z</time></trkpt><trkpt lat="45.87854956440175" lon="13.971464634846372"><ele>406.0</ele><time>2026-05-01T13:19:53Z</time></trkpt><trkpt lat="45.878449545583194" lon="13.971247817801936"><ele>409.0</ele><time>2026-05-01T13:19:54Z</time></trkpt><trkpt lat="45.878368824214505" lon="13.971030453745078"><ele>412.0</ele><time>2026-05-01T13:19:55Z</time></trkpt><trkpt lat="45.878297860306986" lon="13.970857688857844"><ele>406.6</ele><time>2026-05-01T13:19:56Z</time></trkpt><trkpt lat="45.87826383043615" lon="13.970690778088345"><ele>401.20000000000005</ele><time>2026-05-01T13:19:57Z</time></trkpt><trkpt lat="45.87824733612124" lon="13.970596767035794"><ele>395.8</ele><time>2026-05-01T13:19:58Z</time></trkpt><trkpt lat="45.878172646257575" lon="13.970441835998619"><ele>390.4</ele><time>2026-05-01T13:20:00Z</time></trkpt><trkpt lat="45.87807722188439" lon="13.970465921075363"><ele>385.0</ele><time>2026-05-01T13:20:01Z</time></trkpt><trkpt lat="45.87804843743325" lon="13.97067315080245"><ele>385.0</ele><time>2026-05-01T13:20:02Z</time></trkpt><trkpt lat="45.87806764042773" lon="13.97083181236223"><ele>385.0</ele><time>2026-05-01T13:20:03Z</time></trkpt><trkpt lat="45.87812031521142" lon="13.970995924175885"><ele>385.0</ele><time>2026-05-01T13:20:04Z</time></trkpt><trkpt lat="45.878186788966154" lon="13.971154171450479"><ele>385.0</ele><time>2026-05-01T13:20:05Z</time></trkpt><trkpt lat="45.87823991141675" lon="13.971341778929132"><ele>382.0</ele><time>2026-05-01T13:20:06Z</time></trkpt><trkpt lat="45.87827152199063" lon="13.971555833050743"><ele>379.0</ele><time>2026-05-01T13:20:07Z</time></trkpt><trkpt lat="45.8782925661547" lon="13.971792224152622"><ele>376.0</ele><time>2026-05-01T13:20:08Z</time></trkpt><trkpt lat="45.87831531178443" lon="13.972025891849663"><ele>374.3333333333333</ele><time>2026-05-01T13:20:09Z</time></trkpt><trkpt lat="45.87834092210273" lon="13.972259362528032"><ele>372.6666666666667</ele><time>2026-05-01T13:20:10Z</time></trkpt><trkpt lat="45.87837512944617" lon="13.972479292284508"><ele>371.0</ele><time>2026-05-01T13:20:11Z</time></trkpt><trkpt lat="45.87839791889164" lon="13.972688790636017"><ele>369.8</ele><time>2026-05-01T13:20:12Z</time></trkpt><trkpt lat="45.87843678312843" lon="13.972865432642745"><ele>368.6</ele><time>2026-05-01T13:20:13Z</time></trkpt><trkpt lat="45.87846808581659" lon="13.972994486328817"><ele>367.4</ele><time>2026-05-01T13:20:14Z</time></trkpt><trkpt lat="45.87848894528053" lon="13.973086615625395"><ele>366.2</ele><time>2026-05-01T13:20:15Z</time></trkpt><trkpt lat="45.87847862943166" lon="13.973190160185773"><ele>365.0</ele><time>2026-05-01T13:20:17Z</time></trkpt><trkpt lat="45.87838307161966" lon="13.973158303404025"><ele>365.0</ele><time>2026-05-01T13:20:18Z</time></trkpt><trkpt lat="45.87832945159368" lon="13.973013137698285"><ele>365.0</ele><time>2026-05-01T13:20:19Z</time></trkpt><trkpt lat="45.878298105211876" lon="13.972838035517782"><ele>365.0</ele><time>2026-05-01T13:20:20Z</time></trkpt><trkpt lat="45.87820829991387" lon="13.972685961507187"><ele>365.0</ele><time>2026-05-01T13:20:21Z</time></trkpt><trkpt lat="45.87810962068478" lon="13.972507800754709"><ele>367.0</ele><time>2026-05-01T13:20:22Z</time></trkpt><trkpt lat="45.877986703476274" lon="13.972313133321405"><ele>369.0</ele><time>2026-05-01T13:20:23Z</time></trkpt><trkpt lat="45.8778751678035" lon="13.972091634124558"><ele>371.0</ele><time>2026-05-01T13:20:24Z</time></trkpt><trkpt lat="45.87775393835168" lon="13.971891182489548"><ele>372.6666666666667</ele><time>2026-05-01T13:20:25Z</time></trkpt><trkpt lat="45.87766405717194" lon="13.971682302826027"><ele>374.3333333333333</ele><time>2026-05-01T13:20:26Z</time></trkpt><trkpt lat="45.877566359131706" lon="13.971479136609522"><ele>376.0</ele><time>2026-05-01T13:20:27Z</time></trkpt><trkpt lat="45.87744364133595" lon="13.971297210997145"><ele>371.0</ele><time>2026-05-01T13:20:28Z</time></trkpt><trkpt lat="45.87731366222963" lon="13.971137956017202"><ele>366.0</ele><time>2026-05-01T13:20:29Z</time></trkpt><trkpt lat="45.87719283808084" lon="13.970940259283264"><ele>361.0</ele><time>2026-05-01T13:20:30Z</time></trkpt><trkpt lat="45.87703589265136" lon="13.970774734278438"><ele>361.0</ele><time>2026-05-01T13:20:31Z</time></trkpt><trkpt lat="45.87689269351651" lon="13.970594272152233"><ele>361.0</ele><time>2026-05-01T13:20:32Z</time></trkpt><trkpt lat="45.876751254587276" lon="13.97045003967677"><ele>361.0</ele><time>2026-05-01T13:20:33Z</time></trkpt><trkpt lat="45.87661793355252" lon="13.97032089065033"><ele>358.75</ele><time>2026-05-01T13:20:34Z</time></trkpt><trkpt lat="45.87648591132739" lon="13.97020914290258"><ele>356.5</ele><time>2026-05-01T13:20:35Z</time></trkpt><trkpt lat="45.87637286313489" lon="13.970083356569326"><ele>354.25</ele><time>2026-05-01T13:20:35.999Z</time></trkpt><trkpt lat="45.87627746383031" lon="13.96991781027868"><ele>352.0</ele><time>2026-05-01T13:20:36.999Z</time></trkpt><trkpt lat="45.87618571867507" lon="13.96976536756324"><ele>352.0</ele><time>2026-05-01T13:20:37.999Z</time></trkpt><trkpt lat="45.87609543918471" lon="13.969625451774343"><ele>352.0</ele><time>2026-05-01T13:20:38.999Z</time></trkpt><trkpt lat="45.87603590936449" lon="13.96949970553066"><ele>352.0</ele><time>2026-05-01T13:20:39.999Z</time></trkpt><trkpt lat="45.87598812456398" lon="13.96938950855248"><ele>352.0</ele><time>2026-05-01T13:20:40.999Z</time></trkpt><trkpt lat="45.875946095578286" lon="13.969302214859374"><ele>352.0</ele><time>2026-05-01T13:20:41.999Z</time></trkpt><trkpt lat="45.87582507616459" lon="13.969276898024727"><ele>347.25</ele><time>2026-05-01T13:20:43.999Z</time></trkpt><trkpt lat="45.87578935017157" lon="13.969517691693213"><ele>342.5</ele><time>2026-05-01T13:20:45.999Z</time></trkpt><trkpt lat="45.87586820140019" lon="13.969670952640387"><ele>337.75</ele><time>2026-05-01T13:20:46.999Z</time></trkpt><trkpt lat="45.875909595711875" lon="13.96982120782658"><ele>333.0</ele><time>2026-05-01T13:20:47.999Z</time></trkpt><trkpt lat="45.87588006426706" lon="13.969990659591659"><ele>331.79999999999995</ele><time>2026-05-01T13:20:48.999Z</time></trkpt><trkpt lat="45.875875716317864" lon="13.970170090253456"><ele>330.6</ele><time>2026-05-01T13:20:49.999Z</time></trkpt><trkpt lat="45.875875072178744" lon="13.970321669270707"><ele>329.4</ele><time>2026-05-01T13:20:50.999Z</time></trkpt><trkpt lat="45.875892534159746" lon="13.970462616964024"><ele>328.20000000000005</ele><time>2026-05-01T13:20:51.999Z</time></trkpt><trkpt lat="45.875922699510475" lon="13.97056167661302"><ele>327.0</ele><time>2026-05-01T13:20:52.999Z</time></trkpt><trkpt lat="45.87584202533394" lon="13.970684210884636"><ele>327.0</ele><time>2026-05-01T13:20:54.999Z</time></trkpt><trkpt lat="45.875783616858946" lon="13.970631222371596"><ele>327.0</ele><time>2026-05-01T13:20:55.999Z</time></trkpt><trkpt lat="45.875721333118406" lon="13.970530146365354"><ele>327.0</ele><time>2026-05-01T13:20:56.999Z</time></trkpt><trkpt lat="45.87564902430505" lon="13.970393228849005"><ele>327.0</ele><time>2026-05-01T13:20:57.999Z</time></trkpt><trkpt lat="45.875586025895856" lon="13.970237412189705"><ele>327.0</ele><time>2026-05-01T13:20:58.999Z</time></trkpt><trkpt lat="45.87554598585108" lon="13.97006865528362"><ele>328.0</ele><time>2026-05-01T13:20:59.999Z</time></trkpt><trkpt lat="45.87550465102388" lon="13.969919721997881"><ele>329.0</ele><time>2026-05-01T13:21:00.999Z</time></trkpt><trkpt lat="45.8754681777532" lon="13.969803457344605"><ele>330.0</ele><time>2026-05-01T13:21:01.999Z</time></trkpt><trkpt lat="45.875429095702046" lon="13.969725238887397"><ele>331.0</ele><time>2026-05-01T13:21:02.999Z</time></trkpt><trkpt lat="45.87537151601577" lon="13.96968836023588"><ele>332.0</ele><time>2026-05-01T13:21:03.999Z</time></trkpt><trkpt lat="45.875290100521" lon="13.969721873616358"><ele>333.0</ele><time>2026-05-01T13:21:04.999Z</time></trkpt><trkpt lat="45.87527783936698" lon="13.96989910958597"><ele>331.5</ele><time>2026-05-01T13:21:05.999Z</time></trkpt><trkpt lat="45.875307213862335" lon="13.970042095647251"><ele>330.0</ele><time>2026-05-01T13:21:06.999Z</time></trkpt><trkpt lat="45.87533439592021" lon="13.970210915658026"><ele>328.5</ele><time>2026-05-01T13:21:07.999Z</time></trkpt><trkpt lat="45.87533891864902" lon="13.970392205446473"><ele>327.0</ele><time>2026-05-01T13:21:08.999Z</time></trkpt><trkpt lat="45.8753280567608" lon="13.97058467852191"><ele>327.0</ele><time>2026-05-01T13:21:09.999Z</time></trkpt><trkpt lat="45.87532484194595" lon="13.970760203164353"><ele>327.0</ele><time>2026-05-01T13:21:10.999Z</time></trkpt><trkpt lat="45.875350951650994" lon="13.970916493782703"><ele>327.0</ele><time>2026-05-01T13:21:11.999Z</time></trkpt><trkpt lat="45.87541589687955" lon="13.971056934365574"><ele>327.0</ele><time>2026-05-01T13:21:12.999Z</time></trkpt><trkpt lat="45.87551370585096" lon="13.971206867723131"><ele>323.6666666666667</ele><time>2026-05-01T13:21:13.999Z</time></trkpt><trkpt lat="45.87562279544468" lon="13.971371944707338"><ele>320.33333333333337</ele><time>2026-05-01T13:21:14.999Z</time></trkpt><trkpt lat="45.875729004183135" lon="13.971547871242732"><ele>317.0</ele><time>2026-05-01T13:21:15.999Z</time></trkpt><trkpt lat="45.875830925768504" lon="13.971720601361657"><ele>314.8</ele><time>2026-05-01T13:21:17Z</time></trkpt><trkpt lat="45.87586024881749" lon="13.97182272951221"><ele>312.6</ele><time>2026-05-01T13:21:18Z</time></trkpt><trkpt lat="45.87594098932801" lon="13.971933671304832"><ele>310.40000000000003</ele><time>2026-05-01T13:21:19Z</time></trkpt><trkpt lat="45.875962980980646" lon="13.972085385660117"><ele>308.2</ele><time>2026-05-01T13:21:20Z</time></trkpt><trkpt lat="45.87597167536912" lon="13.972255198644259"><ele>306.0</ele><time>2026-05-01T13:21:21Z</time></trkpt><trkpt lat="45.8759873350671" lon="13.972443765099"><ele>309.20000000000005</ele><time>2026-05-01T13:21:22Z</time></trkpt><trkpt lat="45.876032809154076" lon="13.972602261683338"><ele>312.40000000000003</ele><time>2026-05-01T13:21:23Z</time></trkpt><trkpt lat="45.876071094953716" lon="13.972729193069261"><ele>315.6</ele><time>2026-05-01T13:21:24Z</time></trkpt><trkpt lat="45.87608550960971" lon="13.972830089919146"><ele>318.8</ele><time>2026-05-01T13:21:25Z</time></trkpt><trkpt lat="45.87609075647208" lon="13.972946769607269"><ele>322.0</ele><time>2026-05-01T13:21:27Z</time></trkpt><trkpt lat="45.876087061884554" lon="13.973103100599829"><ele>322.0</ele><time>2026-05-01T13:21:29Z</time></trkpt><trkpt lat="45.87612784180358" lon="13.973229363615694"><ele>322.0</ele><time>2026-05-01T13:21:30Z</time></trkpt><trkpt lat="45.87618845054332" lon="13.97335404593038"><ele>322.0</ele><time>2026-05-01T13:21:31Z</time></trkpt><trkpt lat="45.8762447383094" lon="13.973473756099327"><ele>322.0</ele><time>2026-05-01T13:21:32Z</time></trkpt><trkpt lat="45.87627585791704" lon="13.973598761358108"><ele>322.0</ele><time>2026-05-01T13:21:33Z</time></trkpt><trkpt lat="45.87624855839831" lon="13.973715520606111"><ele>322.40000000000003</ele><time>2026-05-01T13:21:34Z</time></trkpt><trkpt lat="45.8762235675097" lon="13.97382496004478"><ele>322.8</ele><time>2026-05-01T13:21:35Z</time></trkpt><trkpt lat="45.876189043916874" lon="13.973942739241366"><ele>323.2</ele><time>2026-05-01T13:21:36Z</time></trkpt><trkpt lat="45.876141367062495" lon="13.974059011557726"><ele>323.6</ele><time>2026-05-01T13:21:37Z</time></trkpt><trkpt lat="45.876075506399935" lon="13.974181375276263"><ele>324.0</ele><time>2026-05-01T13:21:38Z</time></trkpt><trkpt lat="45.87601798910295" lon="13.97433103220125"><ele>322.25</ele><time>2026-05-01T13:21:39Z</time></trkpt><trkpt lat="45.87592774992445" lon="13.974479443270704"><ele>320.5</ele><time>2026-05-01T13:21:40Z</time></trkpt><trkpt lat="45.87584569676351" lon="13.97462141170843"><ele>318.75</ele><time>2026-05-01T13:21:41Z</time></trkpt><trkpt lat="45.87577090402313" lon="13.974765860356596"><ele>317.0</ele><time>2026-05-01T13:21:42Z</time></trkpt><trkpt lat="45.87569410728753" lon="13.974897982655369"><ele>318.6</ele><time>2026-05-01T13:21:43Z</time></trkpt><trkpt lat="45.87562498065138" lon="13.975028200121"><ele>320.2</ele><time>2026-05-01T13:21:44Z</time></trkpt><trkpt lat="45.87556967589491" lon="13.975158258279341"><ele>321.8</ele><time>2026-05-01T13:21:45Z</time></trkpt><trkpt lat="45.87553052412728" lon="13.975300400534536"><ele>323.4</ele><time>2026-05-01T13:21:46Z</time></trkpt><trkpt lat="45.875509782784995" lon="13.975474022059196"><ele>325.0</ele><time>2026-05-01T13:21:47Z</time></trkpt><trkpt lat="45.87550694453758" lon="13.975663421686635"><ele>324.0</ele><time>2026-05-01T13:21:48Z</time></trkpt><trkpt lat="45.87550681877008" lon="13.975870880843283"><ele>323.0</ele><time>2026-05-01T13:21:49Z</time></trkpt><trkpt lat="45.87550294679536" lon="13.976080562479865"><ele>322.0</ele><time>2026-05-01T13:21:50Z</time></trkpt><trkpt lat="45.87549696444513" lon="13.976262013209276"><ele>321.0</ele><time>2026-05-01T13:21:51Z</time></trkpt><trkpt lat="45.87549163482561" lon="13.97642227641386"><ele>321.0</ele><time>2026-05-01T13:21:51.999Z</time></trkpt><trkpt lat="45.87549436886407" lon="13.976568132788303"><ele>321.0</ele><time>2026-05-01T13:21:52.999Z</time></trkpt><trkpt lat="45.87551671005157" lon="13.976697328909662"><ele>321.0</ele><time>2026-05-01T13:21:53.999Z</time></trkpt><trkpt lat="45.87554300469371" lon="13.976816628046125"><ele>321.0</ele><time>2026-05-01T13:21:54.999Z</time></trkpt><trkpt lat="45.875653217352564" lon="13.976892377176341"><ele>321.0</ele><time>2026-05-01T13:21:55.999Z</time></trkpt><trkpt lat="45.87576174802536" lon="13.97697606871138"><ele>319.5</ele><time>2026-05-01T13:21:56.999Z</time></trkpt><trkpt lat="45.875881438881265" lon="13.977071525662922"><ele>318.0</ele><time>2026-05-01T13:21:57.999Z</time></trkpt><trkpt lat="45.87597967352552" lon="13.977221120472198"><ele>316.5</ele><time>2026-05-01T13:21:58.999Z</time></trkpt><trkpt lat="45.87607987971676" lon="13.9773868827468"><ele>315.0</ele><time>2026-05-01T13:21:59.999Z</time></trkpt><trkpt lat="45.8761789599144" lon="13.977566995544782"><ele>315.0</ele><time>2026-05-01T13:22:00.999Z</time></trkpt><trkpt lat="45.87627832044372" lon="13.97772248403666"><ele>315.0</ele><time>2026-05-01T13:22:01.999Z</time></trkpt><trkpt lat="45.87635303633256" lon="13.9778888132187"><ele>315.0</ele><time>2026-05-01T13:22:02.999Z</time></trkpt><trkpt lat="45.876421920681196" lon="13.97805306233105"><ele>315.0</ele><time>2026-05-01T13:22:03.999Z</time></trkpt><trkpt lat="45.87649707058571" lon="13.978219938209612"><ele>313.5</ele><time>2026-05-01T13:22:04.999Z</time></trkpt><trkpt lat="45.87658945430899" lon="13.978379358539225"><ele>312.0</ele><time>2026-05-01T13:22:05.999Z</time></trkpt><trkpt lat="45.87669421619588" lon="13.978516301198448"><ele>310.5</ele><time>2026-05-01T13:22:06.999Z</time></trkpt><trkpt lat="45.87678841736792" lon="13.978659335759094"><ele>309.0</ele><time>2026-05-01T13:22:07.999Z</time></trkpt><trkpt lat="45.87686184763079" lon="13.978799251731985"><ele>312.75</ele><time>2026-05-01T13:22:08.999Z</time></trkpt><trkpt lat="45.87692083836469" lon="13.97895051086725"><ele>316.5</ele><time>2026-05-01T13:22:09.999Z</time></trkpt><trkpt lat="45.87686991633605" lon="13.979138552763542"><ele>320.25</ele><time>2026-05-01T13:22:10.999Z</time></trkpt><trkpt lat="45.876875711997" lon="13.97933018324781"><ele>324.0</ele><time>2026-05-01T13:22:11.999Z</time></trkpt><trkpt lat="45.876877038482796" lon="13.979504414411682"><ele>324.0</ele><time>2026-05-01T13:22:12.999Z</time></trkpt><trkpt lat="45.8769232939322" lon="13.979666657479333"><ele>324.0</ele><time>2026-05-01T13:22:13.999Z</time></trkpt><trkpt lat="45.876986107188515" lon="13.979824170511215"><ele>324.0</ele><time>2026-05-01T13:22:14.999Z</time></trkpt><trkpt lat="45.87704918742669" lon="13.97998367756788"><ele>324.0</ele><time>2026-05-01T13:22:15.999Z</time></trkpt><trkpt lat="45.87709674256209" lon="13.980139494460163"><ele>324.25</ele><time>2026-05-01T13:22:16.999Z</time></trkpt><trkpt lat="45.877133745386416" lon="13.980301292223942"><ele>324.5</ele><time>2026-05-01T13:22:17.999Z</time></trkpt><trkpt lat="45.877171781331" lon="13.980463876813921"><ele>324.75</ele><time>2026-05-01T13:22:18.999Z</time></trkpt><trkpt lat="45.87721009553818" lon="13.980625504165944"><ele>325.0</ele><time>2026-05-01T13:22:19.999Z</time></trkpt><trkpt lat="45.877242949306954" lon="13.980791152194227"><ele>324.75</ele><time>2026-05-01T13:22:20.999Z</time></trkpt><trkpt lat="45.877276972681614" lon="13.980962398733634"><ele>324.5</ele><time>2026-05-01T13:22:21.999Z</time></trkpt><trkpt lat="45.87732062496672" lon="13.981132537061436"><ele>324.25</ele><time>2026-05-01T13:22:22.999Z</time></trkpt><trkpt lat="45.877374898110155" lon="13.981301108098371"><ele>324.0</ele><time>2026-05-01T13:22:23.999Z</time></trkpt><trkpt lat="45.87742162505691" lon="13.981473269212998"><ele>324.0</ele><time>2026-05-01T13:22:24.999Z</time></trkpt><trkpt lat="45.877399088690304" lon="13.981659518577583"><ele>324.0</ele><time>2026-05-01T13:22:25.999Z</time></trkpt><trkpt lat="45.87736170711018" lon="13.981836617909348"><ele>324.0</ele><time>2026-05-01T13:22:26.999Z</time></trkpt><trkpt lat="45.87733464628045" lon="13.982028677612389"><ele>324.0</ele><time>2026-05-01T13:22:27.999Z</time></trkpt><trkpt lat="45.87730186958922" lon="13.982204625547224"><ele>324.0</ele><time>2026-05-01T13:22:28.999Z</time></trkpt><trkpt lat="45.8773169644512" lon="13.982399330832754"><ele>324.0</ele><time>2026-05-01T13:22:29.999Z</time></trkpt><trkpt lat="45.877368968607165" lon="13.982586176375783"><ele>324.0</ele><time>2026-05-01T13:22:30.999Z</time></trkpt><trkpt lat="45.87743875335889" lon="13.982757091929154"><ele>324.0</ele><time>2026-05-01T13:22:31.999Z</time></trkpt><trkpt lat="45.87748704796811" lon="13.982929940905864"><ele>324.25</ele><time>2026-05-01T13:22:32.999Z</time></trkpt><trkpt lat="45.87751956243102" lon="13.983099042330803"><ele>324.5</ele><time>2026-05-01T13:22:33.999Z</time></trkpt><trkpt lat="45.877447026095524" lon="13.983260878831189"><ele>324.75</ele><time>2026-05-01T13:22:34.999Z</time></trkpt><trkpt lat="45.877436243233525" lon="13.9834318878368"><ele>325.0</ele><time>2026-05-01T13:22:35.999Z</time></trkpt><trkpt lat="45.87742618461251" lon="13.983605271247365"><ele>326.0</ele><time>2026-05-01T13:22:36.999Z</time></trkpt><trkpt lat="45.87746006833113" lon="13.983785183753563"><ele>327.0</ele><time>2026-05-01T13:22:37.999Z</time></trkpt><trkpt lat="45.87752303737848" lon="13.983954248036902"><ele>328.0</ele><time>2026-05-01T13:22:38.999Z</time></trkpt><trkpt lat="45.877603394714" lon="13.984102163047284"><ele>329.0</ele><time>2026-05-01T13:22:39.999Z</time></trkpt><trkpt lat="45.87766853025742" lon="13.984253204241186"><ele>337.75</ele><time>2026-05-01T13:22:40.999Z</time></trkpt><trkpt lat="45.87770771660586" lon="13.984413907388769"><ele>346.5</ele><time>2026-05-01T13:22:41.999Z</time></trkpt><trkpt lat="45.87770124837566" lon="13.984587822293134"><ele>355.25</ele><time>2026-05-01T13:22:42.999Z</time></trkpt><trkpt lat="45.877670629427605" lon="13.984755777309992"><ele>364.0</ele><time>2026-05-01T13:22:43.999Z</time></trkpt><trkpt lat="45.87761605156404" lon="13.984904469459776"><ele>358.25</ele><time>2026-05-01T13:22:44.999Z</time></trkpt><trkpt lat="45.87753523128719" lon="13.985020230556984"><ele>352.5</ele><time>2026-05-01T13:22:45.999Z</time></trkpt><trkpt lat="45.87744070628628" lon="13.985103669833107"><ele>346.75</ele><time>2026-05-01T13:22:46.999Z</time></trkpt><trkpt lat="45.87730613656991" lon="13.985095170525167"><ele>341.0</ele><time>2026-05-01T13:22:47.999Z</time></trkpt><trkpt lat="45.87717309557255" lon="13.985101394803145"><ele>341.0</ele><time>2026-05-01T13:22:48.999Z</time></trkpt><trkpt lat="45.877049005589" lon="13.985165244000344"><ele>341.0</ele><time>2026-05-01T13:22:49.999Z</time></trkpt><trkpt lat="45.87693430858015" lon="13.985267236970266"><ele>341.0</ele><time>2026-05-01T13:22:50.999Z</time></trkpt><trkpt lat="45.876833565916655" lon="13.985391950148774"><ele>341.0</ele><time>2026-05-01T13:22:51.999Z</time></trkpt><trkpt lat="45.876741512685506" lon="13.985517713248534"><ele>340.0</ele><time>2026-05-01T13:22:52.999Z</time></trkpt><trkpt lat="45.8766524701691" lon="13.985643773624252"><ele>339.0</ele><time>2026-05-01T13:22:53.999Z</time></trkpt><trkpt lat="45.876563143151344" lon="13.985768647267543"><ele>338.0</ele><time>2026-05-01T13:22:54.999Z</time></trkpt><trkpt lat="45.87648179927142" lon="13.985903806103554"><ele>337.0</ele><time>2026-05-01T13:22:55.999Z</time></trkpt><trkpt lat="45.87641756121173" lon="13.986050970397562"><ele>339.0</ele><time>2026-05-01T13:22:56.999Z</time></trkpt><trkpt lat="45.87636856949173" lon="13.986202557448399"><ele>341.0</ele><time>2026-05-01T13:22:57.999Z</time></trkpt><trkpt lat="45.87630360916182" lon="13.986320676063256"><ele>343.0</ele><time>2026-05-01T13:22:58.999Z</time></trkpt><trkpt lat="45.87623116642507" lon="13.986409140671539"><ele>345.0</ele><time>2026-05-01T13:22:59.999Z</time></trkpt><trkpt lat="45.87614220846882" lon="13.98646871988016"><ele>347.0</ele><time>2026-05-01T13:23:00.999Z</time></trkpt><trkpt lat="45.876040425765645" lon="13.986547815748901"><ele>347.0</ele><time>2026-05-01T13:23:01.999Z</time></trkpt><trkpt lat="45.87594424318056" lon="13.986624548235774"><ele>347.0</ele><time>2026-05-01T13:23:02.999Z</time></trkpt><trkpt lat="45.87586417564406" lon="13.986719785627507"><ele>347.0</ele><time>2026-05-01T13:23:03.999Z</time></trkpt><trkpt lat="45.87579076469897" lon="13.986819028662426"><ele>347.0</ele><time>2026-05-01T13:23:04.999Z</time></trkpt><trkpt lat="45.87571938929226" lon="13.986940826377856"><ele>347.0</ele><time>2026-05-01T13:23:05.999Z</time></trkpt><trkpt lat="45.87570373633463" lon="13.987125913691127"><ele>344.25</ele><time>2026-05-01T13:23:06.999Z</time></trkpt><trkpt lat="45.87567013887317" lon="13.987294998233"><ele>341.5</ele><time>2026-05-01T13:23:07.999Z</time></trkpt><trkpt lat="45.875676760573896" lon="13.987480753435783"><ele>338.75</ele><time>2026-05-01T13:23:08.999Z</time></trkpt><trkpt lat="45.87565556682734" lon="13.98766397378587"><ele>336.0</ele><time>2026-05-01T13:23:09.999Z</time></trkpt><trkpt lat="45.87560585474515" lon="13.987840245256262"><ele>336.0</ele><time>2026-05-01T13:23:10.999Z</time></trkpt><trkpt lat="45.875524203598296" lon="13.987992070989948"><ele>336.0</ele><time>2026-05-01T13:23:11.999Z</time></trkpt><trkpt lat="45.875389491234024" lon="13.988037992004305"><ele>336.0</ele><time>2026-05-01T13:23:12.999Z</time></trkpt><trkpt lat="45.87526726671717" lon="13.988096189018282"><ele>336.0</ele><time>2026-05-01T13:23:13.999Z</time></trkpt><trkpt lat="45.87514972958085" lon="13.98815906310378"><ele>335.20000000000005</ele><time>2026-05-01T13:23:14.999Z</time></trkpt><trkpt lat="45.875069337654466" lon="13.988309032004093"><ele>334.40000000000003</ele><time>2026-05-01T13:23:15.999Z</time></trkpt><trkpt lat="45.87500623863684" lon="13.98844643861032"><ele>333.6</ele><time>2026-05-01T13:23:16.999Z</time></trkpt><trkpt lat="45.874952678284146" lon="13.988567360759045"><ele>332.8</ele><time>2026-05-01T13:23:17.999Z</time></trkpt><trkpt lat="45.874904863638704" lon="13.988678936355605"><ele>332.0</ele><time>2026-05-01T13:23:18.999Z</time></trkpt><trkpt lat="45.87485363648022" lon="13.988776555432812"><ele>332.0</ele><time>2026-05-01T13:23:19.999Z</time></trkpt><trkpt lat="45.87479487644593" lon="13.988842447053717"><ele>332.0</ele><time>2026-05-01T13:23:20.999Z</time></trkpt><trkpt lat="45.87472181336303" lon="13.988819071132564"><ele>332.0</ele><time>2026-05-01T13:23:22.999Z</time></trkpt><trkpt lat="45.87466410858165" lon="13.988713422524214"><ele>332.0</ele><time>2026-05-01T13:23:25.999Z</time></trkpt><trkpt lat="45.87460457050288" lon="13.988649092378456"><ele>332.0</ele><time>2026-05-01T13:23:26.999Z</time></trkpt><trkpt lat="45.87452679906729" lon="13.988582657071712"><ele>332.0</ele><time>2026-05-01T13:23:27.999Z</time></trkpt><trkpt lat="45.874426907406935" lon="13.988559289856001"><ele>332.0</ele><time>2026-05-01T13:23:28.999Z</time></trkpt><trkpt lat="45.8743301194321" lon="13.988493447394546"><ele>332.0</ele><time>2026-05-01T13:23:29.999Z</time></trkpt><trkpt lat="45.87424075031494" lon="13.988431190992047"><ele>332.0</ele><time>2026-05-01T13:23:30.999Z</time></trkpt><trkpt lat="45.874163708409796" lon="13.988399719236858"><ele>332.0</ele><time>2026-05-01T13:23:31.999Z</time></trkpt><trkpt lat="45.87410968449206" lon="13.988349471751434"><ele>332.0</ele><time>2026-05-01T13:23:32.999Z</time></trkpt><trkpt lat="45.874074419542126" lon="13.988264337354599"><ele>332.0</ele><time>2026-05-01T13:23:33.999Z</time></trkpt><trkpt lat="45.87399377601762" lon="13.988191571475939"><ele>333.75</ele><time>2026-05-01T13:23:34.999Z</time></trkpt><trkpt lat="45.87389955054575" lon="13.988135103264646"><ele>335.5</ele><time>2026-05-01T13:23:35.999Z</time></trkpt><trkpt lat="45.873790124785856" lon="13.988057455953879"><ele>337.25</ele><time>2026-05-01T13:23:36.999Z</time></trkpt><trkpt lat="45.87368331642714" lon="13.987989809711717"><ele>339.0</ele><time>2026-05-01T13:23:37.999Z</time></trkpt><trkpt lat="45.873574256596186" lon="13.987935784390075"><ele>339.0</ele><time>2026-05-01T13:23:38.999Z</time></trkpt><trkpt lat="45.87349231466466" lon="13.987812898657912"><ele>339.0</ele><time>2026-05-01T13:23:39.999Z</time></trkpt><trkpt lat="45.87341513971443" lon="13.987706294273869"><ele>339.0</ele><time>2026-05-01T13:23:40.999Z</time></trkpt><trkpt lat="45.873304173913624" lon="13.987666548225317"><ele>339.0</ele><time>2026-05-01T13:23:41.999Z</time></trkpt><trkpt lat="45.87321797562985" lon="13.987594318206277"><ele>339.0</ele><time>2026-05-01T13:23:42.999Z</time></trkpt><trkpt lat="45.87312230142695" lon="13.987526839327199"><ele>340.4</ele><time>2026-05-01T13:23:43.999Z</time></trkpt><trkpt lat="45.87302108198021" lon="13.98746638802334"><ele>341.79999999999995</ele><time>2026-05-01T13:23:44.999Z</time></trkpt><trkpt lat="45.87293310426728" lon="13.987406701901689"><ele>343.20000000000005</ele><time>2026-05-01T13:23:45.999Z</time></trkpt><trkpt lat="45.87286185296683" lon="13.987328027616456"><ele>344.6</ele><time>2026-05-01T13:23:46.999Z</time></trkpt><trkpt lat="45.87279749161748" lon="13.987258210428282"><ele>346.0</ele><time>2026-05-01T13:23:47.999Z</time></trkpt><trkpt lat="45.87273712829383" lon="13.987195107379943"><ele>346.0</ele><time>2026-05-01T13:23:48.999Z</time></trkpt><trkpt lat="45.872672344764496" lon="13.987127383498608"><ele>346.0</ele><time>2026-05-01T13:23:49.999Z</time></trkpt><trkpt lat="45.872607378395095" lon="13.987059468475822"><ele>346.0</ele><time>2026-05-01T13:23:50.999Z</time></trkpt><trkpt lat="45.872531851514765" lon="13.986985176216809"><ele>346.0</ele><time>2026-05-01T13:23:51.999Z</time></trkpt><trkpt lat="45.87244699552246" lon="13.986912506045877"><ele>346.0</ele><time>2026-05-01T13:23:52.999Z</time></trkpt><trkpt lat="45.87235220004089" lon="13.98684716498122"><ele>347.0</ele><time>2026-05-01T13:23:53.999Z</time></trkpt><trkpt lat="45.87224980067335" lon="13.986784272571077"><ele>348.0</ele><time>2026-05-01T13:23:54.999Z</time></trkpt><trkpt lat="45.87214192931038" lon="13.986716360098796"><ele>349.0</ele><time>2026-05-01T13:23:55.999Z</time></trkpt><trkpt lat="45.87203245758399" lon="13.98663298980801"><ele>350.0</ele><time>2026-05-01T13:23:56.999Z</time></trkpt><trkpt lat="45.87192581471837" lon="13.98653572453372"><ele>350.0</ele><time>2026-05-01T13:23:57.999Z</time></trkpt><trkpt lat="45.87181080551256" lon="13.986436752171258"><ele>350.0</ele><time>2026-05-01T13:23:58.999Z</time></trkpt><trkpt lat="45.87169315327754" lon="13.986348431270445"><ele>350.0</ele><time>2026-05-01T13:23:59.999Z</time></trkpt><trkpt lat="45.87157619067783" lon="13.98626199969121"><ele>350.0</ele><time>2026-05-01T13:24:00.999Z</time></trkpt><trkpt lat="45.87146176979975" lon="13.986173123566"><ele>353.2</ele><time>2026-05-01T13:24:01.999Z</time></trkpt><trkpt lat="45.87134840058647" lon="13.986106765513455"><ele>356.4</ele><time>2026-05-01T13:24:02.999Z</time></trkpt><trkpt lat="45.87127498019643" lon="13.98599315234724"><ele>359.6</ele><time>2026-05-01T13:24:03.999Z</time></trkpt><trkpt lat="45.871213370026176" lon="13.985891803505178"><ele>362.8</ele><time>2026-05-01T13:24:04.999Z</time></trkpt><trkpt lat="45.871169211365206" lon="13.985777707015552"><ele>366.0</ele><time>2026-05-01T13:24:05.999Z</time></trkpt><trkpt lat="45.87113157615716" lon="13.98565538885639"><ele>366.20000000000005</ele><time>2026-05-01T13:24:06.999Z</time></trkpt><trkpt lat="45.87112475157095" lon="13.985507092416809"><ele>366.40000000000003</ele><time>2026-05-01T13:24:07.999Z</time></trkpt><trkpt lat="45.87113371837698" lon="13.985379154196945"><ele>366.6</ele><time>2026-05-01T13:24:08.999Z</time></trkpt><trkpt lat="45.87118081959113" lon="13.985283434571924"><ele>366.8</ele><time>2026-05-01T13:24:09.999Z</time></trkpt><trkpt lat="45.87126452184281" lon="13.985240667753464"><ele>367.0</ele><time>2026-05-01T13:24:10.999Z</time></trkpt><trkpt lat="45.87136902317547" lon="13.985217119310683"><ele>367.0</ele><time>2026-05-01T13:24:11.999Z</time></trkpt><trkpt lat="45.87148250409791" lon="13.98518291437647"><ele>367.0</ele><time>2026-05-01T13:24:12.999Z</time></trkpt><trkpt lat="45.87159362592852" lon="13.985131823760021"><ele>367.0</ele><time>2026-05-01T13:24:13.999Z</time></trkpt><trkpt lat="45.87170374241229" lon="13.985048407267202"><ele>367.0</ele><time>2026-05-01T13:24:14.999Z</time></trkpt><trkpt lat="45.87181025407839" lon="13.984946114870727"><ele>367.75</ele><time>2026-05-01T13:24:15.999Z</time></trkpt><trkpt lat="45.87190706568998" lon="13.984822415987443"><ele>368.5</ele><time>2026-05-01T13:24:16.999Z</time></trkpt><trkpt lat="45.87200303393576" lon="13.984694793261523"><ele>369.25</ele><time>2026-05-01T13:24:17.999Z</time></trkpt><trkpt lat="45.872103004503344" lon="13.984576965461237"><ele>370.0</ele><time>2026-05-01T13:24:18.999Z</time></trkpt><trkpt lat="45.8722131215682" lon="13.984479292869295"><ele>370.0</ele><time>2026-05-01T13:24:19.999Z</time></trkpt><trkpt lat="45.87232540529945" lon="13.984395994996742"><ele>370.0</ele><time>2026-05-01T13:24:20.999Z</time></trkpt><trkpt lat="45.872427005946925" lon="13.984300779648752"><ele>370.0</ele><time>2026-05-01T13:24:21.999Z</time></trkpt><trkpt lat="45.872524280333124" lon="13.984194547836342"><ele>370.0</ele><time>2026-05-01T13:24:22.999Z</time></trkpt><trkpt lat="45.87261529389571" lon="13.98409537488519"><ele>371.25</ele><time>2026-05-01T13:24:23.999Z</time></trkpt><trkpt lat="45.87270097910519" lon="13.983983226467661"><ele>372.5</ele><time>2026-05-01T13:24:24.999Z</time></trkpt><trkpt lat="45.87277306455559" lon="13.983854718981512"><ele>373.75</ele><time>2026-05-01T13:24:25.999Z</time></trkpt><trkpt lat="45.87285476327664" lon="13.983729886887723"><ele>375.0</ele><time>2026-05-01T13:24:26.999Z</time></trkpt><trkpt lat="45.872930169060496" lon="13.983613613850844"><ele>375.0</ele><time>2026-05-01T13:24:27.999Z</time></trkpt><trkpt lat="45.873020279199544" lon="13.983555659967543"><ele>375.0</ele><time>2026-05-01T13:24:28.999Z</time></trkpt><trkpt lat="45.87307665869634" lon="13.983486568391086"><ele>375.0</ele><time>2026-05-01T13:24:29.999Z</time></trkpt><trkpt lat="45.87312030647096" lon="13.983371372167849"><ele>375.0</ele><time>2026-05-01T13:24:31.999Z</time></trkpt><trkpt lat="45.87303194568598" lon="13.983244378493703"><ele>375.0</ele><time>2026-05-01T13:24:33.999Z</time></trkpt><trkpt lat="45.87293214762378" lon="13.983329813217637"><ele>375.0</ele><time>2026-05-01T13:24:34.999Z</time></trkpt><trkpt lat="45.87286749644328" lon="13.983405562503087"><ele>375.0</ele><time>2026-05-01T13:24:35.999Z</time></trkpt><trkpt lat="45.87282130088206" lon="13.983513152718926"><ele>375.0</ele><time>2026-05-01T13:24:36.999Z</time></trkpt><trkpt lat="45.87274846780327" lon="13.983606968855465"><ele>375.0</ele><time>2026-05-01T13:24:37.999Z</time></trkpt><trkpt lat="45.87266200971204" lon="13.983704099419306"><ele>375.0</ele><time>2026-05-01T13:24:38.999Z</time></trkpt><trkpt lat="45.872564933917644" lon="13.983804508022889"><ele>380.75</ele><time>2026-05-01T13:24:39.999Z</time></trkpt><trkpt lat="45.87245506295381" lon="13.983875285456206"><ele>386.5</ele><time>2026-05-01T13:24:40.999Z</time></trkpt><trkpt lat="45.87235031947757" lon="13.983930960386322"><ele>392.25</ele><time>2026-05-01T13:24:41.999Z</time></trkpt><trkpt lat="45.87224027712131" lon="13.983982300933146"><ele>398.0</ele><time>2026-05-01T13:24:42.999Z</time></trkpt><trkpt lat="45.87212468356359" lon="13.984033907060137"><ele>398.0</ele><time>2026-05-01T13:24:43.999Z</time></trkpt><trkpt lat="45.87200195898267" lon="13.984088101177898"><ele>398.0</ele><time>2026-05-01T13:24:44.999Z</time></trkpt><trkpt lat="45.87188061575682" lon="13.984117936561168"><ele>398.0</ele><time>2026-05-01T13:24:45.999Z</time></trkpt><trkpt lat="45.87175677836242" lon="13.984146641143036"><ele>398.0</ele><time>2026-05-01T13:24:46.999Z</time></trkpt><trkpt lat="45.87162609269992" lon="13.984176933101"><ele>395.25</ele><time>2026-05-01T13:24:47.999Z</time></trkpt><trkpt lat="45.87149883849201" lon="13.984198110251787"><ele>392.5</ele><time>2026-05-01T13:24:48.999Z</time></trkpt><trkpt lat="45.87136970299039" lon="13.98417214508676"><ele>389.75</ele><time>2026-05-01T13:24:49.999Z</time></trkpt><trkpt lat="45.87123768796538" lon="13.984154740376782"><ele>387.0</ele><time>2026-05-01T13:24:50.999Z</time></trkpt><trkpt lat="45.87110366114572" lon="13.984172150182317"><ele>393.75</ele><time>2026-05-01T13:24:51.999Z</time></trkpt><trkpt lat="45.87097473053397" lon="13.984165442335586"><ele>400.5</ele><time>2026-05-01T13:24:52.999Z</time></trkpt><trkpt lat="45.87084291129657" lon="13.984171237182757"><ele>407.25</ele><time>2026-05-01T13:24:53.999Z</time></trkpt><trkpt lat="45.87071340860827" lon="13.984167974081586"><ele>414.0</ele><time>2026-05-01T13:24:54.999Z</time></trkpt><trkpt lat="45.87057946603728" lon="13.984174551710526"><ele>409.5</ele><time>2026-05-01T13:24:55.999Z</time></trkpt><trkpt lat="45.87044987267299" lon="13.98420311617866"><ele>405.0</ele><time>2026-05-01T13:24:56.999Z</time></trkpt><trkpt lat="45.870342120190806" lon="13.984245375962859"><ele>400.5</ele><time>2026-05-01T13:24:57.999Z</time></trkpt><trkpt lat="45.87023745667766" lon="13.984264034541749"><ele>396.0</ele><time>2026-05-01T13:24:58.999Z</time></trkpt><trkpt lat="45.87012986050451" lon="13.98428397190363"><ele>399.5</ele><time>2026-05-01T13:24:59.999Z</time></trkpt><trkpt lat="45.87001559924274" lon="13.984314712552829"><ele>403.0</ele><time>2026-05-01T13:25:00.999Z</time></trkpt><trkpt lat="45.86990957413163" lon="13.984378717135664"><ele>406.5</ele><time>2026-05-01T13:25:01.999Z</time></trkpt><trkpt lat="45.86981366600214" lon="13.984470277573509"><ele>410.0</ele><time>2026-05-01T13:25:02.999Z</time></trkpt><trkpt lat="45.86971867346107" lon="13.984586711238679"><ele>410.0</ele><time>2026-05-01T13:25:03.999Z</time></trkpt><trkpt lat="45.86962801381732" lon="13.984706888381503"><ele>410.0</ele><time>2026-05-01T13:25:04.999Z</time></trkpt><trkpt lat="45.86953421805421" lon="13.984809010376582"><ele>410.0</ele><time>2026-05-01T13:25:05.999Z</time></trkpt><trkpt lat="45.86942092121454" lon="13.984862192153457"><ele>410.0</ele><time>2026-05-01T13:25:06.999Z</time></trkpt><trkpt lat="45.86930628624096" lon="13.984925894474422"><ele>412.0</ele><time>2026-05-01T13:25:07.999Z</time></trkpt><trkpt lat="45.86918024667233" lon="13.984989481788332"><ele>414.0</ele><time>2026-05-01T13:25:08.999Z</time></trkpt><trkpt lat="45.86905700743977" lon="13.985036697895632"><ele>416.0</ele><time>2026-05-01T13:25:09.999Z</time></trkpt><trkpt lat="45.86893246166186" lon="13.985070651573556"><ele>418.0</ele><time>2026-05-01T13:25:10.999Z</time></trkpt><trkpt lat="45.86880821567462" lon="13.985084105993161"><ele>418.0</ele><time>2026-05-01T13:25:11.999Z</time></trkpt><trkpt lat="45.86867958887414" lon="13.98508506557505"><ele>418.0</ele><time>2026-05-01T13:25:12.999Z</time></trkpt><trkpt lat="45.86854449650316" lon="13.985093952661945"><ele>418.0</ele><time>2026-05-01T13:25:13.999Z</time></trkpt><trkpt lat="45.86840236398782" lon="13.985074804028908"><ele>418.0</ele><time>2026-05-01T13:25:14.999Z</time></trkpt><trkpt lat="45.868253020982245" lon="13.985058880366344"><ele>422.33333333333337</ele><time>2026-05-01T13:25:15.999Z</time></trkpt><trkpt lat="45.868105986850495" lon="13.985022311507796"><ele>426.66666666666663</ele><time>2026-05-01T13:25:16.999Z</time></trkpt><trkpt lat="45.867950608662284" lon="13.984999585887312"><ele>431.0</ele><time>2026-05-01T13:25:17.999Z</time></trkpt><trkpt lat="45.86780434411367" lon="13.984978193240032"><ele>432.75</ele><time>2026-05-01T13:25:18.999Z</time></trkpt><trkpt lat="45.86766809401949" lon="13.984960784623413"><ele>434.5</ele><time>2026-05-01T13:25:19.999Z</time></trkpt><trkpt lat="45.86754235649851" lon="13.984972889499657"><ele>436.25</ele><time>2026-05-01T13:25:20.999Z</time></trkpt><trkpt lat="45.86741495609888" lon="13.98497722022591"><ele>438.0</ele><time>2026-05-01T13:25:21.999Z</time></trkpt><trkpt lat="45.86728590901692" lon="13.984965752707634"><ele>439.5</ele><time>2026-05-01T13:25:22.999Z</time></trkpt><trkpt lat="45.867161505247275" lon="13.985000916507165"><ele>441.0</ele><time>2026-05-01T13:25:23.999Z</time></trkpt><trkpt lat="45.86704627077274" lon="13.984992103309876"><ele>442.5</ele><time>2026-05-01T13:25:24.999Z</time></trkpt><trkpt lat="45.866947449824515" lon="13.98489385393308"><ele>444.0</ele><time>2026-05-01T13:25:25.999Z</time></trkpt><trkpt lat="45.86683901244505" lon="13.984768515228819"><ele>445.25</ele><time>2026-05-01T13:25:26.999Z</time></trkpt><trkpt lat="45.866720397751585" lon="13.98463450685525"><ele>446.5</ele><time>2026-05-01T13:25:27.999Z</time></trkpt><trkpt lat="45.86661953926275" lon="13.984469793036467"><ele>447.75</ele><time>2026-05-01T13:25:28.999Z</time></trkpt><trkpt lat="45.866517689459236" lon="13.984323199705862"><ele>449.0</ele><time>2026-05-01T13:25:29.999Z</time></trkpt><trkpt lat="45.86642339664755" lon="13.98418327385104"><ele>451.75</ele><time>2026-05-01T13:25:30.999Z</time></trkpt><trkpt lat="45.86632602379261" lon="13.984088131038112"><ele>454.5</ele><time>2026-05-01T13:25:31.999Z</time></trkpt><trkpt lat="45.866215960783464" lon="13.984037280854798"><ele>457.25</ele><time>2026-05-01T13:25:32.999Z</time></trkpt><trkpt lat="45.86609117351285" lon="13.984028078750336"><ele>460.0</ele><time>2026-05-01T13:25:33.999Z</time></trkpt><trkpt lat="45.865950196309726" lon="13.984048171788515"><ele>460.4</ele><time>2026-05-01T13:25:34.999Z</time></trkpt><trkpt lat="45.86581172671067" lon="13.984058286100137"><ele>460.8</ele><time>2026-05-01T13:25:35.999Z</time></trkpt><trkpt lat="45.86569986845254" lon="13.984080904216295"><ele>461.20000000000005</ele><time>2026-05-01T13:25:36.999Z</time></trkpt><trkpt lat="45.86560581715414" lon="13.984109149127194"><ele>461.6</ele><time>2026-05-01T13:25:37.999Z</time></trkpt><trkpt lat="45.86553296725427" lon="13.984152833873797"><ele>462.0</ele><time>2026-05-01T13:25:38.999Z</time></trkpt><trkpt lat="45.865478736623494" lon="13.984277992505044"><ele>462.0</ele><time>2026-05-01T13:25:39.999Z</time></trkpt><trkpt lat="45.86549647915479" lon="13.984473624687638"><ele>462.0</ele><time>2026-05-01T13:25:40.999Z</time></trkpt><trkpt lat="45.865428131810894" lon="13.98461126619804"><ele>462.0</ele><time>2026-05-01T13:25:41.999Z</time></trkpt><trkpt lat="45.86535366231541" lon="13.984755553721062"><ele>462.0</ele><time>2026-05-01T13:25:42.999Z</time></trkpt><trkpt lat="45.865277225568306" lon="13.984904632714082"><ele>460.8</ele><time>2026-05-01T13:25:43.999Z</time></trkpt><trkpt lat="45.86521272143063" lon="13.985047411320732"><ele>459.6</ele><time>2026-05-01T13:25:44.999Z</time></trkpt><trkpt lat="45.86515054925242" lon="13.985176819746034"><ele>458.40000000000003</ele><time>2026-05-01T13:25:45.999Z</time></trkpt><trkpt lat="45.86507616542182" lon="13.98528411467456"><ele>457.20000000000005</ele><time>2026-05-01T13:25:46.999Z</time></trkpt><trkpt lat="45.864976153429275" lon="13.985315239675705"><ele>456.0</ele><time>2026-05-01T13:25:47.999Z</time></trkpt><trkpt lat="45.86484390361421" lon="13.985377921797422"><ele>459.6</ele><time>2026-05-01T13:25:48.999Z</time></trkpt><trkpt lat="45.864733599144174" lon="13.985437297749293"><ele>463.20000000000005</ele><time>2026-05-01T13:25:49.999Z</time></trkpt><trkpt lat="45.86464206272428" lon="13.985492100802443"><ele>466.79999999999995</ele><time>2026-05-01T13:25:50.999Z</time></trkpt><trkpt lat="45.86455083018028" lon="13.985560380874727"><ele>470.4</ele><time>2026-05-01T13:25:51.999Z</time></trkpt><trkpt lat="45.86445841997797" lon="13.985647075262312"><ele>474.0</ele><time>2026-05-01T13:25:52.999Z</time></trkpt><trkpt lat="45.86435901121392" lon="13.98575238261496"><ele>479.25</ele><time>2026-05-01T13:25:53.999Z</time></trkpt><trkpt lat="45.86425172857746" lon="13.985867720877454"><ele>484.5</ele><time>2026-05-01T13:25:54.999Z</time></trkpt><trkpt lat="45.86415746411005" lon="13.986020272514201"><ele>489.75</ele><time>2026-05-01T13:25:55.999Z</time></trkpt><trkpt lat="45.86404103677377" lon="13.986115316182154"><ele>495.0</ele><time>2026-05-01T13:25:56.999Z</time></trkpt><trkpt lat="45.863925838416236" lon="13.986208176285789"><ele>495.0</ele><time>2026-05-01T13:25:57.999Z</time></trkpt><trkpt lat="45.86380323291468" lon="13.98628867984947"><ele>495.0</ele><time>2026-05-01T13:25:58.999Z</time></trkpt><trkpt lat="45.86368438910823" lon="13.986374541200288"><ele>495.0</ele><time>2026-05-01T13:25:59.999Z</time></trkpt><trkpt lat="45.86358242659845" lon="13.986456435331238"><ele>495.0</ele><time>2026-05-01T13:26:00.999Z</time></trkpt><trkpt lat="45.86349471993111" lon="13.986506203749379"><ele>497.0</ele><time>2026-05-01T13:26:01.999Z</time></trkpt><trkpt lat="45.86339927076181" lon="13.98650918349746"><ele>499.0</ele><time>2026-05-01T13:26:02.999Z</time></trkpt><trkpt lat="45.86329318620909" lon="13.986529009538808"><ele>501.0</ele><time>2026-05-01T13:26:03.999Z</time></trkpt><trkpt lat="45.86319743177405" lon="13.986551607448236"><ele>503.0</ele><time>2026-05-01T13:26:04.999Z</time></trkpt><trkpt lat="45.863101760484504" lon="13.986565061131882"><ele>505.0</ele><time>2026-05-01T13:26:05.999Z</time></trkpt><trkpt lat="45.863000273230845" lon="13.986525512654486"><ele>505.0</ele><time>2026-05-01T13:26:06.999Z</time></trkpt><trkpt lat="45.86288487289818" lon="13.986419692244906"><ele>505.0</ele><time>2026-05-01T13:26:07.999Z</time></trkpt><trkpt lat="45.8627475817255" lon="13.986297056589994"><ele>505.0</ele><time>2026-05-01T13:26:08.999Z</time></trkpt><trkpt lat="45.86260630124038" lon="13.986194900024492"><ele>505.0</ele><time>2026-05-01T13:26:09.999Z</time></trkpt><trkpt lat="45.86247915217738" lon="13.986083102223642"><ele>505.0</ele><time>2026-05-01T13:26:10.999Z</time></trkpt><trkpt lat="45.86234678553736" lon="13.985997507895794"><ele>505.0</ele><time>2026-05-01T13:26:11.999Z</time></trkpt><trkpt lat="45.86221237399295" lon="13.985944048722992"><ele>505.0</ele><time>2026-05-01T13:26:12.999Z</time></trkpt><trkpt lat="45.862075195371226" lon="13.98589942251662"><ele>505.0</ele><time>2026-05-01T13:26:13.999Z</time></trkpt><trkpt lat="45.86192761537393" lon="13.98590313409844"><ele>505.0</ele><time>2026-05-01T13:26:14.999Z</time></trkpt><trkpt lat="45.861770771212555" lon="13.985849736083473"><ele>505.0</ele><time>2026-05-01T13:26:15.999Z</time></trkpt><trkpt lat="45.86160697258209" lon="13.985799162658312"><ele>509.0</ele><time>2026-05-01T13:26:16.999Z</time></trkpt><trkpt lat="45.86144664026735" lon="13.98575080730307"><ele>513.0</ele><time>2026-05-01T13:26:17.999Z</time></trkpt><trkpt lat="45.861301874604344" lon="13.985704974477594"><ele>517.0</ele><time>2026-05-01T13:26:18.999Z</time></trkpt><trkpt lat="45.86116734599501" lon="13.985657565471756"><ele>517.0</ele><time>2026-05-01T13:26:19.999Z</time></trkpt><trkpt lat="45.86103221573255" lon="13.985595907026699"><ele>517.0</ele><time>2026-05-01T13:26:20.999Z</time></trkpt><trkpt lat="45.86089469979537" lon="13.985527921529446"><ele>517.0</ele><time>2026-05-01T13:26:21.999Z</time></trkpt><trkpt lat="45.860751539039946" lon="13.985481858636346"><ele>517.0</ele><time>2026-05-01T13:26:22.999Z</time></trkpt><trkpt lat="45.860610118790355" lon="13.985432406709556"><ele>518.5</ele><time>2026-05-01T13:26:23.999Z</time></trkpt><trkpt lat="45.86046795401094" lon="13.985427308214751"><ele>520.0</ele><time>2026-05-01T13:26:24.999Z</time></trkpt><trkpt lat="45.860334554667666" lon="13.985428564288682"><ele>521.5</ele><time>2026-05-01T13:26:25.999Z</time></trkpt><trkpt lat="45.860240881231405" lon="13.985538262468944"><ele>523.0</ele><time>2026-05-01T13:26:26.999Z</time></trkpt><trkpt lat="45.8601657250594" lon="13.985686199597769"><ele>526.4</ele><time>2026-05-01T13:26:28.999Z</time></trkpt><trkpt lat="45.86010914209239" lon="13.985768409526143"><ele>529.8</ele><time>2026-05-01T13:26:29.999Z</time></trkpt><trkpt lat="45.860066928393465" lon="13.98588670894954"><ele>533.2</ele><time>2026-05-01T13:26:30.999Z</time></trkpt><trkpt lat="45.85998749087082" lon="13.985996580779922"><ele>536.6</ele><time>2026-05-01T13:26:31.999Z</time></trkpt><trkpt lat="45.85991007834922" lon="13.986124266286023"><ele>540.0</ele><time>2026-05-01T13:26:32.999Z</time></trkpt><trkpt lat="45.85982416330519" lon="13.986265058944126"><ele>540.0</ele><time>2026-05-01T13:26:33.999Z</time></trkpt><trkpt lat="45.859740562282994" lon="13.98642958650649"><ele>540.0</ele><time>2026-05-01T13:26:34.999Z</time></trkpt><trkpt lat="45.85962503750783" lon="13.986559513336967"><ele>540.0</ele><time>2026-05-01T13:26:35.999Z</time></trkpt><trkpt lat="45.85951500795511" lon="13.986686760128068"><ele>540.0</ele><time>2026-05-01T13:26:36.999Z</time></trkpt><trkpt lat="45.85940593941831" lon="13.986785312421166"><ele>539.0</ele><time>2026-05-01T13:26:37.999Z</time></trkpt><trkpt lat="45.859289001397336" lon="13.986882734085999"><ele>538.0</ele><time>2026-05-01T13:26:38.999Z</time></trkpt><trkpt lat="45.85917295413312" lon="13.98698691090226"><ele>537.0</ele><time>2026-05-01T13:26:39.999Z</time></trkpt><trkpt lat="45.85905642820808" lon="13.987101265998279"><ele>536.0</ele><time>2026-05-01T13:26:40.999Z</time></trkpt><trkpt lat="45.858938720753045" lon="13.987225973378639"><ele>540.0</ele><time>2026-05-01T13:26:41.999Z</time></trkpt><trkpt lat="45.858820476713596" lon="13.987346962558613"><ele>544.0</ele><time>2026-05-01T13:26:42.999Z</time></trkpt><trkpt lat="45.858702246916344" lon="13.987465628555"><ele>548.0</ele><time>2026-05-01T13:26:43.999Z</time></trkpt><trkpt lat="45.85858254246408" lon="13.987586389710634"><ele>552.0</ele><time>2026-05-01T13:26:44.999Z</time></trkpt><trkpt lat="45.85846365783384" lon="13.987709312455676"><ele>557.6666666666666</ele><time>2026-05-01T13:26:45.999Z</time></trkpt><trkpt lat="45.858336825271024" lon="13.987829017953775"><ele>563.3333333333333</ele><time>2026-05-01T13:26:46.999Z</time></trkpt><trkpt lat="45.858207967489385" lon="13.987944890537243"><ele>569.0</ele><time>2026-05-01T13:26:47.999Z</time></trkpt><trkpt lat="45.85807754053107" lon="13.988047317909833"><ele>569.0</ele><time>2026-05-01T13:26:48.999Z</time></trkpt><trkpt lat="45.85795362563727" lon="13.98816265565608"><ele>569.0</ele><time>2026-05-01T13:26:49.999Z</time></trkpt><trkpt lat="45.85783898327555" lon="13.988296477814206"><ele>569.0</ele><time>2026-05-01T13:26:50.999Z</time></trkpt><trkpt lat="45.857727958907134" lon="13.98842367971314"><ele>569.0</ele><time>2026-05-01T13:26:51.999Z</time></trkpt><trkpt lat="45.85761355494378" lon="13.988541109977774"><ele>574.5</ele><time>2026-05-01T13:26:52.999Z</time></trkpt><trkpt lat="45.85749226387041" lon="13.988661741120634"><ele>580.0</ele><time>2026-05-01T13:26:53.999Z</time></trkpt><trkpt lat="45.85737346533115" lon="13.988779893430861"><ele>585.5</ele><time>2026-05-01T13:26:54.999Z</time></trkpt><trkpt lat="45.85725286893931" lon="13.98890025620706"><ele>591.0</ele><time>2026-05-01T13:26:55.999Z</time></trkpt><trkpt lat="45.85713375879973" lon="13.989020684892749"><ele>591.0</ele><time>2026-05-01T13:26:56.999Z</time></trkpt><trkpt lat="45.85703741754596" lon="13.989111719336035"><ele>591.0</ele><time>2026-05-01T13:26:57.999Z</time></trkpt><trkpt lat="45.85694136582347" lon="13.98917752450787"><ele>591.0</ele><time>2026-05-01T13:26:58.999Z</time></trkpt><trkpt lat="45.8568322747077" lon="13.989198711362002"><ele>591.0</ele><time>2026-05-01T13:26:59.999Z</time></trkpt><trkpt lat="45.85671051058143" lon="13.98922961376122"><ele>593.6</ele><time>2026-05-01T13:27:00.999Z</time></trkpt><trkpt lat="45.85659850675917" lon="13.989250684143647"><ele>596.2</ele><time>2026-05-01T13:27:01.999Z</time></trkpt><trkpt lat="45.856502844510665" lon="13.989259109260857"><ele>598.8</ele><time>2026-05-01T13:27:02.999Z</time></trkpt><trkpt lat="45.85640006176023" lon="13.989243121137495"><ele>601.4</ele><time>2026-05-01T13:27:03.999Z</time></trkpt><trkpt lat="45.85630144320445" lon="13.989182409920161"><ele>604.0</ele><time>2026-05-01T13:27:04.999Z</time></trkpt><trkpt lat="45.856173302257275" lon="13.989144396822798"><ele>604.0</ele><time>2026-05-01T13:27:05.999Z</time></trkpt><trkpt lat="45.856022045807094" lon="13.989150472435782"><ele>604.0</ele><time>2026-05-01T13:27:06.999Z</time></trkpt><trkpt lat="45.855890345995654" lon="13.98915667133922"><ele>604.0</ele><time>2026-05-01T13:27:07.999Z</time></trkpt><trkpt lat="45.85574881305907" lon="13.989163739346417"><ele>604.0</ele><time>2026-05-01T13:27:08.999Z</time></trkpt><trkpt lat="45.85562167142069" lon="13.989177665286112"><ele>607.25</ele><time>2026-05-01T13:27:09.999Z</time></trkpt><trkpt lat="45.85551331310202" lon="13.989190835316844"><ele>610.5</ele><time>2026-05-01T13:27:10.999Z</time></trkpt><trkpt lat="45.85540465182287" lon="13.989191734747196"><ele>613.75</ele><time>2026-05-01T13:27:11.999Z</time></trkpt><trkpt lat="45.85530805181013" lon="13.989185223519607"><ele>617.0</ele><time>2026-05-01T13:27:12.999Z</time></trkpt><trkpt lat="45.85511944271818" lon="13.989176603557791"><ele>618.25</ele><time>2026-05-01T13:27:13.999Z</time></trkpt><trkpt lat="45.85499292311082" lon="13.989219559529062"><ele>619.5</ele><time>2026-05-01T13:27:14.999Z</time></trkpt><trkpt lat="45.85486795481156" lon="13.989257093822632"><ele>620.75</ele><time>2026-05-01T13:27:15.999Z</time></trkpt><trkpt lat="45.85474979408397" lon="13.989322219755723"><ele>622.0</ele><time>2026-05-01T13:27:16.999Z</time></trkpt><trkpt lat="45.8546262970255" lon="13.989389486275154"><ele>622.0</ele><time>2026-05-01T13:27:17.999Z</time></trkpt><trkpt lat="45.8544935095248" lon="13.989406646909778"><ele>622.0</ele><time>2026-05-01T13:27:18.999Z</time></trkpt><trkpt lat="45.85436460768143" lon="13.989426548593086"><ele>622.0</ele><time>2026-05-01T13:27:19.999Z</time></trkpt><trkpt lat="45.85423642036377" lon="13.98943208056944"><ele>622.0</ele><time>2026-05-01T13:27:20.999Z</time></trkpt><trkpt lat="45.85411111489081" lon="13.989395765281245"><ele>626.0</ele><time>2026-05-01T13:27:21.999Z</time></trkpt><trkpt lat="45.85396871076939" lon="13.98937338943465"><ele>630.0</ele><time>2026-05-01T13:27:22.999Z</time></trkpt><trkpt lat="45.853822263129665" lon="13.989402688225763"><ele>634.0</ele><time>2026-05-01T13:27:23.999Z</time></trkpt><trkpt lat="45.85368074939248" lon="13.989445521366157"><ele>638.0</ele><time>2026-05-01T13:27:24.999Z</time></trkpt><trkpt lat="45.85355496664598" lon="13.989489557200224"><ele>638.0</ele><time>2026-05-01T13:27:25.999Z</time></trkpt><trkpt lat="45.85345825761068" lon="13.989536358975345"><ele>638.0</ele><time>2026-05-01T13:27:26.999Z</time></trkpt><trkpt lat="45.85337677571244" lon="13.989595757952735"><ele>638.0</ele><time>2026-05-01T13:27:27.999Z</time></trkpt><trkpt lat="45.853293202894804" lon="13.98965236776702"><ele>638.0</ele><time>2026-05-01T13:27:28.999Z</time></trkpt><trkpt lat="45.85322194317779" lon="13.989746293324819"><ele>638.0</ele><time>2026-05-01T13:27:29.999Z</time></trkpt><trkpt lat="45.85318583230138" lon="13.989860647527602"><ele>640.75</ele><time>2026-05-01T13:27:30.999Z</time></trkpt><trkpt lat="45.85318213726559" lon="13.990005140504696"><ele>643.5</ele><time>2026-05-01T13:27:31.999Z</time></trkpt><trkpt lat="45.85322714046484" lon="13.990156098786407"><ele>646.25</ele><time>2026-05-01T13:27:32.999Z</time></trkpt><trkpt lat="45.85329306465877" lon="13.990312678089001"><ele>649.0</ele><time>2026-05-01T13:27:33.999Z</time></trkpt><trkpt lat="45.85334511657396" lon="13.99047579530981"><ele>649.25</ele><time>2026-05-01T13:27:34.999Z</time></trkpt><trkpt lat="45.85341068083727" lon="13.990662936744478"><ele>649.5</ele><time>2026-05-01T13:27:35.999Z</time></trkpt><trkpt lat="45.853478793392405" lon="13.990835262133547"><ele>649.75</ele><time>2026-05-01T13:27:36.999Z</time></trkpt><trkpt lat="45.85356077331484" lon="13.99100175211149"><ele>650.0</ele><time>2026-05-01T13:27:37.999Z</time></trkpt><trkpt lat="45.85362080941812" lon="13.9911752180708"><ele>652.0</ele><time>2026-05-01T13:27:38.999Z</time></trkpt><trkpt lat="45.85365956354596" lon="13.991319236551933"><ele>654.0</ele><time>2026-05-01T13:27:39.999Z</time></trkpt><trkpt lat="45.85369709927484" lon="13.991459479287764"><ele>656.0</ele><time>2026-05-01T13:27:40.999Z</time></trkpt><trkpt lat="45.85370761485297" lon="13.991624633485056"><ele>658.0</ele><time>2026-05-01T13:27:41.999Z</time></trkpt><trkpt lat="45.85371672738392" lon="13.991802859827148"><ele>659.25</ele><time>2026-05-01T13:27:42.999Z</time></trkpt><trkpt lat="45.85370351816837" lon="13.991987207167497"><ele>660.5</ele><time>2026-05-01T13:27:43.999Z</time></trkpt><trkpt lat="45.85369985141759" lon="13.992163045763615"><ele>661.75</ele><time>2026-05-01T13:27:44.999Z</time></trkpt><trkpt lat="45.85368513353032" lon="13.992335236174572"><ele>663.0</ele><time>2026-05-01T13:27:45.999Z</time></trkpt><trkpt lat="45.85366197915498" lon="13.992488400390656"><ele>664.2</ele><time>2026-05-01T13:27:46.999Z</time></trkpt><trkpt lat="45.853621244743884" lon="13.992620753622182"><ele>665.4</ele><time>2026-05-01T13:27:47.999Z</time></trkpt><trkpt lat="45.85362468096503" lon="13.992766188025172"><ele>666.6</ele><time>2026-05-01T13:27:48.999Z</time></trkpt><trkpt lat="45.8536329972196" lon="13.992907096040026"><ele>667.8000000000001</ele><time>2026-05-01T13:27:49.999Z</time></trkpt><trkpt lat="45.853677886315225" lon="13.99305677341337"><ele>669.0</ele><time>2026-05-01T13:27:50.999Z</time></trkpt><trkpt lat="45.85371946460945" lon="13.993238146283298"><ele>672.25</ele><time>2026-05-01T13:27:51.999Z</time></trkpt><trkpt lat="45.8537482932836" lon="13.993417045780237"><ele>675.5</ele><time>2026-05-01T13:27:52.999Z</time></trkpt><trkpt lat="45.853780025305845" lon="13.993589154691566"><ele>678.75</ele><time>2026-05-01T13:27:53.999Z</time></trkpt><trkpt lat="45.85377833596166" lon="13.993766963467777"><ele>682.0</ele><time>2026-05-01T13:27:54.999Z</time></trkpt><trkpt lat="45.853776961696255" lon="13.993942287597271"><ele>682.0</ele><time>2026-05-01T13:27:55.999Z</time></trkpt><trkpt lat="45.853775556754" lon="13.994120028536674"><ele>682.0</ele><time>2026-05-01T13:27:56.999Z</time></trkpt><trkpt lat="45.85377943397491" lon="13.994290266827193"><ele>682.0</ele><time>2026-05-01T13:27:57.999Z</time></trkpt><trkpt lat="45.853798110428194" lon="13.994470973719135"><ele>682.0</ele><time>2026-05-01T13:27:58.999Z</time></trkpt><trkpt lat="45.85382840481605" lon="13.994639085227899"><ele>684.2</ele><time>2026-05-01T13:27:59.999Z</time></trkpt><trkpt lat="45.853859037772104" lon="13.99479116409292"><ele>686.4000000000001</ele><time>2026-05-01T13:28:00.999Z</time></trkpt><trkpt lat="45.853895982375526" lon="13.994932267723794"><ele>688.5999999999999</ele><time>2026-05-01T13:28:01.999Z</time></trkpt><trkpt lat="45.853933879824645" lon="13.99508650127413"><ele>690.8</ele><time>2026-05-01T13:28:02.999Z</time></trkpt><trkpt lat="45.85396950671082" lon="13.995239889039924"><ele>693.0</ele><time>2026-05-01T13:28:03.999Z</time></trkpt><trkpt lat="45.85400190581572" lon="13.995390374784025"><ele>694.25</ele><time>2026-05-01T13:28:04.999Z</time></trkpt><trkpt lat="45.85403369693993" lon="13.99555269124077"><ele>695.5</ele><time>2026-05-01T13:28:05.999Z</time></trkpt><trkpt lat="45.854064842155125" lon="13.995721086991956"><ele>696.75</ele><time>2026-05-01T13:28:06.999Z</time></trkpt><trkpt lat="45.85409997042305" lon="13.995896792732903"><ele>698.0</ele><time>2026-05-01T13:28:07.999Z</time></trkpt><trkpt lat="45.85414148767906" lon="13.996086027020642"><ele>698.75</ele><time>2026-05-01T13:28:08.999Z</time></trkpt><trkpt lat="45.85418027274867" lon="13.99628528322828"><ele>699.5</ele><time>2026-05-01T13:28:09.999Z</time></trkpt><trkpt lat="45.85422025235785" lon="13.996490387013738"><ele>700.25</ele><time>2026-05-01T13:28:10.999Z</time></trkpt><trkpt lat="45.85426443314269" lon="13.996699205724648"><ele>701.0</ele><time>2026-05-01T13:28:11.999Z</time></trkpt><trkpt lat="45.85430403082564" lon="13.996881532850328"><ele>701.25</ele><time>2026-05-01T13:28:12.999Z</time></trkpt><trkpt lat="45.854344774478086" lon="13.997065826332362"><ele>701.5</ele><time>2026-05-01T13:28:13.999Z</time></trkpt><trkpt lat="45.85438390332381" lon="13.997253283750604"><ele>701.75</ele><time>2026-05-01T13:28:14.999Z</time></trkpt><trkpt lat="45.85442414170524" lon="13.99743301923921"><ele>702.0</ele><time>2026-05-01T13:28:15.999Z</time></trkpt><trkpt lat="45.854456825307544" lon="13.997586197585122"><ele>702.8333333333334</ele><time>2026-05-01T13:28:17Z</time></trkpt><trkpt lat="45.85447340638845" lon="13.997720179895234"><ele>703.6666666666666</ele><time>2026-05-01T13:28:18Z</time></trkpt><trkpt lat="45.85448014144138" lon="13.997829490413498"><ele>704.5</ele><time>2026-05-01T13:28:19Z</time></trkpt><trkpt lat="45.85444602361831" lon="13.997910389231993"><ele>705.3333333333333</ele><time>2026-05-01T13:28:20Z</time></trkpt><trkpt lat="45.854368164255185" lon="13.997949197895213"><ele>706.1666666666666</ele><time>2026-05-01T13:28:21Z</time></trkpt><trkpt lat="45.85425817399223" lon="13.997936769250813"><ele>707.0</ele><time>2026-05-01T13:28:22Z</time></trkpt><trkpt lat="45.85413272447985" lon="13.997873951726751"><ele>707.75</ele><time>2026-05-01T13:28:23Z</time></trkpt><trkpt lat="45.85400387498199" lon="13.997791121641903"><ele>708.5</ele><time>2026-05-01T13:28:24Z</time></trkpt><trkpt lat="45.85389164318807" lon="13.997683198366682"><ele>709.25</ele><time>2026-05-01T13:28:25Z</time></trkpt><trkpt lat="45.85378798824976" lon="13.99754745290476"><ele>710.0</ele><time>2026-05-01T13:28:26Z</time></trkpt><trkpt lat="45.85368707192893" lon="13.997412264827704"><ele>710.0</ele><time>2026-05-01T13:28:27Z</time></trkpt><trkpt lat="45.853587743862" lon="13.997294710711264"><ele>710.0</ele><time>2026-05-01T13:28:28Z</time></trkpt><trkpt lat="45.853460247871034" lon="13.997160632622963"><ele>710.0</ele><time>2026-05-01T13:28:29Z</time></trkpt><trkpt lat="45.85335437206087" lon="13.997005546790055"><ele>710.0</ele><time>2026-05-01T13:28:30Z</time></trkpt><trkpt lat="45.853250663713474" lon="13.996841586674968"><ele>713.25</ele><time>2026-05-01T13:28:31Z</time></trkpt><trkpt lat="45.85317352126371" lon="13.996709364843742"><ele>716.5</ele><time>2026-05-01T13:28:32Z</time></trkpt><trkpt lat="45.85311929399764" lon="13.996598240304817"><ele>719.75</ele><time>2026-05-01T13:28:33Z</time></trkpt><trkpt lat="45.853046012280835" lon="13.996436007173433"><ele>723.0</ele><time>2026-05-01T13:28:34Z</time></trkpt><trkpt lat="45.85299080902613" lon="13.99625023305284"><ele>723.0</ele><time>2026-05-01T13:28:35Z</time></trkpt><trkpt lat="45.85294317017951" lon="13.996091945409443"><ele>723.0</ele><time>2026-05-01T13:28:36Z</time></trkpt><trkpt lat="45.85288392753456" lon="13.995963436956227"><ele>723.0</ele><time>2026-05-01T13:28:37Z</time></trkpt><trkpt lat="45.85279574766014" lon="13.995854139749683"><ele>723.0</ele><time>2026-05-01T13:28:38Z</time></trkpt><trkpt lat="45.85268879199364" lon="13.995752918686776"><ele>727.5</ele><time>2026-05-01T13:28:39Z</time></trkpt><trkpt lat="45.85258179575825" lon="13.995645698442578"><ele>732.0</ele><time>2026-05-01T13:28:40Z</time></trkpt><trkpt lat="45.85247831095101" lon="13.995550162486248"><ele>736.5</ele><time>2026-05-01T13:28:41Z</time></trkpt><trkpt lat="45.85236767081381" lon="13.99547278073753"><ele>741.0</ele><time>2026-05-01T13:28:42Z</time></trkpt><trkpt lat="45.85224831023071" lon="13.995415673560055"><ele>741.0</ele><time>2026-05-01T13:28:43Z</time></trkpt><trkpt lat="45.852124612969064" lon="13.995371359161883"><ele>741.0</ele><time>2026-05-01T13:28:44Z</time></trkpt><trkpt lat="45.85200063839711" lon="13.995336782305595"><ele>741.0</ele><time>2026-05-01T13:28:45Z</time></trkpt><trkpt lat="45.85186723761502" lon="13.99531338641082"><ele>741.0</ele><time>2026-05-01T13:28:46Z</time></trkpt><trkpt lat="45.85173325078631" lon="13.995263210643554"><ele>745.75</ele><time>2026-05-01T13:28:47Z</time></trkpt><trkpt lat="45.85159200104733" lon="13.995261250743438"><ele>750.5</ele><time>2026-05-01T13:28:48Z</time></trkpt><trkpt lat="45.85145475311253" lon="13.995270583091312"><ele>755.25</ele><time>2026-05-01T13:28:49Z</time></trkpt><trkpt lat="45.85132031043474" lon="13.995257806950834"><ele>760.0</ele><time>2026-05-01T13:28:50Z</time></trkpt><trkpt lat="45.851193412307296" lon="13.995227870970764"><ele>760.0</ele><time>2026-05-01T13:28:51Z</time></trkpt><trkpt lat="45.851084866295544" lon="13.995203296086128"><ele>760.0</ele><time>2026-05-01T13:28:52Z</time></trkpt><trkpt lat="45.8509754245072" lon="13.995218822189733"><ele>760.0</ele><time>2026-05-01T13:28:53Z</time></trkpt><trkpt lat="45.85086610864829" lon="13.99527146359436"><ele>760.0</ele><time>2026-05-01T13:28:54Z</time></trkpt><trkpt lat="45.850750958467714" lon="13.995331893554365"><ele>761.5</ele><time>2026-05-01T13:28:55Z</time></trkpt><trkpt lat="45.85063491756199" lon="13.995388216274574"><ele>763.0</ele><time>2026-05-01T13:28:56Z</time></trkpt><trkpt lat="45.850509653956685" lon="13.995413905322705"><ele>764.5</ele><time>2026-05-01T13:28:57Z</time></trkpt><trkpt lat="45.85037805613312" lon="13.995416783131247"><ele>766.0</ele><time>2026-05-01T13:28:58Z</time></trkpt><trkpt lat="45.85023409809924" lon="13.995408494734358"><ele>766.25</ele><time>2026-05-01T13:28:59Z</time></trkpt><trkpt lat="45.85009712324933" lon="13.995421290591219"><ele>766.5</ele><time>2026-05-01T13:29:00Z</time></trkpt><trkpt lat="45.84998928471925" lon="13.995445284024672"><ele>766.75</ele><time>2026-05-01T13:29:01Z</time></trkpt><trkpt lat="45.84987635903882" lon="13.995466956552685"><ele>767.0</ele><time>2026-05-01T13:29:02Z</time></trkpt><trkpt lat="45.84975196635893" lon="13.995466306092581"><ele>767.0</ele><time>2026-05-01T13:29:03Z</time></trkpt><trkpt lat="45.8496308437289" lon="13.995458165520809"><ele>767.0</ele><time>2026-05-01T13:29:04Z</time></trkpt><trkpt lat="45.8495254760909" lon="13.995447202009345"><ele>767.0</ele><time>2026-05-01T13:29:05Z</time></trkpt><trkpt lat="45.849431252005644" lon="13.995433940407663"><ele>767.0</ele><time>2026-05-01T13:29:06Z</time></trkpt><trkpt lat="45.84933469741021" lon="13.99541447107014"><ele>767.0</ele><time>2026-05-01T13:29:07Z</time></trkpt><trkpt lat="45.8492394810309" lon="13.995376296498737"><ele>768.0</ele><time>2026-05-01T13:29:08Z</time></trkpt><trkpt lat="45.84914813673322" lon="13.995318953079375"><ele>769.0</ele><time>2026-05-01T13:29:09Z</time></trkpt><trkpt lat="45.8490557175617" lon="13.995247506187528"><ele>770.0</ele><time>2026-05-01T13:29:10Z</time></trkpt><trkpt lat="45.84897200598864" lon="13.995193255401311"><ele>771.0</ele><time>2026-05-01T13:29:11Z</time></trkpt><trkpt lat="45.84888099053309" lon="13.995168115687179"><ele>772.0</ele><time>2026-05-01T13:29:12Z</time></trkpt><trkpt lat="45.84878846402704" lon="13.995206872115912"><ele>772.0</ele><time>2026-05-01T13:29:13Z</time></trkpt><trkpt lat="45.84873362687494" lon="13.995345515506722"><ele>772.0</ele><time>2026-05-01T13:29:14Z</time></trkpt><trkpt lat="45.84869713565165" lon="13.995471581608312"><ele>772.0</ele><time>2026-05-01T13:29:15Z</time></trkpt><trkpt lat="45.84865732345138" lon="13.995591663595588"><ele>772.0</ele><time>2026-05-01T13:29:16Z</time></trkpt><trkpt lat="45.84861697139508" lon="13.995718102048487"><ele>772.0</ele><time>2026-05-01T13:29:17Z</time></trkpt><trkpt lat="45.84858165373519" lon="13.995865965728083"><ele>773.8</ele><time>2026-05-01T13:29:18Z</time></trkpt><trkpt lat="45.84855886441991" lon="13.996008742038903"><ele>775.6</ele><time>2026-05-01T13:29:19Z</time></trkpt><trkpt lat="45.84854378700074" lon="13.9961757431169"><ele>777.4</ele><time>2026-05-01T13:29:20Z</time></trkpt><trkpt lat="45.8485374298889" lon="13.996328844531293"><ele>779.1999999999999</ele><time>2026-05-01T13:29:21Z</time></trkpt><trkpt lat="45.84851842764969" lon="13.99647597612144"><ele>781.0</ele><time>2026-05-01T13:29:22Z</time></trkpt><trkpt lat="45.848478272975946" lon="13.996618888703125"><ele>781.5</ele><time>2026-05-01T13:29:23Z</time></trkpt><trkpt lat="45.84841940642342" lon="13.996757744170017"><ele>782.0</ele><time>2026-05-01T13:29:24Z</time></trkpt><trkpt lat="45.84834628659412" lon="13.996889569425893"><ele>782.5</ele><time>2026-05-01T13:29:25Z</time></trkpt><trkpt lat="45.848261587732054" lon="13.997023368715377"><ele>783.0</ele><time>2026-05-01T13:29:26Z</time></trkpt><trkpt lat="45.8481808059414" lon="13.997156171385079"><ele>783.0</ele><time>2026-05-01T13:29:27Z</time></trkpt><trkpt lat="45.848097670352246" lon="13.997287132481068"><ele>783.0</ele><time>2026-05-01T13:29:28Z</time></trkpt><trkpt lat="45.848009005928276" lon="13.997396771020961"><ele>783.0</ele><time>2026-05-01T13:29:29Z</time></trkpt><trkpt lat="45.847910087554176" lon="13.99749205262523"><ele>783.0</ele><time>2026-05-01T13:29:30Z</time></trkpt><trkpt lat="45.84781116442628" lon="13.997596790163751"><ele>784.75</ele><time>2026-05-01T13:29:31Z</time></trkpt><trkpt lat="45.847713680499105" lon="13.997705529393285"><ele>786.5</ele><time>2026-05-01T13:29:32Z</time></trkpt><trkpt lat="45.84762601864337" lon="13.997821188913976"><ele>788.25</ele><time>2026-05-01T13:29:33Z</time></trkpt><trkpt lat="45.84754538389728" lon="13.997947366991328"><ele>790.0</ele><time>2026-05-01T13:29:34Z</time></trkpt><trkpt lat="45.84746891595077" lon="13.998079110170487"><ele>790.0</ele><time>2026-05-01T13:29:35Z</time></trkpt><trkpt lat="45.84740156553242" lon="13.998212528223602"><ele>790.0</ele><time>2026-05-01T13:29:36Z</time></trkpt><trkpt lat="45.84734706104465" lon="13.998356375561219"><ele>790.0</ele><time>2026-05-01T13:29:37Z</time></trkpt><trkpt lat="45.84732373410591" lon="13.998520480804679"><ele>790.0</ele><time>2026-05-01T13:29:38Z</time></trkpt><trkpt lat="45.847290712677655" lon="13.998686306958374"><ele>791.75</ele><time>2026-05-01T13:29:39Z</time></trkpt><trkpt lat="45.84726576053409" lon="13.998858103416994"><ele>793.5</ele><time>2026-05-01T13:29:40Z</time></trkpt><trkpt lat="45.84724711284498" lon="13.999025780188594"><ele>795.25</ele><time>2026-05-01T13:29:41Z</time></trkpt><trkpt lat="45.84724299462487" lon="13.9992027070839"><ele>797.0</ele><time>2026-05-01T13:29:42Z</time></trkpt><trkpt lat="45.84719713990823" lon="13.999362600974008"><ele>797.0</ele><time>2026-05-01T13:29:43Z</time></trkpt><trkpt lat="45.84716385245566" lon="13.999499709144752"><ele>797.0</ele><time>2026-05-01T13:29:44Z</time></trkpt><trkpt lat="45.84713201492189" lon="13.999647454537234"><ele>797.0</ele><time>2026-05-01T13:29:45Z</time></trkpt><trkpt lat="45.847113730841656" lon="13.999793846123818"><ele>797.0</ele><time>2026-05-01T13:29:46Z</time></trkpt><trkpt lat="45.84709398561345" lon="13.999922537210082"><ele>797.0</ele><time>2026-05-01T13:29:47Z</time></trkpt><trkpt lat="45.84705267586762" lon="14.000049097045478"><ele>797.0</ele><time>2026-05-01T13:29:48Z</time></trkpt><trkpt lat="45.84702373905875" lon="14.00018119724571"><ele>797.0</ele><time>2026-05-01T13:29:49Z</time></trkpt><trkpt lat="45.84699246154795" lon="14.000313161564911"><ele>797.0</ele><time>2026-05-01T13:29:50Z</time></trkpt><trkpt lat="45.84696875491511" lon="14.000448606032936"><ele>797.0</ele><time>2026-05-01T13:29:51Z</time></trkpt><trkpt lat="45.846921289990405" lon="14.000574937683227"><ele>797.0</ele><time>2026-05-01T13:29:52Z</time></trkpt><trkpt lat="45.84686058406077" lon="14.00070003617078"><ele>798.0</ele><time>2026-05-01T13:29:53Z</time></trkpt><trkpt lat="45.846787016761866" lon="14.000828469115943"><ele>799.0</ele><time>2026-05-01T13:29:54Z</time></trkpt><trkpt lat="45.84671072205742" lon="14.000960718289843"><ele>800.0</ele><time>2026-05-01T13:29:55Z</time></trkpt><trkpt lat="45.84663886267412" lon="14.001094492781819"><ele>801.0</ele><time>2026-05-01T13:29:56Z</time></trkpt><trkpt lat="45.846568110172115" lon="14.001231819858281"><ele>801.1999999999999</ele><time>2026-05-01T13:29:57Z</time></trkpt><trkpt lat="45.84650668424714" lon="14.001370455732042"><ele>801.4</ele><time>2026-05-01T13:29:58Z</time></trkpt><trkpt lat="45.846464056087726" lon="14.001498771864977"><ele>801.6</ele><time>2026-05-01T13:29:59Z</time></trkpt><trkpt lat="45.84643455055985" lon="14.001616234065335"><ele>801.8</ele><time>2026-05-01T13:30:00Z</time></trkpt><trkpt lat="45.8464088075177" lon="14.00172470437065"><ele>802.0</ele><time>2026-05-01T13:30:01Z</time></trkpt><trkpt lat="45.84636649489449" lon="14.001807015128572"><ele>802.3333333333333</ele><time>2026-05-01T13:30:02Z</time></trkpt><trkpt lat="45.846329500859014" lon="14.001896357372024"><ele>802.6666666666666</ele><time>2026-05-01T13:30:03Z</time></trkpt><trkpt lat="45.84629373113727" lon="14.002001362935795"><ele>803.0</ele><time>2026-05-01T13:30:04Z</time></trkpt><trkpt lat="45.84622842051274" lon="14.002094174445649"><ele>803.3333333333333</ele><time>2026-05-01T13:30:05Z</time></trkpt><trkpt lat="45.84614361210546" lon="14.002158979154828"><ele>803.6666666666666</ele><time>2026-05-01T13:30:06Z</time></trkpt><trkpt lat="45.84605196319587" lon="14.002211038222171"><ele>804.0</ele><time>2026-05-01T13:30:07Z</time></trkpt><trkpt lat="45.84597044949538" lon="14.002260295617239"><ele>804.0</ele><time>2026-05-01T13:30:08Z</time></trkpt><trkpt lat="45.845896508890036" lon="14.00229961689068"><ele>804.0</ele><time>2026-05-01T13:30:09Z</time></trkpt><trkpt lat="45.84579554126585" lon="14.002471206309112"><ele>804.0</ele><time>2026-05-01T13:30:10Z</time></trkpt><trkpt lat="45.84572938401805" lon="14.002603460082248"><ele>804.0</ele><time>2026-05-01T13:30:11Z</time></trkpt><trkpt lat="45.84567362314115" lon="14.002752183648806"><ele>804.0</ele><time>2026-05-01T13:30:12Z</time></trkpt><trkpt lat="45.845625151522206" lon="14.002910042246203"><ele>804.0</ele><time>2026-05-01T13:30:13Z</time></trkpt><trkpt lat="45.84558220297872" lon="14.003045865099958"><ele>804.0</ele><time>2026-05-01T13:30:14Z</time></trkpt><trkpt lat="45.84553296070863" lon="14.003158809382407"><ele>804.0</ele><time>2026-05-01T13:30:15Z</time></trkpt><trkpt lat="45.84549166899777" lon="14.003274934345828"><ele>804.0</ele><time>2026-05-01T13:30:16Z</time></trkpt><trkpt lat="45.84544318914584" lon="14.003402491426288"><ele>804.0</ele><time>2026-05-01T13:30:17Z</time></trkpt><trkpt lat="45.84537485968539" lon="14.003511972136613"><ele>804.0</ele><time>2026-05-01T13:30:18Z</time></trkpt><trkpt lat="45.84530372215087" lon="14.00362522685506"><ele>804.0</ele><time>2026-05-01T13:30:19Z</time></trkpt><trkpt lat="45.84522120992013" lon="14.003740120087915"><ele>804.0</ele><time>2026-05-01T13:30:20Z</time></trkpt><trkpt lat="45.84514756519234" lon="14.003841676320873"><ele>804.0</ele><time>2026-05-01T13:30:21Z</time></trkpt><trkpt lat="45.845077905451014" lon="14.003935616970523"><ele>803.8333333333334</ele><time>2026-05-01T13:30:22Z</time></trkpt><trkpt lat="45.84501822070509" lon="14.004010815890656"><ele>803.6666666666667</ele><time>2026-05-01T13:30:23Z</time></trkpt><trkpt lat="45.84494878154289" lon="14.004096818452997"><ele>803.5</ele><time>2026-05-01T13:30:24Z</time></trkpt><trkpt lat="45.84488098202623" lon="14.00418076783716"><ele>803.3333333333334</ele><time>2026-05-01T13:30:25Z</time></trkpt><trkpt lat="45.844811486546384" lon="14.00426681572215"><ele>803.1666666666667</ele><time>2026-05-01T13:30:26Z</time></trkpt><trkpt lat="45.844738674672925" lon="14.004351473215294"><ele>803.0</ele><time>2026-05-01T13:30:27Z</time></trkpt><trkpt lat="45.844665838657946" lon="14.00442979610134"><ele>803.0000000000001</ele><time>2026-05-01T13:30:28Z</time></trkpt><trkpt lat="45.84460247078194" lon="14.004490785619357"><ele>803.0</ele><time>2026-05-01T13:30:29Z</time></trkpt><trkpt lat="45.844525146690316" lon="14.004551253658367"><ele>803.0</ele><time>2026-05-01T13:30:30Z</time></trkpt><trkpt lat="45.84443435611952" lon="14.00459392300538"><ele>803.0</ele><time>2026-05-01T13:30:31Z</time></trkpt><trkpt lat="45.844352008985695" lon="14.004621270120378"><ele>803.0000000000001</ele><time>2026-05-01T13:30:32Z</time></trkpt><trkpt lat="45.84427397579368" lon="14.004643406276232"><ele>803.0</ele><time>2026-05-01T13:30:33Z</time></trkpt><trkpt lat="45.84415894821584" lon="14.004653592749678"><ele>802.4</ele><time>2026-05-01T13:30:34Z</time></trkpt><trkpt lat="45.844055938123454" lon="14.004649630088078"><ele>801.8</ele><time>2026-05-01T13:30:35Z</time></trkpt><trkpt lat="45.843955697686965" lon="14.004653166339292"><ele>801.2</ele><time>2026-05-01T13:30:36Z</time></trkpt><trkpt lat="45.843860562981774" lon="14.004664482732428"><ele>800.6</ele><time>2026-05-01T13:30:37Z</time></trkpt><trkpt lat="45.84376105756784" lon="14.004725289987359"><ele>800.0</ele><time>2026-05-01T13:30:38Z</time></trkpt><trkpt lat="45.843663858116564" lon="14.004787435706048"><ele>800.0</ele><time>2026-05-01T13:30:39Z</time></trkpt><trkpt lat="45.84359143852851" lon="14.004924435549675"><ele>800.0</ele><time>2026-05-01T13:30:40Z</time></trkpt><trkpt lat="45.84353173495805" lon="14.005050292786462"><ele>800.0</ele><time>2026-05-01T13:30:41Z</time></trkpt><trkpt lat="45.84346850456955" lon="14.005173606276673"><ele>800.0</ele><time>2026-05-01T13:30:42Z</time></trkpt><trkpt lat="45.84340277465333" lon="14.005277945406075"><ele>800.0</ele><time>2026-05-01T13:30:43Z</time></trkpt><trkpt lat="45.843318461914464" lon="14.00534900071399"><ele>800.8</ele><time>2026-05-01T13:30:44Z</time></trkpt><trkpt lat="45.8432393998501" lon="14.005387468536243"><ele>801.6</ele><time>2026-05-01T13:30:45Z</time></trkpt><trkpt lat="45.8431411538312" lon="14.005443389278321"><ele>802.4000000000001</ele><time>2026-05-01T13:30:46Z</time></trkpt><trkpt lat="45.84301868001077" lon="14.005521382122586"><ele>803.2</ele><time>2026-05-01T13:30:47Z</time></trkpt><trkpt lat="45.842906840146405" lon="14.005601871253043"><ele>804.0</ele><time>2026-05-01T13:30:48Z</time></trkpt><trkpt lat="45.84281136837499" lon="14.005681195583355"><ele>804.0</ele><time>2026-05-01T13:30:49Z</time></trkpt><trkpt lat="45.8427293481716" lon="14.005751145871209"><ele>804.0</ele><time>2026-05-01T13:30:50Z</time></trkpt><trkpt lat="45.84265502888822" lon="14.005819996431741"><ele>804.0</ele><time>2026-05-01T13:30:51Z</time></trkpt><trkpt lat="45.84260469193558" lon="14.005909465089081"><ele>804.0</ele><time>2026-05-01T13:30:52Z</time></trkpt><trkpt lat="45.842560499577104" lon="14.005979063549011"><ele>804.0</ele><time>2026-05-01T13:30:53Z</time></trkpt><trkpt lat="45.842518638437426" lon="14.006083776849524"><ele>804.0</ele><time>2026-05-01T13:30:55Z</time></trkpt><trkpt lat="45.842503489783994" lon="14.006175074152848"><ele>803.8333333333334</ele><time>2026-05-01T13:43:31Z</time></trkpt><trkpt lat="45.84250349154844" lon="14.006280386436094"><ele>803.6666666666667</ele><time>2026-05-01T13:43:33Z</time></trkpt><trkpt lat="45.84247011499413" lon="14.00638866584308"><ele>803.5</ele><time>2026-05-01T13:43:36Z</time></trkpt><trkpt lat="45.84243819938568" lon="14.006526014468934"><ele>803.3333333333334</ele><time>2026-05-01T13:43:38Z</time></trkpt><trkpt lat="45.84242351463709" lon="14.006623410052612"><ele>803.1666666666667</ele><time>2026-05-01T13:43:39Z</time></trkpt><trkpt lat="45.84241376699373" lon="14.006727525409174"><ele>803.0</ele><time>2026-05-01T13:43:40Z</time></trkpt><trkpt lat="45.8424044695743" lon="14.006827639987737"><ele>803.0000000000001</ele><time>2026-05-01T13:43:41Z</time></trkpt><trkpt lat="45.84238813621169" lon="14.006941630707619"><ele>803.0</ele><time>2026-05-01T13:43:42Z</time></trkpt><trkpt lat="45.84237709238863" lon="14.007049010634075"><ele>803.0</ele><time>2026-05-01T13:43:43Z</time></trkpt><trkpt lat="45.84236669788876" lon="14.007156353612412"><ele>803.0</ele><time>2026-05-01T13:43:44Z</time></trkpt><trkpt lat="45.84234861542967" lon="14.007260456855631"><ele>803.0000000000001</ele><time>2026-05-01T13:43:45Z</time></trkpt><trkpt lat="45.84233789389477" lon="14.007366118576188"><ele>803.0</ele><time>2026-05-01T13:43:46Z</time></trkpt><trkpt lat="45.84232123853346" lon="14.007482654010335"><ele>804.1666666666667</ele><time>2026-05-01T13:43:47Z</time></trkpt><trkpt lat="45.842296358957206" lon="14.00760166820342"><ele>805.3333333333334</ele><time>2026-05-01T13:43:48Z</time></trkpt><trkpt lat="45.842261373983355" lon="14.0077263032127"><ele>806.5</ele><time>2026-05-01T13:43:49Z</time></trkpt><trkpt lat="45.84221088306138" lon="14.007822407973455"><ele>807.6666666666667</ele><time>2026-05-01T13:43:50Z</time></trkpt><trkpt lat="45.84213564314572" lon="14.00789405656214"><ele>808.8333333333334</ele><time>2026-05-01T13:43:51Z</time></trkpt><trkpt lat="45.84205309636928" lon="14.007925600623748"><ele>810.0</ele><time>2026-05-01T13:43:52Z</time></trkpt><trkpt lat="45.84197037719444" lon="14.007962740407777"><ele>810.0</ele><time>2026-05-01T13:43:53Z</time></trkpt><trkpt lat="45.8418764240155" lon="14.008004871475976"><ele>810.0</ele><time>2026-05-01T13:43:54Z</time></trkpt><trkpt lat="45.84176771704676" lon="14.008057439685981"><ele>810.0</ele><time>2026-05-01T13:43:55Z</time></trkpt><trkpt lat="45.84165833198642" lon="14.00811759874999"><ele>810.0</ele><time>2026-05-01T13:43:56Z</time></trkpt><trkpt lat="45.84154687530742" lon="14.008179437794514"><ele>808.25</ele><time>2026-05-01T13:43:57Z</time></trkpt><trkpt lat="45.84142874262012" lon="14.008244980896338"><ele>806.5</ele><time>2026-05-01T13:43:58Z</time></trkpt><trkpt lat="45.84130725898557" lon="14.008309777324179"><ele>804.75</ele><time>2026-05-01T13:43:59Z</time></trkpt><trkpt lat="45.84117745822719" lon="14.008377925979161"><ele>803.0</ele><time>2026-05-01T13:44:00Z</time></trkpt><trkpt lat="45.84104745099012" lon="14.008459211195435"><ele>806.6666666666667</ele><time>2026-05-01T13:44:01Z</time></trkpt><trkpt lat="45.8409098269683" lon="14.008523585119773"><ele>810.3333333333333</ele><time>2026-05-01T13:44:02Z</time></trkpt><trkpt lat="45.840762208679585" lon="14.008592363611012"><ele>814.0</ele><time>2026-05-01T13:44:03Z</time></trkpt><trkpt lat="45.84060367334496" lon="14.008628567105266"><ele>814.0</ele><time>2026-05-01T13:44:04Z</time></trkpt><trkpt lat="45.8404606792047" lon="14.008690789790881"><ele>814.0</ele><time>2026-05-01T13:44:05Z</time></trkpt><trkpt lat="45.840348187038664" lon="14.00873973976944"><ele>814.0</ele><time>2026-05-01T13:44:06Z</time></trkpt><trkpt lat="45.84023849398252" lon="14.008801741733183"><ele>814.0</ele><time>2026-05-01T13:44:07Z</time></trkpt><trkpt lat="45.8401277886697" lon="14.008779889428334"><ele>815.0</ele><time>2026-05-01T13:44:08Z</time></trkpt><trkpt lat="45.840016440738154" lon="14.00874473093431"><ele>816.0</ele><time>2026-05-01T13:44:09Z</time></trkpt><trkpt lat="45.839899839698106" lon="14.008700382082944"><ele>817.0</ele><time>2026-05-01T13:44:10Z</time></trkpt><trkpt lat="45.83977686377808" lon="14.00866676390146"><ele>818.0</ele><time>2026-05-01T13:44:11Z</time></trkpt><trkpt lat="45.83966710513758" lon="14.008693924768323"><ele>818.0</ele><time>2026-05-01T13:44:12Z</time></trkpt><trkpt lat="45.83956110526965" lon="14.008741582514357"><ele>818.0</ele><time>2026-05-01T13:44:13Z</time></trkpt><trkpt lat="45.839473119779065" lon="14.008847579414335"><ele>818.0</ele><time>2026-05-01T13:44:14Z</time></trkpt><trkpt lat="45.83936227914802" lon="14.009003141162124"><ele>818.0</ele><time>2026-05-01T13:44:15Z</time></trkpt><trkpt lat="45.83922258503814" lon="14.0091171402569"><ele>822.3333333333334</ele><time>2026-05-01T13:44:16Z</time></trkpt><trkpt lat="45.839066465912346" lon="14.009208643686685"><ele>826.6666666666667</ele><time>2026-05-01T13:44:17Z</time></trkpt><trkpt lat="45.83889354719401" lon="14.009299055814822"><ele>831.0</ele><time>2026-05-01T13:44:18Z</time></trkpt><trkpt lat="45.83873195744241" lon="14.009385432137357"><ele>831.0</ele><time>2026-05-01T13:44:19Z</time></trkpt><trkpt lat="45.838579425581784" lon="14.009466966819243"><ele>831.0</ele><time>2026-05-01T13:44:20Z</time></trkpt><trkpt lat="45.838434543841004" lon="14.009542369499552"><ele>831.0</ele><time>2026-05-01T13:44:20.999Z</time></trkpt><trkpt lat="45.83829135900187" lon="14.00963892662125"><ele>831.0</ele><time>2026-05-01T13:44:21.999Z</time></trkpt><trkpt lat="45.838148742140994" lon="14.009692552985296"><ele>831.0</ele><time>2026-05-01T13:44:22.999Z</time></trkpt><trkpt lat="45.837997754890864" lon="14.00968083259026"><ele>831.0</ele><time>2026-05-01T13:44:23.999Z</time></trkpt><trkpt lat="45.83784897957843" lon="14.009715704947883"><ele>831.0</ele><time>2026-05-01T13:44:24.999Z</time></trkpt><trkpt lat="45.83770559189648" lon="14.00974394687445"><ele>832.3333333333333</ele><time>2026-05-01T13:44:25.999Z</time></trkpt><trkpt lat="45.83756273452706" lon="14.009799342912128"><ele>833.6666666666666</ele><time>2026-05-01T13:44:26.999Z</time></trkpt><trkpt lat="45.837423903551155" lon="14.009857865976356"><ele>835.0</ele><time>2026-05-01T13:44:27.999Z</time></trkpt><trkpt lat="45.8372734170846" lon="14.009925045414585"><ele>841.3333333333333</ele><time>2026-05-01T13:44:28.999Z</time></trkpt><trkpt lat="45.83712432476975" lon="14.010010816205135"><ele>847.6666666666667</ele><time>2026-05-01T13:44:29.999Z</time></trkpt><trkpt lat="45.83697326094165" lon="14.010078043925743"><ele>854.0</ele><time>2026-05-01T13:44:30.999Z</time></trkpt><trkpt lat="45.83680865414239" lon="14.010180063928471"><ele>854.0</ele><time>2026-05-01T13:44:31.999Z</time></trkpt><trkpt lat="45.83664631511485" lon="14.010283294329156"><ele>854.0</ele><time>2026-05-01T13:44:32.999Z</time></trkpt><trkpt lat="45.83648063926792" lon="14.010371095511651"><ele>854.0</ele><time>2026-05-01T13:44:33.999Z</time></trkpt><trkpt lat="45.836314338200154" lon="14.010453673379354"><ele>854.0</ele><time>2026-05-01T13:44:34.999Z</time></trkpt><trkpt lat="45.83615549434099" lon="14.010545661375568"><ele>854.0</ele><time>2026-05-01T13:44:35.999Z</time></trkpt><trkpt lat="45.83600484526946" lon="14.01061086570148"><ele>854.0</ele><time>2026-05-01T13:44:36.999Z</time></trkpt><trkpt lat="45.83587195618613" lon="14.01067752690842"><ele>854.75</ele><time>2026-05-01T13:44:37.999Z</time></trkpt><trkpt lat="45.83575401230073" lon="14.010778556544956"><ele>855.5</ele><time>2026-05-01T13:44:38.999Z</time></trkpt><trkpt lat="45.83564513350575" lon="14.0109011401564"><ele>856.25</ele><time>2026-05-01T13:44:39.999Z</time></trkpt><trkpt lat="45.835522506081176" lon="14.010951328020804"><ele>857.0</ele><time>2026-05-01T13:44:40.999Z</time></trkpt><trkpt lat="45.83540088453662" lon="14.010955031591388"><ele>859.0</ele><time>2026-05-01T13:44:41.999Z</time></trkpt><trkpt lat="45.83525836009334" lon="14.010980666906748"><ele>861.0</ele><time>2026-05-01T13:44:42.999Z</time></trkpt><trkpt lat="45.83511269622764" lon="14.011035191424385"><ele>863.0</ele><time>2026-05-01T13:44:43.999Z</time></trkpt><trkpt lat="45.834979037928555" lon="14.0111013603442"><ele>865.0</ele><time>2026-05-01T13:44:44.999Z</time></trkpt><trkpt lat="45.83486080624446" lon="14.011205643438323"><ele>865.0</ele><time>2026-05-01T13:44:45.999Z</time></trkpt><trkpt lat="45.83476057827991" lon="14.011336559161023"><ele>865.0</ele><time>2026-05-01T13:44:46.999Z</time></trkpt><trkpt lat="45.834664921668974" lon="14.011500876855933"><ele>865.0</ele><time>2026-05-01T13:44:47.999Z</time></trkpt><trkpt lat="45.83456256959126" lon="14.011683651440137"><ele>865.0</ele><time>2026-05-01T13:44:48.999Z</time></trkpt><trkpt lat="45.83446162117865" lon="14.011883059280192"><ele>866.75</ele><time>2026-05-01T13:44:49.999Z</time></trkpt><trkpt lat="45.8343644011219" lon="14.012074398618514"><ele>868.5</ele><time>2026-05-01T13:44:50.999Z</time></trkpt><trkpt lat="45.834275994116446" lon="14.012236533685087"><ele>870.25</ele><time>2026-05-01T13:44:51.999Z</time></trkpt><trkpt lat="45.83417670018396" lon="14.012353835999775"><ele>872.0</ele><time>2026-05-01T13:44:52.999Z</time></trkpt><trkpt lat="45.83406919231538" lon="14.012433948772015"><ele>872.0</ele><time>2026-05-01T13:44:53.999Z</time></trkpt><trkpt lat="45.83395768671573" lon="14.012454204090787"><ele>872.0</ele><time>2026-05-01T13:44:54.999Z</time></trkpt><trkpt lat="45.83382818043895" lon="14.012466391578284"><ele>872.0</ele><time>2026-05-01T13:44:55.999Z</time></trkpt><trkpt lat="45.83369778788189" lon="14.012500459291854"><ele>872.0</ele><time>2026-05-01T13:44:57Z</time></trkpt><trkpt lat="45.83357342531803" lon="14.012499134393002"><ele>873.8</ele><time>2026-05-01T13:44:58Z</time></trkpt><trkpt lat="45.83346554216607" lon="14.012513380088668"><ele>875.6</ele><time>2026-05-01T13:44:59Z</time></trkpt><trkpt lat="45.833367997657675" lon="14.012536915019181"><ele>877.3999999999999</ele><time>2026-05-01T13:45:00Z</time></trkpt><trkpt lat="45.833277782074035" lon="14.012585586841118"><ele>879.1999999999999</ele><time>2026-05-01T13:45:01Z</time></trkpt><trkpt lat="45.83318940576428" lon="14.012647054692664"><ele>881.0</ele><time>2026-05-01T13:45:02Z</time></trkpt><trkpt lat="45.83309748261795" lon="14.01270121676271"><ele>881.0000000000001</ele><time>2026-05-01T13:45:03Z</time></trkpt><trkpt lat="45.83301559333057" lon="14.012767735879306"><ele>881.0</ele><time>2026-05-01T13:45:04Z</time></trkpt><trkpt lat="45.8329472171022" lon="14.01284190280864"><ele>881.0</ele><time>2026-05-01T13:45:05Z</time></trkpt><trkpt lat="45.83287485232011" lon="14.012874789978524"><ele>881.0</ele><time>2026-05-01T13:45:06Z</time></trkpt><trkpt lat="45.8328070229402" lon="14.012881488810407"><ele>881.0000000000001</ele><time>2026-05-01T13:45:07Z</time></trkpt><trkpt lat="45.8327064231545" lon="14.01283422116726"><ele>881.0</ele><time>2026-05-01T13:45:09Z</time></trkpt><trkpt lat="45.83261936285738" lon="14.012735704451877"><ele>881.1999999999999</ele><time>2026-05-01T13:45:11Z</time></trkpt><trkpt lat="45.83251452290782" lon="14.012632198265518"><ele>881.3999999999999</ele><time>2026-05-01T13:45:13Z</time></trkpt><trkpt lat="45.832455147568545" lon="14.012584400855022"><ele>881.6</ele><time>2026-05-01T13:45:14Z</time></trkpt><trkpt lat="45.832357621627914" lon="14.01254725920639"><ele>881.8</ele><time>2026-05-01T13:45:16Z</time></trkpt><trkpt lat="45.8322770768939" lon="14.012531973774227"><ele>882.0</ele><time>2026-05-01T13:45:19Z</time></trkpt><trkpt lat="45.83216543641585" lon="14.0125149289452"><ele>882.0</ele><time>2026-05-01T13:45:52Z</time></trkpt><trkpt lat="45.83209696546271" lon="14.012506916498873"><ele>882.0</ele><time>2026-05-01T13:45:53Z</time></trkpt><trkpt lat="45.83202432226817" lon="14.012500907366368"><ele>882.0</ele><time>2026-05-01T13:45:54Z</time></trkpt><trkpt lat="45.83194294531663" lon="14.012502537584563"><ele>882.0</ele><time>2026-05-01T13:45:55Z</time></trkpt><trkpt lat="45.83185208534987" lon="14.012502779094074"><ele>882.0</ele><time>2026-05-01T13:45:56Z</time></trkpt><trkpt lat="45.83175952964583" lon="14.012515020136552"><ele>882.0</ele><time>2026-05-01T13:45:57Z</time></trkpt><trkpt lat="45.83166352458172" lon="14.012537611361832"><ele>882.4000000000001</ele><time>2026-05-01T13:45:58Z</time></trkpt><trkpt lat="45.83156132846766" lon="14.01256395239941"><ele>882.8000000000001</ele><time>2026-05-01T13:45:59Z</time></trkpt><trkpt lat="45.83145476379569" lon="14.012587771622352"><ele>883.2</ele><time>2026-05-01T13:46:00Z</time></trkpt><trkpt lat="45.83134236070354" lon="14.012592052320759"><ele>883.6</ele><time>2026-05-01T13:46:01Z</time></trkpt><trkpt lat="45.83122254242894" lon="14.012593692087929"><ele>884.0</ele><time>2026-05-01T13:46:02Z</time></trkpt><trkpt lat="45.83109764968845" lon="14.0126015101457"><ele>884.5</ele><time>2026-05-01T13:46:03Z</time></trkpt><trkpt lat="45.83096652416345" lon="14.01260178383799"><ele>885.0</ele><time>2026-05-01T13:46:04Z</time></trkpt><trkpt lat="45.83083121729215" lon="14.012615383271976"><ele>885.5</ele><time>2026-05-01T13:46:05Z</time></trkpt><trkpt lat="45.83068441104551" lon="14.01263898407151"><ele>886.0</ele><time>2026-05-01T13:46:06Z</time></trkpt><trkpt lat="45.83054018352207" lon="14.012670644314435"><ele>886.0</ele><time>2026-05-01T13:46:07Z</time></trkpt><trkpt lat="45.830392199882375" lon="14.012676532745145"><ele>886.0</ele><time>2026-05-01T13:46:08Z</time></trkpt><trkpt lat="45.83023500315292" lon="14.01271613953272"><ele>886.0</ele><time>2026-05-01T13:46:09Z</time></trkpt><trkpt lat="45.83007879776594" lon="14.01278349298554"><ele>886.0</ele><time>2026-05-01T13:46:10Z</time></trkpt><trkpt lat="45.829911195526115" lon="14.012829578093344"><ele>886.0</ele><time>2026-05-01T13:46:11Z</time></trkpt><trkpt lat="45.82973974447281" lon="14.012884012921834"><ele>886.0</ele><time>2026-05-01T13:46:12Z</time></trkpt><trkpt lat="45.82956522288693" lon="14.012910115722907"><ele>886.0</ele><time>2026-05-01T13:46:13Z</time></trkpt><trkpt lat="45.829392711328936" lon="14.012947014220504"><ele>886.0</ele><time>2026-05-01T13:46:14Z</time></trkpt><trkpt lat="45.82921956624974" lon="14.012964231204542"><ele>886.0</ele><time>2026-05-01T13:46:15Z</time></trkpt><trkpt lat="45.82904783243742" lon="14.012963268724445"><ele>886.3333333333333</ele><time>2026-05-01T13:46:16Z</time></trkpt><trkpt lat="45.82886770099535" lon="14.012967789725959"><ele>886.6666666666667</ele><time>2026-05-01T13:46:17Z</time></trkpt><trkpt lat="45.828697843263136" lon="14.012996222218419"><ele>887.0</ele><time>2026-05-01T13:46:18Z</time></trkpt><trkpt lat="45.82852900859315" lon="14.01301924502223"><ele>887.3333333333334</ele><time>2026-05-01T13:46:19Z</time></trkpt><trkpt lat="45.82836107021344" lon="14.012995238504852"><ele>887.6666666666667</ele><time>2026-05-01T13:46:20Z</time></trkpt><trkpt lat="45.828176533212954" lon="14.012945272396198"><ele>888.0</ele><time>2026-05-01T13:46:21Z</time></trkpt><trkpt lat="45.82797218590342" lon="14.01287853737529"><ele>888.0</ele><time>2026-05-01T13:46:22Z</time></trkpt><trkpt lat="45.8277770065898" lon="14.012823495265035"><ele>888.0</ele><time>2026-05-01T13:46:23Z</time></trkpt><trkpt lat="45.82759755675713" lon="14.012814481783515"><ele>888.0</ele><time>2026-05-01T13:46:24Z</time></trkpt><trkpt lat="45.82744126166819" lon="14.012777962280191"><ele>889.3333333333333</ele><time>2026-05-01T13:46:25Z</time></trkpt><trkpt lat="45.82728459116422" lon="14.012834613792434"><ele>890.6666666666666</ele><time>2026-05-01T13:46:25.999Z</time></trkpt><trkpt lat="45.82712525892143" lon="14.012874229010077"><ele>892.0</ele><time>2026-05-01T13:46:26.999Z</time></trkpt><trkpt lat="45.82697429841843" lon="14.012936282533875"><ele>892.0</ele><time>2026-05-01T13:46:27.999Z</time></trkpt><trkpt lat="45.826820777416025" lon="14.013013219339003"><ele>892.0</ele><time>2026-05-01T13:46:28.999Z</time></trkpt><trkpt lat="45.826669406733984" lon="14.013100338085705"><ele>892.0</ele><time>2026-05-01T13:46:29.999Z</time></trkpt><trkpt lat="45.82652067566033" lon="14.013204131529266"><ele>891.0</ele><time>2026-05-01T13:46:30.999Z</time></trkpt><trkpt lat="45.826374000074864" lon="14.013307837794962"><ele>890.0</ele><time>2026-05-01T13:46:31.999Z</time></trkpt><trkpt lat="45.826228103228175" lon="14.01339383138553"><ele>889.0</ele><time>2026-05-01T13:46:32.999Z</time></trkpt><trkpt lat="45.826077614602696" lon="14.013422149768456"><ele>891.3333333333333</ele><time>2026-05-01T13:46:33.999Z</time></trkpt><trkpt lat="45.82592175602239" lon="14.01343364636438"><ele>893.6666666666667</ele><time>2026-05-01T13:46:34.999Z</time></trkpt><trkpt lat="45.82577585099358" lon="14.013490861177914"><ele>896.0</ele><time>2026-05-01T13:46:35.999Z</time></trkpt><trkpt lat="45.82561129391771" lon="14.013528303052968"><ele>896.0</ele><time>2026-05-01T13:46:36.999Z</time></trkpt><trkpt lat="45.825464300339625" lon="14.01361797508099"><ele>896.0</ele><time>2026-05-01T13:46:37.999Z</time></trkpt><trkpt lat="45.825315029284475" lon="14.01370047769996"><ele>896.0</ele><time>2026-05-01T13:46:38.999Z</time></trkpt><trkpt lat="45.82516619359524" lon="14.013788368161608"><ele>894.75</ele><time>2026-05-01T13:46:39.999Z</time></trkpt><trkpt lat="45.82501963027006" lon="14.013842268656079"><ele>893.5</ele><time>2026-05-01T13:46:40.999Z</time></trkpt><trkpt lat="45.824890407430004" lon="14.013902679745838"><ele>892.25</ele><time>2026-05-01T13:46:41.999Z</time></trkpt><trkpt lat="45.824766284937034" lon="14.013952645782892"><ele>891.0</ele><time>2026-05-01T13:46:42.999Z</time></trkpt><trkpt lat="45.82464514104267" lon="14.013998232251291"><ele>891.0</ele><time>2026-05-01T13:46:43.999Z</time></trkpt><trkpt lat="45.824522191712354" lon="14.014042537276284"><ele>891.0</ele><time>2026-05-01T13:46:44.999Z</time></trkpt><trkpt lat="45.82439818150359" lon="14.014103735197908"><ele>891.0</ele><time>2026-05-01T13:46:45.999Z</time></trkpt><trkpt lat="45.82427242718619" lon="14.014148125762855"><ele>891.0</ele><time>2026-05-01T13:46:46.999Z</time></trkpt><trkpt lat="45.824145806739644" lon="14.014216901337825"><ele>892.75</ele><time>2026-05-01T13:46:47.999Z</time></trkpt><trkpt lat="45.82402183349514" lon="14.014292965497937"><ele>894.5</ele><time>2026-05-01T13:46:48.999Z</time></trkpt><trkpt lat="45.82390135050716" lon="14.014388497633139"><ele>896.25</ele><time>2026-05-01T13:46:49.999Z</time></trkpt><trkpt lat="45.823769433893524" lon="14.014445051459452"><ele>898.0</ele><time>2026-05-01T13:46:50.999Z</time></trkpt><trkpt lat="45.823623577090025" lon="14.01449604951918"><ele>896.25</ele><time>2026-05-01T13:46:51.999Z</time></trkpt><trkpt lat="45.82347988509954" lon="14.014564519343962"><ele>894.5</ele><time>2026-05-01T13:46:52.999Z</time></trkpt><trkpt lat="45.82333543836867" lon="14.014602415679523"><ele>892.75</ele><time>2026-05-01T13:46:53.999Z</time></trkpt><trkpt lat="45.823195466943304" lon="14.014655777928004"><ele>891.0</ele><time>2026-05-01T13:46:54.999Z</time></trkpt><trkpt lat="45.823058943902076" lon="14.014722053005206"><ele>891.0</ele><time>2026-05-01T13:46:55.999Z</time></trkpt><trkpt lat="45.82293106653876" lon="14.01480047803049"><ele>891.0</ele><time>2026-05-01T13:46:57Z</time></trkpt><trkpt lat="45.82281778485882" lon="14.014879708912382"><ele>891.0</ele><time>2026-05-01T13:46:58Z</time></trkpt><trkpt lat="45.82269926841967" lon="14.014969825114445"><ele>891.0</ele><time>2026-05-01T13:46:59Z</time></trkpt><trkpt lat="45.82258045857373" lon="14.015065773667127"><ele>892.5</ele><time>2026-05-01T13:47:00Z</time></trkpt><trkpt lat="45.822461920636734" lon="14.0151726198708"><ele>894.0</ele><time>2026-05-01T13:47:01Z</time></trkpt><trkpt lat="45.82234839369889" lon="14.015292651434196"><ele>895.5</ele><time>2026-05-01T13:47:02Z</time></trkpt><trkpt lat="45.822237332428855" lon="14.015423048184324"><ele>897.0</ele><time>2026-05-01T13:47:03Z</time></trkpt><trkpt lat="45.82212064330613" lon="14.015548722042364"><ele>897.0</ele><time>2026-05-01T13:47:04Z</time></trkpt><trkpt lat="45.82198960167322" lon="14.015638831578158"><ele>897.0</ele><time>2026-05-01T13:47:05Z</time></trkpt><trkpt lat="45.82186775247233" lon="14.015743977460879"><ele>897.0</ele><time>2026-05-01T13:47:06Z</time></trkpt><trkpt lat="45.82175533352877" lon="14.0158322329186"><ele>897.0</ele><time>2026-05-01T13:47:07Z</time></trkpt><trkpt lat="45.821658883294035" lon="14.015933487652058"><ele>899.5</ele><time>2026-05-01T13:47:08Z</time></trkpt><trkpt lat="45.8215614590576" lon="14.01602458885281"><ele>902.0</ele><time>2026-05-01T13:47:09Z</time></trkpt><trkpt lat="45.82146983365711" lon="14.016131676977075"><ele>904.5</ele><time>2026-05-01T13:47:10Z</time></trkpt><trkpt lat="45.82138400755678" lon="14.016240123331166"><ele>907.0</ele><time>2026-05-01T13:47:11Z</time></trkpt><trkpt lat="45.82130196666305" lon="14.016357473677022"><ele>907.0</ele><time>2026-05-01T13:47:12Z</time></trkpt><trkpt lat="45.821226041052995" lon="14.016478187225685"><ele>907.0</ele><time>2026-05-01T13:47:13Z</time></trkpt><trkpt lat="45.821135562894284" lon="14.016566532802312"><ele>907.0</ele><time>2026-05-01T13:47:14Z</time></trkpt><trkpt lat="45.821049472799835" lon="14.016666304512436"><ele>907.0</ele><time>2026-05-01T13:47:15Z</time></trkpt><trkpt lat="45.820953764792215" lon="14.016776862785791"><ele>906.5</ele><time>2026-05-01T13:47:16Z</time></trkpt><trkpt lat="45.82086461082542" lon="14.016889158358177"><ele>906.0</ele><time>2026-05-01T13:47:17Z</time></trkpt><trkpt lat="45.82078070134351" lon="14.017003074173703"><ele>905.5</ele><time>2026-05-01T13:47:18Z</time></trkpt><trkpt lat="45.82069425824047" lon="14.017121245359743"><ele>905.0</ele><time>2026-05-01T13:47:19Z</time></trkpt><trkpt lat="45.820620488639214" lon="14.017256038198346"><ele>905.0</ele><time>2026-05-01T13:47:20Z</time></trkpt><trkpt lat="45.82052734937864" lon="14.01737804644161"><ele>905.0</ele><time>2026-05-01T13:47:21Z</time></trkpt><trkpt lat="45.82043294102204" lon="14.0174916928761"><ele>905.0</ele><time>2026-05-01T13:47:22Z</time></trkpt><trkpt lat="45.82036179987937" lon="14.017594742053003"><ele>905.0</ele><time>2026-05-01T13:47:23Z</time></trkpt><trkpt lat="45.820301831553586" lon="14.01768160737792"><ele>905.0</ele><time>2026-05-01T13:47:24Z</time></trkpt><trkpt lat="45.82026733752047" lon="14.017770365441491"><ele>904.5714285714286</ele><time>2026-05-01T13:47:25Z</time></trkpt><trkpt lat="45.82021985539468" lon="14.017830646425795"><ele>904.1428571428571</ele><time>2026-05-01T13:47:26Z</time></trkpt><trkpt lat="45.82018150199646" lon="14.017909144610883"><ele>903.7142857142857</ele><time>2026-05-01T13:47:27Z</time></trkpt><trkpt lat="45.820134731435225" lon="14.017994632635702"><ele>903.2857142857142</ele><time>2026-05-01T13:47:28Z</time></trkpt><trkpt lat="45.82008874225276" lon="14.018094659899175"><ele>902.8571428571429</ele><time>2026-05-01T13:47:29Z</time></trkpt><trkpt lat="45.82005144064138" lon="14.01819281180004"><ele>902.4285714285713</ele><time>2026-05-01T13:47:30Z</time></trkpt><trkpt lat="45.82002261783058" lon="14.018283600650484"><ele>902.0</ele><time>2026-05-01T13:47:31Z</time></trkpt><trkpt lat="45.8200013807296" lon="14.01837778793"><ele>901.8</ele><time>2026-05-01T13:47:32Z</time></trkpt><trkpt lat="45.81998818316494" lon="14.01846706602256"><ele>901.6</ele><time>2026-05-01T13:47:33Z</time></trkpt><trkpt lat="45.81997777539579" lon="14.018633435638701"><ele>901.3999999999999</ele><time>2026-05-01T13:47:35Z</time></trkpt><trkpt lat="45.81998626961252" lon="14.018787447212837"><ele>901.1999999999999</ele><time>2026-05-01T13:47:37Z</time></trkpt><trkpt lat="45.82000463236161" lon="14.019014377187275"><ele>901.0</ele><time>2026-05-01T13:47:39Z</time></trkpt><trkpt lat="45.82001635199634" lon="14.019140859129447"><ele>901.8</ele><time>2026-05-01T13:47:40Z</time></trkpt><trkpt lat="45.820015135752385" lon="14.019279052246276"><ele>902.5999999999999</ele><time>2026-05-01T13:47:41Z</time></trkpt><trkpt lat="45.81997808292975" lon="14.01940992306636"><ele>903.4</ele><time>2026-05-01T13:47:42Z</time></trkpt><trkpt lat="45.819921092293164" lon="14.019540341366355"><ele>904.2</ele><time>2026-05-01T13:47:43Z</time></trkpt><trkpt lat="45.81984588803142" lon="14.01966533324601"><ele>905.0</ele><time>2026-05-01T13:47:44Z</time></trkpt><trkpt lat="45.819757451125774" lon="14.0197785502739"><ele>905.0</ele><time>2026-05-01T13:47:45Z</time></trkpt><trkpt lat="45.81965830743332" lon="14.019884800659135"><ele>905.0</ele><time>2026-05-01T13:47:46Z</time></trkpt><trkpt lat="45.819562595378116" lon="14.019996294022796"><ele>905.0</ele><time>2026-05-01T13:47:47Z</time></trkpt><trkpt lat="45.81943814841445" lon="14.020026507699601"><ele>905.0</ele><time>2026-05-01T13:47:48Z</time></trkpt><trkpt lat="45.81931430747332" lon="14.020064024995316"><ele>905.75</ele><time>2026-05-01T13:47:49Z</time></trkpt><trkpt lat="45.819185484130436" lon="14.02012147380266"><ele>906.5</ele><time>2026-05-01T13:47:50Z</time></trkpt><trkpt lat="45.81905298502488" lon="14.020145227135162"><ele>907.25</ele><time>2026-05-01T13:47:51Z</time></trkpt><trkpt lat="45.81893473164981" lon="14.020185729871635"><ele>908.0</ele><time>2026-05-01T13:47:52Z</time></trkpt><trkpt lat="45.81883219144203" lon="14.020244821307477"><ele>908.0</ele><time>2026-05-01T13:47:53Z</time></trkpt><trkpt lat="45.818745559117" lon="14.020338523255324"><ele>908.0</ele><time>2026-05-01T13:47:54Z</time></trkpt><trkpt lat="45.81866845471" lon="14.020459947825424"><ele>908.0</ele><time>2026-05-01T13:47:55Z</time></trkpt><trkpt lat="45.81860036339507" lon="14.020605942534555"><ele>908.0</ele><time>2026-05-01T13:47:56Z</time></trkpt><trkpt lat="45.81851621472876" lon="14.020732440519682"><ele>909.5</ele><time>2026-05-01T13:47:57Z</time></trkpt><trkpt lat="45.81840945932799" lon="14.020839792664649"><ele>911.0</ele><time>2026-05-01T13:47:58Z</time></trkpt><trkpt lat="45.81829697462068" lon="14.020925255491722"><ele>912.5</ele><time>2026-05-01T13:47:59Z</time></trkpt><trkpt lat="45.81817298393085" lon="14.021006861494458"><ele>914.0</ele><time>2026-05-01T13:48:00Z</time></trkpt><trkpt lat="45.8180494484003" lon="14.021081316258519"><ele>914.0</ele><time>2026-05-01T13:48:01Z</time></trkpt><trkpt lat="45.81791295942048" lon="14.021155843074428"><ele>914.0</ele><time>2026-05-01T13:48:02Z</time></trkpt><trkpt lat="45.81777957628667" lon="14.021238882401976"><ele>914.0</ele><time>2026-05-01T13:48:03Z</time></trkpt><trkpt lat="45.81764499427695" lon="14.02131608411071"><ele>914.0</ele><time>2026-05-01T13:48:04Z</time></trkpt><trkpt lat="45.81752137088365" lon="14.021359129001405"><ele>913.5</ele><time>2026-05-01T13:48:05Z</time></trkpt><trkpt lat="45.81740696352428" lon="14.021421921388129"><ele>913.0</ele><time>2026-05-01T13:48:06Z</time></trkpt><trkpt lat="45.817294632952134" lon="14.021484008792546"><ele>912.5</ele><time>2026-05-01T13:48:07Z</time></trkpt><trkpt lat="45.81717757633991" lon="14.021544599720604"><ele>912.0</ele><time>2026-05-01T13:48:08Z</time></trkpt><trkpt lat="45.81705493890869" lon="14.021584691130258"><ele>912.0</ele><time>2026-05-01T13:48:09Z</time></trkpt><trkpt lat="45.81693310922568" lon="14.021610755405431"><ele>912.0</ele><time>2026-05-01T13:48:10Z</time></trkpt><trkpt lat="45.81680512119224" lon="14.021629763901785"><ele>912.0</ele><time>2026-05-01T13:48:11Z</time></trkpt><trkpt lat="45.81667915902327" lon="14.021638598980498"><ele>912.0</ele><time>2026-05-01T13:48:12Z</time></trkpt><trkpt lat="45.81655922809311" lon="14.021634065869193"><ele>911.2</ele><time>2026-05-01T13:48:13Z</time></trkpt><trkpt lat="45.816444009568926" lon="14.02161940972615"><ele>910.4000000000001</ele><time>2026-05-01T13:48:14Z</time></trkpt><trkpt lat="45.81633518034267" lon="14.02159899960172"><ele>909.5999999999999</ele><time>2026-05-01T13:48:15Z</time></trkpt><trkpt lat="45.81623792017087" lon="14.021575002844392"><ele>908.8</ele><time>2026-05-01T13:48:16Z</time></trkpt><trkpt lat="45.816148384600034" lon="14.021536336358656"><ele>908.0</ele><time>2026-05-01T13:48:17.001Z</time></trkpt><trkpt lat="45.816066373900995" lon="14.021538217752187"><ele>910.8</ele><time>2026-05-01T13:48:18.001Z</time></trkpt><trkpt lat="45.815970949713495" lon="14.021522405972751"><ele>913.5999999999999</ele><time>2026-05-01T13:48:19.001Z</time></trkpt><trkpt lat="45.815866195020895" lon="14.021508348008018"><ele>916.4000000000001</ele><time>2026-05-01T13:48:20.001Z</time></trkpt><trkpt lat="45.81577938435473" lon="14.02149993293505"><ele>919.2</ele><time>2026-05-01T13:48:21.001Z</time></trkpt><trkpt lat="45.815685705538556" lon="14.021490432754016"><ele>922.0</ele><time>2026-05-01T13:48:22.001Z</time></trkpt><trkpt lat="45.81558029675391" lon="14.021477562367044"><ele>921.9999999999999</ele><time>2026-05-01T13:48:23.001Z</time></trkpt><trkpt lat="45.815496581615044" lon="14.021456577623619"><ele>922.0</ele><time>2026-05-01T13:48:24.001Z</time></trkpt><trkpt lat="45.81543119408397" lon="14.021434343051343"><ele>922.0</ele><time>2026-05-01T13:48:25.001Z</time></trkpt><trkpt lat="45.81535518882592" lon="14.021385336678954"><ele>922.0</ele><time>2026-05-01T13:48:27.001Z</time></trkpt><trkpt lat="45.8152463458941" lon="14.021326046140558"><ele>921.9999999999999</ele><time>2026-05-01T13:48:29.001Z</time></trkpt><trkpt lat="45.81518746277658" lon="14.02125350202513"><ele>922.0</ele><time>2026-05-01T13:48:31.001Z</time></trkpt><trkpt lat="45.81511563652193" lon="14.021209415421016"><ele>922.75</ele><time>2026-05-01T13:48:46Z</time></trkpt><trkpt lat="45.815000701306936" lon="14.021189447575745"><ele>923.5</ele><time>2026-05-01T13:48:47.999Z</time></trkpt><trkpt lat="45.8149229387494" lon="14.021195819427193"><ele>924.25</ele><time>2026-05-01T13:48:48.999Z</time></trkpt><trkpt lat="45.81479764538834" lon="14.021234238604825"><ele>925.0</ele><time>2026-05-01T13:48:49.999Z</time></trkpt><trkpt lat="45.814629463760454" lon="14.021290166442023"><ele>925.0</ele><time>2026-05-01T13:48:50.999Z</time></trkpt><trkpt lat="45.814482096563495" lon="14.021381630471152"><ele>925.0</ele><time>2026-05-01T13:48:51.999Z</time></trkpt><trkpt lat="45.814323440360766" lon="14.021410889505342"><ele>925.0</ele><time>2026-05-01T13:48:52.999Z</time></trkpt><trkpt lat="45.81418654850975" lon="14.021450127166823"><ele>924.3333333333333</ele><time>2026-05-01T13:48:53.999Z</time></trkpt><trkpt lat="45.814085489955296" lon="14.021469833421806"><ele>923.6666666666666</ele><time>2026-05-01T13:48:54.999Z</time></trkpt><trkpt lat="45.8140104372468" lon="14.021477949898529"><ele>923.0</ele><time>2026-05-01T13:48:55.999Z</time></trkpt><trkpt lat="45.81392290040229" lon="14.021470422623782"><ele>922.3333333333333</ele><time>2026-05-01T13:48:56.999Z</time></trkpt><trkpt lat="45.81383910132836" lon="14.021449363426159"><ele>921.6666666666666</ele><time>2026-05-01T13:48:57.999Z</time></trkpt><trkpt lat="45.81374321833143" lon="14.021414568736937"><ele>921.0</ele><time>2026-05-01T13:48:58.999Z</time></trkpt><trkpt lat="45.81362529055286" lon="14.02139468461168"><ele>920.0</ele><time>2026-05-01T13:48:59.999Z</time></trkpt><trkpt lat="45.81348373093563" lon="14.021322760919045"><ele>919.0</ele><time>2026-05-01T13:49:00.999Z</time></trkpt><trkpt lat="45.81334087657892" lon="14.021294701714883"><ele>918.0</ele><time>2026-05-01T13:49:01.999Z</time></trkpt><trkpt lat="45.813207726871774" lon="14.021287165250275"><ele>917.0</ele><time>2026-05-01T13:49:02.999Z</time></trkpt><trkpt lat="45.81306854815858" lon="14.021263050527125"><ele>917.0</ele><time>2026-05-01T13:49:03.999Z</time></trkpt><trkpt lat="45.81293262855432" lon="14.021230168623081"><ele>917.0</ele><time>2026-05-01T13:49:04.999Z</time></trkpt><trkpt lat="45.81278941074303" lon="14.021213505859006"><ele>917.0</ele><time>2026-05-01T13:49:05.999Z</time></trkpt><trkpt lat="45.812632504826674" lon="14.021209667600647"><ele>917.0</ele><time>2026-05-01T13:49:06.999Z</time></trkpt><trkpt lat="45.81249161581682" lon="14.021198076150394"><ele>916.8</ele><time>2026-05-01T13:49:07.998Z</time></trkpt><trkpt lat="45.81237961484392" lon="14.021186279530015"><ele>916.6</ele><time>2026-05-01T13:49:08.998Z</time></trkpt><trkpt lat="45.81228534343197" lon="14.021150769336005"><ele>916.3999999999999</ele><time>2026-05-01T13:49:09.998Z</time></trkpt><trkpt lat="45.81221179129614" lon="14.021080907163983"><ele>916.1999999999999</ele><time>2026-05-01T13:49:10.998Z</time></trkpt><trkpt lat="45.81216862342227" lon="14.020997336348401"><ele>916.0</ele><time>2026-05-01T13:49:11.998Z</time></trkpt><trkpt lat="45.812108950507195" lon="14.020887367789557"><ele>916.4</ele><time>2026-05-01T13:49:12.998Z</time></trkpt><trkpt lat="45.81203532009125" lon="14.020751581677354"><ele>916.8</ele><time>2026-05-01T13:49:13.998Z</time></trkpt><trkpt lat="45.811973052947806" lon="14.020613308484673"><ele>917.1999999999999</ele><time>2026-05-01T13:49:14.998Z</time></trkpt><trkpt lat="45.81193227744168" lon="14.020472124603353"><ele>917.5999999999999</ele><time>2026-05-01T13:49:15.998Z</time></trkpt><trkpt lat="45.81187458534477" lon="14.020389030941319"><ele>918.0</ele><time>2026-05-01T13:49:16.998Z</time></trkpt><trkpt lat="45.811813308156474" lon="14.020319840945241"><ele>918.0</ele><time>2026-05-01T13:49:17.998Z</time></trkpt><trkpt lat="45.81173804885736" lon="14.020261130001469"><ele>918.0</ele><time>2026-05-01T13:49:18.998Z</time></trkpt><trkpt lat="45.811649971401906" lon="14.020168742013707"><ele>918.0</ele><time>2026-05-01T13:49:19.998Z</time></trkpt><trkpt lat="45.811521966661985" lon="14.020106101640232"><ele>918.0</ele><time>2026-05-01T13:49:20.998Z</time></trkpt><trkpt lat="45.81137718160243" lon="14.020062664896683"><ele>918.0</ele><time>2026-05-01T13:49:21.998Z</time></trkpt><trkpt lat="45.81124669780442" lon="14.020035711302098"><ele>918.0</ele><time>2026-05-01T13:49:22.998Z</time></trkpt><trkpt lat="45.811097167383544" lon="14.020011735237215"><ele>918.0</ele><time>2026-05-01T13:49:23.998Z</time></trkpt><trkpt lat="45.810941058475926" lon="14.020007199635902"><ele>918.0</ele><time>2026-05-01T13:49:24.998Z</time></trkpt><trkpt lat="45.810784126006034" lon="14.019978011748437"><ele>919.4</ele><time>2026-05-01T13:49:25.998Z</time></trkpt><trkpt lat="45.810657588225475" lon="14.019951995088366"><ele>920.8</ele><time>2026-05-01T13:49:26.998Z</time></trkpt><trkpt lat="45.810549532822556" lon="14.019972138063547"><ele>922.2</ele><time>2026-05-01T13:49:27.998Z</time></trkpt><trkpt lat="45.81046516550744" lon="14.019967632881084"><ele>923.6</ele><time>2026-05-01T13:49:28.998Z</time></trkpt><trkpt lat="45.810378598086295" lon="14.019997811238275"><ele>925.0</ele><time>2026-05-01T13:49:29.998Z</time></trkpt><trkpt lat="45.8102876778106" lon="14.020057583664537"><ele>925.0</ele><time>2026-05-01T13:49:30.998Z</time></trkpt><trkpt lat="45.810170010229434" lon="14.020138885472482"><ele>925.0</ele><time>2026-05-01T13:49:31.998Z</time></trkpt><trkpt lat="45.810044111894925" lon="14.020221953749036"><ele>925.0</ele><time>2026-05-01T13:49:32.998Z</time></trkpt><trkpt lat="45.80990790223952" lon="14.020310209323336"><ele>925.0</ele><time>2026-05-01T13:49:33.998Z</time></trkpt><trkpt lat="45.8097709282817" lon="14.020399541426961"><ele>923.25</ele><time>2026-05-01T13:49:34.998Z</time></trkpt><trkpt lat="45.809645919220785" lon="14.020475544702617"><ele>921.5</ele><time>2026-05-01T13:49:35.998Z</time></trkpt><trkpt lat="45.809523056491905" lon="14.020550831337818"><ele>919.75</ele><time>2026-05-01T13:49:36.998Z</time></trkpt><trkpt lat="45.80941144273293" lon="14.020631039262165"><ele>918.0</ele><time>2026-05-01T13:49:37.998Z</time></trkpt><trkpt lat="45.809312350122546" lon="14.02072038018848"><ele>917.5</ele><time>2026-05-01T13:49:38.998Z</time></trkpt><trkpt lat="45.809218425042985" lon="14.020807677770922"><ele>917.0</ele><time>2026-05-01T13:49:39.998Z</time></trkpt><trkpt lat="45.80911139804808" lon="14.020885657513729"><ele>916.5</ele><time>2026-05-01T13:49:40.998Z</time></trkpt><trkpt lat="45.8090075408006" lon="14.020990389773612"><ele>916.0</ele><time>2026-05-01T13:49:41.998Z</time></trkpt><trkpt lat="45.80890797778899" lon="14.021094981364497"><ele>916.0</ele><time>2026-05-01T13:49:42.999Z</time></trkpt><trkpt lat="45.808807637842676" lon="14.021203007555487"><ele>916.0</ele><time>2026-05-01T13:49:43.999Z</time></trkpt><trkpt lat="45.80871153769026" lon="14.0213085971233"><ele>916.0</ele><time>2026-05-01T13:49:44.999Z</time></trkpt><trkpt lat="45.80862395631024" lon="14.021408120818295"><ele>916.0</ele><time>2026-05-01T13:49:45.999Z</time></trkpt><trkpt lat="45.80854392607581" lon="14.02151065157887"><ele>915.8333333333333</ele><time>2026-05-01T13:49:46.999Z</time></trkpt><trkpt lat="45.808482735271376" lon="14.021621180134813"><ele>915.6666666666666</ele><time>2026-05-01T13:49:47.999Z</time></trkpt><trkpt lat="45.8084155336712" lon="14.021704754918584"><ele>915.5</ele><time>2026-05-01T13:49:48.999Z</time></trkpt><trkpt lat="45.808348417868544" lon="14.021779046765307"><ele>915.3333333333333</ele><time>2026-05-01T13:49:49.999Z</time></trkpt><trkpt lat="45.80828959059497" lon="14.021843998364009"><ele>915.1666666666666</ele><time>2026-05-01T13:49:50.999Z</time></trkpt><trkpt lat="45.80822476117118" lon="14.021914022808863"><ele>915.0</ele><time>2026-05-01T13:49:51.999Z</time></trkpt><trkpt lat="45.808152726844284" lon="14.021952394820136"><ele>915.0</ele><time>2026-05-01T13:49:52.999Z</time></trkpt><trkpt lat="45.80806875848864" lon="14.02195218009324"><ele>915.0</ele><time>2026-05-01T13:49:53.999Z</time></trkpt><trkpt lat="45.80798261523112" lon="14.021864865244012"><ele>915.0</ele><time>2026-05-01T13:49:54.999Z</time></trkpt><trkpt lat="45.80787413131829" lon="14.021814010871969"><ele>915.0</ele><time>2026-05-01T13:49:55.999Z</time></trkpt><trkpt lat="45.80775956097056" lon="14.02177753662538"><ele>915.0</ele><time>2026-05-01T13:49:56.999Z</time></trkpt><trkpt lat="45.80763366972887" lon="14.021771091313328"><ele>915.0</ele><time>2026-05-01T13:49:57.999Z</time></trkpt><trkpt lat="45.807510813934094" lon="14.021724883584213"><ele>915.0</ele><time>2026-05-01T13:49:58.999Z</time></trkpt><trkpt lat="45.80739378265993" lon="14.021658274800568"><ele>915.0</ele><time>2026-05-01T13:49:59.999Z</time></trkpt><trkpt lat="45.807290188118614" lon="14.021609510066494"><ele>915.0</ele><time>2026-05-01T13:50:00.999Z</time></trkpt><trkpt lat="45.80719446677585" lon="14.021556518689236"><ele>913.25</ele><time>2026-05-01T13:50:01.999Z</time></trkpt><trkpt lat="45.807098862433115" lon="14.021480710471577"><ele>911.5</ele><time>2026-05-01T13:50:02.999Z</time></trkpt><trkpt lat="45.8070034261225" lon="14.021369940026595"><ele>909.75</ele><time>2026-05-01T13:50:03.999Z</time></trkpt><trkpt lat="45.80690063760795" lon="14.021252216944887"><ele>908.0</ele><time>2026-05-01T13:50:04.999Z</time></trkpt><trkpt lat="45.80678592689206" lon="14.021191389927607"><ele>908.0</ele><time>2026-05-01T13:50:05.999Z</time></trkpt><trkpt lat="45.80668402401861" lon="14.021139207916505"><ele>908.0</ele><time>2026-05-01T13:50:06.999Z</time></trkpt><trkpt lat="45.80658208505652" lon="14.021091488195337"><ele>908.0</ele><time>2026-05-01T13:50:07.999Z</time></trkpt><trkpt lat="45.80645106906867" lon="14.021053973942246"><ele>908.0</ele><time>2026-05-01T13:50:08.999Z</time></trkpt><trkpt lat="45.80630820678798" lon="14.02102175465025"><ele>908.0</ele><time>2026-05-01T13:50:09.999Z</time></trkpt><trkpt lat="45.80618250168334" lon="14.021012579378915"><ele>908.0</ele><time>2026-05-01T13:50:10.999Z</time></trkpt><trkpt lat="45.80607135874707" lon="14.020982760734045"><ele>908.0</ele><time>2026-05-01T13:50:11.999Z</time></trkpt><trkpt lat="45.80596736770134" lon="14.020967210219217"><ele>908.0</ele><time>2026-05-01T13:50:12.999Z</time></trkpt><trkpt lat="45.80587333265062" lon="14.020936523619154"><ele>908.0</ele><time>2026-05-01T13:50:13.999Z</time></trkpt><trkpt lat="45.80580585096044" lon="14.020855718058398"><ele>906.5000000000001</ele><time>2026-05-01T13:50:14.999Z</time></trkpt><trkpt lat="45.80578929643409" lon="14.020738195099753"><ele>905.0</ele><time>2026-05-01T13:50:15.999Z</time></trkpt><trkpt lat="45.805747098974834" lon="14.02063729109284"><ele>903.5</ele><time>2026-05-01T13:50:16.999Z</time></trkpt><trkpt lat="45.805690780403054" lon="14.020552618120234"><ele>902.0</ele><time>2026-05-01T13:50:17.999Z</time></trkpt><trkpt lat="45.805599104050344" lon="14.020521156137832"><ele>900.5000000000001</ele><time>2026-05-01T13:50:18.999Z</time></trkpt><trkpt lat="45.80550251918164" lon="14.020496565529484"><ele>899.0</ele><time>2026-05-01T13:50:19.999Z</time></trkpt><trkpt lat="45.80537827480205" lon="14.020495306658175"><ele>899.0</ele><time>2026-05-01T13:50:20.999Z</time></trkpt><trkpt lat="45.80525153310316" lon="14.020518730887021"><ele>899.0</ele><time>2026-05-01T13:50:21.999Z</time></trkpt><trkpt lat="45.8051356674106" lon="14.020569203007458"><ele>899.0</ele><time>2026-05-01T13:50:22.999Z</time></trkpt><trkpt lat="45.80500864190538" lon="14.020602404640844"><ele>899.0</ele><time>2026-05-01T13:50:23.999Z</time></trkpt><trkpt lat="45.80486536928931" lon="14.020657379425279"><ele>896.5</ele><time>2026-05-01T13:50:24.999Z</time></trkpt><trkpt lat="45.80473621568724" lon="14.020722296255872"><ele>894.0</ele><time>2026-05-01T13:50:25.999Z</time></trkpt><trkpt lat="45.80462651675232" lon="14.020789252108674"><ele>891.5</ele><time>2026-05-01T13:50:26.999Z</time></trkpt><trkpt lat="45.804503901585505" lon="14.020872140636275"><ele>889.0</ele><time>2026-05-01T13:50:27.999Z</time></trkpt><trkpt lat="45.80439011677992" lon="14.02095105090103"><ele>890.25</ele><time>2026-05-01T13:50:28.999Z</time></trkpt><trkpt lat="45.804288097849174" lon="14.021021803220933"><ele>891.5</ele><time>2026-05-01T13:50:29.999Z</time></trkpt><trkpt lat="45.80419187614926" lon="14.02108719322115"><ele>892.75</ele><time>2026-05-01T13:50:30.999Z</time></trkpt><trkpt lat="45.80407686321214" lon="14.02116459347716"><ele>894.0</ele><time>2026-05-01T13:50:31.999Z</time></trkpt><trkpt lat="45.8039421169428" lon="14.021274369417236"><ele>894.0</ele><time>2026-05-01T13:50:32.999Z</time></trkpt><trkpt lat="45.80380239519059" lon="14.021372511674809"><ele>894.0</ele><time>2026-05-01T13:50:33.999Z</time></trkpt><trkpt lat="45.803680458139986" lon="14.02145786689108"><ele>894.0</ele><time>2026-05-01T13:50:35Z</time></trkpt><trkpt lat="45.803566996941505" lon="14.021533395835846"><ele>894.0</ele><time>2026-05-01T13:50:36Z</time></trkpt><trkpt lat="45.80346105662202" lon="14.021602381102685"><ele>896.2</ele><time>2026-05-01T13:50:37Z</time></trkpt><trkpt lat="45.80336388592859" lon="14.021666375559182"><ele>898.4000000000001</ele><time>2026-05-01T13:50:37.999Z</time></trkpt><trkpt lat="45.80326997367721" lon="14.021730525655192"><ele>900.6</ele><time>2026-05-01T13:50:38.999Z</time></trkpt><trkpt lat="45.80318152645911" lon="14.02179314215289"><ele>902.8</ele><time>2026-05-01T13:50:39.999Z</time></trkpt><trkpt lat="45.80308891086267" lon="14.021860291398413"><ele>905.0</ele><time>2026-05-01T13:50:40.999Z</time></trkpt><trkpt lat="45.802983762874355" lon="14.021938874630514"><ele>905.0</ele><time>2026-05-01T13:50:41.999Z</time></trkpt><trkpt lat="45.80286019329278" lon="14.022031225273002"><ele>905.0</ele><time>2026-05-01T13:50:42.999Z</time></trkpt><trkpt lat="45.802714319535404" lon="14.022137656501407"><ele>905.0</ele><time>2026-05-01T13:50:44Z</time></trkpt><trkpt lat="45.80257908183388" lon="14.02223401117049"><ele>902.6666666666667</ele><time>2026-05-01T13:50:45Z</time></trkpt><trkpt lat="45.802453190072875" lon="14.02231940849285"><ele>900.3333333333333</ele><time>2026-05-01T13:50:46Z</time></trkpt><trkpt lat="45.80232812851254" lon="14.02240052248264"><ele>898.0</ele><time>2026-05-01T13:50:47Z</time></trkpt><trkpt lat="45.80208644945466" lon="14.022553986882087"><ele>898.0</ele><time>2026-05-01T13:50:49Z</time></trkpt><trkpt lat="45.80196615820659" lon="14.022626710475496"><ele>898.0</ele><time>2026-05-01T13:50:50Z</time></trkpt><trkpt lat="45.80184421808936" lon="14.02270043184033"><ele>898.0</ele><time>2026-05-01T13:50:51Z</time></trkpt><trkpt lat="45.801734065734614" lon="14.022789484518986"><ele>898.0</ele><time>2026-05-01T13:50:52Z</time></trkpt><trkpt lat="45.80161261672572" lon="14.022825522930894"><ele>892.75</ele><time>2026-05-01T13:50:53Z</time></trkpt><trkpt lat="45.80150323354587" lon="14.022895941463254"><ele>887.5</ele><time>2026-05-01T13:50:54Z</time></trkpt><trkpt lat="45.80139111390722" lon="14.022944903641319"><ele>882.25</ele><time>2026-05-01T13:50:55Z</time></trkpt><trkpt lat="45.8013021928397" lon="14.023020407546866"><ele>877.0</ele><time>2026-05-01T13:50:56Z</time></trkpt><trkpt lat="45.80120450299864" lon="14.023138230771899"><ele>877.0</ele><time>2026-05-01T13:50:57Z</time></trkpt><trkpt lat="45.80109591857713" lon="14.023285825477682"><ele>877.0</ele><time>2026-05-01T13:50:58Z</time></trkpt><trkpt lat="45.80096908635865" lon="14.023475220883682"><ele>877.0</ele><time>2026-05-01T13:50:59Z</time></trkpt><trkpt lat="45.800852153774734" lon="14.023654040903752"><ele>876.5</ele><time>2026-05-01T13:51:00Z</time></trkpt><trkpt lat="45.800752307833086" lon="14.023832340078641"><ele>876.0</ele><time>2026-05-01T13:51:01Z</time></trkpt><trkpt lat="45.80064708122741" lon="14.023969549737798"><ele>875.5</ele><time>2026-05-01T13:51:02Z</time></trkpt><trkpt lat="45.80055661517649" lon="14.024110573076843"><ele>875.0</ele><time>2026-05-01T13:51:03Z</time></trkpt><trkpt lat="45.80047210873573" lon="14.024242306579984"><ele>873.0</ele><time>2026-05-01T13:51:04Z</time></trkpt><trkpt lat="45.80038910540673" lon="14.024374172286123"><ele>871.0</ele><time>2026-05-01T13:51:05Z</time></trkpt><trkpt lat="45.80030113690645" lon="14.024516474901727"><ele>869.0</ele><time>2026-05-01T13:51:06Z</time></trkpt><trkpt lat="45.80022099959862" lon="14.024656054197356"><ele>867.0</ele><time>2026-05-01T13:51:07Z</time></trkpt><trkpt lat="45.800141660054244" lon="14.024792091690882"><ele>867.0</ele><time>2026-05-01T13:51:08Z</time></trkpt><trkpt lat="45.80006211598958" lon="14.024918318097773"><ele>867.0</ele><time>2026-05-01T13:51:09Z</time></trkpt><trkpt lat="45.79998280722206" lon="14.025036711612797"><ele>867.0</ele><time>2026-05-01T13:51:10Z</time></trkpt><trkpt lat="45.799901292264636" lon="14.025149196168927"><ele>867.0</ele><time>2026-05-01T13:51:11Z</time></trkpt><trkpt lat="45.799824127686016" lon="14.02526920762498"><ele>871.75</ele><time>2026-05-01T13:51:12Z</time></trkpt><trkpt lat="45.799724996407406" lon="14.025369121813313"><ele>876.5</ele><time>2026-05-01T13:51:13Z</time></trkpt><trkpt lat="45.79962575860215" lon="14.025467016322757"><ele>881.25</ele><time>2026-05-01T13:51:14Z</time></trkpt><trkpt lat="45.79952253384528" lon="14.025560669472265"><ele>886.0</ele><time>2026-05-01T13:51:15Z</time></trkpt><trkpt lat="45.79942104643517" lon="14.025657944203695"><ele>886.25</ele><time>2026-05-01T13:51:16Z</time></trkpt><trkpt lat="45.79932844378869" lon="14.02577107517506"><ele>886.5</ele><time>2026-05-01T13:51:17Z</time></trkpt><trkpt lat="45.79923341671039" lon="14.025884733616259"><ele>886.75</ele><time>2026-05-01T13:51:18Z</time></trkpt><trkpt lat="45.79914187248617" lon="14.025995904932653"><ele>887.0</ele><time>2026-05-01T13:51:19Z</time></trkpt><trkpt lat="45.799039783369835" lon="14.026097087939968"><ele>887.0</ele><time>2026-05-01T13:51:20Z</time></trkpt><trkpt lat="45.7989321937815" lon="14.026182626469891"><ele>887.0</ele><time>2026-05-01T13:51:21.001Z</time></trkpt><trkpt lat="45.79881399067046" lon="14.026266446136301"><ele>887.0</ele><time>2026-05-01T13:51:22.001Z</time></trkpt><trkpt lat="45.79868773777764" lon="14.02632214325168"><ele>887.0</ele><time>2026-05-01T13:51:23.001Z</time></trkpt><trkpt lat="45.798578476099905" lon="14.026408749355008"><ele>889.25</ele><time>2026-05-01T13:51:24.001Z</time></trkpt><trkpt lat="45.79846720280057" lon="14.026456658856462"><ele>891.5</ele><time>2026-05-01T13:51:25.001Z</time></trkpt><trkpt lat="45.79836054376146" lon="14.026518855456958"><ele>893.75</ele><time>2026-05-01T13:51:26.001Z</time></trkpt><trkpt lat="45.79824919485649" lon="14.026582287788512"><ele>896.0</ele><time>2026-05-01T13:51:27.001Z</time></trkpt><trkpt lat="45.79814334942492" lon="14.026656583640014"><ele>896.0</ele><time>2026-05-01T13:51:28.001Z</time></trkpt><trkpt lat="45.798032825740435" lon="14.026722084806917"><ele>896.0</ele><time>2026-05-01T13:51:29.001Z</time></trkpt><trkpt lat="45.79792155796954" lon="14.026796126745655"><ele>896.0</ele><time>2026-05-01T13:51:30.001Z</time></trkpt><trkpt lat="45.797800618329" lon="14.02688350156542"><ele>896.0</ele><time>2026-05-01T13:51:31.001Z</time></trkpt><trkpt lat="45.797656322540526" lon="14.027007354222121"><ele>896.75</ele><time>2026-05-01T13:51:32.001Z</time></trkpt><trkpt lat="45.797529849415" lon="14.027116715675293"><ele>897.5</ele><time>2026-05-01T13:51:33.001Z</time></trkpt><trkpt lat="45.79742129499238" lon="14.027221747562539"><ele>898.25</ele><time>2026-05-01T13:51:34.001Z</time></trkpt><trkpt lat="45.79730875082762" lon="14.02733998931432"><ele>899.0</ele><time>2026-05-01T13:51:35.001Z</time></trkpt><trkpt lat="45.79718176089239" lon="14.027487541155537"><ele>899.0</ele><time>2026-05-01T13:51:36.001Z</time></trkpt><trkpt lat="45.79704839453632" lon="14.027657640660417"><ele>899.0</ele><time>2026-05-01T13:51:37.001Z</time></trkpt><trkpt lat="45.796918312045186" lon="14.027808384155033"><ele>899.0</ele><time>2026-05-01T13:51:38.001Z</time></trkpt><trkpt lat="45.79681785364461" lon="14.027941066476671"><ele>898.0</ele><time>2026-05-01T13:51:39.001Z</time></trkpt><trkpt lat="45.79671804721495" lon="14.028068377902988"><ele>897.0</ele><time>2026-05-01T13:51:40.001Z</time></trkpt><trkpt lat="45.79662721051922" lon="14.02819191216861"><ele>896.0</ele><time>2026-05-01T13:51:41.001Z</time></trkpt><trkpt lat="45.79654337911294" lon="14.028316494155114"><ele>895.0</ele><time>2026-05-01T13:51:42.001Z</time></trkpt><trkpt lat="45.796456282940184" lon="14.02844097126856"><ele>895.0</ele><time>2026-05-01T13:51:43.001Z</time></trkpt><trkpt lat="45.796371047787076" lon="14.02856604765757"><ele>895.0</ele><time>2026-05-01T13:51:44.001Z</time></trkpt><trkpt lat="45.79629427808538" lon="14.028674684645276"><ele>895.0</ele><time>2026-05-01T13:51:45.001Z</time></trkpt><trkpt lat="45.79622583503472" lon="14.028775826148832"><ele>895.0</ele><time>2026-05-01T13:51:46.001Z</time></trkpt><trkpt lat="45.79616842276736" lon="14.028862647448632"><ele>895.0</ele><time>2026-05-01T13:51:47.001Z</time></trkpt><trkpt lat="45.79611936282878" lon="14.028941182559588"><ele>894.9999999999999</ele><time>2026-05-01T13:51:48.001Z</time></trkpt><trkpt lat="45.796069500145705" lon="14.02900772126421"><ele>895.0</ele><time>2026-05-01T13:51:49.001Z</time></trkpt><trkpt lat="45.796010849778924" lon="14.029058629729445"><ele>895.0</ele><time>2026-05-01T13:51:50.001Z</time></trkpt><trkpt lat="45.79594712356033" lon="14.029108455219042"><ele>895.0</ele><time>2026-05-01T13:51:51.001Z</time></trkpt><trkpt lat="45.79587307941498" lon="14.02916578803596"><ele>894.9999999999999</ele><time>2026-05-01T13:51:52.001Z</time></trkpt><trkpt lat="45.79578277412005" lon="14.029232621555654"><ele>895.0</ele><time>2026-05-01T13:51:53.001Z</time></trkpt><trkpt lat="45.795682076370824" lon="14.029297570059683"><ele>893.75</ele><time>2026-05-01T13:51:54.001Z</time></trkpt><trkpt lat="45.7955698117317" lon="14.029360371258106"><ele>892.5</ele><time>2026-05-01T13:51:55.001Z</time></trkpt><trkpt lat="45.79545573683142" lon="14.029398982710068"><ele>891.25</ele><time>2026-05-01T13:51:56.001Z</time></trkpt><trkpt lat="45.795336548558964" lon="14.029378248072176"><ele>890.0</ele><time>2026-05-01T13:51:57.001Z</time></trkpt><trkpt lat="45.79520445504058" lon="14.029377165527917"><ele>885.5</ele><time>2026-05-01T13:51:58.001Z</time></trkpt><trkpt lat="45.79506142146695" lon="14.02937340255145"><ele>881.0</ele><time>2026-05-01T13:51:59.001Z</time></trkpt><trkpt lat="45.79491836725028" lon="14.029387814518635"><ele>876.5</ele><time>2026-05-01T13:52:00.001Z</time></trkpt><trkpt lat="45.79478198022645" lon="14.029390281700884"><ele>872.0</ele><time>2026-05-01T13:52:01.001Z</time></trkpt><trkpt lat="45.79464738556731" lon="14.02939493839348"><ele>872.0</ele><time>2026-05-01T13:52:02.001Z</time></trkpt><trkpt lat="45.79451498102708" lon="14.029396575354594"><ele>872.0</ele><time>2026-05-01T13:52:03.001Z</time></trkpt><trkpt lat="45.794385676731956" lon="14.029386426115353"><ele>872.0</ele><time>2026-05-01T13:52:04.001Z</time></trkpt><trkpt lat="45.7942579655956" lon="14.029370218869477"><ele>872.0</ele><time>2026-05-01T13:52:05.001Z</time></trkpt><trkpt lat="45.79412692122839" lon="14.029353234557789"><ele>869.75</ele><time>2026-05-01T13:52:06.001Z</time></trkpt><trkpt lat="45.794001655667834" lon="14.029337338399186"><ele>867.5</ele><time>2026-05-01T13:52:07.001Z</time></trkpt><trkpt lat="45.79387175920123" lon="14.02932432181738"><ele>865.25</ele><time>2026-05-01T13:52:08.001Z</time></trkpt><trkpt lat="45.7937411521963" lon="14.029333916919402"><ele>863.0</ele><time>2026-05-01T13:52:09.001Z</time></trkpt><trkpt lat="45.79361432128062" lon="14.029319517013542"><ele>860.25</ele><time>2026-05-01T13:52:10.001Z</time></trkpt><trkpt lat="45.79348750189727" lon="14.029318874432594"><ele>857.5</ele><time>2026-05-01T13:52:11.001Z</time></trkpt><trkpt lat="45.79336009943028" lon="14.029299034442616"><ele>854.75</ele><time>2026-05-01T13:52:12.001Z</time></trkpt><trkpt lat="45.79323707497298" lon="14.029256570454681"><ele>852.0</ele><time>2026-05-01T13:52:13.001Z</time></trkpt><trkpt lat="45.79311219796845" lon="14.02924499807124"><ele>852.0</ele><time>2026-05-01T13:52:14.001Z</time></trkpt><trkpt lat="45.792989970914" lon="14.02920686304331"><ele>852.0</ele><time>2026-05-01T13:52:15.001Z</time></trkpt><trkpt lat="45.79287348862041" lon="14.02913475462863"><ele>852.0</ele><time>2026-05-01T13:52:16.001Z</time></trkpt><trkpt lat="45.79275067298234" lon="14.02907883104446"><ele>852.0</ele><time>2026-05-01T13:52:17.001Z</time></trkpt><trkpt lat="45.79262454748612" lon="14.029038393613545"><ele>846.0</ele><time>2026-05-01T13:52:18.001Z</time></trkpt><trkpt lat="45.79250237857048" lon="14.028979369355596"><ele>840.0</ele><time>2026-05-01T13:52:19.001Z</time></trkpt><trkpt lat="45.792391661169" lon="14.028893682607544"><ele>834.0</ele><time>2026-05-01T13:52:20.001Z</time></trkpt><trkpt lat="45.792273018384144" lon="14.028830848180164"><ele>828.0</ele><time>2026-05-01T13:52:21.001Z</time></trkpt><trkpt lat="45.79215397817529" lon="14.028768959168108"><ele>828.0</ele><time>2026-05-01T13:52:22.001Z</time></trkpt><trkpt lat="45.792040322021336" lon="14.028712547476834"><ele>828.0</ele><time>2026-05-01T13:52:23.001Z</time></trkpt><trkpt lat="45.791922896891535" lon="14.028657521224373"><ele>828.0</ele><time>2026-05-01T13:52:24.001Z</time></trkpt><trkpt lat="45.79180160128532" lon="14.028609191890132"><ele>828.0</ele><time>2026-05-01T13:52:25.001Z</time></trkpt><trkpt lat="45.791683639528266" lon="14.0285745690858"><ele>828.25</ele><time>2026-05-01T13:52:26.001Z</time></trkpt><trkpt lat="45.79156582374013" lon="14.028543606356711"><ele>828.5</ele><time>2026-05-01T13:52:27.001Z</time></trkpt><trkpt lat="45.791448603835335" lon="14.028512171028533"><ele>828.75</ele><time>2026-05-01T13:52:28.001Z</time></trkpt><trkpt lat="45.79133284327578" lon="14.028480194729969"><ele>829.0</ele><time>2026-05-01T13:52:29.001Z</time></trkpt><trkpt lat="45.79122441586027" lon="14.028436626074352"><ele>829.0</ele><time>2026-05-01T13:52:30.001Z</time></trkpt><trkpt lat="45.79111743821621" lon="14.028382872216401"><ele>829.0</ele><time>2026-05-01T13:52:31.001Z</time></trkpt><trkpt lat="45.79101798772157" lon="14.0283332805284"><ele>829.0</ele><time>2026-05-01T13:52:32.001Z</time></trkpt><trkpt lat="45.790917075835914" lon="14.028291848209411"><ele>829.0</ele><time>2026-05-01T13:52:33.001Z</time></trkpt><trkpt lat="45.79081971660922" lon="14.028257569873432"><ele>829.0</ele><time>2026-05-01T13:52:34.001Z</time></trkpt><trkpt lat="45.790750405195794" lon="14.02823075055348"><ele>826.0</ele><time>2026-05-01T13:52:35.001Z</time></trkpt><trkpt lat="45.790689494569975" lon="14.028183980604235"><ele>823.0</ele><time>2026-05-01T13:52:37.001Z</time></trkpt><trkpt lat="45.79080521655573" lon="14.028098621737701"><ele>820.0</ele><time>2026-05-01T13:52:39.001Z</time></trkpt><trkpt lat="45.790884923440196" lon="14.028113238561446"><ele>817.0</ele><time>2026-05-01T13:52:40.001Z</time></trkpt><trkpt lat="45.790971268297554" lon="14.028130096199124"><ele>814.0</ele><time>2026-05-01T13:52:41.001Z</time></trkpt><trkpt lat="45.7910761412227" lon="14.02813702543659"><ele>812.8333333333333</ele><time>2026-05-01T13:52:42.001Z</time></trkpt><trkpt lat="45.79117417178949" lon="14.028134875635526"><ele>811.6666666666666</ele><time>2026-05-01T13:52:43.001Z</time></trkpt><trkpt lat="45.79126324489884" lon="14.028136730230681"><ele>810.5</ele><time>2026-05-01T13:52:44.001Z</time></trkpt><trkpt lat="45.791361841393346" lon="14.02814100413333"><ele>809.3333333333333</ele><time>2026-05-01T13:52:45.001Z</time></trkpt><trkpt lat="45.791438083862765" lon="14.0281428864551"><ele>808.1666666666666</ele><time>2026-05-01T13:52:46.001Z</time></trkpt><trkpt lat="45.79150148649354" lon="14.028135088551482"><ele>807.0</ele><time>2026-05-01T13:52:47.001Z</time></trkpt><trkpt lat="45.79155103103129" lon="14.028010159500962"><ele>807.0</ele><time>2026-05-01T13:52:49.001Z</time></trkpt><trkpt lat="45.79143572631444" lon="14.027886183298405"><ele>807.0</ele><time>2026-05-01T13:52:51.001Z</time></trkpt><trkpt lat="45.79135326768529" lon="14.02785454175572"><ele>807.0</ele><time>2026-05-01T13:52:52.001Z</time></trkpt><trkpt lat="45.79128965489886" lon="14.027810330948162"><ele>807.0</ele><time>2026-05-01T13:52:53.001Z</time></trkpt><trkpt lat="45.791213671296624" lon="14.027739767144874"><ele>807.0</ele><time>2026-05-01T13:52:54.001Z</time></trkpt><trkpt lat="45.79113836588705" lon="14.027603031624752"><ele>806.25</ele><time>2026-05-01T13:52:55.001Z</time></trkpt><trkpt lat="45.79105567167988" lon="14.027442397739895"><ele>805.5</ele><time>2026-05-01T13:52:56.001Z</time></trkpt><trkpt lat="45.79095171113284" lon="14.027291409708752"><ele>804.75</ele><time>2026-05-01T13:52:57.001Z</time></trkpt><trkpt lat="45.79086103037023" lon="14.027144935692913"><ele>804.0</ele><time>2026-05-01T13:52:58.001Z</time></trkpt><trkpt lat="45.79078834771885" lon="14.027011165024568"><ele>804.0</ele><time>2026-05-01T13:52:59.001Z</time></trkpt><trkpt lat="45.79072377700157" lon="14.026880927343868"><ele>804.0</ele><time>2026-05-01T13:53:00.001Z</time></trkpt><trkpt lat="45.790683458126935" lon="14.02673557431426"><ele>804.0</ele><time>2026-05-01T13:53:01.001Z</time></trkpt><trkpt lat="45.79061567414514" lon="14.026611239549892"><ele>804.0</ele><time>2026-05-01T13:53:02.001Z</time></trkpt><trkpt lat="45.79056427103101" lon="14.026468955444216"><ele>804.0</ele><time>2026-05-01T13:53:03.001Z</time></trkpt><trkpt lat="45.79052061484974" lon="14.026331436829816"><ele>801.8000000000001</ele><time>2026-05-01T13:53:04.001Z</time></trkpt><trkpt lat="45.790496707334036" lon="14.026186049336696"><ele>799.6</ele><time>2026-05-01T13:53:05.001Z</time></trkpt><trkpt lat="45.790498071936" lon="14.026041526241604"><ele>797.4</ele><time>2026-05-01T13:53:06.001Z</time></trkpt><trkpt lat="45.79053436180614" lon="14.025919032809353"><ele>795.2</ele><time>2026-05-01T13:53:07.001Z</time></trkpt><trkpt lat="45.79061725803042" lon="14.02584885970078"><ele>793.0</ele><time>2026-05-01T13:53:08.001Z</time></trkpt><trkpt lat="45.7907361574265" lon="14.025839953800268"><ele>793.0</ele><time>2026-05-01T13:53:09.001Z</time></trkpt><trkpt lat="45.790862792247715" lon="14.025873361577867"><ele>793.0</ele><time>2026-05-01T13:53:10.001Z</time></trkpt><trkpt lat="45.79097775718022" lon="14.025884129742357"><ele>793.0</ele><time>2026-05-01T13:53:11.001Z</time></trkpt><trkpt lat="45.79109077634924" lon="14.025861991282062"><ele>793.0</ele><time>2026-05-01T13:53:12.001Z</time></trkpt><trkpt lat="45.79117826467722" lon="14.02582437798668"><ele>793.0</ele><time>2026-05-01T13:53:13.001Z</time></trkpt><trkpt lat="45.791254728279156" lon="14.02577953454315"><ele>789.25</ele><time>2026-05-01T13:53:14.001Z</time></trkpt><trkpt lat="45.791313968975714" lon="14.025663052272503"><ele>785.5</ele><time>2026-05-01T13:53:15.001Z</time></trkpt><trkpt lat="45.79131351841781" lon="14.025487478662173"><ele>781.75</ele><time>2026-05-01T13:53:16.001Z</time></trkpt><trkpt lat="45.791337942522475" lon="14.02531137507821"><ele>778.0</ele><time>2026-05-01T13:53:17.001Z</time></trkpt><trkpt lat="45.79132596244173" lon="14.02513967067808"><ele>778.0</ele><time>2026-05-01T13:53:18.001Z</time></trkpt><trkpt lat="45.79131304873876" lon="14.024980861336369"><ele>778.0</ele><time>2026-05-01T13:53:19.001Z</time></trkpt><trkpt lat="45.79130365489281" lon="14.024825443578804"><ele>778.0</ele><time>2026-05-01T13:53:20.001Z</time></trkpt><trkpt lat="45.79130370260033" lon="14.02467492013387"><ele>778.0</ele><time>2026-05-01T13:53:21.001Z</time></trkpt><trkpt lat="45.79130601747685" lon="14.02453278183801"><ele>778.0</ele><time>2026-05-01T13:53:22.001Z</time></trkpt><trkpt lat="45.791339720919176" lon="14.02440135716982"><ele>777.4</ele><time>2026-05-01T13:53:23.001Z</time></trkpt><trkpt lat="45.79138956704557" lon="14.024280716491532"><ele>776.8</ele><time>2026-05-01T13:53:24.001Z</time></trkpt><trkpt lat="45.79146323393974" lon="14.024173603394043"><ele>776.2</ele><time>2026-05-01T13:53:25.001Z</time></trkpt><trkpt lat="45.791550520622465" lon="14.024077497068049"><ele>775.6</ele><time>2026-05-01T13:53:26.001Z</time></trkpt><trkpt lat="45.791644367575365" lon="14.023980786183788"><ele>775.0</ele><time>2026-05-01T13:53:27.001Z</time></trkpt><trkpt lat="45.791745900114364" lon="14.023885583663837"><ele>774.5</ele><time>2026-05-01T13:53:28.001Z</time></trkpt><trkpt lat="45.7918230158041" lon="14.023730646514283"><ele>774.0</ele><time>2026-05-01T13:53:29.001Z</time></trkpt><trkpt lat="45.79187073679095" lon="14.0235573193675"><ele>773.5</ele><time>2026-05-01T13:53:30.001Z</time></trkpt><trkpt lat="45.79188978065143" lon="14.023386974957"><ele>773.0</ele><time>2026-05-01T13:53:31.001Z</time></trkpt><trkpt lat="45.79188278994414" lon="14.023226628546137"><ele>773.3333333333334</ele><time>2026-05-01T13:53:32.001Z</time></trkpt><trkpt lat="45.79185955646976" lon="14.023086750833098"><ele>773.6666666666667</ele><time>2026-05-01T13:53:33.001Z</time></trkpt><trkpt lat="45.791821522185884" lon="14.022963776038207"><ele>774.0</ele><time>2026-05-01T13:53:34.001Z</time></trkpt><trkpt lat="45.791766434749405" lon="14.02287174648266"><ele>774.3333333333333</ele><time>2026-05-01T13:53:35.001Z</time></trkpt><trkpt lat="45.79171642064404" lon="14.022788457121093"><ele>774.6666666666666</ele><time>2026-05-01T13:53:36.001Z</time></trkpt><trkpt lat="45.79165525031273" lon="14.022691417650814"><ele>775.0</ele><time>2026-05-01T13:53:37.001Z</time></trkpt><trkpt lat="45.79160351257278" lon="14.022608917392363"><ele>774.9999999999999</ele><time>2026-05-01T13:53:38.001Z</time></trkpt><trkpt lat="45.79156321017803" lon="14.022534360375301"><ele>775.0</ele><time>2026-05-01T13:53:39.001Z</time></trkpt><trkpt lat="45.791513140230784" lon="14.02239551196634"><ele>775.0</ele><time>2026-05-01T13:53:41.001Z</time></trkpt><trkpt lat="45.79151902362173" lon="14.022294722533443"><ele>775.0</ele><time>2026-05-01T13:53:42.001Z</time></trkpt><trkpt lat="45.791549832710004" lon="14.02217215921127"><ele>774.9999999999999</ele><time>2026-05-01T13:53:43.001Z</time></trkpt><trkpt lat="45.79160595370584" lon="14.022085314255262"><ele>775.0</ele><time>2026-05-01T13:53:44.001Z</time></trkpt><trkpt lat="45.79164657388541" lon="14.021997763756923"><ele>774.8</ele><time>2026-05-01T13:53:45.001Z</time></trkpt><trkpt lat="45.79172123090593" lon="14.021891393633762"><ele>774.6</ele><time>2026-05-01T13:53:46.001Z</time></trkpt><trkpt lat="45.79181558381732" lon="14.021762145734396"><ele>774.4000000000001</ele><time>2026-05-01T13:53:47.001Z</time></trkpt><trkpt lat="45.79190880872293" lon="14.021663472503207"><ele>774.2</ele><time>2026-05-01T13:53:48.001Z</time></trkpt><trkpt lat="45.791987692057845" lon="14.02159195588314"><ele>774.0</ele><time>2026-05-01T13:53:49.001Z</time></trkpt><trkpt lat="45.79204483282497" lon="14.02151528553852"><ele>776.2</ele><time>2026-05-01T13:53:50.001Z</time></trkpt><trkpt lat="45.79210085947376" lon="14.021455922607808"><ele>778.4000000000001</ele><time>2026-05-01T13:53:51.001Z</time></trkpt><trkpt lat="45.792195761686216" lon="14.021379446114484"><ele>780.6</ele><time>2026-05-01T13:53:53.001Z</time></trkpt><trkpt lat="45.79226059100356" lon="14.021297693906599"><ele>782.8</ele><time>2026-05-01T13:53:56.001Z</time></trkpt><trkpt lat="45.79213164257233" lon="14.021249152309752"><ele>785.0</ele><time>2026-05-01T13:54:00.001Z</time></trkpt><trkpt lat="45.792031193634365" lon="14.021354428451293"><ele>785.0</ele><time>2026-05-01T13:54:02.001Z</time></trkpt><trkpt lat="45.791962841886885" lon="14.021405739694526"><ele>785.0</ele><time>2026-05-01T13:54:03.001Z</time></trkpt><trkpt lat="45.79188439678956" lon="14.021448955329998"><ele>785.0</ele><time>2026-05-01T13:54:05.001Z</time></trkpt><trkpt lat="45.79181328001762" lon="14.02148915702605"><ele>785.0</ele><time>2026-05-01T13:54:07.001Z</time></trkpt><trkpt lat="45.79170686689801" lon="14.021551196709261"><ele>785.0</ele><time>2026-05-01T13:54:09.001Z</time></trkpt><trkpt lat="45.79160694886292" lon="14.021604915798667"><ele>785.25</ele><time>2026-05-01T13:54:10.001Z</time></trkpt><trkpt lat="45.79148991441684" lon="14.02166614178629"><ele>785.5</ele><time>2026-05-01T13:54:11.001Z</time></trkpt><trkpt lat="45.79134860135948" lon="14.021708247871867"><ele>785.75</ele><time>2026-05-01T13:54:12.001Z</time></trkpt><trkpt lat="45.79120305422688" lon="14.021790867914238"><ele>786.0</ele><time>2026-05-01T13:54:13.001Z</time></trkpt><trkpt lat="45.79106559057149" lon="14.021856174169667"><ele>791.3333333333333</ele><time>2026-05-01T13:54:14.001Z</time></trkpt><trkpt lat="45.79093808677234" lon="14.021905992412666"><ele>796.6666666666666</ele><time>2026-05-01T13:54:15.001Z</time></trkpt><trkpt lat="45.790785529824475" lon="14.02198545872958"><ele>802.0</ele><time>2026-05-01T13:54:16.001Z</time></trkpt><trkpt lat="45.79060302092227" lon="14.022101931262034"><ele>802.0</ele><time>2026-05-01T13:54:17.001Z</time></trkpt><trkpt lat="45.790439369473624" lon="14.02217036896222"><ele>802.0</ele><time>2026-05-01T13:54:18.001Z</time></trkpt><trkpt lat="45.79029364364728" lon="14.02227752637625"><ele>802.0</ele><time>2026-05-01T13:54:19.001Z</time></trkpt><trkpt lat="45.79014899622166" lon="14.022335324521046"><ele>801.6</ele><time>2026-05-01T13:54:20.001Z</time></trkpt><trkpt lat="45.79004654083568" lon="14.022416977545973"><ele>801.2</ele><time>2026-05-01T13:54:21.001Z</time></trkpt><trkpt lat="45.789948386979795" lon="14.022459066205844"><ele>800.8</ele><time>2026-05-01T13:54:22.001Z</time></trkpt><trkpt lat="45.789849092681536" lon="14.022472524081476"><ele>800.4</ele><time>2026-05-01T13:54:23.001Z</time></trkpt><trkpt lat="45.789773590426066" lon="14.022547960422349"><ele>800.0</ele><time>2026-05-01T13:54:24.001Z</time></trkpt><trkpt lat="45.78970487031123" lon="14.022638343673382"><ele>800.0</ele><time>2026-05-01T13:54:25.001Z</time></trkpt><trkpt lat="45.789609347762436" lon="14.022744965055026"><ele>800.0</ele><time>2026-05-01T13:54:26.001Z</time></trkpt><trkpt lat="45.78950309586658" lon="14.022892728595725"><ele>800.0</ele><time>2026-05-01T13:54:27.001Z</time></trkpt><trkpt lat="45.78938931846125" lon="14.023042064918146"><ele>800.0</ele><time>2026-05-01T13:54:28.001Z</time></trkpt><trkpt lat="45.78928939561964" lon="14.02322106097777"><ele>803.25</ele><time>2026-05-01T13:54:29.001Z</time></trkpt><trkpt lat="45.789189548780975" lon="14.023356873455194"><ele>806.5</ele><time>2026-05-01T13:54:30.001Z</time></trkpt><trkpt lat="45.789094438709874" lon="14.02349376991348"><ele>809.75</ele><time>2026-05-01T13:54:31.001Z</time></trkpt><trkpt lat="45.78902298683633" lon="14.023636282648996"><ele>813.0</ele><time>2026-05-01T13:54:32.001Z</time></trkpt><trkpt lat="45.788955441476055" lon="14.023756070264776"><ele>813.0</ele><time>2026-05-01T13:54:33.001Z</time></trkpt><trkpt lat="45.78889927993147" lon="14.023866936045462"><ele>813.0</ele><time>2026-05-01T13:54:34.001Z</time></trkpt><trkpt lat="45.788826561930215" lon="14.023954594260381"><ele>813.0</ele><time>2026-05-01T13:54:35.001Z</time></trkpt><trkpt lat="45.78876616024745" lon="14.024058541367113"><ele>813.0</ele><time>2026-05-01T13:54:36.001Z</time></trkpt><trkpt lat="45.78867070416158" lon="14.024099722224914"><ele>813.0</ele><time>2026-05-01T13:54:37.001Z</time></trkpt><trkpt lat="45.788558270205094" lon="14.024182415160354"><ele>816.2</ele><time>2026-05-01T13:54:38.001Z</time></trkpt><trkpt lat="45.78845047226843" lon="14.024288469919666"><ele>819.4</ele><time>2026-05-01T13:54:39.001Z</time></trkpt><trkpt lat="45.78839550464499" lon="14.024413220642396"><ele>822.6</ele><time>2026-05-01T13:54:40.001Z</time></trkpt><trkpt lat="45.78829097203839" lon="14.024479457619154"><ele>825.8000000000001</ele><time>2026-05-01T13:54:42.001Z</time></trkpt><trkpt lat="45.788217064615914" lon="14.024466635278776"><ele>829.0</ele><time>2026-05-01T13:54:43.001Z</time></trkpt><trkpt lat="45.78815684987128" lon="14.024419218422562"><ele>829.0</ele><time>2026-05-01T13:54:44.001Z</time></trkpt><trkpt lat="45.78807645304711" lon="14.02439641111945"><ele>829.0</ele><time>2026-05-01T13:54:45.001Z</time></trkpt><trkpt lat="45.7879910545634" lon="14.024448411542597"><ele>829.0</ele><time>2026-05-01T13:54:46.001Z</time></trkpt><trkpt lat="45.78793908187272" lon="14.02460027210323"><ele>829.0</ele><time>2026-05-01T13:54:47.001Z</time></trkpt><trkpt lat="45.78786260162272" lon="14.024698966992288"><ele>829.0</ele><time>2026-05-01T13:54:48.001Z</time></trkpt><trkpt lat="45.78773450467643" lon="14.024671308765257"><ele>832.6</ele><time>2026-05-01T13:54:49.001Z</time></trkpt><trkpt lat="45.78763524960279" lon="14.024742412609957"><ele>836.2</ele><time>2026-05-01T13:54:50.001Z</time></trkpt><trkpt lat="45.78755860436564" lon="14.024846146019266"><ele>839.8000000000001</ele><time>2026-05-01T13:54:51.001Z</time></trkpt><trkpt lat="45.787464343644764" lon="14.024925872711822"><ele>843.4000000000001</ele><time>2026-05-01T13:54:52.001Z</time></trkpt><trkpt lat="45.787388576620145" lon="14.024995192815336"><ele>847.0</ele><time>2026-05-01T13:54:53.001Z</time></trkpt><trkpt lat="45.787332269273335" lon="14.02504327068455"><ele>847.0</ele><time>2026-05-01T13:54:54.001Z</time></trkpt><trkpt lat="45.78724928866838" lon="14.024990904073976"><ele>847.0</ele><time>2026-05-01T13:54:55.001Z</time></trkpt><trkpt lat="45.787164011961146" lon="14.024960910959058"><ele>847.0</ele><time>2026-05-01T13:54:56.001Z</time></trkpt><trkpt lat="45.78707646361738" lon="14.02498890217417"><ele>847.0</ele><time>2026-05-01T13:54:57.001Z</time></trkpt><trkpt lat="45.787003216839935" lon="14.025114706528187"><ele>847.0</ele><time>2026-05-01T13:54:58.001Z</time></trkpt><trkpt lat="45.78691768250231" lon="14.025227943356695"><ele>849.4000000000001</ele><time>2026-05-01T13:54:59.001Z</time></trkpt><trkpt lat="45.786840453580325" lon="14.025287311011882"><ele>851.8000000000001</ele><time>2026-05-01T13:55:00.001Z</time></trkpt><trkpt lat="45.78675624069353" lon="14.025305749803074"><ele>854.2</ele><time>2026-05-01T13:55:01.001Z</time></trkpt><trkpt lat="45.78666756019331" lon="14.025245629033131"><ele>856.6</ele><time>2026-05-01T13:55:02.001Z</time></trkpt><trkpt lat="45.78655816677629" lon="14.025243166613054"><ele>859.0</ele><time>2026-05-01T13:55:03.001Z</time></trkpt><trkpt lat="45.78644563465305" lon="14.025241311004091"><ele>859.0</ele><time>2026-05-01T13:55:04.001Z</time></trkpt><trkpt lat="45.78633646702888" lon="14.025242685322134"><ele>859.0000000000001</ele><time>2026-05-01T13:55:05.001Z</time></trkpt><trkpt lat="45.78625526795469" lon="14.02525105150023"><ele>859.0000000000001</ele><time>2026-05-01T13:55:06.001Z</time></trkpt><trkpt lat="45.78620836130061" lon="14.02536304384955"><ele>859.0</ele><time>2026-05-01T13:55:07.001Z</time></trkpt><trkpt lat="45.78616088388464" lon="14.025468759246325"><ele>859.0</ele><time>2026-05-01T13:55:08Z</time></trkpt><trkpt lat="45.786085928584576" lon="14.025547003057198"><ele>860.6</ele><time>2026-05-01T13:55:09Z</time></trkpt><trkpt lat="45.78600367042314" lon="14.025500320837132"><ele>862.2</ele><time>2026-05-01T13:55:10Z</time></trkpt><trkpt lat="45.7859097890449" lon="14.025503761097548"><ele>863.8000000000001</ele><time>2026-05-01T13:55:11Z</time></trkpt><trkpt lat="45.78581659267296" lon="14.025505511045715"><ele>865.4000000000001</ele><time>2026-05-01T13:55:12Z</time></trkpt><trkpt lat="45.785694862930114" lon="14.02553668326985"><ele>867.0</ele><time>2026-05-01T13:55:13Z</time></trkpt><trkpt lat="45.785608185727185" lon="14.025646168458879"><ele>867.0</ele><time>2026-05-01T13:55:14Z</time></trkpt><trkpt lat="45.78553737681134" lon="14.025755729414643"><ele>867.0</ele><time>2026-05-01T13:55:15Z</time></trkpt><trkpt lat="45.785447016484376" lon="14.025850196440464"><ele>867.0</ele><time>2026-05-01T13:55:16Z</time></trkpt><trkpt lat="45.78536598073606" lon="14.02595611871149"><ele>867.0</ele><time>2026-05-01T13:55:17Z</time></trkpt><trkpt lat="45.785295556607586" lon="14.026055384848588"><ele>867.0</ele><time>2026-05-01T13:55:18Z</time></trkpt><trkpt lat="45.785229810082335" lon="14.026154793877394"><ele>870.5</ele><time>2026-05-01T13:55:19.001Z</time></trkpt><trkpt lat="45.78518603970112" lon="14.026276780948864"><ele>874.0</ele><time>2026-05-01T13:55:20.001Z</time></trkpt><trkpt lat="45.78519794547912" lon="14.026451377959875"><ele>877.5</ele><time>2026-05-01T13:55:21.001Z</time></trkpt><trkpt lat="45.78521034687415" lon="14.026647835160517"><ele>881.0</ele><time>2026-05-01T13:55:22.001Z</time></trkpt><trkpt lat="45.785176230848386" lon="14.02683029557274"><ele>882.4</ele><time>2026-05-01T13:55:23.001Z</time></trkpt><trkpt lat="45.78515372865899" lon="14.02699602565419"><ele>883.8</ele><time>2026-05-01T13:55:24.001Z</time></trkpt><trkpt lat="45.78513050199376" lon="14.027160584263926"><ele>885.1999999999999</ele><time>2026-05-01T13:55:25.001Z</time></trkpt><trkpt lat="45.785113440366814" lon="14.027301074042796"><ele>886.5999999999999</ele><time>2026-05-01T13:55:26.001Z</time></trkpt><trkpt lat="45.785101634291" lon="14.027426860953344"><ele>888.0</ele><time>2026-05-01T13:55:27.001Z</time></trkpt><trkpt lat="45.785113785479396" lon="14.027548180216813"><ele>889.4</ele><time>2026-05-01T13:55:28.001Z</time></trkpt><trkpt lat="45.78511986609587" lon="14.027663432869323"><ele>890.8</ele><time>2026-05-01T13:55:29.001Z</time></trkpt><trkpt lat="45.78519104593917" lon="14.027818571245986"><ele>892.2</ele><time>2026-05-01T13:55:31.001Z</time></trkpt><trkpt lat="45.78525300854504" lon="14.027893352846414"><ele>893.6</ele><time>2026-05-01T13:55:32.001Z</time></trkpt><trkpt lat="45.785302280332715" lon="14.027997973342105"><ele>895.0</ele><time>2026-05-01T13:55:33.001Z</time></trkpt><trkpt lat="45.785369262988304" lon="14.028069355473962"><ele>896.6666666666666</ele><time>2026-05-01T13:55:34.001Z</time></trkpt><trkpt lat="45.78542293647377" lon="14.028167126573344"><ele>898.3333333333333</ele><time>2026-05-01T13:55:35.001Z</time></trkpt><trkpt lat="45.785474058967864" lon="14.02825800797223"><ele>900.0</ele><time>2026-05-01T13:55:36.001Z</time></trkpt><trkpt lat="45.785510388929076" lon="14.028368006756974"><ele>901.6666666666667</ele><time>2026-05-01T13:55:37.001Z</time></trkpt><trkpt lat="45.78557247974478" lon="14.028464978126836"><ele>903.3333333333334</ele><time>2026-05-01T13:55:38.001Z</time></trkpt><trkpt lat="45.78561387245347" lon="14.028580503947616"><ele>905.0</ele><time>2026-05-01T13:55:39.001Z</time></trkpt><trkpt lat="45.78565561340392" lon="14.028697560968723"><ele>905.3333333333334</ele><time>2026-05-01T13:55:40.001Z</time></trkpt><trkpt lat="45.78570640927192" lon="14.028790180703059"><ele>905.6666666666667</ele><time>2026-05-01T13:55:41.001Z</time></trkpt><trkpt lat="45.785754723894165" lon="14.028899405741113"><ele>906.0</ele><time>2026-05-01T13:55:42.001Z</time></trkpt><trkpt lat="45.78579886386103" lon="14.028993480314602"><ele>906.3333333333333</ele><time>2026-05-01T13:55:43.001Z</time></trkpt><trkpt lat="45.78584799513365" lon="14.02907123921102"><ele>906.6666666666666</ele><time>2026-05-01T13:55:44.001Z</time></trkpt><trkpt lat="45.785871234459336" lon="14.02922772024432"><ele>907.0</ele><time>2026-05-01T13:55:46.001Z</time></trkpt><trkpt lat="45.78591590695094" lon="14.029351571811038"><ele>908.2857142857144</ele><time>2026-05-01T13:55:48.001Z</time></trkpt><trkpt lat="45.78592043794751" lon="14.029498093210531"><ele>909.5714285714287</ele><time>2026-05-01T13:55:50.001Z</time></trkpt><trkpt lat="45.78588853072775" lon="14.029578907400307"><ele>910.8571428571429</ele><time>2026-05-01T13:55:51.001Z</time></trkpt><trkpt lat="45.78583668711016" lon="14.029644689199465"><ele>912.1428571428572</ele><time>2026-05-01T13:55:52.001Z</time></trkpt><trkpt lat="45.78578212820034" lon="14.029695247793166"><ele>913.4285714285716</ele><time>2026-05-01T13:55:53.001Z</time></trkpt><trkpt lat="45.78572123181957" lon="14.029727270331078"><ele>914.7142857142857</ele><time>2026-05-01T13:55:54.001Z</time></trkpt><trkpt lat="45.78566228001983" lon="14.02978301086167"><ele>916.0</ele><time>2026-05-01T13:55:55.001Z</time></trkpt><trkpt lat="45.78560460823538" lon="14.029849686016671"><ele>917.0</ele><time>2026-05-01T13:55:56.001Z</time></trkpt><trkpt lat="45.78554362444231" lon="14.029986064053446"><ele>918.0</ele><time>2026-05-01T13:55:57.001Z</time></trkpt><trkpt lat="45.78547116478013" lon="14.030153879433094"><ele>919.0</ele><time>2026-05-01T13:55:58.001Z</time></trkpt><trkpt lat="45.785377151441054" lon="14.030355336024742"><ele>920.0</ele><time>2026-05-01T13:55:59.001Z</time></trkpt><trkpt lat="45.78524769668603" lon="14.03050525244717"><ele>921.5</ele><time>2026-05-01T13:56:00.001Z</time></trkpt><trkpt lat="45.785127800679234" lon="14.030673460230608"><ele>923.0</ele><time>2026-05-01T13:56:01.001Z</time></trkpt><trkpt lat="45.785041210745106" lon="14.030828215199946"><ele>924.5</ele><time>2026-05-01T13:56:02.001Z</time></trkpt><trkpt lat="45.78492926114665" lon="14.0309122193288"><ele>926.0</ele><time>2026-05-01T13:56:03.001Z</time></trkpt><trkpt lat="45.784831781268345" lon="14.031007495954565"><ele>927.8</ele><time>2026-05-01T13:56:04.001Z</time></trkpt><trkpt lat="45.784732122087235" lon="14.0311024402512"><ele>929.5999999999999</ele><time>2026-05-01T13:56:05.001Z</time></trkpt><trkpt lat="45.78463140960589" lon="14.031200691510946"><ele>931.4</ele><time>2026-05-01T13:56:06.001Z</time></trkpt><trkpt lat="45.78453798686509" lon="14.031294972132654"><ele>933.2</ele><time>2026-05-01T13:56:07.001Z</time></trkpt><trkpt lat="45.78447512943723" lon="14.031392368774005"><ele>935.0</ele><time>2026-05-01T13:56:08.001Z</time></trkpt><trkpt lat="45.784443594112915" lon="14.031503691410908"><ele>935.0</ele><time>2026-05-01T13:56:09.001Z</time></trkpt><trkpt lat="45.78443964913672" lon="14.03162404123375"><ele>935.0</ele><time>2026-05-01T13:56:10.001Z</time></trkpt><trkpt lat="45.78446224527077" lon="14.031732141301822"><ele>935.0</ele><time>2026-05-01T13:56:11.001Z</time></trkpt><trkpt lat="45.78452837857155" lon="14.031827606870356"><ele>935.0</ele><time>2026-05-01T13:56:12.001Z</time></trkpt><trkpt lat="45.78463252934458" lon="14.031871231055362"><ele>935.0</ele><time>2026-05-01T13:56:13.001Z</time></trkpt><trkpt lat="45.78474535567152" lon="14.031913413124741"><ele>937.6</ele><time>2026-05-01T13:56:14.001Z</time></trkpt><trkpt lat="45.784863278850416" lon="14.031948072942432"><ele>940.2</ele><time>2026-05-01T13:56:15.001Z</time></trkpt><trkpt lat="45.784956529928884" lon="14.0319900781962"><ele>942.8</ele><time>2026-05-01T13:56:16.001Z</time></trkpt><trkpt lat="45.78504063151076" lon="14.032044763595229"><ele>945.4</ele><time>2026-05-01T13:56:17.001Z</time></trkpt><trkpt lat="45.78511166679339" lon="14.03210989245622"><ele>948.0</ele><time>2026-05-01T13:56:18.001Z</time></trkpt><trkpt lat="45.785161971132474" lon="14.032174264666974"><ele>947.5</ele><time>2026-05-01T13:56:19.001Z</time></trkpt><trkpt lat="45.78519657608772" lon="14.032250702570874"><ele>947.0</ele><time>2026-05-01T13:56:20.001Z</time></trkpt><trkpt lat="45.78521246782761" lon="14.032346540267435"><ele>946.5</ele><time>2026-05-01T13:56:21.001Z</time></trkpt><trkpt lat="45.78520066298127" lon="14.032447791234365"><ele>946.0</ele><time>2026-05-01T13:56:22.001Z</time></trkpt><trkpt lat="45.78516491949066" lon="14.032546136730469"><ele>945.5</ele><time>2026-05-01T13:56:23.001Z</time></trkpt><trkpt lat="45.78510195043593" lon="14.032632618672613"><ele>945.0</ele><time>2026-05-01T13:56:24.001Z</time></trkpt><trkpt lat="45.785013098209866" lon="14.032678850273179"><ele>950.25</ele><time>2026-05-01T13:56:25.001Z</time></trkpt><trkpt lat="45.78491483076348" lon="14.032731966749438"><ele>955.5</ele><time>2026-05-01T13:56:26.001Z</time></trkpt><trkpt lat="45.78479594695324" lon="14.032786882021389"><ele>960.75</ele><time>2026-05-01T13:56:27.001Z</time></trkpt><trkpt lat="45.784663256587564" lon="14.032867803507699"><ele>966.0</ele><time>2026-05-01T13:56:28.001Z</time></trkpt><trkpt lat="45.78451157017783" lon="14.032940322865143"><ele>966.0</ele><time>2026-05-01T13:56:29.001Z</time></trkpt><trkpt lat="45.784355824797956" lon="14.032999853884053"><ele>966.0</ele><time>2026-05-01T13:56:30.001Z</time></trkpt><trkpt lat="45.78422940715385" lon="14.033066961498333"><ele>966.0</ele><time>2026-05-01T13:56:31.001Z</time></trkpt><trkpt lat="45.78411440500006" lon="14.033135797463693"><ele>966.0</ele><time>2026-05-01T13:56:32.001Z</time></trkpt><trkpt lat="45.784004006643464" lon="14.033211943433457"><ele>972.25</ele><time>2026-05-01T13:56:33.001Z</time></trkpt><trkpt lat="45.78390701707645" lon="14.033321665514498"><ele>978.5</ele><time>2026-05-01T13:56:34.001Z</time></trkpt><trkpt lat="45.78380867289905" lon="14.033421484878913"><ele>984.75</ele><time>2026-05-01T13:56:35.001Z</time></trkpt><trkpt lat="45.78370025758173" lon="14.033502729396615"><ele>991.0</ele><time>2026-05-01T13:56:36.001Z</time></trkpt><trkpt lat="45.783602073930744" lon="14.033586427319806"><ele>989.8</ele><time>2026-05-01T13:56:37.001Z</time></trkpt><trkpt lat="45.78350683345043" lon="14.033663935406933"><ele>988.5999999999999</ele><time>2026-05-01T13:56:38.001Z</time></trkpt><trkpt lat="45.783427384639225" lon="14.033732020202281"><ele>987.4</ele><time>2026-05-01T13:56:39.001Z</time></trkpt><trkpt lat="45.783368414317074" lon="14.033802878873725"><ele>986.2</ele><time>2026-05-01T13:56:40.001Z</time></trkpt><trkpt lat="45.7833244190571" lon="14.033872769204612"><ele>985.0</ele><time>2026-05-01T13:56:41.001Z</time></trkpt><trkpt lat="45.78331435801572" lon="14.034037923746688"><ele>985.0</ele><time>2026-05-01T13:56:43.001Z</time></trkpt><trkpt lat="45.78339898661769" lon="14.034124036331354"><ele>985.0</ele><time>2026-05-01T13:56:44.001Z</time></trkpt><trkpt lat="45.78350535512791" lon="14.034134526459052"><ele>985.0</ele><time>2026-05-01T13:56:45.001Z</time></trkpt><trkpt lat="45.78360930104931" lon="14.034166042831082"><ele>985.0</ele><time>2026-05-01T13:56:46.001Z</time></trkpt><trkpt lat="45.78371532710702" lon="14.03420856480967"><ele>985.0</ele><time>2026-05-01T13:56:47.001Z</time></trkpt><trkpt lat="45.783785718533025" lon="14.03424777836118"><ele>988.4285714285714</ele><time>2026-05-01T13:56:48.001Z</time></trkpt><trkpt lat="45.7838470492079" lon="14.034306303147096"><ele>991.8571428571429</ele><time>2026-05-01T13:56:49.001Z</time></trkpt><trkpt lat="45.78388124104491" lon="14.034400658586364"><ele>995.2857142857143</ele><time>2026-05-01T13:56:50.001Z</time></trkpt><trkpt lat="45.783889146753324" lon="14.034502178623596"><ele>998.7142857142858</ele><time>2026-05-01T13:56:51.001Z</time></trkpt><trkpt lat="45.783889312636994" lon="14.034618249796997"><ele>1002.1428571428571</ele><time>2026-05-01T13:56:52.001Z</time></trkpt><trkpt lat="45.783879477606966" lon="14.034709821997907"><ele>1005.5714285714287</ele><time>2026-05-01T13:56:53.001Z</time></trkpt><trkpt lat="45.78389735155" lon="14.034819405096215"><ele>1009.0</ele><time>2026-05-01T13:56:55.001Z</time></trkpt><trkpt lat="45.78393867826623" lon="14.034946988335284"><ele>1011.8333333333333</ele><time>2026-05-01T13:56:57Z</time></trkpt><trkpt lat="45.78398210019486" lon="14.035020876428465"><ele>1014.6666666666666</ele><time>2026-05-01T13:56:58Z</time></trkpt><trkpt lat="45.78404254591041" lon="14.035093415961828"><ele>1017.5</ele><time>2026-05-01T13:56:59Z</time></trkpt><trkpt lat="45.78411158962817" lon="14.035148328252083"><ele>1020.3333333333333</ele><time>2026-05-01T13:57:00Z</time></trkpt><trkpt lat="45.78419901390374" lon="14.035208676943421"><ele>1023.1666666666666</ele><time>2026-05-01T13:57:02Z</time></trkpt><trkpt lat="45.784235512788435" lon="14.035283939824465"><ele>1026.0</ele><time>2026-05-01T13:57:40Z</time></trkpt><trkpt lat="45.784179520071724" lon="14.035346475429858"><ele>1026.0</ele><time>2026-05-01T13:57:42Z</time></trkpt><trkpt lat="45.78407195309091" lon="14.035281528227856"><ele>1026.0</ele><time>2026-05-01T13:57:44Z</time></trkpt><trkpt lat="45.78401311375539" lon="14.035224370476659"><ele>1026.0</ele><time>2026-05-01T13:57:45Z</time></trkpt><trkpt lat="45.78393734942305" lon="14.03517360985915"><ele>1026.0</ele><time>2026-05-01T13:57:46Z</time></trkpt><trkpt lat="45.78384898463884" lon="14.035128388947285"><ele>1026.0</ele><time>2026-05-01T13:57:47Z</time></trkpt><trkpt lat="45.78375454355946" lon="14.03508941674834"><ele>1026.0</ele><time>2026-05-01T13:57:48Z</time></trkpt><trkpt lat="45.78367152021541" lon="14.035065900287602"><ele>1026.0</ele><time>2026-05-01T13:57:49Z</time></trkpt><trkpt lat="45.78359355247238" lon="14.035052056773088"><ele>1026.0</ele><time>2026-05-01T13:57:50Z</time></trkpt><trkpt lat="45.783509203895186" lon="14.035048613628737"><ele>1026.0</ele><time>2026-05-01T13:57:51Z</time></trkpt><trkpt lat="45.78343709679009" lon="14.035048613630053"><ele>1026.0</ele><time>2026-05-01T13:57:52Z</time></trkpt><trkpt lat="45.7833229774566" lon="14.035159408901283"><ele>1025.8</ele><time>2026-05-01T13:57:54Z</time></trkpt><trkpt lat="45.783259507621594" lon="14.035195931780976"><ele>1025.6</ele><time>2026-05-01T13:57:55Z</time></trkpt><trkpt lat="45.78319834014134" lon="14.035258153075432"><ele>1025.4</ele><time>2026-05-01T13:57:56Z</time></trkpt><trkpt lat="45.78311991778363" lon="14.035341775665152"><ele>1025.2</ele><time>2026-05-01T13:57:57Z</time></trkpt><trkpt lat="45.783044373779454" lon="14.03546870046422"><ele>1025.0</ele><time>2026-05-01T13:57:58Z</time></trkpt><trkpt lat="45.782956252346686" lon="14.035574615248667"><ele>1025.0</ele><time>2026-05-01T13:57:59Z</time></trkpt><trkpt lat="45.78288838768096" lon="14.035680088682835"><ele>1025.0</ele><time>2026-05-01T13:58:00Z</time></trkpt><trkpt lat="45.78284487537403" lon="14.035754009624984"><ele>1025.0</ele><time>2026-05-01T13:58:01Z</time></trkpt><trkpt lat="45.782786469047444" lon="14.035842574554165"><ele>1025.0</ele><time>2026-05-01T13:58:03.001Z</time></trkpt><trkpt lat="45.782725010198654" lon="14.035898188333354"><ele>1025.0</ele><time>2026-05-01T13:58:05.001Z</time></trkpt><trkpt lat="45.78263333142346" lon="14.035917610211431"><ele>1025.0</ele><time>2026-05-01T13:58:07.001Z</time></trkpt><trkpt lat="45.78251540782864" lon="14.035969293004186"><ele>1027.6</ele><time>2026-05-01T13:58:09.001Z</time></trkpt><trkpt lat="45.78243266399978" lon="14.035965804568594"><ele>1030.2</ele><time>2026-05-01T13:58:10.001Z</time></trkpt><trkpt lat="45.78236677474078" lon="14.035979712794731"><ele>1032.8</ele><time>2026-05-01T13:58:11.001Z</time></trkpt><trkpt lat="45.782195609666424" lon="14.036020538328458"><ele>1035.4</ele><time>2026-05-01T13:58:13.001Z</time></trkpt><trkpt lat="45.78211234855193" lon="14.036045760359222"><ele>1038.0</ele><time>2026-05-01T13:58:14.001Z</time></trkpt><trkpt lat="45.78203608889282" lon="14.036093611675271"><ele>1038.0</ele><time>2026-05-01T13:58:15.001Z</time></trkpt><trkpt lat="45.78195673721617" lon="14.036119919834524"><ele>1038.0</ele><time>2026-05-01T13:58:16.001Z</time></trkpt><trkpt lat="45.78186700672661" lon="14.036127844363165"><ele>1038.0</ele><time>2026-05-01T13:58:17.001Z</time></trkpt><trkpt lat="45.78177624384165" lon="14.036159097942761"><ele>1038.0</ele><time>2026-05-01T13:58:18.001Z</time></trkpt><trkpt lat="45.78169650730992" lon="14.036186824902595"><ele>1038.0</ele><time>2026-05-01T13:58:19.001Z</time></trkpt><trkpt lat="45.781598422780036" lon="14.036220932051119"><ele>1038.0</ele><time>2026-05-01T13:58:20.001Z</time></trkpt><trkpt lat="45.78147629664159" lon="14.036263399244687"><ele>1037.75</ele><time>2026-05-01T13:58:21.001Z</time></trkpt><trkpt lat="45.781336315669265" lon="14.036312075134358"><ele>1037.5</ele><time>2026-05-01T13:58:22.001Z</time></trkpt><trkpt lat="45.78121267426915" lon="14.036354293516995"><ele>1037.25</ele><time>2026-05-01T13:58:23.001Z</time></trkpt><trkpt lat="45.78110321159341" lon="14.03641488791703"><ele>1037.0</ele><time>2026-05-01T13:58:24.001Z</time></trkpt><trkpt lat="45.78099765488512" lon="14.036422870486188"><ele>1037.0</ele><time>2026-05-01T13:58:25.001Z</time></trkpt><trkpt lat="45.780920296480225" lon="14.036467450013054"><ele>1037.0</ele><time>2026-05-01T13:58:26.001Z</time></trkpt><trkpt lat="45.78084579361216" lon="14.036480010672747"><ele>1037.0</ele><time>2026-05-01T13:58:27.001Z</time></trkpt><trkpt lat="45.780783644593406" lon="14.036502113892157"><ele>1037.0</ele><time>2026-05-01T13:58:28.001Z</time></trkpt><trkpt lat="45.780717307138296" lon="14.036505631366035"><ele>1037.0</ele><time>2026-05-01T13:58:29.001Z</time></trkpt><trkpt lat="45.7806274285754" lon="14.036538760186884"><ele>1037.0</ele><time>2026-05-01T13:58:31.001Z</time></trkpt><trkpt lat="45.780554147659025" lon="14.036570252553538"><ele>1037.0</ele><time>2026-05-01T13:58:33.001Z</time></trkpt><trkpt lat="45.780460097120944" lon="14.036616998383222"><ele>1037.0</ele><time>2026-05-01T13:58:35.001Z</time></trkpt><trkpt lat="45.78037729202845" lon="14.036664011529137"><ele>1037.0</ele><time>2026-05-01T13:58:37.001Z</time></trkpt><trkpt lat="45.78026964852798" lon="14.036730315628969"><ele>1037.0</ele><time>2026-05-01T13:58:39.001Z</time></trkpt><trkpt lat="45.7802018375131" lon="14.036773570866274"><ele>1037.0</ele><time>2026-05-01T13:58:40.001Z</time></trkpt><trkpt lat="45.78009747010282" lon="14.036864148818001"><ele>1037.1666666666667</ele><time>2026-05-01T13:58:42.001Z</time></trkpt><trkpt lat="45.77999918599946" lon="14.036912747777981"><ele>1037.3333333333335</ele><time>2026-05-01T13:58:44.001Z</time></trkpt><trkpt lat="45.77989164061258" lon="14.036968289502987"><ele>1037.5</ele><time>2026-05-01T13:58:46.001Z</time></trkpt><trkpt lat="45.77983644672986" lon="14.037021939182203"><ele>1037.6666666666667</ele><time>2026-05-01T13:58:47.001Z</time></trkpt><trkpt lat="45.77976534540831" lon="14.03706997309759"><ele>1037.8333333333333</ele><time>2026-05-01T13:58:48.001Z</time></trkpt><trkpt lat="45.77969914454724" lon="14.037108738823635"><ele>1038.0</ele><time>2026-05-01T13:58:49.001Z</time></trkpt><trkpt lat="45.77964041116438" lon="14.03714540760429"><ele>1038.0</ele><time>2026-05-01T13:58:50.001Z</time></trkpt><trkpt lat="45.779578959253904" lon="14.037181968201129"><ele>1038.0</ele><time>2026-05-01T13:58:51.001Z</time></trkpt><trkpt lat="45.77945107179045" lon="14.037234369820306"><ele>1038.0</ele><time>2026-05-01T13:58:53.001Z</time></trkpt><trkpt lat="45.77934828276826" lon="14.037262357368013"><ele>1038.0</ele><time>2026-05-01T13:58:55.001Z</time></trkpt><trkpt lat="45.77925574450451" lon="14.037219458329758"><ele>1038.0</ele><time>2026-05-01T13:58:57.001Z</time></trkpt><trkpt lat="45.7791999638685" lon="14.037079522962834"><ele>1036.8</ele><time>2026-05-01T13:58:59.001Z</time></trkpt><trkpt lat="45.77913416342496" lon="14.03696818741576"><ele>1035.6</ele><time>2026-05-01T13:59:01.001Z</time></trkpt><trkpt lat="45.77909776296158" lon="14.036892332867467"><ele>1034.4</ele><time>2026-05-01T13:59:02Z</time></trkpt><trkpt lat="45.77904602538002" lon="14.036741758816202"><ele>1033.2</ele><time>2026-05-01T13:59:04Z</time></trkpt><trkpt lat="45.779007047472504" lon="14.036640999098829"><ele>1032.0</ele><time>2026-05-01T13:59:06Z</time></trkpt><trkpt lat="45.7790997310461" lon="14.036587611454227"><ele>1033.2</ele><time>2026-05-01T13:59:08Z</time></trkpt><trkpt lat="45.77920986993271" lon="14.036556396761641"><ele>1034.4</ele><time>2026-05-01T13:59:10Z</time></trkpt><trkpt lat="45.77931582234666" lon="14.036603250420141"><ele>1035.6</ele><time>2026-05-01T13:59:12Z</time></trkpt><trkpt lat="45.779413151191406" lon="14.036671730441494"><ele>1036.8</ele><time>2026-05-01T13:59:14Z</time></trkpt><trkpt lat="45.77949239428976" lon="14.036668041969907"><ele>1038.0</ele><time>2026-05-01T13:59:16Z</time></trkpt><trkpt lat="45.77953342243659" lon="14.036593333718107"><ele>1035.0</ele><time>2026-05-01T13:59:17Z</time></trkpt><trkpt lat="45.77952464194123" lon="14.03649180780337"><ele>1032.0</ele><time>2026-05-01T13:59:18Z</time></trkpt><trkpt lat="45.77950015769874" lon="14.036405496860862"><ele>1029.0</ele><time>2026-05-01T13:59:19Z</time></trkpt><trkpt lat="45.77948180597396" lon="14.036314004143287"><ele>1026.0</ele><time>2026-05-01T13:59:20Z</time></trkpt><trkpt lat="45.77944280000015" lon="14.036157479900442"><ele>1023.0</ele><time>2026-05-01T13:59:22Z</time></trkpt><trkpt lat="45.779409272601995" lon="14.036056337228102"><ele>1020.0</ele><time>2026-05-01T13:59:24Z</time></trkpt><trkpt lat="45.77936732705024" lon="14.035958242888247"><ele>1020.1666666666666</ele><time>2026-05-01T13:59:26Z</time></trkpt><trkpt lat="45.77932370996752" lon="14.035889536283275"><ele>1020.3333333333333</ele><time>2026-05-01T13:59:31Z</time></trkpt><trkpt lat="45.77929568187614" lon="14.036006114282166"><ele>1020.5</ele><time>2026-05-01T14:01:48Z</time></trkpt><trkpt lat="45.77923533350717" lon="14.035955479173278"><ele>1020.6666666666666</ele><time>2026-05-01T14:02:20Z</time></trkpt><trkpt lat="45.77916816476031" lon="14.03595546180691"><ele>1020.8333333333333</ele><time>2026-05-01T14:02:26.001Z</time></trkpt><trkpt lat="45.77923059438269" lon="14.035975433250222"><ele>1021.0</ele><time>2026-05-01T14:03:28Z</time></trkpt><trkpt lat="45.77932388748174" lon="14.036069069620874"><ele>1020.9999999999999</ele><time>2026-05-01T14:07:07.001Z</time></trkpt><trkpt lat="45.77940226830517" lon="14.036138522056893"><ele>1021.0</ele><time>2026-05-01T14:07:09.001Z</time></trkpt><trkpt lat="45.779433808822866" lon="14.036245150440099"><ele>1021.0</ele><time>2026-05-01T14:07:12.001Z</time></trkpt><trkpt lat="45.77943631870889" lon="14.036341173608214"><ele>1021.0</ele><time>2026-05-01T14:07:14.001Z</time></trkpt><trkpt lat="45.77948002796601" lon="14.036493173095856"><ele>1020.9999999999999</ele><time>2026-05-01T14:07:16.001Z</time></trkpt><trkpt lat="45.77948650577395" lon="14.036628831806407"><ele>1021.0</ele><time>2026-05-01T14:07:18.001Z</time></trkpt><trkpt lat="45.77934960181038" lon="14.03659598726478"><ele>1021.0</ele><time>2026-05-01T14:07:21.001Z</time></trkpt><trkpt lat="45.77923806106362" lon="14.036535029863735"><ele>1020.9999999999999</ele><time>2026-05-01T14:07:23.001Z</time></trkpt><trkpt lat="45.77916402383274" lon="14.036514556473742"><ele>1020.9999999999999</ele><time>2026-05-01T14:07:24.001Z</time></trkpt><trkpt lat="45.77904790637513" lon="14.036581607073641"><ele>1021.0</ele><time>2026-05-01T14:07:26.001Z</time></trkpt><trkpt lat="45.7789690876421" lon="14.036642267433173"><ele>1021.0</ele><time>2026-05-01T14:07:28.001Z</time></trkpt><trkpt lat="45.77900225020853" lon="14.036738324875769"><ele>1022.8333333333333</ele><time>2026-05-01T14:07:30.001Z</time></trkpt><trkpt lat="45.77903825148335" lon="14.03681336462969"><ele>1024.6666666666665</ele><time>2026-05-01T14:07:32.001Z</time></trkpt><trkpt lat="45.77907263580319" lon="14.036904798270607"><ele>1026.5</ele><time>2026-05-01T14:07:34.001Z</time></trkpt><trkpt lat="45.7791276710584" lon="14.037010610715635"><ele>1028.3333333333333</ele><time>2026-05-01T14:07:36.001Z</time></trkpt><trkpt lat="45.77919218730966" lon="14.037117587073558"><ele>1030.1666666666667</ele><time>2026-05-01T14:07:38.001Z</time></trkpt><trkpt lat="45.77924954383429" lon="14.037240444758915"><ele>1032.0</ele><time>2026-05-01T14:07:40.001Z</time></trkpt><trkpt lat="45.77933649114354" lon="14.037309706073973"><ele>1033.2</ele><time>2026-05-01T14:07:42.001Z</time></trkpt><trkpt lat="45.77945122151084" lon="14.037262432830447"><ele>1034.4</ele><time>2026-05-01T14:07:44.001Z</time></trkpt><trkpt lat="45.77955920305372" lon="14.037223737008269"><ele>1035.6</ele><time>2026-05-01T14:07:46.001Z</time></trkpt><trkpt lat="45.77965579239177" lon="14.03715047522777"><ele>1036.8</ele><time>2026-05-01T14:07:48.001Z</time></trkpt><trkpt lat="45.779715713225066" lon="14.037113794370924"><ele>1038.0</ele><time>2026-05-01T14:07:49.001Z</time></trkpt><trkpt lat="45.779795173230106" lon="14.037067850266492"><ele>1038.0</ele><time>2026-05-01T14:07:50.001Z</time></trkpt><trkpt lat="45.77987472358724" lon="14.037016443131204"><ele>1038.0</ele><time>2026-05-01T14:07:51.001Z</time></trkpt><trkpt lat="45.77995083729678" lon="14.036969005022556"><ele>1038.0</ele><time>2026-05-01T14:07:52.001Z</time></trkpt><trkpt lat="45.78002576648441" lon="14.036927419975056"><ele>1038.0</ele><time>2026-05-01T14:07:53.001Z</time></trkpt><trkpt lat="45.7801091436733" lon="14.036877165162087"><ele>1038.0</ele><time>2026-05-01T14:07:54.001Z</time></trkpt><trkpt lat="45.780181593213754" lon="14.03683564490641"><ele>1038.0</ele><time>2026-05-01T14:07:55.001Z</time></trkpt><trkpt lat="45.780248321466956" lon="14.036795619482014"><ele>1037.8333333333333</ele><time>2026-05-01T14:07:56.001Z</time></trkpt><trkpt lat="45.78032448330904" lon="14.03674310471718"><ele>1037.6666666666667</ele><time>2026-05-01T14:07:57.001Z</time></trkpt><trkpt lat="45.78040037246624" lon="14.036701416682103"><ele>1037.5</ele><time>2026-05-01T14:07:58.001Z</time></trkpt><trkpt lat="45.78048602839424" lon="14.036651882071839"><ele>1037.3333333333335</ele><time>2026-05-01T14:07:59.001Z</time></trkpt><trkpt lat="45.78056830309696" lon="14.036615359487378"><ele>1037.1666666666667</ele><time>2026-05-01T14:08:00.001Z</time></trkpt><trkpt lat="45.78065079680662" lon="14.036576284749259"><ele>1037.0</ele><time>2026-05-01T14:08:01.001Z</time></trkpt><trkpt lat="45.78074531974447" lon="14.03653494445837"><ele>1037.0</ele><time>2026-05-01T14:08:02.001Z</time></trkpt><trkpt lat="45.780840450178616" lon="14.036501543700824"><ele>1037.0</ele><time>2026-05-01T14:08:03.001Z</time></trkpt><trkpt lat="45.780935973610326" lon="14.03647340417134"><ele>1037.0</ele><time>2026-05-01T14:08:04.001Z</time></trkpt><trkpt lat="45.78102585682917" lon="14.03644455875678"><ele>1037.0</ele><time>2026-05-01T14:08:05.001Z</time></trkpt><trkpt lat="45.78112015359954" lon="14.036417150980883"><ele>1037.0</ele><time>2026-05-01T14:08:06.001Z</time></trkpt><trkpt lat="45.78121805484093" lon="14.03638539972127"><ele>1038.2</ele><time>2026-05-01T14:08:07.001Z</time></trkpt><trkpt lat="45.781308365223374" lon="14.036354258584364"><ele>1039.4</ele><time>2026-05-01T14:08:08.001Z</time></trkpt><trkpt lat="45.78140045496904" lon="14.036323167381775"><ele>1040.6</ele><time>2026-05-01T14:08:09.001Z</time></trkpt><trkpt lat="45.781497488646856" lon="14.036307184167399"><ele>1041.8</ele><time>2026-05-01T14:08:10.001Z</time></trkpt><trkpt lat="45.78158819271983" lon="14.036271321638019"><ele>1043.0</ele><time>2026-05-01T14:08:11.001Z</time></trkpt><trkpt lat="45.78166924150773" lon="14.036249455341895"><ele>1043.0</ele><time>2026-05-01T14:08:12.001Z</time></trkpt><trkpt lat="45.78175095228602" lon="14.03622382153433"><ele>1043.0</ele><time>2026-05-01T14:08:13.001Z</time></trkpt><trkpt lat="45.781840774490696" lon="14.036191902764916"><ele>1043.0</ele><time>2026-05-01T14:08:14.001Z</time></trkpt><trkpt lat="45.78193413089868" lon="14.036164371441888"><ele>1043.0</ele><time>2026-05-01T14:08:15.001Z</time></trkpt><trkpt lat="45.782013743269545" lon="14.036122189808866"><ele>1043.0</ele><time>2026-05-01T14:08:16.001Z</time></trkpt><trkpt lat="45.78208406470256" lon="14.036093903733303"><ele>1043.0</ele><time>2026-05-01T14:08:17.001Z</time></trkpt><trkpt lat="45.78214606043508" lon="14.036070377100755"><ele>1042.0</ele><time>2026-05-01T14:08:18.001Z</time></trkpt><trkpt lat="45.78223325457724" lon="14.036048895605983"><ele>1041.0</ele><time>2026-05-01T14:08:19.001Z</time></trkpt><trkpt lat="45.78231135673239" lon="14.036046075154244"><ele>1040.0</ele><time>2026-05-01T14:08:20.001Z</time></trkpt><trkpt lat="45.78240335078918" lon="14.03600508879463"><ele>1039.0</ele><time>2026-05-01T14:08:21.001Z</time></trkpt><trkpt lat="45.78248985398356" lon="14.03600181922696"><ele>1038.0</ele><time>2026-05-01T14:08:22.001Z</time></trkpt><trkpt lat="45.782620577172835" lon="14.035970080083551"><ele>1038.3333333333333</ele><time>2026-05-01T14:08:24.001Z</time></trkpt><trkpt lat="45.78271167924935" lon="14.035917103149695"><ele>1038.6666666666667</ele><time>2026-05-01T14:08:26.001Z</time></trkpt><trkpt lat="45.78278886557055" lon="14.035877591288978"><ele>1039.0</ele><time>2026-05-01T14:08:28.001Z</time></trkpt><trkpt lat="45.78283736034579" lon="14.03581018525891"><ele>1039.3333333333335</ele><time>2026-05-01T14:08:30.001Z</time></trkpt><trkpt lat="45.78289114844733" lon="14.035732898173775"><ele>1039.6666666666667</ele><time>2026-05-01T14:08:51.001Z</time></trkpt><trkpt lat="45.78294323933593" lon="14.035629112527655"><ele>1040.0</ele><time>2026-05-01T14:08:54.001Z</time></trkpt><trkpt lat="45.7830013551228" lon="14.035544306292714"><ele>1037.5</ele><time>2026-05-01T14:08:56.001Z</time></trkpt><trkpt lat="45.78306566285063" lon="14.03547053026539"><ele>1035.0</ele><time>2026-05-01T14:08:58.001Z</time></trkpt><trkpt lat="45.78312864841152" lon="14.035391971246488"><ele>1032.5</ele><time>2026-05-01T14:09:00.001Z</time></trkpt><trkpt lat="45.7832090786488" lon="14.03530505476818"><ele>1030.0</ele><time>2026-05-01T14:09:02.001Z</time></trkpt><trkpt lat="45.78328242328327" lon="14.03522158018229"><ele>1027.5</ele><time>2026-05-01T14:09:04.001Z</time></trkpt><trkpt lat="45.78334763458784" lon="14.035160756725828"><ele>1025.0</ele><time>2026-05-01T14:09:06.001Z</time></trkpt><trkpt lat="45.78341649826692" lon="14.035118458697717"><ele>1025.0</ele><time>2026-05-01T14:09:08.001Z</time></trkpt><trkpt lat="45.78348367152741" lon="14.035124105202817"><ele>1025.0</ele><time>2026-05-01T14:09:10.001Z</time></trkpt><trkpt lat="45.78355779618214" lon="14.035117814210771"><ele>1025.0</ele><time>2026-05-01T14:09:12.001Z</time></trkpt><trkpt lat="45.78365079776884" lon="14.035129201252524"><ele>1025.0</ele><time>2026-05-01T14:09:14.001Z</time></trkpt><trkpt lat="45.78375804393534" lon="14.03515655193685"><ele>1025.0</ele><time>2026-05-01T14:09:16.001Z</time></trkpt><trkpt lat="45.78386770557342" lon="14.03520332932502"><ele>1025.1666666666667</ele><time>2026-05-01T14:09:18.001Z</time></trkpt><trkpt lat="45.78397971044237" lon="14.035256438670123"><ele>1025.3333333333335</ele><time>2026-05-01T14:09:20.001Z</time></trkpt><trkpt lat="45.784076426563885" lon="14.035333238545308"><ele>1025.5</ele><time>2026-05-01T14:09:22.001Z</time></trkpt><trkpt lat="45.78414737277393" lon="14.0353497419134"><ele>1025.6666666666667</ele><time>2026-05-01T14:09:24.001Z</time></trkpt><trkpt lat="45.78422634801919" lon="14.035363176789515"><ele>1025.8333333333333</ele><time>2026-05-01T14:09:26.001Z</time></trkpt><trkpt lat="45.784278457114965" lon="14.035306704469726"><ele>1026.0</ele><time>2026-05-01T14:09:28.001Z</time></trkpt><trkpt lat="45.78437134127942" lon="14.035326088441536"><ele>1026.0</ele><time>2026-05-01T14:09:32Z</time></trkpt><trkpt lat="45.784467851630616" lon="14.035424702812524"><ele>1026.0</ele><time>2026-05-01T14:09:34Z</time></trkpt><trkpt lat="45.78451196965207" lon="14.035499709424062"><ele>1026.0</ele><time>2026-05-01T14:09:35Z</time></trkpt><trkpt lat="45.78455754418345" lon="14.035580953942928"><ele>1026.0</ele><time>2026-05-01T14:09:36Z</time></trkpt><trkpt lat="45.78460763086699" lon="14.035667677292295"><ele>1026.0</ele><time>2026-05-01T14:09:37Z</time></trkpt><trkpt lat="45.784641239921164" lon="14.035770253020946"><ele>1026.0</ele><time>2026-05-01T14:09:38Z</time></trkpt><trkpt lat="45.78463899583788" lon="14.035889525053092"><ele>1029.0</ele><time>2026-05-01T14:09:39Z</time></trkpt><trkpt lat="45.7845765840321" lon="14.036030108949744"><ele>1032.0</ele><time>2026-05-01T14:09:40Z</time></trkpt><trkpt lat="45.78450451985626" lon="14.036197617515047"><ele>1035.0</ele><time>2026-05-01T14:09:41Z</time></trkpt><trkpt lat="45.78443971663714" lon="14.03635827084137"><ele>1038.0</ele><time>2026-05-01T14:09:42Z</time></trkpt><trkpt lat="45.78436663670246" lon="14.03652942456618"><ele>1039.8</ele><time>2026-05-01T14:09:43Z</time></trkpt><trkpt lat="45.784297293033624" lon="14.036676128127054"><ele>1041.6</ele><time>2026-05-01T14:09:44Z</time></trkpt><trkpt lat="45.78425140213432" lon="14.036787094649693"><ele>1043.4</ele><time>2026-05-01T14:09:45Z</time></trkpt><trkpt lat="45.78423179846502" lon="14.03688167326703"><ele>1045.2</ele><time>2026-05-01T14:09:46Z</time></trkpt><trkpt lat="45.78418715700619" lon="14.037031556117373"><ele>1047.0</ele><time>2026-05-01T14:09:48Z</time></trkpt><trkpt lat="45.7842416449425" lon="14.037221320217826"><ele>1047.0</ele><time>2026-05-01T14:09:50Z</time></trkpt><trkpt lat="45.78427809783629" lon="14.037351357332819"><ele>1047.0</ele><time>2026-05-01T14:09:51Z</time></trkpt><trkpt lat="45.78432835705607" lon="14.037510925306314"><ele>1047.0</ele><time>2026-05-01T14:09:52Z</time></trkpt><trkpt lat="45.7843654864577" lon="14.037662191508948"><ele>1047.0</ele><time>2026-05-01T14:09:53Z</time></trkpt><trkpt lat="45.78438238452206" lon="14.037793027979726"><ele>1047.0</ele><time>2026-05-01T14:09:54Z</time></trkpt><trkpt lat="45.78439322575993" lon="14.037933709280717"><ele>1048.2</ele><time>2026-05-01T14:09:55Z</time></trkpt><trkpt lat="45.78440674268262" lon="14.038078780994988"><ele>1049.4</ele><time>2026-05-01T14:09:56Z</time></trkpt><trkpt lat="45.784420501198476" lon="14.038210689724364"><ele>1050.6</ele><time>2026-05-01T14:09:57Z</time></trkpt><trkpt lat="45.78440043080727" lon="14.038330965389548"><ele>1051.8</ele><time>2026-05-01T14:09:58Z</time></trkpt><trkpt lat="45.78437884135529" lon="14.03845670015935"><ele>1053.0</ele><time>2026-05-01T14:09:59Z</time></trkpt><trkpt lat="45.78433710462369" lon="14.038590487491943"><ele>1053.0</ele><time>2026-05-01T14:10:00Z</time></trkpt><trkpt lat="45.78428457472605" lon="14.03875019088269"><ele>1053.0</ele><time>2026-05-01T14:10:01Z</time></trkpt><trkpt lat="45.784178338769415" lon="14.038877702535348"><ele>1053.0</ele><time>2026-05-01T14:10:02Z</time></trkpt><trkpt lat="45.78407388684998" lon="14.039030669023106"><ele>1053.0</ele><time>2026-05-01T14:10:03Z</time></trkpt><trkpt lat="45.78396551986151" lon="14.039191244523847"><ele>1057.75</ele><time>2026-05-01T14:10:04Z</time></trkpt><trkpt lat="45.7838440160929" lon="14.039268343800368"><ele>1062.5</ele><time>2026-05-01T14:10:05Z</time></trkpt><trkpt lat="45.783744378958794" lon="14.0393348308341"><ele>1067.25</ele><time>2026-05-01T14:10:06Z</time></trkpt><trkpt lat="45.78361944722713" lon="14.03941172993378"><ele>1072.0</ele><time>2026-05-01T14:10:07Z</time></trkpt><trkpt lat="45.78348218878453" lon="14.039497757521845"><ele>1072.0</ele><time>2026-05-01T14:10:08Z</time></trkpt><trkpt lat="45.78336088102793" lon="14.039582520660948"><ele>1072.0</ele><time>2026-05-01T14:10:10Z</time></trkpt><trkpt lat="45.78327082952095" lon="14.039605941516536"><ele>1072.0</ele><time>2026-05-01T14:10:11Z</time></trkpt><trkpt lat="45.78318706172455" lon="14.039675362808387"><ele>1072.0</ele><time>2026-05-01T14:10:12Z</time></trkpt><trkpt lat="45.783090071927816" lon="14.039763920126777"><ele>1072.0</ele><time>2026-05-01T14:10:13Z</time></trkpt><trkpt lat="45.78298390408607" lon="14.03989390050821"><ele>1075.75</ele><time>2026-05-01T14:10:14Z</time></trkpt><trkpt lat="45.782863775005126" lon="14.04003755792133"><ele>1079.5</ele><time>2026-05-01T14:10:15Z</time></trkpt><trkpt lat="45.78275366430582" lon="14.040142840564583"><ele>1083.25</ele><time>2026-05-01T14:10:16Z</time></trkpt><trkpt lat="45.78264616930106" lon="14.040246464333478"><ele>1087.0</ele><time>2026-05-01T14:10:17Z</time></trkpt><trkpt lat="45.78257033142289" lon="14.040324159160985"><ele>1087.0</ele><time>2026-05-01T14:10:18Z</time></trkpt><trkpt lat="45.78248078223003" lon="14.0404356758113"><ele>1087.0</ele><time>2026-05-01T14:10:19Z</time></trkpt><trkpt lat="45.7823793776106" lon="14.040578720346366"><ele>1087.0</ele><time>2026-05-01T14:10:20Z</time></trkpt><trkpt lat="45.782267337832934" lon="14.04071815705743"><ele>1087.0</ele><time>2026-05-01T14:10:21Z</time></trkpt><trkpt lat="45.78216190909179" lon="14.040863570289067"><ele>1090.0</ele><time>2026-05-01T14:10:22Z</time></trkpt><trkpt lat="45.78205206833793" lon="14.041017089319094"><ele>1093.0</ele><time>2026-05-01T14:10:23Z</time></trkpt><trkpt lat="45.781940323713705" lon="14.04121225294858"><ele>1096.0</ele><time>2026-05-01T14:10:24Z</time></trkpt><trkpt lat="45.78182286444908" lon="14.041425434074084"><ele>1096.0</ele><time>2026-05-01T14:10:25Z</time></trkpt><trkpt lat="45.78170713593801" lon="14.041602514927334"><ele>1096.0</ele><time>2026-05-01T14:10:26Z</time></trkpt><trkpt lat="45.78157047209619" lon="14.041790542356692"><ele>1096.0</ele><time>2026-05-01T14:10:27Z</time></trkpt><trkpt lat="45.781459700676805" lon="14.041950827501296"><ele>1101.25</ele><time>2026-05-01T14:10:28Z</time></trkpt><trkpt lat="45.781369378085564" lon="14.042081298288677"><ele>1106.5</ele><time>2026-05-01T14:10:29Z</time></trkpt><trkpt lat="45.78127494353552" lon="14.042188704034288"><ele>1111.75</ele><time>2026-05-01T14:10:30Z</time></trkpt><trkpt lat="45.78116211671296" lon="14.042299805040884"><ele>1117.0</ele><time>2026-05-01T14:10:31Z</time></trkpt><trkpt lat="45.781019789529445" lon="14.042434249157075"><ele>1119.5</ele><time>2026-05-01T14:10:32Z</time></trkpt><trkpt lat="45.780902623424524" lon="14.042546092914428"><ele>1122.0</ele><time>2026-05-01T14:10:33Z</time></trkpt><trkpt lat="45.78080108965727" lon="14.042648887676542"><ele>1124.5</ele><time>2026-05-01T14:10:34Z</time></trkpt><trkpt lat="45.780721541961206" lon="14.042764103308093"><ele>1127.0</ele><time>2026-05-01T14:10:35Z</time></trkpt><trkpt lat="45.78064330981718" lon="14.042886620387318"><ele>1127.0</ele><time>2026-05-01T14:10:36Z</time></trkpt><trkpt lat="45.7805529108914" lon="14.043056572349478"><ele>1127.0</ele><time>2026-05-01T14:10:37Z</time></trkpt><trkpt lat="45.780453272591984" lon="14.043178395686574"><ele>1127.0</ele><time>2026-05-01T14:10:38Z</time></trkpt><trkpt lat="45.780377155574634" lon="14.043249861461645"><ele>1127.0</ele><time>2026-05-01T14:10:39Z</time></trkpt><trkpt lat="45.78028438754198" lon="14.043323455691272"><ele>1131.3333333333335</ele><time>2026-05-01T14:10:40Z</time></trkpt><trkpt lat="45.780167567436386" lon="14.04341403956132"><ele>1135.6666666666667</ele><time>2026-05-01T14:10:41Z</time></trkpt><trkpt lat="45.78001543126468" lon="14.043533152663334"><ele>1140.0</ele><time>2026-05-01T14:10:42Z</time></trkpt><trkpt lat="45.779856783176946" lon="14.043660726185546"><ele>1140.0</ele><time>2026-05-01T14:10:43Z</time></trkpt><trkpt lat="45.77970483323279" lon="14.043727270467008"><ele>1140.0</ele><time>2026-05-01T14:10:44Z</time></trkpt><trkpt lat="45.779605301563464" lon="14.043803833325908"><ele>1140.0</ele><time>2026-05-01T14:10:45Z</time></trkpt><trkpt lat="45.77952970513611" lon="14.043866507817839"><ele>1140.0</ele><time>2026-05-01T14:10:46Z</time></trkpt><trkpt lat="45.77947210692591" lon="14.043927721286535"><ele>1140.0</ele><time>2026-05-01T14:10:47Z</time></trkpt><trkpt lat="45.779416524874264" lon="14.044019175498155"><ele>1141.25</ele><time>2026-05-01T14:10:48Z</time></trkpt><trkpt lat="45.77938905907064" lon="14.044169441036056"><ele>1142.5</ele><time>2026-05-01T14:10:49Z</time></trkpt><trkpt lat="45.779349774195026" lon="14.04436598432804"><ele>1143.75</ele><time>2026-05-01T14:10:50Z</time></trkpt><trkpt lat="45.779319868097" lon="14.044557621305753"><ele>1145.0</ele><time>2026-05-01T14:10:51Z</time></trkpt><trkpt lat="45.77925349667032" lon="14.044654936305552"><ele>1145.0</ele><time>2026-05-01T14:10:52Z</time></trkpt><trkpt lat="45.779163097407626" lon="14.044795353902542"><ele>1145.0</ele><time>2026-05-01T14:10:54Z</time></trkpt><trkpt lat="45.77907672731355" lon="14.04491541521375"><ele>1145.0</ele><time>2026-05-01T14:10:55Z</time></trkpt><trkpt lat="45.77899700762563" lon="14.04501349935476"><ele>1145.0</ele><time>2026-05-01T14:10:56Z</time></trkpt><trkpt lat="45.778920492423" lon="14.045087535384916"><ele>1147.0</ele><time>2026-05-01T14:10:57Z</time></trkpt><trkpt lat="45.7788442802312" lon="14.045145292347613"><ele>1149.0</ele><time>2026-05-01T14:10:58Z</time></trkpt><trkpt lat="45.77877423147012" lon="14.045178708349502"><ele>1151.0</ele><time>2026-05-01T14:10:59Z</time></trkpt><trkpt lat="45.77870203766258" lon="14.04520015598628"><ele>1153.0</ele><time>2026-05-01T14:11:00Z</time></trkpt><trkpt lat="45.778627850124984" lon="14.045173674835317"><ele>1155.0</ele><time>2026-05-01T14:11:01Z</time></trkpt><trkpt lat="45.77855773442083" lon="14.045130261343276"><ele>1157.0</ele><time>2026-05-01T14:11:02Z</time></trkpt><trkpt lat="45.77852827730078" lon="14.04504459391541"><ele>1157.6</ele><time>2026-05-01T14:11:03Z</time></trkpt><trkpt lat="45.77838343368513" lon="14.044959312323892"><ele>1158.2</ele><time>2026-05-01T14:11:04Z</time></trkpt><trkpt lat="45.77826366804977" lon="14.044908460415025"><ele>1158.8</ele><time>2026-05-01T14:11:05Z</time></trkpt><trkpt lat="45.778181598464265" lon="14.044894694950482"><ele>1159.4</ele><time>2026-05-01T14:11:06Z</time></trkpt><trkpt lat="45.77811618846606" lon="14.044897516462342"><ele>1160.0</ele><time>2026-05-01T14:11:07Z</time></trkpt><trkpt lat="45.778041000647825" lon="14.044921812312712"><ele>1159.6</ele><time>2026-05-01T14:11:08Z</time></trkpt><trkpt lat="45.77795236971177" lon="14.044980358612067"><ele>1159.2</ele><time>2026-05-01T14:11:09Z</time></trkpt><trkpt lat="45.77785658646678" lon="14.045031664805924"><ele>1158.8</ele><time>2026-05-01T14:11:10Z</time></trkpt><trkpt lat="45.77774755390104" lon="14.045102844655249"><ele>1158.4</ele><time>2026-05-01T14:11:11Z</time></trkpt><trkpt lat="45.777643700693396" lon="14.045192801001592"><ele>1158.0</ele><time>2026-05-01T14:11:12Z</time></trkpt><trkpt lat="45.777552341297536" lon="14.04530038871477"><ele>1162.0</ele><time>2026-05-01T14:11:13Z</time></trkpt><trkpt lat="45.77747130543592" lon="14.04542527860783"><ele>1166.0</ele><time>2026-05-01T14:11:14Z</time></trkpt><trkpt lat="45.77736865657992" lon="14.045591808494466"><ele>1170.0</ele><time>2026-05-01T14:11:15Z</time></trkpt><trkpt lat="45.77723581417861" lon="14.0457702762804"><ele>1169.5</ele><time>2026-05-01T14:11:16Z</time></trkpt><trkpt lat="45.777132825133016" lon="14.045929572899547"><ele>1169.0</ele><time>2026-05-01T14:11:17Z</time></trkpt><trkpt lat="45.77704804303983" lon="14.046052291389106"><ele>1168.5</ele><time>2026-05-01T14:11:18Z</time></trkpt><trkpt lat="45.776989442600254" lon="14.046160055601126"><ele>1168.0</ele><time>2026-05-01T14:11:19Z</time></trkpt><trkpt lat="45.776948485651886" lon="14.046284797410664"><ele>1168.0</ele><time>2026-05-01T14:11:20Z</time></trkpt><trkpt lat="45.776918158191684" lon="14.046428444192712"><ele>1168.0</ele><time>2026-05-01T14:11:21Z</time></trkpt><trkpt lat="45.77689686498529" lon="14.04659816648583"><ele>1168.0</ele><time>2026-05-01T14:11:22Z</time></trkpt><trkpt lat="45.77687409576654" lon="14.04685754718247"><ele>1168.0</ele><time>2026-05-01T14:11:23Z</time></trkpt><trkpt lat="45.77685262251042" lon="14.047103092007559"><ele>1170.0</ele><time>2026-05-01T14:11:24Z</time></trkpt><trkpt lat="45.776830348408986" lon="14.047293219811335"><ele>1172.0</ele><time>2026-05-01T14:11:25Z</time></trkpt><trkpt lat="45.77679687575299" lon="14.047461780983838"><ele>1174.0</ele><time>2026-05-01T14:11:26Z</time></trkpt><trkpt lat="45.776733211995555" lon="14.04760202797304"><ele>1176.0</ele><time>2026-05-01T14:11:27Z</time></trkpt><trkpt lat="45.77667566378373" lon="14.047736157901817"><ele>1176.8</ele><time>2026-05-01T14:11:28Z</time></trkpt><trkpt lat="45.776608495395315" lon="14.047868802803146"><ele>1177.6</ele><time>2026-05-01T14:11:29Z</time></trkpt><trkpt lat="45.77653065780833" lon="14.047990044886225"><ele>1178.4</ele><time>2026-05-01T14:11:30Z</time></trkpt><trkpt lat="45.77645409537784" lon="14.04807302603554"><ele>1179.2</ele><time>2026-05-01T14:11:31Z</time></trkpt><trkpt lat="45.77638687294734" lon="14.048124024543677"><ele>1180.0</ele><time>2026-05-01T14:11:32Z</time></trkpt><trkpt lat="45.77632689010052" lon="14.048171238681352"><ele>1180.0</ele><time>2026-05-01T14:11:33Z</time></trkpt><trkpt lat="45.77626459946803" lon="14.04820080722137"><ele>1180.0</ele><time>2026-05-01T14:11:34Z</time></trkpt><trkpt lat="45.77619579262781" lon="14.048234806711585"><ele>1180.0</ele><time>2026-05-01T14:11:35Z</time></trkpt><trkpt lat="45.776131047414076" lon="14.048266089363784"><ele>1180.0</ele><time>2026-05-01T14:11:36Z</time></trkpt><trkpt lat="45.776069832674" lon="14.048317112949071"><ele>1180.0</ele><time>2026-05-01T14:11:36.999Z</time></trkpt><trkpt lat="45.77600299070259" lon="14.048341090181504"><ele>1180.0</ele><time>2026-05-01T14:11:37.999Z</time></trkpt><trkpt lat="45.775902090881694" lon="14.048436987168426"><ele>1181.8333333333333</ele><time>2026-05-01T14:11:39.999Z</time></trkpt><trkpt lat="45.77586616962611" lon="14.048515799300544"><ele>1183.6666666666665</ele><time>2026-05-01T14:11:40.999Z</time></trkpt><trkpt lat="45.775810822585115" lon="14.048572568372116"><ele>1185.5</ele><time>2026-05-01T14:11:41.999Z</time></trkpt><trkpt lat="45.775748054162186" lon="14.048624756715368"><ele>1187.3333333333333</ele><time>2026-05-01T14:11:42.999Z</time></trkpt><trkpt lat="45.77566118408688" lon="14.04868860052488"><ele>1189.1666666666667</ele><time>2026-05-01T14:11:43.999Z</time></trkpt><trkpt lat="45.77556861440134" lon="14.048754755168149"><ele>1191.0</ele><time>2026-05-01T14:11:44.999Z</time></trkpt><trkpt lat="45.77548747524981" lon="14.048812631568387"><ele>1191.0</ele><time>2026-05-01T14:11:45.999Z</time></trkpt><trkpt lat="45.77539712939672" lon="14.04887645746029"><ele>1191.0</ele><time>2026-05-01T14:11:46.999Z</time></trkpt><trkpt lat="45.77529866371224" lon="14.048949606721019"><ele>1191.0</ele><time>2026-05-01T14:11:47.999Z</time></trkpt><trkpt lat="45.77519618318344" lon="14.049028500125724"><ele>1191.0</ele><time>2026-05-01T14:11:48.999Z</time></trkpt><trkpt lat="45.775104678736575" lon="14.04909554619793"><ele>1191.0</ele><time>2026-05-01T14:11:49.999Z</time></trkpt><trkpt lat="45.77502239736178" lon="14.049150142153639"><ele>1193.8333333333333</ele><time>2026-05-01T14:11:50.999Z</time></trkpt><trkpt lat="45.77493734506101" lon="14.049192208158045"><ele>1196.6666666666667</ele><time>2026-05-01T14:11:51.999Z</time></trkpt><trkpt lat="45.77485434403071" lon="14.049213740232595"><ele>1199.5</ele><time>2026-05-01T14:11:52.999Z</time></trkpt><trkpt lat="45.774769374700675" lon="14.049221675054948"><ele>1202.3333333333335</ele><time>2026-05-01T14:11:53.999Z</time></trkpt><trkpt lat="45.774684810862894" lon="14.049217982899062"><ele>1205.1666666666667</ele><time>2026-05-01T14:11:54.999Z</time></trkpt><trkpt lat="45.77460672947109" lon="14.049209900584353"><ele>1208.0</ele><time>2026-05-01T14:11:55.999Z</time></trkpt><trkpt lat="45.77450255560739" lon="14.049183327601776"><ele>1208.0</ele><time>2026-05-01T14:11:56.999Z</time></trkpt><trkpt lat="45.774365240503904" lon="14.04913964025479"><ele>1208.0</ele><time>2026-05-01T14:11:57.999Z</time></trkpt><trkpt lat="45.774195249587095" lon="14.049124386922415"><ele>1208.0</ele><time>2026-05-01T14:11:58.999Z</time></trkpt><trkpt lat="45.77406700687058" lon="14.049164441272573"><ele>1208.0</ele><time>2026-05-01T14:11:59.999Z</time></trkpt><trkpt lat="45.7739704362774" lon="14.049185906764846"><ele>1207.3333333333335</ele><time>2026-05-01T14:12:00.999Z</time></trkpt><trkpt lat="45.773872435885764" lon="14.049201031748524"><ele>1206.6666666666667</ele><time>2026-05-01T14:12:01.999Z</time></trkpt><trkpt lat="45.77382646841898" lon="14.04927293018393"><ele>1206.0</ele><time>2026-05-01T14:12:02.999Z</time></trkpt><trkpt lat="45.77377081784062" lon="14.049354057699887"><ele>1205.3333333333333</ele><time>2026-05-01T14:12:03.999Z</time></trkpt><trkpt lat="45.773727400054746" lon="14.049458019946886"><ele>1204.6666666666665</ele><time>2026-05-01T14:12:04.999Z</time></trkpt><trkpt lat="45.773703707565524" lon="14.049581917893995"><ele>1204.0</ele><time>2026-05-01T14:12:05.999Z</time></trkpt><trkpt lat="45.77365167297979" lon="14.049687663245967"><ele>1204.0</ele><time>2026-05-01T14:12:06.999Z</time></trkpt><trkpt lat="45.77360656349929" lon="14.049772532916705"><ele>1204.0</ele><time>2026-05-01T14:12:07.999Z</time></trkpt><trkpt lat="45.77354137978462" lon="14.04985739193182"><ele>1204.0</ele><time>2026-05-01T14:12:08.999Z</time></trkpt><trkpt lat="45.77344667556596" lon="14.049925662615784"><ele>1204.0</ele><time>2026-05-01T14:12:09.999Z</time></trkpt><trkpt lat="45.77335706513055" lon="14.049967562085044"><ele>1204.0</ele><time>2026-05-01T14:12:10.999Z</time></trkpt><trkpt lat="45.773264363981575" lon="14.04999377746126"><ele>1204.6666666666665</ele><time>2026-05-01T14:12:11.999Z</time></trkpt><trkpt lat="45.77316097043711" lon="14.049995676294659"><ele>1205.3333333333333</ele><time>2026-05-01T14:12:12.999Z</time></trkpt><trkpt lat="45.773051450074256" lon="14.050001385750308"><ele>1206.0</ele><time>2026-05-01T14:12:13.999Z</time></trkpt><trkpt lat="45.77296635758077" lon="14.050021164419594"><ele>1206.6666666666667</ele><time>2026-05-01T14:12:14.999Z</time></trkpt><trkpt lat="45.772902012033775" lon="14.05004897482934"><ele>1207.3333333333335</ele><time>2026-05-01T14:12:15.999Z</time></trkpt><trkpt lat="45.7728519143051" lon="14.050132698841495"><ele>1208.0</ele><time>2026-05-01T14:12:16.999Z</time></trkpt><trkpt lat="45.77284608741281" lon="14.050266546078042"><ele>1208.0</ele><time>2026-05-01T14:12:17.999Z</time></trkpt><trkpt lat="45.77280668325925" lon="14.050369955094073"><ele>1208.0</ele><time>2026-05-01T14:12:18.999Z</time></trkpt><trkpt lat="45.77276766271083" lon="14.05045723100437"><ele>1208.0</ele><time>2026-05-01T14:12:19.999Z</time></trkpt><trkpt lat="45.77271567492295" lon="14.05051243925342"><ele>1208.0</ele><time>2026-05-01T14:12:20.999Z</time></trkpt><trkpt lat="45.772667598887274" lon="14.050634703315023"><ele>1208.0</ele><time>2026-05-01T14:12:22.999Z</time></trkpt><trkpt lat="45.772625160747154" lon="14.05076522256253"><ele>1208.0</ele><time>2026-05-01T14:12:24.999Z</time></trkpt><trkpt lat="45.77257281616482" lon="14.050912119222517"><ele>1210.8</ele><time>2026-05-01T14:12:26.999Z</time></trkpt><trkpt lat="45.77251667732798" lon="14.051063216844128"><ele>1213.6</ele><time>2026-05-01T14:12:28.999Z</time></trkpt><trkpt lat="45.77248686364687" lon="14.051143460107227"><ele>1216.4</ele><time>2026-05-01T14:12:29.999Z</time></trkpt><trkpt lat="45.77246057588264" lon="14.05127098573482"><ele>1219.2</ele><time>2026-05-01T14:12:31.999Z</time></trkpt><trkpt lat="45.77241017368852" lon="14.051383653341746"><ele>1222.0</ele><time>2026-05-01T14:12:33.999Z</time></trkpt><trkpt lat="45.7723873364018" lon="14.051525942243474"><ele>1223.2</ele><time>2026-05-01T14:12:35.999Z</time></trkpt><trkpt lat="45.77242843128138" lon="14.051647478884748"><ele>1224.4</ele><time>2026-05-01T14:12:37.999Z</time></trkpt><trkpt lat="45.77248459125604" lon="14.051691740000559"><ele>1225.6</ele><time>2026-05-01T14:12:39.999Z</time></trkpt><trkpt lat="45.77250660204217" lon="14.051788530844737"><ele>1226.8</ele><time>2026-05-01T14:12:50Z</time></trkpt><trkpt lat="45.772530576646915" lon="14.052083935024548"><ele>1228.0</ele><time>2026-05-01T14:13:18Z</time></trkpt><trkpt lat="45.77247097957374" lon="14.051779275535338"><ele>1227.9999999999998</ele><time>2026-05-01T14:13:21Z</time></trkpt><trkpt lat="45.77238173657582" lon="14.051892566297829"><ele>1228.0</ele><time>2026-05-01T14:14:46Z</time></trkpt><trkpt lat="45.77244142048853" lon="14.051926843263498"><ele>1228.0</ele><time>2026-05-01T14:15:30Z</time></trkpt><trkpt lat="45.772488901489446" lon="14.051986104239578"><ele>1228.0</ele><time>2026-05-01T14:15:38Z</time></trkpt><trkpt lat="45.77253892121566" lon="14.05205872662201"><ele>1228.0</ele><time>2026-05-01T14:16:27Z</time></trkpt><trkpt lat="45.77252012087286" lon="14.052145771091503"><ele>1227.9999999999998</ele><time>2026-05-01T14:16:37Z</time></trkpt><trkpt lat="45.77248386569143" lon="14.052220651611455"><ele>1228.0</ele><time>2026-05-01T14:16:51Z</time></trkpt><trkpt lat="45.77243622296936" lon="14.052285480086383"><ele>1227.9999999999998</ele><time>2026-05-01T14:16:58Z</time></trkpt><trkpt lat="45.772396256749424" lon="14.052359124541592"><ele>1228.0</ele><time>2026-05-01T14:17:05Z</time></trkpt><trkpt lat="45.77237518397443" lon="14.052448927898872"><ele>1228.0</ele><time>2026-05-01T14:17:13Z</time></trkpt><trkpt lat="45.77234832763357" lon="14.052532185430556"><ele>1228.0</ele><time>2026-05-01T14:17:21.001Z</time></trkpt><trkpt lat="45.772323466828375" lon="14.052620775261337"><ele>1228.0</ele><time>2026-05-01T14:17:29.001Z</time></trkpt><trkpt lat="45.7722881781783" lon="14.052702474504196"><ele>1227.9999999999998</ele><time>2026-05-01T14:17:37.001Z</time></trkpt><trkpt lat="45.77224190102476" lon="14.052765955119266"><ele>1228.0</ele><time>2026-05-01T14:17:46.001Z</time></trkpt><trkpt lat="45.772184821189" lon="14.052823588090735"><ele>1229.3333333333333</ele><time>2026-05-01T14:17:53.001Z</time></trkpt><trkpt lat="45.77213843560509" lon="14.052885163374501"><ele>1230.6666666666665</ele><time>2026-05-01T14:17:59.001Z</time></trkpt><trkpt lat="45.77211531219418" lon="14.052982046564628"><ele>1232.0</ele><time>2026-05-01T14:18:08.001Z</time></trkpt><trkpt lat="45.77214998268053" lon="14.052893729714144"><ele>1233.3333333333333</ele><time>2026-05-01T14:20:17.001Z</time></trkpt><trkpt lat="45.772076667040295" lon="14.052981074536907"><ele>1234.6666666666667</ele><time>2026-05-01T14:20:31.001Z</time></trkpt><trkpt lat="45.77214246308261" lon="14.052951150680006"><ele>1236.0</ele><time>2026-05-01T14:23:43.001Z</time></trkpt><trkpt lat="45.77221763974168" lon="14.05299772200525"><ele>1236.0</ele><time>2026-05-01T14:23:51.001Z</time></trkpt><trkpt lat="45.77226408486946" lon="14.052927052691484"><ele>1236.0</ele><time>2026-05-01T14:24:57.001Z</time></trkpt><trkpt lat="45.77232772288345" lon="14.05288154507225"><ele>1236.0</ele><time>2026-05-01T14:25:04.001Z</time></trkpt><trkpt lat="45.77238785757816" lon="14.052850146241564"><ele>1236.0</ele><time>2026-05-01T14:25:10.001Z</time></trkpt></trkseg><trkseg><trkpt lat="45.772401051802774" lon="14.05176825723257"><ele>1228.0</ele><time>2026-05-01T14:53:58.999Z</time></trkpt><trkpt lat="45.772413825254475" lon="14.05167479528409"><ele>1228.0</ele><time>2026-05-01T14:54:00.999Z</time></trkpt><trkpt lat="45.772427294787754" lon="14.051535748530624"><ele>1228.0</ele><time>2026-05-01T14:54:03.999Z</time></trkpt><trkpt lat="45.772430408050035" lon="14.051409834072905"><ele>1228.0</ele><time>2026-05-01T14:54:05.999Z</time></trkpt><trkpt lat="45.77247314468829" lon="14.051255331767917"><ele>1228.0</ele><time>2026-05-01T14:54:07.999Z</time></trkpt><trkpt lat="45.772539149072145" lon="14.051107822033641"><ele>1226.8</ele><time>2026-05-01T14:54:09.999Z</time></trkpt><trkpt lat="45.77258566372375" lon="14.05095011974086"><ele>1225.6</ele><time>2026-05-01T14:54:11.999Z</time></trkpt><trkpt lat="45.77263218851831" lon="14.050805123341572"><ele>1224.4</ele><time>2026-05-01T14:54:13.999Z</time></trkpt><trkpt lat="45.7726637823799" lon="14.050705368566225"><ele>1223.2</ele><time>2026-05-01T14:54:15.999Z</time></trkpt><trkpt lat="45.77269711056147" lon="14.0506194372016"><ele>1222.0</ele><time>2026-05-01T14:54:17.999Z</time></trkpt><trkpt lat="45.77275515632694" lon="14.050511334749265"><ele>1219.2</ele><time>2026-05-01T14:54:19.999Z</time></trkpt><trkpt lat="45.77281658024531" lon="14.050394069118006"><ele>1216.4</ele><time>2026-05-01T14:54:21.999Z</time></trkpt><trkpt lat="45.77285860244136" lon="14.050263269513975"><ele>1213.6</ele><time>2026-05-01T14:54:23.999Z</time></trkpt><trkpt lat="45.77289543276217" lon="14.050133521596884"><ele>1210.8</ele><time>2026-05-01T14:54:25.999Z</time></trkpt><trkpt lat="45.77297185397773" lon="14.050051975661694"><ele>1208.0</ele><time>2026-05-01T14:54:27.999Z</time></trkpt><trkpt lat="45.773080787008496" lon="14.050050823884197"><ele>1208.0</ele><time>2026-05-01T14:54:29.999Z</time></trkpt><trkpt lat="45.77320524114072" lon="14.050047120786076"><ele>1208.0</ele><time>2026-05-01T14:54:31.999Z</time></trkpt><trkpt lat="45.773268560137986" lon="14.050035178821307"><ele>1208.0</ele><time>2026-05-01T14:54:32.999Z</time></trkpt><trkpt lat="45.77339100487945" lon="14.050003593967073"><ele>1208.0</ele><time>2026-05-01T14:54:34.999Z</time></trkpt><trkpt lat="45.77345306316357" lon="14.04997034453963"><ele>1208.0</ele><time>2026-05-01T14:54:35.999Z</time></trkpt><trkpt lat="45.7735081937904" lon="14.049920392135228"><ele>1208.0</ele><time>2026-05-01T14:54:36.999Z</time></trkpt><trkpt lat="45.77356691869244" lon="14.049882474584903"><ele>1207.2</ele><time>2026-05-01T14:54:37.999Z</time></trkpt><trkpt lat="45.77364876385503" lon="14.049771045104757"><ele>1206.4</ele><time>2026-05-01T14:54:39.999Z</time></trkpt><trkpt lat="45.77372364826276" lon="14.049628726794344"><ele>1205.6000000000001</ele><time>2026-05-01T14:54:41.999Z</time></trkpt><trkpt lat="45.773788575918296" lon="14.049471165068018"><ele>1204.8</ele><time>2026-05-01T14:54:43.999Z</time></trkpt><trkpt lat="45.77382424882484" lon="14.04938476514351"><ele>1204.0</ele><time>2026-05-01T14:54:44.999Z</time></trkpt><trkpt lat="45.77385985266876" lon="14.049298533126148"><ele>1204.0</ele><time>2026-05-01T14:54:45.999Z</time></trkpt><trkpt lat="45.773942456549364" lon="14.049226527873882"><ele>1204.0</ele><time>2026-05-01T14:54:47.999Z</time></trkpt><trkpt lat="45.77401246487094" lon="14.049203386885122"><ele>1204.0</ele><time>2026-05-01T14:54:48.999Z</time></trkpt><trkpt lat="45.774098681302" lon="14.049187850462022"><ele>1204.0</ele><time>2026-05-01T14:54:49.999Z</time></trkpt><trkpt lat="45.77419005694678" lon="14.049172597450461"><ele>1204.0</ele><time>2026-05-01T14:54:50.999Z</time></trkpt><trkpt lat="45.774313471895134" lon="14.049162632142538"><ele>1204.6666666666665</ele><time>2026-05-01T14:54:51.999Z</time></trkpt><trkpt lat="45.77443802472873" lon="14.049186552355234"><ele>1205.3333333333333</ele><time>2026-05-01T14:54:52.999Z</time></trkpt><trkpt lat="45.77452606418152" lon="14.049240537958596"><ele>1206.0</ele><time>2026-05-01T14:54:53.999Z</time></trkpt><trkpt lat="45.774602307029205" lon="14.049258749207565"><ele>1206.6666666666667</ele><time>2026-05-01T14:54:54.999Z</time></trkpt><trkpt lat="45.774678768936475" lon="14.049249463664493"><ele>1207.3333333333335</ele><time>2026-05-01T14:54:55.999Z</time></trkpt><trkpt lat="45.77474275015712" lon="14.049257081101425"><ele>1208.0</ele><time>2026-05-01T14:54:56.999Z</time></trkpt><trkpt lat="45.77481526019527" lon="14.049253042154689"><ele>1208.0</ele><time>2026-05-01T14:54:57.999Z</time></trkpt><trkpt lat="45.77490201099452" lon="14.049239393610316"><ele>1208.0</ele><time>2026-05-01T14:54:58.999Z</time></trkpt><trkpt lat="45.77499759951066" lon="14.04920287589581"><ele>1208.0</ele><time>2026-05-01T14:54:59.999Z</time></trkpt><trkpt lat="45.77510388898176" lon="14.04915046180452"><ele>1208.0</ele><time>2026-05-01T14:55:00.999Z</time></trkpt><trkpt lat="45.775190555133065" lon="14.049080002462315"><ele>1208.0</ele><time>2026-05-01T14:55:01.999Z</time></trkpt><trkpt lat="45.77529108112227" lon="14.04898511982713"><ele>1204.6</ele><time>2026-05-01T14:55:02.999Z</time></trkpt><trkpt lat="45.77539032565588" lon="14.048908584458966"><ele>1201.1999999999998</ele><time>2026-05-01T14:55:03.999Z</time></trkpt><trkpt lat="45.77548379009052" lon="14.048868406181626"><ele>1197.8</ele><time>2026-05-01T14:55:04.999Z</time></trkpt><trkpt lat="45.775559753475974" lon="14.048804520074066"><ele>1194.3999999999999</ele><time>2026-05-01T14:55:05.999Z</time></trkpt><trkpt lat="45.77563519231687" lon="14.048744307233163"><ele>1191.0</ele><time>2026-05-01T14:55:06.999Z</time></trkpt><trkpt lat="45.775704056475114" lon="14.048690040400468"><ele>1191.0</ele><time>2026-05-01T14:55:07.999Z</time></trkpt><trkpt lat="45.775785403822425" lon="14.04864430474318"><ele>1191.0</ele><time>2026-05-01T14:55:08.999Z</time></trkpt><trkpt lat="45.77584770393911" lon="14.048583347841106"><ele>1191.0</ele><time>2026-05-01T14:55:09.999Z</time></trkpt><trkpt lat="45.77589620783544" lon="14.04847955986456"><ele>1191.0</ele><time>2026-05-01T14:55:10.999Z</time></trkpt><trkpt lat="45.77595113048383" lon="14.048389502698273"><ele>1191.0</ele><time>2026-05-01T14:55:11.999Z</time></trkpt><trkpt lat="45.77601741571919" lon="14.048346051160566"><ele>1191.0</ele><time>2026-05-01T14:55:12.999Z</time></trkpt><trkpt lat="45.776106964930236" lon="14.048327934915894"><ele>1188.8</ele><time>2026-05-01T14:55:13.999Z</time></trkpt><trkpt lat="45.77621590204903" lon="14.048275300202445"><ele>1186.6</ele><time>2026-05-01T14:55:14.999Z</time></trkpt><trkpt lat="45.77633053842556" lon="14.04819451171275"><ele>1184.4</ele><time>2026-05-01T14:55:15.999Z</time></trkpt><trkpt lat="45.776426481648734" lon="14.048146078091772"><ele>1182.2</ele><time>2026-05-01T14:55:16.999Z</time></trkpt><trkpt lat="45.776500236678835" lon="14.04807901676467"><ele>1180.0</ele><time>2026-05-01T14:55:17.999Z</time></trkpt><trkpt lat="45.77657295952267" lon="14.0479963577377"><ele>1180.0</ele><time>2026-05-01T14:55:18.999Z</time></trkpt><trkpt lat="45.77664882728681" lon="14.047875303448343"><ele>1180.0</ele><time>2026-05-01T14:55:19.999Z</time></trkpt><trkpt lat="45.77670638499949" lon="14.047756284562778"><ele>1180.0</ele><time>2026-05-01T14:55:20.999Z</time></trkpt><trkpt lat="45.77675805520891" lon="14.047635570417903"><ele>1180.0</ele><time>2026-05-01T14:55:21.999Z</time></trkpt><trkpt lat="45.77680233106575" lon="14.04751470382451"><ele>1180.0</ele><time>2026-05-01T14:55:22.999Z</time></trkpt><trkpt lat="45.77684455074705" lon="14.047370363569309"><ele>1179.3333333333333</ele><time>2026-05-01T14:55:23.999Z</time></trkpt><trkpt lat="45.77687810348604" lon="14.047195693558317"><ele>1178.6666666666667</ele><time>2026-05-01T14:55:24.999Z</time></trkpt><trkpt lat="45.77689844630537" lon="14.046979255438233"><ele>1178.0</ele><time>2026-05-01T14:55:25.999Z</time></trkpt><trkpt lat="45.77692030474802" lon="14.046732049641232"><ele>1176.0</ele><time>2026-05-01T14:55:26.999Z</time></trkpt><trkpt lat="45.77695108944999" lon="14.046539184194701"><ele>1174.0</ele><time>2026-05-01T14:55:27.999Z</time></trkpt><trkpt lat="45.776982300615934" lon="14.046384651321905"><ele>1172.0</ele><time>2026-05-01T14:55:28.999Z</time></trkpt><trkpt lat="45.77701295299622" lon="14.04626940205781"><ele>1170.0</ele><time>2026-05-01T14:55:29.999Z</time></trkpt><trkpt lat="45.777044897662314" lon="14.046178673867333"><ele>1168.0</ele><time>2026-05-01T14:55:30.999Z</time></trkpt><trkpt lat="45.77709407977207" lon="14.046077570747267"><ele>1168.0</ele><time>2026-05-01T14:55:31.999Z</time></trkpt><trkpt lat="45.77717577603015" lon="14.045933279333877"><ele>1168.0</ele><time>2026-05-01T14:55:32.999Z</time></trkpt><trkpt lat="45.777278380296664" lon="14.045737571043256"><ele>1168.0</ele><time>2026-05-01T14:55:33.999Z</time></trkpt><trkpt lat="45.77737739517156" lon="14.04558259619047"><ele>1168.0</ele><time>2026-05-01T14:55:34.999Z</time></trkpt><trkpt lat="45.77747526816906" lon="14.045475147984302"><ele>1168.4</ele><time>2026-05-01T14:55:35.999Z</time></trkpt><trkpt lat="45.77755221103164" lon="14.045369122359673"><ele>1168.8</ele><time>2026-05-01T14:55:36.999Z</time></trkpt><trkpt lat="45.777621883111834" lon="14.04525630901482"><ele>1169.2</ele><time>2026-05-01T14:55:37.999Z</time></trkpt><trkpt lat="45.777702958398955" lon="14.045175264774644"><ele>1169.6</ele><time>2026-05-01T14:55:38.999Z</time></trkpt><trkpt lat="45.777776929545965" lon="14.045110790257416"><ele>1170.0</ele><time>2026-05-01T14:55:39.999Z</time></trkpt><trkpt lat="45.777861781357714" lon="14.045048307589898"><ele>1168.3333333333333</ele><time>2026-05-01T14:55:40.999Z</time></trkpt><trkpt lat="45.77793903590322" lon="14.045004489612403"><ele>1166.6666666666667</ele><time>2026-05-01T14:55:41.999Z</time></trkpt><trkpt lat="45.77802421856074" lon="14.04497355981317"><ele>1165.0</ele><time>2026-05-01T14:55:42.999Z</time></trkpt><trkpt lat="45.77811205678155" lon="14.044955773433415"><ele>1163.3333333333335</ele><time>2026-05-01T14:55:43.999Z</time></trkpt><trkpt lat="45.77819640154612" lon="14.044945110175723"><ele>1161.6666666666667</ele><time>2026-05-01T14:55:44.999Z</time></trkpt><trkpt lat="45.77827991024821" lon="14.044948637531826"><ele>1160.0</ele><time>2026-05-01T14:55:45.999Z</time></trkpt><trkpt lat="45.778373105566665" lon="14.044980636479238"><ele>1159.6666666666667</ele><time>2026-05-01T14:55:46.999Z</time></trkpt><trkpt lat="45.778471361114406" lon="14.04504183624341"><ele>1159.3333333333335</ele><time>2026-05-01T14:55:47.999Z</time></trkpt><trkpt lat="45.778555750265234" lon="14.04513038038943"><ele>1159.0</ele><time>2026-05-01T14:55:48.999Z</time></trkpt><trkpt lat="45.77862321785459" lon="14.045207360843467"><ele>1158.6666666666667</ele><time>2026-05-01T14:55:49.999Z</time></trkpt><trkpt lat="45.778691690014085" lon="14.045254678372578"><ele>1158.3333333333333</ele><time>2026-05-01T14:55:50.999Z</time></trkpt><trkpt lat="45.77876017386556" lon="14.045262987593608"><ele>1158.0</ele><time>2026-05-01T14:55:51.999Z</time></trkpt><trkpt lat="45.77882469262266" lon="14.045228559285441"><ele>1157.75</ele><time>2026-05-01T14:55:52.999Z</time></trkpt><trkpt lat="45.778889224445365" lon="14.04517337641653"><ele>1157.5</ele><time>2026-05-01T14:55:53.999Z</time></trkpt><trkpt lat="45.77898297148352" lon="14.045087177305737"><ele>1157.25</ele><time>2026-05-01T14:55:54.999Z</time></trkpt><trkpt lat="45.77910147034897" lon="14.044947520883518"><ele>1157.0</ele><time>2026-05-01T14:55:55.999Z</time></trkpt><trkpt lat="45.77919571309398" lon="14.044815448854242"><ele>1156.2</ele><time>2026-05-01T14:55:56.999Z</time></trkpt><trkpt lat="45.779264046325515" lon="14.044706799928617"><ele>1155.4</ele><time>2026-05-01T14:55:57.999Z</time></trkpt><trkpt lat="45.77931614229662" lon="14.044616918389055"><ele>1154.6</ele><time>2026-05-01T14:55:58.999Z</time></trkpt><trkpt lat="45.77936286966978" lon="14.044508279656027"><ele>1153.8</ele><time>2026-05-01T14:55:59.999Z</time></trkpt><trkpt lat="45.77940387527391" lon="14.044380454944724"><ele>1153.0</ele><time>2026-05-01T14:56:00.999Z</time></trkpt><trkpt lat="45.77941905791845" lon="14.044202247939447"><ele>1150.4</ele><time>2026-05-01T14:56:01.999Z</time></trkpt><trkpt lat="45.77943742761294" lon="14.044074629807762"><ele>1147.8</ele><time>2026-05-01T14:56:02.999Z</time></trkpt><trkpt lat="45.77947188651025" lon="14.043973798791848"><ele>1145.2</ele><time>2026-05-01T14:56:03.999Z</time></trkpt><trkpt lat="45.77953144676144" lon="14.043919922100477"><ele>1142.6</ele><time>2026-05-01T14:56:04.999Z</time></trkpt><trkpt lat="45.77960235496778" lon="14.0438426155839"><ele>1140.0</ele><time>2026-05-01T14:56:05.999Z</time></trkpt><trkpt lat="45.779716811495476" lon="14.04376972688205"><ele>1140.0</ele><time>2026-05-01T14:56:06.999Z</time></trkpt><trkpt lat="45.7798442159811" lon="14.04368346982551"><ele>1140.0</ele><time>2026-05-01T14:56:07.999Z</time></trkpt><trkpt lat="45.77996521534352" lon="14.043597503561477"><ele>1140.0</ele><time>2026-05-01T14:56:08.999Z</time></trkpt><trkpt lat="45.780082002854705" lon="14.043510354931545"><ele>1140.0</ele><time>2026-05-01T14:56:09.999Z</time></trkpt><trkpt lat="45.78018303120953" lon="14.043439615923397"><ele>1142.4</ele><time>2026-05-01T14:56:10.999Z</time></trkpt><trkpt lat="45.78027954422039" lon="14.043363820089844"><ele>1144.8</ele><time>2026-05-01T14:56:11.999Z</time></trkpt><trkpt lat="45.78037329339004" lon="14.043297648322612"><ele>1147.2</ele><time>2026-05-01T14:56:12.999Z</time></trkpt><trkpt lat="45.78046243554101" lon="14.043230399844532"><ele>1149.6</ele><time>2026-05-01T14:56:13.999Z</time></trkpt><trkpt lat="45.780535620779034" lon="14.04313923568717"><ele>1152.0</ele><time>2026-05-01T14:56:14.999Z</time></trkpt><trkpt lat="45.78059527097739" lon="14.043028287214106"><ele>1145.75</ele><time>2026-05-01T14:56:15.999Z</time></trkpt><trkpt lat="45.7806708843303" lon="14.04292962713511"><ele>1139.5</ele><time>2026-05-01T14:56:16.999Z</time></trkpt><trkpt lat="45.780753167521176" lon="14.04281645059894"><ele>1133.25</ele><time>2026-05-01T14:56:17.999Z</time></trkpt><trkpt lat="45.78084359789914" lon="14.042695549822588"><ele>1127.0</ele><time>2026-05-01T14:56:18.999Z</time></trkpt><trkpt lat="45.78093661519843" lon="14.042580161069976"><ele>1125.0</ele><time>2026-05-01T14:56:19.999Z</time></trkpt><trkpt lat="45.78102551428557" lon="14.04248114446853"><ele>1123.0</ele><time>2026-05-01T14:56:20.999Z</time></trkpt><trkpt lat="45.781114873316696" lon="14.042390823327986"><ele>1121.0</ele><time>2026-05-01T14:56:21.999Z</time></trkpt><trkpt lat="45.78119569852359" lon="14.042286546253823"><ele>1119.0</ele><time>2026-05-01T14:56:22.999Z</time></trkpt><trkpt lat="45.78128796109614" lon="14.042206669819668"><ele>1117.0</ele><time>2026-05-01T14:56:23.999Z</time></trkpt><trkpt lat="45.78136272870161" lon="14.042120983741125"><ele>1117.0</ele><time>2026-05-01T14:56:24.999Z</time></trkpt><trkpt lat="45.7814461420332" lon="14.042029347721575"><ele>1117.0</ele><time>2026-05-01T14:56:25.999Z</time></trkpt><trkpt lat="45.78155216283806" lon="14.041931195350642"><ele>1117.0</ele><time>2026-05-01T14:56:26.999Z</time></trkpt><trkpt lat="45.781664789135746" lon="14.04176917258749"><ele>1117.0</ele><time>2026-05-01T14:56:27.999Z</time></trkpt><trkpt lat="45.781752763928715" lon="14.041601086577113"><ele>1115.5</ele><time>2026-05-01T14:56:28.999Z</time></trkpt><trkpt lat="45.78184088431169" lon="14.041465941680658"><ele>1114.0</ele><time>2026-05-01T14:56:29.999Z</time></trkpt><trkpt lat="45.78192259229535" lon="14.04132655166652"><ele>1112.5</ele><time>2026-05-01T14:56:30.999Z</time></trkpt><trkpt lat="45.78200673869367" lon="14.04120815368276"><ele>1111.0</ele><time>2026-05-01T14:56:31.999Z</time></trkpt><trkpt lat="45.782084185315576" lon="14.041080801136308"><ele>1111.0</ele><time>2026-05-01T14:56:32.999Z</time></trkpt><trkpt lat="45.782149292590546" lon="14.040949538898918"><ele>1111.0</ele><time>2026-05-01T14:56:33.999Z</time></trkpt><trkpt lat="45.78223249228224" lon="14.040824015288587"><ele>1111.0</ele><time>2026-05-01T14:56:34.999Z</time></trkpt><trkpt lat="45.78232286172614" lon="14.040707221276113"><ele>1111.0</ele><time>2026-05-01T14:56:35.999Z</time></trkpt><trkpt lat="45.78240764312405" lon="14.04059791652281"><ele>1108.5</ele><time>2026-05-01T14:56:36.999Z</time></trkpt><trkpt lat="45.782490691195704" lon="14.04048638295869"><ele>1106.0</ele><time>2026-05-01T14:56:37.999Z</time></trkpt><trkpt lat="45.78258391827202" lon="14.040407963316952"><ele>1103.5</ele><time>2026-05-01T14:56:38.999Z</time></trkpt><trkpt lat="45.782672062250235" lon="14.040308328232634"><ele>1101.0</ele><time>2026-05-01T14:56:39.999Z</time></trkpt><trkpt lat="45.782771268499296" lon="14.040197788458334"><ele>1101.0</ele><time>2026-05-01T14:56:40.999Z</time></trkpt><trkpt lat="45.78286268443755" lon="14.040079771339041"><ele>1101.0</ele><time>2026-05-01T14:56:41.999Z</time></trkpt><trkpt lat="45.78295598179001" lon="14.039989503880545"><ele>1101.0</ele><time>2026-05-01T14:56:42.999Z</time></trkpt><trkpt lat="45.78304992056283" lon="14.039888171435926"><ele>1101.0</ele><time>2026-05-01T14:56:43.999Z</time></trkpt><trkpt lat="45.7831308375891" lon="14.039787093542785"><ele>1096.3999999999999</ele><time>2026-05-01T14:56:44.999Z</time></trkpt><trkpt lat="45.78322387193279" lon="14.039735726110285"><ele>1091.8</ele><time>2026-05-01T14:56:45.999Z</time></trkpt><trkpt lat="45.78331283274066" lon="14.039666874588235"><ele>1087.1999999999998</ele><time>2026-05-01T14:56:46.999Z</time></trkpt><trkpt lat="45.783395939851246" lon="14.039610846455469"><ele>1082.6</ele><time>2026-05-01T14:56:47.999Z</time></trkpt><trkpt lat="45.7834800303342" lon="14.039549673667473"><ele>1078.0</ele><time>2026-05-01T14:56:48.999Z</time></trkpt><trkpt lat="45.78358677214779" lon="14.039525912616217"><ele>1078.0</ele><time>2026-05-01T14:56:49.999Z</time></trkpt><trkpt lat="45.78368035047942" lon="14.039451743496594"><ele>1078.0</ele><time>2026-05-01T14:56:50.999Z</time></trkpt><trkpt lat="45.783776057767376" lon="14.039404017021266"><ele>1078.0</ele><time>2026-05-01T14:56:51.999Z</time></trkpt><trkpt lat="45.7838565973535" lon="14.039323221296447"><ele>1078.0</ele><time>2026-05-01T14:56:52.999Z</time></trkpt><trkpt lat="45.78393996270531" lon="14.039251415678775"><ele>1078.0</ele><time>2026-05-01T14:56:53.999Z</time></trkpt><trkpt lat="45.78401874261585" lon="14.039167888832205"><ele>1076.6</ele><time>2026-05-01T14:56:54.999Z</time></trkpt><trkpt lat="45.78409317628617" lon="14.039071490254038"><ele>1075.1999999999998</ele><time>2026-05-01T14:56:55.999Z</time></trkpt><trkpt lat="45.78416052196991" lon="14.038969123436498"><ele>1073.8</ele><time>2026-05-01T14:56:56.999Z</time></trkpt><trkpt lat="45.78422859076423" lon="14.038874013460028"><ele>1072.3999999999999</ele><time>2026-05-01T14:56:57.999Z</time></trkpt><trkpt lat="45.78429772222532" lon="14.038766191208063"><ele>1071.0</ele><time>2026-05-01T14:56:58.999Z</time></trkpt><trkpt lat="45.78435280489079" lon="14.038651387971026"><ele>1071.0</ele><time>2026-05-01T14:56:59.999Z</time></trkpt><trkpt lat="45.78439162090293" lon="14.038537279281051"><ele>1071.0</ele><time>2026-05-01T14:57:00.999Z</time></trkpt><trkpt lat="45.784416948581004" lon="14.038429415021492"><ele>1071.0</ele><time>2026-05-01T14:57:01.999Z</time></trkpt><trkpt lat="45.784436040485254" lon="14.038320213007479"><ele>1071.0</ele><time>2026-05-01T14:57:02.999Z</time></trkpt><trkpt lat="45.78444730603264" lon="14.038215263161177"><ele>1071.0</ele><time>2026-05-01T14:57:03.999Z</time></trkpt><trkpt lat="45.78445235950694" lon="14.03811727881268"><ele>1071.0</ele><time>2026-05-01T14:57:04.999Z</time></trkpt><trkpt lat="45.78444563574325" lon="14.03800763628648"><ele>1069.2</ele><time>2026-05-01T14:57:05.999Z</time></trkpt><trkpt lat="45.78443220646753" lon="14.037907593758916"><ele>1067.3999999999999</ele><time>2026-05-01T14:57:06.999Z</time></trkpt><trkpt lat="45.78441713738775" lon="14.037790304973134"><ele>1065.6</ele><time>2026-05-01T14:57:07.999Z</time></trkpt><trkpt lat="45.78438991741481" lon="14.037641999416051"><ele>1063.8</ele><time>2026-05-01T14:57:08.999Z</time></trkpt><trkpt lat="45.784324129211385" lon="14.037467452136408"><ele>1062.0</ele><time>2026-05-01T14:57:09.999Z</time></trkpt><trkpt lat="45.78426684593853" lon="14.037284045054113"><ele>1059.0</ele><time>2026-05-01T14:57:10.999Z</time></trkpt><trkpt lat="45.78423178538413" lon="14.037131901417748"><ele>1056.0</ele><time>2026-05-01T14:57:11.999Z</time></trkpt><trkpt lat="45.78421429477861" lon="14.037012282314889"><ele>1053.0</ele><time>2026-05-01T14:57:12.999Z</time></trkpt><trkpt lat="45.784220518742316" lon="14.036912371396282"><ele>1050.0</ele><time>2026-05-01T14:57:13.999Z</time></trkpt><trkpt lat="45.78426175829324" lon="14.036816809749395"><ele>1047.0</ele><time>2026-05-01T14:57:14.999Z</time></trkpt><trkpt lat="45.78432381698354" lon="14.036673143986883"><ele>1044.75</ele><time>2026-05-01T14:57:15.999Z</time></trkpt><trkpt lat="45.784409487948146" lon="14.036507882485614"><ele>1042.5</ele><time>2026-05-01T14:57:16.999Z</time></trkpt><trkpt lat="45.78447938127101" lon="14.03634471695804"><ele>1040.25</ele><time>2026-05-01T14:57:17.999Z</time></trkpt><trkpt lat="45.784533844076755" lon="14.036201088161993"><ele>1038.0</ele><time>2026-05-01T14:57:18.999Z</time></trkpt><trkpt lat="45.78457197216443" lon="14.036078945879163"><ele>1038.0</ele><time>2026-05-01T14:57:19.999Z</time></trkpt><trkpt lat="45.78462498068144" lon="14.035989098654886"><ele>1038.0</ele><time>2026-05-01T14:57:20.999Z</time></trkpt><trkpt lat="45.784651426045286" lon="14.035904196935808"><ele>1038.0</ele><time>2026-05-01T14:57:21.999Z</time></trkpt><trkpt lat="45.78467605643564" lon="14.035713446152444"><ele>1038.0</ele><time>2026-05-01T14:57:23.999Z</time></trkpt><trkpt lat="45.78465055349292" lon="14.035599524249898"><ele>1038.0</ele><time>2026-05-01T14:57:24.999Z</time></trkpt><trkpt lat="45.784563860971204" lon="14.035529027442461"><ele>1035.6</ele><time>2026-05-01T14:57:25.999Z</time></trkpt><trkpt lat="45.784533480421636" lon="14.035446086270987"><ele>1033.1999999999998</ele><time>2026-05-01T14:57:26.999Z</time></trkpt><trkpt lat="45.78445699371318" lon="14.03535146301174"><ele>1030.8</ele><time>2026-05-01T14:57:28.999Z</time></trkpt><trkpt lat="45.784360688858925" lon="14.035293787126369"><ele>1028.3999999999999</ele><time>2026-05-01T14:57:30.999Z</time></trkpt><trkpt lat="45.784247586596756" lon="14.0352281737588"><ele>1026.0</ele><time>2026-05-01T14:57:32.999Z</time></trkpt><trkpt lat="45.78418814924075" lon="14.035191575315531"><ele>1026.0000000000002</ele><time>2026-05-01T14:57:33.999Z</time></trkpt><trkpt lat="45.78413011562023" lon="14.0351489440514"><ele>1026.0</ele><time>2026-05-01T14:57:34.999Z</time></trkpt><trkpt lat="45.78407295469218" lon="14.035101635930316"><ele>1026.0</ele><time>2026-05-01T14:57:35.999Z</time></trkpt><trkpt lat="45.7840109266354" lon="14.035039208358764"><ele>1026.0</ele><time>2026-05-01T14:57:36.999Z</time></trkpt><trkpt lat="45.78395530480738" lon="14.034960069044903"><ele>1026.0</ele><time>2026-05-01T14:57:37.999Z</time></trkpt><trkpt lat="45.78391645997857" lon="14.034868154923974"><ele>1026.0000000000002</ele><time>2026-05-01T14:57:38.999Z</time></trkpt><trkpt lat="45.78389384716101" lon="14.03474626609948"><ele>1026.0</ele><time>2026-05-01T14:57:39.999Z</time></trkpt><trkpt lat="45.783893817460545" lon="14.034630668642098"><ele>1023.1666666666666</ele><time>2026-05-01T14:57:40.999Z</time></trkpt><trkpt lat="45.783896318937344" lon="14.034518250495903"><ele>1020.3333333333333</ele><time>2026-05-01T14:57:41.999Z</time></trkpt><trkpt lat="45.783891134758505" lon="14.034418395180447"><ele>1017.5</ele><time>2026-05-01T14:57:42.999Z</time></trkpt><trkpt lat="45.78385735926152" lon="14.03424728725754"><ele>1014.6666666666666</ele><time>2026-05-01T14:57:44.999Z</time></trkpt><trkpt lat="45.78378456203671" lon="14.034192507895622"><ele>1011.8333333333333</ele><time>2026-05-01T14:57:45.999Z</time></trkpt><trkpt lat="45.78370270780318" lon="14.03418577721578"><ele>1009.0</ele><time>2026-05-01T14:57:46.999Z</time></trkpt><trkpt lat="45.78363526249956" lon="14.034143294324936"><ele>1005.4000000000001</ele><time>2026-05-01T14:57:47.999Z</time></trkpt><trkpt lat="45.783562098819885" lon="14.034109346753691"><ele>1001.8000000000001</ele><time>2026-05-01T14:57:48.999Z</time></trkpt><trkpt lat="45.78348504133589" lon="14.034071941579072"><ele>998.1999999999999</ele><time>2026-05-01T14:57:49.999Z</time></trkpt><trkpt lat="45.783417137308426" lon="14.034037302056744"><ele>994.5999999999999</ele><time>2026-05-01T14:57:50.999Z</time></trkpt><trkpt lat="45.78333947719688" lon="14.033953124450587"><ele>991.0</ele><time>2026-05-01T14:57:52.999Z</time></trkpt><trkpt lat="45.783436370271694" lon="14.03377476553399"><ele>990.9999999999999</ele><time>2026-05-01T14:57:54.999Z</time></trkpt><trkpt lat="45.78350492130367" lon="14.033718820240294"><ele>991.0</ele><time>2026-05-01T14:57:55.999Z</time></trkpt><trkpt lat="45.783575852266694" lon="14.033663243275873"><ele>991.0</ele><time>2026-05-01T14:57:56.999Z</time></trkpt><trkpt lat="45.783649036740464" lon="14.033606479782774"><ele>991.0</ele><time>2026-05-01T14:57:57.999Z</time></trkpt><trkpt lat="45.7837228107252" lon="14.033544969334757"><ele>990.9999999999999</ele><time>2026-05-01T14:57:58.999Z</time></trkpt><trkpt lat="45.78379346202919" lon="14.033479767029602"><ele>991.0</ele><time>2026-05-01T14:57:59.999Z</time></trkpt><trkpt lat="45.783861194369074" lon="14.033399876854727"><ele>991.0</ele><time>2026-05-01T14:58:00.999Z</time></trkpt><trkpt lat="45.78392999259832" lon="14.033324369688525"><ele>990.9999999999999</ele><time>2026-05-01T14:58:01.999Z</time></trkpt><trkpt lat="45.78400793324681" lon="14.03326153925503"><ele>990.9999999999999</ele><time>2026-05-01T14:58:02.999Z</time></trkpt><trkpt lat="45.78409055965155" lon="14.033211167910498"><ele>991.0</ele><time>2026-05-01T14:58:03.999Z</time></trkpt><trkpt lat="45.784178936211866" lon="14.033165080731177"><ele>991.0</ele><time>2026-05-01T14:58:04.999Z</time></trkpt><trkpt lat="45.78426974241748" lon="14.033116487459326"><ele>986.0</ele><time>2026-05-01T14:58:05.999Z</time></trkpt><trkpt lat="45.78436059168794" lon="14.033058560675014"><ele>980.9999999999999</ele><time>2026-05-01T14:58:06.999Z</time></trkpt><trkpt lat="45.784451235090046" lon="14.032998624980438"><ele>975.9999999999999</ele><time>2026-05-01T14:58:07.999Z</time></trkpt><trkpt lat="45.78454405732491" lon="14.032946681156439"><ele>971.0</ele><time>2026-05-01T14:58:08.999Z</time></trkpt><trkpt lat="45.784638638459256" lon="14.03289972106855"><ele>966.0</ele><time>2026-05-01T14:58:09.999Z</time></trkpt><trkpt lat="45.78473374927557" lon="14.032858698708026"><ele>966.0</ele><time>2026-05-01T14:58:10.999Z</time></trkpt><trkpt lat="45.78482045706033" lon="14.032817857199266"><ele>966.0</ele><time>2026-05-01T14:58:11.999Z</time></trkpt><trkpt lat="45.78489504696756" lon="14.032782779864693"><ele>966.0</ele><time>2026-05-01T14:58:12.999Z</time></trkpt><trkpt lat="45.78496919110029" lon="14.032747143129628"><ele>966.0</ele><time>2026-05-01T14:58:13.999Z</time></trkpt><trkpt lat="45.785037375908736" lon="14.032708940454595"><ele>966.0</ele><time>2026-05-01T14:58:14.999Z</time></trkpt><trkpt lat="45.78509207677596" lon="14.032657914960394"><ele>966.0</ele><time>2026-05-01T14:58:15.999Z</time></trkpt><trkpt lat="45.7851957682537" lon="14.032550014642533"><ele>963.0</ele><time>2026-05-01T14:58:17.999Z</time></trkpt><trkpt lat="45.78523378662438" lon="14.032466526842065"><ele>960.0</ele><time>2026-05-01T14:58:18.999Z</time></trkpt><trkpt lat="45.78525262738625" lon="14.032361702371428"><ele>957.0</ele><time>2026-05-01T14:58:19.999Z</time></trkpt><trkpt lat="45.785226003610944" lon="14.032240939794802"><ele>954.0</ele><time>2026-05-01T14:58:20.999Z</time></trkpt><trkpt lat="45.785164992016625" lon="14.032158162673396"><ele>951.0</ele><time>2026-05-01T14:58:21.999Z</time></trkpt><trkpt lat="45.78512379213022" lon="14.032072984612622"><ele>948.0</ele><time>2026-05-01T14:58:22.999Z</time></trkpt><trkpt lat="45.785055783272654" lon="14.032018267398321"><ele>947.9999999999999</ele><time>2026-05-01T14:58:23.999Z</time></trkpt><trkpt lat="45.7849875459028" lon="14.031979515822206"><ele>948.0</ele><time>2026-05-01T14:58:24.999Z</time></trkpt><trkpt lat="45.78492245526961" lon="14.031945726741316"><ele>947.9999999999999</ele><time>2026-05-01T14:58:25.999Z</time></trkpt><trkpt lat="45.78485713640412" lon="14.031917590662646"><ele>947.9999999999999</ele><time>2026-05-01T14:58:26.999Z</time></trkpt><trkpt lat="45.78478979403225" lon="14.031889004232438"><ele>948.0</ele><time>2026-05-01T14:58:27.999Z</time></trkpt><trkpt lat="45.78472360593017" lon="14.031860907751813"><ele>947.9999999999999</ele><time>2026-05-01T14:58:28.999Z</time></trkpt><trkpt lat="45.784660557562326" lon="14.0318308871704"><ele>947.9999999999999</ele><time>2026-05-01T14:58:29.999Z</time></trkpt><trkpt lat="45.78459283562399" lon="14.031796236413637"><ele>947.9999999999999</ele><time>2026-05-01T14:58:30.999Z</time></trkpt><trkpt lat="45.784528421636345" lon="14.031750967214222"><ele>948.0</ele><time>2026-05-01T14:58:31.999Z</time></trkpt><trkpt lat="45.78449059134329" lon="14.031675295545957"><ele>947.9999999999999</ele><time>2026-05-01T14:58:32.999Z</time></trkpt><trkpt lat="45.78446013736272" lon="14.03157485911084"><ele>947.9999999999999</ele><time>2026-05-01T14:58:33.999Z</time></trkpt><trkpt lat="45.78447658829515" lon="14.031458931048501"><ele>948.0</ele><time>2026-05-01T14:58:34.999Z</time></trkpt><trkpt lat="45.78452081338877" lon="14.03136834185355"><ele>947.9999999999999</ele><time>2026-05-01T14:58:35.999Z</time></trkpt><trkpt lat="45.78457778937196" lon="14.031299404633886"><ele>947.9999999999999</ele><time>2026-05-01T14:58:36.999Z</time></trkpt><trkpt lat="45.784647966085934" lon="14.031247387412408"><ele>946.142857142857</ele><time>2026-05-01T14:58:37.999Z</time></trkpt><trkpt lat="45.78469735512501" lon="14.031179389596922"><ele>944.2857142857142</ele><time>2026-05-01T14:58:38.999Z</time></trkpt><trkpt lat="45.78475895569536" lon="14.031120815759822"><ele>942.4285714285714</ele><time>2026-05-01T14:58:39.999Z</time></trkpt><trkpt lat="45.78481977356753" lon="14.031065788868"><ele>940.5714285714286</ele><time>2026-05-01T14:58:40.999Z</time></trkpt><trkpt lat="45.78488185091453" lon="14.03100833030166"><ele>938.7142857142858</ele><time>2026-05-01T14:58:41.999Z</time></trkpt><trkpt lat="45.78494491769824" lon="14.03094630703244"><ele>936.857142857143</ele><time>2026-05-01T14:58:42.999Z</time></trkpt><trkpt lat="45.78500220357794" lon="14.030881151603579"><ele>935.0000000000001</ele><time>2026-05-01T14:58:43.999Z</time></trkpt><trkpt lat="45.78506051007801" lon="14.030810440847048"><ele>933.5000000000001</ele><time>2026-05-01T14:58:44.999Z</time></trkpt><trkpt lat="45.785113938732465" lon="14.030734395973194"><ele>932.0</ele><time>2026-05-01T14:58:45.999Z</time></trkpt><trkpt lat="45.78516997491448" lon="14.030654780193062"><ele>930.5</ele><time>2026-05-01T14:58:46.999Z</time></trkpt><trkpt lat="45.785230505922826" lon="14.030575943104587"><ele>929.0</ele><time>2026-05-01T14:58:47.999Z</time></trkpt><trkpt lat="45.78529506996113" lon="14.030492290319035"><ele>927.5000000000001</ele><time>2026-05-01T14:58:48.999Z</time></trkpt><trkpt lat="45.78535717928118" lon="14.030408853110114"><ele>926.0</ele><time>2026-05-01T14:58:49.999Z</time></trkpt><trkpt lat="45.7854153008892" lon="14.030306778673244"><ele>925.0000000000001</ele><time>2026-05-01T14:58:50.999Z</time></trkpt><trkpt lat="45.78548530512225" lon="14.03021743176742"><ele>924.0</ele><time>2026-05-01T14:58:51.999Z</time></trkpt><trkpt lat="45.7855366270015" lon="14.030100901865206"><ele>923.0</ele><time>2026-05-01T14:58:52.999Z</time></trkpt><trkpt lat="45.78557887669094" lon="14.029986560363842"><ele>922.0</ele><time>2026-05-01T14:58:53.999Z</time></trkpt><trkpt lat="45.78562570070397" lon="14.0298876331268"><ele>921.0000000000001</ele><time>2026-05-01T14:58:54.999Z</time></trkpt><trkpt lat="45.78568628243257" lon="14.02981676888125"><ele>920.0</ele><time>2026-05-01T14:58:55.999Z</time></trkpt><trkpt lat="45.78575877653561" lon="14.029757693385148"><ele>919.4285714285713</ele><time>2026-05-01T14:58:56.999Z</time></trkpt><trkpt lat="45.785820892934986" lon="14.029694196244833"><ele>918.8571428571429</ele><time>2026-05-01T14:58:57.999Z</time></trkpt><trkpt lat="45.785876016263344" lon="14.029626075616108"><ele>918.2857142857142</ele><time>2026-05-01T14:58:58.999Z</time></trkpt><trkpt lat="45.78591359464288" lon="14.029543513621455"><ele>917.7142857142857</ele><time>2026-05-01T14:58:59.999Z</time></trkpt><trkpt lat="45.78595960666146" lon="14.02948136760952"><ele>917.1428571428571</ele><time>2026-05-01T14:59:00.999Z</time></trkpt><trkpt lat="45.785958323485104" lon="14.029378444571211"><ele>916.5714285714286</ele><time>2026-05-01T14:59:01.999Z</time></trkpt><trkpt lat="45.785930234324404" lon="14.029272129145093"><ele>916.0</ele><time>2026-05-01T14:59:02.999Z</time></trkpt><trkpt lat="45.78590148763879" lon="14.029166922177707"><ele>914.4999999999999</ele><time>2026-05-01T14:59:03.999Z</time></trkpt><trkpt lat="45.78586496237669" lon="14.029060151936736"><ele>913.0</ele><time>2026-05-01T14:59:04.999Z</time></trkpt><trkpt lat="45.7858208852624" lon="14.028963867981835"><ele>911.5</ele><time>2026-05-01T14:59:05.999Z</time></trkpt><trkpt lat="45.78576926676061" lon="14.028855487700753"><ele>910.0</ele><time>2026-05-01T14:59:06.999Z</time></trkpt><trkpt lat="45.78570915988685" lon="14.028751991712182"><ele>908.4999999999999</ele><time>2026-05-01T14:59:07.999Z</time></trkpt><trkpt lat="45.785665983626686" lon="14.028627953912046"><ele>907.0</ele><time>2026-05-01T14:59:08.999Z</time></trkpt><trkpt lat="45.78562015809147" lon="14.02852586961826"><ele>906.9999999999999</ele><time>2026-05-01T14:59:09.999Z</time></trkpt><trkpt lat="45.78556980460555" lon="14.028411640344236"><ele>907.0</ele><time>2026-05-01T14:59:10.999Z</time></trkpt><trkpt lat="45.785510240623665" lon="14.028317461589113"><ele>907.0</ele><time>2026-05-01T14:59:11.999Z</time></trkpt><trkpt lat="45.785463895498644" lon="14.028221551246338"><ele>907.0</ele><time>2026-05-01T14:59:12.999Z</time></trkpt><trkpt lat="45.78541997273298" lon="14.028134248700354"><ele>906.9999999999999</ele><time>2026-05-01T14:59:13.999Z</time></trkpt><trkpt lat="45.78537153437241" lon="14.028048473213296"><ele>907.0</ele><time>2026-05-01T14:59:14.999Z</time></trkpt><trkpt lat="45.78530906034752" lon="14.027969600796714"><ele>906.7142857142858</ele><time>2026-05-01T14:59:15.999Z</time></trkpt><trkpt lat="45.7852583627889" lon="14.027892934695085"><ele>906.4285714285714</ele><time>2026-05-01T14:59:16.999Z</time></trkpt><trkpt lat="45.785217311425576" lon="14.027817966713945"><ele>906.1428571428571</ele><time>2026-05-01T14:59:17.999Z</time></trkpt><trkpt lat="45.78516486897378" lon="14.02775134309075"><ele>905.8571428571429</ele><time>2026-05-01T14:59:18.999Z</time></trkpt><trkpt lat="45.78514332659222" lon="14.027654237225471"><ele>905.5714285714284</ele><time>2026-05-01T14:59:19.999Z</time></trkpt><trkpt lat="45.78512242318689" lon="14.027543938633986"><ele>905.2857142857142</ele><time>2026-05-01T14:59:20.999Z</time></trkpt><trkpt lat="45.78512508353502" lon="14.027429829983816"><ele>905.0</ele><time>2026-05-01T14:59:21.999Z</time></trkpt><trkpt lat="45.785135691421964" lon="14.027312503358454"><ele>904.1666666666667</ele><time>2026-05-01T14:59:22.999Z</time></trkpt><trkpt lat="45.78514733931773" lon="14.027187346414737"><ele>903.3333333333334</ele><time>2026-05-01T14:59:23.999Z</time></trkpt><trkpt lat="45.78516197747102" lon="14.027067594927853"><ele>902.5</ele><time>2026-05-01T14:59:24.999Z</time></trkpt><trkpt lat="45.785179168157924" lon="14.026951618691628"><ele>901.6666666666667</ele><time>2026-05-01T14:59:25.999Z</time></trkpt><trkpt lat="45.78519768445507" lon="14.0268400639665"><ele>900.8333333333334</ele><time>2026-05-01T14:59:26.999Z</time></trkpt><trkpt lat="45.78521264627527" lon="14.026733049719574"><ele>900.0</ele><time>2026-05-01T14:59:27.999Z</time></trkpt><trkpt lat="45.78522515430108" lon="14.026633425784308"><ele>897.2857142857144</ele><time>2026-05-01T14:59:28.999Z</time></trkpt><trkpt lat="45.7852283675336" lon="14.026534741724236"><ele>894.5714285714287</ele><time>2026-05-01T14:59:29.999Z</time></trkpt><trkpt lat="45.78521990308516" lon="14.026439430130383"><ele>891.8571428571429</ele><time>2026-05-01T14:59:30.999Z</time></trkpt><trkpt lat="45.785230166191525" lon="14.026343659877474"><ele>889.1428571428572</ele><time>2026-05-01T14:59:31.999Z</time></trkpt><trkpt lat="45.785223777398805" lon="14.026245408041808"><ele>886.4285714285716</ele><time>2026-05-01T14:59:32.999Z</time></trkpt><trkpt lat="45.78525562241472" lon="14.026154393726616"><ele>883.7142857142857</ele><time>2026-05-01T14:59:33.999Z</time></trkpt><trkpt lat="45.78530986998416" lon="14.026074928981282"><ele>881.0</ele><time>2026-05-01T14:59:34.999Z</time></trkpt><trkpt lat="45.78538167678655" lon="14.02599307265936"><ele>881.0000000000001</ele><time>2026-05-01T14:59:35.999Z</time></trkpt><trkpt lat="45.785444686136344" lon="14.025910363239861"><ele>881.0</ele><time>2026-05-01T14:59:36.999Z</time></trkpt><trkpt lat="45.78550532446597" lon="14.025827125094992"><ele>881.0</ele><time>2026-05-01T14:59:37.999Z</time></trkpt><trkpt lat="45.78556317784998" lon="14.025745564643403"><ele>881.0</ele><time>2026-05-01T14:59:38.999Z</time></trkpt><trkpt lat="45.78562723890935" lon="14.025659274534677"><ele>881.0000000000001</ele><time>2026-05-01T14:59:39.999Z</time></trkpt><trkpt lat="45.78569679973557" lon="14.025588109929133"><ele>881.0</ele><time>2026-05-01T14:59:40.999Z</time></trkpt><trkpt lat="45.78577943406517" lon="14.025535769739895"><ele>878.6666666666667</ele><time>2026-05-01T14:59:41.999Z</time></trkpt><trkpt lat="45.785867776380556" lon="14.025552631319847"><ele>876.3333333333334</ele><time>2026-05-01T14:59:42.999Z</time></trkpt><trkpt lat="45.78595740253629" lon="14.025527996869082"><ele>874.0</ele><time>2026-05-01T14:59:43.999Z</time></trkpt><trkpt lat="45.78603633712802" lon="14.025542373149568"><ele>871.6666666666667</ele><time>2026-05-01T14:59:44.999Z</time></trkpt><trkpt lat="45.78611155355139" lon="14.025524945569872"><ele>869.3333333333334</ele><time>2026-05-01T14:59:45.999Z</time></trkpt><trkpt lat="45.78617960383558" lon="14.025472855471762"><ele>867.0</ele><time>2026-05-01T14:59:46.999Z</time></trkpt><trkpt lat="45.78623193462001" lon="14.025392655513269"><ele>865.6666666666666</ele><time>2026-05-01T14:59:47.999Z</time></trkpt><trkpt lat="45.786292357376816" lon="14.025308590163363"><ele>864.3333333333333</ele><time>2026-05-01T14:59:48.999Z</time></trkpt><trkpt lat="45.78636470363275" lon="14.025270772883497"><ele>863.0</ele><time>2026-05-01T14:59:49.999Z</time></trkpt><trkpt lat="45.786454036147724" lon="14.025270710522895"><ele>861.6666666666666</ele><time>2026-05-01T14:59:50.999Z</time></trkpt><trkpt lat="45.78653777587589" lon="14.025285513562514"><ele>860.3333333333333</ele><time>2026-05-01T14:59:51.999Z</time></trkpt><trkpt lat="45.78661949809211" lon="14.025290805661488"><ele>859.0</ele><time>2026-05-01T14:59:52.999Z</time></trkpt><trkpt lat="45.786698495484586" lon="14.025284026437307"><ele>858.9999999999999</ele><time>2026-05-01T14:59:53.999Z</time></trkpt><trkpt lat="45.78676402272545" lon="14.025295219414492"><ele>859.0</ele><time>2026-05-01T14:59:54.999Z</time></trkpt><trkpt lat="45.78682877095388" lon="14.025291987758107"><ele>859.0</ele><time>2026-05-01T14:59:55.999Z</time></trkpt><trkpt lat="45.786897756163626" lon="14.025293646463217"><ele>859.0</ele><time>2026-05-01T14:59:56.999Z</time></trkpt><trkpt lat="45.78696856288788" lon="14.025213940496664"><ele>859.0</ele><time>2026-05-01T14:59:57.999Z</time></trkpt><trkpt lat="45.787027793179874" lon="14.02514605438247"><ele>858.9999999999999</ele><time>2026-05-01T14:59:58.999Z</time></trkpt><trkpt lat="45.78708811907906" lon="14.025081047220151"><ele>859.0</ele><time>2026-05-01T14:59:59.999Z</time></trkpt><trkpt lat="45.78715277792302" lon="14.025019741969828"><ele>857.1666666666666</ele><time>2026-05-01T15:00:00.999Z</time></trkpt><trkpt lat="45.78722165546762" lon="14.024985761554413"><ele>855.3333333333333</ele><time>2026-05-01T15:00:01.999Z</time></trkpt><trkpt lat="45.787299525847345" lon="14.025044763699794"><ele>853.5</ele><time>2026-05-01T15:00:02.999Z</time></trkpt><trkpt lat="45.78736920323878" lon="14.025029625491731"><ele>851.6666666666667</ele><time>2026-05-01T15:00:03.999Z</time></trkpt><trkpt lat="45.787453504744164" lon="14.025019532610083"><ele>849.8333333333334</ele><time>2026-05-01T15:00:04.999Z</time></trkpt><trkpt lat="45.78752325671325" lon="14.02491289221963"><ele>848.0</ele><time>2026-05-01T15:00:05.999Z</time></trkpt><trkpt lat="45.78759770751424" lon="14.024817905609252"><ele>848.0000000000001</ele><time>2026-05-01T15:00:06.999Z</time></trkpt><trkpt lat="45.787667486974044" lon="14.024750430253356"><ele>848.0</ele><time>2026-05-01T15:00:07.999Z</time></trkpt><trkpt lat="45.787741428651344" lon="14.0247126483203"><ele>848.0</ele><time>2026-05-01T15:00:08.999Z</time></trkpt><trkpt lat="45.78781829637546" lon="14.024695102927728"><ele>848.0</ele><time>2026-05-01T15:00:09.999Z</time></trkpt><trkpt lat="45.787892998285315" lon="14.024693461987"><ele>848.0000000000001</ele><time>2026-05-01T15:00:10.999Z</time></trkpt><trkpt lat="45.78797389481343" lon="14.024640292690831"><ele>848.0</ele><time>2026-05-01T15:00:11.999Z</time></trkpt><trkpt lat="45.788014852169454" lon="14.024517865256897"><ele>844.8333333333334</ele><time>2026-05-01T15:00:12.999Z</time></trkpt><trkpt lat="45.78807932306416" lon="14.024437691477335"><ele>841.6666666666667</ele><time>2026-05-01T15:00:13.999Z</time></trkpt><trkpt lat="45.7881561656104" lon="14.024427878044833"><ele>838.5</ele><time>2026-05-01T15:00:14.999Z</time></trkpt><trkpt lat="45.78823814422008" lon="14.024497212300979"><ele>835.3333333333333</ele><time>2026-05-01T15:00:15.999Z</time></trkpt><trkpt lat="45.788312757412115" lon="14.024491284812827"><ele>832.1666666666666</ele><time>2026-05-01T15:00:16.999Z</time></trkpt><trkpt lat="45.78839879336173" lon="14.024481799035069"><ele>829.0</ele><time>2026-05-01T15:00:17.999Z</time></trkpt><trkpt lat="45.78846316312304" lon="14.024341450918639"><ele>825.8000000000001</ele><time>2026-05-01T15:00:18.999Z</time></trkpt><trkpt lat="45.78852823219018" lon="14.024241847879553"><ele>822.6</ele><time>2026-05-01T15:00:19.999Z</time></trkpt><trkpt lat="45.788610435970156" lon="14.02419932760713"><ele>819.4</ele><time>2026-05-01T15:00:20.999Z</time></trkpt><trkpt lat="45.788690495907936" lon="14.024140364999669"><ele>816.2</ele><time>2026-05-01T15:00:21.999Z</time></trkpt><trkpt lat="45.788774500672595" lon="14.024078130143751"><ele>813.0</ele><time>2026-05-01T15:00:22.999Z</time></trkpt><trkpt lat="45.78883127777018" lon="14.023985065460883"><ele>813.0</ele><time>2026-05-01T15:00:23.999Z</time></trkpt><trkpt lat="45.78889466452054" lon="14.023887315182973"><ele>813.0</ele><time>2026-05-01T15:00:24.999Z</time></trkpt><trkpt lat="45.7889606148308" lon="14.023805786568852"><ele>813.0</ele><time>2026-05-01T15:00:25.999Z</time></trkpt><trkpt lat="45.7890123634426" lon="14.023719277972042"><ele>813.0</ele><time>2026-05-01T15:00:26.999Z</time></trkpt><trkpt lat="45.78905947576271" lon="14.023640520327428"><ele>813.0</ele><time>2026-05-01T15:00:27.999Z</time></trkpt><trkpt lat="45.78910558853458" lon="14.023563433272734"><ele>813.0</ele><time>2026-05-01T15:00:28.999Z</time></trkpt><trkpt lat="45.789150012518355" lon="14.023489169713281"><ele>813.0</ele><time>2026-05-01T15:00:29.999Z</time></trkpt><trkpt lat="45.789199022440165" lon="14.023407239684426"><ele>813.0</ele><time>2026-05-01T15:00:30.999Z</time></trkpt><trkpt lat="45.789292808990936" lon="14.023254070175177"><ele>813.0</ele><time>2026-05-01T15:00:32.999Z</time></trkpt><trkpt lat="45.78937307635652" lon="14.023132730874641"><ele>813.0</ele><time>2026-05-01T15:00:33.999Z</time></trkpt><trkpt lat="45.78946218751218" lon="14.023010859614406"><ele>810.4</ele><time>2026-05-01T15:00:34.999Z</time></trkpt><trkpt lat="45.789536858633" lon="14.022913034711655"><ele>807.8</ele><time>2026-05-01T15:00:35.999Z</time></trkpt><trkpt lat="45.78960397909003" lon="14.022819268264321"><ele>805.2</ele><time>2026-05-01T15:00:36.999Z</time></trkpt><trkpt lat="45.78965251965513" lon="14.022719930226986"><ele>802.6</ele><time>2026-05-01T15:00:37.999Z</time></trkpt><trkpt lat="45.789719844044626" lon="14.02263647222314"><ele>800.0</ele><time>2026-05-01T15:00:38.999Z</time></trkpt><trkpt lat="45.7897813896972" lon="14.022554772551445"><ele>800.0</ele><time>2026-05-01T15:00:39.999Z</time></trkpt><trkpt lat="45.789850894997386" lon="14.022519197984865"><ele>800.0</ele><time>2026-05-01T15:00:40.999Z</time></trkpt><trkpt lat="45.78994110760402" lon="14.022491325370265"><ele>800.0</ele><time>2026-05-01T15:00:41.999Z</time></trkpt><trkpt lat="45.790051316856854" lon="14.02244146550422"><ele>800.0</ele><time>2026-05-01T15:00:42.999Z</time></trkpt><trkpt lat="45.79013958260652" lon="14.022371013931764"><ele>800.0</ele><time>2026-05-01T15:00:43.999Z</time></trkpt><trkpt lat="45.7902223531687" lon="14.022321048307981"><ele>800.4</ele><time>2026-05-01T15:00:44.999Z</time></trkpt><trkpt lat="45.790302341529745" lon="14.022276848183983"><ele>800.8</ele><time>2026-05-01T15:00:45.999Z</time></trkpt><trkpt lat="45.79040435550368" lon="14.022241555656786"><ele>801.2</ele><time>2026-05-01T15:00:46.999Z</time></trkpt><trkpt lat="45.79049533152566" lon="14.022167604229757"><ele>801.6</ele><time>2026-05-01T15:00:47.999Z</time></trkpt><trkpt lat="45.790585879297275" lon="14.022117173475879"><ele>802.0</ele><time>2026-05-01T15:00:48.999Z</time></trkpt><trkpt lat="45.79067920659869" lon="14.022064933427586"><ele>802.0</ele><time>2026-05-01T15:00:49.999Z</time></trkpt><trkpt lat="45.79077420598256" lon="14.02201636945104"><ele>802.0</ele><time>2026-05-01T15:00:50.999Z</time></trkpt><trkpt lat="45.79086187583494" lon="14.02196521660714"><ele>802.0</ele><time>2026-05-01T15:00:51.999Z</time></trkpt><trkpt lat="45.79094913443555" lon="14.021941650050143"><ele>802.0</ele><time>2026-05-01T15:00:52.999Z</time></trkpt><trkpt lat="45.791031826594605" lon="14.02189855285681"><ele>802.0</ele><time>2026-05-01T15:00:53.999Z</time></trkpt><trkpt lat="45.79110367049717" lon="14.02183740505846"><ele>798.8</ele><time>2026-05-01T15:00:54.999Z</time></trkpt><trkpt lat="45.79118487500681" lon="14.021801341040995"><ele>795.6</ele><time>2026-05-01T15:00:55.999Z</time></trkpt><trkpt lat="45.7912681853846" lon="14.021769723059029"><ele>792.4</ele><time>2026-05-01T15:00:56.999Z</time></trkpt><trkpt lat="45.791364386291384" lon="14.021746627962216"><ele>789.1999999999999</ele><time>2026-05-01T15:00:57.999Z</time></trkpt><trkpt lat="45.79145217974411" lon="14.02171542015816"><ele>786.0</ele><time>2026-05-01T15:00:58.999Z</time></trkpt><trkpt lat="45.79153721235304" lon="14.02166395338286"><ele>785.8333333333334</ele><time>2026-05-01T15:00:59.999Z</time></trkpt><trkpt lat="45.791606194981014" lon="14.0216181269807"><ele>785.6666666666667</ele><time>2026-05-01T15:01:00.999Z</time></trkpt><trkpt lat="45.79167694155751" lon="14.02158686676534"><ele>785.5</ele><time>2026-05-01T15:01:01.999Z</time></trkpt><trkpt lat="45.79175495489347" lon="14.02155119056592"><ele>785.3333333333334</ele><time>2026-05-01T15:01:02.999Z</time></trkpt><trkpt lat="45.79181982060942" lon="14.021510345475768"><ele>785.1666666666667</ele><time>2026-05-01T15:01:03.999Z</time></trkpt><trkpt lat="45.79188697960664" lon="14.021467548609618"><ele>785.0</ele><time>2026-05-01T15:01:04.999Z</time></trkpt><trkpt lat="45.79195676692117" lon="14.021425649532771"><ele>785.0000000000001</ele><time>2026-05-01T15:01:05.999Z</time></trkpt><trkpt lat="45.79201706396094" lon="14.021380091803282"><ele>785.0</ele><time>2026-05-01T15:01:06.999Z</time></trkpt><trkpt lat="45.79208373364115" lon="14.021353561736209"><ele>785.0</ele><time>2026-05-01T15:01:07.999Z</time></trkpt><trkpt lat="45.7921444717091" lon="14.021309320244532"><ele>785.0</ele><time>2026-05-01T15:01:08.999Z</time></trkpt><trkpt lat="45.7922294440718" lon="14.021239944983956"><ele>785.0000000000001</ele><time>2026-05-01T15:01:10.999Z</time></trkpt><trkpt lat="45.79222063947632" lon="14.021363167733059"><ele>785.0</ele><time>2026-05-01T15:01:15.999Z</time></trkpt><trkpt lat="45.79214792302408" lon="14.021382366892933"><ele>785.0000000000001</ele><time>2026-05-01T15:01:17.999Z</time></trkpt><trkpt lat="45.792075269063744" lon="14.021430436652148"><ele>785.0</ele><time>2026-05-01T15:01:19.999Z</time></trkpt><trkpt lat="45.792017259594765" lon="14.02151343983927"><ele>785.0</ele><time>2026-05-01T15:01:21.999Z</time></trkpt><trkpt lat="45.79195711229188" lon="14.021587338155793"><ele>785.0</ele><time>2026-05-01T15:01:22.999Z</time></trkpt><trkpt lat="45.79188336915191" lon="14.021669338541242"><ele>785.0000000000001</ele><time>2026-05-01T15:01:23.999Z</time></trkpt><trkpt lat="45.79179905560082" lon="14.021771843373203"><ele>785.0</ele><time>2026-05-01T15:01:24.999Z</time></trkpt><trkpt lat="45.79171136037393" lon="14.021843537123733"><ele>785.1428571428572</ele><time>2026-05-01T15:01:25.999Z</time></trkpt><trkpt lat="45.79166091372649" lon="14.021935605517422"><ele>785.2857142857142</ele><time>2026-05-01T15:01:26.999Z</time></trkpt><trkpt lat="45.791608275975385" lon="14.022013717947805"><ele>785.4285714285714</ele><time>2026-05-01T15:01:27.999Z</time></trkpt><trkpt lat="45.79156943446824" lon="14.022102075001227"><ele>785.5714285714287</ele><time>2026-05-01T15:01:28.999Z</time></trkpt><trkpt lat="45.79153425549407" lon="14.022179802708656"><ele>785.7142857142858</ele><time>2026-05-01T15:01:29.999Z</time></trkpt><trkpt lat="45.791493562288245" lon="14.022257109978728"><ele>785.8571428571429</ele><time>2026-05-01T15:01:30.999Z</time></trkpt><trkpt lat="45.7914994395957" lon="14.022356657373345"><ele>786.0</ele><time>2026-05-01T15:01:31.999Z</time></trkpt><trkpt lat="45.79152586388296" lon="14.022538557331234"><ele>783.25</ele><time>2026-05-01T15:01:33.999Z</time></trkpt><trkpt lat="45.79156326718532" lon="14.022627462444316"><ele>780.5</ele><time>2026-05-01T15:01:34.999Z</time></trkpt><trkpt lat="45.79163253729023" lon="14.022734417539771"><ele>777.75</ele><time>2026-05-01T15:01:35.999Z</time></trkpt><trkpt lat="45.79173789245917" lon="14.022864325905303"><ele>775.0</ele><time>2026-05-01T15:01:36.999Z</time></trkpt><trkpt lat="45.791809698981055" lon="14.023030901387958"><ele>774.5</ele><time>2026-05-01T15:01:37.999Z</time></trkpt><trkpt lat="45.791852493459054" lon="14.023199164518859"><ele>774.0</ele><time>2026-05-01T15:01:38.999Z</time></trkpt><trkpt lat="45.79187638622202" lon="14.023356888277956"><ele>773.5</ele><time>2026-05-01T15:01:39.999Z</time></trkpt><trkpt lat="45.791850067925864" lon="14.023564310310833"><ele>773.0</ele><time>2026-05-01T15:01:40.999Z</time></trkpt><trkpt lat="45.791774010091494" lon="14.0237518662333"><ele>773.0</ele><time>2026-05-01T15:01:41.999Z</time></trkpt><trkpt lat="45.79167311881772" lon="14.023926699611895"><ele>773.0</ele><time>2026-05-01T15:01:42.999Z</time></trkpt><trkpt lat="45.791542739735455" lon="14.024048105867363"><ele>773.0</ele><time>2026-05-01T15:01:43.999Z</time></trkpt><trkpt lat="45.791425271829745" lon="14.024167887341262"><ele>773.5</ele><time>2026-05-01T15:01:44.999Z</time></trkpt><trkpt lat="45.79133858537503" lon="14.024307193696602"><ele>774.0</ele><time>2026-05-01T15:01:45.999Z</time></trkpt><trkpt lat="45.79128613886839" lon="14.024443965148313"><ele>774.5</ele><time>2026-05-01T15:01:46.999Z</time></trkpt><trkpt lat="45.79125782046885" lon="14.02460576184704"><ele>775.0</ele><time>2026-05-01T15:01:47.999Z</time></trkpt><trkpt lat="45.79125430611187" lon="14.024778219972589"><ele>776.0</ele><time>2026-05-01T15:01:48.999Z</time></trkpt><trkpt lat="45.791268403581185" lon="14.02498225800052"><ele>777.0</ele><time>2026-05-01T15:01:49.999Z</time></trkpt><trkpt lat="45.791302101835136" lon="14.025267639101274"><ele>778.0</ele><time>2026-05-01T15:01:50.999Z</time></trkpt><trkpt lat="45.791306383359405" lon="14.025475648088465"><ele>777.9999999999999</ele><time>2026-05-01T15:01:51.999Z</time></trkpt><trkpt lat="45.79127639219359" lon="14.02562975124251"><ele>778.0</ele><time>2026-05-01T15:01:52.999Z</time></trkpt><trkpt lat="45.79126094692975" lon="14.025757803531222"><ele>778.0</ele><time>2026-05-01T15:01:53.999Z</time></trkpt><trkpt lat="45.79120774657685" lon="14.025830396930102"><ele>778.0</ele><time>2026-05-01T15:01:54.999Z</time></trkpt><trkpt lat="45.79111619484669" lon="14.025843019486318"><ele>777.9999999999999</ele><time>2026-05-01T15:01:55.999Z</time></trkpt><trkpt lat="45.79104033638278" lon="14.025843515501627"><ele>778.0</ele><time>2026-05-01T15:01:56.999Z</time></trkpt><trkpt lat="45.79096380856732" lon="14.02584821862667"><ele>778.3333333333333</ele><time>2026-05-01T15:01:57.999Z</time></trkpt><trkpt lat="45.79089137608762" lon="14.025842503558819"><ele>778.6666666666666</ele><time>2026-05-01T15:01:58.999Z</time></trkpt><trkpt lat="45.79081450956471" lon="14.025830443511632"><ele>779.0</ele><time>2026-05-01T15:01:59.999Z</time></trkpt><trkpt lat="45.79073496388767" lon="14.025808970346457"><ele>779.3333333333333</ele><time>2026-05-01T15:02:00.999Z</time></trkpt><trkpt lat="45.790672340362825" lon="14.025824714147728"><ele>779.6666666666666</ele><time>2026-05-01T15:02:01.999Z</time></trkpt><trkpt lat="45.790556520741035" lon="14.025839361480324"><ele>780.0</ele><time>2026-05-01T15:02:03.999Z</time></trkpt><trkpt lat="45.79048675752381" lon="14.025962379005772"><ele>782.1666666666666</ele><time>2026-05-01T15:02:05.999Z</time></trkpt><trkpt lat="45.79048234288773" lon="14.026134657896701"><ele>784.3333333333333</ele><time>2026-05-01T15:02:07.999Z</time></trkpt><trkpt lat="45.79048780619542" lon="14.02626491684636"><ele>786.5</ele><time>2026-05-01T15:02:09.999Z</time></trkpt><trkpt lat="45.790518947300804" lon="14.026343410752686"><ele>788.6666666666666</ele><time>2026-05-01T15:02:10.999Z</time></trkpt><trkpt lat="45.790532573285766" lon="14.026447547585976"><ele>790.8333333333333</ele><time>2026-05-01T15:02:11.999Z</time></trkpt><trkpt lat="45.790562272991934" lon="14.026550897469638"><ele>793.0</ele><time>2026-05-01T15:02:12.999Z</time></trkpt><trkpt lat="45.79061919083634" lon="14.02664216225622"><ele>794.8333333333333</ele><time>2026-05-01T15:02:13.999Z</time></trkpt><trkpt lat="45.79066117261759" lon="14.026744343718518"><ele>796.6666666666666</ele><time>2026-05-01T15:02:14.999Z</time></trkpt><trkpt lat="45.79070076150898" lon="14.026833810294267"><ele>798.5</ele><time>2026-05-01T15:02:15.999Z</time></trkpt><trkpt lat="45.790738897503374" lon="14.026927117108837"><ele>800.3333333333333</ele><time>2026-05-01T15:02:16.999Z</time></trkpt><trkpt lat="45.790785073493" lon="14.027019848023691"><ele>802.1666666666666</ele><time>2026-05-01T15:02:17.999Z</time></trkpt><trkpt lat="45.790838080738226" lon="14.027119017965505"><ele>804.0</ele><time>2026-05-01T15:02:18.999Z</time></trkpt><trkpt lat="45.79089817900198" lon="14.027215788223963"><ele>804.0</ele><time>2026-05-01T15:02:19.999Z</time></trkpt><trkpt lat="45.79094885230269" lon="14.027335335515554"><ele>804.0</ele><time>2026-05-01T15:02:20.999Z</time></trkpt><trkpt lat="45.791015658305604" lon="14.027450091980667"><ele>804.0</ele><time>2026-05-01T15:02:21.999Z</time></trkpt><trkpt lat="45.79108778694125" lon="14.027572711588737"><ele>804.0</ele><time>2026-05-01T15:02:22.999Z</time></trkpt><trkpt lat="45.79116099785195" lon="14.027693788498954"><ele>804.0</ele><time>2026-05-01T15:02:23.999Z</time></trkpt><trkpt lat="45.79123401995395" lon="14.027806603569653"><ele>804.6</ele><time>2026-05-01T15:02:24.999Z</time></trkpt><trkpt lat="45.79131672977837" lon="14.027881476755802"><ele>805.2</ele><time>2026-05-01T15:02:25.999Z</time></trkpt><trkpt lat="45.7913956675156" lon="14.02793873891846"><ele>805.8000000000001</ele><time>2026-05-01T15:02:26.999Z</time></trkpt><trkpt lat="45.79152066062651" lon="14.027963733960249"><ele>806.4000000000001</ele><time>2026-05-01T15:02:28.999Z</time></trkpt><trkpt lat="45.79155960285001" lon="14.028063014193489"><ele>807.0</ele><time>2026-05-01T15:02:29.999Z</time></trkpt><trkpt lat="45.79149597218224" lon="14.028131558397202"><ele>807.0</ele><time>2026-05-01T15:02:30.999Z</time></trkpt><trkpt lat="45.791357719836256" lon="14.02809375959317"><ele>807.0</ele><time>2026-05-01T15:02:32.999Z</time></trkpt><trkpt lat="45.791252422116756" lon="14.028093499354695"><ele>807.0</ele><time>2026-05-01T15:02:33.999Z</time></trkpt><trkpt lat="45.79113346596004" lon="14.028087686620943"><ele>807.0</ele><time>2026-05-01T15:02:34.999Z</time></trkpt><trkpt lat="45.79100335223002" lon="14.028077323204917"><ele>808.4000000000001</ele><time>2026-05-01T15:02:35.999Z</time></trkpt><trkpt lat="45.79087663134073" lon="14.028061119059126"><ele>809.8000000000001</ele><time>2026-05-01T15:02:36.999Z</time></trkpt><trkpt lat="45.790773451016136" lon="14.028044319353665"><ele>811.2</ele><time>2026-05-01T15:02:37.999Z</time></trkpt><trkpt lat="45.79070077873046" lon="14.02803995061789"><ele>812.6</ele><time>2026-05-01T15:02:38.999Z</time></trkpt><trkpt lat="45.790641180784206" lon="14.028070014599352"><ele>814.0</ele><time>2026-05-01T15:02:39.999Z</time></trkpt><trkpt lat="45.79061828301045" lon="14.028226063013777"><ele>814.0</ele><time>2026-05-01T15:02:41.999Z</time></trkpt><trkpt lat="45.79067287249573" lon="14.028296584560298"><ele>814.0</ele><time>2026-05-01T15:02:42.999Z</time></trkpt><trkpt lat="45.79075276028424" lon="14.028327645831052"><ele>814.0</ele><time>2026-05-01T15:02:43.999Z</time></trkpt><trkpt lat="45.79085597722697" lon="14.028333057403984"><ele>814.0</ele><time>2026-05-01T15:02:44.999Z</time></trkpt><trkpt lat="45.79095981726895" lon="14.028360246266354"><ele>814.0</ele><time>2026-05-01T15:02:45.999Z</time></trkpt><trkpt lat="45.79107767577461" lon="14.028414072858487"><ele>819.0</ele><time>2026-05-01T15:02:46.999Z</time></trkpt><trkpt lat="45.7912080788884" lon="14.02849917434425"><ele>824.0</ele><time>2026-05-01T15:02:47.999Z</time></trkpt><trkpt lat="45.79134216641663" lon="14.028565541200773"><ele>829.0</ele><time>2026-05-01T15:02:48.999Z</time></trkpt><trkpt lat="45.79150834471703" lon="14.028591322518583"><ele>829.0</ele><time>2026-05-01T15:02:49.999Z</time></trkpt><trkpt lat="45.791703595453946" lon="14.028631077966208"><ele>829.0</ele><time>2026-05-01T15:02:50.999Z</time></trkpt><trkpt lat="45.791875983702035" lon="14.028672397247036"><ele>829.0</ele><time>2026-05-01T15:02:51.999Z</time></trkpt><trkpt lat="45.79208813450206" lon="14.02876231065354"><ele>828.5</ele><time>2026-05-01T15:02:52.999Z</time></trkpt><trkpt lat="45.792305649802174" lon="14.028895440420069"><ele>828.0</ele><time>2026-05-01T15:02:53.999Z</time></trkpt><trkpt lat="45.79252849871003" lon="14.029015577655564"><ele>827.3333333333333</ele><time>2026-05-01T15:02:54.999Z</time></trkpt><trkpt lat="45.79271696879287" lon="14.029104089822749"><ele>826.6666666666666</ele><time>2026-05-01T15:02:55.999Z</time></trkpt><trkpt lat="45.79288589698193" lon="14.029183912876023"><ele>826.0</ele><time>2026-05-01T15:02:56.999Z</time></trkpt><trkpt lat="45.79304642199825" lon="14.029249087640842"><ele>834.6666666666666</ele><time>2026-05-01T15:02:57.999Z</time></trkpt><trkpt lat="45.79321102338205" lon="14.029294793999131"><ele>843.3333333333333</ele><time>2026-05-01T15:02:58.999Z</time></trkpt><trkpt lat="45.79336624718309" lon="14.029329183046917"><ele>852.0</ele><time>2026-05-01T15:02:59.999Z</time></trkpt><trkpt lat="45.79352570387294" lon="14.029345746109827"><ele>855.6666666666667</ele><time>2026-05-01T15:03:00.999Z</time></trkpt><trkpt lat="45.7936874932215" lon="14.029343177224542"><ele>859.3333333333334</ele><time>2026-05-01T15:03:01.999Z</time></trkpt><trkpt lat="45.79386172430481" lon="14.029350613230173"><ele>863.0</ele><time>2026-05-01T15:03:02.999Z</time></trkpt><trkpt lat="45.7940399808251" lon="14.02937722769564"><ele>863.0</ele><time>2026-05-01T15:03:03.999Z</time></trkpt><trkpt lat="45.79421152542191" lon="14.029409460860261"><ele>863.0</ele><time>2026-05-01T15:03:04.999Z</time></trkpt><trkpt lat="45.794381189457894" lon="14.029432696672988"><ele>863.0</ele><time>2026-05-01T15:03:05.999Z</time></trkpt><trkpt lat="45.794552470449474" lon="14.029436663992177"><ele>867.5</ele><time>2026-05-01T15:03:06.999Z</time></trkpt><trkpt lat="45.79472620569082" lon="14.029421182565384"><ele>872.0</ele><time>2026-05-01T15:03:07.999Z</time></trkpt><trkpt lat="45.79506677342663" lon="14.029421134976264"><ele>878.0</ele><time>2026-05-01T15:03:09.999Z</time></trkpt><trkpt lat="45.79523731892106" lon="14.029425621750176"><ele>884.0</ele><time>2026-05-01T15:03:10.999Z</time></trkpt><trkpt lat="45.79539589932032" lon="14.029407322698216"><ele>890.0</ele><time>2026-05-01T15:03:11.999Z</time></trkpt><trkpt lat="45.79553785832601" lon="14.029413523976393"><ele>890.0</ele><time>2026-05-01T15:03:12.999Z</time></trkpt><trkpt lat="45.79567332339423" lon="14.029322095818044"><ele>890.0</ele><time>2026-05-01T15:03:13.999Z</time></trkpt><trkpt lat="45.795790383086" lon="14.029235869581397"><ele>890.0</ele><time>2026-05-01T15:03:14.999Z</time></trkpt><trkpt lat="45.795890597339785" lon="14.02919642869506"><ele>890.0</ele><time>2026-05-01T15:03:15.999Z</time></trkpt><trkpt lat="45.795965469448085" lon="14.02915303258906"><ele>891.0</ele><time>2026-05-01T15:03:16.999Z</time></trkpt><trkpt lat="45.79604253560904" lon="14.029092493505809"><ele>892.0</ele><time>2026-05-01T15:03:18.999Z</time></trkpt><trkpt lat="45.79614753664358" lon="14.028960296654652"><ele>893.0</ele><time>2026-05-01T15:03:20.999Z</time></trkpt><trkpt lat="45.79620991187169" lon="14.028865925422652"><ele>894.0</ele><time>2026-05-01T15:03:21.999Z</time></trkpt><trkpt lat="45.79628601929761" lon="14.028749583985894"><ele>895.0</ele><time>2026-05-01T15:03:22.999Z</time></trkpt><trkpt lat="45.79636446837233" lon="14.028597876233972"><ele>895.0</ele><time>2026-05-01T15:03:23.999Z</time></trkpt><trkpt lat="45.7964903354028" lon="14.028422135077895"><ele>895.0</ele><time>2026-05-01T15:03:24.999Z</time></trkpt><trkpt lat="45.796642147156966" lon="14.028212796444329"><ele>895.0</ele><time>2026-05-01T15:03:25.999Z</time></trkpt><trkpt lat="45.796799115199036" lon="14.028022583250465"><ele>896.3333333333333</ele><time>2026-05-01T15:03:26.999Z</time></trkpt><trkpt lat="45.79692598832324" lon="14.02785966032981"><ele>897.6666666666667</ele><time>2026-05-01T15:03:27.999Z</time></trkpt><trkpt lat="45.797046728972575" lon="14.027707315361006"><ele>899.0</ele><time>2026-05-01T15:03:28.999Z</time></trkpt><trkpt lat="45.79715913389308" lon="14.027549094755269"><ele>893.25</ele><time>2026-05-01T15:03:29.999Z</time></trkpt><trkpt lat="45.7972768338624" lon="14.02741555360316"><ele>887.5</ele><time>2026-05-01T15:03:30.999Z</time></trkpt><trkpt lat="45.797388641184284" lon="14.027290392438571"><ele>881.75</ele><time>2026-05-01T15:03:31.999Z</time></trkpt><trkpt lat="45.79751045658815" lon="14.027165714709996"><ele>876.0</ele><time>2026-05-01T15:03:32.999Z</time></trkpt><trkpt lat="45.79764103013477" lon="14.027047082589922"><ele>882.6666666666667</ele><time>2026-05-01T15:03:33.999Z</time></trkpt><trkpt lat="45.79777160224952" lon="14.026944538441203"><ele>889.3333333333334</ele><time>2026-05-01T15:03:34.999Z</time></trkpt><trkpt lat="45.79791092093084" lon="14.026840605355874"><ele>896.0</ele><time>2026-05-01T15:03:35.999Z</time></trkpt><trkpt lat="45.79805159648903" lon="14.026747184567622"><ele>896.0</ele><time>2026-05-01T15:03:36.999Z</time></trkpt><trkpt lat="45.79819961099808" lon="14.026656837147556"><ele>896.0</ele><time>2026-05-01T15:03:37.999Z</time></trkpt><trkpt lat="45.79834537275957" lon="14.026578786813008"><ele>896.0</ele><time>2026-05-01T15:03:38.999Z</time></trkpt><trkpt lat="45.79848825410168" lon="14.026503780329605"><ele>893.0</ele><time>2026-05-01T15:03:39.999Z</time></trkpt><trkpt lat="45.798633842734134" lon="14.02641643701"><ele>890.0</ele><time>2026-05-01T15:03:40.999Z</time></trkpt><trkpt lat="45.79878015950817" lon="14.026319255775864"><ele>887.0</ele><time>2026-05-01T15:03:41.999Z</time></trkpt><trkpt lat="45.798922165619935" lon="14.026214320987"><ele>887.0</ele><time>2026-05-01T15:03:42.999Z</time></trkpt><trkpt lat="45.79905362603306" lon="14.026111753220858"><ele>887.0</ele><time>2026-05-01T15:03:43.999Z</time></trkpt><trkpt lat="45.79918193616474" lon="14.025993996640995"><ele>887.0</ele><time>2026-05-01T15:03:44.999Z</time></trkpt><trkpt lat="45.79930498148653" lon="14.025855897414258"><ele>886.6666666666667</ele><time>2026-05-01T15:03:45.999Z</time></trkpt><trkpt lat="45.79942656225778" lon="14.025701255943266"><ele>886.3333333333333</ele><time>2026-05-01T15:03:46.999Z</time></trkpt><trkpt lat="45.79955475503803" lon="14.025554774237607"><ele>886.0</ele><time>2026-05-01T15:03:47.999Z</time></trkpt><trkpt lat="45.799685701476534" lon="14.02542189701783"><ele>886.0</ele><time>2026-05-01T15:03:48.999Z</time></trkpt><trkpt lat="45.799807902360875" lon="14.025299341686472"><ele>886.0</ele><time>2026-05-01T15:03:49.999Z</time></trkpt><trkpt lat="45.799927393774034" lon="14.025179931868779"><ele>886.0</ele><time>2026-05-01T15:03:50.999Z</time></trkpt><trkpt lat="45.80004346422388" lon="14.025044917401134"><ele>886.0</ele><time>2026-05-01T15:03:51.999Z</time></trkpt><trkpt lat="45.80015931058109" lon="14.024882191167851"><ele>888.6666666666666</ele><time>2026-05-01T15:03:52.999Z</time></trkpt><trkpt lat="45.80028953858166" lon="14.02467020375365"><ele>891.3333333333333</ele><time>2026-05-01T15:03:53.999Z</time></trkpt><trkpt lat="45.800434277245024" lon="14.02439782546308"><ele>894.0</ele><time>2026-05-01T15:03:54.999Z</time></trkpt><trkpt lat="45.800598182837426" lon="14.024111884112926"><ele>884.5</ele><time>2026-05-01T15:03:55.999Z</time></trkpt><trkpt lat="45.80077025404828" lon="14.023838462313552"><ele>875.0</ele><time>2026-05-01T15:03:56.999Z</time></trkpt><trkpt lat="45.80092854668048" lon="14.023607116920273"><ele>875.6666666666667</ele><time>2026-05-01T15:03:57.999Z</time></trkpt><trkpt lat="45.801055204471595" lon="14.023393214905868"><ele>876.3333333333333</ele><time>2026-05-01T15:03:58.999Z</time></trkpt><trkpt lat="45.801204797020766" lon="14.023212297402525"><ele>877.0</ele><time>2026-05-01T15:03:59.999Z</time></trkpt><trkpt lat="45.80133636787869" lon="14.023043239042202"><ele>877.0</ele><time>2026-05-01T15:04:00.999Z</time></trkpt><trkpt lat="45.801457248673685" lon="14.022925597815131"><ele>877.0</ele><time>2026-05-01T15:04:01.999Z</time></trkpt><trkpt lat="45.801590923052984" lon="14.022884993196639"><ele>877.0</ele><time>2026-05-01T15:04:02.999Z</time></trkpt><trkpt lat="45.801738776406836" lon="14.02281358329597"><ele>877.0</ele><time>2026-05-01T15:04:03.999Z</time></trkpt><trkpt lat="45.801894622612636" lon="14.022698951774302"><ele>878.3333333333333</ele><time>2026-05-01T15:04:04.999Z</time></trkpt><trkpt lat="45.80207210516721" lon="14.022593970631622"><ele>879.6666666666667</ele><time>2026-05-01T15:04:05.999Z</time></trkpt><trkpt lat="45.80224765396835" lon="14.02249144120816"><ele>881.0</ele><time>2026-05-01T15:04:06.999Z</time></trkpt><trkpt lat="45.802429781616425" lon="14.022385413374925"><ele>881.0</ele><time>2026-05-01T15:04:07.999Z</time></trkpt><trkpt lat="45.80258750561363" lon="14.022270513546191"><ele>881.0</ele><time>2026-05-01T15:04:08.999Z</time></trkpt><trkpt lat="45.802747388888214" lon="14.022157897268805"><ele>881.0</ele><time>2026-05-01T15:04:09.999Z</time></trkpt><trkpt lat="45.80291064116756" lon="14.022040998548206"><ele>889.0</ele><time>2026-05-01T15:04:10.999Z</time></trkpt><trkpt lat="45.80306873095234" lon="14.02193121009003"><ele>897.0</ele><time>2026-05-01T15:04:11.999Z</time></trkpt><trkpt lat="45.80319570851" lon="14.021817887253532"><ele>905.0</ele><time>2026-05-01T15:04:12.999Z</time></trkpt><trkpt lat="45.80332616396113" lon="14.021744681047096"><ele>901.3333333333334</ele><time>2026-05-01T15:04:13.999Z</time></trkpt><trkpt lat="45.80347337645135" lon="14.021623083903416"><ele>897.6666666666667</ele><time>2026-05-01T15:04:14.999Z</time></trkpt><trkpt lat="45.80364176301863" lon="14.021537002815737"><ele>894.0</ele><time>2026-05-01T15:04:15.999Z</time></trkpt><trkpt lat="45.80378345488579" lon="14.021429812157022"><ele>894.0</ele><time>2026-05-01T15:04:16.999Z</time></trkpt><trkpt lat="45.803913326962814" lon="14.021323630652486"><ele>894.0</ele><time>2026-05-01T15:04:17.999Z</time></trkpt><trkpt lat="45.80406946523313" lon="14.021233443076664"><ele>894.0</ele><time>2026-05-01T15:04:18.999Z</time></trkpt><trkpt lat="45.80421568017091" lon="14.021127590777201"><ele>899.3333333333333</ele><time>2026-05-01T15:04:19.999Z</time></trkpt><trkpt lat="45.80435327783731" lon="14.021029493015686"><ele>904.6666666666666</ele><time>2026-05-01T15:04:20.999Z</time></trkpt><trkpt lat="45.804492623818994" lon="14.020941458923966"><ele>910.0</ele><time>2026-05-01T15:04:21.999Z</time></trkpt><trkpt lat="45.80462447322057" lon="14.020857236787318"><ele>903.0</ele><time>2026-05-01T15:04:22.999Z</time></trkpt><trkpt lat="45.804756677506845" lon="14.020761014269743"><ele>896.0</ele><time>2026-05-01T15:04:23.999Z</time></trkpt><trkpt lat="45.80489909095206" lon="14.020689401255037"><ele>889.0</ele><time>2026-05-01T15:04:24.999Z</time></trkpt><trkpt lat="45.80507005125841" lon="14.020627085409776"><ele>891.0</ele><time>2026-05-01T15:04:25.999Z</time></trkpt><trkpt lat="45.805202637560676" lon="14.020586761055197"><ele>893.0000000000001</ele><time>2026-05-01T15:04:26.999Z</time></trkpt><trkpt lat="45.80530553594784" lon="14.020555207659637"><ele>895.0000000000001</ele><time>2026-05-01T15:04:27.999Z</time></trkpt><trkpt lat="45.805403603028694" lon="14.0205340937547"><ele>897.0</ele><time>2026-05-01T15:04:28.999Z</time></trkpt><trkpt lat="45.80550830247217" lon="14.020521933953846"><ele>899.0</ele><time>2026-05-01T15:04:29.999Z</time></trkpt><trkpt lat="45.80560815954832" lon="14.020551563210637"><ele>899.0000000000001</ele><time>2026-05-01T15:04:30.999Z</time></trkpt><trkpt lat="45.805682348368016" lon="14.02060471409658"><ele>899.0</ele><time>2026-05-01T15:04:31.999Z</time></trkpt><trkpt lat="45.8057455211378" lon="14.020690892954017"><ele>899.0</ele><time>2026-05-01T15:04:32.999Z</time></trkpt><trkpt lat="45.805777183964786" lon="14.02081712773248"><ele>899.0</ele><time>2026-05-01T15:04:33.999Z</time></trkpt><trkpt lat="45.80582444019355" lon="14.020915781989297"><ele>899.0000000000001</ele><time>2026-05-01T15:04:34.999Z</time></trkpt><trkpt lat="45.80587718867182" lon="14.021004203396153"><ele>899.0</ele><time>2026-05-01T15:04:35.999Z</time></trkpt><trkpt lat="45.80596474354969" lon="14.02105331677583"><ele>901.25</ele><time>2026-05-01T15:04:36.999Z</time></trkpt><trkpt lat="45.806071234190895" lon="14.021062042546156"><ele>903.5</ele><time>2026-05-01T15:04:37.999Z</time></trkpt><trkpt lat="45.806202170803004" lon="14.021036451567317"><ele>905.75</ele><time>2026-05-01T15:04:38.999Z</time></trkpt><trkpt lat="45.80633328462972" lon="14.021074673359466"><ele>908.0</ele><time>2026-05-01T15:04:39.999Z</time></trkpt><trkpt lat="45.80647027707504" lon="14.02109543560715"><ele>908.0</ele><time>2026-05-01T15:04:40.999Z</time></trkpt><trkpt lat="45.80662210464945" lon="14.021173496849029"><ele>908.0</ele><time>2026-05-01T15:04:41.999Z</time></trkpt><trkpt lat="45.806742172708816" lon="14.021202566227425"><ele>908.0</ele><time>2026-05-01T15:04:42.999Z</time></trkpt><trkpt lat="45.80685946139092" lon="14.021265423128382"><ele>908.0</ele><time>2026-05-01T15:04:43.999Z</time></trkpt><trkpt lat="45.80698639970031" lon="14.02141165899842"><ele>906.75</ele><time>2026-05-01T15:04:44.999Z</time></trkpt><trkpt lat="45.80710274316644" lon="14.021523101111356"><ele>905.5</ele><time>2026-05-01T15:04:45.999Z</time></trkpt><trkpt lat="45.807191138790536" lon="14.02162904192006"><ele>904.25</ele><time>2026-05-01T15:04:46.999Z</time></trkpt><trkpt lat="45.807299531975445" lon="14.021697547408632"><ele>903.0</ele><time>2026-05-01T15:04:47.999Z</time></trkpt><trkpt lat="45.8074488498012" lon="14.021735287475373"><ele>907.0</ele><time>2026-05-01T15:04:48.999Z</time></trkpt><trkpt lat="45.807639556964126" lon="14.021775501552213"><ele>911.0</ele><time>2026-05-01T15:04:49.999Z</time></trkpt><trkpt lat="45.80782869485352" lon="14.02183321617435"><ele>915.0</ele><time>2026-05-01T15:04:50.999Z</time></trkpt><trkpt lat="45.80796949171794" lon="14.021886968378645"><ele>915.0</ele><time>2026-05-01T15:04:51.999Z</time></trkpt><trkpt lat="45.808061451566566" lon="14.021957022788586"><ele>915.0</ele><time>2026-05-01T15:04:52.999Z</time></trkpt><trkpt lat="45.80813950646975" lon="14.021972745165474"><ele>915.0</ele><time>2026-05-01T15:04:53.999Z</time></trkpt><trkpt lat="45.80820766652383" lon="14.02198060787902"><ele>915.0</ele><time>2026-05-01T15:04:54.999Z</time></trkpt><trkpt lat="45.8082898140046" lon="14.021938908896011"><ele>915.0</ele><time>2026-05-01T15:04:55.999Z</time></trkpt><trkpt lat="45.808368391589" lon="14.02184867084856"><ele>915.0</ele><time>2026-05-01T15:04:56.999Z</time></trkpt><trkpt lat="45.80842726594414" lon="14.021718844188594"><ele>915.25</ele><time>2026-05-01T15:04:57.999Z</time></trkpt><trkpt lat="45.80852002468418" lon="14.021609131059407"><ele>915.5</ele><time>2026-05-01T15:04:58.999Z</time></trkpt><trkpt lat="45.80860811922478" lon="14.021491592804457"><ele>915.75</ele><time>2026-05-01T15:04:59.999Z</time></trkpt><trkpt lat="45.80872113135962" lon="14.021337901174952"><ele>916.0</ele><time>2026-05-01T15:05:00.999Z</time></trkpt><trkpt lat="45.80886408411229" lon="14.021208177745228"><ele>916.0</ele><time>2026-05-01T15:05:01.999Z</time></trkpt><trkpt lat="45.80899532631605" lon="14.021058692699116"><ele>916.0</ele><time>2026-05-01T15:05:02.999Z</time></trkpt><trkpt lat="45.809119194277294" lon="14.020927958254338"><ele>916.0</ele><time>2026-05-01T15:05:03.999Z</time></trkpt><trkpt lat="45.80924671660855" lon="14.020813253055007"><ele>916.6666666666666</ele><time>2026-05-01T15:05:04.999Z</time></trkpt><trkpt lat="45.809372610984845" lon="14.020699046631515"><ele>917.3333333333333</ele><time>2026-05-01T15:05:05.999Z</time></trkpt><trkpt lat="45.809509268836365" lon="14.020613677211117"><ele>918.0</ele><time>2026-05-01T15:05:06.999Z</time></trkpt><trkpt lat="45.80965515331938" lon="14.020513892074824"><ele>918.0</ele><time>2026-05-01T15:05:07.999Z</time></trkpt><trkpt lat="45.809827758030025" lon="14.020378619146847"><ele>918.0</ele><time>2026-05-01T15:05:08.999Z</time></trkpt><trkpt lat="45.81000712531693" lon="14.020276368335042"><ele>918.0</ele><time>2026-05-01T15:05:09.999Z</time></trkpt><trkpt lat="45.81016030274867" lon="14.020171251166168"><ele>919.4</ele><time>2026-05-01T15:05:10.999Z</time></trkpt><trkpt lat="45.81028877208945" lon="14.02008845594056"><ele>920.8</ele><time>2026-05-01T15:05:11.999Z</time></trkpt><trkpt lat="45.81038965111182" lon="14.020028669587306"><ele>922.2</ele><time>2026-05-01T15:05:12.999Z</time></trkpt><trkpt lat="45.81047774522235" lon="14.019992223613244"><ele>923.6</ele><time>2026-05-01T15:05:13.999Z</time></trkpt><trkpt lat="45.81056907069957" lon="14.019978735832993"><ele>925.0</ele><time>2026-05-01T15:05:14.999Z</time></trkpt><trkpt lat="45.81067124408273" lon="14.019991292097773"><ele>925.0</ele><time>2026-05-01T15:05:15.999Z</time></trkpt><trkpt lat="45.810791575495756" lon="14.020010037575952"><ele>925.0</ele><time>2026-05-01T15:05:16.999Z</time></trkpt><trkpt lat="45.81091696586137" lon="14.020020257195506"><ele>925.0</ele><time>2026-05-01T15:05:17.999Z</time></trkpt><trkpt lat="45.8110422225967" lon="14.020049453244223"><ele>925.0</ele><time>2026-05-01T15:05:18.999Z</time></trkpt><trkpt lat="45.811177267704025" lon="14.020064373219107"><ele>923.25</ele><time>2026-05-01T15:05:19.999Z</time></trkpt><trkpt lat="45.81131559382275" lon="14.020100786749415"><ele>921.5</ele><time>2026-05-01T15:05:20.999Z</time></trkpt><trkpt lat="45.81142943983789" lon="14.02013504794358"><ele>919.75</ele><time>2026-05-01T15:05:21.999Z</time></trkpt><trkpt lat="45.81153894855139" lon="14.020171158393374"><ele>918.0</ele><time>2026-05-01T15:05:22.999Z</time></trkpt><trkpt lat="45.81163662736983" lon="14.020207745713611"><ele>918.0</ele><time>2026-05-01T15:05:23.999Z</time></trkpt><trkpt lat="45.811727238736374" lon="14.020253983311315"><ele>918.0</ele><time>2026-05-01T15:05:24.999Z</time></trkpt><trkpt lat="45.811785225081195" lon="14.02034559680653"><ele>918.0</ele><time>2026-05-01T15:05:25.999Z</time></trkpt><trkpt lat="45.81185591453723" lon="14.020442404602129"><ele>918.0</ele><time>2026-05-01T15:05:26.999Z</time></trkpt><trkpt lat="45.81191062743457" lon="14.020573143504526"><ele>918.0</ele><time>2026-05-01T15:05:27.999Z</time></trkpt><trkpt lat="45.81197215811765" lon="14.020710596401619"><ele>917.5999999999999</ele><time>2026-05-01T15:05:28.999Z</time></trkpt><trkpt lat="45.81202149626857" lon="14.020868788276156"><ele>917.1999999999999</ele><time>2026-05-01T15:05:29.999Z</time></trkpt><trkpt lat="45.81209671149086" lon="14.020981305331691"><ele>916.8</ele><time>2026-05-01T15:05:30.999Z</time></trkpt><trkpt lat="45.81215791615517" lon="14.02108424344241"><ele>916.4</ele><time>2026-05-01T15:05:31.999Z</time></trkpt><trkpt lat="45.812226932575534" lon="14.021172582346356"><ele>916.0</ele><time>2026-05-01T15:05:32.999Z</time></trkpt><trkpt lat="45.81230920608718" lon="14.021228109281328"><ele>916.0</ele><time>2026-05-01T15:05:33.999Z</time></trkpt><trkpt lat="45.81243444429189" lon="14.021254611882606"><ele>916.0</ele><time>2026-05-01T15:05:34.999Z</time></trkpt><trkpt lat="45.81255823067616" lon="14.02124698434979"><ele>916.0</ele><time>2026-05-01T15:05:35.999Z</time></trkpt><trkpt lat="45.812672187554185" lon="14.021258004234026"><ele>916.0</ele><time>2026-05-01T15:05:36.999Z</time></trkpt><trkpt lat="45.81275848440999" lon="14.021259602324474"><ele>916.1666666666666</ele><time>2026-05-01T15:05:37.999Z</time></trkpt><trkpt lat="45.812837730241824" lon="14.021263823963192"><ele>916.3333333333333</ele><time>2026-05-01T15:05:38.999Z</time></trkpt><trkpt lat="45.8129094042106" lon="14.021273621422484"><ele>916.5</ele><time>2026-05-01T15:05:39.999Z</time></trkpt><trkpt lat="45.81297732132142" lon="14.021284245635906"><ele>916.6666666666667</ele><time>2026-05-01T15:05:40.999Z</time></trkpt><trkpt lat="45.813094971373054" lon="14.02130344255372"><ele>916.8333333333334</ele><time>2026-05-01T15:05:42.999Z</time></trkpt><trkpt lat="45.81315748932129" lon="14.021315575859012"><ele>917.0</ele><time>2026-05-01T15:05:43.999Z</time></trkpt><trkpt lat="45.813230363784925" lon="14.021329117556363"><ele>917.0000000000001</ele><time>2026-05-01T15:05:44.999Z</time></trkpt><trkpt lat="45.813307558210525" lon="14.021343461983694"><ele>917.0</ele><time>2026-05-01T15:05:45.999Z</time></trkpt><trkpt lat="45.81338924362547" lon="14.021360995357877"><ele>917.0</ele><time>2026-05-01T15:05:46.999Z</time></trkpt><trkpt lat="45.81347896808997" lon="14.021380343647719"><ele>917.0</ele><time>2026-05-01T15:05:47.999Z</time></trkpt><trkpt lat="45.813569541321115" lon="14.021402172882345"><ele>917.0000000000001</ele><time>2026-05-01T15:05:48.999Z</time></trkpt><trkpt lat="45.81366845532339" lon="14.021434495298353"><ele>917.0</ele><time>2026-05-01T15:05:49.999Z</time></trkpt><trkpt lat="45.81380085925981" lon="14.02147719496863"><ele>918.0</ele><time>2026-05-01T15:05:50.999Z</time></trkpt><trkpt lat="45.813948577097534" lon="14.021532798498969"><ele>919.0</ele><time>2026-05-01T15:05:51.999Z</time></trkpt><trkpt lat="45.81408432788854" lon="14.021548966547664"><ele>920.0</ele><time>2026-05-01T15:05:52.999Z</time></trkpt><trkpt lat="45.81419534015631" lon="14.02153914612809"><ele>921.0</ele><time>2026-05-01T15:05:53.999Z</time></trkpt><trkpt lat="45.81430599197732" lon="14.021484488831595"><ele>922.3333333333333</ele><time>2026-05-01T15:05:54.999Z</time></trkpt><trkpt lat="45.81445738760155" lon="14.021398438753879"><ele>923.6666666666666</ele><time>2026-05-01T15:05:55.999Z</time></trkpt><trkpt lat="45.81461066174112" lon="14.021349137580223"><ele>925.0</ele><time>2026-05-01T15:05:56.999Z</time></trkpt><trkpt lat="45.81477716630781" lon="14.02127929335332"><ele>925.0</ele><time>2026-05-01T15:05:57.999Z</time></trkpt><trkpt lat="45.81490209869281" lon="14.021262051299017"><ele>925.0</ele><time>2026-05-01T15:05:58.999Z</time></trkpt><trkpt lat="45.8150056278787" lon="14.021268428469345"><ele>925.0</ele><time>2026-05-01T15:05:59.999Z</time></trkpt><trkpt lat="45.81509986830931" lon="14.02128704954464"><ele>925.0</ele><time>2026-05-01T15:06:00.999Z</time></trkpt><trkpt lat="45.81518399060413" lon="14.021325103883724"><ele>925.0</ele><time>2026-05-01T15:06:01.999Z</time></trkpt><trkpt lat="45.815253036680126" lon="14.021368998461604"><ele>924.4999999999999</ele><time>2026-05-01T15:06:02.999Z</time></trkpt><trkpt lat="45.8153351267891" lon="14.02143582622613"><ele>924.0</ele><time>2026-05-01T15:06:03.999Z</time></trkpt><trkpt lat="45.81540088511477" lon="14.021508088477342"><ele>923.5</ele><time>2026-05-01T15:06:04.999Z</time></trkpt><trkpt lat="45.81546654314142" lon="14.021539383418249"><ele>923.0</ele><time>2026-05-01T15:06:05.999Z</time></trkpt><trkpt lat="45.81555868194409" lon="14.021540597169746"><ele>922.4999999999999</ele><time>2026-05-01T15:06:06.999Z</time></trkpt><trkpt lat="45.81565240950212" lon="14.021516335251"><ele>922.0</ele><time>2026-05-01T15:06:07.999Z</time></trkpt><trkpt lat="45.8157784493004" lon="14.021547551287737"><ele>922.0</ele><time>2026-05-01T15:06:08.999Z</time></trkpt><trkpt lat="45.815889246569306" lon="14.021558291427066"><ele>922.0</ele><time>2026-05-01T15:06:09.999Z</time></trkpt><trkpt lat="45.815989937262636" lon="14.02157436122456"><ele>922.0</ele><time>2026-05-01T15:06:10.999Z</time></trkpt><trkpt lat="45.81610446131179" lon="14.021596923441745"><ele>922.0</ele><time>2026-05-01T15:06:11.999Z</time></trkpt><trkpt lat="45.816200899648564" lon="14.021617905421406"><ele>922.0</ele><time>2026-05-01T15:06:12.999Z</time></trkpt><trkpt lat="45.81630382019325" lon="14.021640318658573"><ele>923.25</ele><time>2026-05-01T15:06:13.999Z</time></trkpt><trkpt lat="45.81640241203727" lon="14.021650005196966"><ele>924.5</ele><time>2026-05-01T15:06:14.999Z</time></trkpt><trkpt lat="45.81650697630426" lon="14.02168929501971"><ele>925.75</ele><time>2026-05-01T15:06:15.999Z</time></trkpt><trkpt lat="45.816645654898664" lon="14.02167722226885"><ele>927.0</ele><time>2026-05-01T15:06:16.999Z</time></trkpt><trkpt lat="45.816791362551584" lon="14.021678905615044"><ele>923.25</ele><time>2026-05-01T15:06:17.999Z</time></trkpt><trkpt lat="45.816907434260784" lon="14.021648656676913"><ele>919.5</ele><time>2026-05-01T15:06:18.999Z</time></trkpt><trkpt lat="45.81701926129128" lon="14.021642678258155"><ele>915.75</ele><time>2026-05-01T15:06:19.999Z</time></trkpt><trkpt lat="45.81714174764365" lon="14.021587876054404"><ele>912.0</ele><time>2026-05-01T15:06:20.999Z</time></trkpt><trkpt lat="45.81731022422739" lon="14.021526459640564"><ele>912.0</ele><time>2026-05-01T15:06:21.999Z</time></trkpt><trkpt lat="45.81745162739533" lon="14.021447445959717"><ele>912.0</ele><time>2026-05-01T15:06:22.999Z</time></trkpt><trkpt lat="45.81756494819137" lon="14.021387546242016"><ele>912.0</ele><time>2026-05-01T15:06:23.999Z</time></trkpt><trkpt lat="45.817671526731594" lon="14.021334284906317"><ele>912.0</ele><time>2026-05-01T15:06:24.999Z</time></trkpt><trkpt lat="45.81778957381175" lon="14.021273028462815"><ele>912.5</ele><time>2026-05-01T15:06:25.999Z</time></trkpt><trkpt lat="45.817920830965754" lon="14.021182449504451"><ele>913.0</ele><time>2026-05-01T15:06:26.999Z</time></trkpt><trkpt lat="45.81805578068753" lon="14.021111026132141"><ele>913.5</ele><time>2026-05-01T15:06:27.999Z</time></trkpt><trkpt lat="45.81817618530988" lon="14.02103729208111"><ele>914.0</ele><time>2026-05-01T15:06:28.999Z</time></trkpt><trkpt lat="45.81828977889983" lon="14.020977724525974"><ele>914.0</ele><time>2026-05-01T15:06:29.999Z</time></trkpt><trkpt lat="45.81839503821926" lon="14.020885494313607"><ele>914.0</ele><time>2026-05-01T15:06:30.999Z</time></trkpt><trkpt lat="45.81850439111579" lon="14.020791016411682"><ele>914.0</ele><time>2026-05-01T15:06:31.999Z</time></trkpt><trkpt lat="45.81860007430283" lon="14.02065922281338"><ele>914.0</ele><time>2026-05-01T15:06:32.999Z</time></trkpt><trkpt lat="45.81866933405038" lon="14.020515322691873"><ele>912.5</ele><time>2026-05-01T15:06:33.999Z</time></trkpt><trkpt lat="45.81873392269076" lon="14.020383621632009"><ele>911.0</ele><time>2026-05-01T15:06:34.999Z</time></trkpt><trkpt lat="45.81881576516216" lon="14.020283001951434"><ele>909.5</ele><time>2026-05-01T15:06:35.999Z</time></trkpt><trkpt lat="45.81892345416327" lon="14.020200492944522"><ele>908.0</ele><time>2026-05-01T15:06:36.999Z</time></trkpt><trkpt lat="45.819047070853415" lon="14.020188196540671"><ele>908.0</ele><time>2026-05-01T15:06:37.999Z</time></trkpt><trkpt lat="45.81915677564159" lon="14.020138795753098"><ele>908.0</ele><time>2026-05-01T15:06:38.999Z</time></trkpt><trkpt lat="45.81927299091299" lon="14.020110562466401"><ele>908.0</ele><time>2026-05-01T15:06:39.999Z</time></trkpt><trkpt lat="45.819386131758186" lon="14.02007887011283"><ele>908.0</ele><time>2026-05-01T15:06:40.999Z</time></trkpt><trkpt lat="45.81948874434329" lon="14.02003736206309"><ele>908.4</ele><time>2026-05-01T15:06:41.999Z</time></trkpt><trkpt lat="45.819581166134455" lon="14.01998416406841"><ele>908.8</ele><time>2026-05-01T15:06:42.999Z</time></trkpt><trkpt lat="45.8196681100368" lon="14.019912135580068"><ele>909.2</ele><time>2026-05-01T15:06:43.999Z</time></trkpt><trkpt lat="45.819745363206955" lon="14.019832395626066"><ele>909.6</ele><time>2026-05-01T15:06:44.999Z</time></trkpt><trkpt lat="45.819811834708176" lon="14.019750479974329"><ele>910.0</ele><time>2026-05-01T15:06:45.999Z</time></trkpt><trkpt lat="45.81988015204319" lon="14.01968083833133"><ele>909.0</ele><time>2026-05-01T15:06:46.999Z</time></trkpt><trkpt lat="45.819932936887916" lon="14.019596377819477"><ele>908.0</ele><time>2026-05-01T15:06:47.999Z</time></trkpt><trkpt lat="45.81996188556029" lon="14.019506205760436"><ele>907.0</ele><time>2026-05-01T15:06:48.999Z</time></trkpt><trkpt lat="45.82001780974435" lon="14.019389555211076"><ele>906.0</ele><time>2026-05-01T15:06:50.999Z</time></trkpt><trkpt lat="45.82004040696854" lon="14.019274562648068"><ele>905.0</ele><time>2026-05-01T15:06:52.999Z</time></trkpt><trkpt lat="45.82004585546112" lon="14.01907551862312"><ele>904.0</ele><time>2026-05-01T15:06:54.999Z</time></trkpt><trkpt lat="45.820024571570215" lon="14.018917131054906"><ele>903.0</ele><time>2026-05-01T15:06:55.999Z</time></trkpt><trkpt lat="45.81999279248465" lon="14.018743879862617"><ele>902.0</ele><time>2026-05-01T15:06:56.999Z</time></trkpt><trkpt lat="45.81999013243248" lon="14.018536174696566"><ele>901.0</ele><time>2026-05-01T15:06:57.999Z</time></trkpt><trkpt lat="45.82002070364052" lon="14.018324349097917"><ele>901.3333333333333</ele><time>2026-05-01T15:06:58.999Z</time></trkpt><trkpt lat="45.820084047892124" lon="14.018128771337802"><ele>901.6666666666667</ele><time>2026-05-01T15:06:59.999Z</time></trkpt><trkpt lat="45.82018362053226" lon="14.017930421721065"><ele>902.0</ele><time>2026-05-01T15:07:00.999Z</time></trkpt><trkpt lat="45.82029836743449" lon="14.01774242099086"><ele>903.0</ele><time>2026-05-01T15:07:01.999Z</time></trkpt><trkpt lat="45.82042321123878" lon="14.017555633331414"><ele>904.0</ele><time>2026-05-01T15:07:02.999Z</time></trkpt><trkpt lat="45.820553171241414" lon="14.017371476501424"><ele>905.0</ele><time>2026-05-01T15:07:03.999Z</time></trkpt><trkpt lat="45.82068822821673" lon="14.017192923052724"><ele>905.0</ele><time>2026-05-01T15:07:04.999Z</time></trkpt><trkpt lat="45.820811656273804" lon="14.017016474048525"><ele>905.0</ele><time>2026-05-01T15:07:05.999Z</time></trkpt><trkpt lat="45.820940937820495" lon="14.016839245680446"><ele>905.0</ele><time>2026-05-01T15:07:06.999Z</time></trkpt><trkpt lat="45.82106682878463" lon="14.016678864554653"><ele>905.5</ele><time>2026-05-01T15:07:07.999Z</time></trkpt><trkpt lat="45.82119785696963" lon="14.016551233237577"><ele>906.0</ele><time>2026-05-01T15:07:08.999Z</time></trkpt><trkpt lat="45.82130318213737" lon="14.016403616352559"><ele>906.5</ele><time>2026-05-01T15:07:09.999Z</time></trkpt><trkpt lat="45.82140288871234" lon="14.01626055679936"><ele>907.0</ele><time>2026-05-01T15:07:10.999Z</time></trkpt><trkpt lat="45.821493632893315" lon="14.016107519833351"><ele>907.0</ele><time>2026-05-01T15:07:11.999Z</time></trkpt><trkpt lat="45.82160891899391" lon="14.01598356566695"><ele>907.0</ele><time>2026-05-01T15:07:12.999Z</time></trkpt><trkpt lat="45.82175119324944" lon="14.015889093820938"><ele>907.0</ele><time>2026-05-01T15:07:13.999Z</time></trkpt><trkpt lat="45.821896173224964" lon="14.015775508616155"><ele>903.6666666666666</ele><time>2026-05-01T15:07:14.999Z</time></trkpt><trkpt lat="45.82203414100905" lon="14.01562797585825"><ele>900.3333333333333</ele><time>2026-05-01T15:07:15.999Z</time></trkpt><trkpt lat="45.82218859393758" lon="14.015511217962004"><ele>897.0</ele><time>2026-05-01T15:07:16.999Z</time></trkpt><trkpt lat="45.8223181562724" lon="14.015337327490279"><ele>897.0</ele><time>2026-05-01T15:07:17.999Z</time></trkpt><trkpt lat="45.8224613890241" lon="14.015193232351447"><ele>897.0</ele><time>2026-05-01T15:07:18.999Z</time></trkpt><trkpt lat="45.82260901863912" lon="14.01505803016832"><ele>897.0</ele><time>2026-05-01T15:07:19.999Z</time></trkpt><trkpt lat="45.82276188085467" lon="14.014934560165388"><ele>895.0</ele><time>2026-05-01T15:07:20.999Z</time></trkpt><trkpt lat="45.82292124020864" lon="14.014828235246506"><ele>893.0</ele><time>2026-05-01T15:07:21.999Z</time></trkpt><trkpt lat="45.823086443035315" lon="14.014736177672214"><ele>891.0</ele><time>2026-05-01T15:07:22.999Z</time></trkpt><trkpt lat="45.82325366906493" lon="14.014661381603593"><ele>891.0</ele><time>2026-05-01T15:07:23.999Z</time></trkpt><trkpt lat="45.82340832656859" lon="14.014600792252697"><ele>891.0</ele><time>2026-05-01T15:07:24.999Z</time></trkpt><trkpt lat="45.82356364132889" lon="14.014547729453351"><ele>891.0</ele><time>2026-05-01T15:07:25.999Z</time></trkpt><trkpt lat="45.82372155390587" lon="14.014492156025508"><ele>893.3333333333333</ele><time>2026-05-01T15:07:26.999Z</time></trkpt><trkpt lat="45.82387344235619" lon="14.014422055705776"><ele>895.6666666666666</ele><time>2026-05-01T15:07:27.999Z</time></trkpt><trkpt lat="45.82402620325417" lon="14.014337415611468"><ele>898.0</ele><time>2026-05-01T15:07:28.999Z</time></trkpt><trkpt lat="45.824181320942095" lon="14.014239437774298"><ele>895.6666666666666</ele><time>2026-05-01T15:07:29.999Z</time></trkpt><trkpt lat="45.82434232396151" lon="14.014148673339427"><ele>893.3333333333333</ele><time>2026-05-01T15:07:30.999Z</time></trkpt><trkpt lat="45.82450686487398" lon="14.01407547267248"><ele>891.0</ele><time>2026-05-01T15:07:31.999Z</time></trkpt><trkpt lat="45.82467368190036" lon="14.014015881097"><ele>891.0</ele><time>2026-05-01T15:07:32.999Z</time></trkpt><trkpt lat="45.824843546439084" lon="14.01395704019028"><ele>891.0</ele><time>2026-05-01T15:07:33.999Z</time></trkpt><trkpt lat="45.82501465364601" lon="14.01388630495563"><ele>891.0</ele><time>2026-05-01T15:07:34.999Z</time></trkpt><trkpt lat="45.82518312939698" lon="14.013801136387107"><ele>892.6666666666667</ele><time>2026-05-01T15:07:35.999Z</time></trkpt><trkpt lat="45.8253418737795" lon="14.013713182352488"><ele>894.3333333333334</ele><time>2026-05-01T15:07:36.999Z</time></trkpt><trkpt lat="45.82549932813981" lon="14.013626488856113"><ele>896.0</ele><time>2026-05-01T15:07:37.999Z</time></trkpt><trkpt lat="45.8256596386068" lon="14.01354743553382"><ele>896.0</ele><time>2026-05-01T15:07:38.999Z</time></trkpt><trkpt lat="45.82582231303212" lon="14.013488678988782"><ele>896.0</ele><time>2026-05-01T15:07:39.999Z</time></trkpt><trkpt lat="45.825985173647005" lon="14.01346312610217"><ele>896.0</ele><time>2026-05-01T15:07:40.999Z</time></trkpt><trkpt lat="45.82613749367147" lon="14.013451137718828"><ele>898.0</ele><time>2026-05-01T15:07:41.999Z</time></trkpt><trkpt lat="45.82628325301637" lon="14.013409382606643"><ele>900.0</ele><time>2026-05-01T15:07:42.999Z</time></trkpt><trkpt lat="45.82642660879578" lon="14.013320233968164"><ele>902.0</ele><time>2026-05-01T15:07:43.999Z</time></trkpt><trkpt lat="45.82656865851197" lon="14.013210421859275"><ele>898.6666666666667</ele><time>2026-05-01T15:07:44.999Z</time></trkpt><trkpt lat="45.82672248659098" lon="14.013108980194968"><ele>895.3333333333333</ele><time>2026-05-01T15:07:45.999Z</time></trkpt><trkpt lat="45.82688227643437" lon="14.013018934943569"><ele>892.0</ele><time>2026-05-01T15:07:46.999Z</time></trkpt><trkpt lat="45.82704836841314" lon="14.012940278766893"><ele>892.0</ele><time>2026-05-01T15:07:47.999Z</time></trkpt><trkpt lat="45.82720940293915" lon="14.012877598295846"><ele>892.0</ele><time>2026-05-01T15:07:48.999Z</time></trkpt><trkpt lat="45.827358047809746" lon="14.01282914437693"><ele>892.0</ele><time>2026-05-01T15:07:49.999Z</time></trkpt><trkpt lat="45.82751421306749" lon="14.012827070848084"><ele>891.0</ele><time>2026-05-01T15:07:50.999Z</time></trkpt><trkpt lat="45.82766284544394" lon="14.012835383812254"><ele>890.0</ele><time>2026-05-01T15:07:51.999Z</time></trkpt><trkpt lat="45.82780554898794" lon="14.012896740297915"><ele>889.0</ele><time>2026-05-01T15:07:52.999Z</time></trkpt><trkpt lat="45.82794195123676" lon="14.012954532817213"><ele>888.0</ele><time>2026-05-01T15:07:53.999Z</time></trkpt><trkpt lat="45.828202131253406" lon="14.013000659151047"><ele>888.0</ele><time>2026-05-01T15:07:54.999Z</time></trkpt><trkpt lat="45.828376224491336" lon="14.01304759025177"><ele>888.0</ele><time>2026-05-01T15:07:55.999Z</time></trkpt><trkpt lat="45.82854453363355" lon="14.01305490591126"><ele>888.0</ele><time>2026-05-01T15:07:56.999Z</time></trkpt><trkpt lat="45.828723742567846" lon="14.013054659337131"><ele>887.6666666666667</ele><time>2026-05-01T15:07:57.999Z</time></trkpt><trkpt lat="45.82890605147229" lon="14.013015238543893"><ele>887.3333333333334</ele><time>2026-05-01T15:07:58.999Z</time></trkpt><trkpt lat="45.829104809221185" lon="14.012988674751337"><ele>887.0</ele><time>2026-05-01T15:07:59.999Z</time></trkpt><trkpt lat="45.82930265817785" lon="14.012984407166975"><ele>886.6666666666667</ele><time>2026-05-01T15:08:00.999Z</time></trkpt><trkpt lat="45.82950775628153" lon="14.01296074697374"><ele>886.3333333333333</ele><time>2026-05-01T15:08:01.999Z</time></trkpt><trkpt lat="45.829713450303466" lon="14.01291254749494"><ele>886.0</ele><time>2026-05-01T15:08:02.999Z</time></trkpt><trkpt lat="45.82991808844739" lon="14.01285822066559"><ele>886.0</ele><time>2026-05-01T15:08:03.999Z</time></trkpt><trkpt lat="45.83012345821494" lon="14.012788033299163"><ele>886.0</ele><time>2026-05-01T15:08:04.999Z</time></trkpt><trkpt lat="45.83033195340595" lon="14.012727776115915"><ele>886.0</ele><time>2026-05-01T15:08:05.999Z</time></trkpt><trkpt lat="45.83054541674272" lon="14.01267394288638"><ele>886.0</ele><time>2026-05-01T15:08:06.999Z</time></trkpt><trkpt lat="45.83076420035706" lon="14.01265675982667"><ele>886.0</ele><time>2026-05-01T15:08:07.999Z</time></trkpt><trkpt lat="45.830980185953074" lon="14.012633936619384"><ele>886.0</ele><time>2026-05-01T15:08:08.999Z</time></trkpt><trkpt lat="45.83119957651987" lon="14.012624881233224"><ele>885.3333333333333</ele><time>2026-05-01T15:08:09.999Z</time></trkpt><trkpt lat="45.83140503844498" lon="14.01262134208812"><ele>884.6666666666667</ele><time>2026-05-01T15:08:10.999Z</time></trkpt><trkpt lat="45.83159262115862" lon="14.01259556484536"><ele>884.0</ele><time>2026-05-01T15:08:11.999Z</time></trkpt><trkpt lat="45.8317605299277" lon="14.012537248205232"><ele>883.3333333333334</ele><time>2026-05-01T15:08:12.999Z</time></trkpt><trkpt lat="45.83193906028815" lon="14.012539556599572"><ele>882.6666666666667</ele><time>2026-05-01T15:08:13.999Z</time></trkpt><trkpt lat="45.83211298493139" lon="14.012550462716382"><ele>882.0</ele><time>2026-05-01T15:08:14.999Z</time></trkpt><trkpt lat="45.832277324091805" lon="14.012572928813732"><ele>882.0</ele><time>2026-05-01T15:08:15.999Z</time></trkpt><trkpt lat="45.83240733478486" lon="14.01260846406474"><ele>882.0</ele><time>2026-05-01T15:08:17Z</time></trkpt><trkpt lat="45.832500679255574" lon="14.01266936744863"><ele>882.0</ele><time>2026-05-01T15:08:18Z</time></trkpt><trkpt lat="45.83258186073709" lon="14.012749607375493"><ele>882.0</ele><time>2026-05-01T15:08:19Z</time></trkpt><trkpt lat="45.83266961516832" lon="14.012850957693809"><ele>882.0</ele><time>2026-05-01T15:08:20Z</time></trkpt><trkpt lat="45.83275548624881" lon="14.012937133773917"><ele>881.8333333333334</ele><time>2026-05-01T15:08:21Z</time></trkpt><trkpt lat="45.83275527098467" lon="14.01304862103343"><ele>881.6666666666667</ele><time>2026-05-01T15:08:22Z</time></trkpt><trkpt lat="45.83278727086689" lon="14.013174192319667"><ele>881.5</ele><time>2026-05-01T15:08:24Z</time></trkpt><trkpt lat="45.83280536699163" lon="14.013303448525983"><ele>881.3333333333334</ele><time>2026-05-01T15:08:50Z</time></trkpt><trkpt lat="45.8328177616551" lon="14.013392369379732"><ele>881.1666666666667</ele><time>2026-05-01T15:08:51.001Z</time></trkpt><trkpt lat="45.83283192567872" lon="14.013493983956467"><ele>881.0</ele><time>2026-05-01T15:08:52.001Z</time></trkpt><trkpt lat="45.8328481120829" lon="14.013652646280452"><ele>882.3333333333334</ele><time>2026-05-01T15:08:54.001Z</time></trkpt><trkpt lat="45.83288347087452" lon="14.013802595548196"><ele>883.6666666666667</ele><time>2026-05-01T15:08:56.001Z</time></trkpt><trkpt lat="45.83296151261779" lon="14.01392000994389"><ele>885.0</ele><time>2026-05-01T15:08:58.001Z</time></trkpt><trkpt lat="45.83301746729261" lon="14.01397900865322"><ele>886.3333333333333</ele><time>2026-05-01T15:08:59.001Z</time></trkpt><trkpt lat="45.83307592356161" lon="14.014033336866872"><ele>887.6666666666666</ele><time>2026-05-01T15:09:00.001Z</time></trkpt><trkpt lat="45.833146951648416" lon="14.01408984119099"><ele>889.0</ele><time>2026-05-01T15:09:01.001Z</time></trkpt><trkpt lat="45.83321352927828" lon="14.014139631363781"><ele>889.8000000000001</ele><time>2026-05-01T15:09:02.001Z</time></trkpt><trkpt lat="45.83329158552863" lon="14.014212705706363"><ele>890.6000000000001</ele><time>2026-05-01T15:09:03.001Z</time></trkpt><trkpt lat="45.83337591698009" lon="14.014283161475856"><ele>891.4</ele><time>2026-05-01T15:09:04.001Z</time></trkpt><trkpt lat="45.83345470787689" lon="14.014372267982777"><ele>892.2</ele><time>2026-05-01T15:09:05.001Z</time></trkpt><trkpt lat="45.833547577320715" lon="14.014442111797297"><ele>893.0</ele><time>2026-05-01T15:09:06.001Z</time></trkpt><trkpt lat="45.833622336630775" lon="14.014530110027174"><ele>894.5999999999999</ele><time>2026-05-01T15:09:07.001Z</time></trkpt><trkpt lat="45.83370664655164" lon="14.01460282713261"><ele>896.1999999999999</ele><time>2026-05-01T15:09:08.001Z</time></trkpt><trkpt lat="45.83379578719323" lon="14.014655254919635"><ele>897.8</ele><time>2026-05-01T15:09:09.001Z</time></trkpt><trkpt lat="45.8338794298853" lon="14.014693156973218"><ele>899.4</ele><time>2026-05-01T15:09:10.001Z</time></trkpt><trkpt lat="45.8339580418368" lon="14.014770934884394"><ele>901.0</ele><time>2026-05-01T15:09:11.001Z</time></trkpt><trkpt lat="45.83406641425452" lon="14.014834035652504"><ele>901.0</ele><time>2026-05-01T15:09:12Z</time></trkpt><trkpt lat="45.834167978736986" lon="14.014881866008274"><ele>900.9999999999999</ele><time>2026-05-01T15:09:13Z</time></trkpt><trkpt lat="45.83427350814145" lon="14.014890826652868"><ele>900.9999999999999</ele><time>2026-05-01T15:09:14Z</time></trkpt><trkpt lat="45.834373544700654" lon="14.014922843499537"><ele>901.0</ele><time>2026-05-01T15:09:15Z</time></trkpt><trkpt lat="45.83445767056819" lon="14.014932195692491"><ele>901.0</ele><time>2026-05-01T15:09:16Z</time></trkpt><trkpt lat="45.83455523023905" lon="14.014906302437794"><ele>901.5999999999999</ele><time>2026-05-01T15:09:17Z</time></trkpt><trkpt lat="45.83466527376861" lon="14.014894802130858"><ele>902.1999999999999</ele><time>2026-05-01T15:09:18Z</time></trkpt><trkpt lat="45.83477354611124" lon="14.014858602817299"><ele>902.8000000000001</ele><time>2026-05-01T15:09:19Z</time></trkpt><trkpt lat="45.83486346004356" lon="14.014814560901987"><ele>903.4000000000001</ele><time>2026-05-01T15:09:20Z</time></trkpt><trkpt lat="45.834955839704286" lon="14.014851373125499"><ele>904.0</ele><time>2026-05-01T15:09:21Z</time></trkpt><trkpt lat="45.83508227690436" lon="14.01488103454128"><ele>905.0</ele><time>2026-05-01T15:09:22Z</time></trkpt><trkpt lat="45.83522661346517" lon="14.014942283995854"><ele>906.0</ele><time>2026-05-01T15:09:23Z</time></trkpt><trkpt lat="45.83538173505839" lon="14.015007073653535"><ele>907.0</ele><time>2026-05-01T15:09:24Z</time></trkpt><trkpt lat="45.83555539015939" lon="14.015065089545217"><ele>907.0</ele><time>2026-05-01T15:09:25Z</time></trkpt><trkpt lat="45.83574069457594" lon="14.015130256555416"><ele>907.0</ele><time>2026-05-01T15:09:26Z</time></trkpt><trkpt lat="45.83589480763326" lon="14.01520657428739"><ele>907.0</ele><time>2026-05-01T15:09:27Z</time></trkpt><trkpt lat="45.83603150480352" lon="14.015232638028534"><ele>906.25</ele><time>2026-05-01T15:09:28Z</time></trkpt><trkpt lat="45.83614935680236" lon="14.015276629798109"><ele>905.5</ele><time>2026-05-01T15:09:29Z</time></trkpt><trkpt lat="45.8362648409468" lon="14.015314403210898"><ele>904.75</ele><time>2026-05-01T15:09:30Z</time></trkpt><trkpt lat="45.83639974051674" lon="14.015365020595043"><ele>904.0</ele><time>2026-05-01T15:09:31Z</time></trkpt><trkpt lat="45.83656095297606" lon="14.015454441674256"><ele>904.0</ele><time>2026-05-01T15:09:32Z</time></trkpt><trkpt lat="45.83671556199769" lon="14.015531863832624"><ele>904.0</ele><time>2026-05-01T15:09:33Z</time></trkpt><trkpt lat="45.83687351870633" lon="14.01561269019039"><ele>904.0</ele><time>2026-05-01T15:09:34Z</time></trkpt><trkpt lat="45.83704754928847" lon="14.015692209606147"><ele>903.6666666666666</ele><time>2026-05-01T15:09:35Z</time></trkpt><trkpt lat="45.83720621629041" lon="14.0157423983138"><ele>903.3333333333333</ele><time>2026-05-01T15:09:36Z</time></trkpt><trkpt lat="45.837344717596785" lon="14.01578959885046"><ele>903.0</ele><time>2026-05-01T15:09:37Z</time></trkpt><trkpt lat="45.837502216240644" lon="14.0158536508685"><ele>904.8</ele><time>2026-05-01T15:09:38Z</time></trkpt><trkpt lat="45.837640544869025" lon="14.015884557196069"><ele>906.5999999999999</ele><time>2026-05-01T15:09:39Z</time></trkpt><trkpt lat="45.837749564648426" lon="14.0159015725182"><ele>908.4000000000001</ele><time>2026-05-01T15:09:40Z</time></trkpt><trkpt lat="45.837817316216636" lon="14.01590925831521"><ele>910.2</ele><time>2026-05-01T15:09:41Z</time></trkpt><trkpt lat="45.837886950285025" lon="14.015924255815678"><ele>912.0</ele><time>2026-05-01T15:09:42Z</time></trkpt><trkpt lat="45.8379953569345" lon="14.01589938962628"><ele>911.0</ele><time>2026-05-01T15:09:43Z</time></trkpt><trkpt lat="45.838119844267766" lon="14.015805666267752"><ele>910.0</ele><time>2026-05-01T15:09:44Z</time></trkpt><trkpt lat="45.83825574944641" lon="14.015711939563444"><ele>909.0</ele><time>2026-05-01T15:09:45Z</time></trkpt><trkpt lat="45.83836668481399" lon="14.015619322077987"><ele>908.0</ele><time>2026-05-01T15:09:46Z</time></trkpt><trkpt lat="45.83846955541599" lon="14.015565252894516"><ele>908.0000000000001</ele><time>2026-05-01T15:09:47Z</time></trkpt><trkpt lat="45.83855257321577" lon="14.015525836591626"><ele>908.0</ele><time>2026-05-01T15:09:48Z</time></trkpt><trkpt lat="45.83862354756781" lon="14.015511332676125"><ele>908.0</ele><time>2026-05-01T15:09:49Z</time></trkpt><trkpt lat="45.83869971947204" lon="14.015492879345834"><ele>908.0</ele><time>2026-05-01T15:09:50Z</time></trkpt><trkpt lat="45.838779435913416" lon="14.0154569659189"><ele>908.0000000000001</ele><time>2026-05-01T15:09:51Z</time></trkpt><trkpt lat="45.838884982606444" lon="14.015459031899768"><ele>908.0</ele><time>2026-05-01T15:09:52Z</time></trkpt><trkpt lat="45.83900101158644" lon="14.015456691912837"><ele>908.0000000000001</ele><time>2026-05-01T15:09:53Z</time></trkpt><trkpt lat="45.83909783820385" lon="14.015441522210057"><ele>908.0</ele><time>2026-05-01T15:09:54Z</time></trkpt><trkpt lat="45.839180678747226" lon="14.015431900355475"><ele>908.0</ele><time>2026-05-01T15:09:55Z</time></trkpt><trkpt lat="45.83925880191464" lon="14.01544083050596"><ele>908.0</ele><time>2026-05-01T15:09:56Z</time></trkpt><trkpt lat="45.83933171598631" lon="14.015461427884285"><ele>908.0000000000001</ele><time>2026-05-01T15:09:57Z</time></trkpt><trkpt lat="45.839401839333476" lon="14.015492139853736"><ele>908.0</ele><time>2026-05-01T15:09:58Z</time></trkpt><trkpt lat="45.839476624938364" lon="14.015522299057364"><ele>909.2</ele><time>2026-05-01T15:09:59Z</time></trkpt><trkpt lat="45.839543746228586" lon="14.015545819292855"><ele>910.4</ele><time>2026-05-01T15:10:00Z</time></trkpt><trkpt lat="45.83965631499918" lon="14.015580286327165"><ele>911.6000000000001</ele><time>2026-05-01T15:10:02Z</time></trkpt><trkpt lat="45.83975707979908" lon="14.0155856993055"><ele>912.8000000000001</ele><time>2026-05-01T15:10:04Z</time></trkpt><trkpt lat="45.83982137696227" lon="14.015523606786575"><ele>914.0</ele><time>2026-05-01T15:10:06Z</time></trkpt><trkpt lat="45.8399048846327" lon="14.01538814829842"><ele>914.0</ele><time>2026-05-01T15:10:08Z</time></trkpt><trkpt lat="45.8399662923774" lon="14.015314300123439"><ele>914.0000000000001</ele><time>2026-05-01T15:10:09Z</time></trkpt><trkpt lat="45.84001306243911" lon="14.015204681723691"><ele>914.0000000000001</ele><time>2026-05-01T15:10:10Z</time></trkpt><trkpt lat="45.84010093778752" lon="14.015117685079886"><ele>914.0</ele><time>2026-05-01T15:10:11Z</time></trkpt><trkpt lat="45.840222587438916" lon="14.015014521511436"><ele>914.0</ele><time>2026-05-01T15:10:12Z</time></trkpt><trkpt lat="45.84036853744974" lon="14.01489186038924"><ele>915.0</ele><time>2026-05-01T15:10:13Z</time></trkpt><trkpt lat="45.84050296525477" lon="14.014778508892675"><ele>916.0</ele><time>2026-05-01T15:10:14Z</time></trkpt><trkpt lat="45.840613100288095" lon="14.014689298045754"><ele>917.0</ele><time>2026-05-01T15:10:15Z</time></trkpt><trkpt lat="45.84070451417821" lon="14.01459846802292"><ele>918.0</ele><time>2026-05-01T15:10:16Z</time></trkpt><trkpt lat="45.84079120016704" lon="14.014487679611324"><ele>918.0</ele><time>2026-05-01T15:10:17Z</time></trkpt><trkpt lat="45.84088802750716" lon="14.014348889958999"><ele>918.0</ele><time>2026-05-01T15:10:18Z</time></trkpt><trkpt lat="45.840992472542624" lon="14.014241626569351"><ele>918.0</ele><time>2026-05-01T15:10:19Z</time></trkpt><trkpt lat="45.841070184223376" lon="14.014122790467257"><ele>918.0</ele><time>2026-05-01T15:10:20Z</time></trkpt><trkpt lat="45.84116014882618" lon="14.014018125975928"><ele>918.25</ele><time>2026-05-01T15:10:21Z</time></trkpt><trkpt lat="45.841256676581004" lon="14.013904760848876"><ele>918.5</ele><time>2026-05-01T15:10:22Z</time></trkpt><trkpt lat="45.84136706230368" lon="14.013791461758666"><ele>918.75</ele><time>2026-05-01T15:10:23Z</time></trkpt><trkpt lat="45.841472650675634" lon="14.013674363044242"><ele>919.0</ele><time>2026-05-01T15:10:24Z</time></trkpt><trkpt lat="45.841589023790036" lon="14.013555857131017"><ele>919.0</ele><time>2026-05-01T15:10:25Z</time></trkpt><trkpt lat="45.84169669755912" lon="14.013434600318574"><ele>919.0</ele><time>2026-05-01T15:10:26Z</time></trkpt><trkpt lat="45.84180025667105" lon="14.013321071142055"><ele>919.0</ele><time>2026-05-01T15:10:27Z</time></trkpt><trkpt lat="45.84189550057968" lon="14.013211593538896"><ele>919.0</ele><time>2026-05-01T15:10:28Z</time></trkpt><trkpt lat="45.842002002089394" lon="14.01310688348398"><ele>917.5</ele><time>2026-05-01T15:10:29Z</time></trkpt><trkpt lat="45.84210932292406" lon="14.013008855750465"><ele>916.0</ele><time>2026-05-01T15:10:30Z</time></trkpt><trkpt lat="45.842220225012895" lon="14.012918444556105"><ele>914.5</ele><time>2026-05-01T15:10:31Z</time></trkpt><trkpt lat="45.84232540031978" lon="14.012824849873924"><ele>913.0</ele><time>2026-05-01T15:10:32Z</time></trkpt><trkpt lat="45.84243171065095" lon="14.012731362358625"><ele>913.0</ele><time>2026-05-01T15:10:33Z</time></trkpt><trkpt lat="45.842536814800674" lon="14.01263447510037"><ele>913.0</ele><time>2026-05-01T15:10:34Z</time></trkpt><trkpt lat="45.84264429222899" lon="14.012548431657892"><ele>913.0</ele><time>2026-05-01T15:10:35Z</time></trkpt><trkpt lat="45.84275261730018" lon="14.012470814789216"><ele>913.0</ele><time>2026-05-01T15:10:36Z</time></trkpt><trkpt lat="45.84286351841655" lon="14.012395126249888"><ele>909.75</ele><time>2026-05-01T15:10:37Z</time></trkpt><trkpt lat="45.84297780840647" lon="14.012321731621997"><ele>906.5</ele><time>2026-05-01T15:10:38Z</time></trkpt><trkpt lat="45.84309106316951" lon="14.012253991092559"><ele>903.25</ele><time>2026-05-01T15:10:39Z</time></trkpt><trkpt lat="45.843214152470246" lon="14.012173582849968"><ele>900.0</ele><time>2026-05-01T15:10:40Z</time></trkpt><trkpt lat="45.84334572676181" lon="14.012100768055948"><ele>902.5</ele><time>2026-05-01T15:10:41Z</time></trkpt><trkpt lat="45.84347440481963" lon="14.01201971148453"><ele>905.0</ele><time>2026-05-01T15:10:42Z</time></trkpt><trkpt lat="45.843590906339706" lon="14.01192638905428"><ele>907.5</ele><time>2026-05-01T15:10:43Z</time></trkpt><trkpt lat="45.8437229290308" lon="14.011850456821174"><ele>910.0</ele><time>2026-05-01T15:10:44Z</time></trkpt><trkpt lat="45.843848798943355" lon="14.01176778906603"><ele>910.0</ele><time>2026-05-01T15:10:45Z</time></trkpt><trkpt lat="45.84397969695858" lon="14.011699235382482"><ele>910.0</ele><time>2026-05-01T15:10:46Z</time></trkpt><trkpt lat="45.844109475167876" lon="14.011631663692128"><ele>910.0</ele><time>2026-05-01T15:10:47Z</time></trkpt><trkpt lat="45.84423628404965" lon="14.011545684058655"><ele>910.0</ele><time>2026-05-01T15:10:48Z</time></trkpt><trkpt lat="45.84437858957588" lon="14.01147293575872"><ele>907.25</ele><time>2026-05-01T15:10:49Z</time></trkpt><trkpt lat="45.844499336782796" lon="14.011418234536755"><ele>904.5</ele><time>2026-05-01T15:10:50Z</time></trkpt><trkpt lat="45.844614128865175" lon="14.011372067828528"><ele>901.75</ele><time>2026-05-01T15:10:51Z</time></trkpt><trkpt lat="45.84471973418553" lon="14.011316119389067"><ele>899.0</ele><time>2026-05-01T15:10:52Z</time></trkpt><trkpt lat="45.844824757566826" lon="14.011267819160107"><ele>899.0</ele><time>2026-05-01T15:10:53.001Z</time></trkpt><trkpt lat="45.844944461399166" lon="14.011248861605326"><ele>899.0</ele><time>2026-05-01T15:10:54.001Z</time></trkpt><trkpt lat="45.84506886127597" lon="14.011206580465817"><ele>899.0</ele><time>2026-05-01T15:10:55.001Z</time></trkpt><trkpt lat="45.84518259911574" lon="14.011154974656419"><ele>899.0</ele><time>2026-05-01T15:10:56.001Z</time></trkpt><trkpt lat="45.84529757207446" lon="14.011131203290606"><ele>899.6</ele><time>2026-05-01T15:10:57.001Z</time></trkpt><trkpt lat="45.84540194006103" lon="14.011096765360117"><ele>900.2</ele><time>2026-05-01T15:10:58.001Z</time></trkpt><trkpt lat="45.845506406275895" lon="14.011073499690456"><ele>900.8000000000001</ele><time>2026-05-01T15:10:59.001Z</time></trkpt><trkpt lat="45.845609273409586" lon="14.01106005865662"><ele>901.4000000000001</ele><time>2026-05-01T15:11:00.001Z</time></trkpt><trkpt lat="45.84571033678234" lon="14.011044881107347"><ele>902.0</ele><time>2026-05-01T15:11:01.001Z</time></trkpt><trkpt lat="45.84580284959057" lon="14.011032932096464"><ele>902.0</ele><time>2026-05-01T15:11:02.001Z</time></trkpt><trkpt lat="45.845901103474226" lon="14.011001425160735"><ele>902.0</ele><time>2026-05-01T15:11:03.001Z</time></trkpt><trkpt lat="45.84598115691375" lon="14.01094355187665"><ele>902.0</ele><time>2026-05-01T15:11:04.001Z</time></trkpt><trkpt lat="45.846054576633755" lon="14.010860907585865"><ele>902.0</ele><time>2026-05-01T15:11:05.001Z</time></trkpt><trkpt lat="45.846120623718306" lon="14.010755110594193"><ele>902.0</ele><time>2026-05-01T15:11:06.001Z</time></trkpt><trkpt lat="45.84621261408089" lon="14.010651263071653"><ele>899.8</ele><time>2026-05-01T15:11:07.001Z</time></trkpt><trkpt lat="45.84629801644572" lon="14.01056482571957"><ele>897.6</ele><time>2026-05-01T15:11:08.001Z</time></trkpt><trkpt lat="45.84638469295458" lon="14.010495937951362"><ele>895.3999999999999</ele><time>2026-05-01T15:11:09.001Z</time></trkpt><trkpt lat="45.84647745146892" lon="14.010435106029501"><ele>893.1999999999999</ele><time>2026-05-01T15:11:10.001Z</time></trkpt><trkpt lat="45.84658398167942" lon="14.010375079424264"><ele>891.0</ele><time>2026-05-01T15:11:11.001Z</time></trkpt><trkpt lat="45.84669000262258" lon="14.010324636400895"><ele>891.0</ele><time>2026-05-01T15:11:12.001Z</time></trkpt><trkpt lat="45.84679035747117" lon="14.010280223134927"><ele>890.9999999999999</ele><time>2026-05-01T15:11:13.001Z</time></trkpt><trkpt lat="45.8468864277675" lon="14.010244660443748"><ele>890.9999999999999</ele><time>2026-05-01T15:11:14Z</time></trkpt><trkpt lat="45.846983079188675" lon="14.010217158405668"><ele>891.0</ele><time>2026-05-01T15:11:15Z</time></trkpt><trkpt lat="45.84708261321653" lon="14.010197015466181"><ele>891.0</ele><time>2026-05-01T15:11:16Z</time></trkpt><trkpt lat="45.847190104479274" lon="14.010164524882699"><ele>889.0</ele><time>2026-05-01T15:11:17Z</time></trkpt><trkpt lat="45.84729523869335" lon="14.010165601174396"><ele>887.0</ele><time>2026-05-01T15:11:18Z</time></trkpt><trkpt lat="45.847402836668536" lon="14.010180028674997"><ele>885.0</ele><time>2026-05-01T15:11:19Z</time></trkpt><trkpt lat="45.84751761517451" lon="14.01019365349602"><ele>883.0</ele><time>2026-05-01T15:11:20Z</time></trkpt><trkpt lat="45.84764281263179" lon="14.0102071245453"><ele>881.25</ele><time>2026-05-01T15:11:21Z</time></trkpt><trkpt lat="45.847773883982676" lon="14.010215361285004"><ele>879.5</ele><time>2026-05-01T15:11:22Z</time></trkpt><trkpt lat="45.84790466353992" lon="14.01021978978252"><ele>877.75</ele><time>2026-05-01T15:11:23Z</time></trkpt><trkpt lat="45.84803447031848" lon="14.010227325586353"><ele>876.0</ele><time>2026-05-01T15:11:24Z</time></trkpt><trkpt lat="45.84815905605032" lon="14.010235381842495"><ele>876.0</ele><time>2026-05-01T15:11:25Z</time></trkpt><trkpt lat="45.848281699221154" lon="14.010245365244353"><ele>876.0</ele><time>2026-05-01T15:11:26Z</time></trkpt><trkpt lat="45.8484118437922" lon="14.010256875199305"><ele>876.0</ele><time>2026-05-01T15:11:27Z</time></trkpt><trkpt lat="45.848541875361484" lon="14.01026678166515"><ele>876.0</ele><time>2026-05-01T15:11:28Z</time></trkpt><trkpt lat="45.84868566516143" lon="14.01026811120147"><ele>874.25</ele><time>2026-05-01T15:11:29Z</time></trkpt><trkpt lat="45.84882986393353" lon="14.010282918310363"><ele>872.5</ele><time>2026-05-01T15:11:30Z</time></trkpt><trkpt lat="45.848976451644944" lon="14.010295500170521"><ele>870.75</ele><time>2026-05-01T15:11:31Z</time></trkpt><trkpt lat="45.84911229334751" lon="14.010301394174128"><ele>869.0</ele><time>2026-05-01T15:11:32Z</time></trkpt><trkpt lat="45.849242917118424" lon="14.01032012967962"><ele>867.75</ele><time>2026-05-01T15:11:33Z</time></trkpt><trkpt lat="45.84936736588719" lon="14.010331979382753"><ele>866.5</ele><time>2026-05-01T15:11:34Z</time></trkpt><trkpt lat="45.84949359851678" lon="14.010336681768491"><ele>865.25</ele><time>2026-05-01T15:11:35Z</time></trkpt><trkpt lat="45.849616843222435" lon="14.010365895988736"><ele>864.0</ele><time>2026-05-01T15:11:36Z</time></trkpt><trkpt lat="45.849741263766205" lon="14.010355026178798"><ele>864.0</ele><time>2026-05-01T15:11:37Z</time></trkpt><trkpt lat="45.84986072303584" lon="14.010376676439192"><ele>864.0</ele><time>2026-05-01T15:11:38Z</time></trkpt><trkpt lat="45.84999012553089" lon="14.010401297570077"><ele>864.0</ele><time>2026-05-01T15:11:39Z</time></trkpt><trkpt lat="45.850121546343715" lon="14.0104361851499"><ele>864.0</ele><time>2026-05-01T15:11:40Z</time></trkpt><trkpt lat="45.85024603786167" lon="14.010477626883073"><ele>862.5</ele><time>2026-05-01T15:11:41Z</time></trkpt><trkpt lat="45.850364142432745" lon="14.010534725941332"><ele>861.0</ele><time>2026-05-01T15:11:42Z</time></trkpt><trkpt lat="45.85047667293534" lon="14.01059136092159"><ele>859.5</ele><time>2026-05-01T15:11:43Z</time></trkpt><trkpt lat="45.850574911609336" lon="14.010643222271797"><ele>858.0</ele><time>2026-05-01T15:11:44Z</time></trkpt><trkpt lat="45.85067944448174" lon="14.010692679057987"><ele>858.0</ele><time>2026-05-01T15:11:45Z</time></trkpt><trkpt lat="45.850781028338425" lon="14.010690101593909"><ele>858.0</ele><time>2026-05-01T15:11:46Z</time></trkpt><trkpt lat="45.850888712296914" lon="14.010700697013855"><ele>858.0</ele><time>2026-05-01T15:11:47Z</time></trkpt><trkpt lat="45.85100186105741" lon="14.010720570572376"><ele>858.0</ele><time>2026-05-01T15:11:48Z</time></trkpt><trkpt lat="45.851118060957646" lon="14.010682623912968"><ele>858.0</ele><time>2026-05-01T15:11:49Z</time></trkpt><trkpt lat="45.85124570977731" lon="14.010644683150637"><ele>856.5</ele><time>2026-05-01T15:11:50Z</time></trkpt><trkpt lat="45.85138079540924" lon="14.010651213194944"><ele>855.0</ele><time>2026-05-01T15:11:51Z</time></trkpt><trkpt lat="45.85151708827102" lon="14.01063548372246"><ele>853.5</ele><time>2026-05-01T15:11:52Z</time></trkpt><trkpt lat="45.85164888173704" lon="14.010620273516528"><ele>852.0</ele><time>2026-05-01T15:11:53Z</time></trkpt><trkpt lat="45.8517707374622" lon="14.010606545768963"><ele>850.0</ele><time>2026-05-01T15:11:54Z</time></trkpt><trkpt lat="45.85187998167625" lon="14.010597240826188"><ele>848.0</ele><time>2026-05-01T15:11:55Z</time></trkpt><trkpt lat="45.85199534171952" lon="14.010593262055936"><ele>846.0</ele><time>2026-05-01T15:11:56Z</time></trkpt><trkpt lat="45.85211696403812" lon="14.010612176754975"><ele>844.0</ele><time>2026-05-01T15:11:57Z</time></trkpt><trkpt lat="45.852251387752936" lon="14.010644001921758"><ele>844.0</ele><time>2026-05-01T15:11:58Z</time></trkpt><trkpt lat="45.85238861407633" lon="14.010677778285263"><ele>844.0</ele><time>2026-05-01T15:11:59Z</time></trkpt><trkpt lat="45.85254949733504" lon="14.01071719111375"><ele>844.0</ele><time>2026-05-01T15:12:00Z</time></trkpt><trkpt lat="45.85270030461498" lon="14.01073043952344"><ele>846.0</ele><time>2026-05-01T15:12:01Z</time></trkpt><trkpt lat="45.85283637811479" lon="14.010763485652697"><ele>848.0</ele><time>2026-05-01T15:12:02Z</time></trkpt><trkpt lat="45.85296491657757" lon="14.010789996940446"><ele>850.0</ele><time>2026-05-01T15:12:03Z</time></trkpt><trkpt lat="45.85308929901885" lon="14.01084247852459"><ele>852.0</ele><time>2026-05-01T15:12:04Z</time></trkpt><trkpt lat="45.85321141771062" lon="14.010872927234661"><ele>852.0</ele><time>2026-05-01T15:12:05Z</time></trkpt><trkpt lat="45.85332867560699" lon="14.010914193221955"><ele>852.0</ele><time>2026-05-01T15:12:06Z</time></trkpt><trkpt lat="45.85344434430142" lon="14.010967207896243"><ele>852.0</ele><time>2026-05-01T15:12:07Z</time></trkpt><trkpt lat="45.853560029110994" lon="14.011026586682364"><ele>852.0</ele><time>2026-05-01T15:12:08Z</time></trkpt><trkpt lat="45.85367278909309" lon="14.011096884061887"><ele>848.5</ele><time>2026-05-01T15:12:09Z</time></trkpt><trkpt lat="45.85378999626002" lon="14.011182420540763"><ele>845.0</ele><time>2026-05-01T15:12:10Z</time></trkpt><trkpt lat="45.853910828869274" lon="14.011258718335826"><ele>841.5</ele><time>2026-05-01T15:12:11Z</time></trkpt><trkpt lat="45.85401569837438" lon="14.011360226707627"><ele>838.0</ele><time>2026-05-01T15:12:12Z</time></trkpt><trkpt lat="45.854115433815416" lon="14.011464919991361"><ele>838.0</ele><time>2026-05-01T15:12:13Z</time></trkpt><trkpt lat="45.85421403280277" lon="14.011536892214554"><ele>838.0</ele><time>2026-05-01T15:12:14Z</time></trkpt><trkpt lat="45.85430391366313" lon="14.011632638836328"><ele>838.0</ele><time>2026-05-01T15:12:15Z</time></trkpt><trkpt lat="45.85439323237009" lon="14.01172241530164"><ele>838.0</ele><time>2026-05-01T15:12:16Z</time></trkpt><trkpt lat="45.854473765808244" lon="14.011805810465013"><ele>838.0</ele><time>2026-05-01T15:12:17Z</time></trkpt><trkpt lat="45.85452600833049" lon="14.011924722659005"><ele>838.1666666666666</ele><time>2026-05-01T15:12:18Z</time></trkpt><trkpt lat="45.854591098863054" lon="14.011981046668733"><ele>838.3333333333333</ele><time>2026-05-01T15:12:19Z</time></trkpt><trkpt lat="45.85464643543223" lon="14.012034533492495"><ele>838.5</ele><time>2026-05-01T15:12:20Z</time></trkpt><trkpt lat="45.85470843897459" lon="14.012062750036526"><ele>838.6666666666667</ele><time>2026-05-01T15:12:21Z</time></trkpt><trkpt lat="45.85479640880623" lon="14.012085139107958"><ele>838.8333333333334</ele><time>2026-05-01T15:12:22Z</time></trkpt><trkpt lat="45.854908256844304" lon="14.012073401134442"><ele>839.0</ele><time>2026-05-01T15:12:23Z</time></trkpt><trkpt lat="45.85502540113114" lon="14.012059585222293"><ele>836.6</ele><time>2026-05-01T15:12:24Z</time></trkpt><trkpt lat="45.85513625738876" lon="14.012043135772105"><ele>834.2</ele><time>2026-05-01T15:12:25Z</time></trkpt><trkpt lat="45.8552251747295" lon="14.012047198938152"><ele>831.8000000000001</ele><time>2026-05-01T15:12:26Z</time></trkpt><trkpt lat="45.855312323475594" lon="14.012062741514852"><ele>829.4000000000001</ele><time>2026-05-01T15:12:27Z</time></trkpt><trkpt lat="45.85540096690429" lon="14.012097594097979"><ele>827.0</ele><time>2026-05-01T15:12:28Z</time></trkpt><trkpt lat="45.85548399019245" lon="14.012153880898413"><ele>827.0</ele><time>2026-05-01T15:12:29Z</time></trkpt><trkpt lat="45.85557693401692" lon="14.0122187804487"><ele>827.0</ele><time>2026-05-01T15:12:30Z</time></trkpt><trkpt lat="45.855658104159154" lon="14.012314610247834"><ele>827.0</ele><time>2026-05-01T15:12:31Z</time></trkpt><trkpt lat="45.85575546476357" lon="14.012394080728939"><ele>827.0</ele><time>2026-05-01T15:12:32Z</time></trkpt><trkpt lat="45.855867595456935" lon="14.012475092712677"><ele>827.0</ele><time>2026-05-01T15:12:33Z</time></trkpt><trkpt lat="45.85599260162097" lon="14.012541218915434"><ele>826.6</ele><time>2026-05-01T15:12:34Z</time></trkpt><trkpt lat="45.85610658300917" lon="14.012567662756632"><ele>826.2</ele><time>2026-05-01T15:12:35Z</time></trkpt><trkpt lat="45.85620306925068" lon="14.012582151377947"><ele>825.8</ele><time>2026-05-01T15:12:36Z</time></trkpt><trkpt lat="45.85629400789813" lon="14.012625051296691"><ele>825.4</ele><time>2026-05-01T15:12:37Z</time></trkpt><trkpt lat="45.8563756324541" lon="14.012705009010013"><ele>825.0</ele><time>2026-05-01T15:12:38Z</time></trkpt><trkpt lat="45.85645230011418" lon="14.012805709342214"><ele>825.0</ele><time>2026-05-01T15:12:39Z</time></trkpt><trkpt lat="45.85651155065227" lon="14.012908391192184"><ele>825.0</ele><time>2026-05-01T15:12:40Z</time></trkpt><trkpt lat="45.856571064744635" lon="14.013016738969048"><ele>825.0</ele><time>2026-05-01T15:12:41Z</time></trkpt><trkpt lat="45.85664520386605" lon="14.01310356014182"><ele>825.0</ele><time>2026-05-01T15:12:42Z</time></trkpt><trkpt lat="45.856721167647166" lon="14.01318380852703"><ele>825.0</ele><time>2026-05-01T15:12:43Z</time></trkpt><trkpt lat="45.85682128654216" lon="14.01324293720879"><ele>822.25</ele><time>2026-05-01T15:12:44Z</time></trkpt><trkpt lat="45.85691164688445" lon="14.013332159258036"><ele>819.5</ele><time>2026-05-01T15:12:45Z</time></trkpt><trkpt lat="45.85701142268732" lon="14.01341895039159"><ele>816.75</ele><time>2026-05-01T15:12:46Z</time></trkpt><trkpt lat="45.857112256269" lon="14.013517989251511"><ele>814.0</ele><time>2026-05-01T15:12:47Z</time></trkpt><trkpt lat="45.85719896283663" lon="14.0136232032547"><ele>814.0</ele><time>2026-05-01T15:12:48Z</time></trkpt><trkpt lat="45.857284890747955" lon="14.01371406627348"><ele>814.0</ele><time>2026-05-01T15:12:49Z</time></trkpt><trkpt lat="45.857340837360766" lon="14.013829957590126"><ele>814.0</ele><time>2026-05-01T15:12:50Z</time></trkpt><trkpt lat="45.85739184259983" lon="14.013936900475091"><ele>814.0</ele><time>2026-05-01T15:12:51Z</time></trkpt><trkpt lat="45.85745635607419" lon="14.014021918474128"><ele>814.0</ele><time>2026-05-01T15:12:52Z</time></trkpt><trkpt lat="45.85753503380545" lon="14.014102261449766"><ele>815.6</ele><time>2026-05-01T15:12:53Z</time></trkpt><trkpt lat="45.85761624180193" lon="14.014183706034997"><ele>817.2</ele><time>2026-05-01T15:12:54Z</time></trkpt><trkpt lat="45.85768838795844" lon="14.014277624433998"><ele>818.8000000000001</ele><time>2026-05-01T15:12:55Z</time></trkpt><trkpt lat="45.85775963212164" lon="14.014354855603635"><ele>820.4000000000001</ele><time>2026-05-01T15:12:56Z</time></trkpt><trkpt lat="45.85782971832177" lon="14.014443585580509"><ele>822.0</ele><time>2026-05-01T15:12:57Z</time></trkpt><trkpt lat="45.85790827390733" lon="14.014549177224911"><ele>819.0</ele><time>2026-05-01T15:12:58Z</time></trkpt><trkpt lat="45.85799154002408" lon="14.01466691862768"><ele>816.0</ele><time>2026-05-01T15:12:59.001Z</time></trkpt><trkpt lat="45.85807041374418" lon="14.014784376627203"><ele>813.0</ele><time>2026-05-01T15:13:00.001Z</time></trkpt><trkpt lat="45.85813960915276" lon="14.014904259971143"><ele>810.0</ele><time>2026-05-01T15:13:01Z</time></trkpt><trkpt lat="45.858193138390064" lon="14.015044868785381"><ele>810.0</ele><time>2026-05-01T15:13:02Z</time></trkpt><trkpt lat="45.858238922701645" lon="14.015193351129541"><ele>810.0</ele><time>2026-05-01T15:13:03Z</time></trkpt><trkpt lat="45.858294981955986" lon="14.015339061216363"><ele>810.0</ele><time>2026-05-01T15:13:04Z</time></trkpt><trkpt lat="45.858319214728866" lon="14.01549789705296"><ele>810.0</ele><time>2026-05-01T15:13:05Z</time></trkpt><trkpt lat="45.85835990577544" lon="14.015641023764406"><ele>810.0</ele><time>2026-05-01T15:13:06Z</time></trkpt><trkpt lat="45.85841979282466" lon="14.015771239335107"><ele>810.0</ele><time>2026-05-01T15:13:07Z</time></trkpt><trkpt lat="45.85845772080898" lon="14.015918733839285"><ele>810.0</ele><time>2026-05-01T15:13:08Z</time></trkpt><trkpt lat="45.85850580487929" lon="14.016058318029891"><ele>810.0</ele><time>2026-05-01T15:13:09Z</time></trkpt><trkpt lat="45.85855299305266" lon="14.016200154850688"><ele>810.0</ele><time>2026-05-01T15:13:10Z</time></trkpt><trkpt lat="45.85859110903425" lon="14.016346082688948"><ele>809.0</ele><time>2026-05-01T15:13:11Z</time></trkpt><trkpt lat="45.858596135482216" lon="14.016497543958142"><ele>808.0</ele><time>2026-05-01T15:13:12Z</time></trkpt><trkpt lat="45.858624255952634" lon="14.016648800627584"><ele>807.0</ele><time>2026-05-01T15:13:13Z</time></trkpt><trkpt lat="45.858617958306866" lon="14.016796683110792"><ele>806.0</ele><time>2026-05-01T15:13:14Z</time></trkpt><trkpt lat="45.858600709304696" lon="14.016944279438508"><ele>805.0</ele><time>2026-05-01T15:13:15Z</time></trkpt><trkpt lat="45.858580679615066" lon="14.017100464560846"><ele>805.0</ele><time>2026-05-01T15:13:16Z</time></trkpt><trkpt lat="45.85854939855578" lon="14.017270849537557"><ele>805.0</ele><time>2026-05-01T15:13:17Z</time></trkpt><trkpt lat="45.85851110732294" lon="14.017440796344808"><ele>805.0</ele><time>2026-05-01T15:13:18Z</time></trkpt><trkpt lat="45.85848257359521" lon="14.017608038723779"><ele>805.0</ele><time>2026-05-01T15:13:19Z</time></trkpt><trkpt lat="45.858453725195844" lon="14.017771025779966"><ele>804.5</ele><time>2026-05-01T15:13:20Z</time></trkpt><trkpt lat="45.858428019078836" lon="14.017931359561405"><ele>804.0</ele><time>2026-05-01T15:13:21Z</time></trkpt><trkpt lat="45.85840206235106" lon="14.018092291938764"><ele>803.5</ele><time>2026-05-01T15:13:22Z</time></trkpt><trkpt lat="45.85837647723588" lon="14.018249592248859"><ele>803.0</ele><time>2026-05-01T15:13:23Z</time></trkpt><trkpt lat="45.85835455899481" lon="14.018402902509742"><ele>803.0</ele><time>2026-05-01T15:13:24Z</time></trkpt><trkpt lat="45.85833734922777" lon="14.01855264540491"><ele>803.0</ele><time>2026-05-01T15:13:25Z</time></trkpt><trkpt lat="45.85835247760209" lon="14.018708528938356"><ele>803.0</ele><time>2026-05-01T15:13:26Z</time></trkpt><trkpt lat="45.85838847875031" lon="14.018859421711284"><ele>803.0</ele><time>2026-05-01T15:13:27Z</time></trkpt><trkpt lat="45.85846037889069" lon="14.01898775674922"><ele>803.0</ele><time>2026-05-01T15:13:28Z</time></trkpt><trkpt lat="45.85855728415989" lon="14.01910243416812"><ele>798.5</ele><time>2026-05-01T15:13:29Z</time></trkpt><trkpt lat="45.85866134845505" lon="14.01919242081406"><ele>794.0</ele><time>2026-05-01T15:13:30Z</time></trkpt><trkpt lat="45.858746844185724" lon="14.019301736861646"><ele>789.5</ele><time>2026-05-01T15:13:31Z</time></trkpt><trkpt lat="45.85882428014656" lon="14.01940171544257"><ele>785.0</ele><time>2026-05-01T15:13:32Z</time></trkpt><trkpt lat="45.85889113225362" lon="14.019530353306463"><ele>785.0</ele><time>2026-05-01T15:13:33Z</time></trkpt><trkpt lat="45.85894152527187" lon="14.019665224390243"><ele>785.0</ele><time>2026-05-01T15:13:34Z</time></trkpt><trkpt lat="45.858951650149756" lon="14.019815541183725"><ele>785.0</ele><time>2026-05-01T15:13:35Z</time></trkpt><trkpt lat="45.85891515951853" lon="14.01996245008952"><ele>785.0</ele><time>2026-05-01T15:13:36Z</time></trkpt><trkpt lat="45.85881897225173" lon="14.020062048537183"><ele>785.0</ele><time>2026-05-01T15:13:37Z</time></trkpt><trkpt lat="45.85874272925888" lon="14.020202922847812"><ele>785.75</ele><time>2026-05-01T15:13:38Z</time></trkpt><trkpt lat="45.858661793056505" lon="14.020336644376274"><ele>786.5</ele><time>2026-05-01T15:13:39Z</time></trkpt><trkpt lat="45.85857906326141" lon="14.020472506777839"><ele>787.25</ele><time>2026-05-01T15:13:40Z</time></trkpt><trkpt lat="45.85850595595391" lon="14.020601163718815"><ele>788.0</ele><time>2026-05-01T15:13:41Z</time></trkpt><trkpt lat="45.858444601106484" lon="14.020725610071896"><ele>787.0</ele><time>2026-05-01T15:13:42Z</time></trkpt><trkpt lat="45.858400941484675" lon="14.020850455776927"><ele>786.0</ele><time>2026-05-01T15:13:43Z</time></trkpt><trkpt lat="45.858366943415696" lon="14.02096942632077"><ele>785.0</ele><time>2026-05-01T15:13:44Z</time></trkpt><trkpt lat="45.8583403047997" lon="14.021099175512797"><ele>784.0</ele><time>2026-05-01T15:13:45Z</time></trkpt><trkpt lat="45.858335427543224" lon="14.021221940289836"><ele>783.0</ele><time>2026-05-01T15:13:46Z</time></trkpt><trkpt lat="45.858343698522326" lon="14.021359031632295"><ele>783.0</ele><time>2026-05-01T15:13:47Z</time></trkpt><trkpt lat="45.85836030899518" lon="14.021517917300285"><ele>783.0</ele><time>2026-05-01T15:13:48Z</time></trkpt><trkpt lat="45.85839253614616" lon="14.021712111092299"><ele>783.0</ele><time>2026-05-01T15:13:49Z</time></trkpt><trkpt lat="45.85842440917771" lon="14.02187255787547"><ele>783.0</ele><time>2026-05-01T15:13:50Z</time></trkpt><trkpt lat="45.858459378956944" lon="14.022029249085021"><ele>780.0</ele><time>2026-05-01T15:13:51Z</time></trkpt><trkpt lat="45.85850362189163" lon="14.022210848636826"><ele>777.0</ele><time>2026-05-01T15:13:52Z</time></trkpt><trkpt lat="45.85855721847986" lon="14.022407827092128"><ele>774.0</ele><time>2026-05-01T15:13:53Z</time></trkpt><trkpt lat="45.85861815291438" lon="14.022565775885584"><ele>771.0</ele><time>2026-05-01T15:13:54Z</time></trkpt><trkpt lat="45.858653289448036" lon="14.022724023763061"><ele>771.1999999999999</ele><time>2026-05-01T15:13:55Z</time></trkpt><trkpt lat="45.858694802869444" lon="14.022864697338836"><ele>771.4</ele><time>2026-05-01T15:13:56Z</time></trkpt><trkpt lat="45.85874170939635" lon="14.022999233496547"><ele>771.6</ele><time>2026-05-01T15:13:57Z</time></trkpt><trkpt lat="45.85879496455837" lon="14.023131118363413"><ele>771.8</ele><time>2026-05-01T15:13:58Z</time></trkpt><trkpt lat="45.85885770665685" lon="14.023263152705727"><ele>772.0</ele><time>2026-05-01T15:13:59Z</time></trkpt><trkpt lat="45.85891541367245" lon="14.023430328219213"><ele>772.0</ele><time>2026-05-01T15:14:00Z</time></trkpt><trkpt lat="45.858980501430295" lon="14.02360290636964"><ele>772.0</ele><time>2026-05-01T15:14:01Z</time></trkpt><trkpt lat="45.85905094403061" lon="14.023766650059573"><ele>772.0</ele><time>2026-05-01T15:14:02Z</time></trkpt><trkpt lat="45.859095516994216" lon="14.023971987882462"><ele>772.0</ele><time>2026-05-01T15:14:03Z</time></trkpt><trkpt lat="45.859122551720006" lon="14.02416619930156"><ele>773.0</ele><time>2026-05-01T15:14:04Z</time></trkpt><trkpt lat="45.859119408931626" lon="14.024317720640036"><ele>774.0</ele><time>2026-05-01T15:14:05Z</time></trkpt><trkpt lat="45.859121271679705" lon="14.02446195759047"><ele>775.0</ele><time>2026-05-01T15:14:06Z</time></trkpt><trkpt lat="45.85911826726419" lon="14.02461599257051"><ele>776.0</ele><time>2026-05-01T15:14:07Z</time></trkpt><trkpt lat="45.859102588187305" lon="14.024775175872175"><ele>777.0</ele><time>2026-05-01T15:14:08Z</time></trkpt><trkpt lat="45.85907382851327" lon="14.02494447270753"><ele>776.8</ele><time>2026-05-01T15:14:09Z</time></trkpt><trkpt lat="45.85902953324149" lon="14.025094040076283"><ele>776.6</ele><time>2026-05-01T15:14:10Z</time></trkpt><trkpt lat="45.85897371297049" lon="14.025206172481495"><ele>776.4</ele><time>2026-05-01T15:14:11Z</time></trkpt><trkpt lat="45.858913559561344" lon="14.025316350961353"><ele>776.1999999999999</ele><time>2026-05-01T15:14:12Z</time></trkpt><trkpt lat="45.858814006632485" lon="14.025418036432008"><ele>776.0</ele><time>2026-05-01T15:14:13Z</time></trkpt><trkpt lat="45.85868592372687" lon="14.025543922199612"><ele>776.0</ele><time>2026-05-01T15:14:14Z</time></trkpt><trkpt lat="45.85856912122847" lon="14.025676590193653"><ele>776.0</ele><time>2026-05-01T15:14:15Z</time></trkpt><trkpt lat="45.858430652375766" lon="14.025837852530913"><ele>776.0</ele><time>2026-05-01T15:14:16Z</time></trkpt><trkpt lat="45.858284216615246" lon="14.025989266912271"><ele>776.25</ele><time>2026-05-01T15:14:17Z</time></trkpt><trkpt lat="45.858151405092" lon="14.026101077106723"><ele>776.5</ele><time>2026-05-01T15:14:18Z</time></trkpt><trkpt lat="45.85803966369933" lon="14.02621483400626"><ele>776.75</ele><time>2026-05-01T15:14:19Z</time></trkpt><trkpt lat="45.857933538066845" lon="14.02632066719123"><ele>777.0</ele><time>2026-05-01T15:14:20Z</time></trkpt><trkpt lat="45.85783255454139" lon="14.026417388346303"><ele>777.0</ele><time>2026-05-01T15:14:21Z</time></trkpt><trkpt lat="45.85773657346367" lon="14.026507854605947"><ele>777.0</ele><time>2026-05-01T15:14:22Z</time></trkpt><trkpt lat="45.85764567847614" lon="14.026591036520694"><ele>777.0</ele><time>2026-05-01T15:14:23Z</time></trkpt><trkpt lat="45.857558297387286" lon="14.026671002753917"><ele>777.0</ele><time>2026-05-01T15:14:24Z</time></trkpt><trkpt lat="45.85747686264879" lon="14.026745527238841"><ele>777.0</ele><time>2026-05-01T15:14:25Z</time></trkpt><trkpt lat="45.85740674495617" lon="14.026827609624238"><ele>775.6</ele><time>2026-05-01T15:14:26Z</time></trkpt><trkpt lat="45.85732602854496" lon="14.026887556946058"><ele>774.2</ele><time>2026-05-01T15:14:27Z</time></trkpt><trkpt lat="45.85724550322606" lon="14.026942960020087"><ele>772.8</ele><time>2026-05-01T15:14:28Z</time></trkpt><trkpt lat="45.85715315755733" lon="14.027005801367347"><ele>771.4</ele><time>2026-05-01T15:14:29Z</time></trkpt><trkpt lat="45.857059564430806" lon="14.02710092282778"><ele>770.0</ele><time>2026-05-01T15:14:30Z</time></trkpt><trkpt lat="45.85698643917032" lon="14.027221551530587"><ele>770.0</ele><time>2026-05-01T15:14:31Z</time></trkpt><trkpt lat="45.8569208717144" lon="14.027345464873928"><ele>770.0</ele><time>2026-05-01T15:14:32Z</time></trkpt><trkpt lat="45.85685087835781" lon="14.027495446163462"><ele>770.0</ele><time>2026-05-01T15:14:33Z</time></trkpt><trkpt lat="45.85677877176371" lon="14.027659862257078"><ele>770.0</ele><time>2026-05-01T15:14:34Z</time></trkpt><trkpt lat="45.856713191105" lon="14.027815151131787"><ele>769.75</ele><time>2026-05-01T15:14:35Z</time></trkpt><trkpt lat="45.856652416973425" lon="14.027949858848334"><ele>769.5</ele><time>2026-05-01T15:14:36Z</time></trkpt><trkpt lat="45.856579820061484" lon="14.028066627879806"><ele>769.25</ele><time>2026-05-01T15:14:37Z</time></trkpt><trkpt lat="45.856538027672364" lon="14.028207239536064"><ele>769.0</ele><time>2026-05-01T15:14:38Z</time></trkpt><trkpt lat="45.85647457389511" lon="14.02835993525919"><ele>767.8000000000001</ele><time>2026-05-01T15:14:39Z</time></trkpt><trkpt lat="45.85645063666936" lon="14.028513237480855"><ele>766.6</ele><time>2026-05-01T15:14:40Z</time></trkpt><trkpt lat="45.856468244802876" lon="14.02862435926716"><ele>765.4</ele><time>2026-05-01T15:14:41Z</time></trkpt><trkpt lat="45.85648133630856" lon="14.028787275386057"><ele>764.2</ele><time>2026-05-01T15:14:42Z</time></trkpt><trkpt lat="45.856500484308455" lon="14.028957764719252"><ele>763.0</ele><time>2026-05-01T15:14:43Z</time></trkpt><trkpt lat="45.8565090491347" lon="14.02910782275573"><ele>761.8</ele><time>2026-05-01T15:14:44Z</time></trkpt><trkpt lat="45.85647372237684" lon="14.02922449994523"><ele>760.5999999999999</ele><time>2026-05-01T15:14:45Z</time></trkpt><trkpt lat="45.85644832736276" lon="14.02931277799007"><ele>759.4000000000001</ele><time>2026-05-01T15:14:46Z</time></trkpt><trkpt lat="45.85633280990114" lon="14.029367219426348"><ele>758.2</ele><time>2026-05-01T15:14:48Z</time></trkpt><trkpt lat="45.85624765619722" lon="14.029383838229744"><ele>757.0</ele><time>2026-05-01T15:14:49Z</time></trkpt><trkpt lat="45.85612194757658" lon="14.02937387015265"><ele>757.0</ele><time>2026-05-01T15:14:50Z</time></trkpt><trkpt lat="45.855979868700736" lon="14.029360488736838"><ele>757.0</ele><time>2026-05-01T15:14:51Z</time></trkpt><trkpt lat="45.85585914027006" lon="14.029383637414734"><ele>757.0</ele><time>2026-05-01T15:14:52Z</time></trkpt><trkpt lat="45.85578145466718" lon="14.02941638463621"><ele>757.0</ele><time>2026-05-01T15:14:53Z</time></trkpt><trkpt lat="45.85570777209271" lon="14.02944108962556"><ele>757.0</ele><time>2026-05-01T15:14:54Z</time></trkpt><trkpt lat="45.85564872106663" lon="14.029491619546283"><ele>757.0</ele><time>2026-05-01T15:14:55Z</time></trkpt><trkpt lat="45.85556725945404" lon="14.029549704921825"><ele>757.0</ele><time>2026-05-01T15:14:56Z</time></trkpt><trkpt lat="45.85551305424063" lon="14.029671837607886"><ele>757.0</ele><time>2026-05-01T15:14:57Z</time></trkpt><trkpt lat="45.85548989357449" lon="14.02982784750353"><ele>757.0</ele><time>2026-05-01T15:14:58Z</time></trkpt><trkpt lat="45.85548895753678" lon="14.029981723913947"><ele>757.0</ele><time>2026-05-01T15:14:59Z</time></trkpt><trkpt lat="45.855491429123646" lon="14.030134389677716"><ele>755.4000000000001</ele><time>2026-05-01T15:15:00Z</time></trkpt><trkpt lat="45.855491416894466" lon="14.030289611182102"><ele>753.8000000000001</ele><time>2026-05-01T15:15:01Z</time></trkpt><trkpt lat="45.855482135700335" lon="14.030436587525292"><ele>752.2</ele><time>2026-05-01T15:15:02Z</time></trkpt><trkpt lat="45.8554554390258" lon="14.030548549142527"><ele>750.6</ele><time>2026-05-01T15:15:03Z</time></trkpt><trkpt lat="45.85542050660169" lon="14.030627088251485"><ele>749.0</ele><time>2026-05-01T15:15:04Z</time></trkpt><trkpt lat="45.855294232399295" lon="14.030699527934427"><ele>749.0</ele><time>2026-05-01T15:15:06.001Z</time></trkpt><trkpt lat="45.85516739538556" lon="14.030752056272554"><ele>749.0</ele><time>2026-05-01T15:15:07.001Z</time></trkpt><trkpt lat="45.85500297080828" lon="14.030815875157595"><ele>749.0</ele><time>2026-05-01T15:15:08.001Z</time></trkpt><trkpt lat="45.85484971670405" lon="14.030873133911149"><ele>748.2</ele><time>2026-05-01T15:15:09.001Z</time></trkpt><trkpt lat="45.854710582817866" lon="14.03093696425459"><ele>747.4000000000001</ele><time>2026-05-01T15:15:10.001Z</time></trkpt><trkpt lat="45.85458856711338" lon="14.030960111763711"><ele>746.6</ele><time>2026-05-01T15:15:11.001Z</time></trkpt><trkpt lat="45.85449071902444" lon="14.030984580744839"><ele>745.8</ele><time>2026-05-01T15:15:12.001Z</time></trkpt><trkpt lat="45.854417693592666" lon="14.031026249964034"><ele>745.0</ele><time>2026-05-01T15:15:13.001Z</time></trkpt><trkpt lat="45.85435609797305" lon="14.031085989833548"><ele>746.8</ele><time>2026-05-01T15:15:14.001Z</time></trkpt><trkpt lat="45.854287698901054" lon="14.031156541485819"><ele>748.6</ele><time>2026-05-01T15:15:15.001Z</time></trkpt><trkpt lat="45.85423725329971" lon="14.031261953508826"><ele>750.4000000000001</ele><time>2026-05-01T15:15:16.001Z</time></trkpt><trkpt lat="45.85420931747624" lon="14.031394107374885"><ele>752.2</ele><time>2026-05-01T15:15:17.001Z</time></trkpt><trkpt lat="45.854207396181444" lon="14.031551153397125"><ele>754.0</ele><time>2026-05-01T15:15:18.001Z</time></trkpt><trkpt lat="45.85420694414439" lon="14.031726879855878"><ele>754.0</ele><time>2026-05-01T15:15:19.001Z</time></trkpt><trkpt lat="45.85422100850263" lon="14.03192802802073"><ele>754.0</ele><time>2026-05-01T15:15:20.001Z</time></trkpt><trkpt lat="45.85426280020703" lon="14.032081368184567"><ele>754.0</ele><time>2026-05-01T15:15:21.001Z</time></trkpt><trkpt lat="45.85430470546759" lon="14.0322022399302"><ele>754.0</ele><time>2026-05-01T15:15:22.001Z</time></trkpt><trkpt lat="45.8543739897735" lon="14.032302597265033"><ele>754.0</ele><time>2026-05-01T15:15:23.001Z</time></trkpt><trkpt lat="45.854470168781475" lon="14.032404579003178"><ele>752.25</ele><time>2026-05-01T15:15:24.001Z</time></trkpt><trkpt lat="45.85457695425184" lon="14.03253461342034"><ele>750.5</ele><time>2026-05-01T15:15:25.001Z</time></trkpt><trkpt lat="45.85471123774572" lon="14.032648606629566"><ele>748.75</ele><time>2026-05-01T15:15:26.001Z</time></trkpt><trkpt lat="45.85482489380999" lon="14.032746564966331"><ele>747.0</ele><time>2026-05-01T15:15:27Z</time></trkpt><trkpt lat="45.85488840816336" lon="14.03281441773525"><ele>747.0</ele><time>2026-05-01T15:15:28Z</time></trkpt><trkpt lat="45.8549336808706" lon="14.032888648485894"><ele>747.0</ele><time>2026-05-01T15:15:29Z</time></trkpt><trkpt lat="45.8549512945039" lon="14.032982320581336"><ele>747.0</ele><time>2026-05-01T15:15:30Z</time></trkpt><trkpt lat="45.854960514080204" lon="14.033097084721435"><ele>747.0</ele><time>2026-05-01T15:15:31Z</time></trkpt><trkpt lat="45.854955471495714" lon="14.033230891669538"><ele>747.0</ele><time>2026-05-01T15:15:32Z</time></trkpt><trkpt lat="45.854929770716225" lon="14.03334215080674"><ele>747.0</ele><time>2026-05-01T15:15:33Z</time></trkpt><trkpt lat="45.85488095233532" lon="14.033493198272499"><ele>747.25</ele><time>2026-05-01T15:15:34Z</time></trkpt><trkpt lat="45.85482842275062" lon="14.033687392940868"><ele>747.5</ele><time>2026-05-01T15:15:35Z</time></trkpt><trkpt lat="45.85479705546781" lon="14.03384052468077"><ele>747.75</ele><time>2026-05-01T15:15:36Z</time></trkpt><trkpt lat="45.85477157735112" lon="14.033987946123123"><ele>748.0</ele><time>2026-05-01T15:15:37Z</time></trkpt><trkpt lat="45.854751720224726" lon="14.034169673078017"><ele>748.0</ele><time>2026-05-01T15:15:38Z</time></trkpt><trkpt lat="45.85474134125753" lon="14.034376349970984"><ele>748.0</ele><time>2026-05-01T15:15:39Z</time></trkpt><trkpt lat="45.85474211031192" lon="14.03456183828112"><ele>748.0</ele><time>2026-05-01T15:15:40Z</time></trkpt><trkpt lat="45.854743083175" lon="14.03473833682172"><ele>748.0</ele><time>2026-05-01T15:15:41Z</time></trkpt><trkpt lat="45.85474267608482" lon="14.034905648522813"><ele>748.0</ele><time>2026-05-01T15:15:42Z</time></trkpt><trkpt lat="45.85473621448424" lon="14.035058101854576"><ele>748.0</ele><time>2026-05-01T15:15:43Z</time></trkpt><trkpt lat="45.85471950095735" lon="14.035200117777816"><ele>748.0</ele><time>2026-05-01T15:15:44Z</time></trkpt><trkpt lat="45.85468895359958" lon="14.035329206939346"><ele>748.0</ele><time>2026-05-01T15:15:45Z</time></trkpt><trkpt lat="45.85462165293684" lon="14.03543625560505"><ele>748.0</ele><time>2026-05-01T15:15:46Z</time></trkpt><trkpt lat="45.854523562577235" lon="14.035529290327867"><ele>748.0</ele><time>2026-05-01T15:15:47Z</time></trkpt><trkpt lat="45.854399670959694" lon="14.035560730638755"><ele>748.0</ele><time>2026-05-01T15:15:48Z</time></trkpt><trkpt lat="45.854260065973165" lon="14.035613668635587"><ele>748.0</ele><time>2026-05-01T15:15:49Z</time></trkpt><trkpt lat="45.85412014572814" lon="14.035621282970403"><ele>748.0</ele><time>2026-05-01T15:15:50Z</time></trkpt><trkpt lat="45.85398439401054" lon="14.035644925341845"><ele>748.8</ele><time>2026-05-01T15:15:51Z</time></trkpt><trkpt lat="45.85389065673543" lon="14.035656251684063"><ele>749.5999999999999</ele><time>2026-05-01T15:15:52Z</time></trkpt><trkpt lat="45.85380225797975" lon="14.03575793702297"><ele>750.4000000000001</ele><time>2026-05-01T15:15:54Z</time></trkpt><trkpt lat="45.85376281971875" lon="14.03585240679239"><ele>751.2</ele><time>2026-05-01T15:15:55Z</time></trkpt><trkpt lat="45.85371955230143" lon="14.035987333728109"><ele>752.0</ele><time>2026-05-01T15:15:56Z</time></trkpt><trkpt lat="45.85366677316337" lon="14.036134986207877"><ele>752.0</ele><time>2026-05-01T15:15:57Z</time></trkpt><trkpt lat="45.853659062992065" lon="14.036282162928833"><ele>752.0</ele><time>2026-05-01T15:15:58Z</time></trkpt><trkpt lat="45.85364984314455" lon="14.036383762643037"><ele>752.0</ele><time>2026-05-01T15:15:59Z</time></trkpt><trkpt lat="45.853672320044375" lon="14.03648228798859"><ele>752.0</ele><time>2026-05-01T15:16:00Z</time></trkpt><trkpt lat="45.85371644179626" lon="14.036611125857439"><ele>752.0</ele><time>2026-05-01T15:16:01Z</time></trkpt><trkpt lat="45.85375436817389" lon="14.036748241866682"><ele>752.0</ele><time>2026-05-01T15:16:02Z</time></trkpt><trkpt lat="45.853802696750435" lon="14.036905968665447"><ele>753.25</ele><time>2026-05-01T15:16:03Z</time></trkpt><trkpt lat="45.85385084711059" lon="14.037058032169767"><ele>754.5</ele><time>2026-05-01T15:16:04Z</time></trkpt><trkpt lat="45.8539004987415" lon="14.037215753161515"><ele>755.75</ele><time>2026-05-01T15:16:05Z</time></trkpt><trkpt lat="45.85396014858228" lon="14.037373929201236"><ele>757.0</ele><time>2026-05-01T15:16:06Z</time></trkpt><trkpt lat="45.85399180851653" lon="14.037511060063187"><ele>757.0</ele><time>2026-05-01T15:16:07Z</time></trkpt><trkpt lat="45.85399898879505" lon="14.037640707539438"><ele>757.0</ele><time>2026-05-01T15:16:08Z</time></trkpt><trkpt lat="45.85397604774614" lon="14.037780261338588"><ele>757.0</ele><time>2026-05-01T15:16:09Z</time></trkpt><trkpt lat="45.85388606944655" lon="14.03785022419205"><ele>757.0</ele><time>2026-05-01T15:16:10Z</time></trkpt><trkpt lat="45.853811733108536" lon="14.037923146059391"><ele>757.0</ele><time>2026-05-01T15:16:11Z</time></trkpt><trkpt lat="45.85370526548556" lon="14.03801461315513"><ele>757.0</ele><time>2026-05-01T15:16:12Z</time></trkpt><trkpt lat="45.85356157390217" lon="14.038094126031435"><ele>757.0</ele><time>2026-05-01T15:16:13Z</time></trkpt><trkpt lat="45.85340018507219" lon="14.038147274399652"><ele>757.0</ele><time>2026-05-01T15:16:14Z</time></trkpt><trkpt lat="45.853239202622184" lon="14.038197472780857"><ele>757.0</ele><time>2026-05-01T15:16:15Z</time></trkpt><trkpt lat="45.85311542261957" lon="14.038239966815153"><ele>757.0</ele><time>2026-05-01T15:16:16Z</time></trkpt><trkpt lat="45.85303658065872" lon="14.038291609278959"><ele>757.0</ele><time>2026-05-01T15:16:17Z</time></trkpt><trkpt lat="45.85297382655595" lon="14.038324103380683"><ele>757.0</ele><time>2026-05-01T15:16:18Z</time></trkpt><trkpt lat="45.85295593701232" lon="14.038411708759593"><ele>757.0</ele><time>2026-05-01T15:16:19Z</time></trkpt><trkpt lat="45.85291743099587" lon="14.038499720895977"><ele>757.0</ele><time>2026-05-01T15:16:20Z</time></trkpt><trkpt lat="45.85290287261711" lon="14.038638851958464"><ele>757.0</ele><time>2026-05-01T15:16:21Z</time></trkpt><trkpt lat="45.85289553268717" lon="14.038798962985824"><ele>757.0</ele><time>2026-05-01T15:16:22Z</time></trkpt><trkpt lat="45.852884353193815" lon="14.038936968187906"><ele>757.0</ele><time>2026-05-01T15:16:23Z</time></trkpt><trkpt lat="45.85288362771037" lon="14.039061818300468"><ele>757.0</ele><time>2026-05-01T15:16:24Z</time></trkpt><trkpt lat="45.85289887374206" lon="14.03917581056926"><ele>757.0</ele><time>2026-05-01T15:16:25Z</time></trkpt><trkpt lat="45.85293102363956" lon="14.039286054459321"><ele>756.0</ele><time>2026-05-01T15:16:26Z</time></trkpt><trkpt lat="45.85297238272028" lon="14.039407324180269"><ele>755.0</ele><time>2026-05-01T15:16:27Z</time></trkpt><trkpt lat="45.8530404152868" lon="14.039496278464412"><ele>754.0</ele><time>2026-05-01T15:16:28Z</time></trkpt><trkpt lat="45.853015220312855" lon="14.039655874930219"><ele>753.0</ele><time>2026-05-01T15:16:30Z</time></trkpt><trkpt lat="45.85298855114578" lon="14.039749675172885"><ele>752.0</ele><time>2026-05-01T15:16:31Z</time></trkpt><trkpt lat="45.8529525295017" lon="14.039840997125367"><ele>751.0</ele><time>2026-05-01T15:16:32Z</time></trkpt><trkpt lat="45.85288848093701" lon="14.039921639359656"><ele>750.5999999999999</ele><time>2026-05-01T15:16:33Z</time></trkpt><trkpt lat="45.852818240181634" lon="14.03997402672254"><ele>750.2</ele><time>2026-05-01T15:16:34Z</time></trkpt><trkpt lat="45.85274079399983" lon="14.040028418591074"><ele>749.8</ele><time>2026-05-01T15:16:35Z</time></trkpt><trkpt lat="45.852637574385085" lon="14.040028104016002"><ele>749.4000000000001</ele><time>2026-05-01T15:16:36Z</time></trkpt><trkpt lat="45.852531319855665" lon="14.03998108347291"><ele>749.0</ele><time>2026-05-01T15:16:37Z</time></trkpt><trkpt lat="45.85241616876833" lon="14.039963367970088"><ele>749.0</ele><time>2026-05-01T15:16:38Z</time></trkpt><trkpt lat="45.85231534294361" lon="14.03995192852728"><ele>749.0</ele><time>2026-05-01T15:16:39Z</time></trkpt><trkpt lat="45.8522331577426" lon="14.039936390202545"><ele>749.0</ele><time>2026-05-01T15:16:40Z</time></trkpt><trkpt lat="45.85214922950547" lon="14.039967586081575"><ele>749.0</ele><time>2026-05-01T15:16:41Z</time></trkpt><trkpt lat="45.8520742399466" lon="14.04004255949708"><ele>749.0</ele><time>2026-05-01T15:16:42Z</time></trkpt><trkpt lat="45.852003437124516" lon="14.040161629553928"><ele>749.0</ele><time>2026-05-01T15:16:43Z</time></trkpt><trkpt lat="45.851949703056164" lon="14.040307078993429"><ele>749.0</ele><time>2026-05-01T15:16:44Z</time></trkpt><trkpt lat="45.85193102957943" lon="14.040472978416881"><ele>749.0</ele><time>2026-05-01T15:16:45Z</time></trkpt><trkpt lat="45.85191956022908" lon="14.04064452152556"><ele>749.0</ele><time>2026-05-01T15:16:46Z</time></trkpt><trkpt lat="45.85187564591117" lon="14.040865887455139"><ele>747.0</ele><time>2026-05-01T15:16:47Z</time></trkpt><trkpt lat="45.85185151212561" lon="14.041079880858772"><ele>745.0</ele><time>2026-05-01T15:16:48Z</time></trkpt><trkpt lat="45.85183147969965" lon="14.041255063015178"><ele>743.0</ele><time>2026-05-01T15:16:49Z</time></trkpt><trkpt lat="45.85181540957947" lon="14.041428606726882"><ele>741.0</ele><time>2026-05-01T15:16:50Z</time></trkpt><trkpt lat="45.8517782636035" lon="14.04156558165009"><ele>744.1999999999999</ele><time>2026-05-01T15:16:51Z</time></trkpt><trkpt lat="45.851741101183734" lon="14.041676350407327"><ele>747.4</ele><time>2026-05-01T15:16:52Z</time></trkpt><trkpt lat="45.85167804874028" lon="14.041769877178126"><ele>750.6</ele><time>2026-05-01T15:16:53Z</time></trkpt><trkpt lat="45.851586260236445" lon="14.041831853723247"><ele>753.8</ele><time>2026-05-01T15:16:54Z</time></trkpt><trkpt lat="45.85147112976561" lon="14.041897461797685"><ele>757.0</ele><time>2026-05-01T15:16:55Z</time></trkpt><trkpt lat="45.851351655593675" lon="14.042003105983307"><ele>757.0</ele><time>2026-05-01T15:16:56Z</time></trkpt><trkpt lat="45.851248819437885" lon="14.042074910315458"><ele>757.0</ele><time>2026-05-01T15:16:57Z</time></trkpt><trkpt lat="45.85118506045365" lon="14.042162289209235"><ele>757.0</ele><time>2026-05-01T15:16:58Z</time></trkpt><trkpt lat="45.85113048191469" lon="14.042271913978642"><ele>757.0</ele><time>2026-05-01T15:16:59Z</time></trkpt><trkpt lat="45.851107798908416" lon="14.042418252289927"><ele>757.0</ele><time>2026-05-01T15:17:00Z</time></trkpt><trkpt lat="45.85105641348701" lon="14.042579569250531"><ele>757.5</ele><time>2026-05-01T15:17:01Z</time></trkpt><trkpt lat="45.85102017975485" lon="14.042778682344"><ele>758.0</ele><time>2026-05-01T15:17:02Z</time></trkpt><trkpt lat="45.85100112446824" lon="14.042998213561381"><ele>758.5</ele><time>2026-05-01T15:17:03Z</time></trkpt><trkpt lat="45.850994662002435" lon="14.04318251921599"><ele>759.0</ele><time>2026-05-01T15:17:04Z</time></trkpt><trkpt lat="45.85099358275697" lon="14.043342417581648"><ele>759.0</ele><time>2026-05-01T15:17:05Z</time></trkpt><trkpt lat="45.850997008057696" lon="14.043482497782499"><ele>759.0</ele><time>2026-05-01T15:17:06Z</time></trkpt><trkpt lat="45.85100766619532" lon="14.043619253841582"><ele>759.0</ele><time>2026-05-01T15:17:07Z</time></trkpt><trkpt lat="45.851027020102066" lon="14.04374089658438"><ele>759.0</ele><time>2026-05-01T15:17:08Z</time></trkpt><trkpt lat="45.851066226778634" lon="14.043873721006225"><ele>759.0</ele><time>2026-05-01T15:17:09Z</time></trkpt><trkpt lat="45.85112894883284" lon="14.044021319019263"><ele>759.2</ele><time>2026-05-01T15:17:10Z</time></trkpt><trkpt lat="45.851201889608106" lon="14.04418552522928"><ele>759.4000000000001</ele><time>2026-05-01T15:17:11.001Z</time></trkpt><trkpt lat="45.85125541571335" lon="14.044334164292975"><ele>759.6</ele><time>2026-05-01T15:17:12.001Z</time></trkpt><trkpt lat="45.851295637001364" lon="14.044456897265434"><ele>759.8</ele><time>2026-05-01T15:17:13.001Z</time></trkpt><trkpt lat="45.85131619010194" lon="14.044561187293215"><ele>760.0</ele><time>2026-05-01T15:17:14.001Z</time></trkpt><trkpt lat="45.85131633507897" lon="14.044677618800755"><ele>760.0</ele><time>2026-05-01T15:17:15.001Z</time></trkpt><trkpt lat="45.851257284789426" lon="14.044766831500361"><ele>760.0</ele><time>2026-05-01T15:17:16.001Z</time></trkpt><trkpt lat="45.85116970830184" lon="14.044757947954976"><ele>760.0</ele><time>2026-05-01T15:17:17.001Z</time></trkpt><trkpt lat="45.85098952153443" lon="14.044602665603756"><ele>760.0</ele><time>2026-05-01T15:17:20.001Z</time></trkpt><trkpt lat="45.850923293077685" lon="14.044528000522579"><ele>759.4</ele><time>2026-05-01T15:17:21.001Z</time></trkpt><trkpt lat="45.85085761709872" lon="14.04443707872139"><ele>758.8</ele><time>2026-05-01T15:17:22.001Z</time></trkpt><trkpt lat="45.85078183583321" lon="14.044389601118281"><ele>758.2</ele><time>2026-05-01T15:17:23.001Z</time></trkpt><trkpt lat="45.85068744877776" lon="14.044378205244245"><ele>757.6</ele><time>2026-05-01T15:17:24.001Z</time></trkpt><trkpt lat="45.85060055751732" lon="14.044394352200706"><ele>757.0</ele><time>2026-05-01T15:17:25.001Z</time></trkpt><trkpt lat="45.850505949860576" lon="14.044443833346456"><ele>757.0</ele><time>2026-05-01T15:17:26.001Z</time></trkpt><trkpt lat="45.850408530764284" lon="14.044531881767373"><ele>757.0</ele><time>2026-05-01T15:17:27.001Z</time></trkpt><trkpt lat="45.85031686639206" lon="14.044639805382552"><ele>757.0</ele><time>2026-05-01T15:17:28.001Z</time></trkpt><trkpt lat="45.85021999904288" lon="14.044786913513423"><ele>757.0</ele><time>2026-05-01T15:17:29.001Z</time></trkpt><trkpt lat="45.850089397177484" lon="14.044943147122082"><ele>760.0</ele><time>2026-05-01T15:17:30Z</time></trkpt><trkpt lat="45.84993896564656" lon="14.045133142114159"><ele>763.0</ele><time>2026-05-01T15:17:31Z</time></trkpt><trkpt lat="45.849809642858176" lon="14.04533456299983"><ele>766.0</ele><time>2026-05-01T15:17:32Z</time></trkpt><trkpt lat="45.84967769470303" lon="14.045489739486975"><ele>766.0</ele><time>2026-05-01T15:17:33Z</time></trkpt><trkpt lat="45.849573195075195" lon="14.045639509149265"><ele>766.0</ele><time>2026-05-01T15:17:34Z</time></trkpt><trkpt lat="45.84948469206823" lon="14.045793270524024"><ele>766.0</ele><time>2026-05-01T15:17:35Z</time></trkpt><trkpt lat="45.84941578115973" lon="14.045972221147707"><ele>766.0</ele><time>2026-05-01T15:17:36Z</time></trkpt><trkpt lat="45.849353596732925" lon="14.046188452180079"><ele>762.6666666666667</ele><time>2026-05-01T15:17:37Z</time></trkpt><trkpt lat="45.84930773344041" lon="14.046404457663268"><ele>759.3333333333334</ele><time>2026-05-01T15:17:38Z</time></trkpt><trkpt lat="45.849276600963826" lon="14.04662573650554"><ele>756.0</ele><time>2026-05-01T15:17:39Z</time></trkpt><trkpt lat="45.84926426625069" lon="14.046840444568645"><ele>760.0</ele><time>2026-05-01T15:17:40Z</time></trkpt><trkpt lat="45.849277943010605" lon="14.047021981324784"><ele>764.0</ele><time>2026-05-01T15:17:41Z</time></trkpt><trkpt lat="45.849284518801134" lon="14.047172325612953"><ele>768.0</ele><time>2026-05-01T15:17:42Z</time></trkpt><trkpt lat="45.84927493700801" lon="14.04731136977985"><ele>772.0</ele><time>2026-05-01T15:17:43Z</time></trkpt><trkpt lat="45.84922040912869" lon="14.04748052915408"><ele>772.0</ele><time>2026-05-01T15:17:44Z</time></trkpt><trkpt lat="45.849173449278695" lon="14.047635800644349"><ele>772.0</ele><time>2026-05-01T15:17:45Z</time></trkpt><trkpt lat="45.84910103720265" lon="14.047862090226607"><ele>772.0</ele><time>2026-05-01T15:17:46Z</time></trkpt><trkpt lat="45.849028592274145" lon="14.048038178311632"><ele>772.0</ele><time>2026-05-01T15:17:47Z</time></trkpt><trkpt lat="45.84896043969961" lon="14.048172215628577"><ele>772.0</ele><time>2026-05-01T15:17:48Z</time></trkpt><trkpt lat="45.84888650120539" lon="14.04828430077366"><ele>772.0</ele><time>2026-05-01T15:17:49Z</time></trkpt><trkpt lat="45.84879644211588" lon="14.048412647153347"><ele>772.0</ele><time>2026-05-01T15:17:50Z</time></trkpt><trkpt lat="45.84868234702265" lon="14.048560912210045"><ele>772.0</ele><time>2026-05-01T15:17:51Z</time></trkpt><trkpt lat="45.84855026588369" lon="14.048711597569715"><ele>773.5</ele><time>2026-05-01T15:17:52Z</time></trkpt><trkpt lat="45.84840310779432" lon="14.048861549271765"><ele>775.0</ele><time>2026-05-01T15:17:53Z</time></trkpt><trkpt lat="45.848290326766175" lon="14.048971564924784"><ele>776.5</ele><time>2026-05-01T15:17:54Z</time></trkpt><trkpt lat="45.848203969220265" lon="14.04907023314677"><ele>778.0</ele><time>2026-05-01T15:17:55Z</time></trkpt><trkpt lat="45.84811755858556" lon="14.049172469352298"><ele>774.0</ele><time>2026-05-01T15:17:56Z</time></trkpt><trkpt lat="45.84806748986179" lon="14.049315310602202"><ele>770.0</ele><time>2026-05-01T15:17:57Z</time></trkpt><trkpt lat="45.84800668928747" lon="14.04946077621575"><ele>766.0</ele><time>2026-05-01T15:17:58Z</time></trkpt><trkpt lat="45.84795154407775" lon="14.049572695702812"><ele>762.0</ele><time>2026-05-01T15:17:59Z</time></trkpt><trkpt lat="45.84789550423824" lon="14.049646453815747"><ele>758.0</ele><time>2026-05-01T15:18:00Z</time></trkpt><trkpt lat="45.84783092584237" lon="14.049686580799573"><ele>758.0</ele><time>2026-05-01T15:18:01Z</time></trkpt><trkpt lat="45.847757358225564" lon="14.049732914110704"><ele>758.0</ele><time>2026-05-01T15:18:02Z</time></trkpt><trkpt lat="45.84764793693385" lon="14.049795033407108"><ele>758.0</ele><time>2026-05-01T15:18:03Z</time></trkpt><trkpt lat="45.847513219490764" lon="14.04986234690584"><ele>758.0</ele><time>2026-05-01T15:18:04Z</time></trkpt><trkpt lat="45.84738047357844" lon="14.049921654050205"><ele>756.25</ele><time>2026-05-01T15:18:05Z</time></trkpt><trkpt lat="45.84726685464101" lon="14.049969441762649"><ele>754.5</ele><time>2026-05-01T15:18:06Z</time></trkpt><trkpt lat="45.847158929362536" lon="14.05001208477649"><ele>752.75</ele><time>2026-05-01T15:18:07Z</time></trkpt><trkpt lat="45.847068478697274" lon="14.050038999098039"><ele>751.0</ele><time>2026-05-01T15:18:08Z</time></trkpt><trkpt lat="45.84693793779897" lon="14.05005725095279"><ele>751.6666666666667</ele><time>2026-05-01T15:18:09Z</time></trkpt><trkpt lat="45.846788712931755" lon="14.050076333288374"><ele>752.3333333333334</ele><time>2026-05-01T15:18:10Z</time></trkpt><trkpt lat="45.84663268236037" lon="14.050132498793609"><ele>753.0</ele><time>2026-05-01T15:18:11Z</time></trkpt><trkpt lat="45.846474970789906" lon="14.050208257589045"><ele>753.0</ele><time>2026-05-01T15:18:12Z</time></trkpt><trkpt lat="45.84632281935456" lon="14.050284196900126"><ele>753.0</ele><time>2026-05-01T15:18:13Z</time></trkpt><trkpt lat="45.8461671735643" lon="14.050364940949384"><ele>753.0</ele><time>2026-05-01T15:18:14Z</time></trkpt><trkpt lat="45.84601585503847" lon="14.050423388265322"><ele>756.3333333333334</ele><time>2026-05-01T15:18:15Z</time></trkpt><trkpt lat="45.84585817166493" lon="14.050440962287539"><ele>759.6666666666667</ele><time>2026-05-01T15:18:16Z</time></trkpt><trkpt lat="45.84569459142814" lon="14.050449348397537"><ele>763.0</ele><time>2026-05-01T15:18:17Z</time></trkpt><trkpt lat="45.84557148656375" lon="14.050499526647284"><ele>763.0</ele><time>2026-05-01T15:18:18Z</time></trkpt><trkpt lat="45.845480333380046" lon="14.050527212534186"><ele>763.0</ele><time>2026-05-01T15:18:19Z</time></trkpt><trkpt lat="45.84540894386562" lon="14.050553004906847"><ele>763.0</ele><time>2026-05-01T15:18:20Z</time></trkpt><trkpt lat="45.84534752509293" lon="14.050599766361723"><ele>763.0</ele><time>2026-05-01T15:18:21Z</time></trkpt><trkpt lat="45.84529165547006" lon="14.050694334315313"><ele>763.0</ele><time>2026-05-01T15:18:22Z</time></trkpt><trkpt lat="45.84525450677542" lon="14.050828286087807"><ele>763.0</ele><time>2026-05-01T15:18:23Z</time></trkpt><trkpt lat="45.84520315185537" lon="14.050956566449878"><ele>762.5999999999999</ele><time>2026-05-01T15:18:24Z</time></trkpt><trkpt lat="45.84515095387622" lon="14.051088745273251"><ele>762.1999999999999</ele><time>2026-05-01T15:18:25Z</time></trkpt><trkpt lat="45.845088550698776" lon="14.051192133663854"><ele>761.8</ele><time>2026-05-01T15:18:26Z</time></trkpt><trkpt lat="45.84500001548187" lon="14.051259287894322"><ele>761.4</ele><time>2026-05-01T15:18:27Z</time></trkpt><trkpt lat="45.84489126272836" lon="14.051318330613176"><ele>761.0</ele><time>2026-05-01T15:18:28Z</time></trkpt><trkpt lat="45.84476106788856" lon="14.05140127010149"><ele>761.0</ele><time>2026-05-01T15:18:29Z</time></trkpt><trkpt lat="45.844633913243044" lon="14.051450568661705"><ele>761.0</ele><time>2026-05-01T15:18:30Z</time></trkpt><trkpt lat="45.8445329393352" lon="14.051470808354178"><ele>761.0</ele><time>2026-05-01T15:18:31Z</time></trkpt><trkpt lat="45.84444871250998" lon="14.051492995699578"><ele>761.0</ele><time>2026-05-01T15:18:32Z</time></trkpt><trkpt lat="45.84436910448566" lon="14.051520392131753"><ele>761.0</ele><time>2026-05-01T15:18:33Z</time></trkpt><trkpt lat="45.844321933862616" lon="14.051632650426967"><ele>760.1999999999999</ele><time>2026-05-01T15:18:34Z</time></trkpt><trkpt lat="45.84425830319154" lon="14.051781729927235"><ele>759.4</ele><time>2026-05-01T15:18:35Z</time></trkpt><trkpt lat="45.844176445204795" lon="14.05184161999725"><ele>758.6</ele><time>2026-05-01T15:18:36Z</time></trkpt><trkpt lat="45.844105684064054" lon="14.051879395446697"><ele>757.8</ele><time>2026-05-01T15:18:37Z</time></trkpt><trkpt lat="45.84401203846383" lon="14.051944104880187"><ele>757.0</ele><time>2026-05-01T15:18:38Z</time></trkpt><trkpt lat="45.84388771726485" lon="14.051966500478361"><ele>757.0</ele><time>2026-05-01T15:18:39Z</time></trkpt><trkpt lat="45.84376847012513" lon="14.05201895072557"><ele>757.0</ele><time>2026-05-01T15:18:40Z</time></trkpt><trkpt lat="45.843674876432885" lon="14.052104938677642"><ele>757.0</ele><time>2026-05-01T15:18:41Z</time></trkpt><trkpt lat="45.84357778589283" lon="14.052204388649233"><ele>757.0</ele><time>2026-05-01T15:18:42Z</time></trkpt><trkpt lat="45.84349382666854" lon="14.052316863535987"><ele>758.75</ele><time>2026-05-01T15:18:43Z</time></trkpt><trkpt lat="45.84341564108681" lon="14.052440446531348"><ele>760.5</ele><time>2026-05-01T15:18:44Z</time></trkpt><trkpt lat="45.84334970361882" lon="14.05257892757577"><ele>762.25</ele><time>2026-05-01T15:18:45Z</time></trkpt><trkpt lat="45.84326915217359" lon="14.052779043045486"><ele>764.0</ele><time>2026-05-01T15:18:46Z</time></trkpt><trkpt lat="45.843194418150496" lon="14.052980965479824"><ele>764.0</ele><time>2026-05-01T15:18:47Z</time></trkpt><trkpt lat="45.84313533869441" lon="14.053143996088757"><ele>764.0</ele><time>2026-05-01T15:18:48Z</time></trkpt><trkpt lat="45.84308172550325" lon="14.053281000710548"><ele>764.0</ele><time>2026-05-01T15:18:49Z</time></trkpt><trkpt lat="45.84303636835802" lon="14.053432536193927"><ele>764.0</ele><time>2026-05-01T15:18:50Z</time></trkpt><trkpt lat="45.84300372574771" lon="14.05358665604282"><ele>762.25</ele><time>2026-05-01T15:18:51Z</time></trkpt><trkpt lat="45.84300239336095" lon="14.053740260488706"><ele>760.5</ele><time>2026-05-01T15:18:52Z</time></trkpt><trkpt lat="45.84301374086943" lon="14.053908622984451"><ele>758.75</ele><time>2026-05-01T15:18:53Z</time></trkpt><trkpt lat="45.84302156562128" lon="14.054116939233168"><ele>757.0</ele><time>2026-05-01T15:18:54Z</time></trkpt><trkpt lat="45.84301595518254" lon="14.054366065656868"><ele>757.0</ele><time>2026-05-01T15:18:55Z</time></trkpt><trkpt lat="45.84299104831702" lon="14.054566985453917"><ele>757.0</ele><time>2026-05-01T15:18:56Z</time></trkpt><trkpt lat="45.84295033024252" lon="14.05471809243749"><ele>757.0</ele><time>2026-05-01T15:18:57Z</time></trkpt><trkpt lat="45.842859278611684" lon="14.054843191459431"><ele>757.0</ele><time>2026-05-01T15:18:58Z</time></trkpt><trkpt lat="45.84279783434936" lon="14.055028677725346"><ele>756.8</ele><time>2026-05-01T15:18:59Z</time></trkpt><trkpt lat="45.84272035331899" lon="14.055190833791801"><ele>756.6</ele><time>2026-05-01T15:19:00Z</time></trkpt><trkpt lat="45.84270006316463" lon="14.055331362570891"><ele>756.4</ele><time>2026-05-01T15:19:01Z</time></trkpt><trkpt lat="45.84269933445018" lon="14.055425887260164"><ele>756.1999999999999</ele><time>2026-05-01T15:19:02Z</time></trkpt><trkpt lat="45.84275099032943" lon="14.055535148698604"><ele>756.0</ele><time>2026-05-01T15:19:04Z</time></trkpt><trkpt lat="45.84281585319461" lon="14.05560147039567"><ele>756.0</ele><time>2026-05-01T15:19:05Z</time></trkpt><trkpt lat="45.84289330117962" lon="14.05567825883323"><ele>756.0</ele><time>2026-05-01T15:19:06Z</time></trkpt><trkpt lat="45.842995113045504" lon="14.055784093737596"><ele>756.0</ele><time>2026-05-01T15:19:07Z</time></trkpt><trkpt lat="45.84310416165351" lon="14.055954092396457"><ele>756.0</ele><time>2026-05-01T15:19:08Z</time></trkpt><trkpt lat="45.84321113203838" lon="14.056099310170627"><ele>757.5</ele><time>2026-05-01T15:19:09Z</time></trkpt><trkpt lat="45.84329896062822" lon="14.056213470658879"><ele>759.0</ele><time>2026-05-01T15:19:10Z</time></trkpt><trkpt lat="45.84336558599299" lon="14.056336339480394"><ele>760.5</ele><time>2026-05-01T15:19:11Z</time></trkpt><trkpt lat="45.843420900941766" lon="14.056467614856825"><ele>762.0</ele><time>2026-05-01T15:19:12Z</time></trkpt><trkpt lat="45.843463018216795" lon="14.05664501462614"><ele>760.5</ele><time>2026-05-01T15:19:13Z</time></trkpt><trkpt lat="45.843476845065986" lon="14.056808232496275"><ele>759.0</ele><time>2026-05-01T15:19:14Z</time></trkpt><trkpt lat="45.843478178077795" lon="14.056950109221349"><ele>757.5</ele><time>2026-05-01T15:19:15Z</time></trkpt><trkpt lat="45.84346049144828" lon="14.05710843710899"><ele>756.0</ele><time>2026-05-01T15:19:16Z</time></trkpt><trkpt lat="45.843432231965316" lon="14.057289995749256"><ele>758.25</ele><time>2026-05-01T15:19:17Z</time></trkpt><trkpt lat="45.843379140108155" lon="14.057459698637896"><ele>760.5</ele><time>2026-05-01T15:19:18Z</time></trkpt><trkpt lat="45.843308639594945" lon="14.057622318439455"><ele>762.75</ele><time>2026-05-01T15:19:19Z</time></trkpt><trkpt lat="45.843218112738946" lon="14.057819395577535"><ele>765.0</ele><time>2026-05-01T15:19:20Z</time></trkpt><trkpt lat="45.84309257099374" lon="14.057984165029145"><ele>765.0</ele><time>2026-05-01T15:19:21Z</time></trkpt><trkpt lat="45.843008600582685" lon="14.05813099624512"><ele>765.0</ele><time>2026-05-01T15:19:22Z</time></trkpt><trkpt lat="45.842960844588134" lon="14.058296582242686"><ele>765.0</ele><time>2026-05-01T15:19:23Z</time></trkpt><trkpt lat="45.84291330330594" lon="14.058452906410078"><ele>765.0</ele><time>2026-05-01T15:19:24Z</time></trkpt><trkpt lat="45.842885109039806" lon="14.058647993184229"><ele>763.0</ele><time>2026-05-01T15:19:25Z</time></trkpt><trkpt lat="45.842842761891745" lon="14.058843471270015"><ele>761.0</ele><time>2026-05-01T15:19:26Z</time></trkpt><trkpt lat="45.84279115469922" lon="14.05906135289952"><ele>759.0</ele><time>2026-05-01T15:19:27Z</time></trkpt><trkpt lat="45.84273738823966" lon="14.059283815976128"><ele>756.6666666666666</ele><time>2026-05-01T15:19:28Z</time></trkpt><trkpt lat="45.842676989628416" lon="14.059510652974915"><ele>754.3333333333333</ele><time>2026-05-01T15:19:29Z</time></trkpt><trkpt lat="45.84260726582764" lon="14.059762856788806"><ele>752.0</ele><time>2026-05-01T15:19:30Z</time></trkpt><trkpt lat="45.84250506834595" lon="14.059989073709437"><ele>760.0</ele><time>2026-05-01T15:19:31Z</time></trkpt><trkpt lat="45.842435105060815" lon="14.060194489899095"><ele>768.0</ele><time>2026-05-01T15:19:32Z</time></trkpt><trkpt lat="45.84237521199653" lon="14.060381832759377"><ele>776.0</ele><time>2026-05-01T15:19:33Z</time></trkpt><trkpt lat="45.84234896163016" lon="14.060538126806351"><ele>784.0</ele><time>2026-05-01T15:19:34Z</time></trkpt><trkpt lat="45.84231393322034" lon="14.060649108143526"><ele>784.0</ele><time>2026-05-01T15:19:35Z</time></trkpt><trkpt lat="45.8423019317124" lon="14.060775958879452"><ele>784.0</ele><time>2026-05-01T15:19:36Z</time></trkpt><trkpt lat="45.842330794107035" lon="14.06094295878388"><ele>784.0</ele><time>2026-05-01T15:19:37Z</time></trkpt><trkpt lat="45.84234736966228" lon="14.06109645420575"><ele>784.0</ele><time>2026-05-01T15:19:38Z</time></trkpt><trkpt lat="45.842330305640104" lon="14.061231907855241"><ele>784.0</ele><time>2026-05-01T15:19:39Z</time></trkpt><trkpt lat="45.84230168639387" lon="14.061328670079074"><ele>782.5</ele><time>2026-05-01T15:19:40Z</time></trkpt><trkpt lat="45.842270612982496" lon="14.061452211340017"><ele>781.0</ele><time>2026-05-01T15:19:41Z</time></trkpt><trkpt lat="45.8422112284041" lon="14.06161623300744"><ele>779.5</ele><time>2026-05-01T15:19:42Z</time></trkpt><trkpt lat="45.842156788407856" lon="14.0618067589373"><ele>778.0</ele><time>2026-05-01T15:19:43Z</time></trkpt><trkpt lat="45.84211533250556" lon="14.062018533201876"><ele>777.0</ele><time>2026-05-01T15:19:44Z</time></trkpt><trkpt lat="45.842078948509375" lon="14.062258998892762"><ele>776.0</ele><time>2026-05-01T15:19:45Z</time></trkpt><trkpt lat="45.842044613426246" lon="14.062506634157213"><ele>775.0</ele><time>2026-05-01T15:19:46Z</time></trkpt><trkpt lat="45.84203043791589" lon="14.062727283533757"><ele>774.6666666666666</ele><time>2026-05-01T15:19:47Z</time></trkpt><trkpt lat="45.84201303929908" lon="14.06294381792905"><ele>774.3333333333333</ele><time>2026-05-01T15:19:48Z</time></trkpt><trkpt lat="45.84201080503314" lon="14.063171352985384"><ele>774.0</ele><time>2026-05-01T15:19:49Z</time></trkpt><trkpt lat="45.84197347851262" lon="14.063390554620463"><ele>772.75</ele><time>2026-05-01T15:19:50Z</time></trkpt><trkpt lat="45.84195303310416" lon="14.063574441996218"><ele>771.5</ele><time>2026-05-01T15:19:51Z</time></trkpt><trkpt lat="45.841928914585104" lon="14.063730358197793"><ele>770.25</ele><time>2026-05-01T15:19:52Z</time></trkpt><trkpt lat="45.84188719934207" lon="14.06389672507799"><ele>769.0</ele><time>2026-05-01T15:19:53Z</time></trkpt><trkpt lat="45.84182358131627" lon="14.064093013915766"><ele>773.0</ele><time>2026-05-01T15:19:54Z</time></trkpt><trkpt lat="45.84169137810246" lon="14.064298435780476"><ele>777.0</ele><time>2026-05-01T15:19:55Z</time></trkpt><trkpt lat="45.84156717189039" lon="14.064505735731512"><ele>781.0</ele><time>2026-05-01T15:19:56Z</time></trkpt><trkpt lat="45.84147165415919" lon="14.064695063413854"><ele>781.0</ele><time>2026-05-01T15:19:57Z</time></trkpt><trkpt lat="45.84137153573987" lon="14.064882708881157"><ele>781.0</ele><time>2026-05-01T15:19:58Z</time></trkpt><trkpt lat="45.841280995143975" lon="14.065051587893448"><ele>781.0</ele><time>2026-05-01T15:19:59Z</time></trkpt><trkpt lat="45.841194124421186" lon="14.065226967506373"><ele>782.0</ele><time>2026-05-01T15:20:00Z</time></trkpt><trkpt lat="45.84111450449275" lon="14.065384267678432"><ele>783.0</ele><time>2026-05-01T15:20:01Z</time></trkpt><trkpt lat="45.84103584721713" lon="14.065529280957909"><ele>784.0</ele><time>2026-05-01T15:20:02Z</time></trkpt><trkpt lat="45.84094790478251" lon="14.065671448079799"><ele>785.0</ele><time>2026-05-01T15:20:03Z</time></trkpt><trkpt lat="45.84083613622119" lon="14.065829644825374"><ele>785.0</ele><time>2026-05-01T15:20:04Z</time></trkpt><trkpt lat="45.84071428718509" lon="14.066002846384729"><ele>785.0</ele><time>2026-05-01T15:20:05Z</time></trkpt><trkpt lat="45.84056538458766" lon="14.066124652585478"><ele>785.0</ele><time>2026-05-01T15:20:06Z</time></trkpt><trkpt lat="45.84042869329126" lon="14.066235047671862"><ele>785.0</ele><time>2026-05-01T15:20:07Z</time></trkpt><trkpt lat="45.840286644035295" lon="14.066342274859613"><ele>785.0</ele><time>2026-05-01T15:20:08Z</time></trkpt><trkpt lat="45.840153182743705" lon="14.066483567517121"><ele>785.0</ele><time>2026-05-01T15:20:09Z</time></trkpt><trkpt lat="45.840021351176" lon="14.066569608023684"><ele>784.0</ele><time>2026-05-01T15:20:10Z</time></trkpt><trkpt lat="45.839925090837475" lon="14.066698471957212"><ele>783.0</ele><time>2026-05-01T15:20:11Z</time></trkpt><trkpt lat="45.83981844039312" lon="14.066828179721135"><ele>782.0</ele><time>2026-05-01T15:20:12Z</time></trkpt><trkpt lat="45.83969138758213" lon="14.066981218499325"><ele>781.0</ele><time>2026-05-01T15:20:13Z</time></trkpt><trkpt lat="45.8395755756121" lon="14.067123824985162"><ele>781.0</ele><time>2026-05-01T15:20:14Z</time></trkpt><trkpt lat="45.839481925974674" lon="14.067215556112762"><ele>781.0</ele><time>2026-05-01T15:20:15Z</time></trkpt><trkpt lat="45.839394225191576" lon="14.067271068826052"><ele>781.0</ele><time>2026-05-01T15:20:16Z</time></trkpt><trkpt lat="45.83931179020746" lon="14.067306016632326"><ele>781.0</ele><time>2026-05-01T15:20:17Z</time></trkpt><trkpt lat="45.839223460462236" lon="14.067331501141672"><ele>781.0</ele><time>2026-05-01T15:20:18Z</time></trkpt><trkpt lat="45.83909359422384" lon="14.067362121105702"><ele>783.3333333333333</ele><time>2026-05-01T15:20:19Z</time></trkpt><trkpt lat="45.83891748234561" lon="14.067397254016164"><ele>785.6666666666667</ele><time>2026-05-01T15:20:20Z</time></trkpt><trkpt lat="45.83876508598345" lon="14.067418907062041"><ele>788.0</ele><time>2026-05-01T15:20:21Z</time></trkpt><trkpt lat="45.838635711486795" lon="14.067432994155755"><ele>787.5999999999999</ele><time>2026-05-01T15:20:22Z</time></trkpt><trkpt lat="45.83850103020504" lon="14.067447659065305"><ele>787.1999999999999</ele><time>2026-05-01T15:20:23Z</time></trkpt><trkpt lat="45.838402924436274" lon="14.067456763778996"><ele>786.8</ele><time>2026-05-01T15:20:24Z</time></trkpt><trkpt lat="45.8383075120204" lon="14.067443537399397"><ele>786.4</ele><time>2026-05-01T15:20:25Z</time></trkpt><trkpt lat="45.838230570028436" lon="14.06739297867105"><ele>786.0</ele><time>2026-05-01T15:20:26Z</time></trkpt><trkpt lat="45.838155025827014" lon="14.06731778834099"><ele>786.0</ele><time>2026-05-01T15:20:27Z</time></trkpt><trkpt lat="45.83807798677551" lon="14.06720050403327"><ele>786.0</ele><time>2026-05-01T15:20:28Z</time></trkpt><trkpt lat="45.83801520481167" lon="14.067058885570756"><ele>786.0</ele><time>2026-05-01T15:20:29Z</time></trkpt><trkpt lat="45.837955599960026" lon="14.066963035753975"><ele>786.0</ele><time>2026-05-01T15:20:30Z</time></trkpt><trkpt lat="45.83785710086699" lon="14.066931633365307"><ele>786.0</ele><time>2026-05-01T15:20:31Z</time></trkpt><trkpt lat="45.83774942988316" lon="14.066933280923466"><ele>785.25</ele><time>2026-05-01T15:20:32Z</time></trkpt><trkpt lat="45.837634368730384" lon="14.06694128696439"><ele>784.5</ele><time>2026-05-01T15:20:33Z</time></trkpt><trkpt lat="45.837505141160285" lon="14.066960390559805"><ele>783.75</ele><time>2026-05-01T15:20:34Z</time></trkpt><trkpt lat="45.83735173406697" lon="14.066991517938517"><ele>783.0</ele><time>2026-05-01T15:20:35Z</time></trkpt><trkpt lat="45.8371771610332" lon="14.067014098490054"><ele>783.0</ele><time>2026-05-01T15:20:36Z</time></trkpt><trkpt lat="45.83703041147371" lon="14.066998067053264"><ele>783.0</ele><time>2026-05-01T15:20:37Z</time></trkpt><trkpt lat="45.83691287104153" lon="14.066964671671775"><ele>783.0</ele><time>2026-05-01T15:20:38Z</time></trkpt><trkpt lat="45.83680908125061" lon="14.066920814596969"><ele>783.0</ele><time>2026-05-01T15:20:39Z</time></trkpt><trkpt lat="45.83671180426846" lon="14.066837888797224"><ele>781.25</ele><time>2026-05-01T15:20:40Z</time></trkpt><trkpt lat="45.83658083915469" lon="14.066726486909829"><ele>779.5</ele><time>2026-05-01T15:20:41Z</time></trkpt><trkpt lat="45.83645635646757" lon="14.066637859794149"><ele>777.75</ele><time>2026-05-01T15:20:42Z</time></trkpt><trkpt lat="45.8363554305515" lon="14.066569509753586"><ele>776.0</ele><time>2026-05-01T15:20:43Z</time></trkpt><trkpt lat="45.83622962812142" lon="14.066532392365591"><ele>778.0</ele><time>2026-05-01T15:20:44Z</time></trkpt><trkpt lat="45.836070824078" lon="14.066459857157673"><ele>780.0</ele><time>2026-05-01T15:20:45Z</time></trkpt><trkpt lat="45.83587819708149" lon="14.066402213871076"><ele>782.0</ele><time>2026-05-01T15:20:46Z</time></trkpt><trkpt lat="45.83569449716918" lon="14.06634235938331"><ele>782.0</ele><time>2026-05-01T15:20:47Z</time></trkpt><trkpt lat="45.835525408367005" lon="14.066244146075366"><ele>782.0</ele><time>2026-05-01T15:20:48Z</time></trkpt><trkpt lat="45.835372560664524" lon="14.066176432330819"><ele>782.0</ele><time>2026-05-01T15:20:49Z</time></trkpt><trkpt lat="45.835240810694984" lon="14.066089570772137"><ele>781.1666666666667</ele><time>2026-05-01T15:20:50Z</time></trkpt><trkpt lat="45.83512150050418" lon="14.066027148858046"><ele>780.3333333333334</ele><time>2026-05-01T15:20:51Z</time></trkpt><trkpt lat="45.83502301850614" lon="14.065978603761028"><ele>779.5</ele><time>2026-05-01T15:20:52Z</time></trkpt><trkpt lat="45.834959992663606" lon="14.065954989291619"><ele>778.6666666666667</ele><time>2026-05-01T15:20:53Z</time></trkpt><trkpt lat="45.83488610718227" lon="14.06596652481565"><ele>777.8333333333334</ele><time>2026-05-01T15:20:55Z</time></trkpt><trkpt lat="45.834820821020045" lon="14.065980613344093"><ele>777.0</ele><time>2026-05-01T15:20:58Z</time></trkpt><trkpt lat="45.83489801716239" lon="14.065925912371881"><ele>777.0</ele><time>2026-05-01T15:21:13Z</time></trkpt><trkpt lat="45.83499163328159" lon="14.065911446480943"><ele>777.0</ele><time>2026-05-01T15:21:15Z</time></trkpt><trkpt lat="45.83508823593498" lon="14.065950127988526"><ele>777.0</ele><time>2026-05-01T15:21:16Z</time></trkpt><trkpt lat="45.835161621494194" lon="14.06598468432976"><ele>777.0</ele><time>2026-05-01T15:21:17Z</time></trkpt><trkpt lat="45.835259603617274" lon="14.065864355275641"><ele>777.0</ele><time>2026-05-01T15:21:19Z</time></trkpt><trkpt lat="45.835323440157396" lon="14.065777328306455"><ele>779.8333333333334</ele><time>2026-05-01T15:21:21Z</time></trkpt><trkpt lat="45.835314189387944" lon="14.065611608795216"><ele>782.6666666666667</ele><time>2026-05-01T15:21:23Z</time></trkpt><trkpt lat="45.83525277106501" lon="14.065547552582595"><ele>785.5</ele><time>2026-05-01T15:21:24Z</time></trkpt><trkpt lat="45.83520263255427" lon="14.065488109078379"><ele>788.3333333333334</ele><time>2026-05-01T15:21:25Z</time></trkpt><trkpt lat="45.83512797735355" lon="14.0654795025545"><ele>791.1666666666667</ele><time>2026-05-01T15:21:26Z</time></trkpt><trkpt lat="45.83504808983979" lon="14.065440313970194"><ele>794.0</ele><time>2026-05-01T15:21:27Z</time></trkpt><trkpt lat="45.83496400074655" lon="14.065375310077522"><ele>794.0</ele><time>2026-05-01T15:21:28Z</time></trkpt><trkpt lat="45.8348653216612" lon="14.065305494540308"><ele>794.0</ele><time>2026-05-01T15:21:29Z</time></trkpt><trkpt lat="45.83478283563946" lon="14.06523418038104"><ele>794.0</ele><time>2026-05-01T15:21:30Z</time></trkpt><trkpt lat="45.83470106658302" lon="14.06517400060015"><ele>794.0</ele><time>2026-05-01T15:21:31Z</time></trkpt><trkpt lat="45.83461395991696" lon="14.06513854284954"><ele>794.0</ele><time>2026-05-01T15:21:32Z</time></trkpt><trkpt lat="45.83453159088292" lon="14.065092958609302"><ele>794.0</ele><time>2026-05-01T15:21:33Z</time></trkpt><trkpt lat="45.83443253099436" lon="14.065095695619725"><ele>794.0</ele><time>2026-05-01T15:21:34Z</time></trkpt><trkpt lat="45.83433742084336" lon="14.06512097820951"><ele>794.0</ele><time>2026-05-01T15:21:35Z</time></trkpt><trkpt lat="45.83424572249882" lon="14.065119578662813"><ele>794.0</ele><time>2026-05-01T15:21:36Z</time></trkpt><trkpt lat="45.834156472342485" lon="14.065164673956627"><ele>794.0</ele><time>2026-05-01T15:21:37Z</time></trkpt><trkpt lat="45.83406150075321" lon="14.065194546070975"><ele>793.75</ele><time>2026-05-01T15:21:38Z</time></trkpt><trkpt lat="45.83394571531916" lon="14.065209127760989"><ele>793.5</ele><time>2026-05-01T15:21:39Z</time></trkpt><trkpt lat="45.833828894727326" lon="14.06524617590083"><ele>793.25</ele><time>2026-05-01T15:21:40Z</time></trkpt><trkpt lat="45.83372043606533" lon="14.065305085250833"><ele>793.0</ele><time>2026-05-01T15:21:41Z</time></trkpt><trkpt lat="45.83361808327744" lon="14.065366343845373"><ele>792.9999999999999</ele><time>2026-05-01T15:21:42Z</time></trkpt><trkpt lat="45.83353119880568" lon="14.065416961827472"><ele>793.0</ele><time>2026-05-01T15:21:43Z</time></trkpt><trkpt lat="45.83343478379151" lon="14.06544283787553"><ele>793.0</ele><time>2026-05-01T15:21:44Z</time></trkpt><trkpt lat="45.83336052753363" lon="14.065410118062053"><ele>793.0</ele><time>2026-05-01T15:21:45Z</time></trkpt><trkpt lat="45.833299686476664" lon="14.065365858336897"><ele>792.9999999999999</ele><time>2026-05-01T15:21:46Z</time></trkpt><trkpt lat="45.833230673479214" lon="14.065241528115632"><ele>793.0</ele><time>2026-05-01T15:21:48Z</time></trkpt><trkpt lat="45.83322909525384" lon="14.065149131913287"><ele>793.9999999999999</ele><time>2026-05-01T15:21:49Z</time></trkpt><trkpt lat="45.833219031927946" lon="14.065045206773041"><ele>795.0</ele><time>2026-05-01T15:21:50Z</time></trkpt><trkpt lat="45.8332265404226" lon="14.06494151034359"><ele>796.0</ele><time>2026-05-01T15:21:51Z</time></trkpt><trkpt lat="45.833195913337484" lon="14.064835547519476"><ele>797.0</ele><time>2026-05-01T15:21:52Z</time></trkpt><trkpt lat="45.83316977132386" lon="14.06471475438129"><ele>797.9999999999999</ele><time>2026-05-01T15:21:53Z</time></trkpt><trkpt lat="45.833139290216835" lon="14.064612737719356"><ele>799.0</ele><time>2026-05-01T15:21:54Z</time></trkpt><trkpt lat="45.83304482273002" lon="14.06448873538181"><ele>800.9999999999999</ele><time>2026-05-01T15:21:56Z</time></trkpt><trkpt lat="45.83297346709952" lon="14.064461788967003"><ele>803.0</ele><time>2026-05-01T15:21:57Z</time></trkpt><trkpt lat="45.83289143551277" lon="14.064453570053649"><ele>805.0</ele><time>2026-05-01T15:21:58Z</time></trkpt><trkpt lat="45.83282173483388" lon="14.064419531204734"><ele>807.0</ele><time>2026-05-01T15:21:59Z</time></trkpt><trkpt lat="45.83272720931601" lon="14.064433906653058"><ele>808.9999999999999</ele><time>2026-05-01T15:22:00Z</time></trkpt><trkpt lat="45.83263903061276" lon="14.064436654040922"><ele>811.0</ele><time>2026-05-01T15:22:01Z</time></trkpt><trkpt lat="45.83255139481577" lon="14.06444670304823"><ele>812.0</ele><time>2026-05-01T15:22:02Z</time></trkpt><trkpt lat="45.832452779227516" lon="14.064437541816032"><ele>813.0</ele><time>2026-05-01T15:22:03Z</time></trkpt><trkpt lat="45.83236222662556" lon="14.064468451072086"><ele>814.0</ele><time>2026-05-01T15:22:04Z</time></trkpt><trkpt lat="45.832271430447726" lon="14.064493273333662"><ele>815.0</ele><time>2026-05-01T15:22:05Z</time></trkpt><trkpt lat="45.832176316563675" lon="14.064517553214786"><ele>816.0</ele><time>2026-05-01T15:22:06Z</time></trkpt><trkpt lat="45.83208662928212" lon="14.064530274061745"><ele>816.0</ele><time>2026-05-01T15:22:07Z</time></trkpt><trkpt lat="45.83200038170369" lon="14.064530058551906"><ele>816.0</ele><time>2026-05-01T15:22:08Z</time></trkpt><trkpt lat="45.83191459836334" lon="14.064551715578597"><ele>816.0</ele><time>2026-05-01T15:22:09Z</time></trkpt><trkpt lat="45.83182496944611" lon="14.064537134795783"><ele>816.0</ele><time>2026-05-01T15:22:10Z</time></trkpt><trkpt lat="45.831741389286194" lon="14.064568225352152"><ele>816.0</ele><time>2026-05-01T15:22:11Z</time></trkpt><trkpt lat="45.83165361306585" lon="14.064559082299585"><ele>816.0</ele><time>2026-05-01T15:22:12Z</time></trkpt><trkpt lat="45.83156919120376" lon="14.064572427337017"><ele>818.1666666666666</ele><time>2026-05-01T15:22:13Z</time></trkpt><trkpt lat="45.83148690494093" lon="14.064585434794788"><ele>820.3333333333333</ele><time>2026-05-01T15:22:14Z</time></trkpt><trkpt lat="45.83139932545486" lon="14.064599288378833"><ele>822.5</ele><time>2026-05-01T15:22:15Z</time></trkpt><trkpt lat="45.83131464772032" lon="14.064612683401744"><ele>824.6666666666666</ele><time>2026-05-01T15:22:16Z</time></trkpt><trkpt lat="45.83122946349769" lon="14.064626158595853"><ele>826.8333333333333</ele><time>2026-05-01T15:22:17Z</time></trkpt><trkpt lat="45.831144786880785" lon="14.06465449868186"><ele>829.0</ele><time>2026-05-01T15:22:18Z</time></trkpt><trkpt lat="45.831054677931185" lon="14.06466415656547"><ele>830.4999999999999</ele><time>2026-05-01T15:22:19Z</time></trkpt><trkpt lat="45.83096346914629" lon="14.064675736479009"><ele>832.0</ele><time>2026-05-01T15:22:20Z</time></trkpt><trkpt lat="45.8308790431726" lon="14.064684803767483"><ele>833.5</ele><time>2026-05-01T15:22:21Z</time></trkpt><trkpt lat="45.83078744955434" lon="14.064701137290891"><ele>835.0</ele><time>2026-05-01T15:22:22Z</time></trkpt><trkpt lat="45.83069760074656" lon="14.064715819199668"><ele>836.4999999999999</ele><time>2026-05-01T15:22:23Z</time></trkpt><trkpt lat="45.83061116096277" lon="14.064732456657708"><ele>838.0</ele><time>2026-05-01T15:22:24Z</time></trkpt><trkpt lat="45.83052733487868" lon="14.06475549546752"><ele>837.9999999999999</ele><time>2026-05-01T15:22:25Z</time></trkpt><trkpt lat="45.830436886780774" lon="14.06477917274236"><ele>838.0</ele><time>2026-05-01T15:22:26Z</time></trkpt><trkpt lat="45.830348959771484" lon="14.064793738560011"><ele>838.0</ele><time>2026-05-01T15:22:27Z</time></trkpt><trkpt lat="45.83026764859615" lon="14.064830075667219"><ele>838.0</ele><time>2026-05-01T15:22:28Z</time></trkpt><trkpt lat="45.83018596222842" lon="14.064848241346388"><ele>837.9999999999999</ele><time>2026-05-01T15:22:29Z</time></trkpt><trkpt lat="45.83009634551424" lon="14.064844798811393"><ele>838.0</ele><time>2026-05-01T15:22:30Z</time></trkpt><trkpt lat="45.83000449400532" lon="14.064884522407048"><ele>840.0</ele><time>2026-05-01T15:22:31Z</time></trkpt><trkpt lat="45.82991107019605" lon="14.064892645333583"><ele>842.0</ele><time>2026-05-01T15:22:32Z</time></trkpt><trkpt lat="45.829826058066445" lon="14.06490906229034"><ele>844.0</ele><time>2026-05-01T15:22:33Z</time></trkpt><trkpt lat="45.82974171678321" lon="14.064924719430723"><ele>846.0</ele><time>2026-05-01T15:22:34Z</time></trkpt><trkpt lat="45.8296495033165" lon="14.064917110554145"><ele>848.0</ele><time>2026-05-01T15:22:35Z</time></trkpt><trkpt lat="45.82955647221593" lon="14.064952040502812"><ele>846.5999999999999</ele><time>2026-05-01T15:22:36Z</time></trkpt><trkpt lat="45.829448799392445" lon="14.064993404695535"><ele>845.1999999999999</ele><time>2026-05-01T15:22:37Z</time></trkpt><trkpt lat="45.82935223332783" lon="14.065042710878872"><ele>843.8</ele><time>2026-05-01T15:22:38Z</time></trkpt><trkpt lat="45.82928171057945" lon="14.065116029500983"><ele>842.4</ele><time>2026-05-01T15:22:39Z</time></trkpt><trkpt lat="45.82921654931427" lon="14.065226389774843"><ele>841.0</ele><time>2026-05-01T15:22:40Z</time></trkpt><trkpt lat="45.829153577538335" lon="14.065362288938223"><ele>841.0</ele><time>2026-05-01T15:22:41Z</time></trkpt><trkpt lat="45.829038868398904" lon="14.06551163053006"><ele>841.0</ele><time>2026-05-01T15:22:42Z</time></trkpt><trkpt lat="45.82893788632634" lon="14.06571050761026"><ele>841.0</ele><time>2026-05-01T15:22:43Z</time></trkpt><trkpt lat="45.82882843601288" lon="14.065892177079721"><ele>835.6666666666666</ele><time>2026-05-01T15:22:44Z</time></trkpt><trkpt lat="45.82871135581385" lon="14.066070102275253"><ele>830.3333333333333</ele><time>2026-05-01T15:22:45Z</time></trkpt><trkpt lat="45.82863826063146" lon="14.066279213132393"><ele>825.0</ele><time>2026-05-01T15:22:46Z</time></trkpt><trkpt lat="45.828548798737316" lon="14.066500976767323"><ele>834.0</ele><time>2026-05-01T15:22:47Z</time></trkpt><trkpt lat="45.82844953671902" lon="14.066717654099476"><ele>843.0</ele><time>2026-05-01T15:22:48Z</time></trkpt><trkpt lat="45.828380394038994" lon="14.066949448800912"><ele>852.0</ele><time>2026-05-01T15:22:49Z</time></trkpt><trkpt lat="45.828314537171906" lon="14.0671353682163"><ele>852.0</ele><time>2026-05-01T15:22:50Z</time></trkpt><trkpt lat="45.82825964570582" lon="14.067294963700284"><ele>852.0</ele><time>2026-05-01T15:22:51Z</time></trkpt><trkpt lat="45.828207796643646" lon="14.067484415384762"><ele>852.0</ele><time>2026-05-01T15:22:52Z</time></trkpt><trkpt lat="45.82815786538309" lon="14.067678728218064"><ele>852.0</ele><time>2026-05-01T15:22:53Z</time></trkpt><trkpt lat="45.8281058753629" lon="14.067888828114045"><ele>849.0</ele><time>2026-05-01T15:22:54Z</time></trkpt><trkpt lat="45.82804314623662" lon="14.068145974323242"><ele>846.0</ele><time>2026-05-01T15:22:55Z</time></trkpt><trkpt lat="45.82796736709903" lon="14.068446964434719"><ele>843.0</ele><time>2026-05-01T15:22:56Z</time></trkpt><trkpt lat="45.827893040391814" lon="14.068728334485154"><ele>840.6666666666667</ele><time>2026-05-01T15:22:57Z</time></trkpt><trkpt lat="45.827831177299345" lon="14.068961674444786"><ele>838.3333333333334</ele><time>2026-05-01T15:22:58Z</time></trkpt><trkpt lat="45.82777442920142" lon="14.069193172195488"><ele>836.0</ele><time>2026-05-01T15:22:59Z</time></trkpt><trkpt lat="45.82772830444227" lon="14.069387483374433"><ele>833.6666666666667</ele><time>2026-05-01T15:23:00Z</time></trkpt><trkpt lat="45.827690932187416" lon="14.069568360710031"><ele>831.3333333333333</ele><time>2026-05-01T15:23:01Z</time></trkpt><trkpt lat="45.82765559735182" lon="14.069779443101888"><ele>829.0</ele><time>2026-05-01T15:23:02Z</time></trkpt><trkpt lat="45.82760453549647" lon="14.070009958059412"><ele>842.3333333333333</ele><time>2026-05-01T15:23:03Z</time></trkpt><trkpt lat="45.82755983607686" lon="14.070263892049686"><ele>855.6666666666667</ele><time>2026-05-01T15:23:04Z</time></trkpt><trkpt lat="45.82754212346316" lon="14.070493832493716"><ele>869.0</ele><time>2026-05-01T15:23:05Z</time></trkpt><trkpt lat="45.82750822645108" lon="14.070662949118901"><ele>868.8000000000001</ele><time>2026-05-01T15:23:06Z</time></trkpt><trkpt lat="45.827496376265096" lon="14.070812644267297"><ele>868.6000000000001</ele><time>2026-05-01T15:23:07Z</time></trkpt><trkpt lat="45.82749058459301" lon="14.0709775295562"><ele>868.4</ele><time>2026-05-01T15:23:08Z</time></trkpt><trkpt lat="45.82748423003096" lon="14.071143337711"><ele>868.2</ele><time>2026-05-01T15:23:09Z</time></trkpt><trkpt lat="45.82747801150644" lon="14.071302206269268"><ele>868.0</ele><time>2026-05-01T15:23:10Z</time></trkpt><trkpt lat="45.82746342227739" lon="14.071497908355667"><ele>868.0</ele><time>2026-05-01T15:23:11Z</time></trkpt><trkpt lat="45.82744453065465" lon="14.071711261374936"><ele>868.0</ele><time>2026-05-01T15:23:12Z</time></trkpt><trkpt lat="45.827425398956535" lon="14.071920206531143"><ele>868.0</ele><time>2026-05-01T15:23:13Z</time></trkpt><trkpt lat="45.82740878852722" lon="14.072083194144064"><ele>868.0</ele><time>2026-05-01T15:23:14Z</time></trkpt><trkpt lat="45.82739375386977" lon="14.072230719553609"><ele>867.9999999999999</ele><time>2026-05-01T15:23:15Z</time></trkpt><trkpt lat="45.827375551829086" lon="14.072388107398334"><ele>868.0</ele><time>2026-05-01T15:23:16Z</time></trkpt><trkpt lat="45.827342954391426" lon="14.072524651581642"><ele>868.0</ele><time>2026-05-01T15:23:17Z</time></trkpt><trkpt lat="45.827304507408556" lon="14.07263742028004"><ele>868.0</ele><time>2026-05-01T15:23:18Z</time></trkpt><trkpt lat="45.82728182767078" lon="14.072722915960712"><ele>867.9999999999999</ele><time>2026-05-01T15:23:19Z</time></trkpt><trkpt lat="45.82725839849606" lon="14.072838259335473"><ele>868.0</ele><time>2026-05-01T15:23:20Z</time></trkpt><trkpt lat="45.827200597725124" lon="14.07294604749121"><ele>866.75</ele><time>2026-05-01T15:23:21Z</time></trkpt><trkpt lat="45.8271291460418" lon="14.073087752641039"><ele>865.5</ele><time>2026-05-01T15:23:22Z</time></trkpt><trkpt lat="45.82705210780151" lon="14.0732467683883"><ele>864.25</ele><time>2026-05-01T15:23:23Z</time></trkpt><trkpt lat="45.82697853113123" lon="14.073416714041127"><ele>863.0</ele><time>2026-05-01T15:23:24Z</time></trkpt><trkpt lat="45.82689249354924" lon="14.073602623228092"><ele>867.5</ele><time>2026-05-01T15:23:25Z</time></trkpt><trkpt lat="45.82680702162026" lon="14.073783731289886"><ele>872.0</ele><time>2026-05-01T15:23:26Z</time></trkpt><trkpt lat="45.82671466190942" lon="14.07393197908682"><ele>876.5</ele><time>2026-05-01T15:23:27Z</time></trkpt><trkpt lat="45.82664232103267" lon="14.074058539626144"><ele>881.0</ele><time>2026-05-01T15:23:28.001Z</time></trkpt><trkpt lat="45.826566996442224" lon="14.074154668181613"><ele>881.0</ele><time>2026-05-01T15:23:29.001Z</time></trkpt><trkpt lat="45.826466318278605" lon="14.074231005389596"><ele>881.0</ele><time>2026-05-01T15:23:30.001Z</time></trkpt><trkpt lat="45.82638361796397" lon="14.07435970999879"><ele>881.0</ele><time>2026-05-01T15:23:31.001Z</time></trkpt><trkpt lat="45.82633152248236" lon="14.074537136308436"><ele>881.0</ele><time>2026-05-01T15:23:32.001Z</time></trkpt><trkpt lat="45.82625114517032" lon="14.074710989450425"><ele>881.0</ele><time>2026-05-01T15:23:33.001Z</time></trkpt><trkpt lat="45.826162345485486" lon="14.074874644457287"><ele>880.9999999999999</ele><time>2026-05-01T15:23:34.001Z</time></trkpt><trkpt lat="45.826075884490564" lon="14.074977093989082"><ele>880.9999999999999</ele><time>2026-05-01T15:23:35.001Z</time></trkpt><trkpt lat="45.82600690176633" lon="14.075053072504813"><ele>881.0</ele><time>2026-05-01T15:23:36.001Z</time></trkpt><trkpt lat="45.825922224806014" lon="14.075055044970826"><ele>881.0</ele><time>2026-05-01T15:23:37.001Z</time></trkpt><trkpt lat="45.825780432461364" lon="14.075088787343619"><ele>884.75</ele><time>2026-05-01T15:23:38.001Z</time></trkpt><trkpt lat="45.82563767956369" lon="14.075159631799153"><ele>888.5</ele><time>2026-05-01T15:23:39.001Z</time></trkpt><trkpt lat="45.82550778504607" lon="14.075229470443654"><ele>892.25</ele><time>2026-05-01T15:23:40.001Z</time></trkpt><trkpt lat="45.82538596393324" lon="14.07529143468517"><ele>896.0</ele><time>2026-05-01T15:23:41.001Z</time></trkpt><trkpt lat="45.82527117053465" lon="14.075350385619501"><ele>896.0</ele><time>2026-05-01T15:23:42.001Z</time></trkpt><trkpt lat="45.82515879597051" lon="14.07541191061365"><ele>895.9999999999999</ele><time>2026-05-01T15:23:43.001Z</time></trkpt><trkpt lat="45.825054358102186" lon="14.075467114925212"><ele>895.9999999999999</ele><time>2026-05-01T15:23:44.001Z</time></trkpt><trkpt lat="45.82496044457803" lon="14.075507265721338"><ele>896.0</ele><time>2026-05-01T15:23:45.001Z</time></trkpt><trkpt lat="45.824850527981766" lon="14.07552453593263"><ele>896.0</ele><time>2026-05-01T15:23:46Z</time></trkpt><trkpt lat="45.82472184841503" lon="14.075503978581342"><ele>898.1999999999999</ele><time>2026-05-01T15:23:47Z</time></trkpt><trkpt lat="45.82461700021616" lon="14.075469466060017"><ele>900.3999999999999</ele><time>2026-05-01T15:23:48Z</time></trkpt><trkpt lat="45.824527750548185" lon="14.075459877688525"><ele>902.6</ele><time>2026-05-01T15:23:49Z</time></trkpt><trkpt lat="45.82444412229654" lon="14.075510282342696"><ele>904.8</ele><time>2026-05-01T15:23:50Z</time></trkpt><trkpt lat="45.824375995159656" lon="14.075593515869775"><ele>907.0</ele><time>2026-05-01T15:23:51Z</time></trkpt><trkpt lat="45.8243005307048" lon="14.075663503925652"><ele>906.2</ele><time>2026-05-01T15:23:52Z</time></trkpt><trkpt lat="45.82421306851556" lon="14.075702281009434"><ele>905.4000000000001</ele><time>2026-05-01T15:23:53Z</time></trkpt><trkpt lat="45.82410176060236" lon="14.075767859518914"><ele>904.5999999999999</ele><time>2026-05-01T15:23:54Z</time></trkpt><trkpt lat="45.823994797137324" lon="14.075844444044854"><ele>903.8</ele><time>2026-05-01T15:23:55Z</time></trkpt><trkpt lat="45.823897158658866" lon="14.075933435248036"><ele>903.0</ele><time>2026-05-01T15:23:56Z</time></trkpt><trkpt lat="45.82380476799192" lon="14.076026869512559"><ele>903.0</ele><time>2026-05-01T15:23:57Z</time></trkpt><trkpt lat="45.823699864658224" lon="14.076062186800984"><ele>903.0</ele><time>2026-05-01T15:23:58Z</time></trkpt><trkpt lat="45.823581979050374" lon="14.076088013722222"><ele>903.0</ele><time>2026-05-01T15:23:59Z</time></trkpt><trkpt lat="45.82342711273062" lon="14.076154844261335"><ele>903.0</ele><time>2026-05-01T15:24:00Z</time></trkpt><trkpt lat="45.823260118155424" lon="14.076238381556166"><ele>908.5</ele><time>2026-05-01T15:24:01Z</time></trkpt><trkpt lat="45.8231088541828" lon="14.076324455921936"><ele>914.0</ele><time>2026-05-01T15:24:02Z</time></trkpt><trkpt lat="45.82298582018458" lon="14.076385999432318"><ele>919.5</ele><time>2026-05-01T15:24:03Z</time></trkpt><trkpt lat="45.822873824747" lon="14.076457145864714"><ele>925.0</ele><time>2026-05-01T15:24:04Z</time></trkpt><trkpt lat="45.82277416574982" lon="14.076493569402228"><ele>925.0</ele><time>2026-05-01T15:24:05Z</time></trkpt><trkpt lat="45.82268988868059" lon="14.076500489193165"><ele>925.0</ele><time>2026-05-01T15:24:06Z</time></trkpt><trkpt lat="45.82260556614637" lon="14.07648134489344"><ele>925.0</ele><time>2026-05-01T15:24:07Z</time></trkpt><trkpt lat="45.82251304048834" lon="14.076457470770121"><ele>925.0</ele><time>2026-05-01T15:24:08Z</time></trkpt><trkpt lat="45.82243810089084" lon="14.076440925201462"><ele>925.0</ele><time>2026-05-01T15:24:09Z</time></trkpt><trkpt lat="45.822309769249195" lon="14.076440255564325"><ele>926.6666666666666</ele><time>2026-05-01T15:24:11Z</time></trkpt><trkpt lat="45.822227092054995" lon="14.076451080796856"><ele>928.3333333333333</ele><time>2026-05-01T15:24:13Z</time></trkpt><trkpt lat="45.822153557264336" lon="14.076464214325206"><ele>930.0</ele><time>2026-05-01T15:24:15Z</time></trkpt><trkpt lat="45.82207676117181" lon="14.07647936620749"><ele>931.6666666666667</ele><time>2026-05-01T15:24:17Z</time></trkpt><trkpt lat="45.82201149981428" lon="14.076518280497183"><ele>933.3333333333334</ele><time>2026-05-01T15:24:18Z</time></trkpt><trkpt lat="45.821913874672894" lon="14.076534228348146"><ele>935.0</ele><time>2026-05-01T15:24:19Z</time></trkpt><trkpt lat="45.82178426223284" lon="14.076575873521822"><ele>931.0</ele><time>2026-05-01T15:24:20Z</time></trkpt><trkpt lat="45.82164328143162" lon="14.07665391578793"><ele>927.0</ele><time>2026-05-01T15:24:21Z</time></trkpt><trkpt lat="45.82148143757235" lon="14.07671401319383"><ele>923.0</ele><time>2026-05-01T15:24:22Z</time></trkpt><trkpt lat="45.82133557943355" lon="14.076774875245684"><ele>923.0</ele><time>2026-05-01T15:24:23Z</time></trkpt><trkpt lat="45.821165458706616" lon="14.076793842225795"><ele>923.0</ele><time>2026-05-01T15:24:24Z</time></trkpt><trkpt lat="45.820973572841474" lon="14.076798856366695"><ele>923.0</ele><time>2026-05-01T15:24:25Z</time></trkpt><trkpt lat="45.82075872239509" lon="14.076803541628962"><ele>924.6666666666667</ele><time>2026-05-01T15:24:26Z</time></trkpt><trkpt lat="45.8205243594237" lon="14.0768145192543"><ele>926.3333333333333</ele><time>2026-05-01T15:24:27Z</time></trkpt><trkpt lat="45.8203129074006" lon="14.076839738157238"><ele>928.0</ele><time>2026-05-01T15:24:28Z</time></trkpt><trkpt lat="45.8201291072077" lon="14.076877287612232"><ele>928.3333333333333</ele><time>2026-05-01T15:24:29Z</time></trkpt><trkpt lat="45.81996409075122" lon="14.076910632653046"><ele>928.6666666666667</ele><time>2026-05-01T15:24:30Z</time></trkpt><trkpt lat="45.819806893612494" lon="14.076943547587177"><ele>929.0</ele><time>2026-05-01T15:24:31Z</time></trkpt><trkpt lat="45.81964766365235" lon="14.07697891460696"><ele>929.0</ele><time>2026-05-01T15:24:32Z</time></trkpt><trkpt lat="45.81951505428046" lon="14.077039549115323"><ele>929.0000000000001</ele><time>2026-05-01T15:24:33Z</time></trkpt><trkpt lat="45.81941152734923" lon="14.07707531119727"><ele>929.0000000000001</ele><time>2026-05-01T15:24:34Z</time></trkpt><trkpt lat="45.81932592369173" lon="14.07712415895102"><ele>929.0</ele><time>2026-05-01T15:24:35Z</time></trkpt><trkpt lat="45.81923589459066" lon="14.077198550070332"><ele>929.0</ele><time>2026-05-01T15:24:36Z</time></trkpt><trkpt lat="45.819125435681414" lon="14.077263005521973"><ele>926.25</ele><time>2026-05-01T15:24:37Z</time></trkpt><trkpt lat="45.81901501879894" lon="14.077352383649579"><ele>923.5</ele><time>2026-05-01T15:24:38Z</time></trkpt><trkpt lat="45.81890762638059" lon="14.077443382274069"><ele>920.75</ele><time>2026-05-01T15:24:39Z</time></trkpt><trkpt lat="45.81882097216147" lon="14.077507917409129"><ele>918.0</ele><time>2026-05-01T15:24:40Z</time></trkpt><trkpt lat="45.81872827953727" lon="14.077570324598858"><ele>918.0</ele><time>2026-05-01T15:24:41Z</time></trkpt><trkpt lat="45.81860679272537" lon="14.077649172198322"><ele>918.0</ele><time>2026-05-01T15:24:42Z</time></trkpt><trkpt lat="45.818477767799514" lon="14.07773153452942"><ele>918.0</ele><time>2026-05-01T15:24:43Z</time></trkpt><trkpt lat="45.818312137068766" lon="14.077833869873064"><ele>923.6666666666667</ele><time>2026-05-01T15:24:44Z</time></trkpt><trkpt lat="45.81812814218025" lon="14.077965758549645"><ele>929.3333333333334</ele><time>2026-05-01T15:24:45Z</time></trkpt><trkpt lat="45.817962128201785" lon="14.078066795949788"><ele>935.0</ele><time>2026-05-01T15:24:46Z</time></trkpt><trkpt lat="45.817797675029354" lon="14.078133023246847"><ele>935.0</ele><time>2026-05-01T15:24:47Z</time></trkpt><trkpt lat="45.817656378855325" lon="14.078212621237522"><ele>935.0</ele><time>2026-05-01T15:24:48Z</time></trkpt><trkpt lat="45.817527165852916" lon="14.078327703323342"><ele>935.0</ele><time>2026-05-01T15:24:49Z</time></trkpt><trkpt lat="45.81739614193476" lon="14.078435407543296"><ele>926.0</ele><time>2026-05-01T15:24:50Z</time></trkpt><trkpt lat="45.81725830872431" lon="14.078546396990742"><ele>917.0</ele><time>2026-05-01T15:24:51Z</time></trkpt><trkpt lat="45.8171144065624" lon="14.078669507403449"><ele>908.0</ele><time>2026-05-01T15:24:52Z</time></trkpt><trkpt lat="45.81697901861278" lon="14.078791705004337"><ele>908.0</ele><time>2026-05-01T15:24:53Z</time></trkpt><trkpt lat="45.816845343961646" lon="14.07887905716454"><ele>908.0</ele><time>2026-05-01T15:24:54Z</time></trkpt><trkpt lat="45.81673116705629" lon="14.078946219042447"><ele>908.0</ele><time>2026-05-01T15:24:55Z</time></trkpt><trkpt lat="45.816617654377" lon="14.079005733544058"><ele>908.0</ele><time>2026-05-01T15:24:56Z</time></trkpt><trkpt lat="45.81648355054995" lon="14.079054964148607"><ele>903.6666666666667</ele><time>2026-05-01T15:24:57Z</time></trkpt><trkpt lat="45.81633611492603" lon="14.079118870072257"><ele>899.3333333333333</ele><time>2026-05-01T15:24:58Z</time></trkpt><trkpt lat="45.81620107544012" lon="14.079220518546276"><ele>895.0</ele><time>2026-05-01T15:24:59Z</time></trkpt><trkpt lat="45.81605973279981" lon="14.079278768086906"><ele>898.0</ele><time>2026-05-01T15:25:00Z</time></trkpt><trkpt lat="45.81592593525772" lon="14.07938865429122"><ele>901.0</ele><time>2026-05-01T15:25:01Z</time></trkpt><trkpt lat="45.81579969446596" lon="14.07948779843947"><ele>904.0</ele><time>2026-05-01T15:25:02Z</time></trkpt><trkpt lat="45.81568052869525" lon="14.079554007379668"><ele>907.0</ele><time>2026-05-01T15:25:03Z</time></trkpt><trkpt lat="45.81557337163037" lon="14.079608638062533"><ele>907.0</ele><time>2026-05-01T15:25:04Z</time></trkpt><trkpt lat="45.81546452825813" lon="14.079658448281533"><ele>907.0</ele><time>2026-05-01T15:25:05Z</time></trkpt><trkpt lat="45.815355970256086" lon="14.079726783341588"><ele>907.0</ele><time>2026-05-01T15:25:06Z</time></trkpt><trkpt lat="45.81524408504897" lon="14.07983175831178"><ele>907.0</ele><time>2026-05-01T15:25:07Z</time></trkpt><trkpt lat="45.815128564555295" lon="14.079936551859669"><ele>903.75</ele><time>2026-05-01T15:25:08Z</time></trkpt><trkpt lat="45.815030647724065" lon="14.080074129925114"><ele>900.5</ele><time>2026-05-01T15:25:09Z</time></trkpt><trkpt lat="45.8149329473469" lon="14.080167488455851"><ele>897.25</ele><time>2026-05-01T15:25:10Z</time></trkpt><trkpt lat="45.81484305516619" lon="14.080259612363454"><ele>894.0</ele><time>2026-05-01T15:25:11Z</time></trkpt><trkpt lat="45.81475452357039" lon="14.080296496822458"><ele>894.0</ele><time>2026-05-01T15:25:12Z</time></trkpt><trkpt lat="45.814652507263304" lon="14.080345474056543"><ele>894.0</ele><time>2026-05-01T15:25:13Z</time></trkpt><trkpt lat="45.814542712748704" lon="14.08041463357439"><ele>894.0</ele><time>2026-05-01T15:25:14Z</time></trkpt><trkpt lat="45.81443560071288" lon="14.080493594167688"><ele>894.0</ele><time>2026-05-01T15:25:15Z</time></trkpt><trkpt lat="45.81432658425776" lon="14.080600242322973"><ele>893.25</ele><time>2026-05-01T15:25:16Z</time></trkpt><trkpt lat="45.8141993522103" lon="14.08072668442289"><ele>892.5</ele><time>2026-05-01T15:25:17Z</time></trkpt><trkpt lat="45.81408165515449" lon="14.080846216676461"><ele>891.75</ele><time>2026-05-01T15:25:18Z</time></trkpt><trkpt lat="45.81398047660378" lon="14.080950170532727"><ele>891.0</ele><time>2026-05-01T15:25:19Z</time></trkpt><trkpt lat="45.81389848484596" lon="14.081061290399644"><ele>891.0</ele><time>2026-05-01T15:25:20Z</time></trkpt><trkpt lat="45.81382371564246" lon="14.081190161065111"><ele>890.9999999999999</ele><time>2026-05-01T15:25:21Z</time></trkpt><trkpt lat="45.81379520205456" lon="14.08132189207429"><ele>890.9999999999999</ele><time>2026-05-01T15:25:22Z</time></trkpt><trkpt lat="45.81379559936821" lon="14.081447239766694"><ele>891.0</ele><time>2026-05-01T15:25:23Z</time></trkpt><trkpt lat="45.81378709460289" lon="14.081586134093778"><ele>891.0</ele><time>2026-05-01T15:25:24Z</time></trkpt><trkpt lat="45.81377759331544" lon="14.081764975894854"><ele>888.0</ele><time>2026-05-01T15:25:25Z</time></trkpt><trkpt lat="45.81380158001031" lon="14.081930677304038"><ele>885.0</ele><time>2026-05-01T15:25:26Z</time></trkpt><trkpt lat="45.813805691631096" lon="14.082108509759568"><ele>882.0</ele><time>2026-05-01T15:25:27Z</time></trkpt><trkpt lat="45.81379890073921" lon="14.082271812137"><ele>879.0</ele><time>2026-05-01T15:25:28Z</time></trkpt><trkpt lat="45.813777302517394" lon="14.082416667422297"><ele>878.2</ele><time>2026-05-01T15:25:29Z</time></trkpt><trkpt lat="45.81374598372968" lon="14.082533709023371"><ele>877.4000000000001</ele><time>2026-05-01T15:25:30Z</time></trkpt><trkpt lat="45.81366958864044" lon="14.082615981929361"><ele>876.6</ele><time>2026-05-01T15:25:31Z</time></trkpt><trkpt lat="45.81360178937142" lon="14.082680412099482"><ele>875.8</ele><time>2026-05-01T15:25:32Z</time></trkpt><trkpt lat="45.813504724481405" lon="14.082740341212526"><ele>875.0</ele><time>2026-05-01T15:25:33Z</time></trkpt><trkpt lat="45.81339206476835" lon="14.082802034929095"><ele>875.0000000000001</ele><time>2026-05-01T15:25:34.001Z</time></trkpt><trkpt lat="45.81329550880883" lon="14.082835200916676"><ele>875.0</ele><time>2026-05-01T15:25:35.001Z</time></trkpt><trkpt lat="45.81321894851672" lon="14.082848547557498"><ele>875.0</ele><time>2026-05-01T15:25:36.001Z</time></trkpt><trkpt lat="45.81315644709835" lon="14.082829733403534"><ele>875.0</ele><time>2026-05-01T15:25:37.001Z</time></trkpt><trkpt lat="45.81309690070088" lon="14.0827874914912"><ele>875.0000000000001</ele><time>2026-05-01T15:25:38.001Z</time></trkpt><trkpt lat="45.81300911146627" lon="14.08271360165566"><ele>875.0</ele><time>2026-05-01T15:25:39.001Z</time></trkpt><trkpt lat="45.81293919151753" lon="14.082574331940176"><ele>876.3333333333334</ele><time>2026-05-01T15:25:40.001Z</time></trkpt><trkpt lat="45.8129148096342" lon="14.082426145412127"><ele>877.6666666666667</ele><time>2026-05-01T15:25:41.001Z</time></trkpt><trkpt lat="45.81286580279311" lon="14.08231765845681"><ele>879.0</ele><time>2026-05-01T15:25:42.001Z</time></trkpt><trkpt lat="45.81280982706809" lon="14.082270004366363"><ele>880.3333333333333</ele><time>2026-05-01T15:25:43.001Z</time></trkpt><trkpt lat="45.812759792619715" lon="14.082214581721763"><ele>881.6666666666666</ele><time>2026-05-01T15:25:44.001Z</time></trkpt><trkpt lat="45.81269323116" lon="14.082170169465744"><ele>883.0</ele><time>2026-05-01T15:25:45.001Z</time></trkpt><trkpt lat="45.81262129322715" lon="14.08212238643149"><ele>882.9999999999999</ele><time>2026-05-01T15:25:46.001Z</time></trkpt><trkpt lat="45.8125403192084" lon="14.082132163501566"><ele>883.0</ele><time>2026-05-01T15:25:47.001Z</time></trkpt><trkpt lat="45.81245329712073" lon="14.08217002901891"><ele>883.0</ele><time>2026-05-01T15:25:48.001Z</time></trkpt><trkpt lat="45.812366609298316" lon="14.082219766430855"><ele>883.0</ele><time>2026-05-01T15:25:49.001Z</time></trkpt><trkpt lat="45.812295459078406" lon="14.082277970826418"><ele>882.9999999999999</ele><time>2026-05-01T15:25:50.001Z</time></trkpt><trkpt lat="45.81222890020242" lon="14.082347886591283"><ele>883.0</ele><time>2026-05-01T15:25:51Z</time></trkpt><trkpt lat="45.81215760362236" lon="14.082405940238326"><ele>879.8333333333333</ele><time>2026-05-01T15:25:52Z</time></trkpt><trkpt lat="45.81208022485298" lon="14.082436576589037"><ele>876.6666666666666</ele><time>2026-05-01T15:25:53Z</time></trkpt><trkpt lat="45.81202109510215" lon="14.082499180222928"><ele>873.5</ele><time>2026-05-01T15:25:54Z</time></trkpt><trkpt lat="45.811945133500416" lon="14.082529105926657"><ele>870.3333333333333</ele><time>2026-05-01T15:25:55Z</time></trkpt><trkpt lat="45.81185714139616" lon="14.082527310471882"><ele>867.1666666666666</ele><time>2026-05-01T15:25:56Z</time></trkpt><trkpt lat="45.811768603807785" lon="14.082525195155755"><ele>864.0</ele><time>2026-05-01T15:25:57Z</time></trkpt><trkpt lat="45.81168501686868" lon="14.082447092038914"><ele>867.8000000000001</ele><time>2026-05-01T15:25:58Z</time></trkpt><trkpt lat="45.81159262521324" lon="14.082419554637474"><ele>871.6000000000001</ele><time>2026-05-01T15:25:59Z</time></trkpt><trkpt lat="45.81150242389128" lon="14.082410354192373"><ele>875.4</ele><time>2026-05-01T15:26:00Z</time></trkpt><trkpt lat="45.81141100415051" lon="14.08240666243719"><ele>879.2</ele><time>2026-05-01T15:26:01Z</time></trkpt><trkpt lat="45.81132178015926" lon="14.082407873632166"><ele>883.0</ele><time>2026-05-01T15:26:02Z</time></trkpt><trkpt lat="45.81123400344458" lon="14.082411575397549"><ele>882.9999999999999</ele><time>2026-05-01T15:26:03Z</time></trkpt><trkpt lat="45.811144348581145" lon="14.082419820707168"><ele>883.0</ele><time>2026-05-01T15:26:04Z</time></trkpt><trkpt lat="45.81106590120552" lon="14.082430262741028"><ele>883.0</ele><time>2026-05-01T15:26:05Z</time></trkpt><trkpt lat="45.81098515004834" lon="14.082441119594792"><ele>883.0</ele><time>2026-05-01T15:26:06Z</time></trkpt><trkpt lat="45.81090979959318" lon="14.082463275876997"><ele>882.9999999999999</ele><time>2026-05-01T15:26:07Z</time></trkpt><trkpt lat="45.81083523027834" lon="14.08245169995402"><ele>883.0</ele><time>2026-05-01T15:26:08Z</time></trkpt><trkpt lat="45.81076616464654" lon="14.082446839031983"><ele>879.4999999999999</ele><time>2026-05-01T15:26:09Z</time></trkpt><trkpt lat="45.810689820381484" lon="14.082461908423099"><ele>876.0</ele><time>2026-05-01T15:26:10Z</time></trkpt><trkpt lat="45.81062323127102" lon="14.082456119836339"><ele>872.5</ele><time>2026-05-01T15:26:11Z</time></trkpt><trkpt lat="45.81054855954268" lon="14.082435343377764"><ele>869.0</ele><time>2026-05-01T15:26:12Z</time></trkpt><trkpt lat="45.81046520631827" lon="14.0824479841875"><ele>865.4999999999999</ele><time>2026-05-01T15:26:13Z</time></trkpt><trkpt lat="45.810390850005746" lon="14.082489233539778"><ele>862.0</ele><time>2026-05-01T15:26:14Z</time></trkpt><trkpt lat="45.81032515243458" lon="14.08258263822834"><ele>861.9999999999999</ele><time>2026-05-01T15:26:15Z</time></trkpt><trkpt lat="45.81028332540921" lon="14.082704847148392"><ele>862.0</ele><time>2026-05-01T15:26:16Z</time></trkpt><trkpt lat="45.81022281974756" lon="14.082799930285057"><ele>862.0</ele><time>2026-05-01T15:26:17Z</time></trkpt><trkpt lat="45.81015838744546" lon="14.08288321439562"><ele>862.0</ele><time>2026-05-01T15:26:18Z</time></trkpt><trkpt lat="45.81008264363448" lon="14.082935734658937"><ele>861.9999999999999</ele><time>2026-05-01T15:26:19Z</time></trkpt><trkpt lat="45.81001432372464" lon="14.083020484367566"><ele>862.0</ele><time>2026-05-01T15:26:20Z</time></trkpt><trkpt lat="45.80994087172022" lon="14.083086479555394"><ele>861.9999999999999</ele><time>2026-05-01T15:26:21Z</time></trkpt><trkpt lat="45.80987550569097" lon="14.083161496642338"><ele>862.0</ele><time>2026-05-01T15:26:22Z</time></trkpt><trkpt lat="45.80981531104047" lon="14.083230578674536"><ele>862.0</ele><time>2026-05-01T15:26:23Z</time></trkpt><trkpt lat="45.80975848993312" lon="14.083292906117142"><ele>862.0</ele><time>2026-05-01T15:26:24Z</time></trkpt><trkpt lat="45.80970522395928" lon="14.083370516595345"><ele>861.9999999999999</ele><time>2026-05-01T15:26:25Z</time></trkpt><trkpt lat="45.80962171579177" lon="14.08341359202505"><ele>862.0</ele><time>2026-05-01T15:26:26Z</time></trkpt><trkpt lat="45.80953874979301" lon="14.083456642014541"><ele>861.9999999999999</ele><time>2026-05-01T15:26:27Z</time></trkpt><trkpt lat="45.809455130517485" lon="14.083492479133115"><ele>862.0</ele><time>2026-05-01T15:26:28Z</time></trkpt><trkpt lat="45.80937290384752" lon="14.08352727685772"><ele>862.0</ele><time>2026-05-01T15:26:29Z</time></trkpt><trkpt lat="45.809290322175535" lon="14.083567794009486"><ele>862.0</ele><time>2026-05-01T15:26:30Z</time></trkpt><trkpt lat="45.809202050911324" lon="14.083606822281062"><ele>861.9999999999999</ele><time>2026-05-01T15:26:31Z</time></trkpt><trkpt lat="45.80914210021021" lon="14.083687743205143"><ele>862.0</ele><time>2026-05-01T15:26:32Z</time></trkpt><trkpt lat="45.809075789160666" lon="14.083747205272457"><ele>862.4999999999999</ele><time>2026-05-01T15:26:33Z</time></trkpt><trkpt lat="45.80900884658751" lon="14.083814580158828"><ele>863.0</ele><time>2026-05-01T15:26:34Z</time></trkpt><trkpt lat="45.80894325525426" lon="14.08388891318943"><ele>863.5</ele><time>2026-05-01T15:26:35Z</time></trkpt><trkpt lat="45.808884576500986" lon="14.08396353068162"><ele>864.0</ele><time>2026-05-01T15:26:36Z</time></trkpt><trkpt lat="45.808814633952814" lon="14.084032209112214"><ele>864.4999999999999</ele><time>2026-05-01T15:26:37Z</time></trkpt><trkpt lat="45.808760411170326" lon="14.084137538495186"><ele>865.0</ele><time>2026-05-01T15:26:38Z</time></trkpt><trkpt lat="45.808708089767975" lon="14.08423899603977"><ele>863.6</ele><time>2026-05-01T15:26:39Z</time></trkpt><trkpt lat="45.808653327605356" lon="14.084343055129409"><ele>862.2</ele><time>2026-05-01T15:26:40Z</time></trkpt><trkpt lat="45.8086019986333" lon="14.084445955046156"><ele>860.8</ele><time>2026-05-01T15:26:41Z</time></trkpt><trkpt lat="45.808548569430975" lon="14.084555293860733"><ele>859.4</ele><time>2026-05-01T15:26:42Z</time></trkpt><trkpt lat="45.808492471602605" lon="14.084670417820291"><ele>858.0</ele><time>2026-05-01T15:26:43Z</time></trkpt><trkpt lat="45.80843605180767" lon="14.084786202620053"><ele>857.8</ele><time>2026-05-01T15:26:44Z</time></trkpt><trkpt lat="45.80838722112223" lon="14.084920574685421"><ele>857.5999999999999</ele><time>2026-05-01T15:26:45Z</time></trkpt><trkpt lat="45.808325290264236" lon="14.085041807500511"><ele>857.4000000000001</ele><time>2026-05-01T15:26:46Z</time></trkpt><trkpt lat="45.80827167008628" lon="14.085164510601984"><ele>857.2</ele><time>2026-05-01T15:26:47Z</time></trkpt><trkpt lat="45.8082230042673" lon="14.085278487573024"><ele>857.0</ele><time>2026-05-01T15:26:48Z</time></trkpt><trkpt lat="45.80816513332529" lon="14.085366072081532"><ele>854.8</ele><time>2026-05-01T15:26:49Z</time></trkpt><trkpt lat="45.808111628178914" lon="14.085474577348979"><ele>852.6</ele><time>2026-05-01T15:26:50Z</time></trkpt><trkpt lat="45.80805163291655" lon="14.085588398999377"><ele>850.4</ele><time>2026-05-01T15:26:51Z</time></trkpt><trkpt lat="45.80799027517979" lon="14.085694697883984"><ele>848.1999999999999</ele><time>2026-05-01T15:26:52Z</time></trkpt><trkpt lat="45.80793148087271" lon="14.085819696608358"><ele>846.0</ele><time>2026-05-01T15:26:53Z</time></trkpt><trkpt lat="45.807857669784205" lon="14.085930809625927"><ele>845.3333333333334</ele><time>2026-05-01T15:26:54Z</time></trkpt><trkpt lat="45.80778064394121" lon="14.086017681841433"><ele>844.6666666666667</ele><time>2026-05-01T15:26:55Z</time></trkpt><trkpt lat="45.80771587394138" lon="14.086106346360632"><ele>844.0</ele><time>2026-05-01T15:26:56Z</time></trkpt><trkpt lat="45.807646503313926" lon="14.086186010870986"><ele>843.3333333333334</ele><time>2026-05-01T15:26:57Z</time></trkpt><trkpt lat="45.80757701442875" lon="14.086255718699826"><ele>842.6666666666667</ele><time>2026-05-01T15:26:58Z</time></trkpt><trkpt lat="45.807509772222204" lon="14.086297875233459"><ele>842.0</ele><time>2026-05-01T15:26:59Z</time></trkpt><trkpt lat="45.80743057974252" lon="14.086334832631469"><ele>842.0000000000001</ele><time>2026-05-01T15:27:00Z</time></trkpt><trkpt lat="45.80733747252943" lon="14.086338230675285"><ele>842.0</ele><time>2026-05-01T15:27:01Z</time></trkpt><trkpt lat="45.80724800144958" lon="14.086356501505662"><ele>842.0</ele><time>2026-05-01T15:27:02Z</time></trkpt><trkpt lat="45.807156982940604" lon="14.086353743058261"><ele>842.0</ele><time>2026-05-01T15:27:03Z</time></trkpt><trkpt lat="45.80707069741669" lon="14.086358465650092"><ele>842.0000000000001</ele><time>2026-05-01T15:27:04Z</time></trkpt><trkpt lat="45.806985341654766" lon="14.086361605064994"><ele>842.0</ele><time>2026-05-01T15:27:05Z</time></trkpt><trkpt lat="45.806909342228536" lon="14.086379104525156"><ele>842.0000000000001</ele><time>2026-05-01T15:27:06Z</time></trkpt><trkpt lat="45.806829792707425" lon="14.086391066217207"><ele>842.0</ele><time>2026-05-01T15:27:07Z</time></trkpt><trkpt lat="45.80675007555198" lon="14.086454469194827"><ele>842.0</ele><time>2026-05-01T15:27:08Z</time></trkpt><trkpt lat="45.80668170863297" lon="14.08653904304604"><ele>842.0</ele><time>2026-05-01T15:27:09Z</time></trkpt><trkpt lat="45.8066217790474" lon="14.08663680294435"><ele>842.0000000000001</ele><time>2026-05-01T15:27:10Z</time></trkpt><trkpt lat="45.8065746461691" lon="14.086737005069242"><ele>842.0</ele><time>2026-05-01T15:27:11Z</time></trkpt><trkpt lat="45.806528711900604" lon="14.086849496561507"><ele>839.1666666666667</ele><time>2026-05-01T15:27:12Z</time></trkpt><trkpt lat="45.80648319361089" lon="14.08695588893219"><ele>836.3333333333334</ele><time>2026-05-01T15:27:13Z</time></trkpt><trkpt lat="45.80641756756546" lon="14.087049257896311"><ele>833.5</ele><time>2026-05-01T15:27:14Z</time></trkpt><trkpt lat="45.80636975979671" lon="14.087148355214083"><ele>830.6666666666667</ele><time>2026-05-01T15:27:15Z</time></trkpt><trkpt lat="45.806333741545245" lon="14.087263715083143"><ele>827.8333333333334</ele><time>2026-05-01T15:27:16Z</time></trkpt><trkpt lat="45.806271033067" lon="14.08735883696647"><ele>825.0</ele><time>2026-05-01T15:27:17Z</time></trkpt><trkpt lat="45.80623412875942" lon="14.087483800052329"><ele>827.0</ele><time>2026-05-01T15:27:18Z</time></trkpt><trkpt lat="45.80617349135205" lon="14.087579527651199"><ele>829.0</ele><time>2026-05-01T15:27:19Z</time></trkpt><trkpt lat="45.80614283874915" lon="14.087692708951659"><ele>831.0</ele><time>2026-05-01T15:27:20Z</time></trkpt><trkpt lat="45.8060958971742" lon="14.08778182183377"><ele>833.0</ele><time>2026-05-01T15:27:21Z</time></trkpt><trkpt lat="45.80605412440866" lon="14.087887397597777"><ele>835.0</ele><time>2026-05-01T15:27:22Z</time></trkpt><trkpt lat="45.80600834405431" lon="14.088008703067162"><ele>837.0</ele><time>2026-05-01T15:27:23Z</time></trkpt><trkpt lat="45.80596247893063" lon="14.08814924078165"><ele>833.6</ele><time>2026-05-01T15:27:24Z</time></trkpt><trkpt lat="45.80595568419672" lon="14.088303547026486"><ele>830.2</ele><time>2026-05-01T15:27:25Z</time></trkpt><trkpt lat="45.80594748005764" lon="14.088454618402674"><ele>826.8</ele><time>2026-05-01T15:27:26Z</time></trkpt><trkpt lat="45.805942914111" lon="14.088593259436445"><ele>823.4</ele><time>2026-05-01T15:27:27Z</time></trkpt><trkpt lat="45.805948752664776" lon="14.08873285370233"><ele>820.0</ele><time>2026-05-01T15:27:28Z</time></trkpt><trkpt lat="45.80594436008857" lon="14.088863963680737"><ele>819.9999999999999</ele><time>2026-05-01T15:27:29Z</time></trkpt><trkpt lat="45.805928105536736" lon="14.088989775699156"><ele>820.0</ele><time>2026-05-01T15:27:30Z</time></trkpt><trkpt lat="45.805938837808874" lon="14.089110902091813"><ele>820.0</ele><time>2026-05-01T15:27:31Z</time></trkpt><trkpt lat="45.805936172394496" lon="14.089218954873065"><ele>820.0</ele><time>2026-05-01T15:27:32Z</time></trkpt><trkpt lat="45.80593618896067" lon="14.089311750675462"><ele>819.9999999999999</ele><time>2026-05-01T15:27:33Z</time></trkpt><trkpt lat="45.80591368522293" lon="14.089399314592812"><ele>820.0</ele><time>2026-05-01T15:27:34Z</time></trkpt><trkpt lat="45.805875912144394" lon="14.089532962668503"><ele>817.4</ele><time>2026-05-01T15:27:36Z</time></trkpt><trkpt lat="45.80582176687471" lon="14.089661376755696"><ele>814.8</ele><time>2026-05-01T15:27:38Z</time></trkpt><trkpt lat="45.805744408343614" lon="14.089805438313887"><ele>812.2</ele><time>2026-05-01T15:27:40.001Z</time></trkpt><trkpt lat="45.80569635893273" lon="14.089921798610808"><ele>809.6</ele><time>2026-05-01T15:27:41.001Z</time></trkpt><trkpt lat="45.80560224391156" lon="14.0900343160648"><ele>807.0</ele><time>2026-05-01T15:27:42.001Z</time></trkpt><trkpt lat="45.80553783471672" lon="14.090134991926721"><ele>804.4000000000001</ele><time>2026-05-01T15:27:43.001Z</time></trkpt><trkpt lat="45.80548254933511" lon="14.090221406915026"><ele>801.8000000000001</ele><time>2026-05-01T15:27:44.001Z</time></trkpt><trkpt lat="45.80542106617806" lon="14.09031687247805"><ele>799.2</ele><time>2026-05-01T15:27:45.001Z</time></trkpt><trkpt lat="45.80537195505506" lon="14.090421981303924"><ele>796.6</ele><time>2026-05-01T15:27:46.001Z</time></trkpt><trkpt lat="45.805307295185855" lon="14.090517516492463"><ele>794.0</ele><time>2026-05-01T15:27:47.001Z</time></trkpt><trkpt lat="45.80522896723927" lon="14.090602592454161"><ele>793.6</ele><time>2026-05-01T15:27:48.001Z</time></trkpt><trkpt lat="45.8051585761343" lon="14.090704935811681"><ele>793.2</ele><time>2026-05-01T15:27:49.001Z</time></trkpt><trkpt lat="45.80508555037862" lon="14.09081110971343"><ele>792.8000000000001</ele><time>2026-05-01T15:27:50.001Z</time></trkpt><trkpt lat="45.805017204697315" lon="14.090910479395628"><ele>792.4000000000001</ele><time>2026-05-01T15:27:51.001Z</time></trkpt><trkpt lat="45.804949392503055" lon="14.09100907303061"><ele>792.0</ele><time>2026-05-01T15:27:52.001Z</time></trkpt><trkpt lat="45.80488048485477" lon="14.091109259616992"><ele>792.0</ele><time>2026-05-01T15:27:53Z</time></trkpt><trkpt lat="45.80481784198112" lon="14.091200337621718"><ele>792.0</ele><time>2026-05-01T15:27:54Z</time></trkpt><trkpt lat="45.80475192758511" lon="14.091296172199378"><ele>792.0</ele><time>2026-05-01T15:27:55Z</time></trkpt><trkpt lat="45.80469707776945" lon="14.091407876502071"><ele>792.0</ele><time>2026-05-01T15:27:56Z</time></trkpt><trkpt lat="45.8046184545219" lon="14.091494149045385"><ele>792.0</ele><time>2026-05-01T15:27:57Z</time></trkpt><trkpt lat="45.80455795270648" lon="14.09161546684169"><ele>791.8</ele><time>2026-05-01T15:27:58Z</time></trkpt><trkpt lat="45.8044789833125" lon="14.091714658939122"><ele>791.6</ele><time>2026-05-01T15:27:59Z</time></trkpt><trkpt lat="45.80441572368601" lon="14.091831768438148"><ele>791.4</ele><time>2026-05-01T15:28:00Z</time></trkpt><trkpt lat="45.80435891452787" lon="14.09193693668274"><ele>791.1999999999999</ele><time>2026-05-01T15:28:01Z</time></trkpt><trkpt lat="45.80430788308174" lon="14.092031408808774"><ele>791.0</ele><time>2026-05-01T15:28:02Z</time></trkpt><trkpt lat="45.8042605022009" lon="14.092111191516388"><ele>791.0</ele><time>2026-05-01T15:28:03Z</time></trkpt><trkpt lat="45.804210843678966" lon="14.092184339852112"><ele>791.0</ele><time>2026-05-01T15:28:04Z</time></trkpt><trkpt lat="45.8041377751712" lon="14.09227068403128"><ele>791.0</ele><time>2026-05-01T15:28:05Z</time></trkpt><trkpt lat="45.80404489308301" lon="14.092364800704402"><ele>791.0</ele><time>2026-05-01T15:28:06Z</time></trkpt><trkpt lat="45.803960495586004" lon="14.092445509767218"><ele>791.0</ele><time>2026-05-01T15:28:07Z</time></trkpt><trkpt lat="45.80388047696108" lon="14.092526497902425"><ele>786.8</ele><time>2026-05-01T15:28:08Z</time></trkpt><trkpt lat="45.8038090985819" lon="14.09261398015662"><ele>782.5999999999999</ele><time>2026-05-01T15:28:09Z</time></trkpt><trkpt lat="45.803746468989644" lon="14.092710945786946"><ele>778.4</ele><time>2026-05-01T15:28:10Z</time></trkpt><trkpt lat="45.80368809798033" lon="14.0928222141339"><ele>774.2</ele><time>2026-05-01T15:28:11Z</time></trkpt><trkpt lat="45.80365422989491" lon="14.092960090995124"><ele>770.0</ele><time>2026-05-01T15:28:12Z</time></trkpt><trkpt lat="45.80360048956726" lon="14.093061856844065"><ele>770.0</ele><time>2026-05-01T15:28:13Z</time></trkpt><trkpt lat="45.803551808986285" lon="14.093154319334294"><ele>770.0</ele><time>2026-05-01T15:28:14Z</time></trkpt><trkpt lat="45.803499709794906" lon="14.093263214222498"><ele>770.0</ele><time>2026-05-01T15:28:15Z</time></trkpt><trkpt lat="45.80342741861985" lon="14.09335627154134"><ele>770.0</ele><time>2026-05-01T15:28:16Z</time></trkpt><trkpt lat="45.803353339152835" lon="14.093442872633558"><ele>770.0</ele><time>2026-05-01T15:28:17Z</time></trkpt><trkpt lat="45.80328109984753" lon="14.093519307860602"><ele>769.2</ele><time>2026-05-01T15:28:18Z</time></trkpt><trkpt lat="45.803205783607176" lon="14.093582413220528"><ele>768.4</ele><time>2026-05-01T15:28:19Z</time></trkpt><trkpt lat="45.80311381403234" lon="14.093624314467954"><ele>767.5999999999999</ele><time>2026-05-01T15:28:20Z</time></trkpt><trkpt lat="45.80303199004668" lon="14.093698566498384"><ele>766.8</ele><time>2026-05-01T15:28:21Z</time></trkpt><trkpt lat="45.80293537609164" lon="14.09374940131744"><ele>766.0</ele><time>2026-05-01T15:28:22Z</time></trkpt><trkpt lat="45.802831285048086" lon="14.093792917065638"><ele>766.0</ele><time>2026-05-01T15:28:23Z</time></trkpt><trkpt lat="45.802730639305416" lon="14.093816861882646"><ele>766.0</ele><time>2026-05-01T15:28:24Z</time></trkpt><trkpt lat="45.80263911272178" lon="14.093817992713431"><ele>766.0</ele><time>2026-05-01T15:28:25Z</time></trkpt><trkpt lat="45.80255161056293" lon="14.093833292860664"><ele>766.0</ele><time>2026-05-01T15:28:26Z</time></trkpt><trkpt lat="45.80246181997458" lon="14.093868788134909"><ele>766.0</ele><time>2026-05-01T15:28:27Z</time></trkpt><trkpt lat="45.802375522031966" lon="14.093866332961307"><ele>766.6666666666667</ele><time>2026-05-01T15:28:28Z</time></trkpt><trkpt lat="45.80228793172192" lon="14.093883755219187"><ele>767.3333333333334</ele><time>2026-05-01T15:28:29Z</time></trkpt><trkpt lat="45.802211308844115" lon="14.093900094275593"><ele>768.0</ele><time>2026-05-01T15:28:30Z</time></trkpt><trkpt lat="45.802135157360254" lon="14.093917532716851"><ele>768.6666666666667</ele><time>2026-05-01T15:28:31Z</time></trkpt><trkpt lat="45.80207267290329" lon="14.093933069212992"><ele>769.3333333333334</ele><time>2026-05-01T15:28:32Z</time></trkpt><trkpt lat="45.80199857201562" lon="14.093965554349237"><ele>770.0</ele><time>2026-05-01T15:28:33Z</time></trkpt><trkpt lat="45.80190742500967" lon="14.093981311067276"><ele>770.4</ele><time>2026-05-01T15:28:34Z</time></trkpt><trkpt lat="45.80181628572432" lon="14.093996819158695"><ele>770.8</ele><time>2026-05-01T15:28:35Z</time></trkpt><trkpt lat="45.801728927547614" lon="14.094018860970113"><ele>771.2</ele><time>2026-05-01T15:28:36Z</time></trkpt><trkpt lat="45.80162692815034" lon="14.094027980977959"><ele>771.6</ele><time>2026-05-01T15:28:37Z</time></trkpt><trkpt lat="45.80152812439746" lon="14.094079322166452"><ele>772.0</ele><time>2026-05-01T15:28:38Z</time></trkpt><trkpt lat="45.801435486217166" lon="14.094102306762206"><ele>768.1666666666666</ele><time>2026-05-01T15:28:39Z</time></trkpt><trkpt lat="45.80135335460525" lon="14.09415398170492"><ele>764.3333333333333</ele><time>2026-05-01T15:28:40Z</time></trkpt><trkpt lat="45.80127770227028" lon="14.094177234915419"><ele>760.5</ele><time>2026-05-01T15:28:41Z</time></trkpt><trkpt lat="45.801200149281534" lon="14.094200003722657"><ele>756.6666666666666</ele><time>2026-05-01T15:28:42Z</time></trkpt><trkpt lat="45.80112434173506" lon="14.094224833401375"><ele>752.8333333333333</ele><time>2026-05-01T15:28:43Z</time></trkpt><trkpt lat="45.80104689936477" lon="14.094289594444032"><ele>749.0</ele><time>2026-05-01T15:28:44Z</time></trkpt><trkpt lat="45.800975168118846" lon="14.094354545636552"><ele>749.0</ele><time>2026-05-01T15:28:45Z</time></trkpt><trkpt lat="45.80090814584717" lon="14.094434878205252"><ele>749.0</ele><time>2026-05-01T15:28:46Z</time></trkpt><trkpt lat="45.80085092916402" lon="14.094538441931586"><ele>749.0</ele><time>2026-05-01T15:28:47Z</time></trkpt><trkpt lat="45.800804644876905" lon="14.094642545168165"><ele>749.0</ele><time>2026-05-01T15:28:48Z</time></trkpt><trkpt lat="45.80076844982189" lon="14.094726409535944"><ele>749.0</ele><time>2026-05-01T15:28:49Z</time></trkpt><trkpt lat="45.80072899290002" lon="14.09480912715599"><ele>749.0</ele><time>2026-05-01T15:28:50Z</time></trkpt><trkpt lat="45.80068440597002" lon="14.094889611084037"><ele>745.6666666666666</ele><time>2026-05-01T15:28:51Z</time></trkpt><trkpt lat="45.80062789871493" lon="14.094960253292705"><ele>742.3333333333333</ele><time>2026-05-01T15:28:52Z</time></trkpt><trkpt lat="45.80056606581746" lon="14.095009880149274"><ele>739.0</ele><time>2026-05-01T15:28:53Z</time></trkpt><trkpt lat="45.80048996733729" lon="14.095053408795774"><ele>735.6666666666666</ele><time>2026-05-01T15:28:54Z</time></trkpt><trkpt lat="45.800409028715485" lon="14.095091944830783"><ele>732.3333333333334</ele><time>2026-05-01T15:28:55Z</time></trkpt><trkpt lat="45.800336689698845" lon="14.095138664627315"><ele>729.0</ele><time>2026-05-01T15:28:56Z</time></trkpt><trkpt lat="45.800266780495406" lon="14.095165946576907"><ele>729.0</ele><time>2026-05-01T15:28:57Z</time></trkpt><trkpt lat="45.800190993972876" lon="14.095168503084055"><ele>729.0</ele><time>2026-05-01T15:28:58Z</time></trkpt><trkpt lat="45.800118513345296" lon="14.0951968423018"><ele>729.0</ele><time>2026-05-01T15:28:59Z</time></trkpt><trkpt lat="45.80003973344091" lon="14.095237896641171"><ele>729.0</ele><time>2026-05-01T15:29:00Z</time></trkpt><trkpt lat="45.79996737360806" lon="14.095287469213902"><ele>729.0</ele><time>2026-05-01T15:29:01Z</time></trkpt><trkpt lat="45.79989948424121" lon="14.09535462855612"><ele>729.0</ele><time>2026-05-01T15:29:02Z</time></trkpt><trkpt lat="45.79983829437109" lon="14.095431711444352"><ele>729.8000000000001</ele><time>2026-05-01T15:29:03Z</time></trkpt><trkpt lat="45.79975929545275" lon="14.09554184237597"><ele>730.6</ele><time>2026-05-01T15:29:05Z</time></trkpt><trkpt lat="45.799686666988606" lon="14.095589684262446"><ele>731.4</ele><time>2026-05-01T15:29:07Z</time></trkpt><trkpt lat="45.79968770828863" lon="14.095831930530824"><ele>732.2</ele><time>2026-05-01T15:29:10Z</time></trkpt><trkpt lat="45.7997431623146" lon="14.095897528105418"><ele>733.0</ele><time>2026-05-01T15:29:11Z</time></trkpt><trkpt lat="45.79978749372922" lon="14.095965606246992"><ele>730.6666666666667</ele><time>2026-05-01T15:29:12Z</time></trkpt><trkpt lat="45.79984991107411" lon="14.096025801623291"><ele>728.3333333333334</ele><time>2026-05-01T15:29:13Z</time></trkpt><trkpt lat="45.799905092623916" lon="14.096096589588292"><ele>726.0</ele><time>2026-05-01T15:29:14Z</time></trkpt><trkpt lat="45.79995801856522" lon="14.096164483550492"><ele>723.6666666666666</ele><time>2026-05-01T15:29:15Z</time></trkpt><trkpt lat="45.800041522499114" lon="14.096266680233793"><ele>721.3333333333333</ele><time>2026-05-01T15:29:17Z</time></trkpt><trkpt lat="45.800125436078" lon="14.096359870994842"><ele>719.0</ele><time>2026-05-01T15:29:19Z</time></trkpt><trkpt lat="45.80025374886785" lon="14.096435497948855"><ele>719.0</ele><time>2026-05-01T15:29:21Z</time></trkpt><trkpt lat="45.800342716502705" lon="14.096452874182507"><ele>719.0</ele><time>2026-05-01T15:29:22Z</time></trkpt><trkpt lat="45.80045283110328" lon="14.096464379683857"><ele>719.0</ele><time>2026-05-01T15:29:24Z</time></trkpt><trkpt lat="45.80055927437626" lon="14.096437469810372"><ele>719.0</ele><time>2026-05-01T15:29:26Z</time></trkpt><trkpt lat="45.8006266945644" lon="14.09639241992385"><ele>719.0</ele><time>2026-05-01T15:29:27Z</time></trkpt><trkpt lat="45.80072910260763" lon="14.096290972451616"><ele>719.0</ele><time>2026-05-01T15:29:29Z</time></trkpt><trkpt lat="45.800781463703586" lon="14.09623798111386"><ele>719.0</ele><time>2026-05-01T15:29:30Z</time></trkpt><trkpt lat="45.80085219235606" lon="14.096105478989996"><ele>719.0</ele><time>2026-05-01T15:29:32Z</time></trkpt><trkpt lat="45.80088678124264" lon="14.096028124396776"><ele>719.0</ele><time>2026-05-01T15:29:33Z</time></trkpt><trkpt lat="45.80092484352433" lon="14.095936597147091"><ele>719.0</ele><time>2026-05-01T15:29:34Z</time></trkpt><trkpt lat="45.800960163887666" lon="14.09584812920469"><ele>719.0</ele><time>2026-05-01T15:29:35Z</time></trkpt><trkpt lat="45.801002330448355" lon="14.0957425131538"><ele>720.3333333333333</ele><time>2026-05-01T15:29:36Z</time></trkpt><trkpt lat="45.801039769087986" lon="14.095653341832367"><ele>721.6666666666666</ele><time>2026-05-01T15:29:37Z</time></trkpt><trkpt lat="45.80108200088259" lon="14.095553021865056"><ele>723.0</ele><time>2026-05-01T15:29:38Z</time></trkpt><trkpt lat="45.80109352036222" lon="14.095416522451337"><ele>724.3333333333334</ele><time>2026-05-01T15:29:39Z</time></trkpt><trkpt lat="45.80111808778553" lon="14.09532725521697"><ele>725.6666666666667</ele><time>2026-05-01T15:29:40Z</time></trkpt><trkpt lat="45.80116706501635" lon="14.095205785114986"><ele>727.0</ele><time>2026-05-01T15:29:42Z</time></trkpt><trkpt lat="45.801254362316236" lon="14.095120746969673"><ele>727.0</ele><time>2026-05-01T15:29:44Z</time></trkpt><trkpt lat="45.801324230217006" lon="14.095120594433574"><ele>727.0</ele><time>2026-05-01T15:29:45Z</time></trkpt><trkpt lat="45.80142471540441" lon="14.095127176064858"><ele>727.0</ele><time>2026-05-01T15:29:46Z</time></trkpt><trkpt lat="45.801505215612906" lon="14.095222884300586"><ele>727.0</ele><time>2026-05-01T15:29:47Z</time></trkpt><trkpt lat="45.80157475551426" lon="14.095279183415121"><ele>727.0</ele><time>2026-05-01T15:29:48Z</time></trkpt><trkpt lat="45.80165289729502" lon="14.095318325739111"><ele>727.0</ele><time>2026-05-01T15:29:49Z</time></trkpt><trkpt lat="45.80171456945378" lon="14.095369335490536"><ele>727.0</ele><time>2026-05-01T15:29:50Z</time></trkpt><trkpt lat="45.80179287400887" lon="14.095388698778054"><ele>727.0</ele><time>2026-05-01T15:29:51Z</time></trkpt><trkpt lat="45.80188688129494" lon="14.095383469865542"><ele>727.0</ele><time>2026-05-01T15:29:52Z</time></trkpt><trkpt lat="45.801999266131496" lon="14.095368294593804"><ele>727.0</ele><time>2026-05-01T15:29:53Z</time></trkpt><trkpt lat="45.80210477569557" lon="14.095389087235723"><ele>727.0</ele><time>2026-05-01T15:29:54Z</time></trkpt><trkpt lat="45.802190219131816" lon="14.095403890006624"><ele>727.0</ele><time>2026-05-01T15:29:55Z</time></trkpt><trkpt lat="45.802286913824695" lon="14.095398123466554"><ele>727.0</ele><time>2026-05-01T15:29:56Z</time></trkpt><trkpt lat="45.80238068671261" lon="14.095418633403424"><ele>727.0</ele><time>2026-05-01T15:29:57Z</time></trkpt><trkpt lat="45.80246845034947" lon="14.095439755516768"><ele>727.0</ele><time>2026-05-01T15:29:58Z</time></trkpt><trkpt lat="45.802550637939305" lon="14.095450122117455"><ele>727.0</ele><time>2026-05-01T15:29:59Z</time></trkpt><trkpt lat="45.802639313421" lon="14.09543844089704"><ele>726.4000000000001</ele><time>2026-05-01T15:30:00Z</time></trkpt><trkpt lat="45.80272701641143" lon="14.095426115732856"><ele>725.8000000000001</ele><time>2026-05-01T15:30:01Z</time></trkpt><trkpt lat="45.802819992174356" lon="14.095443524480514"><ele>725.2</ele><time>2026-05-01T15:30:02Z</time></trkpt><trkpt lat="45.802923378973475" lon="14.095435835605334"><ele>724.6</ele><time>2026-05-01T15:30:03Z</time></trkpt><trkpt lat="45.8030246854942" lon="14.0954312744017"><ele>724.0</ele><time>2026-05-01T15:30:04Z</time></trkpt><trkpt lat="45.80311397649719" lon="14.095431761198233"><ele>724.0</ele><time>2026-05-01T15:30:05Z</time></trkpt><trkpt lat="45.80319980372851" lon="14.09543730948039"><ele>724.0</ele><time>2026-05-01T15:30:06Z</time></trkpt><trkpt lat="45.803275836519525" lon="14.09544561301731"><ele>724.0</ele><time>2026-05-01T15:30:07Z</time></trkpt><trkpt lat="45.80335151875969" lon="14.095434268094085"><ele>724.0</ele><time>2026-05-01T15:30:08Z</time></trkpt><trkpt lat="45.80342430446472" lon="14.095454281266264"><ele>724.0</ele><time>2026-05-01T15:30:09Z</time></trkpt><trkpt lat="45.80351969164548" lon="14.095454654698441"><ele>724.0</ele><time>2026-05-01T15:30:10Z</time></trkpt><trkpt lat="45.803624067142565" lon="14.095429022144417"><ele>722.6</ele><time>2026-05-01T15:30:11Z</time></trkpt><trkpt lat="45.803722387478615" lon="14.09538240989027"><ele>721.2</ele><time>2026-05-01T15:30:12Z</time></trkpt><trkpt lat="45.803821372519415" lon="14.095321758642097"><ele>719.8000000000001</ele><time>2026-05-01T15:30:13Z</time></trkpt><trkpt lat="45.80392503180153" lon="14.095255022321806"><ele>718.4000000000001</ele><time>2026-05-01T15:30:14Z</time></trkpt><trkpt lat="45.80400017321551" lon="14.095180181297993"><ele>717.0</ele><time>2026-05-01T15:30:15Z</time></trkpt><trkpt lat="45.80408648361946" lon="14.095145906350401"><ele>717.0</ele><time>2026-05-01T15:30:16Z</time></trkpt><trkpt lat="45.80418040344764" lon="14.095086980991375"><ele>717.0</ele><time>2026-05-01T15:30:17Z</time></trkpt><trkpt lat="45.80426691069155" lon="14.095036108791739"><ele>717.0</ele><time>2026-05-01T15:30:18Z</time></trkpt><trkpt lat="45.804348094836534" lon="14.094991045815522"><ele>717.0</ele><time>2026-05-01T15:30:19Z</time></trkpt><trkpt lat="45.80441967143434" lon="14.094930421470925"><ele>717.0</ele><time>2026-05-01T15:30:20Z</time></trkpt><trkpt lat="45.80450519758801" lon="14.09490337699848"><ele>718.5</ele><time>2026-05-01T15:30:21Z</time></trkpt><trkpt lat="45.80457486178941" lon="14.094872904318352"><ele>720.0</ele><time>2026-05-01T15:30:22Z</time></trkpt><trkpt lat="45.80470160728436" lon="14.094809779555433"><ele>721.5</ele><time>2026-05-01T15:30:24Z</time></trkpt><trkpt lat="45.80477748344329" lon="14.094766374492645"><ele>723.0</ele><time>2026-05-01T15:30:25Z</time></trkpt><trkpt lat="45.80486129909199" lon="14.094731451939277"><ele>724.5</ele><time>2026-05-01T15:30:26Z</time></trkpt><trkpt lat="45.804930392106904" lon="14.094706270205933"><ele>726.0</ele><time>2026-05-01T15:30:27Z</time></trkpt><trkpt lat="45.805052488388" lon="14.094757324884748"><ele>726.0</ele><time>2026-05-01T15:30:29Z</time></trkpt><trkpt lat="45.8051144863542" lon="14.094808443073578"><ele>726.0</ele><time>2026-05-01T15:30:30Z</time></trkpt><trkpt lat="45.805174584616005" lon="14.09488564304466"><ele>726.0</ele><time>2026-05-01T15:30:31Z</time></trkpt><trkpt lat="45.805232671514176" lon="14.0949903199772"><ele>726.0</ele><time>2026-05-01T15:30:32Z</time></trkpt><trkpt lat="45.80530807280115" lon="14.095142157077792"><ele>726.0</ele><time>2026-05-01T15:30:33Z</time></trkpt><trkpt lat="45.80538906744809" lon="14.095266637109534"><ele>721.5999999999999</ele><time>2026-05-01T15:30:34Z</time></trkpt><trkpt lat="45.80546768464016" lon="14.095386979413059"><ele>717.2</ele><time>2026-05-01T15:30:35Z</time></trkpt><trkpt lat="45.805540103708374" lon="14.095505944852537"><ele>712.8</ele><time>2026-05-01T15:30:36Z</time></trkpt><trkpt lat="45.80560716587334" lon="14.095609533610139"><ele>708.4000000000001</ele><time>2026-05-01T15:30:37Z</time></trkpt><trkpt lat="45.80567325257382" lon="14.095718693772552"><ele>704.0</ele><time>2026-05-01T15:30:38Z</time></trkpt><trkpt lat="45.8057204472858" lon="14.095828746476993"><ele>703.8000000000001</ele><time>2026-05-01T15:30:39Z</time></trkpt><trkpt lat="45.80576346596844" lon="14.095943410893536"><ele>703.6</ele><time>2026-05-01T15:30:40Z</time></trkpt><trkpt lat="45.8058015830773" lon="14.096057054664263"><ele>703.4</ele><time>2026-05-01T15:30:41Z</time></trkpt><trkpt lat="45.805840109245544" lon="14.096193076311017"><ele>703.2</ele><time>2026-05-01T15:30:42Z</time></trkpt><trkpt lat="45.80587131375357" lon="14.096339889099543"><ele>703.0</ele><time>2026-05-01T15:30:43Z</time></trkpt><trkpt lat="45.80591366594211" lon="14.096437693723791"><ele>703.0</ele><time>2026-05-01T15:30:44Z</time></trkpt><trkpt lat="45.805933111479575" lon="14.096553236055218"><ele>703.0</ele><time>2026-05-01T15:30:45Z</time></trkpt><trkpt lat="45.80599678239194" lon="14.096654382886102"><ele>703.0</ele><time>2026-05-01T15:30:46Z</time></trkpt><trkpt lat="45.806054717432524" lon="14.096765529358478"><ele>703.0</ele><time>2026-05-01T15:30:47Z</time></trkpt><trkpt lat="45.806100059050365" lon="14.096884395736831"><ele>703.0</ele><time>2026-05-01T15:30:48Z</time></trkpt><trkpt lat="45.80614688625195" lon="14.097004183836624"><ele>705.8</ele><time>2026-05-01T15:30:49Z</time></trkpt><trkpt lat="45.80613080921782" lon="14.097115348388122"><ele>708.5999999999999</ele><time>2026-05-01T15:30:50Z</time></trkpt><trkpt lat="45.80612570848987" lon="14.097273343813653"><ele>711.4000000000001</ele><time>2026-05-01T15:30:51Z</time></trkpt><trkpt lat="45.80610432706875" lon="14.097411426202555"><ele>714.2</ele><time>2026-05-01T15:30:52Z</time></trkpt><trkpt lat="45.80607207952956" lon="14.097547974281195"><ele>717.0</ele><time>2026-05-01T15:30:53Z</time></trkpt><trkpt lat="45.80604883549384" lon="14.097697579218162"><ele>717.0</ele><time>2026-05-01T15:30:54Z</time></trkpt><trkpt lat="45.806014873827216" lon="14.09785209523806"><ele>717.0</ele><time>2026-05-01T15:30:55Z</time></trkpt><trkpt lat="45.80600978640777" lon="14.09800742914216"><ele>717.0</ele><time>2026-05-01T15:30:56Z</time></trkpt><trkpt lat="45.806019939294664" lon="14.098140570405853"><ele>717.0</ele><time>2026-05-01T15:30:57Z</time></trkpt><trkpt lat="45.806020976357175" lon="14.098279658484273"><ele>717.0</ele><time>2026-05-01T15:30:58Z</time></trkpt><trkpt lat="45.80599172673812" lon="14.098370767507697"><ele>713.4000000000001</ele><time>2026-05-01T15:30:59Z</time></trkpt><trkpt lat="45.80594807595587" lon="14.098505329929948"><ele>709.8000000000001</ele><time>2026-05-01T15:31:00Z</time></trkpt><trkpt lat="45.80590333034838" lon="14.0986378250221"><ele>706.2</ele><time>2026-05-01T15:31:01Z</time></trkpt><trkpt lat="45.80584208793018" lon="14.098747823663405"><ele>702.6</ele><time>2026-05-01T15:31:02Z</time></trkpt><trkpt lat="45.80580957605184" lon="14.098867623894613"><ele>699.0</ele><time>2026-05-01T15:31:03Z</time></trkpt><trkpt lat="45.80579582916877" lon="14.099033677572116"><ele>699.0</ele><time>2026-05-01T15:31:04Z</time></trkpt><trkpt lat="45.8057592371729" lon="14.099238355259272"><ele>699.0</ele><time>2026-05-01T15:31:05Z</time></trkpt><trkpt lat="45.80572286544024" lon="14.09944777014626"><ele>699.0</ele><time>2026-05-01T15:31:06Z</time></trkpt><trkpt lat="45.80568843203768" lon="14.099619878876123"><ele>699.0</ele><time>2026-05-01T15:31:07Z</time></trkpt><trkpt lat="45.805652722962336" lon="14.099771404068617"><ele>699.0</ele><time>2026-05-01T15:31:08Z</time></trkpt><trkpt lat="45.80561528297618" lon="14.099906572465637"><ele>699.0</ele><time>2026-05-01T15:31:09Z</time></trkpt><trkpt lat="45.80557920117647" lon="14.100025722485666"><ele>699.0</ele><time>2026-05-01T15:31:10Z</time></trkpt><trkpt lat="45.80554229219096" lon="14.100136562861394"><ele>699.0</ele><time>2026-05-01T15:31:11Z</time></trkpt><trkpt lat="45.80551518204315" lon="14.100260908801786"><ele>699.0</ele><time>2026-05-01T15:31:12Z</time></trkpt><trkpt lat="45.805477068282585" lon="14.100365339727494"><ele>698.6666666666666</ele><time>2026-05-01T15:31:13Z</time></trkpt><trkpt lat="45.80544395170665" lon="14.100473150364484"><ele>698.3333333333334</ele><time>2026-05-01T15:31:14Z</time></trkpt><trkpt lat="45.805413992404254" lon="14.100580820127217"><ele>698.0</ele><time>2026-05-01T15:31:15Z</time></trkpt><trkpt lat="45.80539877433589" lon="14.100687223644465"><ele>697.6666666666667</ele><time>2026-05-01T15:31:16Z</time></trkpt><trkpt lat="45.805373796938994" lon="14.100774968514214"><ele>697.3333333333334</ele><time>2026-05-01T15:31:17Z</time></trkpt><trkpt lat="45.80535818138359" lon="14.100924167814748"><ele>697.0</ele><time>2026-05-01T15:31:19Z</time></trkpt><trkpt lat="45.80535207115508" lon="14.101043751356608"><ele>696.8333333333334</ele><time>2026-05-01T15:31:21Z</time></trkpt><trkpt lat="45.80536821858756" lon="14.101182263344915"><ele>696.6666666666667</ele><time>2026-05-01T15:31:23Z</time></trkpt><trkpt lat="45.80535494879435" lon="14.101307434164633"><ele>696.5</ele><time>2026-05-01T15:31:25Z</time></trkpt><trkpt lat="45.805359345853844" lon="14.101465445966308"><ele>696.3333333333334</ele><time>2026-05-01T15:31:27Z</time></trkpt><trkpt lat="45.80536215019171" lon="14.101566222284998"><ele>696.1666666666666</ele><time>2026-05-01T15:31:28Z</time></trkpt><trkpt lat="45.80537541429423" lon="14.101675599604892"><ele>696.0</ele><time>2026-05-01T15:31:29Z</time></trkpt><trkpt lat="45.80537904826231" lon="14.101779837096421"><ele>696.5</ele><time>2026-05-01T15:31:30Z</time></trkpt><trkpt lat="45.80538239318264" lon="14.101891229854138"><ele>697.0</ele><time>2026-05-01T15:31:31Z</time></trkpt><trkpt lat="45.80538647774521" lon="14.101997744171491"><ele>697.5</ele><time>2026-05-01T15:31:32Z</time></trkpt><trkpt lat="45.80538938615432" lon="14.102109063928086"><ele>698.0</ele><time>2026-05-01T15:31:33Z</time></trkpt><trkpt lat="45.805388830977314" lon="14.102217864726148"><ele>698.5</ele><time>2026-05-01T15:31:34Z</time></trkpt><trkpt lat="45.80537525726645" lon="14.102330376919536"><ele>699.0</ele><time>2026-05-01T15:31:35Z</time></trkpt><trkpt lat="45.80537472258626" lon="14.102442961246904"><ele>700.6</ele><time>2026-05-01T15:31:36Z</time></trkpt><trkpt lat="45.80537158424327" lon="14.10256388764968"><ele>702.2</ele><time>2026-05-01T15:31:37Z</time></trkpt><trkpt lat="45.805362302170984" lon="14.102689316038942"><ele>703.8000000000001</ele><time>2026-05-01T15:31:38Z</time></trkpt><trkpt lat="45.805349247078176" lon="14.102826942103858"><ele>705.4000000000001</ele><time>2026-05-01T15:31:39Z</time></trkpt><trkpt lat="45.80532304521942" lon="14.102955513816836"><ele>707.0</ele><time>2026-05-01T15:31:40Z</time></trkpt><trkpt lat="45.80528990905994" lon="14.103089895594296"><ele>707.0</ele><time>2026-05-01T15:31:41Z</time></trkpt><trkpt lat="45.80525615504629" lon="14.103214763612941"><ele>707.0</ele><time>2026-05-01T15:31:42Z</time></trkpt><trkpt lat="45.805221634179574" lon="14.103337050713993"><ele>707.0</ele><time>2026-05-01T15:31:43Z</time></trkpt><trkpt lat="45.80517720413973" lon="14.103458826049488"><ele>707.0</ele><time>2026-05-01T15:31:44Z</time></trkpt><trkpt lat="45.80512578441255" lon="14.103594861993733"><ele>707.0</ele><time>2026-05-01T15:31:45Z</time></trkpt><trkpt lat="45.805079881186025" lon="14.103727259479603"><ele>704.8333333333333</ele><time>2026-05-01T15:31:46Z</time></trkpt><trkpt lat="45.80503875597108" lon="14.103857120087664"><ele>702.6666666666666</ele><time>2026-05-01T15:31:47Z</time></trkpt><trkpt lat="45.80501540410902" lon="14.103989084700126"><ele>700.5</ele><time>2026-05-01T15:31:48Z</time></trkpt><trkpt lat="45.805004094465446" lon="14.104119388090938"><ele>698.3333333333334</ele><time>2026-05-01T15:31:49Z</time></trkpt><trkpt lat="45.80500945306178" lon="14.104239176913328"><ele>696.1666666666667</ele><time>2026-05-01T15:31:50Z</time></trkpt><trkpt lat="45.80501582871078" lon="14.104344498910766"><ele>694.0</ele><time>2026-05-01T15:31:51Z</time></trkpt><trkpt lat="45.80503834561854" lon="14.10446896718675"><ele>692.8333333333334</ele><time>2026-05-01T15:31:52Z</time></trkpt><trkpt lat="45.80507275777809" lon="14.104579257093288"><ele>691.6666666666667</ele><time>2026-05-01T15:31:53Z</time></trkpt><trkpt lat="45.80508073614741" lon="14.104699944191395"><ele>690.5</ele><time>2026-05-01T15:31:54Z</time></trkpt><trkpt lat="45.80509753614276" lon="14.104808146148832"><ele>689.3333333333334</ele><time>2026-05-01T15:31:55Z</time></trkpt><trkpt lat="45.8050979813238" lon="14.104904833525154"><ele>688.1666666666666</ele><time>2026-05-01T15:31:56Z</time></trkpt><trkpt lat="45.805059803049765" lon="14.105076557652028"><ele>687.0</ele><time>2026-05-01T15:31:58Z</time></trkpt><trkpt lat="45.804998827545354" lon="14.1051382357212"><ele>686.8333333333334</ele><time>2026-05-01T15:31:59Z</time></trkpt><trkpt lat="45.80491388580499" lon="14.105196375965262"><ele>686.6666666666666</ele><time>2026-05-01T15:32:00Z</time></trkpt><trkpt lat="45.80485270896345" lon="14.105275176853718"><ele>686.5</ele><time>2026-05-01T15:32:01Z</time></trkpt><trkpt lat="45.80480120751461" lon="14.105360496797207"><ele>686.3333333333333</ele><time>2026-05-01T15:32:02Z</time></trkpt><trkpt lat="45.80475575329131" lon="14.105481584608203"><ele>686.1666666666666</ele><time>2026-05-01T15:32:03Z</time></trkpt><trkpt lat="45.80473020553594" lon="14.105617190170918"><ele>686.0</ele><time>2026-05-01T15:32:04Z</time></trkpt><trkpt lat="45.80471510277082" lon="14.105761001638763"><ele>686.4</ele><time>2026-05-01T15:32:05Z</time></trkpt><trkpt lat="45.804712200455896" lon="14.105909282359715"><ele>686.8</ele><time>2026-05-01T15:32:06Z</time></trkpt><trkpt lat="45.8047250981184" lon="14.106065741247786"><ele>687.1999999999999</ele><time>2026-05-01T15:32:07Z</time></trkpt><trkpt lat="45.804763601324666" lon="14.106208477204765"><ele>687.5999999999999</ele><time>2026-05-01T15:32:08Z</time></trkpt><trkpt lat="45.804780202727635" lon="14.106342722590693"><ele>688.0</ele><time>2026-05-01T15:32:09Z</time></trkpt><trkpt lat="45.804815647882855" lon="14.106462834911582"><ele>688.0</ele><time>2026-05-01T15:32:10Z</time></trkpt><trkpt lat="45.80485838701161" lon="14.106570173377238"><ele>688.0</ele><time>2026-05-01T15:32:11Z</time></trkpt><trkpt lat="45.80489058042767" lon="14.106659210674474"><ele>688.0</ele><time>2026-05-01T15:32:12Z</time></trkpt><trkpt lat="45.80495580431947" lon="14.106680934928038"><ele>688.0</ele><time>2026-05-01T15:32:13Z</time></trkpt><trkpt lat="45.805025140205686" lon="14.106655521237634"><ele>688.0</ele><time>2026-05-01T15:32:14Z</time></trkpt><trkpt lat="45.80510358637878" lon="14.106657315164485"><ele>688.0</ele><time>2026-05-01T15:32:15Z</time></trkpt><trkpt lat="45.805201148398645" lon="14.106641162151243"><ele>686.25</ele><time>2026-05-01T15:32:16Z</time></trkpt><trkpt lat="45.805308481234874" lon="14.10662380422654"><ele>684.5</ele><time>2026-05-01T15:32:17Z</time></trkpt><trkpt lat="45.805431381810045" lon="14.10660237100068"><ele>682.75</ele><time>2026-05-01T15:32:18Z</time></trkpt><trkpt lat="45.80556773289816" lon="14.106604897277897"><ele>681.0</ele><time>2026-05-01T15:32:19Z</time></trkpt><trkpt lat="45.80567497238784" lon="14.106633845559685"><ele>681.0</ele><time>2026-05-01T15:32:20Z</time></trkpt><trkpt lat="45.805763632327" lon="14.106710421233139"><ele>681.0</ele><time>2026-05-01T15:32:22Z</time></trkpt><trkpt lat="45.80575061202839" lon="14.10680808833358"><ele>681.0</ele><time>2026-05-01T15:32:24Z</time></trkpt><trkpt lat="45.80575395718687" lon="14.106958507567889"><ele>681.0</ele><time>2026-05-01T15:32:26Z</time></trkpt><trkpt lat="45.80575352826585" lon="14.107146523505516"><ele>681.0</ele><time>2026-05-01T15:32:27Z</time></trkpt><trkpt lat="45.805750295754194" lon="14.107350149466775"><ele>678.5</ele><time>2026-05-01T15:32:28Z</time></trkpt><trkpt lat="45.80574709166809" lon="14.107503501667077"><ele>676.0</ele><time>2026-05-01T15:32:29Z</time></trkpt><trkpt lat="45.80574799027978" lon="14.107650282218879"><ele>673.5</ele><time>2026-05-01T15:32:30Z</time></trkpt><trkpt lat="45.80575191202634" lon="14.107767001020251"><ele>671.0</ele><time>2026-05-01T15:32:31Z</time></trkpt><trkpt lat="45.805773092273256" lon="14.107875165563376"><ele>668.5</ele><time>2026-05-01T15:32:32Z</time></trkpt><trkpt lat="45.805804813351756" lon="14.107971924301703"><ele>666.0</ele><time>2026-05-01T15:32:33Z</time></trkpt><trkpt lat="45.80585499783924" lon="14.108056959566095"><ele>666.0</ele><time>2026-05-01T15:32:34Z</time></trkpt><trkpt lat="45.805931878267046" lon="14.108113026383682"><ele>666.0</ele><time>2026-05-01T15:32:35Z</time></trkpt><trkpt lat="45.80601271507771" lon="14.10815156662134"><ele>666.0</ele><time>2026-05-01T15:32:36Z</time></trkpt><trkpt lat="45.80609663436696" lon="14.108151921652865"><ele>666.0</ele><time>2026-05-01T15:32:37Z</time></trkpt><trkpt lat="45.80616773444001" lon="14.108125505679743"><ele>666.0</ele><time>2026-05-01T15:32:38Z</time></trkpt><trkpt lat="45.80623719584764" lon="14.108081686564802"><ele>666.0</ele><time>2026-05-01T15:32:39Z</time></trkpt><trkpt lat="45.80631607648578" lon="14.108023503596094"><ele>667.5</ele><time>2026-05-01T15:32:40Z</time></trkpt><trkpt lat="45.806385434175404" lon="14.107969160686597"><ele>669.0</ele><time>2026-05-01T15:32:41Z</time></trkpt><trkpt lat="45.80646783275826" lon="14.107970642680247"><ele>670.5</ele><time>2026-05-01T15:32:43Z</time></trkpt><trkpt lat="45.80653891521451" lon="14.108047560366083"><ele>672.0</ele><time>2026-05-01T15:32:45Z</time></trkpt><trkpt lat="45.8065881649349" lon="14.108132283497365"><ele>673.5</ele><time>2026-05-01T15:32:46Z</time></trkpt><trkpt lat="45.80664118634573" lon="14.108220440126235"><ele>675.0</ele><time>2026-05-01T15:32:47Z</time></trkpt><trkpt lat="45.80667701967514" lon="14.108310873908298"><ele>673.1666666666666</ele><time>2026-05-01T15:32:48Z</time></trkpt><trkpt lat="45.80672639535536" lon="14.108389492040292"><ele>671.3333333333334</ele><time>2026-05-01T15:32:49Z</time></trkpt><trkpt lat="45.80676206836315" lon="14.10849013258876"><ele>669.5</ele><time>2026-05-01T15:32:50Z</time></trkpt><trkpt lat="45.80680793519964" lon="14.108596269911152"><ele>667.6666666666667</ele><time>2026-05-01T15:32:51Z</time></trkpt><trkpt lat="45.80684303158267" lon="14.108696824398521"><ele>665.8333333333334</ele><time>2026-05-01T15:32:52Z</time></trkpt><trkpt lat="45.80686551357305" lon="14.108790232513538"><ele>664.0</ele><time>2026-05-01T15:32:53Z</time></trkpt><trkpt lat="45.80686055396365" lon="14.108934572192172"><ele>664.0</ele><time>2026-05-01T15:32:55Z</time></trkpt><trkpt lat="45.8068407951762" lon="14.109026674044033"><ele>664.0</ele><time>2026-05-01T15:32:56Z</time></trkpt><trkpt lat="45.80680398015113" lon="14.10914437772731"><ele>664.0</ele><time>2026-05-01T15:32:57Z</time></trkpt><trkpt lat="45.806771954062874" lon="14.109246304729494"><ele>664.0</ele><time>2026-05-01T15:32:58Z</time></trkpt><trkpt lat="45.80675191651891" lon="14.109345614391406"><ele>664.0</ele><time>2026-05-01T15:32:59Z</time></trkpt><trkpt lat="45.80672267719054" lon="14.109433296677555"><ele>664.0</ele><time>2026-05-01T15:33:00Z</time></trkpt><trkpt lat="45.80666967027531" lon="14.109579516660002"><ele>662.0</ele><time>2026-05-01T15:33:02Z</time></trkpt><trkpt lat="45.806629337434444" lon="14.109711876675812"><ele>660.0</ele><time>2026-05-01T15:33:04Z</time></trkpt><trkpt lat="45.806586885347976" lon="14.109828850798708"><ele>658.0</ele><time>2026-05-01T15:33:06Z</time></trkpt><trkpt lat="45.80668621985552" lon="14.109903423372137"><ele>656.0</ele><time>2026-05-01T15:33:14Z</time></trkpt><trkpt lat="45.8067372453598" lon="14.109847533132395"><ele>654.0</ele><time>2026-05-01T15:33:15Z</time></trkpt><trkpt lat="45.806794705619566" lon="14.109796733870349"><ele>652.0</ele><time>2026-05-01T15:33:16Z</time></trkpt><trkpt lat="45.806859123068264" lon="14.10974836296422"><ele>652.0</ele><time>2026-05-01T15:33:17Z</time></trkpt><trkpt lat="45.80691993068541" lon="14.109702703081394"><ele>652.0</ele><time>2026-05-01T15:33:18Z</time></trkpt><trkpt lat="45.80697927949047" lon="14.109667701332317"><ele>652.0</ele><time>2026-05-01T15:33:19Z</time></trkpt><trkpt lat="45.807094896356546" lon="14.109626390645879"><ele>652.0</ele><time>2026-05-01T15:33:21Z</time></trkpt><trkpt lat="45.80718078359797" lon="14.10962379674786"><ele>652.0</ele><time>2026-05-01T15:33:22Z</time></trkpt><trkpt lat="45.80725872108088" lon="14.109636286504436"><ele>652.0</ele><time>2026-05-01T15:33:23Z</time></trkpt><trkpt lat="45.80733148672124" lon="14.109662803385657"><ele>652.0</ele><time>2026-05-01T15:33:24Z</time></trkpt><trkpt lat="45.80740625715687" lon="14.109705872441644"><ele>652.0</ele><time>2026-05-01T15:33:25Z</time></trkpt><trkpt lat="45.80747173146655" lon="14.109783997009574"><ele>652.0</ele><time>2026-05-01T15:33:26Z</time></trkpt><trkpt lat="45.80752886529787" lon="14.109855190632917"><ele>652.0</ele><time>2026-05-01T15:33:27Z</time></trkpt><trkpt lat="45.80756569711157" lon="14.109929339777135"><ele>652.0</ele><time>2026-05-01T15:33:28Z</time></trkpt><trkpt lat="45.807648508677445" lon="14.110029395249182"><ele>652.0</ele><time>2026-05-01T15:33:30Z</time></trkpt><trkpt lat="45.80775548207052" lon="14.11004245969407"><ele>649.8333333333334</ele><time>2026-05-01T15:33:32Z</time></trkpt><trkpt lat="45.807817649014986" lon="14.109983237932108"><ele>647.6666666666667</ele><time>2026-05-01T15:33:33Z</time></trkpt><trkpt lat="45.807844531983164" lon="14.109880398622817"><ele>645.5</ele><time>2026-05-01T15:33:34Z</time></trkpt><trkpt lat="45.807894010938725" lon="14.10978786522559"><ele>643.3333333333334</ele><time>2026-05-01T15:33:35Z</time></trkpt><trkpt lat="45.80793853487943" lon="14.109672325471962"><ele>641.1666666666666</ele><time>2026-05-01T15:33:36Z</time></trkpt><trkpt lat="45.80794143239284" lon="14.109558604801247"><ele>639.0</ele><time>2026-05-01T15:33:37Z</time></trkpt><trkpt lat="45.80795581900499" lon="14.109462162636545"><ele>639.0000000000001</ele><time>2026-05-01T15:33:38Z</time></trkpt><trkpt lat="45.807970274562116" lon="14.109367445980515"><ele>639.0</ele><time>2026-05-01T15:33:39Z</time></trkpt><trkpt lat="45.807986975790314" lon="14.109271044720744"><ele>639.0</ele><time>2026-05-01T15:33:40Z</time></trkpt><trkpt lat="45.808004321212465" lon="14.109170926400436"><ele>639.0</ele><time>2026-05-01T15:33:41Z</time></trkpt><trkpt lat="45.80804538722227" lon="14.109086394286926"><ele>639.0</ele><time>2026-05-01T15:33:42Z</time></trkpt><trkpt lat="45.808080758138345" lon="14.109003954661057"><ele>639.0000000000001</ele><time>2026-05-01T15:33:43Z</time></trkpt><trkpt lat="45.808118347915546" lon="14.108925874155865"><ele>639.0</ele><time>2026-05-01T15:33:44Z</time></trkpt><trkpt lat="45.8081564457681" lon="14.108848582395337"><ele>641.8</ele><time>2026-05-01T15:33:45Z</time></trkpt><trkpt lat="45.80824185845192" lon="14.108712621042915"><ele>644.5999999999999</ele><time>2026-05-01T15:33:47Z</time></trkpt><trkpt lat="45.80828986863723" lon="14.108604356509733"><ele>647.4</ele><time>2026-05-01T15:33:48Z</time></trkpt><trkpt lat="45.8083375852223" lon="14.1084961530869"><ele>650.1999999999999</ele><time>2026-05-01T15:33:49Z</time></trkpt><trkpt lat="45.80838340950609" lon="14.108405012824509"><ele>653.0</ele><time>2026-05-01T15:33:49.999Z</time></trkpt><trkpt lat="45.808448856100924" lon="14.108335898320423"><ele>649.75</ele><time>2026-05-01T15:33:50.999Z</time></trkpt><trkpt lat="45.80854918911026" lon="14.10834029172775"><ele>646.5</ele><time>2026-05-01T15:33:51.999Z</time></trkpt><trkpt lat="45.80866148321758" lon="14.108322151812498"><ele>643.25</ele><time>2026-05-01T15:33:52.999Z</time></trkpt><trkpt lat="45.80879787855826" lon="14.108322262961174"><ele>640.0</ele><time>2026-05-01T15:33:53.999Z</time></trkpt><trkpt lat="45.8089475530398" lon="14.108286221853268"><ele>640.0</ele><time>2026-05-01T15:33:54.999Z</time></trkpt><trkpt lat="45.80907262327114" lon="14.108247910725066"><ele>640.0</ele><time>2026-05-01T15:33:55.999Z</time></trkpt><trkpt lat="45.80918593553349" lon="14.108238789989556"><ele>640.0</ele><time>2026-05-01T15:33:57Z</time></trkpt><trkpt lat="45.80929251242636" lon="14.1082217542781"><ele>640.0</ele><time>2026-05-01T15:33:58Z</time></trkpt><trkpt lat="45.80939701735989" lon="14.10821148250777"><ele>640.2</ele><time>2026-05-01T15:33:59Z</time></trkpt><trkpt lat="45.80949687393843" lon="14.108207967156892"><ele>640.4</ele><time>2026-05-01T15:34:00Z</time></trkpt><trkpt lat="45.809589503864785" lon="14.108203991091738"><ele>640.5999999999999</ele><time>2026-05-01T15:34:01Z</time></trkpt><trkpt lat="45.809689472612106" lon="14.108198903742007"><ele>640.8</ele><time>2026-05-01T15:34:02Z</time></trkpt><trkpt lat="45.80982442243831" lon="14.108187716036735"><ele>641.0</ele><time>2026-05-01T15:34:03Z</time></trkpt><trkpt lat="45.80991379165229" lon="14.108175102545317"><ele>641.0</ele><time>2026-05-01T15:34:04Z</time></trkpt><trkpt lat="45.8100010444884" lon="14.10816901246215"><ele>641.0</ele><time>2026-05-01T15:34:05Z</time></trkpt><trkpt lat="45.81010762281344" lon="14.108133033914154"><ele>641.0</ele><time>2026-05-01T15:34:06Z</time></trkpt><trkpt lat="45.81023689821911" lon="14.10807596566518"><ele>641.0</ele><time>2026-05-01T15:34:07Z</time></trkpt><trkpt lat="45.810367595287396" lon="14.108033333195442"><ele>639.5</ele><time>2026-05-01T15:34:08Z</time></trkpt><trkpt lat="45.810501980333854" lon="14.107989856700359"><ele>638.0</ele><time>2026-05-01T15:34:09Z</time></trkpt><trkpt lat="45.81064396612732" lon="14.107966624947322"><ele>636.5</ele><time>2026-05-01T15:34:10Z</time></trkpt><trkpt lat="45.81077674618692" lon="14.10792352619503"><ele>635.0</ele><time>2026-05-01T15:34:11Z</time></trkpt><trkpt lat="45.810897124476334" lon="14.107884906106191"><ele>634.25</ele><time>2026-05-01T15:34:12Z</time></trkpt><trkpt lat="45.81103198353406" lon="14.107846796201073"><ele>633.5</ele><time>2026-05-01T15:34:13Z</time></trkpt><trkpt lat="45.8111823862918" lon="14.107816451795678"><ele>632.75</ele><time>2026-05-01T15:34:14Z</time></trkpt><trkpt lat="45.81131288078131" lon="14.107789705015405"><ele>632.0</ele><time>2026-05-01T15:34:15Z</time></trkpt><trkpt lat="45.81143592388676" lon="14.10775621668237"><ele>632.0</ele><time>2026-05-01T15:34:16Z</time></trkpt><trkpt lat="45.81155255651525" lon="14.107709529322099"><ele>632.0</ele><time>2026-05-01T15:34:17Z</time></trkpt><trkpt lat="45.81165898792598" lon="14.107643818319108"><ele>632.0</ele><time>2026-05-01T15:34:18Z</time></trkpt><trkpt lat="45.81174563508624" lon="14.107564953647401"><ele>632.0</ele><time>2026-05-01T15:34:19Z</time></trkpt><trkpt lat="45.81183758471797" lon="14.10747058449502"><ele>633.25</ele><time>2026-05-01T15:34:20Z</time></trkpt><trkpt lat="45.81193620912458" lon="14.107341749144988"><ele>634.5</ele><time>2026-05-01T15:34:21Z</time></trkpt><trkpt lat="45.8120561460747" lon="14.107267551820586"><ele>635.75</ele><time>2026-05-01T15:34:22Z</time></trkpt><trkpt lat="45.812150773740626" lon="14.10719394715809"><ele>637.0</ele><time>2026-05-01T15:34:23Z</time></trkpt><trkpt lat="45.812242447596134" lon="14.107179763925126"><ele>637.0</ele><time>2026-05-01T15:34:24Z</time></trkpt><trkpt lat="45.812327676004585" lon="14.107154811017232"><ele>637.0</ele><time>2026-05-01T15:34:25Z</time></trkpt><trkpt lat="45.81242111548517" lon="14.107131122206361"><ele>637.0</ele><time>2026-05-01T15:34:26Z</time></trkpt><trkpt lat="45.81250765825754" lon="14.10710972961856"><ele>637.0</ele><time>2026-05-01T15:34:27Z</time></trkpt><trkpt lat="45.81259695018243" lon="14.107090583180527"><ele>637.0</ele><time>2026-05-01T15:34:28Z</time></trkpt><trkpt lat="45.81270612305398" lon="14.107080574430965"><ele>635.2</ele><time>2026-05-01T15:34:29Z</time></trkpt><trkpt lat="45.81281741509062" lon="14.107067718027892"><ele>633.4000000000001</ele><time>2026-05-01T15:34:30Z</time></trkpt><trkpt lat="45.81290664933719" lon="14.107040630867239"><ele>631.5999999999999</ele><time>2026-05-01T15:34:31Z</time></trkpt><trkpt lat="45.813011008468074" lon="14.10697420866463"><ele>629.8</ele><time>2026-05-01T15:34:32Z</time></trkpt><trkpt lat="45.81311333052328" lon="14.106885551736177"><ele>628.0</ele><time>2026-05-01T15:34:33Z</time></trkpt><trkpt lat="45.81320825868939" lon="14.106790958265586"><ele>628.0</ele><time>2026-05-01T15:34:34Z</time></trkpt><trkpt lat="45.813288926190666" lon="14.106718543546855"><ele>628.0</ele><time>2026-05-01T15:34:35Z</time></trkpt><trkpt lat="45.81339127977227" lon="14.106626160989642"><ele>628.0</ele><time>2026-05-01T15:34:36Z</time></trkpt><trkpt lat="45.813471302486974" lon="14.106550862884745"><ele>628.0</ele><time>2026-05-01T15:34:37Z</time></trkpt><trkpt lat="45.81355287556022" lon="14.106460266747318"><ele>628.0</ele><time>2026-05-01T15:34:38Z</time></trkpt><trkpt lat="45.813634887518475" lon="14.106411739100407"><ele>626.1999999999999</ele><time>2026-05-01T15:34:39Z</time></trkpt><trkpt lat="45.813714920306325" lon="14.106354331304821"><ele>624.4</ele><time>2026-05-01T15:34:40Z</time></trkpt><trkpt lat="45.81379882199747" lon="14.106294171274854"><ele>622.5999999999999</ele><time>2026-05-01T15:34:41Z</time></trkpt><trkpt lat="45.813878272249404" lon="14.106237203113416"><ele>620.8</ele><time>2026-05-01T15:34:42Z</time></trkpt><trkpt lat="45.813955716243164" lon="14.106185755165324"><ele>619.0</ele><time>2026-05-01T15:34:43Z</time></trkpt><trkpt lat="45.81404410671865" lon="14.106126240432758"><ele>619.0</ele><time>2026-05-01T15:34:44Z</time></trkpt><trkpt lat="45.814124315191805" lon="14.106073673253364"><ele>619.0</ele><time>2026-05-01T15:34:45Z</time></trkpt><trkpt lat="45.81420259059068" lon="14.106030187829445"><ele>619.0</ele><time>2026-05-01T15:34:46Z</time></trkpt><trkpt lat="45.81426929650663" lon="14.106004828830633"><ele>619.0</ele><time>2026-05-01T15:34:47Z</time></trkpt><trkpt lat="45.81434493841571" lon="14.106013810643079"><ele>619.0</ele><time>2026-05-01T15:34:48Z</time></trkpt><trkpt lat="45.8144316225543" lon="14.106110832618683"><ele>619.0</ele><time>2026-05-01T15:34:49Z</time></trkpt><trkpt lat="45.81450902094783" lon="14.10620301103778"><ele>618.75</ele><time>2026-05-01T15:34:50Z</time></trkpt><trkpt lat="45.81460732457457" lon="14.10633826667033"><ele>618.5</ele><time>2026-05-01T15:34:51Z</time></trkpt><trkpt lat="45.81468341621611" lon="14.106456159583923"><ele>618.25</ele><time>2026-05-01T15:34:52Z</time></trkpt><trkpt lat="45.814762996910034" lon="14.106567771696708"><ele>618.0</ele><time>2026-05-01T15:34:53Z</time></trkpt><trkpt lat="45.81483468150275" lon="14.106689286200849"><ele>618.0</ele><time>2026-05-01T15:34:54Z</time></trkpt><trkpt lat="45.814879239263604" lon="14.10684215569907"><ele>618.0</ele><time>2026-05-01T15:34:55Z</time></trkpt><trkpt lat="45.81488539396624" lon="14.107009954056847"><ele>618.0</ele><time>2026-05-01T15:34:56Z</time></trkpt><trkpt lat="45.814904984579826" lon="14.107174758284598"><ele>618.0</ele><time>2026-05-01T15:34:57Z</time></trkpt><trkpt lat="45.814931967986816" lon="14.107324017749395"><ele>616.6</ele><time>2026-05-01T15:34:58Z</time></trkpt><trkpt lat="45.81495021106721" lon="14.107460209320665"><ele>615.1999999999999</ele><time>2026-05-01T15:34:59Z</time></trkpt><trkpt lat="45.81495122955414" lon="14.10759726561111"><ele>613.8</ele><time>2026-05-01T15:35:00Z</time></trkpt><trkpt lat="45.814967348046814" lon="14.107754484819779"><ele>612.4</ele><time>2026-05-01T15:35:01Z</time></trkpt><trkpt lat="45.81499733458212" lon="14.107916332403745"><ele>611.0</ele><time>2026-05-01T15:35:02Z</time></trkpt><trkpt lat="45.81502851174071" lon="14.108069896150408"><ele>611.0</ele><time>2026-05-01T15:35:03Z</time></trkpt><trkpt lat="45.81505292630219" lon="14.108208471310471"><ele>611.0</ele><time>2026-05-01T15:35:04Z</time></trkpt><trkpt lat="45.8150787745784" lon="14.108337945710094"><ele>611.0</ele><time>2026-05-01T15:35:05Z</time></trkpt><trkpt lat="45.81510933704078" lon="14.10847193997454"><ele>611.0</ele><time>2026-05-01T15:35:06Z</time></trkpt><trkpt lat="45.8151595102359" lon="14.10861486648662"><ele>611.0</ele><time>2026-05-01T15:35:07Z</time></trkpt><trkpt lat="45.8152311565739" lon="14.108763158557545"><ele>613.0</ele><time>2026-05-01T15:35:08Z</time></trkpt><trkpt lat="45.81531482751744" lon="14.108920381354011"><ele>615.0</ele><time>2026-05-01T15:35:09Z</time></trkpt><trkpt lat="45.815389820421736" lon="14.109085419981692"><ele>617.0</ele><time>2026-05-01T15:35:10Z</time></trkpt><trkpt lat="45.81545771517269" lon="14.109260683588763"><ele>619.0</ele><time>2026-05-01T15:35:11Z</time></trkpt><trkpt lat="45.815526028147474" lon="14.109433730409956"><ele>619.0</ele><time>2026-05-01T15:35:12Z</time></trkpt><trkpt lat="45.815588047307756" lon="14.10959507729988"><ele>619.0</ele><time>2026-05-01T15:35:13Z</time></trkpt><trkpt lat="45.81563316743643" lon="14.109754332133203"><ele>619.0</ele><time>2026-05-01T15:35:14Z</time></trkpt><trkpt lat="45.815682941326365" lon="14.109894913838483"><ele>619.0</ele><time>2026-05-01T15:35:15Z</time></trkpt><trkpt lat="45.815727593188086" lon="14.110029754314064"><ele>617.2</ele><time>2026-05-01T15:35:16Z</time></trkpt><trkpt lat="45.81576428791012" lon="14.110157444744958"><ele>615.4</ele><time>2026-05-01T15:35:17Z</time></trkpt><trkpt lat="45.81580515054626" lon="14.11030973543111"><ele>613.6</ele><time>2026-05-01T15:35:18Z</time></trkpt><trkpt lat="45.81583987423434" lon="14.110465109991674"><ele>611.8</ele><time>2026-05-01T15:35:19Z</time></trkpt><trkpt lat="45.815886694069405" lon="14.110618145075032"><ele>610.0</ele><time>2026-05-01T15:35:20Z</time></trkpt><trkpt lat="45.815906391725434" lon="14.110763335895484"><ele>608.6</ele><time>2026-05-01T15:35:21Z</time></trkpt><trkpt lat="45.81592736208344" lon="14.11089375478155"><ele>607.2</ele><time>2026-05-01T15:35:22Z</time></trkpt><trkpt lat="45.81593543225041" lon="14.111014380541137"><ele>605.8</ele><time>2026-05-01T15:35:23Z</time></trkpt><trkpt lat="45.815945207419894" lon="14.111129679320117"><ele>604.4</ele><time>2026-05-01T15:35:24Z</time></trkpt><trkpt lat="45.81597324273357" lon="14.111253263230497"><ele>603.0</ele><time>2026-05-01T15:35:25Z</time></trkpt><trkpt lat="45.81601304240652" lon="14.111386122211423"><ele>606.4</ele><time>2026-05-01T15:35:26Z</time></trkpt><trkpt lat="45.81605911056811" lon="14.111526170091851"><ele>609.8</ele><time>2026-05-01T15:35:27Z</time></trkpt><trkpt lat="45.81610710829326" lon="14.11166215307724"><ele>613.2</ele><time>2026-05-01T15:35:28Z</time></trkpt><trkpt lat="45.8161551250795" lon="14.111787503048737"><ele>616.6</ele><time>2026-05-01T15:35:29Z</time></trkpt><trkpt lat="45.81620962626489" lon="14.111902620680935"><ele>620.0</ele><time>2026-05-01T15:35:30Z</time></trkpt><trkpt lat="45.81625437880487" lon="14.112024846823466"><ele>620.0</ele><time>2026-05-01T15:35:31Z</time></trkpt><trkpt lat="45.81630548614011" lon="14.112144914751957"><ele>620.0</ele><time>2026-05-01T15:35:31.999Z</time></trkpt><trkpt lat="45.816378656236736" lon="14.112248125018194"><ele>620.0</ele><time>2026-05-01T15:35:32.999Z</time></trkpt><trkpt lat="45.8164402557729" lon="14.112346497616972"><ele>620.0</ele><time>2026-05-01T15:35:33.999Z</time></trkpt><trkpt lat="45.81649735342452" lon="14.11242479230172"><ele>620.0</ele><time>2026-05-01T15:35:34.999Z</time></trkpt><trkpt lat="45.816571521760594" lon="14.112485706128252"><ele>620.4</ele><time>2026-05-01T15:35:35.999Z</time></trkpt><trkpt lat="45.816658655466526" lon="14.112545456363895"><ele>620.8</ele><time>2026-05-01T15:35:36.999Z</time></trkpt><trkpt lat="45.816755057340266" lon="14.112621060540587"><ele>621.2</ele><time>2026-05-01T15:35:37.999Z</time></trkpt><trkpt lat="45.816855871149706" lon="14.112708574658248"><ele>621.6</ele><time>2026-05-01T15:35:38.999Z</time></trkpt><trkpt lat="45.81695299714921" lon="14.11282033012017"><ele>622.0</ele><time>2026-05-01T15:35:39.999Z</time></trkpt><trkpt lat="45.81705503820258" lon="14.112959333188192"><ele>622.0</ele><time>2026-05-01T15:35:40.999Z</time></trkpt><trkpt lat="45.81712209160029" lon="14.113115951785199"><ele>622.0</ele><time>2026-05-01T15:35:41.999Z</time></trkpt><trkpt lat="45.81716702059163" lon="14.113240908256937"><ele>622.0</ele><time>2026-05-01T15:35:42.999Z</time></trkpt><trkpt lat="45.81720797731165" lon="14.113353052009614"><ele>622.0</ele><time>2026-05-01T15:35:43.999Z</time></trkpt><trkpt lat="45.817249522774844" lon="14.113467933196834"><ele>622.0</ele><time>2026-05-01T15:35:44.999Z</time></trkpt><trkpt lat="45.81731319142453" lon="14.113544128689178"><ele>622.6</ele><time>2026-05-01T15:35:45.999Z</time></trkpt><trkpt lat="45.817385497214715" lon="14.113594980355218"><ele>623.2</ele><time>2026-05-01T15:35:46.999Z</time></trkpt><trkpt lat="45.81747688167054" lon="14.113635108163384"><ele>623.8</ele><time>2026-05-01T15:35:47.999Z</time></trkpt><trkpt lat="45.81758813999812" lon="14.113684100200796"><ele>624.4</ele><time>2026-05-01T15:35:48.999Z</time></trkpt><trkpt lat="45.81770292708979" lon="14.113739947715736"><ele>625.0</ele><time>2026-05-01T15:35:49.999Z</time></trkpt><trkpt lat="45.81780928702011" lon="14.113810212814052"><ele>625.0</ele><time>2026-05-01T15:35:50.999Z</time></trkpt><trkpt lat="45.81791321221343" lon="14.113895745615453"><ele>625.0</ele><time>2026-05-01T15:35:51.999Z</time></trkpt><trkpt lat="45.81801288705923" lon="14.113965308146764"><ele>625.0</ele><time>2026-05-01T15:35:52.999Z</time></trkpt><trkpt lat="45.81809374450282" lon="14.11403807834593"><ele>625.0</ele><time>2026-05-01T15:35:53.999Z</time></trkpt><trkpt lat="45.81817283216993" lon="14.11410736571866"><ele>625.0</ele><time>2026-05-01T15:35:54.999Z</time></trkpt><trkpt lat="45.818257982549206" lon="14.114172789176846"><ele>625.2</ele><time>2026-05-01T15:35:55.999Z</time></trkpt><trkpt lat="45.81835639116219" lon="14.114228405125031"><ele>625.4</ele><time>2026-05-01T15:35:56.999Z</time></trkpt><trkpt lat="45.81846533116661" lon="14.11427596217493"><ele>625.6</ele><time>2026-05-01T15:35:57.999Z</time></trkpt><trkpt lat="45.81854205369901" lon="14.114319043568345"><ele>625.8</ele><time>2026-05-01T15:35:58.999Z</time></trkpt><trkpt lat="45.81860919860818" lon="14.114375828615024"><ele>626.0</ele><time>2026-05-01T15:35:59.999Z</time></trkpt><trkpt lat="45.81866769252129" lon="14.11445263852348"><ele>626.0</ele><time>2026-05-01T15:36:00.999Z</time></trkpt><trkpt lat="45.818716450909434" lon="14.114547874850059"><ele>626.0</ele><time>2026-05-01T15:36:01.999Z</time></trkpt><trkpt lat="45.818756232525146" lon="14.114692362170386"><ele>626.0</ele><time>2026-05-01T15:36:03Z</time></trkpt><trkpt lat="45.81880192058214" lon="14.114837987260938"><ele>626.0</ele><time>2026-05-01T15:36:04Z</time></trkpt><trkpt lat="45.81886660483814" lon="14.114983066318432"><ele>626.0</ele><time>2026-05-01T15:36:05Z</time></trkpt><trkpt lat="45.818920518523576" lon="14.11512864831038"><ele>627.0</ele><time>2026-05-01T15:36:06Z</time></trkpt><trkpt lat="45.818967877858235" lon="14.115254056393718"><ele>628.0</ele><time>2026-05-01T15:36:07Z</time></trkpt><trkpt lat="45.819007739531514" lon="14.115377013069203"><ele>629.0</ele><time>2026-05-01T15:36:08Z</time></trkpt><trkpt lat="45.81907174837938" lon="14.115475856873452"><ele>630.0</ele><time>2026-05-01T15:36:09Z</time></trkpt><trkpt lat="45.819158280279495" lon="14.115567081309944"><ele>631.0</ele><time>2026-05-01T15:36:10Z</time></trkpt><trkpt lat="45.819273515092405" lon="14.11568191708631"><ele>631.5</ele><time>2026-05-01T15:36:11Z</time></trkpt><trkpt lat="45.81938412762529" lon="14.115794848296288"><ele>632.0</ele><time>2026-05-01T15:36:12Z</time></trkpt><trkpt lat="45.81946760229364" lon="14.115907125134846"><ele>632.5</ele><time>2026-05-01T15:36:13Z</time></trkpt><trkpt lat="45.819549089972384" lon="14.115997972885532"><ele>633.0</ele><time>2026-05-01T15:36:14Z</time></trkpt><trkpt lat="45.819644013096145" lon="14.116057554762001"><ele>633.0</ele><time>2026-05-01T15:36:15Z</time></trkpt><trkpt lat="45.81973320715232" lon="14.116132436534912"><ele>633.0</ele><time>2026-05-01T15:36:16Z</time></trkpt><trkpt lat="45.819832007367175" lon="14.11617671743074"><ele>633.0</ele><time>2026-05-01T15:36:17Z</time></trkpt><trkpt lat="45.81992676432247" lon="14.116213653631075"><ele>633.0</ele><time>2026-05-01T15:36:18Z</time></trkpt><trkpt lat="45.82002504953067" lon="14.116249144028373"><ele>633.0</ele><time>2026-05-01T15:36:19Z</time></trkpt><trkpt lat="45.820132338769966" lon="14.11626303281594"><ele>633.1999999999999</ele><time>2026-05-01T15:36:20Z</time></trkpt><trkpt lat="45.82023959538344" lon="14.116301053373329"><ele>633.4</ele><time>2026-05-01T15:36:21Z</time></trkpt><trkpt lat="45.82034452226169" lon="14.116344007003242"><ele>633.5999999999999</ele><time>2026-05-01T15:36:22Z</time></trkpt><trkpt lat="45.82043800811202" lon="14.11640692857493"><ele>633.8</ele><time>2026-05-01T15:36:23Z</time></trkpt><trkpt lat="45.820536863941285" lon="14.116457037459405"><ele>634.0</ele><time>2026-05-01T15:36:24Z</time></trkpt><trkpt lat="45.82062407960261" lon="14.116523951012715"><ele>632.8333333333334</ele><time>2026-05-01T15:36:25Z</time></trkpt><trkpt lat="45.82069735896199" lon="14.116586850500896"><ele>631.6666666666667</ele><time>2026-05-01T15:36:26Z</time></trkpt><trkpt lat="45.82074554640295" lon="14.116682340966479"><ele>630.5</ele><time>2026-05-01T15:36:27Z</time></trkpt><trkpt lat="45.820784435292424" lon="14.116795820413113"><ele>629.3333333333334</ele><time>2026-05-01T15:36:28Z</time></trkpt><trkpt lat="45.820816685641454" lon="14.116911879976392"><ele>628.1666666666666</ele><time>2026-05-01T15:36:29Z</time></trkpt><trkpt lat="45.82081338227714" lon="14.11702549170119"><ele>627.0</ele><time>2026-05-01T15:36:30Z</time></trkpt><trkpt lat="45.820819612523536" lon="14.117155053275477"><ele>627.0</ele><time>2026-05-01T15:36:31Z</time></trkpt><trkpt lat="45.82083453940851" lon="14.117297639292937"><ele>627.0</ele><time>2026-05-01T15:36:32Z</time></trkpt><trkpt lat="45.820876576238646" lon="14.117438423863613"><ele>627.0</ele><time>2026-05-01T15:36:33Z</time></trkpt><trkpt lat="45.82091780973341" lon="14.117575815241528"><ele>627.0</ele><time>2026-05-01T15:36:34Z</time></trkpt><trkpt lat="45.82099587316551" lon="14.117682969106205"><ele>627.0</ele><time>2026-05-01T15:36:35Z</time></trkpt><trkpt lat="45.82105376108672" lon="14.117816725862685"><ele>626.8000000000001</ele><time>2026-05-01T15:36:36Z</time></trkpt><trkpt lat="45.82108703839797" lon="14.117970246377192"><ele>626.6</ele><time>2026-05-01T15:36:37Z</time></trkpt><trkpt lat="45.821137506858044" lon="14.118110005241057"><ele>626.4000000000001</ele><time>2026-05-01T15:36:38Z</time></trkpt><trkpt lat="45.82118321744115" lon="14.11826363693106"><ele>626.2</ele><time>2026-05-01T15:36:39Z</time></trkpt><trkpt lat="45.82123848615046" lon="14.118390175357641"><ele>626.0</ele><time>2026-05-01T15:36:40Z</time></trkpt><trkpt lat="45.82126253471062" lon="14.118512794662768"><ele>626.8333333333333</ele><time>2026-05-01T15:36:41Z</time></trkpt><trkpt lat="45.821295964440864" lon="14.118611669202195"><ele>627.6666666666666</ele><time>2026-05-01T15:36:42Z</time></trkpt><trkpt lat="45.82132417250513" lon="14.118706416937503"><ele>628.5</ele><time>2026-05-01T15:36:43Z</time></trkpt><trkpt lat="45.82136858623521" lon="14.118860523669158"><ele>629.3333333333334</ele><time>2026-05-01T15:36:45Z</time></trkpt><trkpt lat="45.82140244328807" lon="14.118968704187026"><ele>630.1666666666667</ele><time>2026-05-01T15:36:47Z</time></trkpt><trkpt lat="45.82142036779216" lon="14.119076272301083"><ele>631.0</ele><time>2026-05-01T15:36:49Z</time></trkpt><trkpt lat="45.82145461216778" lon="14.119201301527193"><ele>631.8</ele><time>2026-05-01T15:36:51Z</time></trkpt><trkpt lat="45.821487452593246" lon="14.119364805961915"><ele>632.6</ele><time>2026-05-01T15:36:53Z</time></trkpt><trkpt lat="45.82151831893758" lon="14.119452245106787"><ele>633.4</ele><time>2026-05-01T15:36:54Z</time></trkpt><trkpt lat="45.821553377251014" lon="14.11962023171324"><ele>634.2</ele><time>2026-05-01T15:36:56Z</time></trkpt><trkpt lat="45.82157521410996" lon="14.119741417985598"><ele>635.0</ele><time>2026-05-01T15:36:57Z</time></trkpt><trkpt lat="45.821595885042804" lon="14.119880450013023"><ele>635.0</ele><time>2026-05-01T15:36:58Z</time></trkpt><trkpt lat="45.82161884619881" lon="14.120035580943084"><ele>635.0</ele><time>2026-05-01T15:36:59Z</time></trkpt><trkpt lat="45.821640298151664" lon="14.120199869596277"><ele>635.0</ele><time>2026-05-01T15:37:00Z</time></trkpt><trkpt lat="45.82166018355328" lon="14.120375435737776"><ele>635.0</ele><time>2026-05-01T15:37:01Z</time></trkpt><trkpt lat="45.821688045852035" lon="14.120570268271589"><ele>634.5</ele><time>2026-05-01T15:37:02Z</time></trkpt><trkpt lat="45.82169941688999" lon="14.120754228625634"><ele>634.0</ele><time>2026-05-01T15:37:03Z</time></trkpt><trkpt lat="45.821712606584704" lon="14.120945082424518"><ele>633.5</ele><time>2026-05-01T15:37:04Z</time></trkpt><trkpt lat="45.8217266440279" lon="14.121112857823716"><ele>633.0</ele><time>2026-05-01T15:37:05Z</time></trkpt><trkpt lat="45.82174742509818" lon="14.121264027368499"><ele>633.0</ele><time>2026-05-01T15:37:06Z</time></trkpt><trkpt lat="45.821762304736055" lon="14.121405149539326"><ele>633.0</ele><time>2026-05-01T15:37:07Z</time></trkpt><trkpt lat="45.821775528747935" lon="14.121528791116996"><ele>633.0</ele><time>2026-05-01T15:37:08Z</time></trkpt><trkpt lat="45.82179609079867" lon="14.12165709716385"><ele>633.0</ele><time>2026-05-01T15:37:09Z</time></trkpt><trkpt lat="45.82182757820594" lon="14.121794798803064"><ele>633.0</ele><time>2026-05-01T15:37:10Z</time></trkpt><trkpt lat="45.8218555354616" lon="14.121939715471973"><ele>633.5</ele><time>2026-05-01T15:37:11Z</time></trkpt><trkpt lat="45.82189154747177" lon="14.122078846572846"><ele>634.0</ele><time>2026-05-01T15:37:12Z</time></trkpt><trkpt lat="45.821983250051865" lon="14.122330810922875"><ele>634.5</ele><time>2026-05-01T15:37:14Z</time></trkpt><trkpt lat="45.82203928816011" lon="14.12244767862469"><ele>635.0</ele><time>2026-05-01T15:37:15Z</time></trkpt><trkpt lat="45.82210585172504" lon="14.12255854232551"><ele>635.0</ele><time>2026-05-01T15:37:16Z</time></trkpt><trkpt lat="45.8221703927829" lon="14.122649009838021"><ele>635.0</ele><time>2026-05-01T15:37:17Z</time></trkpt><trkpt lat="45.822218560828375" lon="14.122756618564408"><ele>635.0</ele><time>2026-05-01T15:37:18Z</time></trkpt><trkpt lat="45.82227685841557" lon="14.12285430128674"><ele>635.0</ele><time>2026-05-01T15:37:19Z</time></trkpt><trkpt lat="45.82235512337506" lon="14.122928359091256"><ele>635.0</ele><time>2026-05-01T15:37:20Z</time></trkpt><trkpt lat="45.82242815389518" lon="14.123022373882089"><ele>635.0</ele><time>2026-05-01T15:37:21Z</time></trkpt><trkpt lat="45.822502823799574" lon="14.123124629399873"><ele>635.0</ele><time>2026-05-01T15:37:22Z</time></trkpt><trkpt lat="45.82257893602288" lon="14.123226405699123"><ele>635.0</ele><time>2026-05-01T15:37:23Z</time></trkpt><trkpt lat="45.82265916464727" lon="14.12333688355229"><ele>635.0</ele><time>2026-05-01T15:37:24Z</time></trkpt><trkpt lat="45.82273684834404" lon="14.123460077499828"><ele>635.0</ele><time>2026-05-01T15:37:24.999Z</time></trkpt><trkpt lat="45.82279977614464" lon="14.123601295970554"><ele>634.25</ele><time>2026-05-01T15:37:25.999Z</time></trkpt><trkpt lat="45.822854740242484" lon="14.123750683353263"><ele>633.5</ele><time>2026-05-01T15:37:26.999Z</time></trkpt><trkpt lat="45.82288524753957" lon="14.123920371483722"><ele>632.75</ele><time>2026-05-01T15:37:27.999Z</time></trkpt><trkpt lat="45.822906046331894" lon="14.124095467279583"><ele>632.0</ele><time>2026-05-01T15:37:28.999Z</time></trkpt><trkpt lat="45.82292054168305" lon="14.124265080746273"><ele>630.4</ele><time>2026-05-01T15:37:29.999Z</time></trkpt><trkpt lat="45.822935788192936" lon="14.124429613768859"><ele>628.8000000000001</ele><time>2026-05-01T15:37:30.999Z</time></trkpt><trkpt lat="45.822951224646665" lon="14.12459037451785"><ele>627.2</ele><time>2026-05-01T15:37:31.999Z</time></trkpt><trkpt lat="45.82297253250801" lon="14.124737400371535"><ele>625.6</ele><time>2026-05-01T15:37:32.999Z</time></trkpt><trkpt lat="45.82298783548165" lon="14.124887140243525"><ele>624.0</ele><time>2026-05-01T15:37:33.999Z</time></trkpt><trkpt lat="45.823000174671364" lon="14.125045136912902"><ele>623.0</ele><time>2026-05-01T15:37:34.999Z</time></trkpt><trkpt lat="45.82300323817909" lon="14.125203734294264"><ele>622.0</ele><time>2026-05-01T15:37:35.999Z</time></trkpt><trkpt lat="45.82299658116619" lon="14.125362031720304"><ele>621.0</ele><time>2026-05-01T15:37:36.999Z</time></trkpt><trkpt lat="45.82298710893737" lon="14.125514126506493"><ele>620.0</ele><time>2026-05-01T15:37:37.999Z</time></trkpt><trkpt lat="45.82297833701938" lon="14.125654478078266"><ele>619.0</ele><time>2026-05-01T15:37:38.999Z</time></trkpt><trkpt lat="45.82297190119546" lon="14.125789868912745"><ele>618.4</ele><time>2026-05-01T15:37:39.999Z</time></trkpt><trkpt lat="45.82297119960157" lon="14.125920617248832"><ele>617.8</ele><time>2026-05-01T15:37:40.999Z</time></trkpt><trkpt lat="45.8229692302457" lon="14.12605168455338"><ele>617.2</ele><time>2026-05-01T15:37:41.999Z</time></trkpt><trkpt lat="45.822962089487255" lon="14.126182075083516"><ele>616.6</ele><time>2026-05-01T15:37:42.999Z</time></trkpt><trkpt lat="45.8229463378592" lon="14.12631096253152"><ele>616.0</ele><time>2026-05-01T15:37:43.999Z</time></trkpt><trkpt lat="45.822916979020555" lon="14.126454024896164"><ele>615.25</ele><time>2026-05-01T15:37:44.999Z</time></trkpt><trkpt lat="45.822875659188306" lon="14.126598291378544"><ele>614.5</ele><time>2026-05-01T15:37:45.999Z</time></trkpt><trkpt lat="45.82283242623579" lon="14.126748906856406"><ele>613.75</ele><time>2026-05-01T15:37:46.999Z</time></trkpt><trkpt lat="45.82279166723682" lon="14.126906900324464"><ele>613.0</ele><time>2026-05-01T15:37:47.999Z</time></trkpt><trkpt lat="45.82275878463389" lon="14.127073152577083"><ele>613.0</ele><time>2026-05-01T15:37:48.999Z</time></trkpt><trkpt lat="45.82273625329826" lon="14.127244852985395"><ele>613.0</ele><time>2026-05-01T15:37:49.999Z</time></trkpt><trkpt lat="45.82271960975655" lon="14.127419163056874"><ele>613.0</ele><time>2026-05-01T15:37:50.999Z</time></trkpt><trkpt lat="45.82271577506916" lon="14.127582166600178"><ele>613.0</ele><time>2026-05-01T15:37:51.999Z</time></trkpt><trkpt lat="45.82272873773909" lon="14.127730646205922"><ele>612.6</ele><time>2026-05-01T15:37:52.999Z</time></trkpt><trkpt lat="45.82275006514006" lon="14.127880240333072"><ele>612.1999999999999</ele><time>2026-05-01T15:37:53.999Z</time></trkpt><trkpt lat="45.82278342108409" lon="14.128030884464113"><ele>611.8</ele><time>2026-05-01T15:37:54.999Z</time></trkpt><trkpt lat="45.82282237144573" lon="14.128171525703713"><ele>611.4</ele><time>2026-05-01T15:37:55.999Z</time></trkpt><trkpt lat="45.82285987017951" lon="14.128305503724816"><ele>611.0</ele><time>2026-05-01T15:37:56.999Z</time></trkpt><trkpt lat="45.82288563357666" lon="14.128441781994859"><ele>611.0</ele><time>2026-05-01T15:37:57.999Z</time></trkpt><trkpt lat="45.82290454407076" lon="14.128590278724914"><ele>611.0</ele><time>2026-05-01T15:37:58.999Z</time></trkpt><trkpt lat="45.82292144610529" lon="14.128738601452966"><ele>611.0</ele><time>2026-05-01T15:37:59.999Z</time></trkpt><trkpt lat="45.822944820728054" lon="14.128890976856743"><ele>611.0</ele><time>2026-05-01T15:38:00.999Z</time></trkpt><trkpt lat="45.82297390708697" lon="14.129040934846909"><ele>611.0</ele><time>2026-05-01T15:38:01.999Z</time></trkpt><trkpt lat="45.82298439426263" lon="14.12920159501974"><ele>609.8</ele><time>2026-05-01T15:38:02.999Z</time></trkpt><trkpt lat="45.823035032993694" lon="14.12934488476768"><ele>608.6</ele><time>2026-05-01T15:38:03.999Z</time></trkpt><trkpt lat="45.82308232719094" lon="14.129490500025806"><ele>607.4</ele><time>2026-05-01T15:38:04.999Z</time></trkpt><trkpt lat="45.82313730695029" lon="14.129629240375737"><ele>606.2</ele><time>2026-05-01T15:38:05.999Z</time></trkpt><trkpt lat="45.82319658999657" lon="14.129769077963575"><ele>605.0</ele><time>2026-05-01T15:38:06.999Z</time></trkpt><trkpt lat="45.82325938606648" lon="14.129905355620352"><ele>604.0</ele><time>2026-05-01T15:38:07.999Z</time></trkpt><trkpt lat="45.8233151842281" lon="14.130050723115993"><ele>603.0</ele><time>2026-05-01T15:38:09Z</time></trkpt><trkpt lat="45.82337554740896" lon="14.130201595994476"><ele>602.0</ele><time>2026-05-01T15:38:10Z</time></trkpt><trkpt lat="45.823426181024836" lon="14.130349661714478"><ele>601.0</ele><time>2026-05-01T15:38:11Z</time></trkpt><trkpt lat="45.82346474487206" lon="14.130505617928586"><ele>599.75</ele><time>2026-05-01T15:38:12Z</time></trkpt><trkpt lat="45.8234852445768" lon="14.130666130265565"><ele>598.5</ele><time>2026-05-01T15:38:13Z</time></trkpt><trkpt lat="45.82346739029007" lon="14.130831492571149"><ele>597.25</ele><time>2026-05-01T15:38:14Z</time></trkpt><trkpt lat="45.82346166714709" lon="14.130994999083352"><ele>596.0</ele><time>2026-05-01T15:38:15Z</time></trkpt><trkpt lat="45.82342118640404" lon="14.131162558418463"><ele>596.0</ele><time>2026-05-01T15:38:16Z</time></trkpt><trkpt lat="45.8233693346878" lon="14.131328845582296"><ele>596.0</ele><time>2026-05-01T15:38:17Z</time></trkpt><trkpt lat="45.82330726184676" lon="14.131499728801112"><ele>596.0</ele><time>2026-05-01T15:38:18Z</time></trkpt><trkpt lat="45.82324638068899" lon="14.13166580539592"><ele>596.0</ele><time>2026-05-01T15:38:19Z</time></trkpt><trkpt lat="45.82318977999786" lon="14.131834441329696"><ele>594.75</ele><time>2026-05-01T15:38:20Z</time></trkpt><trkpt lat="45.82313580797495" lon="14.132000799178778"><ele>593.5</ele><time>2026-05-01T15:38:21Z</time></trkpt><trkpt lat="45.82308702629175" lon="14.132162229071026"><ele>592.25</ele><time>2026-05-01T15:38:22Z</time></trkpt><trkpt lat="45.823030201531516" lon="14.132297487679732"><ele>591.0</ele><time>2026-05-01T15:38:23Z</time></trkpt><trkpt lat="45.82297567288099" lon="14.13242023041966"><ele>591.0</ele><time>2026-05-01T15:38:24Z</time></trkpt><trkpt lat="45.822926576467566" lon="14.132537331104091"><ele>591.0</ele><time>2026-05-01T15:38:25Z</time></trkpt><trkpt lat="45.822882882132724" lon="14.13267108607577"><ele>591.0</ele><time>2026-05-01T15:38:26Z</time></trkpt><trkpt lat="45.82284530261073" lon="14.13282011827451"><ele>591.0</ele><time>2026-05-01T15:38:26.999Z</time></trkpt><trkpt lat="45.82281103037866" lon="14.132974034972705"><ele>591.0</ele><time>2026-05-01T15:38:27.999Z</time></trkpt><trkpt lat="45.822782997940315" lon="14.133136634976262"><ele>590.75</ele><time>2026-05-01T15:38:28.999Z</time></trkpt><trkpt lat="45.82276174787161" lon="14.133305686984032"><ele>590.5</ele><time>2026-05-01T15:38:29.999Z</time></trkpt><trkpt lat="45.82274797218425" lon="14.133468908971635"><ele>590.25</ele><time>2026-05-01T15:38:30.999Z</time></trkpt><trkpt lat="45.82274177038329" lon="14.13363002919536"><ele>590.0</ele><time>2026-05-01T15:38:31.999Z</time></trkpt><trkpt lat="45.82273602168779" lon="14.133802023749633"><ele>590.0</ele><time>2026-05-01T15:38:32.999Z</time></trkpt><trkpt lat="45.82273554958962" lon="14.133978891867745"><ele>590.0</ele><time>2026-05-01T15:38:33.999Z</time></trkpt><trkpt lat="45.82273925750555" lon="14.134161333217968"><ele>590.0</ele><time>2026-05-01T15:38:34.999Z</time></trkpt><trkpt lat="45.82273921251972" lon="14.134343941034677"><ele>590.0</ele><time>2026-05-01T15:38:35.999Z</time></trkpt><trkpt lat="45.82272555753418" lon="14.134519711765408"><ele>590.25</ele><time>2026-05-01T15:38:36.999Z</time></trkpt><trkpt lat="45.82265960218546" lon="14.134660322366509"><ele>590.5</ele><time>2026-05-01T15:38:37.999Z</time></trkpt><trkpt lat="45.82260615968686" lon="14.134823751977889"><ele>590.75</ele><time>2026-05-01T15:38:38.999Z</time></trkpt><trkpt lat="45.82254376022753" lon="14.134975256002742"><ele>591.0</ele><time>2026-05-01T15:38:39.999Z</time></trkpt><trkpt lat="45.82249676201592" lon="14.135120200945485"><ele>592.75</ele><time>2026-05-01T15:38:40.999Z</time></trkpt><trkpt lat="45.822428450238995" lon="14.13525206611248"><ele>594.5</ele><time>2026-05-01T15:38:41.999Z</time></trkpt><trkpt lat="45.82235888130251" lon="14.135376351885418"><ele>596.25</ele><time>2026-05-01T15:38:42.999Z</time></trkpt><trkpt lat="45.82228004925481" lon="14.135494265334037"><ele>598.0</ele><time>2026-05-01T15:38:43.999Z</time></trkpt><trkpt lat="45.82221001197353" lon="14.135627083044419"><ele>597.0</ele><time>2026-05-01T15:38:44.999Z</time></trkpt><trkpt lat="45.82212764010801" lon="14.13573700986017"><ele>596.0</ele><time>2026-05-01T15:38:45.999Z</time></trkpt><trkpt lat="45.822042993794454" lon="14.135856079456618"><ele>595.0</ele><time>2026-05-01T15:38:46.999Z</time></trkpt><trkpt lat="45.82197133212804" lon="14.13599393779182"><ele>594.0</ele><time>2026-05-01T15:38:47.999Z</time></trkpt><trkpt lat="45.82190206937972" lon="14.136138850580757"><ele>594.0</ele><time>2026-05-01T15:38:48.999Z</time></trkpt><trkpt lat="45.82182299808891" lon="14.136280207482766"><ele>594.0</ele><time>2026-05-01T15:38:49.999Z</time></trkpt><trkpt lat="45.82177464910191" lon="14.136451783389852"><ele>594.0</ele><time>2026-05-01T15:38:50.999Z</time></trkpt><trkpt lat="45.82172137241585" lon="14.136605080662912"><ele>594.0</ele><time>2026-05-01T15:38:51.999Z</time></trkpt><trkpt lat="45.82168968140527" lon="14.136745247997224"><ele>593.6666666666666</ele><time>2026-05-01T15:38:52.999Z</time></trkpt><trkpt lat="45.8216640872062" lon="14.136869817486724"><ele>593.3333333333334</ele><time>2026-05-01T15:38:53.999Z</time></trkpt><trkpt lat="45.821634930158076" lon="14.13697890711124"><ele>593.0</ele><time>2026-05-01T15:38:54.999Z</time></trkpt><trkpt lat="45.82159613719651" lon="14.137086840941572"><ele>592.6666666666667</ele><time>2026-05-01T15:38:55.999Z</time></trkpt><trkpt lat="45.821559173763454" lon="14.13717972547623"><ele>592.3333333333334</ele><time>2026-05-01T15:38:56.999Z</time></trkpt><trkpt lat="45.8215191125417" lon="14.13732334025284"><ele>592.0</ele><time>2026-05-01T15:38:58.999Z</time></trkpt><trkpt lat="45.82149421655008" lon="14.137439808867411"><ele>592.0</ele><time>2026-05-01T15:39:00.999Z</time></trkpt><trkpt lat="45.82147128407425" lon="14.137537966987924"><ele>592.0</ele><time>2026-05-01T15:39:02.999Z</time></trkpt><trkpt lat="45.821391008532125" lon="14.137545328232662"><ele>592.0</ele><time>2026-05-01T15:39:04.998Z</time></trkpt><trkpt lat="45.82133019271352" lon="14.13742124808943"><ele>592.0</ele><time>2026-05-01T15:39:06.998Z</time></trkpt><trkpt lat="45.82128929536796" lon="14.137345245131323"><ele>592.0</ele><time>2026-05-01T15:39:07.998Z</time></trkpt><trkpt lat="45.821236962863566" lon="14.137255553398616"><ele>592.0</ele><time>2026-05-01T15:39:08.998Z</time></trkpt><trkpt lat="45.821167139039126" lon="14.137157533752342"><ele>592.0</ele><time>2026-05-01T15:39:09.998Z</time></trkpt><trkpt lat="45.82108572653845" lon="14.137068845750711"><ele>592.0</ele><time>2026-05-01T15:39:10.998Z</time></trkpt><trkpt lat="45.820984455685036" lon="14.1369944995321"><ele>592.0</ele><time>2026-05-01T15:39:11.998Z</time></trkpt><trkpt lat="45.82086936479523" lon="14.136943654253983"><ele>592.0</ele><time>2026-05-01T15:39:12.998Z</time></trkpt><trkpt lat="45.82076446054378" lon="14.136898028867924"><ele>592.0</ele><time>2026-05-01T15:39:13.998Z</time></trkpt><trkpt lat="45.82066504789642" lon="14.136853747713696"><ele>591.4</ele><time>2026-05-01T15:39:14.998Z</time></trkpt><trkpt lat="45.82055886310068" lon="14.136808859659094"><ele>590.8000000000001</ele><time>2026-05-01T15:39:15.998Z</time></trkpt><trkpt lat="45.8204468985104" lon="14.136768323173975"><ele>590.2</ele><time>2026-05-01T15:39:16.998Z</time></trkpt><trkpt lat="45.82033687852633" lon="14.136734093858472"><ele>589.6</ele><time>2026-05-01T15:39:17.998Z</time></trkpt><trkpt lat="45.82022990038662" lon="14.136700407217514"><ele>589.0</ele><time>2026-05-01T15:39:18.998Z</time></trkpt><trkpt lat="45.82012603225421" lon="14.13666382794468"><ele>586.75</ele><time>2026-05-01T15:39:19.998Z</time></trkpt><trkpt lat="45.82002133202267" lon="14.136630341115927"><ele>584.5</ele><time>2026-05-01T15:39:20.998Z</time></trkpt><trkpt lat="45.81991493504006" lon="14.136590126768667"><ele>582.25</ele><time>2026-05-01T15:39:21.998Z</time></trkpt><trkpt lat="45.81978861904154" lon="14.13660206245407"><ele>580.0</ele><time>2026-05-01T15:39:22.998Z</time></trkpt><trkpt lat="45.819655156274045" lon="14.136592549844556"><ele>580.0</ele><time>2026-05-01T15:39:23.998Z</time></trkpt><trkpt lat="45.81952216334068" lon="14.13658640612213"><ele>580.0</ele><time>2026-05-01T15:39:24.998Z</time></trkpt><trkpt lat="45.819390795791854" lon="14.136582548388397"><ele>580.0</ele><time>2026-05-01T15:39:25.998Z</time></trkpt><trkpt lat="45.81926520848088" lon="14.13658766345696"><ele>580.0</ele><time>2026-05-01T15:39:26.998Z</time></trkpt><trkpt lat="45.819140380146465" lon="14.136594627785938"><ele>577.8</ele><time>2026-05-01T15:39:27.998Z</time></trkpt><trkpt lat="45.81902220983494" lon="14.136613959719343"><ele>575.6</ele><time>2026-05-01T15:39:28.998Z</time></trkpt><trkpt lat="45.8189084262235" lon="14.136630656269046"><ele>573.4</ele><time>2026-05-01T15:39:29.998Z</time></trkpt><trkpt lat="45.818800710758346" lon="14.136640652254318"><ele>571.2</ele><time>2026-05-01T15:39:30.998Z</time></trkpt><trkpt lat="45.81869960914664" lon="14.136650632960801"><ele>569.0</ele><time>2026-05-01T15:39:31.998Z</time></trkpt><trkpt lat="45.81859959166445" lon="14.13666010113946"><ele>569.0</ele><time>2026-05-01T15:39:32.998Z</time></trkpt><trkpt lat="45.81850731117256" lon="14.136629780530857"><ele>569.0</ele><time>2026-05-01T15:39:33.998Z</time></trkpt><trkpt lat="45.81843032183643" lon="14.136559213143684"><ele>569.0</ele><time>2026-05-01T15:39:34.998Z</time></trkpt><trkpt lat="45.81839323291767" lon="14.136412209043572"><ele>569.0</ele><time>2026-05-01T15:39:35.998Z</time></trkpt><trkpt lat="45.81833291721512" lon="14.136266046950189"><ele>569.0</ele><time>2026-05-01T15:39:36.998Z</time></trkpt><trkpt lat="45.81827638819054" lon="14.136096524563222"><ele>570.0</ele><time>2026-05-01T15:39:37.998Z</time></trkpt><trkpt lat="45.81820003225038" lon="14.135944522907542"><ele>571.0</ele><time>2026-05-01T15:39:38.998Z</time></trkpt><trkpt lat="45.8181174231177" lon="14.135812921506773"><ele>572.0</ele><time>2026-05-01T15:39:39.998Z</time></trkpt><trkpt lat="45.81802436906512" lon="14.135699773867968"><ele>573.0</ele><time>2026-05-01T15:39:40.998Z</time></trkpt><trkpt lat="45.8179197188488" lon="14.135590182289915"><ele>571.75</ele><time>2026-05-01T15:39:41.998Z</time></trkpt><trkpt lat="45.817811117158215" lon="14.135483046448838"><ele>570.5</ele><time>2026-05-01T15:39:42.998Z</time></trkpt><trkpt lat="45.8176975365325" lon="14.135375393121906"><ele>569.25</ele><time>2026-05-01T15:39:43.998Z</time></trkpt><trkpt lat="45.81758516763406" lon="14.13527969927456"><ele>568.0</ele><time>2026-05-01T15:39:44.998Z</time></trkpt><trkpt lat="45.81747638219873" lon="14.135188868811595"><ele>568.0</ele><time>2026-05-01T15:39:45.998Z</time></trkpt><trkpt lat="45.81737270361618" lon="14.135102441969737"><ele>568.0</ele><time>2026-05-01T15:39:46.998Z</time></trkpt><trkpt lat="45.81727682830853" lon="14.135005540168645"><ele>568.0</ele><time>2026-05-01T15:39:47.998Z</time></trkpt><trkpt lat="45.81716154239136" lon="14.134987328418543"><ele>568.0</ele><time>2026-05-01T15:39:48.998Z</time></trkpt><trkpt lat="45.81705067208575" lon="14.13497536511039"><ele>568.0</ele><time>2026-05-01T15:39:49.998Z</time></trkpt><trkpt lat="45.8169429785261" lon="14.134984766065411"><ele>568.0</ele><time>2026-05-01T15:39:50.998Z</time></trkpt><trkpt lat="45.816833325245696" lon="14.134999813638576"><ele>568.0</ele><time>2026-05-01T15:39:51.998Z</time></trkpt><trkpt lat="45.816723273890545" lon="14.135002393801518"><ele>568.0</ele><time>2026-05-01T15:39:52.998Z</time></trkpt><trkpt lat="45.81660952493786" lon="14.13499609375598"><ele>568.0</ele><time>2026-05-01T15:39:53.998Z</time></trkpt><trkpt lat="45.816493580738545" lon="14.134983362635362"><ele>564.75</ele><time>2026-05-01T15:39:54.998Z</time></trkpt><trkpt lat="45.81637387318046" lon="14.134964806172032"><ele>561.5</ele><time>2026-05-01T15:39:55.998Z</time></trkpt><trkpt lat="45.81625483721538" lon="14.134948279466824"><ele>558.25</ele><time>2026-05-01T15:39:56.998Z</time></trkpt><trkpt lat="45.816139809124046" lon="14.134927220955547"><ele>555.0</ele><time>2026-05-01T15:39:57.998Z</time></trkpt><trkpt lat="45.81603344890689" lon="14.134888677774088"><ele>553.4</ele><time>2026-05-01T15:39:58.998Z</time></trkpt><trkpt lat="45.815944634526666" lon="14.134819038830315"><ele>551.8</ele><time>2026-05-01T15:39:59.998Z</time></trkpt><trkpt lat="45.81587905122829" lon="14.134713900787775"><ele>550.2</ele><time>2026-05-01T15:40:00.998Z</time></trkpt><trkpt lat="45.81584293932564" lon="14.134581485128708"><ele>548.6</ele><time>2026-05-01T15:40:01.998Z</time></trkpt><trkpt lat="45.815830949584935" lon="14.134437474107322"><ele>547.0</ele><time>2026-05-01T15:40:02.998Z</time></trkpt><trkpt lat="45.81584919800586" lon="14.134291898063367"><ele>547.0</ele><time>2026-05-01T15:40:03.998Z</time></trkpt><trkpt lat="45.815843619400695" lon="14.134143772808516"><ele>547.0</ele><time>2026-05-01T15:40:04.998Z</time></trkpt><trkpt lat="45.81584381282417" lon="14.134005094170577"><ele>547.0</ele><time>2026-05-01T15:40:05.998Z</time></trkpt><trkpt lat="45.81582230930088" lon="14.13386945165777"><ele>547.0</ele><time>2026-05-01T15:40:06.998Z</time></trkpt><trkpt lat="45.8157889149679" lon="14.133737860505933"><ele>547.0</ele><time>2026-05-01T15:40:07.998Z</time></trkpt><trkpt lat="45.81574346558262" lon="14.133605069871304"><ele>547.5</ele><time>2026-05-01T15:40:08.998Z</time></trkpt><trkpt lat="45.81568471921738" lon="14.133473921574895"><ele>548.0</ele><time>2026-05-01T15:40:09.998Z</time></trkpt><trkpt lat="45.815618207299956" lon="14.133344688334073"><ele>548.5</ele><time>2026-05-01T15:40:10.998Z</time></trkpt><trkpt lat="45.81554145360112" lon="14.133215069185095"><ele>549.0</ele><time>2026-05-01T15:40:11.998Z</time></trkpt><trkpt lat="45.81545199326506" lon="14.133093159082785"><ele>550.75</ele><time>2026-05-01T15:40:12.998Z</time></trkpt><trkpt lat="45.81535665229762" lon="14.132973358977365"><ele>552.5</ele><time>2026-05-01T15:40:13.999Z</time></trkpt><trkpt lat="45.8152582715251" lon="14.13284803331451"><ele>554.25</ele><time>2026-05-01T15:40:14.999Z</time></trkpt><trkpt lat="45.81516273979097" lon="14.132721737682276"><ele>556.0</ele><time>2026-05-01T15:40:15.999Z</time></trkpt><trkpt lat="45.815070349397594" lon="14.132592795435775"><ele>551.5</ele><time>2026-05-01T15:40:16.999Z</time></trkpt><trkpt lat="45.81499001034212" lon="14.132445286213644"><ele>547.0</ele><time>2026-05-01T15:40:17.999Z</time></trkpt><trkpt lat="45.8149339935237" lon="14.132280593802047"><ele>542.5</ele><time>2026-05-01T15:40:18.999Z</time></trkpt><trkpt lat="45.81494062564731" lon="14.13210057141954"><ele>538.0</ele><time>2026-05-01T15:40:19.999Z</time></trkpt><trkpt lat="45.814916568258376" lon="14.131932150138999"><ele>538.0</ele><time>2026-05-01T15:40:20.999Z</time></trkpt><trkpt lat="45.81488170974199" lon="14.131775530377373"><ele>538.0</ele><time>2026-05-01T15:40:21.999Z</time></trkpt><trkpt lat="45.81484359396227" lon="14.131619739649919"><ele>538.0</ele><time>2026-05-01T15:40:22.999Z</time></trkpt><trkpt lat="45.81477388954444" lon="14.131490345999499"><ele>538.0</ele><time>2026-05-01T15:40:23.999Z</time></trkpt><trkpt lat="45.8146919011724" lon="14.131377797193606"><ele>539.8</ele><time>2026-05-01T15:40:24.999Z</time></trkpt><trkpt lat="45.814604634559174" lon="14.131288933600098"><ele>541.5999999999999</ele><time>2026-05-01T15:40:25.999Z</time></trkpt><trkpt lat="45.81450794915526" lon="14.131208503024245"><ele>543.4000000000001</ele><time>2026-05-01T15:40:26.999Z</time></trkpt><trkpt lat="45.814410338716726" lon="14.131129670407876"><ele>545.2</ele><time>2026-05-01T15:40:27.999Z</time></trkpt><trkpt lat="45.81432049879399" lon="14.131055169303282"><ele>547.0</ele><time>2026-05-01T15:40:28.999Z</time></trkpt><trkpt lat="45.814234902084934" lon="14.130980323647746"><ele>541.75</ele><time>2026-05-01T15:40:29.999Z</time></trkpt><trkpt lat="45.814076331862324" lon="14.130859134121126"><ele>536.5</ele><time>2026-05-01T15:40:30.999Z</time></trkpt><trkpt lat="45.813971781230265" lon="14.130773098009227"><ele>531.25</ele><time>2026-05-01T15:40:31.999Z</time></trkpt><trkpt lat="45.81388723968118" lon="14.130658596344794"><ele>526.0</ele><time>2026-05-01T15:40:32.999Z</time></trkpt><trkpt lat="45.81380713598469" lon="14.130530725601146"><ele>526.0</ele><time>2026-05-01T15:40:33.999Z</time></trkpt><trkpt lat="45.81374963195861" lon="14.130391174462469"><ele>526.0</ele><time>2026-05-01T15:40:34.999Z</time></trkpt><trkpt lat="45.81371949182118" lon="14.130250199042605"><ele>526.0</ele><time>2026-05-01T15:40:35.999Z</time></trkpt><trkpt lat="45.81375568934936" lon="14.130125603855394"><ele>526.0</ele><time>2026-05-01T15:40:36.999Z</time></trkpt><trkpt lat="45.8137868054764" lon="14.129979755558189"><ele>526.0</ele><time>2026-05-01T15:40:37.999Z</time></trkpt><trkpt lat="45.813819613442895" lon="14.129827271760632"><ele>524.0</ele><time>2026-05-01T15:40:38.999Z</time></trkpt><trkpt lat="45.81393912331787" lon="14.129599435028174"><ele>522.0</ele><time>2026-05-01T15:40:40.999Z</time></trkpt><trkpt lat="45.813974044484326" lon="14.129462528695239"><ele>520.0</ele><time>2026-05-01T15:40:41.999Z</time></trkpt><trkpt lat="45.814020742258194" lon="14.129334111245255"><ele>518.0</ele><time>2026-05-01T15:40:42.999Z</time></trkpt><trkpt lat="45.81404840381473" lon="14.12919379850455"><ele>515.6</ele><time>2026-05-01T15:40:43.999Z</time></trkpt><trkpt lat="45.81405547571849" lon="14.129044399176996"><ele>513.1999999999999</ele><time>2026-05-01T15:40:45Z</time></trkpt><trkpt lat="45.814047143593235" lon="14.128909386218286"><ele>510.8</ele><time>2026-05-01T15:40:46Z</time></trkpt><trkpt lat="45.8140540376707" lon="14.128787705141507"><ele>508.4</ele><time>2026-05-01T15:40:47Z</time></trkpt><trkpt lat="45.81407457069479" lon="14.12866960052969"><ele>506.0</ele><time>2026-05-01T15:40:48Z</time></trkpt><trkpt lat="45.81410568929776" lon="14.128549118911184"><ele>505.99999999999994</ele><time>2026-05-01T15:40:49Z</time></trkpt><trkpt lat="45.81417095396556" lon="14.128458686564494"><ele>506.0</ele><time>2026-05-01T15:40:50Z</time></trkpt><trkpt lat="45.814255941086735" lon="14.128416081878559"><ele>506.0</ele><time>2026-05-01T15:40:51Z</time></trkpt><trkpt lat="45.81431730698771" lon="14.128347807679113"><ele>506.0</ele><time>2026-05-01T15:40:52Z</time></trkpt><trkpt lat="45.81437788303643" lon="14.12830205644504"><ele>505.99999999999994</ele><time>2026-05-01T15:40:53Z</time></trkpt><trkpt lat="45.814459931835664" lon="14.128274489671295"><ele>506.0</ele><time>2026-05-01T15:40:55Z</time></trkpt><trkpt lat="45.814535644598536" lon="14.1282174628386"><ele>506.1428571428572</ele><time>2026-05-01T15:40:59Z</time></trkpt><trkpt lat="45.814594983182374" lon="14.128167863803162"><ele>506.28571428571433</ele><time>2026-05-01T15:41:03Z</time></trkpt><trkpt lat="45.81465389738524" lon="14.128133204484946"><ele>506.42857142857144</ele><time>2026-05-01T15:41:06Z</time></trkpt><trkpt lat="45.814713207535654" lon="14.12810081606061"><ele>506.5714285714286</ele><time>2026-05-01T15:41:09Z</time></trkpt><trkpt lat="45.814783217183724" lon="14.128098013978132"><ele>506.7142857142858</ele><time>2026-05-01T15:41:13.999Z</time></trkpt><trkpt lat="45.814846424277846" lon="14.128117806834538"><ele>506.85714285714283</ele><time>2026-05-01T15:42:17.999Z</time></trkpt><trkpt lat="45.81490951830128" lon="14.128104152539462"><ele>507.0</ele><time>2026-05-01T15:42:25Z</time></trkpt><trkpt lat="45.81497334468675" lon="14.128108771797592"><ele>507.0</ele><time>2026-05-01T15:42:35Z</time></trkpt><trkpt lat="45.81504188542291" lon="14.128091670568784"><ele>507.0</ele><time>2026-05-01T15:42:42Z</time></trkpt><trkpt lat="45.81510834865491" lon="14.128055010473552"><ele>507.0</ele><time>2026-05-01T15:42:51Z</time></trkpt><trkpt lat="45.81516806286325" lon="14.128011011247317"><ele>507.0</ele><time>2026-05-01T15:42:59Z</time></trkpt><trkpt lat="45.81523240782211" lon="14.127981518010236"><ele>507.0</ele><time>2026-05-01T15:44:27Z</time></trkpt><trkpt lat="45.815288484580975" lon="14.127920092198094"><ele>507.0</ele><time>2026-05-01T15:44:33Z</time></trkpt><trkpt lat="45.81491601253206" lon="14.128026688262796"><ele>507.0</ele><time>2026-05-01T15:53:19.007Z</time></trkpt><trkpt lat="45.81486264287086" lon="14.128091538490908"><ele>507.0</ele><time>2026-05-01T15:53:20.007Z</time></trkpt><trkpt lat="45.814800606539094" lon="14.12817461924104"><ele>507.0</ele><time>2026-05-01T15:53:22Z</time></trkpt><trkpt lat="45.8147297558886" lon="14.128130712407662"><ele>507.0</ele><time>2026-05-01T15:55:28Z</time></trkpt><trkpt lat="45.81464795604532" lon="14.128078092751476"><ele>507.0</ele><time>2026-05-01T15:55:30Z</time></trkpt><trkpt lat="45.814547497730935" lon="14.128142749798752"><ele>507.0</ele><time>2026-05-01T15:55:32Z</time></trkpt><trkpt lat="45.81449366365979" lon="14.128190114369012"><ele>506.8</ele><time>2026-05-01T15:55:33Z</time></trkpt><trkpt lat="45.814386722303226" lon="14.128273386417067"><ele>506.6</ele><time>2026-05-01T15:55:35Z</time></trkpt><trkpt lat="45.81426329386359" lon="14.128339483942502"><ele>506.40000000000003</ele><time>2026-05-01T15:55:37Z</time></trkpt><trkpt lat="45.8141956206076" lon="14.12839365801528"><ele>506.20000000000005</ele><time>2026-05-01T15:55:38Z</time></trkpt><trkpt lat="45.81413983120593" lon="14.128458616473573"><ele>506.0</ele><time>2026-05-01T15:55:39Z</time></trkpt><trkpt lat="45.814082632459765" lon="14.128529840429337"><ele>505.99999999999994</ele><time>2026-05-01T15:55:40Z</time></trkpt><trkpt lat="45.814045917555376" lon="14.128630484175831"><ele>506.0</ele><time>2026-05-01T15:55:41Z</time></trkpt><trkpt lat="45.814018625329744" lon="14.128731905467351"><ele>506.0</ele><time>2026-05-01T15:55:42Z</time></trkpt><trkpt lat="45.814025105576555" lon="14.128843555091205"><ele>506.0</ele><time>2026-05-01T15:55:43Z</time></trkpt><trkpt lat="45.81402074363942" lon="14.128945693082583"><ele>505.99999999999994</ele><time>2026-05-01T15:55:44Z</time></trkpt><trkpt lat="45.814025041589765" lon="14.129085753742688"><ele>506.0</ele><time>2026-05-01T15:55:45Z</time></trkpt><trkpt lat="45.814034811818665" lon="14.129230586811993"><ele>509.0</ele><time>2026-05-01T15:55:46Z</time></trkpt><trkpt lat="45.81401896405256" lon="14.12942141681124"><ele>512.0</ele><time>2026-05-01T15:55:47Z</time></trkpt><trkpt lat="45.813918041461534" lon="14.129567883158474"><ele>515.0</ele><time>2026-05-01T15:55:48Z</time></trkpt><trkpt lat="45.81384512618601" lon="14.129700796495072"><ele>518.0</ele><time>2026-05-01T15:55:49Z</time></trkpt><trkpt lat="45.8137924958991" lon="14.129865590951077"><ele>520.0</ele><time>2026-05-01T15:55:50Z</time></trkpt><trkpt lat="45.81373835420839" lon="14.130031320476004"><ele>522.0</ele><time>2026-05-01T15:55:51Z</time></trkpt><trkpt lat="45.813721137882474" lon="14.13020631444507"><ele>524.0</ele><time>2026-05-01T15:55:52Z</time></trkpt><trkpt lat="45.813724533556815" lon="14.130364242039413"><ele>526.0</ele><time>2026-05-01T15:55:53Z</time></trkpt><trkpt lat="45.81376110961929" lon="14.13052008931052"><ele>526.0</ele><time>2026-05-01T15:55:54Z</time></trkpt><trkpt lat="45.81384653551896" lon="14.130673087740236"><ele>526.0</ele><time>2026-05-01T15:55:55Z</time></trkpt><trkpt lat="45.81397029096199" lon="14.130817405018984"><ele>526.0</ele><time>2026-05-01T15:55:56Z</time></trkpt><trkpt lat="45.81412066641938" lon="14.130939166243314"><ele>525.0</ele><time>2026-05-01T15:55:57Z</time></trkpt><trkpt lat="45.81425885915299" lon="14.131031493465565"><ele>524.0</ele><time>2026-05-01T15:55:58Z</time></trkpt><trkpt lat="45.814359641436944" lon="14.131143394416123"><ele>523.0</ele><time>2026-05-01T15:55:59Z</time></trkpt><trkpt lat="45.8144654676658" lon="14.131228861851493"><ele>522.0</ele><time>2026-05-01T15:56:00Z</time></trkpt><trkpt lat="45.81456938964512" lon="14.131315220992036"><ele>526.0</ele><time>2026-05-01T15:56:01Z</time></trkpt><trkpt lat="45.81466445597982" lon="14.131406351957942"><ele>530.0</ele><time>2026-05-01T15:56:02Z</time></trkpt><trkpt lat="45.81474226900556" lon="14.131516071134108"><ele>534.0</ele><time>2026-05-01T15:56:03Z</time></trkpt><trkpt lat="45.81481777487877" lon="14.131651052241851"><ele>538.0</ele><time>2026-05-01T15:56:04Z</time></trkpt><trkpt lat="45.81488470169203" lon="14.131807008990029"><ele>538.0</ele><time>2026-05-01T15:56:05Z</time></trkpt><trkpt lat="45.814900643662064" lon="14.131994209655609"><ele>538.0</ele><time>2026-05-01T15:56:06Z</time></trkpt><trkpt lat="45.81490406624728" lon="14.132152128952965"><ele>538.0</ele><time>2026-05-01T15:56:07Z</time></trkpt><trkpt lat="45.814920489114094" lon="14.132287554639264"><ele>538.0</ele><time>2026-05-01T15:56:08Z</time></trkpt><trkpt lat="45.81496165998727" lon="14.13240301422959"><ele>538.0</ele><time>2026-05-01T15:56:09Z</time></trkpt><trkpt lat="45.81500677774932" lon="14.132519464655129"><ele>536.25</ele><time>2026-05-01T15:56:10Z</time></trkpt><trkpt lat="45.81508206741166" lon="14.132637647450741"><ele>534.5</ele><time>2026-05-01T15:56:11Z</time></trkpt><trkpt lat="45.815179529370134" lon="14.132791610166066"><ele>532.75</ele><time>2026-05-01T15:56:12Z</time></trkpt><trkpt lat="45.815308264409644" lon="14.132954334216166"><ele>531.0</ele><time>2026-05-01T15:56:13Z</time></trkpt><trkpt lat="45.81545204217932" lon="14.133134542160859"><ele>537.0</ele><time>2026-05-01T15:56:14Z</time></trkpt><trkpt lat="45.81559678172201" lon="14.133302667807774"><ele>543.0</ele><time>2026-05-01T15:56:15Z</time></trkpt><trkpt lat="45.81568153477611" lon="14.133492619777806"><ele>549.0</ele><time>2026-05-01T15:56:16Z</time></trkpt><trkpt lat="45.81574715471384" lon="14.13367937472354"><ele>549.0</ele><time>2026-05-01T15:56:17Z</time></trkpt><trkpt lat="45.81579412306867" lon="14.133860550764668"><ele>549.0</ele><time>2026-05-01T15:56:18Z</time></trkpt><trkpt lat="45.81584146334898" lon="14.134028869912354"><ele>549.0</ele><time>2026-05-01T15:56:19Z</time></trkpt><trkpt lat="45.81581870824379" lon="14.134215634308664"><ele>549.0</ele><time>2026-05-01T15:56:20Z</time></trkpt><trkpt lat="45.81582726428916" lon="14.134387893228313"><ele>548.5</ele><time>2026-05-01T15:56:21Z</time></trkpt><trkpt lat="45.815809615405065" lon="14.134548615608976"><ele>548.0</ele><time>2026-05-01T15:56:22Z</time></trkpt><trkpt lat="45.815864965143916" lon="14.13469612517868"><ele>547.5</ele><time>2026-05-01T15:56:23Z</time></trkpt><trkpt lat="45.81591231996802" lon="14.134831684807725"><ele>547.0</ele><time>2026-05-01T15:56:24Z</time></trkpt><trkpt lat="45.81601549042694" lon="14.134901724702443"><ele>549.6666666666667</ele><time>2026-05-01T15:56:25Z</time></trkpt><trkpt lat="45.81613208674596" lon="14.134950839783183"><ele>552.3333333333334</ele><time>2026-05-01T15:56:26Z</time></trkpt><trkpt lat="45.81628693679689" lon="14.13498313637249"><ele>555.0</ele><time>2026-05-01T15:56:27Z</time></trkpt><trkpt lat="45.816463035375676" lon="14.134992758197209"><ele>555.0</ele><time>2026-05-01T15:56:28Z</time></trkpt><trkpt lat="45.81664894397985" lon="14.13500704944377"><ele>555.0</ele><time>2026-05-01T15:56:29Z</time></trkpt><trkpt lat="45.81682937681468" lon="14.135017370762363"><ele>555.0</ele><time>2026-05-01T15:56:30Z</time></trkpt><trkpt lat="45.81697604049309" lon="14.135004501966648"><ele>558.25</ele><time>2026-05-01T15:56:31Z</time></trkpt><trkpt lat="45.81710491746329" lon="14.134990152452794"><ele>561.5</ele><time>2026-05-01T15:56:32Z</time></trkpt><trkpt lat="45.81722044190189" lon="14.135002267964165"><ele>564.75</ele><time>2026-05-01T15:56:33Z</time></trkpt><trkpt lat="45.81732906189515" lon="14.135058214841548"><ele>568.0</ele><time>2026-05-01T15:56:34Z</time></trkpt><trkpt lat="45.81742001966229" lon="14.135178804438938"><ele>568.0</ele><time>2026-05-01T15:56:35Z</time></trkpt><trkpt lat="45.81753224956539" lon="14.135257050499348"><ele>568.0</ele><time>2026-05-01T15:56:36Z</time></trkpt><trkpt lat="45.81764365089282" lon="14.135348342033135"><ele>568.0</ele><time>2026-05-01T15:56:37Z</time></trkpt><trkpt lat="45.81775767133173" lon="14.135452340935823"><ele>568.0</ele><time>2026-05-01T15:56:38Z</time></trkpt><trkpt lat="45.81787358624813" lon="14.1355609929138"><ele>569.6666666666667</ele><time>2026-05-01T15:56:39Z</time></trkpt><trkpt lat="45.8179954908626" lon="14.13568227248026"><ele>571.3333333333334</ele><time>2026-05-01T15:56:40Z</time></trkpt><trkpt lat="45.81809220933999" lon="14.1358384215898"><ele>573.0</ele><time>2026-05-01T15:56:41Z</time></trkpt><trkpt lat="45.818200737444435" lon="14.136016610816027"><ele>573.0</ele><time>2026-05-01T15:56:42Z</time></trkpt><trkpt lat="45.81829870198103" lon="14.136223335534588"><ele>573.0</ele><time>2026-05-01T15:56:43Z</time></trkpt><trkpt lat="45.818361575668625" lon="14.136427481275211"><ele>573.0</ele><time>2026-05-01T15:56:44Z</time></trkpt><trkpt lat="45.818432158175966" lon="14.136584814054226"><ele>572.0</ele><time>2026-05-01T15:56:45Z</time></trkpt><trkpt lat="45.818487486213975" lon="14.13668377359912"><ele>571.0</ele><time>2026-05-01T15:56:46Z</time></trkpt><trkpt lat="45.81858590087231" lon="14.136722674952086"><ele>570.0</ele><time>2026-05-01T15:56:47Z</time></trkpt><trkpt lat="45.81871787375443" lon="14.136704645642507"><ele>569.0</ele><time>2026-05-01T15:56:48Z</time></trkpt><trkpt lat="45.818884185452895" lon="14.1366444858805"><ele>569.0</ele><time>2026-05-01T15:56:49Z</time></trkpt><trkpt lat="45.81907533235108" lon="14.136637561465292"><ele>569.0</ele><time>2026-05-01T15:56:50Z</time></trkpt><trkpt lat="45.81928681451678" lon="14.136600625469795"><ele>569.0</ele><time>2026-05-01T15:56:51Z</time></trkpt><trkpt lat="45.81951477351179" lon="14.136596910317076"><ele>572.6666666666666</ele><time>2026-05-01T15:56:52Z</time></trkpt><trkpt lat="45.819746072874615" lon="14.136631877596066"><ele>576.3333333333334</ele><time>2026-05-01T15:56:53Z</time></trkpt><trkpt lat="45.81995007047162" lon="14.136636542641542"><ele>580.0</ele><time>2026-05-01T15:56:54Z</time></trkpt><trkpt lat="45.8201197343346" lon="14.136698733475278"><ele>583.0</ele><time>2026-05-01T15:56:55Z</time></trkpt><trkpt lat="45.820274573959644" lon="14.136751044612616"><ele>586.0</ele><time>2026-05-01T15:56:56Z</time></trkpt><trkpt lat="45.82042483912854" lon="14.136800973293425"><ele>589.0</ele><time>2026-05-01T15:56:57Z</time></trkpt><trkpt lat="45.82056048187542" lon="14.136829584371368"><ele>589.0</ele><time>2026-05-01T15:56:58Z</time></trkpt><trkpt lat="45.82067837959419" lon="14.136874761156129"><ele>589.0</ele><time>2026-05-01T15:56:59Z</time></trkpt><trkpt lat="45.82078120115284" lon="14.13691779113024"><ele>589.0</ele><time>2026-05-01T15:57:00Z</time></trkpt><trkpt lat="45.820881496784665" lon="14.136965987911246"><ele>589.0</ele><time>2026-05-01T15:57:01Z</time></trkpt><trkpt lat="45.820987182512035" lon="14.137022935925247"><ele>589.0</ele><time>2026-05-01T15:57:02Z</time></trkpt><trkpt lat="45.82107604308393" lon="14.13711452091909"><ele>589.0</ele><time>2026-05-01T15:57:03Z</time></trkpt><trkpt lat="45.82115629080808" lon="14.13720264390639"><ele>589.0</ele><time>2026-05-01T15:57:04Z</time></trkpt><trkpt lat="45.821222077639256" lon="14.137302860747077"><ele>589.0</ele><time>2026-05-01T15:57:05Z</time></trkpt><trkpt lat="45.821280753310006" lon="14.137397962593539"><ele>589.0</ele><time>2026-05-01T15:57:06Z</time></trkpt><trkpt lat="45.821339007384324" lon="14.137462314417624"><ele>589.0</ele><time>2026-05-01T15:57:07Z</time></trkpt><trkpt lat="45.821394089845015" lon="14.137576722883281"><ele>589.0</ele><time>2026-05-01T15:57:09Z</time></trkpt><trkpt lat="45.82151132141842" lon="14.137474735036955"><ele>589.0</ele><time>2026-05-01T15:57:14Z</time></trkpt><trkpt lat="45.82153000829113" lon="14.137360201683705"><ele>589.0</ele><time>2026-05-01T15:57:15Z</time></trkpt><trkpt lat="45.8215507901323" lon="14.137251809785143"><ele>589.0</ele><time>2026-05-01T15:57:16Z</time></trkpt><trkpt lat="45.821584230060566" lon="14.13713975884279"><ele>589.0</ele><time>2026-05-01T15:57:17Z</time></trkpt><trkpt lat="45.821643617482515" lon="14.137020389176625"><ele>589.75</ele><time>2026-05-01T15:57:18Z</time></trkpt><trkpt lat="45.82169563239431" lon="14.136867990753265"><ele>590.5</ele><time>2026-05-01T15:57:19Z</time></trkpt><trkpt lat="45.82172602050957" lon="14.136689734536866"><ele>591.25</ele><time>2026-05-01T15:57:20Z</time></trkpt><trkpt lat="45.821767329055895" lon="14.13651480559588"><ele>592.0</ele><time>2026-05-01T15:57:21Z</time></trkpt><trkpt lat="45.821822814384284" lon="14.136334594054118"><ele>592.5</ele><time>2026-05-01T15:57:22Z</time></trkpt><trkpt lat="45.821911237514406" lon="14.136169356900158"><ele>593.0</ele><time>2026-05-01T15:57:23Z</time></trkpt><trkpt lat="45.82199982301203" lon="14.136004913683795"><ele>593.5</ele><time>2026-05-01T15:57:24Z</time></trkpt><trkpt lat="45.822081256236274" lon="14.135822344704065"><ele>594.0</ele><time>2026-05-01T15:57:25Z</time></trkpt><trkpt lat="45.82218046864611" lon="14.13567283455682"><ele>595.0</ele><time>2026-05-01T15:57:26Z</time></trkpt><trkpt lat="45.82228142505387" lon="14.135538424970918"><ele>596.0</ele><time>2026-05-01T15:57:26.999Z</time></trkpt><trkpt lat="45.8223739628034" lon="14.135402336220366"><ele>597.0</ele><time>2026-05-01T15:57:27.999Z</time></trkpt><trkpt lat="45.822460597350805" lon="14.135255439071559"><ele>598.0</ele><time>2026-05-01T15:57:28.999Z</time></trkpt><trkpt lat="45.82253648950835" lon="14.13509435969192"><ele>598.0</ele><time>2026-05-01T15:57:29.999Z</time></trkpt><trkpt lat="45.82259825563152" lon="14.13491867108601"><ele>598.0</ele><time>2026-05-01T15:57:30.999Z</time></trkpt><trkpt lat="45.8226525986133" lon="14.134737436437538"><ele>598.0</ele><time>2026-05-01T15:57:31.999Z</time></trkpt><trkpt lat="45.822710035179334" lon="14.13456528953365"><ele>598.0</ele><time>2026-05-01T15:57:32.999Z</time></trkpt><trkpt lat="45.82275701573396" lon="14.134408625286023"><ele>596.25</ele><time>2026-05-01T15:57:34Z</time></trkpt><trkpt lat="45.822773393517856" lon="14.1342389625531"><ele>594.5</ele><time>2026-05-01T15:57:35Z</time></trkpt><trkpt lat="45.822766013353196" lon="14.13405222333606"><ele>592.75</ele><time>2026-05-01T15:57:36Z</time></trkpt><trkpt lat="45.822754620917635" lon="14.133832430114058"><ele>591.0</ele><time>2026-05-01T15:57:37Z</time></trkpt><trkpt lat="45.82277121586332" lon="14.133577937046178"><ele>591.0</ele><time>2026-05-01T15:57:38Z</time></trkpt><trkpt lat="45.82279687656446" lon="14.133295452518862"><ele>591.0</ele><time>2026-05-01T15:57:39Z</time></trkpt><trkpt lat="45.822830882798044" lon="14.13303545792405"><ele>591.0</ele><time>2026-05-01T15:57:40Z</time></trkpt><trkpt lat="45.82287586288561" lon="14.132813481688283"><ele>591.0</ele><time>2026-05-01T15:57:41Z</time></trkpt><trkpt lat="45.82293096084626" lon="14.132611403090861"><ele>591.0</ele><time>2026-05-01T15:57:42Z</time></trkpt><trkpt lat="45.823013622872395" lon="14.13240930528714"><ele>591.0</ele><time>2026-05-01T15:57:43Z</time></trkpt><trkpt lat="45.82309666523198" lon="14.132156705361748"><ele>591.0</ele><time>2026-05-01T15:57:44Z</time></trkpt><trkpt lat="45.82319654538255" lon="14.131898719734954"><ele>591.0</ele><time>2026-05-01T15:57:45Z</time></trkpt><trkpt lat="45.82328654826507" lon="14.131646491561444"><ele>591.0</ele><time>2026-05-01T15:57:46Z</time></trkpt><trkpt lat="45.82335840829595" lon="14.131410951856148"><ele>592.0</ele><time>2026-05-01T15:57:47Z</time></trkpt><trkpt lat="45.8234224733134" lon="14.131201496716933"><ele>593.0</ele><time>2026-05-01T15:57:48Z</time></trkpt><trkpt lat="45.8234693041463" lon="14.131000594892274"><ele>594.0</ele><time>2026-05-01T15:57:49Z</time></trkpt><trkpt lat="45.823492290321425" lon="14.130790585197177"><ele>594.0</ele><time>2026-05-01T15:57:50Z</time></trkpt><trkpt lat="45.8234882482138" lon="14.130577544008382"><ele>594.0</ele><time>2026-05-01T15:57:51Z</time></trkpt><trkpt lat="45.823455453012" lon="14.13037740673746"><ele>594.0</ele><time>2026-05-01T15:57:52Z</time></trkpt><trkpt lat="45.82339534258915" lon="14.130179344081425"><ele>594.0</ele><time>2026-05-01T15:57:53Z</time></trkpt><trkpt lat="45.82331936549927" lon="14.129995806899878"><ele>597.6666666666666</ele><time>2026-05-01T15:57:54Z</time></trkpt><trkpt lat="45.82323551121848" lon="14.129805335233886"><ele>601.3333333333333</ele><time>2026-05-01T15:57:55Z</time></trkpt><trkpt lat="45.823144787341235" lon="14.129611786416978"><ele>605.0</ele><time>2026-05-01T15:57:56Z</time></trkpt><trkpt lat="45.82306918759847" lon="14.129406759148448"><ele>605.0</ele><time>2026-05-01T15:57:57Z</time></trkpt><trkpt lat="45.823001105813745" lon="14.129191951427252"><ele>605.0</ele><time>2026-05-01T15:57:58Z</time></trkpt><trkpt lat="45.82298070668815" lon="14.128961197808426"><ele>605.0</ele><time>2026-05-01T15:57:59Z</time></trkpt><trkpt lat="45.82295000123395" lon="14.128726749486617"><ele>607.0</ele><time>2026-05-01T15:58:00Z</time></trkpt><trkpt lat="45.82291030733133" lon="14.128519713995647"><ele>609.0</ele><time>2026-05-01T15:58:01Z</time></trkpt><trkpt lat="45.822867307841584" lon="14.128288989611232"><ele>611.0</ele><time>2026-05-01T15:58:02Z</time></trkpt><trkpt lat="45.82280835869989" lon="14.128044511139827"><ele>611.0</ele><time>2026-05-01T15:58:03Z</time></trkpt><trkpt lat="45.82275292081955" lon="14.12782887921455"><ele>611.0</ele><time>2026-05-01T15:58:04Z</time></trkpt><trkpt lat="45.82273813563176" lon="14.127599976696613"><ele>611.0</ele><time>2026-05-01T15:58:05Z</time></trkpt><trkpt lat="45.82274838165877" lon="14.12736606809439"><ele>611.6666666666666</ele><time>2026-05-01T15:58:06Z</time></trkpt><trkpt lat="45.822766412107235" lon="14.127111010169203"><ele>612.3333333333334</ele><time>2026-05-01T15:58:07Z</time></trkpt><trkpt lat="45.822818846070206" lon="14.126865005439319"><ele>613.0</ele><time>2026-05-01T15:58:08Z</time></trkpt><trkpt lat="45.822878918806545" lon="14.126619000906134"><ele>614.0</ele><time>2026-05-01T15:58:09Z</time></trkpt><trkpt lat="45.82294183870883" lon="14.126396752936541"><ele>615.0</ele><time>2026-05-01T15:58:10Z</time></trkpt><trkpt lat="45.82299309761904" lon="14.126176047918777"><ele>616.0</ele><time>2026-05-01T15:58:11Z</time></trkpt><trkpt lat="45.82300413367602" lon="14.125953795451197"><ele>616.0</ele><time>2026-05-01T15:58:12Z</time></trkpt><trkpt lat="45.82299514881446" lon="14.1257388988679"><ele>616.0</ele><time>2026-05-01T15:58:13Z</time></trkpt><trkpt lat="45.82299788111298" lon="14.12553255917965"><ele>616.0</ele><time>2026-05-01T15:58:14Z</time></trkpt><trkpt lat="45.82301460353945" lon="14.125319353655618"><ele>616.0</ele><time>2026-05-01T15:58:15Z</time></trkpt><trkpt lat="45.823015668608626" lon="14.125099086322468"><ele>618.6666666666667</ele><time>2026-05-01T15:58:16Z</time></trkpt><trkpt lat="45.823005132890586" lon="14.12487562695448"><ele>621.3333333333334</ele><time>2026-05-01T15:58:17Z</time></trkpt><trkpt lat="45.822989127177166" lon="14.124656802376487"><ele>624.0</ele><time>2026-05-01T15:58:18Z</time></trkpt><trkpt lat="45.82296545642958" lon="14.124457109205675"><ele>624.0</ele><time>2026-05-01T15:58:19Z</time></trkpt><trkpt lat="45.8229379611326" lon="14.12427662999438"><ele>624.0</ele><time>2026-05-01T15:58:20Z</time></trkpt><trkpt lat="45.822918145144584" lon="14.124093270385721"><ele>624.0</ele><time>2026-05-01T15:58:21Z</time></trkpt><trkpt lat="45.82289664820914" lon="14.12391023207208"><ele>624.0</ele><time>2026-05-01T15:58:22Z</time></trkpt><trkpt lat="45.822868966133825" lon="14.123736577550435"><ele>626.0</ele><time>2026-05-01T15:58:23Z</time></trkpt><trkpt lat="45.822816633514975" lon="14.123572023676227"><ele>628.0</ele><time>2026-05-01T15:58:24Z</time></trkpt><trkpt lat="45.82273362082786" lon="14.123427568725246"><ele>630.0</ele><time>2026-05-01T15:58:25Z</time></trkpt><trkpt lat="45.822653918731625" lon="14.123277580806933"><ele>632.0</ele><time>2026-05-01T15:58:26Z</time></trkpt><trkpt lat="45.82256589331009" lon="14.123156882777243"><ele>632.6</ele><time>2026-05-01T15:58:27Z</time></trkpt><trkpt lat="45.82248451339518" lon="14.123071694506066"><ele>633.2</ele><time>2026-05-01T15:58:28Z</time></trkpt><trkpt lat="45.82242193642936" lon="14.122980866926255"><ele>633.8</ele><time>2026-05-01T15:58:29Z</time></trkpt><trkpt lat="45.822378662680435" lon="14.12287083690572"><ele>634.4</ele><time>2026-05-01T15:58:30Z</time></trkpt><trkpt lat="45.822378038031864" lon="14.12273560770083"><ele>635.0</ele><time>2026-05-01T15:58:31Z</time></trkpt><trkpt lat="45.822417233250526" lon="14.122600857979288"><ele>635.0</ele><time>2026-05-01T15:58:32Z</time></trkpt><trkpt lat="45.82249311045831" lon="14.122493254542407"><ele>635.0</ele><time>2026-05-01T15:58:33Z</time></trkpt><trkpt lat="45.822595724147135" lon="14.122461984601669"><ele>635.0</ele><time>2026-05-01T15:58:34Z</time></trkpt><trkpt lat="45.82270099556559" lon="14.122468579204924"><ele>635.0</ele><time>2026-05-01T15:58:35Z</time></trkpt><trkpt lat="45.822814576316986" lon="14.122521321489607"><ele>635.0</ele><time>2026-05-01T15:58:36Z</time></trkpt><trkpt lat="45.82291495635225" lon="14.122597511115814"><ele>636.25</ele><time>2026-05-01T15:58:37Z</time></trkpt><trkpt lat="45.8230179787773" lon="14.122673815615222"><ele>637.5</ele><time>2026-05-01T15:58:38Z</time></trkpt><trkpt lat="45.82313679660671" lon="14.122741158802942"><ele>638.75</ele><time>2026-05-01T15:58:39Z</time></trkpt><trkpt lat="45.82326338986546" lon="14.122815397058032"><ele>640.0</ele><time>2026-05-01T15:58:40Z</time></trkpt><trkpt lat="45.82338528757522" lon="14.122896817929758"><ele>642.75</ele><time>2026-05-01T15:58:41Z</time></trkpt><trkpt lat="45.82350870380001" lon="14.122983756060066"><ele>645.5</ele><time>2026-05-01T15:58:42Z</time></trkpt><trkpt lat="45.82362950805394" lon="14.123073846455592"><ele>648.25</ele><time>2026-05-01T15:58:43Z</time></trkpt><trkpt lat="45.823745200605416" lon="14.123149653078604"><ele>651.0</ele><time>2026-05-01T15:58:44Z</time></trkpt><trkpt lat="45.82385594267762" lon="14.12319916923903"><ele>651.0</ele><time>2026-05-01T15:58:45Z</time></trkpt><trkpt lat="45.823979874642205" lon="14.1232171289006"><ele>651.0</ele><time>2026-05-01T15:58:46Z</time></trkpt><trkpt lat="45.82411171054132" lon="14.123189407717824"><ele>651.0</ele><time>2026-05-01T15:58:47Z</time></trkpt><trkpt lat="45.82425263478563" lon="14.123153255759403"><ele>651.0</ele><time>2026-05-01T15:58:48Z</time></trkpt><trkpt lat="45.8243957478896" lon="14.123152568503123"><ele>652.75</ele><time>2026-05-01T15:58:49Z</time></trkpt><trkpt lat="45.82454018925209" lon="14.12315189459326"><ele>654.5</ele><time>2026-05-01T15:58:50Z</time></trkpt><trkpt lat="45.824662200996855" lon="14.123096897194365"><ele>656.25</ele><time>2026-05-01T15:58:51Z</time></trkpt><trkpt lat="45.824783772818535" lon="14.123030532280998"><ele>658.0</ele><time>2026-05-01T15:58:52Z</time></trkpt><trkpt lat="45.82491656562804" lon="14.122988633984642"><ele>658.0</ele><time>2026-05-01T15:58:53Z</time></trkpt><trkpt lat="45.82504488595963" lon="14.122964989033937"><ele>658.0</ele><time>2026-05-01T15:58:54Z</time></trkpt><trkpt lat="45.82515054556017" lon="14.122919034762335"><ele>658.0</ele><time>2026-05-01T15:58:55Z</time></trkpt><trkpt lat="45.82523285593418" lon="14.122836051369374"><ele>658.0</ele><time>2026-05-01T15:58:56Z</time></trkpt><trkpt lat="45.82531020735817" lon="14.12270849044217"><ele>657.75</ele><time>2026-05-01T15:58:56.999Z</time></trkpt><trkpt lat="45.82539677079968" lon="14.122550035721622"><ele>657.5</ele><time>2026-05-01T15:58:57.999Z</time></trkpt><trkpt lat="45.82547387665352" lon="14.122387786563353"><ele>657.25</ele><time>2026-05-01T15:58:58.999Z</time></trkpt><trkpt lat="45.82553318475873" lon="14.122213140134527"><ele>657.0</ele><time>2026-05-01T15:58:59.999Z</time></trkpt><trkpt lat="45.82558561416796" lon="14.122041715132564"><ele>658.8</ele><time>2026-05-01T15:59:00.999Z</time></trkpt><trkpt lat="45.825649035644915" lon="14.121906035401691"><ele>660.6</ele><time>2026-05-01T15:59:01.999Z</time></trkpt><trkpt lat="45.825736515146595" lon="14.121818125791819"><ele>662.4</ele><time>2026-05-01T15:59:02.999Z</time></trkpt><trkpt lat="45.825845972353484" lon="14.121791890196699"><ele>664.1999999999999</ele><time>2026-05-01T15:59:03.999Z</time></trkpt><trkpt lat="45.825946350517654" lon="14.12174041883728"><ele>666.0</ele><time>2026-05-01T15:59:04.999Z</time></trkpt><trkpt lat="45.826051093095025" lon="14.121735961281853"><ele>666.0</ele><time>2026-05-01T15:59:05.999Z</time></trkpt><trkpt lat="45.82615719240499" lon="14.121787948035498"><ele>666.0</ele><time>2026-05-01T15:59:06.999Z</time></trkpt><trkpt lat="45.8262602584434" lon="14.12179490385392"><ele>666.0</ele><time>2026-05-01T15:59:07.999Z</time></trkpt><trkpt lat="45.82635297973367" lon="14.12182325679173"><ele>666.0</ele><time>2026-05-01T15:59:08.999Z</time></trkpt><trkpt lat="45.82644041170187" lon="14.121851222754016"><ele>666.0</ele><time>2026-05-01T15:59:09.999Z</time></trkpt><trkpt lat="45.82652589077947" lon="14.12187462944215"><ele>666.0</ele><time>2026-05-01T15:59:10.999Z</time></trkpt><trkpt lat="45.826604884041366" lon="14.12187262618642"><ele>666.0</ele><time>2026-05-01T15:59:11.999Z</time></trkpt><trkpt lat="45.82667946877984" lon="14.121823347974976"><ele>666.0</ele><time>2026-05-01T15:59:12.999Z</time></trkpt><trkpt lat="45.82673988645628" lon="14.12173773648515"><ele>666.0</ele><time>2026-05-01T15:59:13.999Z</time></trkpt><trkpt lat="45.826818051250505" lon="14.121645320507673"><ele>666.0</ele><time>2026-05-01T15:59:14.999Z</time></trkpt><trkpt lat="45.826881072656505" lon="14.121511726269846"><ele>668.1999999999999</ele><time>2026-05-01T15:59:15.999Z</time></trkpt><trkpt lat="45.82694927032667" lon="14.121399142040305"><ele>670.4</ele><time>2026-05-01T15:59:16.999Z</time></trkpt><trkpt lat="45.82703946777679" lon="14.121339799799355"><ele>672.6</ele><time>2026-05-01T15:59:17.999Z</time></trkpt><trkpt lat="45.82713056315805" lon="14.121238429122888"><ele>674.8</ele><time>2026-05-01T15:59:18.999Z</time></trkpt><trkpt lat="45.827203563766254" lon="14.121114103305528"><ele>677.0</ele><time>2026-05-01T15:59:19.999Z</time></trkpt><trkpt lat="45.827265954591354" lon="14.12099912173898"><ele>677.0</ele><time>2026-05-01T15:59:20.999Z</time></trkpt><trkpt lat="45.82732695873938" lon="14.120907534359551"><ele>677.0</ele><time>2026-05-01T15:59:21.999Z</time></trkpt><trkpt lat="45.8273957369397" lon="14.120833950709512"><ele>677.0</ele><time>2026-05-01T15:59:22.999Z</time></trkpt><trkpt lat="45.827471320058336" lon="14.120790531785563"><ele>677.0</ele><time>2026-05-01T15:59:23.999Z</time></trkpt><trkpt lat="45.82755263659592" lon="14.120758116159793"><ele>677.0</ele><time>2026-05-01T15:59:24.999Z</time></trkpt><trkpt lat="45.827644275145275" lon="14.120781598609216"><ele>677.0</ele><time>2026-05-01T15:59:25.999Z</time></trkpt><trkpt lat="45.827743226021504" lon="14.120829600233977"><ele>681.2</ele><time>2026-05-01T15:59:26.999Z</time></trkpt><trkpt lat="45.827830793189804" lon="14.120894855439316"><ele>685.4000000000001</ele><time>2026-05-01T15:59:27.999Z</time></trkpt><trkpt lat="45.82790272027822" lon="14.120990050764084"><ele>689.5999999999999</ele><time>2026-05-01T15:59:28.999Z</time></trkpt><trkpt lat="45.82796027545141" lon="14.121076660187384"><ele>693.8</ele><time>2026-05-01T15:59:29.999Z</time></trkpt><trkpt lat="45.828014282904114" lon="14.121185998951981"><ele>698.0</ele><time>2026-05-01T15:59:30.999Z</time></trkpt><trkpt lat="45.82806061386328" lon="14.121298924500307"><ele>698.0</ele><time>2026-05-01T15:59:31.999Z</time></trkpt><trkpt lat="45.828116852204836" lon="14.121402982690846"><ele>698.0</ele><time>2026-05-01T15:59:32.999Z</time></trkpt><trkpt lat="45.82817045186778" lon="14.12150166020744"><ele>698.0</ele><time>2026-05-01T15:59:33.999Z</time></trkpt><trkpt lat="45.828218427685535" lon="14.121605696908109"><ele>698.0</ele><time>2026-05-01T15:59:34.999Z</time></trkpt><trkpt lat="45.828293565671615" lon="14.12168099867106"><ele>698.0</ele><time>2026-05-01T15:59:35.999Z</time></trkpt><trkpt lat="45.828380189458045" lon="14.12171645099613"><ele>698.0</ele><time>2026-05-01T15:59:36.999Z</time></trkpt><trkpt lat="45.82846052430764" lon="14.121713569445117"><ele>698.8333333333333</ele><time>2026-05-01T15:59:37.999Z</time></trkpt><trkpt lat="45.82853062423578" lon="14.12172796670048"><ele>699.6666666666666</ele><time>2026-05-01T15:59:38.999Z</time></trkpt><trkpt lat="45.828601834581406" lon="14.12175789666644"><ele>700.5</ele><time>2026-05-01T15:59:39.999Z</time></trkpt><trkpt lat="45.82870874986017" lon="14.121871223412558"><ele>701.3333333333334</ele><time>2026-05-01T15:59:41.999Z</time></trkpt><trkpt lat="45.82873899076492" lon="14.121973193048191"><ele>702.1666666666667</ele><time>2026-05-01T15:59:42.999Z</time></trkpt><trkpt lat="45.82880620761883" lon="14.12204739609066"><ele>703.0</ele><time>2026-05-01T15:59:43.999Z</time></trkpt><trkpt lat="45.828879616345766" lon="14.122118200054873"><ele>703.0</ele><time>2026-05-01T15:59:44.999Z</time></trkpt><trkpt lat="45.82894888554944" lon="14.122203541926988"><ele>703.0</ele><time>2026-05-01T15:59:45.999Z</time></trkpt><trkpt lat="45.82903404394241" lon="14.122279583328414"><ele>703.0</ele><time>2026-05-01T15:59:46.999Z</time></trkpt><trkpt lat="45.829123667809334" lon="14.122358340306194"><ele>703.0</ele><time>2026-05-01T15:59:47.999Z</time></trkpt><trkpt lat="45.82922198703752" lon="14.12243430973528"><ele>703.0</ele><time>2026-05-01T15:59:48.999Z</time></trkpt><trkpt lat="45.82932219339811" lon="14.122505538251408"><ele>703.8</ele><time>2026-05-01T15:59:49.999Z</time></trkpt><trkpt lat="45.82942095166377" lon="14.122577606684416"><ele>704.5999999999999</ele><time>2026-05-01T15:59:50.999Z</time></trkpt><trkpt lat="45.829513133236034" lon="14.122660680409911"><ele>705.4000000000001</ele><time>2026-05-01T15:59:51.999Z</time></trkpt><trkpt lat="45.829601659828015" lon="14.122748923680653"><ele>706.2</ele><time>2026-05-01T15:59:52.999Z</time></trkpt><trkpt lat="45.82968863016241" lon="14.122840148219044"><ele>707.0</ele><time>2026-05-01T15:59:53.999Z</time></trkpt><trkpt lat="45.8297771558201" lon="14.122927696322815"><ele>707.0</ele><time>2026-05-01T15:59:54.999Z</time></trkpt><trkpt lat="45.82987723642635" lon="14.123001882041557"><ele>707.0</ele><time>2026-05-01T15:59:55.999Z</time></trkpt><trkpt lat="45.82997528065688" lon="14.123060576198736"><ele>707.0</ele><time>2026-05-01T15:59:56.999Z</time></trkpt><trkpt lat="45.83008116822845" lon="14.12310420259716"><ele>707.0</ele><time>2026-05-01T15:59:57.999Z</time></trkpt><trkpt lat="45.83018641875895" lon="14.123151147526771"><ele>707.0</ele><time>2026-05-01T15:59:58.999Z</time></trkpt><trkpt lat="45.83029596309917" lon="14.1231813434392"><ele>708.5</ele><time>2026-05-01T15:59:59.999Z</time></trkpt><trkpt lat="45.83040593999302" lon="14.123203734965928"><ele>710.0</ele><time>2026-05-01T16:00:00.999Z</time></trkpt><trkpt lat="45.830517816358274" lon="14.123219288519863"><ele>711.5</ele><time>2026-05-01T16:00:01.999Z</time></trkpt><trkpt lat="45.830636293245604" lon="14.123235696626818"><ele>713.0</ele><time>2026-05-01T16:00:02.999Z</time></trkpt><trkpt lat="45.830749528832314" lon="14.123265824026063"><ele>713.0</ele><time>2026-05-01T16:00:04Z</time></trkpt><trkpt lat="45.830851867569635" lon="14.123327924307207"><ele>713.0</ele><time>2026-05-01T16:00:05Z</time></trkpt><trkpt lat="45.830955249168476" lon="14.123397235317782"><ele>713.0</ele><time>2026-05-01T16:00:06Z</time></trkpt><trkpt lat="45.83104915004652" lon="14.123446342475397"><ele>713.0</ele><time>2026-05-01T16:00:07Z</time></trkpt><trkpt lat="45.831130066930214" lon="14.123471067676874"><ele>713.0</ele><time>2026-05-01T16:00:08Z</time></trkpt><trkpt lat="45.83121092481901" lon="14.123464213640126"><ele>713.5</ele><time>2026-05-01T16:00:09Z</time></trkpt><trkpt lat="45.83129225878696" lon="14.123435049787563"><ele>714.0</ele><time>2026-05-01T16:00:10Z</time></trkpt><trkpt lat="45.83136886861507" lon="14.123385702955742"><ele>714.5</ele><time>2026-05-01T16:00:11Z</time></trkpt><trkpt lat="45.83145149005055" lon="14.123357045673568"><ele>715.0</ele><time>2026-05-01T16:00:12Z</time></trkpt><trkpt lat="45.83150050127057" lon="14.123280748029666"><ele>715.5</ele><time>2026-05-01T16:00:13Z</time></trkpt><trkpt lat="45.83156280815268" lon="14.123226004886389"><ele>716.0</ele><time>2026-05-01T16:00:14Z</time></trkpt><trkpt lat="45.83160868513477" lon="14.123111070142203"><ele>718.4</ele><time>2026-05-01T16:00:15Z</time></trkpt><trkpt lat="45.83164450347686" lon="14.122978057324588"><ele>720.8</ele><time>2026-05-01T16:00:16Z</time></trkpt><trkpt lat="45.831690443894104" lon="14.122825465173154"><ele>723.1999999999999</ele><time>2026-05-01T16:00:17Z</time></trkpt><trkpt lat="45.83175025444344" lon="14.122697444730527"><ele>725.5999999999999</ele><time>2026-05-01T16:00:18Z</time></trkpt><trkpt lat="45.831819442480786" lon="14.122599009865953"><ele>728.0</ele><time>2026-05-01T16:00:19Z</time></trkpt><trkpt lat="45.83187624005215" lon="14.122531392841742"><ele>728.3333333333333</ele><time>2026-05-01T16:00:20Z</time></trkpt><trkpt lat="45.83194540458858" lon="14.122417390177338"><ele>728.6666666666666</ele><time>2026-05-01T16:00:22Z</time></trkpt><trkpt lat="45.83193141509996" lon="14.12231221125846"><ele>729.0</ele><time>2026-05-01T16:00:23Z</time></trkpt><trkpt lat="45.831881685926625" lon="14.122236685395727"><ele>729.3333333333334</ele><time>2026-05-01T16:00:24Z</time></trkpt><trkpt lat="45.83181489682203" lon="14.12221360571855"><ele>729.6666666666667</ele><time>2026-05-01T16:00:25Z</time></trkpt><trkpt lat="45.831749226350986" lon="14.122272489993088"><ele>730.0</ele><time>2026-05-01T16:00:26Z</time></trkpt><trkpt lat="45.83167557953064" lon="14.122282723147464"><ele>731.1666666666667</ele><time>2026-05-01T16:00:27Z</time></trkpt><trkpt lat="45.83157593377724" lon="14.12229116104697"><ele>732.3333333333334</ele><time>2026-05-01T16:00:28Z</time></trkpt><trkpt lat="45.83148166454817" lon="14.122295262101847"><ele>733.5</ele><time>2026-05-01T16:00:29Z</time></trkpt><trkpt lat="45.83140914960723" lon="14.122279126934991"><ele>734.6666666666666</ele><time>2026-05-01T16:00:30Z</time></trkpt><trkpt lat="45.83135837811168" lon="14.122152836639804"><ele>735.8333333333333</ele><time>2026-05-01T16:00:31.999Z</time></trkpt><trkpt lat="45.83133678924011" lon="14.122062001999835"><ele>737.0</ele><time>2026-05-01T16:00:32.999Z</time></trkpt><trkpt lat="45.83130801729826" lon="14.121949095201838"><ele>737.0</ele><time>2026-05-01T16:00:33.999Z</time></trkpt><trkpt lat="45.831284178515986" lon="14.121834060144048"><ele>737.0</ele><time>2026-05-01T16:00:34.999Z</time></trkpt><trkpt lat="45.83126803850135" lon="14.121675492951898"><ele>737.0</ele><time>2026-05-01T16:00:36.999Z</time></trkpt><trkpt lat="45.831290901549444" lon="14.121512130942998"><ele>737.0</ele><time>2026-05-01T16:00:38.999Z</time></trkpt><trkpt lat="45.83132217477116" lon="14.121432113358317"><ele>737.0</ele><time>2026-05-01T16:00:39.999Z</time></trkpt><trkpt lat="45.831361489557445" lon="14.121361439580074"><ele>737.0</ele><time>2026-05-01T16:00:40.999Z</time></trkpt><trkpt lat="45.83141259223517" lon="14.121294698949743"><ele>738.1666666666666</ele><time>2026-05-01T16:00:41.999Z</time></trkpt><trkpt lat="45.83147628033631" lon="14.121235867788448"><ele>739.3333333333333</ele><time>2026-05-01T16:00:42.999Z</time></trkpt><trkpt lat="45.831552346380704" lon="14.121199226520785"><ele>740.5</ele><time>2026-05-01T16:00:43.999Z</time></trkpt><trkpt lat="45.831638331325266" lon="14.121160616511595"><ele>741.6666666666666</ele><time>2026-05-01T16:00:44.999Z</time></trkpt><trkpt lat="45.831700619017944" lon="14.121097722835264"><ele>742.8333333333334</ele><time>2026-05-01T16:00:45.999Z</time></trkpt><trkpt lat="45.831755476251836" lon="14.121026920666736"><ele>744.0</ele><time>2026-05-01T16:00:46.999Z</time></trkpt><trkpt lat="45.8318757250397" lon="14.120913119067058"><ele>744.4285714285714</ele><time>2026-05-01T16:00:48.999Z</time></trkpt><trkpt lat="45.83194058859125" lon="14.120859796761772"><ele>744.8571428571429</ele><time>2026-05-01T16:00:49.999Z</time></trkpt><trkpt lat="45.83200696251728" lon="14.120805485627328"><ele>745.2857142857142</ele><time>2026-05-01T16:00:50.999Z</time></trkpt><trkpt lat="45.832071763438485" lon="14.120758964088106"><ele>745.7142857142858</ele><time>2026-05-01T16:00:51.999Z</time></trkpt><trkpt lat="45.8321425004313" lon="14.120732488868185"><ele>746.1428571428571</ele><time>2026-05-01T16:00:52.999Z</time></trkpt><trkpt lat="45.832196156231944" lon="14.120684518211172"><ele>746.5714285714286</ele><time>2026-05-01T16:00:53.999Z</time></trkpt><trkpt lat="45.83225152802928" lon="14.12063855854867"><ele>747.0</ele><time>2026-05-01T16:00:54.999Z</time></trkpt><trkpt lat="45.832297112932245" lon="14.120545383882497"><ele>747.9999999999999</ele><time>2026-05-01T16:00:55.999Z</time></trkpt><trkpt lat="45.832327773360184" lon="14.120448089195913"><ele>749.0</ele><time>2026-05-01T16:00:56.999Z</time></trkpt><trkpt lat="45.83235840811226" lon="14.120351553801752"><ele>750.0</ele><time>2026-05-01T16:00:57.999Z</time></trkpt><trkpt lat="45.83239727768226" lon="14.120263393887202"><ele>751.0</ele><time>2026-05-01T16:00:58.999Z</time></trkpt><trkpt lat="45.83243517985614" lon="14.120178472898273"><ele>752.0</ele><time>2026-05-01T16:00:59.999Z</time></trkpt><trkpt lat="45.832476007544585" lon="14.12009401358611"><ele>752.9999999999999</ele><time>2026-05-01T16:01:00.999Z</time></trkpt><trkpt lat="45.83251932050947" lon="14.120022835277817"><ele>754.0</ele><time>2026-05-01T16:01:01.999Z</time></trkpt><trkpt lat="45.83261783086379" lon="14.119927718586956"><ele>754.6666666666667</ele><time>2026-05-01T16:01:03.999Z</time></trkpt><trkpt lat="45.832687597952756" lon="14.119888188699834"><ele>755.3333333333334</ele><time>2026-05-01T16:01:04.999Z</time></trkpt><trkpt lat="45.8327745257859" lon="14.119886444165141"><ele>756.0</ele><time>2026-05-01T16:01:05.999Z</time></trkpt><trkpt lat="45.83284760641" lon="14.119886588979735"><ele>756.6666666666666</ele><time>2026-05-01T16:01:06.999Z</time></trkpt><trkpt lat="45.83292323346694" lon="14.119872748023687"><ele>757.3333333333333</ele><time>2026-05-01T16:01:07.999Z</time></trkpt><trkpt lat="45.832997304995615" lon="14.119881004784377"><ele>758.0</ele><time>2026-05-01T16:01:08.999Z</time></trkpt><trkpt lat="45.83311049659703" lon="14.119939937789319"><ele>758.0</ele><time>2026-05-01T16:01:10.999Z</time></trkpt><trkpt lat="45.83322177812581" lon="14.119940463456572"><ele>758.0</ele><time>2026-05-01T16:01:12.999Z</time></trkpt><trkpt lat="45.833297390970465" lon="14.119932947851986"><ele>758.0</ele><time>2026-05-01T16:01:13.999Z</time></trkpt><trkpt lat="45.83337764563122" lon="14.11986401967065"><ele>758.0</ele><time>2026-05-01T16:01:14.999Z</time></trkpt><trkpt lat="45.83345878760729" lon="14.11974132041605"><ele>758.0</ele><time>2026-05-01T16:01:15.999Z</time></trkpt><trkpt lat="45.83351822674383" lon="14.11964164131097"><ele>761.8</ele><time>2026-05-01T16:01:16.999Z</time></trkpt><trkpt lat="45.83357087474906" lon="14.119559192466863"><ele>765.5999999999999</ele><time>2026-05-01T16:01:17.999Z</time></trkpt><trkpt lat="45.83362246437521" lon="14.119482578029784"><ele>769.4000000000001</ele><time>2026-05-01T16:01:19.999Z</time></trkpt><trkpt lat="45.83371008623745" lon="14.119567967838332"><ele>773.2</ele><time>2026-05-01T16:01:23.999Z</time></trkpt><trkpt lat="45.83376984893206" lon="14.11967204988592"><ele>777.0</ele><time>2026-05-01T16:01:25.999Z</time></trkpt><trkpt lat="45.83379019849293" lon="14.119864954408053"><ele>776.5</ele><time>2026-05-01T16:01:27.999Z</time></trkpt><trkpt lat="45.83374361867725" lon="14.119970816422589"><ele>776.0</ele><time>2026-05-01T16:01:28.999Z</time></trkpt><trkpt lat="45.833702770548236" lon="14.120088028543416"><ele>775.5</ele><time>2026-05-01T16:01:29.999Z</time></trkpt><trkpt lat="45.83365485338272" lon="14.120261916252598"><ele>775.0</ele><time>2026-05-01T16:01:30.999Z</time></trkpt><trkpt lat="45.83358364997473" lon="14.120439049049516"><ele>775.0</ele><time>2026-05-01T16:01:31.999Z</time></trkpt><trkpt lat="45.83352730694646" lon="14.120574968568688"><ele>775.0</ele><time>2026-05-01T16:01:32.999Z</time></trkpt><trkpt lat="45.83347485945789" lon="14.1206977439688"><ele>775.0</ele><time>2026-05-01T16:01:33.999Z</time></trkpt><trkpt lat="45.83344518340835" lon="14.120839111366232"><ele>775.0</ele><time>2026-05-01T16:01:34.999Z</time></trkpt><trkpt lat="45.833391705350024" lon="14.120982751955285"><ele>775.0</ele><time>2026-05-01T16:01:35.999Z</time></trkpt><trkpt lat="45.83336394875575" lon="14.121138406206772"><ele>772.9999999999999</ele><time>2026-05-01T16:01:36.999Z</time></trkpt><trkpt lat="45.83334537927264" lon="14.121277095265922"><ele>771.0</ele><time>2026-05-01T16:01:37.999Z</time></trkpt><trkpt lat="45.8333402883775" lon="14.121404653180601"><ele>769.0</ele><time>2026-05-01T16:01:38.999Z</time></trkpt><trkpt lat="45.833337591048405" lon="14.121528879285135"><ele>767.0</ele><time>2026-05-01T16:01:39.999Z</time></trkpt><trkpt lat="45.833330048966374" lon="14.121649838029038"><ele>765.0</ele><time>2026-05-01T16:01:40.999Z</time></trkpt><trkpt lat="45.83330956107276" lon="14.121772500441631"><ele>763.0</ele><time>2026-05-01T16:01:41.999Z</time></trkpt><trkpt lat="45.83332001441671" lon="14.121898533901666"><ele>763.0</ele><time>2026-05-01T16:01:42.999Z</time></trkpt><trkpt lat="45.833302583065056" lon="14.122019244152897"><ele>763.0</ele><time>2026-05-01T16:01:43.999Z</time></trkpt><trkpt lat="45.833305185183306" lon="14.122124762091632"><ele>763.0</ele><time>2026-05-01T16:01:44.999Z</time></trkpt><trkpt lat="45.83331305997038" lon="14.12221755446847"><ele>763.0</ele><time>2026-05-01T16:01:45.999Z</time></trkpt><trkpt lat="45.83333567550161" lon="14.122309530902442"><ele>763.0</ele><time>2026-05-01T16:01:46.999Z</time></trkpt><trkpt lat="45.833443234499406" lon="14.122423870155304"><ele>763.0</ele><time>2026-05-01T16:01:48.999Z</time></trkpt><trkpt lat="45.83350167674195" lon="14.12246270520474"><ele>765.4285714285714</ele><time>2026-05-01T16:01:49.999Z</time></trkpt><trkpt lat="45.83356400390079" lon="14.122502910365776"><ele>767.8571428571429</ele><time>2026-05-01T16:01:50.999Z</time></trkpt><trkpt lat="45.833618738095765" lon="14.122581709581455"><ele>770.2857142857142</ele><time>2026-05-01T16:01:51.999Z</time></trkpt><trkpt lat="45.83367660222545" lon="14.122655167312919"><ele>772.7142857142858</ele><time>2026-05-01T16:01:52.999Z</time></trkpt><trkpt lat="45.83373691069869" lon="14.122715737666736"><ele>775.1428571428571</ele><time>2026-05-01T16:01:53.999Z</time></trkpt><trkpt lat="45.83376894180588" lon="14.122816772094371"><ele>777.5714285714286</ele><time>2026-05-01T16:01:54.999Z</time></trkpt><trkpt lat="45.83381508996729" lon="14.122890942766317"><ele>780.0</ele><time>2026-05-01T16:01:55.999Z</time></trkpt><trkpt lat="45.83386606911715" lon="14.12294738452968"><ele>780.0</ele><time>2026-05-01T16:01:56.999Z</time></trkpt><trkpt lat="45.83398380739057" lon="14.123040700729165"><ele>780.0</ele><time>2026-05-01T16:01:59Z</time></trkpt><trkpt lat="45.834057019202945" lon="14.123074084236121"><ele>780.0</ele><time>2026-05-01T16:02:00Z</time></trkpt><trkpt lat="45.83412999162969" lon="14.123094182974839"><ele>780.0</ele><time>2026-05-01T16:02:01Z</time></trkpt><trkpt lat="45.83419824867742" lon="14.123169267524766"><ele>780.0</ele><time>2026-05-01T16:02:02Z</time></trkpt><trkpt lat="45.834266942341735" lon="14.12323906122153"><ele>778.6666666666666</ele><time>2026-05-01T16:02:03Z</time></trkpt><trkpt lat="45.834339541312644" lon="14.123305579690998"><ele>777.3333333333333</ele><time>2026-05-01T16:02:04Z</time></trkpt><trkpt lat="45.83440774761632" lon="14.123354862132123"><ele>776.0</ele><time>2026-05-01T16:02:05Z</time></trkpt><trkpt lat="45.83446784422977" lon="14.123386759027387"><ele>774.6666666666666</ele><time>2026-05-01T16:02:06Z</time></trkpt><trkpt lat="45.83454611604454" lon="14.123383974612386"><ele>773.3333333333333</ele><time>2026-05-01T16:02:07Z</time></trkpt><trkpt lat="45.83462933734133" lon="14.123347573407228"><ele>772.0</ele><time>2026-05-01T16:02:08Z</time></trkpt><trkpt lat="45.834705048130886" lon="14.12332071914249"><ele>771.9999999999999</ele><time>2026-05-01T16:02:09Z</time></trkpt><trkpt lat="45.83478177688423" lon="14.123305145717001"><ele>772.0</ele><time>2026-05-01T16:02:10Z</time></trkpt><trkpt lat="45.83485731610757" lon="14.123304993964693"><ele>772.0</ele><time>2026-05-01T16:02:11Z</time></trkpt><trkpt lat="45.83492617293932" lon="14.12330610826072"><ele>772.0</ele><time>2026-05-01T16:02:12Z</time></trkpt><trkpt lat="45.83500019187257" lon="14.123322834904581"><ele>771.9999999999999</ele><time>2026-05-01T16:02:13Z</time></trkpt><trkpt lat="45.83508598959943" lon="14.123356996418808"><ele>772.0</ele><time>2026-05-01T16:02:14Z</time></trkpt><trkpt lat="45.835180012005715" lon="14.123466587263914"><ele>772.25</ele><time>2026-05-01T16:02:15Z</time></trkpt><trkpt lat="45.83529158986874" lon="14.123586208968847"><ele>772.5</ele><time>2026-05-01T16:02:16Z</time></trkpt><trkpt lat="45.83538180101211" lon="14.123694181817935"><ele>772.75</ele><time>2026-05-01T16:02:17Z</time></trkpt><trkpt lat="45.83546509080554" lon="14.123802624200462"><ele>773.0</ele><time>2026-05-01T16:02:18Z</time></trkpt><trkpt lat="45.83555017713841" lon="14.1238956906604"><ele>773.0</ele><time>2026-05-01T16:02:19Z</time></trkpt><trkpt lat="45.83561063548779" lon="14.124016884163607"><ele>773.0</ele><time>2026-05-01T16:02:20Z</time></trkpt><trkpt lat="45.835673086470486" lon="14.124111207538716"><ele>773.0</ele><time>2026-05-01T16:02:21Z</time></trkpt><trkpt lat="45.835743539950414" lon="14.124196839894438"><ele>773.0</ele><time>2026-05-01T16:02:22Z</time></trkpt><trkpt lat="45.835808367089896" lon="14.124270689908517"><ele>773.0</ele><time>2026-05-01T16:02:23Z</time></trkpt><trkpt lat="45.83587196642062" lon="14.124354576250322"><ele>772.8333333333334</ele><time>2026-05-01T16:02:24Z</time></trkpt><trkpt lat="45.8359347339038" lon="14.124451015613799"><ele>772.6666666666667</ele><time>2026-05-01T16:02:25Z</time></trkpt><trkpt lat="45.83599142823916" lon="14.124549644836272"><ele>772.5</ele><time>2026-05-01T16:02:26Z</time></trkpt><trkpt lat="45.83604746197478" lon="14.12464435905847"><ele>772.3333333333333</ele><time>2026-05-01T16:02:27Z</time></trkpt><trkpt lat="45.836083827385934" lon="14.12474476596803"><ele>772.1666666666666</ele><time>2026-05-01T16:02:28Z</time></trkpt><trkpt lat="45.836073954457895" lon="14.124872665335431"><ele>772.0</ele><time>2026-05-01T16:02:29Z</time></trkpt><trkpt lat="45.83603562465688" lon="14.124967453081059"><ele>771.4999999999999</ele><time>2026-05-01T16:02:30Z</time></trkpt><trkpt lat="45.83599414908372" lon="14.125041902642993"><ele>771.0</ele><time>2026-05-01T16:02:31Z</time></trkpt><trkpt lat="45.83595148936813" lon="14.12514508837055"><ele>770.5</ele><time>2026-05-01T16:02:32Z</time></trkpt><trkpt lat="45.83590549943265" lon="14.125277409666296"><ele>770.0</ele><time>2026-05-01T16:02:33Z</time></trkpt><trkpt lat="45.83586583025233" lon="14.125392930749623"><ele>769.4999999999999</ele><time>2026-05-01T16:02:34Z</time></trkpt><trkpt lat="45.835826426656624" lon="14.125495755688442"><ele>769.0</ele><time>2026-05-01T16:02:35Z</time></trkpt><trkpt lat="45.8358021530816" lon="14.125601105592239"><ele>769.0</ele><time>2026-05-01T16:02:36Z</time></trkpt><trkpt lat="45.83575719942796" lon="14.125695506295376"><ele>769.0</ele><time>2026-05-01T16:02:37Z</time></trkpt><trkpt lat="45.83573337129618" lon="14.125789370205794"><ele>769.0</ele><time>2026-05-01T16:02:38Z</time></trkpt><trkpt lat="45.83573179718533" lon="14.125892362609958"><ele>769.0</ele><time>2026-05-01T16:02:39Z</time></trkpt><trkpt lat="45.83573349291618" lon="14.125989543841769"><ele>769.0</ele><time>2026-05-01T16:02:40Z</time></trkpt><trkpt lat="45.835741395762355" lon="14.12609740946458"><ele>769.0</ele><time>2026-05-01T16:02:41Z</time></trkpt><trkpt lat="45.83573923243764" lon="14.126210400084071"><ele>769.0</ele><time>2026-05-01T16:02:42Z</time></trkpt><trkpt lat="45.83577598675331" lon="14.126311448233551"><ele>768.8000000000001</ele><time>2026-05-01T16:02:43Z</time></trkpt><trkpt lat="45.83580190655136" lon="14.126403437670152"><ele>768.6</ele><time>2026-05-01T16:02:44Z</time></trkpt><trkpt lat="45.835882714837275" lon="14.126507008224515"><ele>768.4</ele><time>2026-05-01T16:02:46Z</time></trkpt><trkpt lat="45.83598255936797" lon="14.126551277861818"><ele>768.2</ele><time>2026-05-01T16:02:48Z</time></trkpt><trkpt lat="45.83609659675149" lon="14.126621669477588"><ele>768.0</ele><time>2026-05-01T16:02:50Z</time></trkpt><trkpt lat="45.836174025978664" lon="14.126636237969839"><ele>769.4285714285713</ele><time>2026-05-01T16:02:51Z</time></trkpt><trkpt lat="45.83625019605349" lon="14.126680193114629"><ele>770.8571428571429</ele><time>2026-05-01T16:02:52Z</time></trkpt><trkpt lat="45.836327980750156" lon="14.126717851807209"><ele>772.2857142857142</ele><time>2026-05-01T16:02:53Z</time></trkpt><trkpt lat="45.83638716064497" lon="14.12675617655161"><ele>773.7142857142857</ele><time>2026-05-01T16:02:54Z</time></trkpt><trkpt lat="45.83644363865382" lon="14.126817715974097"><ele>775.1428571428571</ele><time>2026-05-01T16:02:55Z</time></trkpt><trkpt lat="45.83649311284724" lon="14.126891314306798"><ele>776.5714285714286</ele><time>2026-05-01T16:02:56Z</time></trkpt><trkpt lat="45.836539549880456" lon="14.126956274831812"><ele>778.0</ele><time>2026-05-01T16:02:57Z</time></trkpt><trkpt lat="45.83658121056872" lon="14.127040967808767"><ele>777.9999999999999</ele><time>2026-05-01T16:02:58Z</time></trkpt><trkpt lat="45.83664385356556" lon="14.127099099135025"><ele>778.0</ele><time>2026-05-01T16:02:59Z</time></trkpt><trkpt lat="45.8367495849248" lon="14.127192692598475"><ele>778.0</ele><time>2026-05-01T16:03:01Z</time></trkpt><trkpt lat="45.8368187827113" lon="14.127200092501381"><ele>778.0</ele><time>2026-05-01T16:03:02Z</time></trkpt><trkpt lat="45.836896853011936" lon="14.127201562919197"><ele>777.9999999999999</ele><time>2026-05-01T16:03:03Z</time></trkpt><trkpt lat="45.83698292307271" lon="14.12722306551716"><ele>778.0</ele><time>2026-05-01T16:03:04Z</time></trkpt><trkpt lat="45.83709451743905" lon="14.127195232391996"><ele>779.5999999999999</ele><time>2026-05-01T16:03:05Z</time></trkpt><trkpt lat="45.837208401840705" lon="14.12718762409887"><ele>781.1999999999999</ele><time>2026-05-01T16:03:05.999Z</time></trkpt><trkpt lat="45.83730646674296" lon="14.127172463395134"><ele>782.8</ele><time>2026-05-01T16:03:06.999Z</time></trkpt><trkpt lat="45.83739830041633" lon="14.127158525094186"><ele>784.4</ele><time>2026-05-01T16:03:07.999Z</time></trkpt><trkpt lat="45.837490461288986" lon="14.1271629814051"><ele>786.0</ele><time>2026-05-01T16:03:08.999Z</time></trkpt><trkpt lat="45.837581071626346" lon="14.127140602708883"><ele>786.4</ele><time>2026-05-01T16:03:09.999Z</time></trkpt><trkpt lat="45.837668429577846" lon="14.127112940375614"><ele>786.8</ele><time>2026-05-01T16:03:10.999Z</time></trkpt><trkpt lat="45.83776495391425" lon="14.127070167313155"><ele>787.1999999999999</ele><time>2026-05-01T16:03:11.999Z</time></trkpt><trkpt lat="45.837867597518034" lon="14.12700685059927"><ele>787.5999999999999</ele><time>2026-05-01T16:03:12.999Z</time></trkpt><trkpt lat="45.83796328795181" lon="14.126929049964275"><ele>788.0</ele><time>2026-05-01T16:03:13.999Z</time></trkpt><trkpt lat="45.83805996394116" lon="14.12684418029596"><ele>788.0</ele><time>2026-05-01T16:03:14.999Z</time></trkpt><trkpt lat="45.838156053125516" lon="14.126767003991615"><ele>788.0</ele><time>2026-05-01T16:03:15.999Z</time></trkpt><trkpt lat="45.83826356982355" lon="14.126705536563675"><ele>788.0</ele><time>2026-05-01T16:03:16.999Z</time></trkpt><trkpt lat="45.838380257146184" lon="14.126661068221964"><ele>788.0</ele><time>2026-05-01T16:03:17.999Z</time></trkpt><trkpt lat="45.838485459428576" lon="14.126605733538675"><ele>788.5999999999999</ele><time>2026-05-01T16:03:18.999Z</time></trkpt><trkpt lat="45.83858905473086" lon="14.126566516226177"><ele>789.1999999999999</ele><time>2026-05-01T16:03:19.999Z</time></trkpt><trkpt lat="45.83870021373343" lon="14.126547596931266"><ele>789.8</ele><time>2026-05-01T16:03:20.999Z</time></trkpt><trkpt lat="45.83880719905314" lon="14.126488743728672"><ele>790.4</ele><time>2026-05-01T16:03:21.999Z</time></trkpt><trkpt lat="45.83891788091448" lon="14.126468285303584"><ele>791.0</ele><time>2026-05-01T16:03:22.999Z</time></trkpt><trkpt lat="45.839026911908476" lon="14.126433361595264"><ele>791.0</ele><time>2026-05-01T16:03:23.999Z</time></trkpt><trkpt lat="45.839139876047" lon="14.126389460583743"><ele>791.0</ele><time>2026-05-01T16:03:24.999Z</time></trkpt><trkpt lat="45.839258891703246" lon="14.12640052021135"><ele>791.0</ele><time>2026-05-01T16:03:25.999Z</time></trkpt><trkpt lat="45.839374566965475" lon="14.126380557079015"><ele>791.0</ele><time>2026-05-01T16:03:26.999Z</time></trkpt><trkpt lat="45.83948651195793" lon="14.126387601509864"><ele>792.4</ele><time>2026-05-01T16:03:27.999Z</time></trkpt><trkpt lat="45.83958835402401" lon="14.1263526973786"><ele>793.8</ele><time>2026-05-01T16:03:28.999Z</time></trkpt><trkpt lat="45.839691810436584" lon="14.12634557430147"><ele>795.1999999999999</ele><time>2026-05-01T16:03:29.999Z</time></trkpt><trkpt lat="45.839797375534395" lon="14.12633549411748"><ele>796.5999999999999</ele><time>2026-05-01T16:03:30.999Z</time></trkpt><trkpt lat="45.839902903263955" lon="14.126358101347865"><ele>798.0</ele><time>2026-05-01T16:03:31.999Z</time></trkpt><trkpt lat="45.84000299251366" lon="14.126420896604866"><ele>798.0</ele><time>2026-05-01T16:03:32.999Z</time></trkpt><trkpt lat="45.84011190648176" lon="14.126474892639216"><ele>798.0</ele><time>2026-05-01T16:03:33.999Z</time></trkpt><trkpt lat="45.84020955057079" lon="14.126548203843143"><ele>798.0</ele><time>2026-05-01T16:03:34.999Z</time></trkpt><trkpt lat="45.840293795979186" lon="14.12660694331799"><ele>798.0</ele><time>2026-05-01T16:03:35.999Z</time></trkpt><trkpt lat="45.84037683968165" lon="14.126655479108267"><ele>798.0</ele><time>2026-05-01T16:03:36.999Z</time></trkpt><trkpt lat="45.840462252433184" lon="14.12665485039703"><ele>796.6666666666666</ele><time>2026-05-01T16:03:37.999Z</time></trkpt><trkpt lat="45.84054554043222" lon="14.126663492048175"><ele>795.3333333333333</ele><time>2026-05-01T16:03:38.999Z</time></trkpt><trkpt lat="45.84063298515384" lon="14.126640766611914"><ele>794.0</ele><time>2026-05-01T16:03:39.999Z</time></trkpt><trkpt lat="45.84071414021891" lon="14.126592960301707"><ele>792.6666666666666</ele><time>2026-05-01T16:03:40.999Z</time></trkpt><trkpt lat="45.840782400043516" lon="14.126518007220497"><ele>791.3333333333333</ele><time>2026-05-01T16:03:41.999Z</time></trkpt><trkpt lat="45.84084838940889" lon="14.126431563860928"><ele>790.0</ele><time>2026-05-01T16:03:42.999Z</time></trkpt><trkpt lat="45.840907468738614" lon="14.126319989094409"><ele>789.9999999999999</ele><time>2026-05-01T16:03:43.999Z</time></trkpt><trkpt lat="45.84095834305263" lon="14.126224382248065"><ele>790.0</ele><time>2026-05-01T16:03:44.999Z</time></trkpt><trkpt lat="45.84100341030511" lon="14.126153525610034"><ele>790.0</ele><time>2026-05-01T16:03:45.999Z</time></trkpt><trkpt lat="45.84106097604748" lon="14.126092973689678"><ele>790.0</ele><time>2026-05-01T16:03:46.999Z</time></trkpt><trkpt lat="45.84112186670012" lon="14.126033149130206"><ele>789.9999999999999</ele><time>2026-05-01T16:03:47.999Z</time></trkpt><trkpt lat="45.84121469024216" lon="14.1260482075712"><ele>790.0</ele><time>2026-05-01T16:03:48.999Z</time></trkpt><trkpt lat="45.84131175389017" lon="14.126068735515252"><ele>787.8</ele><time>2026-05-01T16:03:49.999Z</time></trkpt><trkpt lat="45.84140526716909" lon="14.126094799598272"><ele>785.6</ele><time>2026-05-01T16:03:51Z</time></trkpt><trkpt lat="45.84148967254655" lon="14.126068975815954"><ele>783.4000000000001</ele><time>2026-05-01T16:03:52Z</time></trkpt><trkpt lat="45.84156198228077" lon="14.126078485303667"><ele>781.2</ele><time>2026-05-01T16:03:53Z</time></trkpt><trkpt lat="45.84162723205009" lon="14.126080044027901"><ele>779.0</ele><time>2026-05-01T16:03:54Z</time></trkpt><trkpt lat="45.84176072038374" lon="14.126105602233013"><ele>779.4000000000001</ele><time>2026-05-01T16:03:56Z</time></trkpt><trkpt lat="45.84182659042967" lon="14.126178998273218"><ele>779.8</ele><time>2026-05-01T16:03:57Z</time></trkpt><trkpt lat="45.84186969904594" lon="14.126281705366738"><ele>780.2</ele><time>2026-05-01T16:03:58Z</time></trkpt><trkpt lat="45.84193515243577" lon="14.126470819746423"><ele>780.5999999999999</ele><time>2026-05-01T16:03:59Z</time></trkpt><trkpt lat="45.84197123898097" lon="14.126607970088612"><ele>781.0</ele><time>2026-05-01T16:04:00Z</time></trkpt><trkpt lat="45.84201808903851" lon="14.12673989932081"><ele>779.5</ele><time>2026-05-01T16:04:01Z</time></trkpt><trkpt lat="45.8420776661497" lon="14.126853781239719"><ele>778.0</ele><time>2026-05-01T16:04:02Z</time></trkpt><trkpt lat="45.84217011910807" lon="14.126987464219074"><ele>776.5</ele><time>2026-05-01T16:04:03Z</time></trkpt><trkpt lat="45.842255546357286" lon="14.127148874481554"><ele>775.0</ele><time>2026-05-01T16:04:04Z</time></trkpt><trkpt lat="45.84230868486196" lon="14.127294623458821"><ele>774.2</ele><time>2026-05-01T16:04:05Z</time></trkpt><trkpt lat="45.84235199447821" lon="14.127431262094268"><ele>773.4</ele><time>2026-05-01T16:04:06Z</time></trkpt><trkpt lat="45.84239438955207" lon="14.127568822254439"><ele>772.5999999999999</ele><time>2026-05-01T16:04:07Z</time></trkpt><trkpt lat="45.84243054954713" lon="14.127697748914096"><ele>771.8</ele><time>2026-05-01T16:04:08Z</time></trkpt><trkpt lat="45.84246693987836" lon="14.127815630008937"><ele>771.0</ele><time>2026-05-01T16:04:09Z</time></trkpt><trkpt lat="45.84250308106837" lon="14.12790739081468"><ele>771.0</ele><time>2026-05-01T16:04:10Z</time></trkpt><trkpt lat="45.84254734337125" lon="14.127989009773005"><ele>771.0</ele><time>2026-05-01T16:04:11Z</time></trkpt><trkpt lat="45.8426686518254" lon="14.128059109384589"><ele>771.0</ele><time>2026-05-01T16:04:13Z</time></trkpt><trkpt lat="45.84275588306316" lon="14.128044878718004"><ele>771.0</ele><time>2026-05-01T16:04:14Z</time></trkpt><trkpt lat="45.8428338189895" lon="14.128051127976557"><ele>771.0</ele><time>2026-05-01T16:04:15Z</time></trkpt><trkpt lat="45.84292448936445" lon="14.128103917055249"><ele>769.8</ele><time>2026-05-01T16:04:16Z</time></trkpt><trkpt lat="45.84300750758515" lon="14.12820596471867"><ele>768.5999999999999</ele><time>2026-05-01T16:04:17Z</time></trkpt><trkpt lat="45.8430669070948" lon="14.128321073568523"><ele>767.4</ele><time>2026-05-01T16:04:18Z</time></trkpt><trkpt lat="45.84313927550658" lon="14.128409618504733"><ele>766.2</ele><time>2026-05-01T16:04:19Z</time></trkpt><trkpt lat="45.84322056495775" lon="14.12844193584902"><ele>765.0</ele><time>2026-05-01T16:04:20Z</time></trkpt><trkpt lat="45.84329850536808" lon="14.128461831547837"><ele>764.4</ele><time>2026-05-01T16:04:21Z</time></trkpt><trkpt lat="45.843381398924684" lon="14.128435232218507"><ele>763.8</ele><time>2026-05-01T16:04:22Z</time></trkpt><trkpt lat="45.84346064512926" lon="14.128390120829373"><ele>763.2</ele><time>2026-05-01T16:04:23Z</time></trkpt><trkpt lat="45.843539120203694" lon="14.128330904811543"><ele>762.6</ele><time>2026-05-01T16:04:24Z</time></trkpt><trkpt lat="45.84362572221246" lon="14.128263949232416"><ele>762.0</ele><time>2026-05-01T16:04:25Z</time></trkpt><trkpt lat="45.84372051438394" lon="14.12820157927743"><ele>761.75</ele><time>2026-05-01T16:04:26Z</time></trkpt><trkpt lat="45.843813302952874" lon="14.128128500304426"><ele>761.5</ele><time>2026-05-01T16:04:27Z</time></trkpt><trkpt lat="45.843923445137385" lon="14.128109457884571"><ele>761.25</ele><time>2026-05-01T16:04:28Z</time></trkpt><trkpt lat="45.844039736882316" lon="14.128111295931117"><ele>761.0</ele><time>2026-05-01T16:04:29Z</time></trkpt><trkpt lat="45.84416222449993" lon="14.128124769369883"><ele>761.0</ele><time>2026-05-01T16:04:30Z</time></trkpt><trkpt lat="45.844290842025615" lon="14.128120018634073"><ele>761.0</ele><time>2026-05-01T16:04:31Z</time></trkpt><trkpt lat="45.84442205893323" lon="14.128127740419"><ele>761.0</ele><time>2026-05-01T16:04:32Z</time></trkpt><trkpt lat="45.84455243428905" lon="14.128135023412462"><ele>761.0</ele><time>2026-05-01T16:04:33Z</time></trkpt><trkpt lat="45.84467675181886" lon="14.128140196760446"><ele>760.5999999999999</ele><time>2026-05-01T16:04:34Z</time></trkpt><trkpt lat="45.844782468518424" lon="14.128121444123467"><ele>760.2</ele><time>2026-05-01T16:04:35Z</time></trkpt><trkpt lat="45.844876190815164" lon="14.12809555385692"><ele>759.8</ele><time>2026-05-01T16:04:36Z</time></trkpt><trkpt lat="45.844969416528635" lon="14.12805748278955"><ele>759.4000000000001</ele><time>2026-05-01T16:04:37Z</time></trkpt><trkpt lat="45.845064022717565" lon="14.127993427419547"><ele>759.0</ele><time>2026-05-01T16:04:38Z</time></trkpt><trkpt lat="45.845163241641" lon="14.127914614206022"><ele>758.8000000000001</ele><time>2026-05-01T16:04:39Z</time></trkpt><trkpt lat="45.84525135741146" lon="14.127820924597625"><ele>758.6</ele><time>2026-05-01T16:04:40Z</time></trkpt><trkpt lat="45.845328929727756" lon="14.127715533447688"><ele>758.4</ele><time>2026-05-01T16:04:41Z</time></trkpt><trkpt lat="45.84540814587246" lon="14.127614118422288"><ele>758.2</ele><time>2026-05-01T16:04:42Z</time></trkpt><trkpt lat="45.84548986559494" lon="14.127516301298364"><ele>758.0</ele><time>2026-05-01T16:04:43Z</time></trkpt><trkpt lat="45.84558616840386" lon="14.127419275509354"><ele>761.2</ele><time>2026-05-01T16:04:44Z</time></trkpt><trkpt lat="45.845690981156785" lon="14.12733553144587"><ele>764.4</ele><time>2026-05-01T16:04:45Z</time></trkpt><trkpt lat="45.84580210137025" lon="14.127286910070909"><ele>767.6</ele><time>2026-05-01T16:04:46Z</time></trkpt><trkpt lat="45.845904263762755" lon="14.12727293620268"><ele>770.8000000000001</ele><time>2026-05-01T16:04:47Z</time></trkpt><trkpt lat="45.84599659238579" lon="14.127259544652961"><ele>774.0</ele><time>2026-05-01T16:04:48Z</time></trkpt><trkpt lat="45.846098439811406" lon="14.127250936867119"><ele>776.0</ele><time>2026-05-01T16:04:49Z</time></trkpt><trkpt lat="45.846214744150096" lon="14.12724365559709"><ele>778.0</ele><time>2026-05-01T16:04:50Z</time></trkpt><trkpt lat="45.8463334885024" lon="14.127234258235632"><ele>780.0</ele><time>2026-05-01T16:04:51Z</time></trkpt><trkpt lat="45.84646017173721" lon="14.127216914051566"><ele>782.0</ele><time>2026-05-01T16:04:52Z</time></trkpt><trkpt lat="45.84659171010679" lon="14.12721459763501"><ele>782.0</ele><time>2026-05-01T16:04:53Z</time></trkpt><trkpt lat="45.84672221523994" lon="14.127207979202469"><ele>782.0</ele><time>2026-05-01T16:04:54Z</time></trkpt><trkpt lat="45.84684392856472" lon="14.127201415012788"><ele>782.0</ele><time>2026-05-01T16:04:55Z</time></trkpt><trkpt lat="45.84696955184943" lon="14.127189981101328"><ele>782.0</ele><time>2026-05-01T16:04:56Z</time></trkpt><trkpt lat="45.847100439514996" lon="14.127172644699373"><ele>782.5</ele><time>2026-05-01T16:04:57Z</time></trkpt><trkpt lat="45.84722775941567" lon="14.127150134041662"><ele>783.0</ele><time>2026-05-01T16:04:58Z</time></trkpt><trkpt lat="45.84734819056581" lon="14.12714364837025"><ele>783.5</ele><time>2026-05-01T16:04:59Z</time></trkpt><trkpt lat="45.847453471251455" lon="14.127151874203204"><ele>784.0</ele><time>2026-05-01T16:05:00Z</time></trkpt><trkpt lat="45.84754896305003" lon="14.127169105140732"><ele>784.4000000000001</ele><time>2026-05-01T16:05:01Z</time></trkpt><trkpt lat="45.847640123030935" lon="14.12719692032717"><ele>784.8</ele><time>2026-05-01T16:05:02Z</time></trkpt><trkpt lat="45.847718168243546" lon="14.127259214811009"><ele>785.2</ele><time>2026-05-01T16:05:03Z</time></trkpt><trkpt lat="45.84778192199895" lon="14.127360299703902"><ele>785.5999999999999</ele><time>2026-05-01T16:05:04Z</time></trkpt><trkpt lat="45.84784500902674" lon="14.127455208438088"><ele>786.0</ele><time>2026-05-01T16:05:05Z</time></trkpt><trkpt lat="45.847921019489974" lon="14.127524060191536"><ele>782.5</ele><time>2026-05-01T16:05:06Z</time></trkpt><trkpt lat="45.84800497643659" lon="14.127573076638956"><ele>779.0</ele><time>2026-05-01T16:05:07Z</time></trkpt><trkpt lat="45.84809008688708" lon="14.127597853208393"><ele>775.5</ele><time>2026-05-01T16:05:08Z</time></trkpt><trkpt lat="45.848169539039226" lon="14.12759910133457"><ele>772.0</ele><time>2026-05-01T16:05:09Z</time></trkpt><trkpt lat="45.84824255887557" lon="14.12759635254849"><ele>768.5</ele><time>2026-05-01T16:05:10Z</time></trkpt><trkpt lat="45.848324521912474" lon="14.127589316278037"><ele>765.0</ele><time>2026-05-01T16:05:11Z</time></trkpt><trkpt lat="45.84842356010301" lon="14.127588150855885"><ele>765.4</ele><time>2026-05-01T16:05:12Z</time></trkpt><trkpt lat="45.84853314151331" lon="14.127574963928007"><ele>765.8</ele><time>2026-05-01T16:05:13Z</time></trkpt><trkpt lat="45.848642074340496" lon="14.127535145835243"><ele>766.2</ele><time>2026-05-01T16:05:14Z</time></trkpt><trkpt lat="45.84873161699269" lon="14.127498498290958"><ele>766.6</ele><time>2026-05-01T16:05:15Z</time></trkpt><trkpt lat="45.84880916844276" lon="14.127442588630968"><ele>767.0</ele><time>2026-05-01T16:05:16Z</time></trkpt><trkpt lat="45.84888133379877" lon="14.127394300127955"><ele>767.0</ele><time>2026-05-01T16:05:17Z</time></trkpt><trkpt lat="45.848956499035424" lon="14.127358408599832"><ele>767.0</ele><time>2026-05-01T16:05:18Z</time></trkpt><trkpt lat="45.849036522401576" lon="14.127353733944657"><ele>767.0</ele><time>2026-05-01T16:05:19Z</time></trkpt><trkpt lat="45.84912763698895" lon="14.127389196333874"><ele>767.0</ele><time>2026-05-01T16:05:20Z</time></trkpt><trkpt lat="45.84921436978332" lon="14.127461018742764"><ele>767.0</ele><time>2026-05-01T16:05:21Z</time></trkpt><trkpt lat="45.84930531070056" lon="14.127542822788092"><ele>768.6666666666666</ele><time>2026-05-01T16:05:22Z</time></trkpt><trkpt lat="45.849402686224565" lon="14.127631176766503"><ele>770.3333333333333</ele><time>2026-05-01T16:05:23Z</time></trkpt><trkpt lat="45.84948243365934" lon="14.127706453915538"><ele>772.0</ele><time>2026-05-01T16:05:24Z</time></trkpt><trkpt lat="45.84953650961868" lon="14.127770612787236"><ele>773.6666666666666</ele><time>2026-05-01T16:05:25Z</time></trkpt><trkpt lat="45.84958114952221" lon="14.127851058112942"><ele>775.3333333333334</ele><time>2026-05-01T16:05:26Z</time></trkpt><trkpt lat="45.849589409976154" lon="14.127964238918926"><ele>777.0</ele><time>2026-05-01T16:05:27Z</time></trkpt><trkpt lat="45.84958088049219" lon="14.12808784028367"><ele>777.0</ele><time>2026-05-01T16:05:28Z</time></trkpt><trkpt lat="45.84958743042172" lon="14.128220124013065"><ele>777.0</ele><time>2026-05-01T16:05:29Z</time></trkpt><trkpt lat="45.84961150126836" lon="14.128316948171822"><ele>777.0</ele><time>2026-05-01T16:05:30Z</time></trkpt><trkpt lat="45.84965668683846" lon="14.128396069244447"><ele>777.0</ele><time>2026-05-01T16:05:31Z</time></trkpt><trkpt lat="45.84971440350911" lon="14.128465490644565"><ele>777.0</ele><time>2026-05-01T16:05:32Z</time></trkpt><trkpt lat="45.8497862816264" lon="14.128509872246845"><ele>777.0</ele><time>2026-05-01T16:05:33Z</time></trkpt><trkpt lat="45.84986475832721" lon="14.128544428071878"><ele>774.5</ele><time>2026-05-01T16:05:34Z</time></trkpt><trkpt lat="45.8499541082324" lon="14.128565267893478"><ele>772.0</ele><time>2026-05-01T16:05:35Z</time></trkpt><trkpt lat="45.850053560284024" lon="14.12856990165735"><ele>769.5</ele><time>2026-05-01T16:05:36Z</time></trkpt><trkpt lat="45.850156760690815" lon="14.128572680926109"><ele>767.0</ele><time>2026-05-01T16:05:37Z</time></trkpt><trkpt lat="45.850241761670326" lon="14.12858154283677"><ele>764.5</ele><time>2026-05-01T16:05:38Z</time></trkpt><trkpt lat="45.85030794446469" lon="14.128575026969704"><ele>762.0</ele><time>2026-05-01T16:05:39Z</time></trkpt><trkpt lat="45.85038291252679" lon="14.128542897061418"><ele>762.0</ele><time>2026-05-01T16:05:40Z</time></trkpt><trkpt lat="45.850450987473955" lon="14.128488988909155"><ele>762.0</ele><time>2026-05-01T16:05:41Z</time></trkpt><trkpt lat="45.85051810143246" lon="14.128411650585372"><ele>762.0</ele><time>2026-05-01T16:05:42Z</time></trkpt><trkpt lat="45.85059316341133" lon="14.128330007036855"><ele>762.0</ele><time>2026-05-01T16:05:43Z</time></trkpt><trkpt lat="45.85067309895493" lon="14.128267610412076"><ele>762.0</ele><time>2026-05-01T16:05:44Z</time></trkpt><trkpt lat="45.850745218634174" lon="14.128219034218901"><ele>762.0</ele><time>2026-05-01T16:05:45Z</time></trkpt><trkpt lat="45.850819832454214" lon="14.128180599467214"><ele>762.0</ele><time>2026-05-01T16:05:46Z</time></trkpt><trkpt lat="45.85092793470389" lon="14.128197659584988"><ele>762.0</ele><time>2026-05-01T16:05:48Z</time></trkpt><trkpt lat="45.850994289801456" lon="14.1283312458393"><ele>762.0</ele><time>2026-05-01T16:05:50Z</time></trkpt><trkpt lat="45.85098259405801" lon="14.128534716813284"><ele>762.0</ele><time>2026-05-01T16:05:52Z</time></trkpt><trkpt lat="45.850965411933664" lon="14.128649726909895"><ele>762.0</ele><time>2026-05-01T16:05:53Z</time></trkpt><trkpt lat="45.85092281931905" lon="14.128758932718826"><ele>762.0</ele><time>2026-05-01T16:05:54Z</time></trkpt><trkpt lat="45.850863040346574" lon="14.128863484807589"><ele>762.0</ele><time>2026-05-01T16:05:55Z</time></trkpt><trkpt lat="45.8507832612147" lon="14.128984000698647"><ele>762.0</ele><time>2026-05-01T16:05:56Z</time></trkpt><trkpt lat="45.850703147465325" lon="14.12911203086892"><ele>762.0</ele><time>2026-05-01T16:05:57Z</time></trkpt><trkpt lat="45.85063363422841" lon="14.12923143312088"><ele>762.0</ele><time>2026-05-01T16:05:58Z</time></trkpt><trkpt lat="45.85057363716406" lon="14.129350986923672"><ele>761.2</ele><time>2026-05-01T16:05:59Z</time></trkpt><trkpt lat="45.85051349231619" lon="14.129476153814599"><ele>760.4000000000001</ele><time>2026-05-01T16:06:00Z</time></trkpt><trkpt lat="45.85046604498117" lon="14.12961254117923"><ele>759.5999999999999</ele><time>2026-05-01T16:06:01Z</time></trkpt><trkpt lat="45.85041433427617" lon="14.129738361947945"><ele>758.8</ele><time>2026-05-01T16:06:02Z</time></trkpt><trkpt lat="45.850358105982934" lon="14.129861642524329"><ele>758.0</ele><time>2026-05-01T16:06:03Z</time></trkpt><trkpt lat="45.8503051515265" lon="14.129998471170351"><ele>759.5999999999999</ele><time>2026-05-01T16:06:04Z</time></trkpt><trkpt lat="45.850270969621995" lon="14.130154628272125"><ele>761.1999999999999</ele><time>2026-05-01T16:06:05Z</time></trkpt><trkpt lat="45.85024379188612" lon="14.130308781090958"><ele>762.8</ele><time>2026-05-01T16:06:06Z</time></trkpt><trkpt lat="45.85022281825835" lon="14.130443768887737"><ele>764.4</ele><time>2026-05-01T16:06:07Z</time></trkpt><trkpt lat="45.850206607902315" lon="14.13056591835605"><ele>766.0</ele><time>2026-05-01T16:06:08Z</time></trkpt><trkpt lat="45.85019067696732" lon="14.13067295947284"><ele>766.4</ele><time>2026-05-01T16:06:09Z</time></trkpt><trkpt lat="45.850169254130805" lon="14.130777962055777"><ele>766.8</ele><time>2026-05-01T16:06:10Z</time></trkpt><trkpt lat="45.85011892664672" lon="14.130905423020913"><ele>767.1999999999999</ele><time>2026-05-01T16:06:11Z</time></trkpt><trkpt lat="45.85005070012171" lon="14.131001652011484"><ele>767.5999999999999</ele><time>2026-05-01T16:06:12Z</time></trkpt><trkpt lat="45.8499487908399" lon="14.131109288239742"><ele>768.0</ele><time>2026-05-01T16:06:13Z</time></trkpt><trkpt lat="45.84986378665866" lon="14.131208068956385"><ele>766.6666666666666</ele><time>2026-05-01T16:06:14Z</time></trkpt><trkpt lat="45.84979025636186" lon="14.131295435675204"><ele>765.3333333333334</ele><time>2026-05-01T16:06:15Z</time></trkpt><trkpt lat="45.84972664822119" lon="14.131378001315406"><ele>764.0</ele><time>2026-05-01T16:06:16Z</time></trkpt><trkpt lat="45.84966163028765" lon="14.1314618078801"><ele>762.6666666666667</ele><time>2026-05-01T16:06:17Z</time></trkpt><trkpt lat="45.849623869034275" lon="14.131550996006979"><ele>761.3333333333334</ele><time>2026-05-01T16:06:18Z</time></trkpt><trkpt lat="45.84961485912888" lon="14.131699473872155"><ele>760.0</ele><time>2026-05-01T16:06:20Z</time></trkpt><trkpt lat="45.849634916373766" lon="14.131788124669342"><ele>760.0</ele><time>2026-05-01T16:06:21Z</time></trkpt><trkpt lat="45.84966012660541" lon="14.131879110220158"><ele>760.0</ele><time>2026-05-01T16:06:22Z</time></trkpt><trkpt lat="45.84969900618015" lon="14.131965853296185"><ele>760.0</ele><time>2026-05-01T16:06:23Z</time></trkpt><trkpt lat="45.84974885791936" lon="14.132050161627655"><ele>760.0</ele><time>2026-05-01T16:06:24Z</time></trkpt><trkpt lat="45.84980641893234" lon="14.132116654630785"><ele>760.0</ele><time>2026-05-01T16:06:25Z</time></trkpt><trkpt lat="45.84987017381727" lon="14.132151968480327"><ele>760.0</ele><time>2026-05-01T16:06:26Z</time></trkpt><trkpt lat="45.84994301968224" lon="14.132167064516576"><ele>760.0</ele><time>2026-05-01T16:06:27Z</time></trkpt><trkpt lat="45.85003119010006" lon="14.132157062312379"><ele>762.2</ele><time>2026-05-01T16:06:28Z</time></trkpt><trkpt lat="45.85012723626238" lon="14.13214433429869"><ele>764.4</ele><time>2026-05-01T16:06:29Z</time></trkpt><trkpt lat="45.85022358306825" lon="14.132139447975273"><ele>766.5999999999999</ele><time>2026-05-01T16:06:30Z</time></trkpt><trkpt lat="45.85031304350923" lon="14.13216879892315"><ele>768.8</ele><time>2026-05-01T16:06:31Z</time></trkpt><trkpt lat="45.85038065670942" lon="14.132262999965008"><ele>771.0</ele><time>2026-05-01T16:06:32Z</time></trkpt><trkpt lat="45.85043014766841" lon="14.132382884920785"><ele>771.1999999999999</ele><time>2026-05-01T16:06:33Z</time></trkpt><trkpt lat="45.850453886638874" lon="14.132530913441322"><ele>771.4</ele><time>2026-05-01T16:06:34Z</time></trkpt><trkpt lat="45.85045066492583" lon="14.132650317731601"><ele>771.6</ele><time>2026-05-01T16:06:35Z</time></trkpt><trkpt lat="45.850428034584205" lon="14.132777603536658"><ele>771.8</ele><time>2026-05-01T16:06:36Z</time></trkpt><trkpt lat="45.85036987255776" lon="14.132877659030834"><ele>772.0</ele><time>2026-05-01T16:06:37Z</time></trkpt><trkpt lat="45.85029595133405" lon="14.132980970113973"><ele>772.0</ele><time>2026-05-01T16:06:38Z</time></trkpt><trkpt lat="45.85019826537869" lon="14.133095717277481"><ele>772.0</ele><time>2026-05-01T16:06:39Z</time></trkpt><trkpt lat="45.85011314841969" lon="14.133199840433246"><ele>772.0</ele><time>2026-05-01T16:06:40Z</time></trkpt><trkpt lat="45.85004622024126" lon="14.133268236975807"><ele>772.0</ele><time>2026-05-01T16:06:41Z</time></trkpt><trkpt lat="45.84996332726917" lon="14.133378937366555"><ele>772.0</ele><time>2026-05-01T16:06:43Z</time></trkpt><trkpt lat="45.84996172938921" lon="14.133546074342117"><ele>771.0</ele><time>2026-05-01T16:06:45Z</time></trkpt><trkpt lat="45.85003126228725" lon="14.133712079882223"><ele>770.0</ele><time>2026-05-01T16:06:47Z</time></trkpt><trkpt lat="45.85009430797996" lon="14.133789364458146"><ele>769.0</ele><time>2026-05-01T16:06:48Z</time></trkpt><trkpt lat="45.85017337911572" lon="14.13387547602075"><ele>768.0</ele><time>2026-05-01T16:06:49Z</time></trkpt><trkpt lat="45.85025348381166" lon="14.133938652524586"><ele>767.0</ele><time>2026-05-01T16:06:50Z</time></trkpt><trkpt lat="45.85036681527036" lon="14.13400357739583"><ele>764.0</ele><time>2026-05-01T16:06:51Z</time></trkpt><trkpt lat="45.85049393041085" lon="14.134080826950676"><ele>761.0</ele><time>2026-05-01T16:06:52Z</time></trkpt><trkpt lat="45.850603917491206" lon="14.134165645415031"><ele>758.0</ele><time>2026-05-01T16:06:53Z</time></trkpt><trkpt lat="45.85069113959467" lon="14.13425354487459"><ele>755.0</ele><time>2026-05-01T16:06:54Z</time></trkpt><trkpt lat="45.85078232274532" lon="14.134352363487931"><ele>755.0</ele><time>2026-05-01T16:06:55Z</time></trkpt><trkpt lat="45.85085667948483" lon="14.134491550831648"><ele>755.0</ele><time>2026-05-01T16:06:56Z</time></trkpt><trkpt lat="45.85091948697454" lon="14.134631428041079"><ele>755.0</ele><time>2026-05-01T16:06:57Z</time></trkpt><trkpt lat="45.850985884793396" lon="14.134758606938458"><ele>755.0</ele><time>2026-05-01T16:06:58Z</time></trkpt><trkpt lat="45.85104698159683" lon="14.134872477194728"><ele>755.0</ele><time>2026-05-01T16:06:59Z</time></trkpt><trkpt lat="45.851105959573346" lon="14.134969355510075"><ele>754.5</ele><time>2026-05-01T16:07:00Z</time></trkpt><trkpt lat="45.8511746866258" lon="14.135053858890817"><ele>754.0</ele><time>2026-05-01T16:07:01Z</time></trkpt><trkpt lat="45.85125146070811" lon="14.135110140170454"><ele>753.5</ele><time>2026-05-01T16:07:02Z</time></trkpt><trkpt lat="45.85133434332319" lon="14.135150142424372"><ele>753.0</ele><time>2026-05-01T16:07:03Z</time></trkpt><trkpt lat="45.851419857202174" lon="14.135177721841726"><ele>752.5</ele><time>2026-05-01T16:07:04Z</time></trkpt><trkpt lat="45.85151044035867" lon="14.135167121339185"><ele>752.0</ele><time>2026-05-01T16:07:05Z</time></trkpt><trkpt lat="45.85159947348226" lon="14.135142132449273"><ele>752.0</ele><time>2026-05-01T16:07:06Z</time></trkpt><trkpt lat="45.85168867657101" lon="14.135108680342293"><ele>752.0</ele><time>2026-05-01T16:07:07Z</time></trkpt><trkpt lat="45.851763819547095" lon="14.135056008056333"><ele>752.0</ele><time>2026-05-01T16:07:08Z</time></trkpt><trkpt lat="45.85182593723797" lon="14.134995375157121"><ele>752.0</ele><time>2026-05-01T16:07:09Z</time></trkpt><trkpt lat="45.851883482860515" lon="14.134927573990156"><ele>752.0</ele><time>2026-05-01T16:07:10Z</time></trkpt><trkpt lat="45.851953924684274" lon="14.134836707567624"><ele>752.0</ele><time>2026-05-01T16:07:11Z</time></trkpt><trkpt lat="45.85202989724708" lon="14.134784439025555"><ele>754.8</ele><time>2026-05-01T16:07:12Z</time></trkpt><trkpt lat="45.852125670407695" lon="14.134784582374717"><ele>757.6</ele><time>2026-05-01T16:07:13Z</time></trkpt><trkpt lat="45.852222253707744" lon="14.134818921088838"><ele>760.4</ele><time>2026-05-01T16:07:14Z</time></trkpt><trkpt lat="45.85229400597402" lon="14.134895572957472"><ele>763.1999999999999</ele><time>2026-05-01T16:07:15Z</time></trkpt><trkpt lat="45.85233930450358" lon="14.13499678254921"><ele>766.0</ele><time>2026-05-01T16:07:16Z</time></trkpt><trkpt lat="45.85237630712419" lon="14.13510910312388"><ele>766.0</ele><time>2026-05-01T16:07:17Z</time></trkpt><trkpt lat="45.85237804263848" lon="14.135245269951012"><ele>766.0</ele><time>2026-05-01T16:07:18Z</time></trkpt><trkpt lat="45.85236060523638" lon="14.135405215787959"><ele>766.0</ele><time>2026-05-01T16:07:19Z</time></trkpt><trkpt lat="45.85233298762491" lon="14.135578855086631"><ele>766.0</ele><time>2026-05-01T16:07:20Z</time></trkpt><trkpt lat="45.85230155325758" lon="14.135729597658178"><ele>766.0</ele><time>2026-05-01T16:07:21Z</time></trkpt><trkpt lat="45.85227374510246" lon="14.135859139490979"><ele>764.6666666666667</ele><time>2026-05-01T16:07:22Z</time></trkpt><trkpt lat="45.852249751237025" lon="14.135989867980616"><ele>763.3333333333334</ele><time>2026-05-01T16:07:23Z</time></trkpt><trkpt lat="45.85223339320652" lon="14.136110523008615"><ele>762.0</ele><time>2026-05-01T16:07:24Z</time></trkpt><trkpt lat="45.85223368479808" lon="14.136217781828362"><ele>760.6666666666666</ele><time>2026-05-01T16:07:25Z</time></trkpt><trkpt lat="45.85224849525278" lon="14.136328852676272"><ele>759.3333333333333</ele><time>2026-05-01T16:07:26Z</time></trkpt><trkpt lat="45.85229359525492" lon="14.136435817961535"><ele>758.0</ele><time>2026-05-01T16:07:27Z</time></trkpt><trkpt lat="45.85235054351202" lon="14.136523195048822"><ele>758.2</ele><time>2026-05-01T16:07:28Z</time></trkpt><trkpt lat="45.85242210309453" lon="14.136606087400116"><ele>758.4</ele><time>2026-05-01T16:07:29Z</time></trkpt><trkpt lat="45.852490412599174" lon="14.136682901545715"><ele>758.6</ele><time>2026-05-01T16:07:30Z</time></trkpt><trkpt lat="45.85255369049361" lon="14.136761857736298"><ele>758.8000000000001</ele><time>2026-05-01T16:07:31Z</time></trkpt><trkpt lat="45.85262095007822" lon="14.136879416849922"><ele>759.0</ele><time>2026-05-01T16:07:32Z</time></trkpt><trkpt lat="45.85267337659279" lon="14.136998017630907"><ele>759.0</ele><time>2026-05-01T16:07:33Z</time></trkpt><trkpt lat="45.85271278847808" lon="14.137124214246732"><ele>759.0</ele><time>2026-05-01T16:07:34Z</time></trkpt><trkpt lat="45.8527379698852" lon="14.137256402814574"><ele>759.0</ele><time>2026-05-01T16:07:35Z</time></trkpt><trkpt lat="45.85274150072944" lon="14.137387707022942"><ele>759.0</ele><time>2026-05-01T16:07:36Z</time></trkpt><trkpt lat="45.85274334295055" lon="14.137519713928407"><ele>759.0</ele><time>2026-05-01T16:07:37Z</time></trkpt><trkpt lat="45.85274719735422" lon="14.137643858565738"><ele>759.0</ele><time>2026-05-01T16:07:38Z</time></trkpt><trkpt lat="45.852782758679936" lon="14.137770059197406"><ele>759.0</ele><time>2026-05-01T16:07:39Z</time></trkpt><trkpt lat="45.852830419356096" lon="14.137881983135696"><ele>759.0</ele><time>2026-05-01T16:07:40Z</time></trkpt><trkpt lat="45.85290210386008" lon="14.137975056077131"><ele>759.0</ele><time>2026-05-01T16:07:41Z</time></trkpt><trkpt lat="45.85298584262284" lon="14.138057806941458"><ele>759.0</ele><time>2026-05-01T16:07:42Z</time></trkpt><trkpt lat="45.85307011100873" lon="14.138132772925852"><ele>759.0</ele><time>2026-05-01T16:07:43Z</time></trkpt><trkpt lat="45.853153836589925" lon="14.138182280822775"><ele>759.0</ele><time>2026-05-01T16:07:44Z</time></trkpt><trkpt lat="45.85324154810271" lon="14.13819222698799"><ele>759.0</ele><time>2026-05-01T16:07:45Z</time></trkpt><trkpt lat="45.85332875711818" lon="14.138171705321838"><ele>759.0</ele><time>2026-05-01T16:07:46Z</time></trkpt><trkpt lat="45.85341143333757" lon="14.138128229278214"><ele>759.0</ele><time>2026-05-01T16:07:47Z</time></trkpt><trkpt lat="45.85349273117967" lon="14.138062781529337"><ele>759.0</ele><time>2026-05-01T16:07:48Z</time></trkpt><trkpt lat="45.85356981936875" lon="14.138007786216948"><ele>759.6666666666666</ele><time>2026-05-01T16:07:49Z</time></trkpt><trkpt lat="45.85366001268716" lon="14.1379909230723"><ele>760.3333333333334</ele><time>2026-05-01T16:07:50Z</time></trkpt><trkpt lat="45.853740771905855" lon="14.13803113497689"><ele>761.0</ele><time>2026-05-01T16:07:51Z</time></trkpt><trkpt lat="45.853806203679525" lon="14.138108964415535"><ele>761.6666666666667</ele><time>2026-05-01T16:07:52Z</time></trkpt><trkpt lat="45.853835885994606" lon="14.138230410120896"><ele>762.3333333333334</ele><time>2026-05-01T16:07:53Z</time></trkpt><trkpt lat="45.853830107709776" lon="14.13834402681686"><ele>763.0</ele><time>2026-05-01T16:07:54Z</time></trkpt><trkpt lat="45.8538170086414" lon="14.138454515856019"><ele>763.0</ele><time>2026-05-01T16:07:55Z</time></trkpt><trkpt lat="45.853795915795345" lon="14.138562682152028"><ele>763.0</ele><time>2026-05-01T16:07:56Z</time></trkpt><trkpt lat="45.8537974752806" lon="14.138674136145687"><ele>763.0</ele><time>2026-05-01T16:07:57Z</time></trkpt><trkpt lat="45.85383008749634" lon="14.138790197614572"><ele>763.0</ele><time>2026-05-01T16:07:58Z</time></trkpt><trkpt lat="45.853879400758025" lon="14.138907296210288"><ele>763.0</ele><time>2026-05-01T16:07:59Z</time></trkpt><trkpt lat="45.85393018310575" lon="14.139009863364324"><ele>763.0</ele><time>2026-05-01T16:08:00Z</time></trkpt><trkpt lat="45.8539866873646" lon="14.13911153389761"><ele>760.0</ele><time>2026-05-01T16:08:01Z</time></trkpt><trkpt lat="45.85404886584934" lon="14.139214784919616"><ele>757.0</ele><time>2026-05-01T16:08:02Z</time></trkpt><trkpt lat="45.854103252923" lon="14.139310970752387"><ele>754.0</ele><time>2026-05-01T16:08:03Z</time></trkpt><trkpt lat="45.85413429542094" lon="14.139419248827908"><ele>751.0</ele><time>2026-05-01T16:08:04Z</time></trkpt><trkpt lat="45.85414072121564" lon="14.139539022343772"><ele>748.0</ele><time>2026-05-01T16:08:05Z</time></trkpt><trkpt lat="45.85413851149996" lon="14.139656876037607"><ele>745.0</ele><time>2026-05-01T16:08:06Z</time></trkpt><trkpt lat="45.854135969524634" lon="14.139764040424856"><ele>745.0</ele><time>2026-05-01T16:08:07Z</time></trkpt><trkpt lat="45.854170017089324" lon="14.139862760538787"><ele>745.0</ele><time>2026-05-01T16:08:08Z</time></trkpt><trkpt lat="45.85422200895962" lon="14.139966522283663"><ele>745.0</ele><time>2026-05-01T16:08:09Z</time></trkpt><trkpt lat="45.85428173203473" lon="14.14005008666221"><ele>745.0</ele><time>2026-05-01T16:08:10Z</time></trkpt><trkpt lat="45.85433856183043" lon="14.140129698338074"><ele>745.0</ele><time>2026-05-01T16:08:11Z</time></trkpt><trkpt lat="45.85438166634369" lon="14.140223784882737"><ele>745.0</ele><time>2026-05-01T16:08:12Z</time></trkpt><trkpt lat="45.854410263306555" lon="14.140345878248716"><ele>745.0</ele><time>2026-05-01T16:08:13Z</time></trkpt><trkpt lat="45.85441932184006" lon="14.140474265196833"><ele>745.0</ele><time>2026-05-01T16:08:14Z</time></trkpt><trkpt lat="45.854422809782676" lon="14.140612225751811"><ele>745.0</ele><time>2026-05-01T16:08:15Z</time></trkpt><trkpt lat="45.85444942596989" lon="14.140728696018893"><ele>745.0</ele><time>2026-05-01T16:08:16Z</time></trkpt><trkpt lat="45.85449652463395" lon="14.140821483234989"><ele>745.0</ele><time>2026-05-01T16:08:17Z</time></trkpt><trkpt lat="45.85455117505571" lon="14.140890440894925"><ele>745.0</ele><time>2026-05-01T16:08:18Z</time></trkpt><trkpt lat="45.854619665966915" lon="14.140955742181298"><ele>742.6</ele><time>2026-05-01T16:08:19Z</time></trkpt><trkpt lat="45.854705959546195" lon="14.140996061725543"><ele>740.2</ele><time>2026-05-01T16:08:20Z</time></trkpt><trkpt lat="45.854791561516016" lon="14.141050786459312"><ele>737.8</ele><time>2026-05-01T16:08:21Z</time></trkpt><trkpt lat="45.85488651624581" lon="14.141108250133202"><ele>735.4</ele><time>2026-05-01T16:08:22Z</time></trkpt><trkpt lat="45.85495824006149" lon="14.14119636049135"><ele>733.0</ele><time>2026-05-01T16:08:23Z</time></trkpt><trkpt lat="45.85501230206649" lon="14.141310147278903"><ele>733.0</ele><time>2026-05-01T16:08:24Z</time></trkpt><trkpt lat="45.8550566746735" lon="14.14143721604868"><ele>733.0</ele><time>2026-05-01T16:08:25Z</time></trkpt><trkpt lat="45.85510142150808" lon="14.141570268865959"><ele>733.0</ele><time>2026-05-01T16:08:26Z</time></trkpt><trkpt lat="45.85515730937395" lon="14.141698374859462"><ele>733.0</ele><time>2026-05-01T16:08:27Z</time></trkpt><trkpt lat="45.8552032964565" lon="14.141834595394492"><ele>733.0</ele><time>2026-05-01T16:08:28Z</time></trkpt><trkpt lat="45.85523774845924" lon="14.14197273403013"><ele>732.0</ele><time>2026-05-01T16:08:29Z</time></trkpt><trkpt lat="45.85526932939871" lon="14.142105794378203"><ele>731.0</ele><time>2026-05-01T16:08:30Z</time></trkpt><trkpt lat="45.855293282263304" lon="14.14222293146224"><ele>730.0</ele><time>2026-05-01T16:08:31Z</time></trkpt><trkpt lat="45.85530240800461" lon="14.142341057111267"><ele>729.0</ele><time>2026-05-01T16:08:32Z</time></trkpt><trkpt lat="45.85528227814629" lon="14.142457006636123"><ele>728.0</ele><time>2026-05-01T16:08:33Z</time></trkpt><trkpt lat="45.85523320621474" lon="14.142562443781458"><ele>727.0</ele><time>2026-05-01T16:08:34Z</time></trkpt><trkpt lat="45.85517865893305" lon="14.142682043763855"><ele>727.0</ele><time>2026-05-01T16:08:35Z</time></trkpt><trkpt lat="45.85513610772127" lon="14.142813000322136"><ele>727.0</ele><time>2026-05-01T16:08:36Z</time></trkpt><trkpt lat="45.8551088476127" lon="14.14293034639581"><ele>727.0</ele><time>2026-05-01T16:08:37Z</time></trkpt><trkpt lat="45.855069285017485" lon="14.143023123091163"><ele>727.0</ele><time>2026-05-01T16:08:38Z</time></trkpt><trkpt lat="45.85499937214811" lon="14.143083603572247"><ele>727.0</ele><time>2026-05-01T16:08:39Z</time></trkpt><trkpt lat="45.85491302035803" lon="14.143110371499393"><ele>727.0</ele><time>2026-05-01T16:08:40Z</time></trkpt><trkpt lat="45.854808890214024" lon="14.143155328750654"><ele>726.8</ele><time>2026-05-01T16:08:41Z</time></trkpt><trkpt lat="45.85470985594235" lon="14.143220821714522"><ele>726.6</ele><time>2026-05-01T16:08:42Z</time></trkpt><trkpt lat="45.85462823487719" lon="14.143276638118135"><ele>726.4</ele><time>2026-05-01T16:08:43Z</time></trkpt><trkpt lat="45.8545470590539" lon="14.143345342322625"><ele>726.1999999999999</ele><time>2026-05-01T16:08:44Z</time></trkpt><trkpt lat="45.85445466965219" lon="14.143400655729506"><ele>726.0</ele><time>2026-05-01T16:08:45Z</time></trkpt><trkpt lat="45.854366956630685" lon="14.143443924106979"><ele>726.5999999999999</ele><time>2026-05-01T16:08:46Z</time></trkpt><trkpt lat="45.854271863621555" lon="14.143455156151239"><ele>727.2</ele><time>2026-05-01T16:08:47Z</time></trkpt><trkpt lat="45.85416066725557" lon="14.14344262542436"><ele>727.8</ele><time>2026-05-01T16:08:48Z</time></trkpt><trkpt lat="45.854049653269996" lon="14.143401734903867"><ele>728.4000000000001</ele><time>2026-05-01T16:08:49Z</time></trkpt><trkpt lat="45.85394017125401" lon="14.143365875442315"><ele>729.0</ele><time>2026-05-01T16:08:50Z</time></trkpt><trkpt lat="45.853842442753546" lon="14.143351888447521"><ele>729.0</ele><time>2026-05-01T16:08:51Z</time></trkpt><trkpt lat="45.85375196377511" lon="14.143359183581492"><ele>729.0</ele><time>2026-05-01T16:08:52Z</time></trkpt><trkpt lat="45.853673479744664" lon="14.143401024541626"><ele>729.0</ele><time>2026-05-01T16:08:53Z</time></trkpt><trkpt lat="45.853610307083834" lon="14.143456437691247"><ele>729.0</ele><time>2026-05-01T16:08:54Z</time></trkpt><trkpt lat="45.85355812586816" lon="14.14352497313695"><ele>729.0</ele><time>2026-05-01T16:08:55Z</time></trkpt><trkpt lat="45.853512770057556" lon="14.143594252758463"><ele>729.0</ele><time>2026-05-01T16:08:56Z</time></trkpt><trkpt lat="45.853485489434405" lon="14.143724962889664"><ele>729.0</ele><time>2026-05-01T16:08:58Z</time></trkpt><trkpt lat="45.8535306598012" lon="14.143842471819582"><ele>729.0</ele><time>2026-05-01T16:09:00Z</time></trkpt><trkpt lat="45.85362875743429" lon="14.143946437886655"><ele>729.0</ele><time>2026-05-01T16:09:02Z</time></trkpt><trkpt lat="45.85369605627976" lon="14.143994434211162"><ele>729.0</ele><time>2026-05-01T16:09:03Z</time></trkpt><trkpt lat="45.85378960246308" lon="14.144061617291698"><ele>729.0</ele><time>2026-05-01T16:09:04Z</time></trkpt><trkpt lat="45.85390721807109" lon="14.144159171849696"><ele>727.75</ele><time>2026-05-01T16:09:05Z</time></trkpt><trkpt lat="45.854051896934436" lon="14.1442609441554"><ele>726.5</ele><time>2026-05-01T16:09:06Z</time></trkpt><trkpt lat="45.854176016569724" lon="14.14434965527149"><ele>725.25</ele><time>2026-05-01T16:09:07Z</time></trkpt><trkpt lat="45.85428202126351" lon="14.144433234903623"><ele>724.0</ele><time>2026-05-01T16:09:08Z</time></trkpt><trkpt lat="45.85436614833107" lon="14.14451298372539"><ele>724.0</ele><time>2026-05-01T16:09:09Z</time></trkpt><trkpt lat="45.85445082449152" lon="14.144580654523617"><ele>724.0</ele><time>2026-05-01T16:09:10Z</time></trkpt><trkpt lat="45.85454719628908" lon="14.144619830836472"><ele>724.0</ele><time>2026-05-01T16:09:11Z</time></trkpt><trkpt lat="45.854649579858" lon="14.14462386722573"><ele>724.0</ele><time>2026-05-01T16:09:12Z</time></trkpt><trkpt lat="45.85475119701195" lon="14.144611882446684"><ele>724.0</ele><time>2026-05-01T16:09:13Z</time></trkpt><trkpt lat="45.85485272755437" lon="14.144606188667717"><ele>724.0</ele><time>2026-05-01T16:09:14Z</time></trkpt><trkpt lat="45.8549559515249" lon="14.144624365205036"><ele>724.0</ele><time>2026-05-01T16:09:15Z</time></trkpt><trkpt lat="45.855058068540366" lon="14.144660765073183"><ele>724.0</ele><time>2026-05-01T16:09:16Z</time></trkpt><trkpt lat="45.85515643529449" lon="14.14468620542313"><ele>724.0</ele><time>2026-05-01T16:09:17Z</time></trkpt><trkpt lat="45.85525420492811" lon="14.144673282892814"><ele>724.0</ele><time>2026-05-01T16:09:18Z</time></trkpt><trkpt lat="45.85535486377365" lon="14.144626746703564"><ele>726.6</ele><time>2026-05-01T16:09:19Z</time></trkpt><trkpt lat="45.855455985951615" lon="14.144572394328895"><ele>729.2</ele><time>2026-05-01T16:09:20Z</time></trkpt><trkpt lat="45.85555040963144" lon="14.144518574426387"><ele>731.8000000000001</ele><time>2026-05-01T16:09:21Z</time></trkpt><trkpt lat="45.855645222592244" lon="14.144479901074813"><ele>734.4000000000001</ele><time>2026-05-01T16:09:22Z</time></trkpt><trkpt lat="45.85574669572364" lon="14.144454050825965"><ele>737.0</ele><time>2026-05-01T16:09:23Z</time></trkpt><trkpt lat="45.85584714653994" lon="14.144476195782582"><ele>737.0</ele><time>2026-05-01T16:09:24Z</time></trkpt><trkpt lat="45.85594788017382" lon="14.144522629099642"><ele>737.0</ele><time>2026-05-01T16:09:25Z</time></trkpt><trkpt lat="45.85604401596337" lon="14.144573770300095"><ele>737.0</ele><time>2026-05-01T16:09:26Z</time></trkpt><trkpt lat="45.85614270299046" lon="14.144622522679205"><ele>737.0</ele><time>2026-05-01T16:09:27Z</time></trkpt><trkpt lat="45.856233214956575" lon="14.144607139986531"><ele>737.0</ele><time>2026-05-01T16:09:28Z</time></trkpt><trkpt lat="45.85630743086792" lon="14.14456245251677"><ele>736.6</ele><time>2026-05-01T16:09:29Z</time></trkpt><trkpt lat="45.85637615977526" lon="14.144485325281456"><ele>736.2</ele><time>2026-05-01T16:09:30Z</time></trkpt><trkpt lat="45.856427164303234" lon="14.144354430827978"><ele>735.8</ele><time>2026-05-01T16:09:31Z</time></trkpt><trkpt lat="45.85644953335851" lon="14.144200336648204"><ele>735.4</ele><time>2026-05-01T16:09:32Z</time></trkpt><trkpt lat="45.85646789474471" lon="14.144071561102997"><ele>735.0</ele><time>2026-05-01T16:09:33Z</time></trkpt><trkpt lat="45.856527172656264" lon="14.14399038013064"><ele>735.0</ele><time>2026-05-01T16:09:34Z</time></trkpt><trkpt lat="45.85661489866143" lon="14.143931118352281"><ele>735.0</ele><time>2026-05-01T16:09:35Z</time></trkpt><trkpt lat="45.85672560633635" lon="14.14385326614802"><ele>735.0</ele><time>2026-05-01T16:09:36Z</time></trkpt><trkpt lat="45.85686419898413" lon="14.143756486954333"><ele>735.0</ele><time>2026-05-01T16:09:37Z</time></trkpt><trkpt lat="45.85698305375814" lon="14.143678611655217"><ele>735.2</ele><time>2026-05-01T16:09:38Z</time></trkpt><trkpt lat="45.857089658425245" lon="14.14365449576019"><ele>735.4</ele><time>2026-05-01T16:09:39Z</time></trkpt><trkpt lat="45.85718984188713" lon="14.143648656871932"><ele>735.5999999999999</ele><time>2026-05-01T16:09:40Z</time></trkpt><trkpt lat="45.85729165645661" lon="14.143674578592343"><ele>735.8</ele><time>2026-05-01T16:09:41Z</time></trkpt><trkpt lat="45.85738093861404" lon="14.143698356297488"><ele>736.0</ele><time>2026-05-01T16:09:42Z</time></trkpt><trkpt lat="45.85746201302544" lon="14.14373450307191"><ele>736.0</ele><time>2026-05-01T16:09:43Z</time></trkpt><trkpt lat="45.85754177904459" lon="14.143814200378298"><ele>736.0</ele><time>2026-05-01T16:09:44Z</time></trkpt><trkpt lat="45.85761222228494" lon="14.14390489191801"><ele>736.0</ele><time>2026-05-01T16:09:45Z</time></trkpt><trkpt lat="45.85767280600628" lon="14.144007082855818"><ele>736.0</ele><time>2026-05-01T16:09:46Z</time></trkpt><trkpt lat="45.85773529094649" lon="14.144125239183595"><ele>736.0</ele><time>2026-05-01T16:09:47Z</time></trkpt><trkpt lat="45.857805301412554" lon="14.144218080269825"><ele>737.1999999999999</ele><time>2026-05-01T16:09:48Z</time></trkpt><trkpt lat="45.85787398200217" lon="14.144316246604513"><ele>738.4</ele><time>2026-05-01T16:09:49Z</time></trkpt><trkpt lat="45.85794953743701" lon="14.144408559099109"><ele>739.6</ele><time>2026-05-01T16:09:50Z</time></trkpt><trkpt lat="45.85803070999439" lon="14.144495020269026"><ele>740.8</ele><time>2026-05-01T16:09:51Z</time></trkpt><trkpt lat="45.85810273958964" lon="14.144580498658627"><ele>742.0</ele><time>2026-05-01T16:09:52Z</time></trkpt><trkpt lat="45.85816149694634" lon="14.144661526281645"><ele>742.0</ele><time>2026-05-01T16:09:53Z</time></trkpt><trkpt lat="45.85822886366969" lon="14.14473836554592"><ele>742.0</ele><time>2026-05-01T16:09:54Z</time></trkpt><trkpt lat="45.8583059055906" lon="14.144809031387977"><ele>742.0</ele><time>2026-05-01T16:09:55Z</time></trkpt><trkpt lat="45.85839096770231" lon="14.144858452513683"><ele>742.0</ele><time>2026-05-01T16:09:56Z</time></trkpt><trkpt lat="45.85848694802361" lon="14.144879625001847"><ele>742.0</ele><time>2026-05-01T16:09:57Z</time></trkpt><trkpt lat="45.85858241258765" lon="14.144883594529356"><ele>742.8</ele><time>2026-05-01T16:09:58Z</time></trkpt><trkpt lat="45.858672719108796" lon="14.144873237652899"><ele>743.6</ele><time>2026-05-01T16:09:59Z</time></trkpt><trkpt lat="45.85876271225148" lon="14.144860265539766"><ele>744.4</ele><time>2026-05-01T16:10:00Z</time></trkpt><trkpt lat="45.85885466833394" lon="14.144852325693801"><ele>745.1999999999999</ele><time>2026-05-01T16:10:01Z</time></trkpt><trkpt lat="45.85894868874435" lon="14.14484463686821"><ele>746.0</ele><time>2026-05-01T16:10:02Z</time></trkpt><trkpt lat="45.85904219015808" lon="14.144824627159183"><ele>746.0</ele><time>2026-05-01T16:10:03Z</time></trkpt><trkpt lat="45.85913489330111" lon="14.144797483429977"><ele>746.0</ele><time>2026-05-01T16:10:04Z</time></trkpt><trkpt lat="45.85921809150475" lon="14.1447374991103"><ele>746.0</ele><time>2026-05-01T16:10:05Z</time></trkpt><trkpt lat="45.859291741758106" lon="14.144671364447996"><ele>746.0</ele><time>2026-05-01T16:10:06Z</time></trkpt><trkpt lat="45.85935841412791" lon="14.144590888981764"><ele>746.0</ele><time>2026-05-01T16:10:07Z</time></trkpt><trkpt lat="45.85942366808962" lon="14.144535296013828"><ele>746.0</ele><time>2026-05-01T16:10:08Z</time></trkpt><trkpt lat="45.859491468457485" lon="14.144510142336303"><ele>745.7142857142858</ele><time>2026-05-01T16:10:09Z</time></trkpt><trkpt lat="45.85955463668514" lon="14.144511885354293"><ele>745.4285714285714</ele><time>2026-05-01T16:10:10Z</time></trkpt><trkpt lat="45.85961755731236" lon="14.14450674164242"><ele>745.1428571428571</ele><time>2026-05-01T16:10:11Z</time></trkpt><trkpt lat="45.85968256093077" lon="14.144524959758606"><ele>744.8571428571429</ele><time>2026-05-01T16:10:12Z</time></trkpt><trkpt lat="45.85975701825384" lon="14.144552446184425"><ele>744.5714285714286</ele><time>2026-05-01T16:10:13Z</time></trkpt><trkpt lat="45.85982808209289" lon="14.144598531589747"><ele>744.2857142857143</ele><time>2026-05-01T16:10:14Z</time></trkpt><trkpt lat="45.85990692728829" lon="14.144649635249214"><ele>744.0</ele><time>2026-05-01T16:10:15Z</time></trkpt><trkpt lat="45.85998187587671" lon="14.144692742829621"><ele>744.0</ele><time>2026-05-01T16:10:16Z</time></trkpt><trkpt lat="45.860054881984254" lon="14.144739521795437"><ele>744.0</ele><time>2026-05-01T16:10:17Z</time></trkpt><trkpt lat="45.86011612859434" lon="14.144807955847451"><ele>744.0</ele><time>2026-05-01T16:10:18Z</time></trkpt><trkpt lat="45.86017410145909" lon="14.14489796856487"><ele>744.0</ele><time>2026-05-01T16:10:19Z</time></trkpt><trkpt lat="45.860232464189" lon="14.144991429983996"><ele>744.0</ele><time>2026-05-01T16:10:20Z</time></trkpt><trkpt lat="45.86029140775454" lon="14.145080267834846"><ele>744.0</ele><time>2026-05-01T16:10:21Z</time></trkpt><trkpt lat="45.86036812283131" lon="14.145159789115674"><ele>744.8000000000001</ele><time>2026-05-01T16:10:22Z</time></trkpt><trkpt lat="45.86045220219933" lon="14.145241900573101"><ele>745.6</ele><time>2026-05-01T16:10:23Z</time></trkpt><trkpt lat="45.86053710514236" lon="14.145304457550123"><ele>746.4</ele><time>2026-05-01T16:10:24Z</time></trkpt><trkpt lat="45.86062115338132" lon="14.145351493451342"><ele>747.2</ele><time>2026-05-01T16:10:25Z</time></trkpt><trkpt lat="45.86069987005868" lon="14.14540646384045"><ele>748.0</ele><time>2026-05-01T16:10:26Z</time></trkpt><trkpt lat="45.86077585155345" lon="14.145466800976227"><ele>748.0</ele><time>2026-05-01T16:10:27Z</time></trkpt><trkpt lat="45.860848303637205" lon="14.145520389546878"><ele>748.0</ele><time>2026-05-01T16:10:28Z</time></trkpt><trkpt lat="45.86093661637488" lon="14.145560265253508"><ele>748.0</ele><time>2026-05-01T16:10:29Z</time></trkpt><trkpt lat="45.86102825639435" lon="14.14559936886789"><ele>748.0</ele><time>2026-05-01T16:10:30Z</time></trkpt><trkpt lat="45.86111913586253" lon="14.14566102916443"><ele>748.0</ele><time>2026-05-01T16:10:31Z</time></trkpt><trkpt lat="45.861208795612846" lon="14.145757521320864"><ele>748.0</ele><time>2026-05-01T16:10:32Z</time></trkpt><trkpt lat="45.861294725362434" lon="14.14587571619826"><ele>748.0</ele><time>2026-05-01T16:10:33Z</time></trkpt><trkpt lat="45.861385288983236" lon="14.145977731653225"><ele>748.0</ele><time>2026-05-01T16:10:34Z</time></trkpt><trkpt lat="45.861482387281654" lon="14.1460577075645"><ele>748.0</ele><time>2026-05-01T16:10:35Z</time></trkpt><trkpt lat="45.8615708589706" lon="14.146129272429098"><ele>748.0</ele><time>2026-05-01T16:10:36Z</time></trkpt><trkpt lat="45.86164671628241" lon="14.146208554181332"><ele>748.0</ele><time>2026-05-01T16:10:37Z</time></trkpt><trkpt lat="45.861704047593385" lon="14.146320859060607"><ele>748.0</ele><time>2026-05-01T16:10:38Z</time></trkpt><trkpt lat="45.86176567155737" lon="14.146462188176088"><ele>748.0</ele><time>2026-05-01T16:10:39Z</time></trkpt><trkpt lat="45.861814361735284" lon="14.146576536204298"><ele>748.0</ele><time>2026-05-01T16:10:40Z</time></trkpt><trkpt lat="45.861862525200166" lon="14.146658830156609"><ele>748.0</ele><time>2026-05-01T16:10:41Z</time></trkpt><trkpt lat="45.86192145092066" lon="14.14671550435189"><ele>750.0</ele><time>2026-05-01T16:10:42Z</time></trkpt><trkpt lat="45.86200068377599" lon="14.146749515010862"><ele>752.0</ele><time>2026-05-01T16:10:43Z</time></trkpt><trkpt lat="45.86207955353763" lon="14.146753553806215"><ele>754.0</ele><time>2026-05-01T16:10:44Z</time></trkpt><trkpt lat="45.86215759779083" lon="14.14673411876421"><ele>756.0</ele><time>2026-05-01T16:10:45Z</time></trkpt><trkpt lat="45.86224849129217" lon="14.14674860086733"><ele>758.0</ele><time>2026-05-01T16:10:46Z</time></trkpt><trkpt lat="45.862339030930464" lon="14.146778130946256"><ele>760.0</ele><time>2026-05-01T16:10:47Z</time></trkpt><trkpt lat="45.862438600679425" lon="14.146826557020784"><ele>760.0</ele><time>2026-05-01T16:10:48Z</time></trkpt><trkpt lat="45.86253544263654" lon="14.14686540087066"><ele>760.0</ele><time>2026-05-01T16:10:49Z</time></trkpt><trkpt lat="45.86262843080733" lon="14.14691226281088"><ele>760.0</ele><time>2026-05-01T16:10:50Z</time></trkpt><trkpt lat="45.862709681534504" lon="14.14696293560413"><ele>760.0</ele><time>2026-05-01T16:10:51Z</time></trkpt><trkpt lat="45.86279043338418" lon="14.147048600521773"><ele>760.0</ele><time>2026-05-01T16:10:52Z</time></trkpt><trkpt lat="45.86287019763384" lon="14.147155236297642"><ele>758.75</ele><time>2026-05-01T16:10:53Z</time></trkpt><trkpt lat="45.86297190974271" lon="14.14726514283522"><ele>757.5</ele><time>2026-05-01T16:10:54Z</time></trkpt><trkpt lat="45.86306776218504" lon="14.147366992779695"><ele>756.25</ele><time>2026-05-01T16:10:55Z</time></trkpt><trkpt lat="45.86315639778549" lon="14.147449312682546"><ele>755.0</ele><time>2026-05-01T16:10:56Z</time></trkpt><trkpt lat="45.863243091009586" lon="14.147528175757731"><ele>756.0</ele><time>2026-05-01T16:10:57Z</time></trkpt><trkpt lat="45.86332883646396" lon="14.147604829384337"><ele>757.0</ele><time>2026-05-01T16:10:58Z</time></trkpt><trkpt lat="45.86341973145631" lon="14.147680263071601"><ele>758.0</ele><time>2026-05-01T16:10:59Z</time></trkpt><trkpt lat="45.863494267287784" lon="14.147763724287685"><ele>759.0</ele><time>2026-05-01T16:11:00Z</time></trkpt><trkpt lat="45.86354625392531" lon="14.147852711385259"><ele>760.0</ele><time>2026-05-01T16:11:01Z</time></trkpt><trkpt lat="45.86356803341186" lon="14.147973689217041"><ele>760.0</ele><time>2026-05-01T16:11:02Z</time></trkpt><trkpt lat="45.86357560581713" lon="14.14811005217736"><ele>760.0</ele><time>2026-05-01T16:11:03Z</time></trkpt><trkpt lat="45.86359104162221" lon="14.148209551556949"><ele>760.0</ele><time>2026-05-01T16:11:04Z</time></trkpt><trkpt lat="45.86363313563027" lon="14.148279340261"><ele>760.0</ele><time>2026-05-01T16:11:05Z</time></trkpt><trkpt lat="45.86370183303034" lon="14.148332788258093"><ele>760.0</ele><time>2026-05-01T16:11:06Z</time></trkpt><trkpt lat="45.86377908406402" lon="14.148347580555992"><ele>760.0</ele><time>2026-05-01T16:11:07Z</time></trkpt><trkpt lat="45.86387191550949" lon="14.148320740946932"><ele>760.0</ele><time>2026-05-01T16:11:08Z</time></trkpt><trkpt lat="45.86397623942509" lon="14.148262948368567"><ele>760.0</ele><time>2026-05-01T16:11:09Z</time></trkpt><trkpt lat="45.86410776128328" lon="14.148180690027035"><ele>760.0</ele><time>2026-05-01T16:11:10Z</time></trkpt><trkpt lat="45.86423879265461" lon="14.148145564490191"><ele>760.0</ele><time>2026-05-01T16:11:11Z</time></trkpt><trkpt lat="45.864338452580334" lon="14.148159135117735"><ele>759.6</ele><time>2026-05-01T16:11:12Z</time></trkpt><trkpt lat="45.8644386179858" lon="14.148202716851511"><ele>759.2</ele><time>2026-05-01T16:11:13Z</time></trkpt><trkpt lat="45.86454518563678" lon="14.148261764431641"><ele>758.8</ele><time>2026-05-01T16:11:14Z</time></trkpt><trkpt lat="45.86464915554305" lon="14.148320771744855"><ele>758.4</ele><time>2026-05-01T16:11:15Z</time></trkpt><trkpt lat="45.86473396347225" lon="14.148372407761894"><ele>758.0</ele><time>2026-05-01T16:11:16Z</time></trkpt><trkpt lat="45.864795939377615" lon="14.14843355555711"><ele>759.4</ele><time>2026-05-01T16:11:17Z</time></trkpt><trkpt lat="45.86486092929697" lon="14.148522486508236"><ele>760.8</ele><time>2026-05-01T16:11:18Z</time></trkpt><trkpt lat="45.8649056972177" lon="14.14863664767055"><ele>762.2</ele><time>2026-05-01T16:11:19Z</time></trkpt><trkpt lat="45.864961934631246" lon="14.148745355358505"><ele>763.6</ele><time>2026-05-01T16:11:20Z</time></trkpt><trkpt lat="45.865048082224504" lon="14.14883423974408"><ele>765.0</ele><time>2026-05-01T16:11:21Z</time></trkpt><trkpt lat="45.86514087020827" lon="14.14886953398644"><ele>765.0</ele><time>2026-05-01T16:11:22Z</time></trkpt><trkpt lat="45.86523961735989" lon="14.148894198758212"><ele>765.0</ele><time>2026-05-01T16:11:23Z</time></trkpt><trkpt lat="45.86534262009082" lon="14.148926679886259"><ele>765.0</ele><time>2026-05-01T16:11:24Z</time></trkpt><trkpt lat="45.8654504774731" lon="14.148963736447305"><ele>765.0</ele><time>2026-05-01T16:11:25Z</time></trkpt><trkpt lat="45.86555880125099" lon="14.148996372833427"><ele>765.0</ele><time>2026-05-01T16:11:26Z</time></trkpt><trkpt lat="45.865671979775286" lon="14.149016143351155"><ele>765.6</ele><time>2026-05-01T16:11:27Z</time></trkpt><trkpt lat="45.86578260166959" lon="14.149052172306414"><ele>766.2</ele><time>2026-05-01T16:11:28Z</time></trkpt><trkpt lat="45.86587908077254" lon="14.149128282837605"><ele>766.8</ele><time>2026-05-01T16:11:29Z</time></trkpt><trkpt lat="45.865952698782266" lon="14.149224769646807"><ele>767.4</ele><time>2026-05-01T16:11:30Z</time></trkpt><trkpt lat="45.86601398179196" lon="14.149330925413679"><ele>768.0</ele><time>2026-05-01T16:11:31Z</time></trkpt><trkpt lat="45.86604142662155" lon="14.149446057958928"><ele>768.0</ele><time>2026-05-01T16:11:32Z</time></trkpt><trkpt lat="45.86605644415437" lon="14.149563277982743"><ele>768.0</ele><time>2026-05-01T16:11:33Z</time></trkpt><trkpt lat="45.86607278829499" lon="14.149674741642576"><ele>768.0</ele><time>2026-05-01T16:11:34Z</time></trkpt><trkpt lat="45.86611564909704" lon="14.149759221515557"><ele>768.0</ele><time>2026-05-01T16:11:35Z</time></trkpt><trkpt lat="45.866252594590044" lon="14.149801290408945"><ele>768.0</ele><time>2026-05-01T16:11:37Z</time></trkpt><trkpt lat="45.866326676080966" lon="14.149766766009437"><ele>768.0</ele><time>2026-05-01T16:11:38Z</time></trkpt><trkpt lat="45.866391551611" lon="14.149693515902719"><ele>768.0</ele><time>2026-05-01T16:11:39Z</time></trkpt><trkpt lat="45.86645810683957" lon="14.149578428234234"><ele>768.0</ele><time>2026-05-01T16:11:40Z</time></trkpt><trkpt lat="45.86653898175797" lon="14.149498444558006"><ele>768.0</ele><time>2026-05-01T16:11:41Z</time></trkpt><trkpt lat="45.86662984201365" lon="14.149481450541316"><ele>768.0</ele><time>2026-05-01T16:11:42Z</time></trkpt><trkpt lat="45.866753356448015" lon="14.149500861393877"><ele>768.0</ele><time>2026-05-01T16:11:43Z</time></trkpt><trkpt lat="45.866871311497924" lon="14.149537119316484"><ele>768.0</ele><time>2026-05-01T16:11:44Z</time></trkpt><trkpt lat="45.8669746042366" lon="14.149599488296836"><ele>768.0</ele><time>2026-05-01T16:11:45Z</time></trkpt><trkpt lat="45.86706493954155" lon="14.149685350171818"><ele>768.0</ele><time>2026-05-01T16:11:46Z</time></trkpt><trkpt lat="45.86714701336115" lon="14.14978244755564"><ele>768.0</ele><time>2026-05-01T16:11:47Z</time></trkpt><trkpt lat="45.86721106773431" lon="14.149893131116464"><ele>769.2</ele><time>2026-05-01T16:11:48Z</time></trkpt><trkpt lat="45.86725410185188" lon="14.15001605831027"><ele>770.4</ele><time>2026-05-01T16:11:49Z</time></trkpt><trkpt lat="45.86728711837924" lon="14.150156269531433"><ele>771.6</ele><time>2026-05-01T16:11:50Z</time></trkpt><trkpt lat="45.86730315669995" lon="14.150298482158997"><ele>772.8000000000001</ele><time>2026-05-01T16:11:51Z</time></trkpt><trkpt lat="45.8673087014498" lon="14.15042550152292"><ele>774.0</ele><time>2026-05-01T16:11:52Z</time></trkpt><trkpt lat="45.8673205932714" lon="14.150535412939732"><ele>774.0</ele><time>2026-05-01T16:11:53Z</time></trkpt><trkpt lat="45.86735358845277" lon="14.150634706732433"><ele>774.0</ele><time>2026-05-01T16:11:54Z</time></trkpt><trkpt lat="45.86740986298996" lon="14.150709975266654"><ele>774.0</ele><time>2026-05-01T16:11:55Z</time></trkpt><trkpt lat="45.867487945229115" lon="14.150750293596383"><ele>774.0</ele><time>2026-05-01T16:11:56Z</time></trkpt><trkpt lat="45.86757660444881" lon="14.15075480988699"><ele>774.0</ele><time>2026-05-01T16:11:57Z</time></trkpt><trkpt lat="45.86769248650486" lon="14.150732813466247"><ele>774.0</ele><time>2026-05-01T16:11:58Z</time></trkpt><trkpt lat="45.86780070460884" lon="14.150716906171523"><ele>773.6</ele><time>2026-05-01T16:11:59Z</time></trkpt><trkpt lat="45.86789055682677" lon="14.15072717660755"><ele>773.2</ele><time>2026-05-01T16:12:00Z</time></trkpt><trkpt lat="45.86797594863024" lon="14.150787914801693"><ele>772.8000000000001</ele><time>2026-05-01T16:12:01Z</time></trkpt><trkpt lat="45.86804070446013" lon="14.150873494695762"><ele>772.4000000000001</ele><time>2026-05-01T16:12:02Z</time></trkpt><trkpt lat="45.86808310083531" lon="14.1510025400966"><ele>772.0</ele><time>2026-05-01T16:12:03Z</time></trkpt><trkpt lat="45.868102761220804" lon="14.151175702460003"><ele>772.0</ele><time>2026-05-01T16:12:03.999Z</time></trkpt><trkpt lat="45.868111914841904" lon="14.151369143142007"><ele>772.0</ele><time>2026-05-01T16:12:04.999Z</time></trkpt><trkpt lat="45.86811529458197" lon="14.151524597016435"><ele>772.0</ele><time>2026-05-01T16:12:05.999Z</time></trkpt><trkpt lat="45.86812689027348" lon="14.15164315596583"><ele>772.0</ele><time>2026-05-01T16:12:06.999Z</time></trkpt><trkpt lat="45.86816744365346" lon="14.151754957551683"><ele>772.0</ele><time>2026-05-01T16:12:07.999Z</time></trkpt><trkpt lat="45.86822271319429" lon="14.151846463909921"><ele>771.6</ele><time>2026-05-01T16:12:08.999Z</time></trkpt><trkpt lat="45.86829822417506" lon="14.151921139932929"><ele>771.2</ele><time>2026-05-01T16:12:09.999Z</time></trkpt><trkpt lat="45.868377612088956" lon="14.151981962197576"><ele>770.8</ele><time>2026-05-01T16:12:10.999Z</time></trkpt><trkpt lat="45.86847083354847" lon="14.152010869276792"><ele>770.4</ele><time>2026-05-01T16:12:11.999Z</time></trkpt><trkpt lat="45.86856594260474" lon="14.15203302068219"><ele>770.0</ele><time>2026-05-01T16:12:12.999Z</time></trkpt><trkpt lat="45.86865144320101" lon="14.152039943632852"><ele>771.1666666666667</ele><time>2026-05-01T16:12:13.999Z</time></trkpt><trkpt lat="45.86872621223076" lon="14.152029604483834"><ele>772.3333333333334</ele><time>2026-05-01T16:12:15Z</time></trkpt><trkpt lat="45.868790442344064" lon="14.151995126476619"><ele>773.5</ele><time>2026-05-01T16:12:16Z</time></trkpt><trkpt lat="45.86883834977365" lon="14.15192369428289"><ele>774.6666666666667</ele><time>2026-05-01T16:12:17Z</time></trkpt><trkpt lat="45.868875976977044" lon="14.151825864000088"><ele>775.8333333333334</ele><time>2026-05-01T16:12:18Z</time></trkpt><trkpt lat="45.86889940355797" lon="14.151701630065892"><ele>777.0</ele><time>2026-05-01T16:12:19Z</time></trkpt><trkpt lat="45.86892646206958" lon="14.1515521394313"><ele>777.3333333333333</ele><time>2026-05-01T16:12:20Z</time></trkpt><trkpt lat="45.86897011270451" lon="14.15137187468276"><ele>777.6666666666666</ele><time>2026-05-01T16:12:21Z</time></trkpt><trkpt lat="45.86902480305949" lon="14.15115511186463"><ele>778.0</ele><time>2026-05-01T16:12:22Z</time></trkpt><trkpt lat="45.86907388089607" lon="14.150934080473453"><ele>778.0</ele><time>2026-05-01T16:12:23Z</time></trkpt><trkpt lat="45.86911857361498" lon="14.15076506839143"><ele>778.0</ele><time>2026-05-01T16:12:24Z</time></trkpt><trkpt lat="45.86916159734387" lon="14.150596501684845"><ele>778.0</ele><time>2026-05-01T16:12:25Z</time></trkpt><trkpt lat="45.869178577247744" lon="14.150423749556467"><ele>778.0</ele><time>2026-05-01T16:12:26Z</time></trkpt><trkpt lat="45.86920100087754" lon="14.150256815576721"><ele>778.0</ele><time>2026-05-01T16:12:27Z</time></trkpt><trkpt lat="45.86922527706207" lon="14.150126092616258"><ele>778.0</ele><time>2026-05-01T16:12:28Z</time></trkpt><trkpt lat="45.86926252792543" lon="14.150020457804159"><ele>778.0</ele><time>2026-05-01T16:12:29Z</time></trkpt><trkpt lat="45.86932938954326" lon="14.149924605939624"><ele>778.0</ele><time>2026-05-01T16:12:30Z</time></trkpt><trkpt lat="45.869414348073725" lon="14.149861061837449"><ele>778.0</ele><time>2026-05-01T16:12:31Z</time></trkpt><trkpt lat="45.869522292700694" lon="14.149848251610447"><ele>780.0</ele><time>2026-05-01T16:12:32Z</time></trkpt><trkpt lat="45.86964108117113" lon="14.149833116659803"><ele>782.0</ele><time>2026-05-01T16:12:33Z</time></trkpt><trkpt lat="45.86976357986589" lon="14.149838117464563"><ele>784.0</ele><time>2026-05-01T16:12:34Z</time></trkpt><trkpt lat="45.869868836005935" lon="14.14984633274941"><ele>786.0</ele><time>2026-05-01T16:12:35Z</time></trkpt><trkpt lat="45.869945475914676" lon="14.14992280992348"><ele>788.0</ele><time>2026-05-01T16:12:36Z</time></trkpt><trkpt lat="45.87000499355714" lon="14.150042343197555"><ele>788.0</ele><time>2026-05-01T16:12:37Z</time></trkpt><trkpt lat="45.87003255802874" lon="14.150182185585852"><ele>788.0</ele><time>2026-05-01T16:12:38Z</time></trkpt><trkpt lat="45.87001836377434" lon="14.150304908957773"><ele>788.0</ele><time>2026-05-01T16:12:39Z</time></trkpt><trkpt lat="45.87000016125611" lon="14.15043734291687"><ele>788.0</ele><time>2026-05-01T16:12:40Z</time></trkpt><trkpt lat="45.87000252805882" lon="14.150582539465523"><ele>788.0</ele><time>2026-05-01T16:12:41Z</time></trkpt><trkpt lat="45.87004619200866" lon="14.150707219613953"><ele>788.25</ele><time>2026-05-01T16:12:42Z</time></trkpt><trkpt lat="45.870112066799166" lon="14.150822128879856"><ele>788.5</ele><time>2026-05-01T16:12:43Z</time></trkpt><trkpt lat="45.87020751762918" lon="14.150957720878742"><ele>788.75</ele><time>2026-05-01T16:12:44Z</time></trkpt><trkpt lat="45.870300670696096" lon="14.151110915199975"><ele>789.0</ele><time>2026-05-01T16:12:45Z</time></trkpt><trkpt lat="45.87037285430842" lon="14.151235734481373"><ele>789.0</ele><time>2026-05-01T16:12:46Z</time></trkpt><trkpt lat="45.87043287898665" lon="14.151326395061716"><ele>789.0</ele><time>2026-05-01T16:12:47Z</time></trkpt><trkpt lat="45.870505693673564" lon="14.151371042952643"><ele>789.0</ele><time>2026-05-01T16:12:48Z</time></trkpt><trkpt lat="45.8705753237635" lon="14.151376455434471"><ele>789.0</ele><time>2026-05-01T16:12:49Z</time></trkpt><trkpt lat="45.87065843803134" lon="14.15135020732293"><ele>789.0</ele><time>2026-05-01T16:12:50Z</time></trkpt><trkpt lat="45.87073946892511" lon="14.151295916264718"><ele>789.0</ele><time>2026-05-01T16:12:51Z</time></trkpt><trkpt lat="45.87081389147784" lon="14.151231288778165"><ele>789.0</ele><time>2026-05-01T16:12:52Z</time></trkpt><trkpt lat="45.87089064875425" lon="14.151122121701794"><ele>789.0</ele><time>2026-05-01T16:12:53Z</time></trkpt><trkpt lat="45.870968263112516" lon="14.15101947635728"><ele>789.0</ele><time>2026-05-01T16:12:54Z</time></trkpt><trkpt lat="45.871053199064654" lon="14.150936098221894"><ele>789.0</ele><time>2026-05-01T16:12:55Z</time></trkpt><trkpt lat="45.87114211199155" lon="14.150885006952436"><ele>789.0</ele><time>2026-05-01T16:12:56Z</time></trkpt><trkpt lat="45.87122490261658" lon="14.150886951330435"><ele>789.6</ele><time>2026-05-01T16:12:57Z</time></trkpt><trkpt lat="45.87131566836434" lon="14.150922847746054"><ele>790.2</ele><time>2026-05-01T16:12:58Z</time></trkpt><trkpt lat="45.871403994104654" lon="14.150999717788318"><ele>790.8000000000001</ele><time>2026-05-01T16:12:59Z</time></trkpt><trkpt lat="45.87147851015249" lon="14.151117785951282"><ele>791.4000000000001</ele><time>2026-05-01T16:13:00Z</time></trkpt><trkpt lat="45.87155486656516" lon="14.15125214679213"><ele>792.0</ele><time>2026-05-01T16:13:01Z</time></trkpt><trkpt lat="45.87161322532803" lon="14.151359554324104"><ele>792.0</ele><time>2026-05-01T16:13:02Z</time></trkpt><trkpt lat="45.871662023276464" lon="14.151469083981839"><ele>792.0</ele><time>2026-05-01T16:13:03Z</time></trkpt><trkpt lat="45.87171865275694" lon="14.151555077929793"><ele>792.0</ele><time>2026-05-01T16:13:04Z</time></trkpt><trkpt lat="45.871788888356235" lon="14.151619669238114"><ele>792.0</ele><time>2026-05-01T16:13:05Z</time></trkpt><trkpt lat="45.87188180023852" lon="14.151634824846564"><ele>792.0</ele><time>2026-05-01T16:13:06Z</time></trkpt><trkpt lat="45.8719799048083" lon="14.15161947694882"><ele>792.0</ele><time>2026-05-01T16:13:07Z</time></trkpt><trkpt lat="45.872077789222736" lon="14.151587803631593"><ele>792.4000000000001</ele><time>2026-05-01T16:13:08Z</time></trkpt><trkpt lat="45.87216655316652" lon="14.151574555007873"><ele>792.8000000000001</ele><time>2026-05-01T16:13:09Z</time></trkpt><trkpt lat="45.87224669718458" lon="14.15158970939946"><ele>793.2</ele><time>2026-05-01T16:13:10Z</time></trkpt><trkpt lat="45.8723351028019" lon="14.151635468518485"><ele>793.6</ele><time>2026-05-01T16:13:11Z</time></trkpt><trkpt lat="45.87242610292813" lon="14.151733867099594"><ele>794.0</ele><time>2026-05-01T16:13:12Z</time></trkpt><trkpt lat="45.87251582267812" lon="14.151776170436555"><ele>794.0000000000001</ele><time>2026-05-01T16:13:13Z</time></trkpt><trkpt lat="45.87260228872274" lon="14.151760518597996"><ele>794.0</ele><time>2026-05-01T16:13:14Z</time></trkpt><trkpt lat="45.87268599998239" lon="14.151781090061153"><ele>794.0</ele><time>2026-05-01T16:13:15Z</time></trkpt><trkpt lat="45.87274660735366" lon="14.15184650659959"><ele>794.0</ele><time>2026-05-01T16:13:16Z</time></trkpt><trkpt lat="45.872787866183614" lon="14.151961534030503"><ele>794.0000000000001</ele><time>2026-05-01T16:13:17Z</time></trkpt><trkpt lat="45.87280769892989" lon="14.152109183579391"><ele>794.0</ele><time>2026-05-01T16:13:18Z</time></trkpt><trkpt lat="45.87282353748276" lon="14.15225960776266"><ele>793.8000000000001</ele><time>2026-05-01T16:13:19Z</time></trkpt><trkpt lat="45.872861428682526" lon="14.152387115578598"><ele>793.6</ele><time>2026-05-01T16:13:20Z</time></trkpt><trkpt lat="45.87293996560062" lon="14.15248850745794"><ele>793.4</ele><time>2026-05-01T16:13:21Z</time></trkpt><trkpt lat="45.87302775429931" lon="14.152566271493862"><ele>793.2</ele><time>2026-05-01T16:13:22Z</time></trkpt><trkpt lat="45.87313081290886" lon="14.15262537972716"><ele>793.0</ele><time>2026-05-01T16:13:23Z</time></trkpt><trkpt lat="45.8732312222032" lon="14.15265187299321"><ele>793.0</ele><time>2026-05-01T16:13:24Z</time></trkpt><trkpt lat="45.873338942604015" lon="14.152654565234943"><ele>793.0</ele><time>2026-05-01T16:13:25Z</time></trkpt><trkpt lat="45.87344030634383" lon="14.152658614252228"><ele>793.0</ele><time>2026-05-01T16:13:26Z</time></trkpt><trkpt lat="45.873542553599044" lon="14.15268278732891"><ele>793.0</ele><time>2026-05-01T16:13:27Z</time></trkpt><trkpt lat="45.87364127858829" lon="14.152725395259575"><ele>793.0</ele><time>2026-05-01T16:13:28Z</time></trkpt><trkpt lat="45.8737286113835" lon="14.152753407516716"><ele>792.2</ele><time>2026-05-01T16:13:29Z</time></trkpt><trkpt lat="45.87381145760122" lon="14.152723699613128"><ele>791.4</ele><time>2026-05-01T16:13:30Z</time></trkpt><trkpt lat="45.87389507682717" lon="14.152656036419984"><ele>790.6</ele><time>2026-05-01T16:13:31Z</time></trkpt><trkpt lat="45.87397779596368" lon="14.152571902166674"><ele>789.8000000000001</ele><time>2026-05-01T16:13:32Z</time></trkpt><trkpt lat="45.874063231939104" lon="14.152472579772015"><ele>789.0</ele><time>2026-05-01T16:13:33Z</time></trkpt><trkpt lat="45.874143661770546" lon="14.15240510866838"><ele>788.8333333333334</ele><time>2026-05-01T16:13:34Z</time></trkpt><trkpt lat="45.87422349977763" lon="14.152365437465196"><ele>788.6666666666667</ele><time>2026-05-01T16:13:35Z</time></trkpt><trkpt lat="45.87429815882288" lon="14.152362631772654"><ele>788.5</ele><time>2026-05-01T16:13:36Z</time></trkpt><trkpt lat="45.874377245098415" lon="14.152359262906613"><ele>788.3333333333334</ele><time>2026-05-01T16:13:37Z</time></trkpt><trkpt lat="45.87446124394283" lon="14.152345417737898"><ele>788.1666666666667</ele><time>2026-05-01T16:13:38Z</time></trkpt><trkpt lat="45.87455798780085" lon="14.152312799036194"><ele>788.0</ele><time>2026-05-01T16:13:39Z</time></trkpt><trkpt lat="45.87465454814843" lon="14.152273583973056"><ele>787.4285714285714</ele><time>2026-05-01T16:13:40Z</time></trkpt><trkpt lat="45.874734604625964" lon="14.15222650045842"><ele>786.8571428571429</ele><time>2026-05-01T16:13:41Z</time></trkpt><trkpt lat="45.874793028404284" lon="14.152176932111363"><ele>786.2857142857142</ele><time>2026-05-01T16:13:42Z</time></trkpt><trkpt lat="45.874844025454124" lon="14.15211629840746"><ele>785.7142857142858</ele><time>2026-05-01T16:13:43Z</time></trkpt><trkpt lat="45.87487730811849" lon="14.152027974153409"><ele>785.1428571428571</ele><time>2026-05-01T16:13:44Z</time></trkpt><trkpt lat="45.874896394907296" lon="14.151933064912836"><ele>784.5714285714286</ele><time>2026-05-01T16:13:45Z</time></trkpt><trkpt lat="45.874905861400215" lon="14.151828714519326"><ele>784.0</ele><time>2026-05-01T16:13:46Z</time></trkpt><trkpt lat="45.874915136811566" lon="14.151729404057997"><ele>783.9999999999999</ele><time>2026-05-01T16:13:47Z</time></trkpt><trkpt lat="45.87494350806847" lon="14.151639376102564"><ele>784.0</ele><time>2026-05-01T16:13:48Z</time></trkpt><trkpt lat="45.87500924380272" lon="14.15158245692246"><ele>784.0</ele><time>2026-05-01T16:13:49Z</time></trkpt><trkpt lat="45.8750855964581" lon="14.15157619376722"><ele>784.0</ele><time>2026-05-01T16:13:50Z</time></trkpt><trkpt lat="45.87515079016881" lon="14.151560960752512"><ele>783.9999999999999</ele><time>2026-05-01T16:13:51Z</time></trkpt><trkpt lat="45.875235969870864" lon="14.151543490914822"><ele>784.0</ele><time>2026-05-01T16:13:52Z</time></trkpt><trkpt lat="45.875343951303556" lon="14.151541537798943"><ele>783.6666666666666</ele><time>2026-05-01T16:13:53Z</time></trkpt><trkpt lat="45.875473390428894" lon="14.151570759453598"><ele>783.3333333333333</ele><time>2026-05-01T16:13:54Z</time></trkpt><trkpt lat="45.87562369573197" lon="14.151601855348071"><ele>783.0</ele><time>2026-05-01T16:13:55Z</time></trkpt><trkpt lat="45.875802460915956" lon="14.151624146374427"><ele>783.0</ele><time>2026-05-01T16:13:56Z</time></trkpt><trkpt lat="45.8759710679659" lon="14.151633007066199"><ele>783.0</ele><time>2026-05-01T16:13:57Z</time></trkpt><trkpt lat="45.87610891667133" lon="14.151651765256897"><ele>783.0</ele><time>2026-05-01T16:13:58Z</time></trkpt><trkpt lat="45.87623552419995" lon="14.151675158822739"><ele>783.0</ele><time>2026-05-01T16:13:59Z</time></trkpt><trkpt lat="45.87634240338098" lon="14.151691247523209"><ele>783.0</ele><time>2026-05-01T16:14:00Z</time></trkpt><trkpt lat="45.876443308470336" lon="14.15168855029939"><ele>783.0</ele><time>2026-05-01T16:14:00.999Z</time></trkpt><trkpt lat="45.87654052849166" lon="14.151681637236983"><ele>783.0</ele><time>2026-05-01T16:14:01.999Z</time></trkpt><trkpt lat="45.876617684635555" lon="14.151670527522713"><ele>783.0</ele><time>2026-05-01T16:14:02.999Z</time></trkpt><trkpt lat="45.87669329931194" lon="14.151671400699243"><ele>783.0</ele><time>2026-05-01T16:14:03.999Z</time></trkpt><trkpt lat="45.87676053722824" lon="14.151676304221407"><ele>783.0</ele><time>2026-05-01T16:14:04.999Z</time></trkpt><trkpt lat="45.87686308426361" lon="14.151661242267359"><ele>783.5</ele><time>2026-05-01T16:14:06.999Z</time></trkpt><trkpt lat="45.8769587653707" lon="14.151578936429342"><ele>784.0</ele><time>2026-05-01T16:14:08.999Z</time></trkpt><trkpt lat="45.877010684325775" lon="14.15152049941756"><ele>784.5</ele><time>2026-05-01T16:14:09.999Z</time></trkpt><trkpt lat="45.87707811258634" lon="14.15144937642079"><ele>785.0</ele><time>2026-05-01T16:14:10.999Z</time></trkpt><trkpt lat="45.87715445527711" lon="14.151406976472039"><ele>785.5</ele><time>2026-05-01T16:14:11.999Z</time></trkpt><trkpt lat="45.8772459798875" lon="14.15139355929368"><ele>786.0</ele><time>2026-05-01T16:14:12.999Z</time></trkpt><trkpt lat="45.8773462833088" lon="14.151426623726406"><ele>786.0</ele><time>2026-05-01T16:14:13.999Z</time></trkpt><trkpt lat="45.87743065882525" lon="14.151455160857868"><ele>786.0</ele><time>2026-05-01T16:14:14.999Z</time></trkpt><trkpt lat="45.87752102069444" lon="14.151486300503128"><ele>786.0</ele><time>2026-05-01T16:14:15.999Z</time></trkpt><trkpt lat="45.877599594752375" lon="14.151528668091471"><ele>786.0</ele><time>2026-05-01T16:14:16.999Z</time></trkpt><trkpt lat="45.87766281084914" lon="14.151606011159437"><ele>786.0</ele><time>2026-05-01T16:14:17.999Z</time></trkpt><trkpt lat="45.87771252035244" lon="14.151715770573603"><ele>786.0</ele><time>2026-05-01T16:14:18.999Z</time></trkpt><trkpt lat="45.87776032412853" lon="14.151822503648328"><ele>785.1999999999999</ele><time>2026-05-01T16:14:19.999Z</time></trkpt><trkpt lat="45.87780481931834" lon="14.151917854654583"><ele>784.4</ele><time>2026-05-01T16:14:21Z</time></trkpt><trkpt lat="45.87784500435011" lon="14.152017279823967"><ele>783.6</ele><time>2026-05-01T16:14:22Z</time></trkpt><trkpt lat="45.877870642849054" lon="14.15214678976702"><ele>782.8</ele><time>2026-05-01T16:14:23Z</time></trkpt><trkpt lat="45.877880049468715" lon="14.152303301898446"><ele>782.0</ele><time>2026-05-01T16:14:24Z</time></trkpt><trkpt lat="45.87787513475796" lon="14.152497280657718"><ele>778.6666666666667</ele><time>2026-05-01T16:14:25Z</time></trkpt><trkpt lat="45.877866244406654" lon="14.152745249316109"><ele>775.3333333333333</ele><time>2026-05-01T16:14:26Z</time></trkpt><trkpt lat="45.87787941334808" lon="14.152970882950548"><ele>772.0</ele><time>2026-05-01T16:14:27Z</time></trkpt><trkpt lat="45.87792869105171" lon="14.153164250187329"><ele>772.0</ele><time>2026-05-01T16:14:28Z</time></trkpt><trkpt lat="45.87799581791011" lon="14.15333638062893"><ele>772.0</ele><time>2026-05-01T16:14:29Z</time></trkpt><trkpt lat="45.87807865774522" lon="14.15350345806278"><ele>772.0</ele><time>2026-05-01T16:14:30Z</time></trkpt><trkpt lat="45.8781487434458" lon="14.153674132600736"><ele>772.0</ele><time>2026-05-01T16:14:31Z</time></trkpt><trkpt lat="45.878143337657136" lon="14.153851664885526"><ele>772.0</ele><time>2026-05-01T16:14:32Z</time></trkpt><trkpt lat="45.87811403475549" lon="14.154021160144149"><ele>772.0</ele><time>2026-05-01T16:14:33Z</time></trkpt><trkpt lat="45.878048463940914" lon="14.154193444358928"><ele>772.0</ele><time>2026-05-01T16:14:34Z</time></trkpt><trkpt lat="45.8779638522747" lon="14.15437796167206"><ele>772.0</ele><time>2026-05-01T16:14:35Z</time></trkpt><trkpt lat="45.87791256674162" lon="14.154561717920418"><ele>771.75</ele><time>2026-05-01T16:14:36Z</time></trkpt><trkpt lat="45.87789198881952" lon="14.154735477490265"><ele>771.5</ele><time>2026-05-01T16:14:37Z</time></trkpt><trkpt lat="45.877912848520474" lon="14.15491136785951"><ele>771.25</ele><time>2026-05-01T16:14:38Z</time></trkpt><trkpt lat="45.8779758894391" lon="14.155079563130913"><ele>771.0</ele><time>2026-05-01T16:14:39Z</time></trkpt><trkpt lat="45.87807197810349" lon="14.15523918001421"><ele>770.3333333333333</ele><time>2026-05-01T16:14:40Z</time></trkpt><trkpt lat="45.87819171384556" lon="14.155393485329348"><ele>769.6666666666666</ele><time>2026-05-01T16:14:41Z</time></trkpt><trkpt lat="45.87830061250776" lon="14.155556807793594"><ele>769.0</ele><time>2026-05-01T16:14:42Z</time></trkpt><trkpt lat="45.87840151536124" lon="14.155722321890511"><ele>767.5</ele><time>2026-05-01T16:14:43Z</time></trkpt><trkpt lat="45.87849843254404" lon="14.155879956020215"><ele>766.0</ele><time>2026-05-01T16:14:44Z</time></trkpt><trkpt lat="45.87857921920682" lon="14.156065697758265"><ele>764.5</ele><time>2026-05-01T16:14:45Z</time></trkpt><trkpt lat="45.87867691887816" lon="14.156211343534668"><ele>763.0</ele><time>2026-05-01T16:14:46Z</time></trkpt><trkpt lat="45.878771327423685" lon="14.156365482584684"><ele>763.0</ele><time>2026-05-01T16:14:47Z</time></trkpt><trkpt lat="45.87887101121104" lon="14.15649740734761"><ele>763.0</ele><time>2026-05-01T16:14:48Z</time></trkpt><trkpt lat="45.8790153331148" lon="14.156563843411586"><ele>763.0</ele><time>2026-05-01T16:14:49Z</time></trkpt><trkpt lat="45.8791658671515" lon="14.15659741714636"><ele>763.0</ele><time>2026-05-01T16:14:50Z</time></trkpt><trkpt lat="45.87931114335384" lon="14.15660085559207"><ele>759.5</ele><time>2026-05-01T16:14:51Z</time></trkpt><trkpt lat="45.87944204713736" lon="14.156611673959938"><ele>756.0</ele><time>2026-05-01T16:14:52Z</time></trkpt><trkpt lat="45.879555531152306" lon="14.156641108956016"><ele>752.5</ele><time>2026-05-01T16:14:53Z</time></trkpt><trkpt lat="45.879665121559476" lon="14.156671925680264"><ele>749.0</ele><time>2026-05-01T16:14:54Z</time></trkpt><trkpt lat="45.879770310517635" lon="14.156705005222326"><ele>749.0</ele><time>2026-05-01T16:14:55Z</time></trkpt><trkpt lat="45.87986863295504" lon="14.156744131871058"><ele>749.0</ele><time>2026-05-01T16:14:56Z</time></trkpt><trkpt lat="45.87993882957981" lon="14.156804891355227"><ele>749.0</ele><time>2026-05-01T16:14:58Z</time></trkpt><trkpt lat="45.880008532895516" lon="14.156818018960832"><ele>749.0</ele><time>2026-05-01T16:15:41.999Z</time></trkpt><trkpt lat="45.880076720419005" lon="14.1568323769"><ele>749.0</ele><time>2026-05-01T16:15:43.999Z</time></trkpt><trkpt lat="45.880188768606004" lon="14.156879267641376"><ele>749.0</ele><time>2026-05-01T16:15:45.999Z</time></trkpt><trkpt lat="45.88030742461698" lon="14.156910263878796"><ele>749.1666666666666</ele><time>2026-05-01T16:15:47.999Z</time></trkpt><trkpt lat="45.88037917337496" lon="14.156930333119096"><ele>749.3333333333333</ele><time>2026-05-01T16:15:48.999Z</time></trkpt><trkpt lat="45.880455321492335" lon="14.156956576157004"><ele>749.5</ele><time>2026-05-01T16:15:49.999Z</time></trkpt><trkpt lat="45.88053137152693" lon="14.15698700439831"><ele>749.6666666666666</ele><time>2026-05-01T16:15:50.999Z</time></trkpt><trkpt lat="45.88061126990843" lon="14.157013145314584"><ele>749.8333333333334</ele><time>2026-05-01T16:15:51.999Z</time></trkpt><trkpt lat="45.88068675560477" lon="14.157036375247724"><ele>750.0</ele><time>2026-05-01T16:15:52.999Z</time></trkpt><trkpt lat="45.880772782093395" lon="14.157068537733418"><ele>750.0</ele><time>2026-05-01T16:15:53.999Z</time></trkpt><trkpt lat="45.880862197567765" lon="14.157103553857572"><ele>750.0</ele><time>2026-05-01T16:15:54.999Z</time></trkpt><trkpt lat="45.88095121645396" lon="14.157156028394718"><ele>750.0</ele><time>2026-05-01T16:15:55.999Z</time></trkpt><trkpt lat="45.88103194186983" lon="14.157235086283405"><ele>750.0</ele><time>2026-05-01T16:15:56.999Z</time></trkpt><trkpt lat="45.88110314606239" lon="14.15732946863661"><ele>750.0</ele><time>2026-05-01T16:15:57.999Z</time></trkpt><trkpt lat="45.88117175440909" lon="14.157444202898668"><ele>749.25</ele><time>2026-05-01T16:15:58.999Z</time></trkpt><trkpt lat="45.88122586224496" lon="14.157577988302863"><ele>748.5</ele><time>2026-05-01T16:15:59.999Z</time></trkpt><trkpt lat="45.8812672225664" lon="14.15772735348451"><ele>747.75</ele><time>2026-05-01T16:16:00.999Z</time></trkpt><trkpt lat="45.88128124499538" lon="14.157890073984696"><ele>747.0</ele><time>2026-05-01T16:16:01.999Z</time></trkpt><trkpt lat="45.8813213298212" lon="14.158047238385327"><ele>742.5</ele><time>2026-05-01T16:16:02.999Z</time></trkpt><trkpt lat="45.88134345602733" lon="14.158211277981144"><ele>738.0</ele><time>2026-05-01T16:16:03.999Z</time></trkpt><trkpt lat="45.88137018988134" lon="14.15837630314847"><ele>733.5</ele><time>2026-05-01T16:16:04.999Z</time></trkpt><trkpt lat="45.88139717463196" lon="14.158541564294095"><ele>729.0</ele><time>2026-05-01T16:16:05.999Z</time></trkpt><trkpt lat="45.88142663349095" lon="14.158705778068159"><ele>729.0</ele><time>2026-05-01T16:16:06.999Z</time></trkpt><trkpt lat="45.88145731618908" lon="14.158863853408272"><ele>729.0</ele><time>2026-05-01T16:16:07.999Z</time></trkpt><trkpt lat="45.88147838410775" lon="14.15902230766324"><ele>729.0</ele><time>2026-05-01T16:16:08.999Z</time></trkpt><trkpt lat="45.88152812814154" lon="14.159166871250932"><ele>729.0</ele><time>2026-05-01T16:16:09.999Z</time></trkpt><trkpt lat="45.88159809766533" lon="14.159294421248275"><ele>729.0</ele><time>2026-05-01T16:16:10.999Z</time></trkpt><trkpt lat="45.88165052530908" lon="14.159445379955306"><ele>729.0</ele><time>2026-05-01T16:16:11.999Z</time></trkpt><trkpt lat="45.88169867089188" lon="14.159607853769794"><ele>729.0</ele><time>2026-05-01T16:16:12.999Z</time></trkpt><trkpt lat="45.881743996876686" lon="14.159779141461163"><ele>729.0</ele><time>2026-05-01T16:16:13.999Z</time></trkpt><trkpt lat="45.88177303636857" lon="14.159954718574479"><ele>725.75</ele><time>2026-05-01T16:16:14.999Z</time></trkpt><trkpt lat="45.88182478383285" lon="14.160117706277369"><ele>722.5</ele><time>2026-05-01T16:16:15.999Z</time></trkpt><trkpt lat="45.88191312894123" lon="14.160238512961339"><ele>719.25</ele><time>2026-05-01T16:16:16.999Z</time></trkpt><trkpt lat="45.882009985071605" lon="14.160340269445417"><ele>716.0</ele><time>2026-05-01T16:16:17.999Z</time></trkpt><trkpt lat="45.88212358483363" lon="14.160387689496556"><ele>716.0</ele><time>2026-05-01T16:16:18.999Z</time></trkpt><trkpt lat="45.88224516425045" lon="14.16039167581609"><ele>716.0</ele><time>2026-05-01T16:16:19.999Z</time></trkpt><trkpt lat="45.882368112186924" lon="14.160370254736968"><ele>716.0</ele><time>2026-05-01T16:16:20.999Z</time></trkpt><trkpt lat="45.88249019371519" lon="14.160348613629772"><ele>716.0</ele><time>2026-05-01T16:16:21.999Z</time></trkpt><trkpt lat="45.88261247885751" lon="14.160339498386492"><ele>715.75</ele><time>2026-05-01T16:16:22.999Z</time></trkpt><trkpt lat="45.88274006821426" lon="14.160369092983121"><ele>715.5</ele><time>2026-05-01T16:16:23.999Z</time></trkpt><trkpt lat="45.88285493327795" lon="14.160464912900078"><ele>715.25</ele><time>2026-05-01T16:16:24.999Z</time></trkpt><trkpt lat="45.882972496269964" lon="14.16053836585583"><ele>715.0</ele><time>2026-05-01T16:16:25.999Z</time></trkpt><trkpt lat="45.883081179485785" lon="14.160650919456547"><ele>710.3333333333334</ele><time>2026-05-01T16:16:27Z</time></trkpt><trkpt lat="45.88319290297398" lon="14.160749871170808"><ele>705.6666666666666</ele><time>2026-05-01T16:16:28Z</time></trkpt><trkpt lat="45.88342242820752" lon="14.160838258422002"><ele>701.0</ele><time>2026-05-01T16:16:30Z</time></trkpt><trkpt lat="45.88355021022464" lon="14.160837700269715"><ele>698.5</ele><time>2026-05-01T16:16:31Z</time></trkpt><trkpt lat="45.88368789760597" lon="14.16085449010609"><ele>696.0</ele><time>2026-05-01T16:16:32Z</time></trkpt><trkpt lat="45.88382135742905" lon="14.16082416691839"><ele>693.5</ele><time>2026-05-01T16:16:33Z</time></trkpt><trkpt lat="45.88395685931627" lon="14.160854699531347"><ele>691.0</ele><time>2026-05-01T16:16:34Z</time></trkpt><trkpt lat="45.88408808464208" lon="14.160876309861392"><ele>691.0</ele><time>2026-05-01T16:16:35Z</time></trkpt><trkpt lat="45.884214163278735" lon="14.160919214124487"><ele>691.0</ele><time>2026-05-01T16:16:36Z</time></trkpt><trkpt lat="45.884344016151665" lon="14.160968780226929"><ele>691.0</ele><time>2026-05-01T16:16:37Z</time></trkpt><trkpt lat="45.88447418303715" lon="14.16102165893494"><ele>691.0</ele><time>2026-05-01T16:16:38Z</time></trkpt><trkpt lat="45.88461143283494" lon="14.161061234640872"><ele>690.5</ele><time>2026-05-01T16:16:39Z</time></trkpt><trkpt lat="45.884729037402856" lon="14.16116590740118"><ele>690.0</ele><time>2026-05-01T16:16:40Z</time></trkpt><trkpt lat="45.884844594871545" lon="14.161257321188904"><ele>689.5</ele><time>2026-05-01T16:16:41Z</time></trkpt><trkpt lat="45.88492997599319" lon="14.161403602806224"><ele>689.0</ele><time>2026-05-01T16:16:42Z</time></trkpt><trkpt lat="45.88501923056078" lon="14.161552682047125"><ele>682.5</ele><time>2026-05-01T16:16:43Z</time></trkpt><trkpt lat="45.88512276002048" lon="14.161643564620194"><ele>676.0</ele><time>2026-05-01T16:16:44Z</time></trkpt><trkpt lat="45.88529099255691" lon="14.161684348876596"><ele>669.5</ele><time>2026-05-01T16:16:45Z</time></trkpt><trkpt lat="45.885429235603624" lon="14.161648681122502"><ele>663.0</ele><time>2026-05-01T16:16:46Z</time></trkpt><trkpt lat="45.88556157335692" lon="14.161574338350237"><ele>664.6666666666666</ele><time>2026-05-01T16:16:47Z</time></trkpt><trkpt lat="45.885707560232085" lon="14.161516990723586"><ele>666.3333333333333</ele><time>2026-05-01T16:16:48Z</time></trkpt><trkpt lat="45.885847184444074" lon="14.16142755467236"><ele>668.0</ele><time>2026-05-01T16:16:49Z</time></trkpt><trkpt lat="45.885995365519776" lon="14.161375298095482"><ele>668.0</ele><time>2026-05-01T16:16:50Z</time></trkpt><trkpt lat="45.88614492693138" lon="14.161326716279303"><ele>668.0</ele><time>2026-05-01T16:16:51Z</time></trkpt><trkpt lat="45.88629384932343" lon="14.16128499158935"><ele>668.0</ele><time>2026-05-01T16:16:52Z</time></trkpt><trkpt lat="45.88644100680533" lon="14.161238098516234"><ele>668.0</ele><time>2026-05-01T16:16:53Z</time></trkpt><trkpt lat="45.88672761046015" lon="14.161127776924523"><ele>668.0</ele><time>2026-05-01T16:16:55Z</time></trkpt><trkpt lat="45.886868989219685" lon="14.161080141986186"><ele>668.0</ele><time>2026-05-01T16:16:56Z</time></trkpt><trkpt lat="45.88701081538151" lon="14.161031160893769"><ele>664.5</ele><time>2026-05-01T16:16:57Z</time></trkpt><trkpt lat="45.88714882445479" lon="14.160984243821302"><ele>661.0</ele><time>2026-05-01T16:16:58Z</time></trkpt><trkpt lat="45.88728764612187" lon="14.160971029626223"><ele>657.5</ele><time>2026-05-01T16:16:59Z</time></trkpt><trkpt lat="45.88742206441338" lon="14.161026977970911"><ele>654.0</ele><time>2026-05-01T16:17:00Z</time></trkpt><trkpt lat="45.88754987434878" lon="14.161141598368456"><ele>653.6666666666666</ele><time>2026-05-01T16:17:01Z</time></trkpt><trkpt lat="45.88765785369418" lon="14.161353577263652"><ele>653.3333333333333</ele><time>2026-05-01T16:17:02Z</time></trkpt><trkpt lat="45.88776139854462" lon="14.161553685882044"><ele>653.0</ele><time>2026-05-01T16:17:03Z</time></trkpt><trkpt lat="45.88784178369533" lon="14.161754203361468"><ele>651.6666666666666</ele><time>2026-05-01T16:17:04Z</time></trkpt><trkpt lat="45.88793407981465" lon="14.16194126775705"><ele>650.3333333333334</ele><time>2026-05-01T16:17:05Z</time></trkpt><trkpt lat="45.8880271070518" lon="14.16211791792968"><ele>649.0</ele><time>2026-05-01T16:17:06Z</time></trkpt><trkpt lat="45.88813188183568" lon="14.162254415787974"><ele>649.0</ele><time>2026-05-01T16:17:07Z</time></trkpt><trkpt lat="45.8882526826413" lon="14.162342236525534"><ele>649.0</ele><time>2026-05-01T16:17:08Z</time></trkpt><trkpt lat="45.888379086670405" lon="14.162404529097413"><ele>649.0</ele><time>2026-05-01T16:17:09Z</time></trkpt><trkpt lat="45.88852689175938" lon="14.162341811802223"><ele>649.0</ele><time>2026-05-01T16:17:10Z</time></trkpt><trkpt lat="45.8886612806181" lon="14.162267384636706"><ele>645.25</ele><time>2026-05-01T16:17:11Z</time></trkpt><trkpt lat="45.88878843786468" lon="14.162155563479129"><ele>641.5</ele><time>2026-05-01T16:17:12Z</time></trkpt><trkpt lat="45.888913372118445" lon="14.1620360683983"><ele>637.75</ele><time>2026-05-01T16:17:13Z</time></trkpt><trkpt lat="45.8890337456571" lon="14.161913089627605"><ele>634.0</ele><time>2026-05-01T16:17:14Z</time></trkpt><trkpt lat="45.88914765042711" lon="14.161774991861641"><ele>634.0</ele><time>2026-05-01T16:17:15Z</time></trkpt><trkpt lat="45.88925432412029" lon="14.161633489451454"><ele>634.0</ele><time>2026-05-01T16:17:16Z</time></trkpt><trkpt lat="45.88934511920669" lon="14.161484523700732"><ele>634.0</ele><time>2026-05-01T16:17:17Z</time></trkpt><trkpt lat="45.88941122412286" lon="14.161311779285516"><ele>634.0</ele><time>2026-05-01T16:17:18Z</time></trkpt><trkpt lat="45.889438646306175" lon="14.161120251790997"><ele>628.75</ele><time>2026-05-01T16:17:19Z</time></trkpt><trkpt lat="45.88942799244347" lon="14.160914555772914"><ele>623.5</ele><time>2026-05-01T16:17:20Z</time></trkpt><trkpt lat="45.8893899890604" lon="14.16071007747772"><ele>618.25</ele><time>2026-05-01T16:17:21Z</time></trkpt><trkpt lat="45.88936893305653" lon="14.160508652211274"><ele>613.0</ele><time>2026-05-01T16:17:22Z</time></trkpt><trkpt lat="45.8893961014682" lon="14.160311991537316"><ele>612.5</ele><time>2026-05-01T16:17:23Z</time></trkpt><trkpt lat="45.8894795785622" lon="14.16013987349808"><ele>612.0</ele><time>2026-05-01T16:17:24Z</time></trkpt><trkpt lat="45.88959656807224" lon="14.160006911684722"><ele>611.5</ele><time>2026-05-01T16:17:25Z</time></trkpt><trkpt lat="45.88971731875657" lon="14.159890592723828"><ele>611.0</ele><time>2026-05-01T16:17:26Z</time></trkpt><trkpt lat="45.889808450498634" lon="14.159721664802838"><ele>612.3333333333333</ele><time>2026-05-01T16:17:27Z</time></trkpt><trkpt lat="45.88986383684633" lon="14.15951067168901"><ele>613.6666666666666</ele><time>2026-05-01T16:17:28Z</time></trkpt><trkpt lat="45.88990838113344" lon="14.159301232562589"><ele>615.0</ele><time>2026-05-01T16:17:29Z</time></trkpt><trkpt lat="45.88995000828428" lon="14.159091534959973"><ele>616.3333333333334</ele><time>2026-05-01T16:17:30Z</time></trkpt><trkpt lat="45.88999974171812" lon="14.158875123781346"><ele>617.6666666666667</ele><time>2026-05-01T16:17:31Z</time></trkpt><trkpt lat="45.890025855144" lon="14.158648973897812"><ele>619.0</ele><time>2026-05-01T16:17:32Z</time></trkpt><trkpt lat="45.89001696545194" lon="14.15841138340288"><ele>620.3333333333334</ele><time>2026-05-01T16:17:33Z</time></trkpt><trkpt lat="45.88999617878655" lon="14.158179430252618"><ele>621.6666666666666</ele><time>2026-05-01T16:17:34Z</time></trkpt><trkpt lat="45.88998887599307" lon="14.157947323455804"><ele>623.0</ele><time>2026-05-01T16:17:35Z</time></trkpt><trkpt lat="45.89000208617279" lon="14.157716832021245"><ele>623.0</ele><time>2026-05-01T16:17:36Z</time></trkpt><trkpt lat="45.8900297289913" lon="14.157511478863235"><ele>623.0</ele><time>2026-05-01T16:17:36.999Z</time></trkpt><trkpt lat="45.89008415620144" lon="14.15733517901967"><ele>623.0</ele><time>2026-05-01T16:17:37.999Z</time></trkpt><trkpt lat="45.89017550516512" lon="14.157204017420122"><ele>623.0</ele><time>2026-05-01T16:17:38.999Z</time></trkpt><trkpt lat="45.89028902959872" lon="14.15703244334289"><ele>616.75</ele><time>2026-05-01T16:17:39.999Z</time></trkpt><trkpt lat="45.89042518884483" lon="14.15699097572403"><ele>610.5</ele><time>2026-05-01T16:17:40.999Z</time></trkpt><trkpt lat="45.89056560786504" lon="14.156916958881594"><ele>604.25</ele><time>2026-05-01T16:17:41.999Z</time></trkpt><trkpt lat="45.890694566722814" lon="14.156859356705239"><ele>598.0</ele><time>2026-05-01T16:17:42.999Z</time></trkpt><trkpt lat="45.89077485858808" lon="14.156714161986041"><ele>599.0</ele><time>2026-05-01T16:17:43.999Z</time></trkpt><trkpt lat="45.89079348219407" lon="14.15650726254527"><ele>600.0</ele><time>2026-05-01T16:17:45Z</time></trkpt><trkpt lat="45.890743865046474" lon="14.156288888984305"><ele>601.0</ele><time>2026-05-01T16:17:45.999Z</time></trkpt><trkpt lat="45.890695654480716" lon="14.156075784854274"><ele>601.0</ele><time>2026-05-01T16:17:46.999Z</time></trkpt><trkpt lat="45.89075812254749" lon="14.155868936024024"><ele>601.0</ele><time>2026-05-01T16:17:47.999Z</time></trkpt><trkpt lat="45.89081659892913" lon="14.155650103934674"><ele>601.0</ele><time>2026-05-01T16:17:48.999Z</time></trkpt><trkpt lat="45.89084497466864" lon="14.155437001991904"><ele>600.6666666666667</ele><time>2026-05-01T16:17:49.999Z</time></trkpt><trkpt lat="45.89082745924384" lon="14.155206564842958"><ele>600.3333333333334</ele><time>2026-05-01T16:17:50.999Z</time></trkpt><trkpt lat="45.89078477739355" lon="14.154987409856894"><ele>600.0</ele><time>2026-05-01T16:17:51.999Z</time></trkpt><trkpt lat="45.89072989909578" lon="14.154799461596582"><ele>598.4</ele><time>2026-05-01T16:17:52.999Z</time></trkpt><trkpt lat="45.89067270922325" lon="14.154625100242669"><ele>596.8</ele><time>2026-05-01T16:17:53.999Z</time></trkpt><trkpt lat="45.89063357984251" lon="14.154493511787875"><ele>595.2</ele><time>2026-05-01T16:17:54.999Z</time></trkpt><trkpt lat="45.89064390376871" lon="14.154399909613538"><ele>593.6</ele><time>2026-05-01T16:17:55.999Z</time></trkpt><trkpt lat="45.89072146978831" lon="14.154377214961515"><ele>592.0</ele><time>2026-05-01T16:17:56.999Z</time></trkpt><trkpt lat="45.89080611297137" lon="14.15438163508866"><ele>592.0</ele><time>2026-05-01T16:17:57.999Z</time></trkpt><trkpt lat="45.89087856743905" lon="14.154510099112745"><ele>592.0</ele><time>2026-05-01T16:17:58.999Z</time></trkpt><trkpt lat="45.89086914034293" lon="14.154684442309463"><ele>592.0</ele><time>2026-05-01T16:17:59.999Z</time></trkpt><trkpt lat="45.89088306492097" lon="14.154862851146481"><ele>592.0</ele><time>2026-05-01T16:18:00.999Z</time></trkpt><trkpt lat="45.890912449544864" lon="14.155045106671963"><ele>586.25</ele><time>2026-05-01T16:18:01.999Z</time></trkpt><trkpt lat="45.890941109905064" lon="14.155223629933577"><ele>580.5</ele><time>2026-05-01T16:18:02.999Z</time></trkpt><trkpt lat="45.890987550066605" lon="14.155407023697592"><ele>574.75</ele><time>2026-05-01T16:18:03.999Z</time></trkpt><trkpt lat="45.89102823238004" lon="14.155599792237977"><ele>569.0</ele><time>2026-05-01T16:18:04.999Z</time></trkpt><trkpt lat="45.89105105001531" lon="14.155787610473721"><ele>569.0</ele><time>2026-05-01T16:18:05.999Z</time></trkpt><trkpt lat="45.89105668498291" lon="14.15598683681907"><ele>569.0</ele><time>2026-05-01T16:18:06.999Z</time></trkpt><trkpt lat="45.89105530725838" lon="14.156201997801851"><ele>569.0</ele><time>2026-05-01T16:18:07.999Z</time></trkpt><trkpt lat="45.89108163317601" lon="14.156423010090986"><ele>569.0</ele><time>2026-05-01T16:18:08.999Z</time></trkpt><trkpt lat="45.891102762944975" lon="14.156633293959556"><ele>569.5</ele><time>2026-05-01T16:18:09.999Z</time></trkpt><trkpt lat="45.89114644940142" lon="14.156840598546633"><ele>570.0</ele><time>2026-05-01T16:18:10.999Z</time></trkpt><trkpt lat="45.89119246909074" lon="14.15701765078463"><ele>570.5</ele><time>2026-05-01T16:18:11.999Z</time></trkpt><trkpt lat="45.891256797064806" lon="14.157165134880932"><ele>571.0</ele><time>2026-05-01T16:18:12.999Z</time></trkpt><trkpt lat="45.89135875449757" lon="14.157265909743062"><ele>571.0</ele><time>2026-05-01T16:18:13.999Z</time></trkpt><trkpt lat="45.89148341624977" lon="14.157305569817002"><ele>571.0</ele><time>2026-05-01T16:18:14.999Z</time></trkpt><trkpt lat="45.891617861840174" lon="14.1573057421742"><ele>571.0</ele><time>2026-05-01T16:18:15.999Z</time></trkpt><trkpt lat="45.89175496906345" lon="14.157297042483385"><ele>571.0</ele><time>2026-05-01T16:18:16.999Z</time></trkpt><trkpt lat="45.89185105206514" lon="14.157401560722091"><ele>567.25</ele><time>2026-05-01T16:18:17.999Z</time></trkpt><trkpt lat="45.891917406896916" lon="14.15754367309422"><ele>563.5</ele><time>2026-05-01T16:18:18.999Z</time></trkpt><trkpt lat="45.89191676496918" lon="14.157707275923151"><ele>559.75</ele><time>2026-05-01T16:18:19.999Z</time></trkpt><trkpt lat="45.89189023507989" lon="14.157866821438489"><ele>556.0</ele><time>2026-05-01T16:18:20.999Z</time></trkpt><trkpt lat="45.891822253575064" lon="14.157997982248034"><ele>560.0</ele><time>2026-05-01T16:18:21.999Z</time></trkpt><trkpt lat="45.891727449087696" lon="14.15808569304252"><ele>564.0</ele><time>2026-05-01T16:18:22.999Z</time></trkpt><trkpt lat="45.89160347692558" lon="14.158172677655374"><ele>568.0</ele><time>2026-05-01T16:18:23.999Z</time></trkpt><trkpt lat="45.89148448480507" lon="14.15825928318773"><ele>572.0</ele><time>2026-05-01T16:18:24.999Z</time></trkpt><trkpt lat="45.891369296722" lon="14.158362527498577"><ele>572.0</ele><time>2026-05-01T16:18:25.999Z</time></trkpt><trkpt lat="45.891269250804214" lon="14.158493566625385"><ele>572.0</ele><time>2026-05-01T16:18:26.999Z</time></trkpt><trkpt lat="45.89118590643571" lon="14.158639138503483"><ele>572.0</ele><time>2026-05-01T16:18:27.999Z</time></trkpt><trkpt lat="45.89112077594722" lon="14.158818636678589"><ele>572.0</ele><time>2026-05-01T16:18:28.999Z</time></trkpt><trkpt lat="45.89108001469731" lon="14.159018943053804"><ele>569.5</ele><time>2026-05-01T16:18:29.999Z</time></trkpt><trkpt lat="45.891053010775074" lon="14.159218082925534"><ele>567.0</ele><time>2026-05-01T16:18:30.999Z</time></trkpt><trkpt lat="45.891019541766774" lon="14.159421308302923"><ele>564.5</ele><time>2026-05-01T16:18:32Z</time></trkpt><trkpt lat="45.89098578055264" lon="14.159615590853374"><ele>562.0</ele><time>2026-05-01T16:18:33Z</time></trkpt><trkpt lat="45.890976035136525" lon="14.159814878930932"><ele>560.75</ele><time>2026-05-01T16:18:34Z</time></trkpt><trkpt lat="45.89101580071726" lon="14.160009324105681"><ele>559.5</ele><time>2026-05-01T16:18:35Z</time></trkpt><trkpt lat="45.891107566442784" lon="14.160173256525207"><ele>558.25</ele><time>2026-05-01T16:18:36Z</time></trkpt><trkpt lat="45.8912202695356" lon="14.160310972370615"><ele>557.0</ele><time>2026-05-01T16:18:37Z</time></trkpt><trkpt lat="45.891340012491426" lon="14.160439839746305"><ele>557.0</ele><time>2026-05-01T16:18:38Z</time></trkpt><trkpt lat="45.891401216292195" lon="14.16061187552206"><ele>557.0</ele><time>2026-05-01T16:18:39Z</time></trkpt><trkpt lat="45.89138029116942" lon="14.160773264836335"><ele>557.0</ele><time>2026-05-01T16:18:40Z</time></trkpt><trkpt lat="45.891337899233946" lon="14.160958293330046"><ele>557.0</ele><time>2026-05-01T16:18:41Z</time></trkpt><trkpt lat="45.89130390445935" lon="14.161166236447913"><ele>555.3333333333333</ele><time>2026-05-01T16:18:42Z</time></trkpt><trkpt lat="45.8912660951881" lon="14.161387474201069"><ele>553.6666666666666</ele><time>2026-05-01T16:18:43Z</time></trkpt><trkpt lat="45.89122371723345" lon="14.161610724321482"><ele>552.0</ele><time>2026-05-01T16:18:44Z</time></trkpt><trkpt lat="45.89117818819186" lon="14.16182094317016"><ele>551.0</ele><time>2026-05-01T16:18:45Z</time></trkpt><trkpt lat="45.89111246168193" lon="14.16203444370021"><ele>550.0</ele><time>2026-05-01T16:18:46Z</time></trkpt><trkpt lat="45.89103483047418" lon="14.162207480820213"><ele>549.0</ele><time>2026-05-01T16:18:47Z</time></trkpt><trkpt lat="45.89095701229295" lon="14.162383034226877"><ele>548.5</ele><time>2026-05-01T16:18:48Z</time></trkpt><trkpt lat="45.890884428430404" lon="14.162526383002042"><ele>548.0</ele><time>2026-05-01T16:18:49Z</time></trkpt><trkpt lat="45.89087821303213" lon="14.162696420587716"><ele>547.5</ele><time>2026-05-01T16:18:50Z</time></trkpt><trkpt lat="45.890937579622594" lon="14.162851651217984"><ele>547.0</ele><time>2026-05-01T16:18:51Z</time></trkpt><trkpt lat="45.891043933158045" lon="14.16298990053322"><ele>547.0</ele><time>2026-05-01T16:18:52Z</time></trkpt><trkpt lat="45.89117140183992" lon="14.163084196661952"><ele>547.0</ele><time>2026-05-01T16:18:53Z</time></trkpt><trkpt lat="45.89130234431796" lon="14.163170615781441"><ele>547.0</ele><time>2026-05-01T16:18:54Z</time></trkpt><trkpt lat="45.891415848939545" lon="14.163295766547387"><ele>547.0</ele><time>2026-05-01T16:18:55Z</time></trkpt><trkpt lat="45.89150925226972" lon="14.16343494786871"><ele>546.5</ele><time>2026-05-01T16:18:56Z</time></trkpt><trkpt lat="45.89158916851279" lon="14.163608362387519"><ele>546.0</ele><time>2026-05-01T16:18:57Z</time></trkpt><trkpt lat="45.891685310044956" lon="14.163753111477249"><ele>545.5</ele><time>2026-05-01T16:18:58Z</time></trkpt><trkpt lat="45.89179758808264" lon="14.163868647951212"><ele>545.0</ele><time>2026-05-01T16:18:59Z</time></trkpt><trkpt lat="45.89193223669589" lon="14.163925624830965"><ele>544.75</ele><time>2026-05-01T16:19:00Z</time></trkpt><trkpt lat="45.89205504168663" lon="14.163992368897043"><ele>544.5</ele><time>2026-05-01T16:19:01Z</time></trkpt><trkpt lat="45.89214571340766" lon="14.164085423387347"><ele>544.25</ele><time>2026-05-01T16:19:02Z</time></trkpt><trkpt lat="45.89218558025134" lon="14.164242974734687"><ele>544.0</ele><time>2026-05-01T16:19:03Z</time></trkpt><trkpt lat="45.89219521084235" lon="14.164430933173785"><ele>544.0</ele><time>2026-05-01T16:19:04Z</time></trkpt><trkpt lat="45.89219659133303" lon="14.1646422265715"><ele>544.0</ele><time>2026-05-01T16:19:05Z</time></trkpt><trkpt lat="45.89216493697716" lon="14.164836093105615"><ele>544.0</ele><time>2026-05-01T16:19:06Z</time></trkpt><trkpt lat="45.89208391775832" lon="14.16501043278769"><ele>544.0</ele><time>2026-05-01T16:19:07Z</time></trkpt><trkpt lat="45.89201495791796" lon="14.1652033145371"><ele>545.0</ele><time>2026-05-01T16:19:08Z</time></trkpt><trkpt lat="45.89195578116364" lon="14.165391693756902"><ele>546.0</ele><time>2026-05-01T16:19:09Z</time></trkpt><trkpt lat="45.89191702522376" lon="14.165593816996887"><ele>547.0</ele><time>2026-05-01T16:19:10Z</time></trkpt><trkpt lat="45.891900715917195" lon="14.165794458735872"><ele>548.0</ele><time>2026-05-01T16:19:11Z</time></trkpt><trkpt lat="45.891907881361675" lon="14.1659923030238"><ele>548.0</ele><time>2026-05-01T16:19:12Z</time></trkpt><trkpt lat="45.891938451843316" lon="14.166184948817259"><ele>548.0</ele><time>2026-05-01T16:19:13Z</time></trkpt><trkpt lat="45.89198339422752" lon="14.166366122186849"><ele>548.0</ele><time>2026-05-01T16:19:14Z</time></trkpt><trkpt lat="45.89202293095992" lon="14.166549616130936"><ele>548.0</ele><time>2026-05-01T16:19:15Z</time></trkpt><trkpt lat="45.892027369047696" lon="14.16673404651389"><ele>547.5</ele><time>2026-05-01T16:19:16Z</time></trkpt><trkpt lat="45.891945355028724" lon="14.166897714093578"><ele>547.0</ele><time>2026-05-01T16:19:17Z</time></trkpt><trkpt lat="45.89189991953466" lon="14.16707879928678"><ele>546.5</ele><time>2026-05-01T16:19:18Z</time></trkpt><trkpt lat="45.89185834273843" lon="14.167260416945258"><ele>546.0</ele><time>2026-05-01T16:19:19Z</time></trkpt><trkpt lat="45.89187542142913" lon="14.16745761474024"><ele>544.5</ele><time>2026-05-01T16:19:20Z</time></trkpt><trkpt lat="45.891916435023326" lon="14.167655794938616"><ele>543.0</ele><time>2026-05-01T16:19:21Z</time></trkpt><trkpt lat="45.89195062609961" lon="14.16784880827918"><ele>541.5</ele><time>2026-05-01T16:19:22Z</time></trkpt><trkpt lat="45.89198595845369" lon="14.168047463621946"><ele>540.0</ele><time>2026-05-01T16:19:22.999Z</time></trkpt><trkpt lat="45.89204961807701" lon="14.168231426549921"><ele>537.6666666666666</ele><time>2026-05-01T16:19:23.999Z</time></trkpt><trkpt lat="45.89214299676195" lon="14.168397525638547"><ele>535.3333333333333</ele><time>2026-05-01T16:19:24.999Z</time></trkpt><trkpt lat="45.89225088208225" lon="14.168545580021702"><ele>533.0</ele><time>2026-05-01T16:19:25.999Z</time></trkpt><trkpt lat="45.892365523865756" lon="14.168691605475734"><ele>533.0</ele><time>2026-05-01T16:19:26.999Z</time></trkpt><trkpt lat="45.89250162792342" lon="14.168784596697236"><ele>533.0</ele><time>2026-05-01T16:19:27.999Z</time></trkpt><trkpt lat="45.892649412759134" lon="14.168818844013458"><ele>533.0</ele><time>2026-05-01T16:19:28.999Z</time></trkpt><trkpt lat="45.892783344671585" lon="14.168827372898829"><ele>533.0</ele><time>2026-05-01T16:19:29.999Z</time></trkpt><trkpt lat="45.892883390518975" lon="14.168873014168222"><ele>535.0</ele><time>2026-05-01T16:19:30.999Z</time></trkpt><trkpt lat="45.89296138634552" lon="14.169038526148034"><ele>537.0</ele><time>2026-05-01T16:19:31.999Z</time></trkpt><trkpt lat="45.89302248722615" lon="14.169246645029363"><ele>539.0</ele><time>2026-05-01T16:19:32.999Z</time></trkpt><trkpt lat="45.8930919588314" lon="14.169440755030848"><ele>541.0</ele><time>2026-05-01T16:19:33.999Z</time></trkpt><trkpt lat="45.89315310213139" lon="14.169649251326934"><ele>541.0</ele><time>2026-05-01T16:19:34.999Z</time></trkpt><trkpt lat="45.89321757484722" lon="14.169854765897833"><ele>541.0</ele><time>2026-05-01T16:19:35.999Z</time></trkpt><trkpt lat="45.893280436764236" lon="14.17006766665492"><ele>541.0</ele><time>2026-05-01T16:19:36.999Z</time></trkpt><trkpt lat="45.8933531524274" lon="14.170274554808975"><ele>542.6666666666667</ele><time>2026-05-01T16:19:37.999Z</time></trkpt><trkpt lat="45.89344322922633" lon="14.170465199740338"><ele>544.3333333333334</ele><time>2026-05-01T16:19:38.999Z</time></trkpt><trkpt lat="45.893552729977664" lon="14.17063931091295"><ele>546.0</ele><time>2026-05-01T16:19:39.999Z</time></trkpt><trkpt lat="45.89365741676616" lon="14.170806845856443"><ele>542.5</ele><time>2026-05-01T16:19:40.999Z</time></trkpt><trkpt lat="45.893748365754504" lon="14.170975706971713"><ele>539.0</ele><time>2026-05-01T16:19:41.999Z</time></trkpt><trkpt lat="45.89383540607419" lon="14.17114046090634"><ele>535.5</ele><time>2026-05-01T16:19:42.999Z</time></trkpt><trkpt lat="45.89394305029283" lon="14.171270728187706"><ele>532.0</ele><time>2026-05-01T16:19:43.999Z</time></trkpt><trkpt lat="45.89408108372723" lon="14.171346845972714"><ele>532.0</ele><time>2026-05-01T16:19:44.999Z</time></trkpt><trkpt lat="45.89423227570696" lon="14.171388843714688"><ele>532.0</ele><time>2026-05-01T16:19:45.999Z</time></trkpt><trkpt lat="45.894382918620735" lon="14.171441791716225"><ele>532.0</ele><time>2026-05-01T16:19:46.999Z</time></trkpt><trkpt lat="45.89448496919476" lon="14.17160597188725"><ele>529.6666666666667</ele><time>2026-05-01T16:19:47.999Z</time></trkpt><trkpt lat="45.89457100695227" lon="14.171788435381725"><ele>527.3333333333334</ele><time>2026-05-01T16:19:48.999Z</time></trkpt><trkpt lat="45.89463967980729" lon="14.171994705991375"><ele>525.0</ele><time>2026-05-01T16:19:49.999Z</time></trkpt><trkpt lat="45.8946814515895" lon="14.172220440772213"><ele>522.0</ele><time>2026-05-01T16:19:50.999Z</time></trkpt><trkpt lat="45.8946766999436" lon="14.172456539157135"><ele>519.0</ele><time>2026-05-01T16:19:51.999Z</time></trkpt><trkpt lat="45.89462694787504" lon="14.172692767657626"><ele>516.0</ele><time>2026-05-01T16:19:52.999Z</time></trkpt><trkpt lat="45.89454887397555" lon="14.172919298746576"><ele>516.0</ele><time>2026-05-01T16:19:53.999Z</time></trkpt><trkpt lat="45.89448470558533" lon="14.173148158374936"><ele>516.0</ele><time>2026-05-01T16:19:54.999Z</time></trkpt><trkpt lat="45.89441248256856" lon="14.173373804868325"><ele>516.0</ele><time>2026-05-01T16:19:55.999Z</time></trkpt><trkpt lat="45.89436935514707" lon="14.173601677358388"><ele>514.6666666666666</ele><time>2026-05-01T16:19:56.999Z</time></trkpt><trkpt lat="45.89434897767991" lon="14.17382494428645"><ele>513.3333333333333</ele><time>2026-05-01T16:19:57.999Z</time></trkpt><trkpt lat="45.894358606115816" lon="14.174035765491054"><ele>512.0</ele><time>2026-05-01T16:19:58.999Z</time></trkpt><trkpt lat="45.894383312220015" lon="14.174248746395898"><ele>510.66666666666663</ele><time>2026-05-01T16:19:59.999Z</time></trkpt><trkpt lat="45.89442685187978" lon="14.17445764157847"><ele>509.33333333333337</ele><time>2026-05-01T16:20:00.999Z</time></trkpt><trkpt lat="45.894479553697884" lon="14.174663698189075"><ele>508.0</ele><time>2026-05-01T16:20:01.999Z</time></trkpt><trkpt lat="45.894542523230626" lon="14.174870851289166"><ele>507.33333333333337</ele><time>2026-05-01T16:20:02.999Z</time></trkpt><trkpt lat="45.89461030250757" lon="14.175075824466056"><ele>506.66666666666663</ele><time>2026-05-01T16:20:03.999Z</time></trkpt><trkpt lat="45.894677183184044" lon="14.175285220490704"><ele>506.0</ele><time>2026-05-01T16:20:04.999Z</time></trkpt><trkpt lat="45.894741429483986" lon="14.175495247500157"><ele>504.66666666666663</ele><time>2026-05-01T16:20:05.999Z</time></trkpt><trkpt lat="45.89479669309925" lon="14.175703932608418"><ele>503.33333333333337</ele><time>2026-05-01T16:20:06.999Z</time></trkpt><trkpt lat="45.89485167496302" lon="14.175908683155654"><ele>502.0</ele><time>2026-05-01T16:20:07.999Z</time></trkpt><trkpt lat="45.89491198358424" lon="14.176098095534421"><ele>502.0</ele><time>2026-05-01T16:20:08.999Z</time></trkpt><trkpt lat="45.89499183560655" lon="14.176249353169874"><ele>502.0</ele><time>2026-05-01T16:20:09.999Z</time></trkpt><trkpt lat="45.8951018628572" lon="14.17633984700252"><ele>502.0</ele><time>2026-05-01T16:20:10.999Z</time></trkpt><trkpt lat="45.89524496522234" lon="14.176356707270203"><ele>502.0</ele><time>2026-05-01T16:20:11.999Z</time></trkpt><trkpt lat="45.89538787817172" lon="14.176331891275057"><ele>503.0</ele><time>2026-05-01T16:20:12.999Z</time></trkpt><trkpt lat="45.895524480536565" lon="14.176354827025358"><ele>504.0</ele><time>2026-05-01T16:20:13.999Z</time></trkpt><trkpt lat="45.895643070948125" lon="14.1764240729611"><ele>505.0</ele><time>2026-05-01T16:20:14.999Z</time></trkpt><trkpt lat="45.895733524767024" lon="14.176562193285728"><ele>506.0</ele><time>2026-05-01T16:20:15.999Z</time></trkpt><trkpt lat="45.895751588649816" lon="14.176750134269827"><ele>506.0</ele><time>2026-05-01T16:20:16.999Z</time></trkpt><trkpt lat="45.8957774118332" lon="14.176955369615866"><ele>506.0</ele><time>2026-05-01T16:20:17.999Z</time></trkpt><trkpt lat="45.89577746267405" lon="14.177155513072497"><ele>506.0</ele><time>2026-05-01T16:20:18.999Z</time></trkpt><trkpt lat="45.89579471087958" lon="14.177352346286925"><ele>506.0</ele><time>2026-05-01T16:20:19.999Z</time></trkpt><trkpt lat="45.895808879165045" lon="14.177548288180326"><ele>506.0</ele><time>2026-05-01T16:20:20.999Z</time></trkpt><trkpt lat="45.89582689743889" lon="14.177737461938651"><ele>506.0</ele><time>2026-05-01T16:20:21.999Z</time></trkpt><trkpt lat="45.895810325752876" lon="14.177918244161631"><ele>506.0</ele><time>2026-05-01T16:20:22.999Z</time></trkpt><trkpt lat="45.89571460223914" lon="14.178061983959687"><ele>506.0</ele><time>2026-05-01T16:20:23.999Z</time></trkpt><trkpt lat="45.89560898159246" lon="14.178186468924853"><ele>506.0</ele><time>2026-05-01T16:20:24.999Z</time></trkpt><trkpt lat="45.8955135445832" lon="14.178325058230687"><ele>506.0</ele><time>2026-05-01T16:20:25.999Z</time></trkpt><trkpt lat="45.895436590376804" lon="14.178485247098871"><ele>506.0</ele><time>2026-05-01T16:20:26.999Z</time></trkpt><trkpt lat="45.895393992838876" lon="14.178682183208611"><ele>506.0</ele><time>2026-05-01T16:20:27.999Z</time></trkpt><trkpt lat="45.895369895455936" lon="14.17888789130301"><ele>507.5</ele><time>2026-05-01T16:20:28.999Z</time></trkpt><trkpt lat="45.895351199099586" lon="14.179086105781302"><ele>509.0</ele><time>2026-05-01T16:20:29.999Z</time></trkpt><trkpt lat="45.89531193240314" lon="14.179281931975742"><ele>510.5</ele><time>2026-05-01T16:20:30.999Z</time></trkpt><trkpt lat="45.895250612481675" lon="14.179469543727276"><ele>512.0</ele><time>2026-05-01T16:20:31.999Z</time></trkpt><trkpt lat="45.89517387653488" lon="14.179647561545933"><ele>512.0</ele><time>2026-05-01T16:20:32.999Z</time></trkpt><trkpt lat="45.895092235152" lon="14.179815159969733"><ele>512.0</ele><time>2026-05-01T16:20:33.999Z</time></trkpt><trkpt lat="45.89502074053446" lon="14.179996628358694"><ele>512.0</ele><time>2026-05-01T16:20:34.999Z</time></trkpt><trkpt lat="45.89496956945729" lon="14.18019259685705"><ele>512.0</ele><time>2026-05-01T16:20:35.999Z</time></trkpt><trkpt lat="45.89492883994703" lon="14.180392838244934"><ele>511.0</ele><time>2026-05-01T16:20:36.999Z</time></trkpt><trkpt lat="45.89489663522677" lon="14.180599749480416"><ele>510.0</ele><time>2026-05-01T16:20:38Z</time></trkpt><trkpt lat="45.89486718886669" lon="14.18080960973225"><ele>509.0</ele><time>2026-05-01T16:20:39Z</time></trkpt><trkpt lat="45.894808389083984" lon="14.181000664498072"><ele>508.0</ele><time>2026-05-01T16:20:40Z</time></trkpt><trkpt lat="45.894746240136875" lon="14.18118995183638"><ele>508.0</ele><time>2026-05-01T16:20:41Z</time></trkpt><trkpt lat="45.894695868881094" lon="14.181380752799459"><ele>508.0</ele><time>2026-05-01T16:20:42Z</time></trkpt><trkpt lat="45.89464043388026" lon="14.181568814807965"><ele>508.0</ele><time>2026-05-01T16:20:43Z</time></trkpt><trkpt lat="45.894627841035025" lon="14.181767715732034"><ele>508.0</ele><time>2026-05-01T16:20:44Z</time></trkpt><trkpt lat="45.894647153986064" lon="14.18196841027319"><ele>508.25</ele><time>2026-05-01T16:20:45Z</time></trkpt><trkpt lat="45.89468329758495" lon="14.182161065339551"><ele>508.5</ele><time>2026-05-01T16:20:46Z</time></trkpt><trkpt lat="45.89468435702183" lon="14.182360400449866"><ele>508.75</ele><time>2026-05-01T16:20:47Z</time></trkpt><trkpt lat="45.8946589054955" lon="14.182552503510347"><ele>509.0</ele><time>2026-05-01T16:20:48Z</time></trkpt><trkpt lat="45.89460744568634" lon="14.182737645394042"><ele>509.0</ele><time>2026-05-01T16:20:49Z</time></trkpt><trkpt lat="45.89455833110124" lon="14.182923841798484"><ele>509.0</ele><time>2026-05-01T16:20:50Z</time></trkpt><trkpt lat="45.894499509942904" lon="14.183102711371419"><ele>509.0</ele><time>2026-05-01T16:20:51Z</time></trkpt><trkpt lat="45.89445837587235" lon="14.183286874839956"><ele>509.0</ele><time>2026-05-01T16:20:52Z</time></trkpt><trkpt lat="45.894454765894125" lon="14.183467721820204"><ele>509.0</ele><time>2026-05-01T16:20:53Z</time></trkpt><trkpt lat="45.89447847263305" lon="14.183658392423709"><ele>509.0</ele><time>2026-05-01T16:20:54Z</time></trkpt><trkpt lat="45.89451045628181" lon="14.183860516195015"><ele>509.0</ele><time>2026-05-01T16:20:55Z</time></trkpt><trkpt lat="45.89453072450648" lon="14.18407192495476"><ele>509.0</ele><time>2026-05-01T16:20:56Z</time></trkpt><trkpt lat="45.894539590933256" lon="14.18429216695799"><ele>508.0</ele><time>2026-05-01T16:20:57Z</time></trkpt><trkpt lat="45.89454700419275" lon="14.184513912092022"><ele>507.0</ele><time>2026-05-01T16:20:58Z</time></trkpt><trkpt lat="45.894556894472906" lon="14.184741604497082"><ele>506.0</ele><time>2026-05-01T16:20:59Z</time></trkpt><trkpt lat="45.89456806621238" lon="14.184972743149975"><ele>505.3333333333333</ele><time>2026-05-01T16:21:00Z</time></trkpt><trkpt lat="45.89457987507547" lon="14.185204647850131"><ele>504.66666666666663</ele><time>2026-05-01T16:21:01Z</time></trkpt><trkpt lat="45.89459518751823" lon="14.185444844941653"><ele>504.0</ele><time>2026-05-01T16:21:02Z</time></trkpt><trkpt lat="45.89461270468978" lon="14.185689730325633"><ele>502.66666666666663</ele><time>2026-05-01T16:21:03Z</time></trkpt><trkpt lat="45.89462619547916" lon="14.185930636469422"><ele>501.3333333333333</ele><time>2026-05-01T16:21:04Z</time></trkpt><trkpt lat="45.89463950784453" lon="14.18617052372438"><ele>500.0</ele><time>2026-05-01T16:21:05Z</time></trkpt><trkpt lat="45.894650879645646" lon="14.186409391043744"><ele>498.3333333333333</ele><time>2026-05-01T16:21:06Z</time></trkpt><trkpt lat="45.89466112093538" lon="14.186649206624288"><ele>496.66666666666663</ele><time>2026-05-01T16:21:07Z</time></trkpt><trkpt lat="45.89467037743552" lon="14.186889300783756"><ele>495.0</ele><time>2026-05-01T16:21:08Z</time></trkpt><trkpt lat="45.894682408917745" lon="14.187126562473955"><ele>494.0</ele><time>2026-05-01T16:21:09Z</time></trkpt><trkpt lat="45.8946917257437" lon="14.187359576074533"><ele>493.0</ele><time>2026-05-01T16:21:10Z</time></trkpt><trkpt lat="45.89470179305529" lon="14.187591662935937"><ele>492.0</ele><time>2026-05-01T16:21:11Z</time></trkpt><trkpt lat="45.89471533382254" lon="14.18781856237053"><ele>492.0</ele><time>2026-05-01T16:21:12Z</time></trkpt><trkpt lat="45.89472442291683" lon="14.188039739349232"><ele>492.0</ele><time>2026-05-01T16:21:13Z</time></trkpt><trkpt lat="45.89473017706961" lon="14.18826023328764"><ele>492.0</ele><time>2026-05-01T16:21:14Z</time></trkpt><trkpt lat="45.89473697889368" lon="14.188479689282188"><ele>491.75</ele><time>2026-05-01T16:21:15Z</time></trkpt><trkpt lat="45.894749959460704" lon="14.188688577237325"><ele>491.5</ele><time>2026-05-01T16:21:16Z</time></trkpt><trkpt lat="45.894772529525014" lon="14.1888805413091"><ele>491.25</ele><time>2026-05-01T16:21:17Z</time></trkpt><trkpt lat="45.89481675602379" lon="14.189046671530017"><ele>491.0</ele><time>2026-05-01T16:21:17.999Z</time></trkpt><trkpt lat="45.89487223290351" lon="14.189193108449805"><ele>490.6</ele><time>2026-05-01T16:21:18.999Z</time></trkpt><trkpt lat="45.894937078748676" lon="14.189315506201304"><ele>490.20000000000005</ele><time>2026-05-01T16:21:19.999Z</time></trkpt><trkpt lat="45.894993578086314" lon="14.189408852308784"><ele>489.79999999999995</ele><time>2026-05-01T16:21:20.999Z</time></trkpt><trkpt lat="45.89503457098251" lon="14.189492502653522"><ele>489.4</ele><time>2026-05-01T16:21:21.999Z</time></trkpt><trkpt lat="45.89509363885055" lon="14.189601047084876"><ele>489.0</ele><time>2026-05-01T16:21:23.999Z</time></trkpt><trkpt lat="45.895007128814996" lon="14.189812967274817"><ele>488.75</ele><time>2026-05-01T16:21:24.999Z</time></trkpt><trkpt lat="45.89496300568808" lon="14.189932712039706"><ele>488.5</ele><time>2026-05-01T16:21:25.999Z</time></trkpt><trkpt lat="45.8949262532797" lon="14.190073711454929"><ele>488.25</ele><time>2026-05-01T16:21:26.999Z</time></trkpt><trkpt lat="45.89490554422159" lon="14.190252678537828"><ele>488.0</ele><time>2026-05-01T16:21:27.999Z</time></trkpt><trkpt lat="45.89489715671827" lon="14.190431389116103"><ele>488.0</ele><time>2026-05-01T16:21:28.999Z</time></trkpt><trkpt lat="45.89490093872555" lon="14.190606802737323"><ele>488.0</ele><time>2026-05-01T16:21:29.999Z</time></trkpt><trkpt lat="45.894915462489486" lon="14.1907928028794"><ele>488.0</ele><time>2026-05-01T16:21:30.999Z</time></trkpt><trkpt lat="45.89493791487335" lon="14.190982131377408"><ele>488.0</ele><time>2026-05-01T16:21:31.999Z</time></trkpt><trkpt lat="45.89496527725058" lon="14.191171311109935"><ele>489.5</ele><time>2026-05-01T16:21:32.999Z</time></trkpt><trkpt lat="45.89499428933845" lon="14.19135918954755"><ele>491.0</ele><time>2026-05-01T16:21:33.999Z</time></trkpt><trkpt lat="45.89502613452465" lon="14.191549105395207"><ele>492.5</ele><time>2026-05-01T16:21:34.999Z</time></trkpt><trkpt lat="45.89506474098719" lon="14.191736506718469"><ele>494.0</ele><time>2026-05-01T16:21:35.999Z</time></trkpt><trkpt lat="45.89510736922511" lon="14.191919138691157"><ele>495.0</ele><time>2026-05-01T16:21:36.999Z</time></trkpt><trkpt lat="45.89515222452582" lon="14.192104531010623"><ele>496.0</ele><time>2026-05-01T16:21:37.999Z</time></trkpt><trkpt lat="45.89519737674431" lon="14.192294498291764"><ele>497.0</ele><time>2026-05-01T16:21:38.999Z</time></trkpt><trkpt lat="45.895242921385076" lon="14.192489103963691"><ele>498.0</ele><time>2026-05-01T16:21:39.999Z</time></trkpt><trkpt lat="45.895292264571324" lon="14.192685460840755"><ele>498.66666666666663</ele><time>2026-05-01T16:21:40.999Z</time></trkpt><trkpt lat="45.895347475280026" lon="14.192882739532749"><ele>499.3333333333333</ele><time>2026-05-01T16:21:41.999Z</time></trkpt><trkpt lat="45.89540509112746" lon="14.19308430671956"><ele>500.0</ele><time>2026-05-01T16:21:42.999Z</time></trkpt><trkpt lat="45.895458029363155" lon="14.193288989678825"><ele>500.0</ele><time>2026-05-01T16:21:43.999Z</time></trkpt><trkpt lat="45.89551016141549" lon="14.1935008353239"><ele>500.0</ele><time>2026-05-01T16:21:44.999Z</time></trkpt><trkpt lat="45.89556530468627" lon="14.193712045967342"><ele>500.0</ele><time>2026-05-01T16:21:45.999Z</time></trkpt><trkpt lat="45.89562364450725" lon="14.193919115579835"><ele>499.66666666666663</ele><time>2026-05-01T16:21:46.999Z</time></trkpt><trkpt lat="45.89568638716513" lon="14.194124095368833"><ele>499.33333333333337</ele><time>2026-05-01T16:21:47.999Z</time></trkpt><trkpt lat="45.89575140122241" lon="14.19433260427561"><ele>499.0</ele><time>2026-05-01T16:21:48.999Z</time></trkpt><trkpt lat="45.89581682213929" lon="14.194541411166576"><ele>499.0</ele><time>2026-05-01T16:21:49.999Z</time></trkpt><trkpt lat="45.89588700352645" lon="14.19474254442028"><ele>499.0</ele><time>2026-05-01T16:21:50.999Z</time></trkpt><trkpt lat="45.895961473479936" lon="14.19494584722428"><ele>499.0</ele><time>2026-05-01T16:21:51.999Z</time></trkpt><trkpt lat="45.896040069180295" lon="14.195150026663617"><ele>497.33333333333337</ele><time>2026-05-01T16:21:52.999Z</time></trkpt><trkpt lat="45.896114561356" lon="14.195343753214157"><ele>495.66666666666663</ele><time>2026-05-01T16:21:53.999Z</time></trkpt><trkpt lat="45.89618777663688" lon="14.195531237688494"><ele>494.0</ele><time>2026-05-01T16:21:54.999Z</time></trkpt><trkpt lat="45.89628014663404" lon="14.195718579318054"><ele>493.3333333333333</ele><time>2026-05-01T16:21:55.999Z</time></trkpt><trkpt lat="45.896373935200465" lon="14.195898833511487"><ele>492.66666666666663</ele><time>2026-05-01T16:21:56.999Z</time></trkpt><trkpt lat="45.896463815308785" lon="14.196075208176623"><ele>492.0</ele><time>2026-05-01T16:21:57.999Z</time></trkpt><trkpt lat="45.89655922338028" lon="14.196248099436573"><ele>492.0</ele><time>2026-05-01T16:21:58.999Z</time></trkpt><trkpt lat="45.89665287887029" lon="14.196425595682866"><ele>492.0</ele><time>2026-05-01T16:21:59.999Z</time></trkpt><trkpt lat="45.89675243187032" lon="14.19658680967706"><ele>492.0</ele><time>2026-05-01T16:22:00.999Z</time></trkpt><trkpt lat="45.8968618565162" lon="14.196744514858949"><ele>493.33333333333337</ele><time>2026-05-01T16:22:01.999Z</time></trkpt><trkpt lat="45.89696924172389" lon="14.19690170927792"><ele>494.6666666666667</ele><time>2026-05-01T16:22:02.999Z</time></trkpt><trkpt lat="45.897077310063246" lon="14.197064819485693"><ele>496.0</ele><time>2026-05-01T16:22:03.999Z</time></trkpt><trkpt lat="45.89718879546731" lon="14.197226580423736"><ele>495.0</ele><time>2026-05-01T16:22:04.999Z</time></trkpt><trkpt lat="45.897298301956475" lon="14.197383088066267"><ele>494.0</ele><time>2026-05-01T16:22:05.999Z</time></trkpt><trkpt lat="45.89741368763082" lon="14.197541636160418"><ele>493.0</ele><time>2026-05-01T16:22:06.999Z</time></trkpt><trkpt lat="45.89752531676573" lon="14.197699578433753"><ele>494.6666666666667</ele><time>2026-05-01T16:22:07.999Z</time></trkpt><trkpt lat="45.89763311956898" lon="14.197865805809256"><ele>496.33333333333337</ele><time>2026-05-01T16:22:08.999Z</time></trkpt><trkpt lat="45.89773277610846" lon="14.198044905187826"><ele>498.0</ele><time>2026-05-01T16:22:09.999Z</time></trkpt><trkpt lat="45.8978299580899" lon="14.198223738988673"><ele>498.0</ele><time>2026-05-01T16:22:10.999Z</time></trkpt><trkpt lat="45.89790972506823" lon="14.19842044211332"><ele>498.0</ele><time>2026-05-01T16:22:11.999Z</time></trkpt><trkpt lat="45.89801073746834" lon="14.19859498854901"><ele>498.0</ele><time>2026-05-01T16:22:12.999Z</time></trkpt><trkpt lat="45.89809185799152" lon="14.1987957090666"><ele>498.0</ele><time>2026-05-01T16:22:13.999Z</time></trkpt><trkpt lat="45.89817340705999" lon="14.199000848909101"><ele>498.0</ele><time>2026-05-01T16:22:14.999Z</time></trkpt><trkpt lat="45.8982572505792" lon="14.199212581384781"><ele>498.0</ele><time>2026-05-01T16:22:15.999Z</time></trkpt><trkpt lat="45.89833691813246" lon="14.199422531179126"><ele>497.33333333333337</ele><time>2026-05-01T16:22:16.999Z</time></trkpt><trkpt lat="45.89841707215396" lon="14.199631310170789"><ele>496.6666666666667</ele><time>2026-05-01T16:22:17.999Z</time></trkpt><trkpt lat="45.898510158235226" lon="14.199835293403586"><ele>496.0</ele><time>2026-05-01T16:22:18.999Z</time></trkpt><trkpt lat="45.89861534738706" lon="14.200027730009774"><ele>495.0</ele><time>2026-05-01T16:22:19.999Z</time></trkpt><trkpt lat="45.898725329111144" lon="14.200193795281535"><ele>494.0</ele><time>2026-05-01T16:22:20.999Z</time></trkpt><trkpt lat="45.89884135817569" lon="14.200317769711413"><ele>493.0</ele><time>2026-05-01T16:22:21.999Z</time></trkpt><trkpt lat="45.898952899702685" lon="14.200426548519967"><ele>492.0</ele><time>2026-05-01T16:22:22.999Z</time></trkpt><trkpt lat="45.89905492806427" lon="14.200521710436767"><ele>492.0</ele><time>2026-05-01T16:22:23.999Z</time></trkpt><trkpt lat="45.89915358137003" lon="14.200605502294339"><ele>492.0</ele><time>2026-05-01T16:22:24.999Z</time></trkpt><trkpt lat="45.89926639581588" lon="14.200675642479984"><ele>492.0</ele><time>2026-05-01T16:22:25.999Z</time></trkpt><trkpt lat="45.899382373883306" lon="14.200735816927077"><ele>492.0</ele><time>2026-05-01T16:22:26.999Z</time></trkpt><trkpt lat="45.899504275985244" lon="14.200768520307122"><ele>493.5</ele><time>2026-05-01T16:22:27.999Z</time></trkpt><trkpt lat="45.89962600735844" lon="14.200813260587788"><ele>495.0</ele><time>2026-05-01T16:22:28.999Z</time></trkpt><trkpt lat="45.89974987521894" lon="14.200845422661823"><ele>496.5</ele><time>2026-05-01T16:22:29.999Z</time></trkpt><trkpt lat="45.89987457637893" lon="14.200863721862525"><ele>498.0</ele><time>2026-05-01T16:22:30.999Z</time></trkpt><trkpt lat="45.899998614447696" lon="14.200877153364749"><ele>498.0</ele><time>2026-05-01T16:22:31.999Z</time></trkpt><trkpt lat="45.900121364209944" lon="14.20088924838522"><ele>498.0</ele><time>2026-05-01T16:22:32.999Z</time></trkpt><trkpt lat="45.90024531181195" lon="14.200893476086474"><ele>498.0</ele><time>2026-05-01T16:22:33.999Z</time></trkpt><trkpt lat="45.900371966894234" lon="14.200897549447841"><ele>498.0</ele><time>2026-05-01T16:22:34.999Z</time></trkpt><trkpt lat="45.900500274661475" lon="14.200902454619195"><ele>498.0</ele><time>2026-05-01T16:22:35.999Z</time></trkpt><trkpt lat="45.9006317109881" lon="14.200904752546993"><ele>498.0</ele><time>2026-05-01T16:22:36.999Z</time></trkpt><trkpt lat="45.90076569616591" lon="14.200897997823336"><ele>498.0</ele><time>2026-05-01T16:22:37.999Z</time></trkpt><trkpt lat="45.90090294761996" lon="14.200890961842191"><ele>498.0</ele><time>2026-05-01T16:22:38.999Z</time></trkpt><trkpt lat="45.90104254668558" lon="14.20088919372532"><ele>499.0</ele><time>2026-05-01T16:22:39.999Z</time></trkpt><trkpt lat="45.901183903669896" lon="14.200888684058208"><ele>500.0</ele><time>2026-05-01T16:22:40.999Z</time></trkpt><trkpt lat="45.90132645723249" lon="14.200888562563781"><ele>501.0</ele><time>2026-05-01T16:22:41.999Z</time></trkpt><trkpt lat="45.90147278203472" lon="14.20089111829496"><ele>502.0</ele><time>2026-05-01T16:22:42.999Z</time></trkpt><trkpt lat="45.90161939099428" lon="14.20089620698415"><ele>500.5</ele><time>2026-05-01T16:22:44Z</time></trkpt><trkpt lat="45.9017723406101" lon="14.20091058545701"><ele>499.0</ele><time>2026-05-01T16:22:45Z</time></trkpt><trkpt lat="45.90192193392925" lon="14.200932418010368"><ele>497.5</ele><time>2026-05-01T16:22:46Z</time></trkpt><trkpt lat="45.9020580290611" lon="14.200950523166092"><ele>496.0</ele><time>2026-05-01T16:22:47Z</time></trkpt><trkpt lat="45.902187641536514" lon="14.200974327611664"><ele>496.0</ele><time>2026-05-01T16:22:48Z</time></trkpt><trkpt lat="45.90230894789681" lon="14.201012333717117"><ele>496.0</ele><time>2026-05-01T16:22:49Z</time></trkpt><trkpt lat="45.902420772783834" lon="14.201050811626518"><ele>496.0</ele><time>2026-05-01T16:22:50Z</time></trkpt><trkpt lat="45.90250776868284" lon="14.201087360561269"><ele>496.0</ele><time>2026-05-01T16:22:51Z</time></trkpt><trkpt lat="45.902580408203114" lon="14.201126962117517"><ele>496.0</ele><time>2026-05-01T16:22:52Z</time></trkpt><trkpt lat="45.90266246222651" lon="14.201196022110638"><ele>496.33333333333337</ele><time>2026-05-01T16:22:54Z</time></trkpt><trkpt lat="45.90273040331312" lon="14.201178546791313"><ele>496.6666666666667</ele><time>2026-05-01T16:23:13Z</time></trkpt><trkpt lat="45.90285017782994" lon="14.201191683522346"><ele>497.0</ele><time>2026-05-01T16:23:49Z</time></trkpt><trkpt lat="45.90292110897661" lon="14.20121461338771"><ele>497.33333333333337</ele><time>2026-05-01T16:23:50Z</time></trkpt><trkpt lat="45.903002096920105" lon="14.201236333904745"><ele>497.6666666666667</ele><time>2026-05-01T16:23:51Z</time></trkpt><trkpt lat="45.90310019840837" lon="14.20126417681809"><ele>498.0</ele><time>2026-05-01T16:23:52Z</time></trkpt><trkpt lat="45.90320036815608" lon="14.201281851404525"><ele>498.0</ele><time>2026-05-01T16:23:53Z</time></trkpt><trkpt lat="45.903314224607506" lon="14.201293968871605"><ele>498.0</ele><time>2026-05-01T16:23:54Z</time></trkpt><trkpt lat="45.90343386618319" lon="14.201293256767054"><ele>498.0</ele><time>2026-05-01T16:23:55Z</time></trkpt><trkpt lat="45.903556488584314" lon="14.201270626507645"><ele>498.0</ele><time>2026-05-01T16:23:56Z</time></trkpt><trkpt lat="45.90367971901482" lon="14.201233592275466"><ele>496.4</ele><time>2026-05-01T16:23:57Z</time></trkpt><trkpt lat="45.90380115562895" lon="14.201195851236932"><ele>494.79999999999995</ele><time>2026-05-01T16:23:58Z</time></trkpt><trkpt lat="45.903908194307135" lon="14.2011513717271"><ele>493.2</ele><time>2026-05-01T16:23:59Z</time></trkpt><trkpt lat="45.90400998727882" lon="14.201109482668093"><ele>491.6</ele><time>2026-05-01T16:24:00Z</time></trkpt><trkpt lat="45.904101390105" lon="14.201071315212879"><ele>490.0</ele><time>2026-05-01T16:24:01Z</time></trkpt><trkpt lat="45.90418416124814" lon="14.201038808639641"><ele>489.6666666666667</ele><time>2026-05-01T16:24:02Z</time></trkpt><trkpt lat="45.90425887513679" lon="14.201016125226054"><ele>489.33333333333337</ele><time>2026-05-01T16:24:03Z</time></trkpt><trkpt lat="45.90432539827908" lon="14.200981070468034"><ele>489.0</ele><time>2026-05-01T16:24:04Z</time></trkpt><trkpt lat="45.904375982573775" lon="14.200832003396311"><ele>488.66666666666663</ele><time>2026-05-01T16:24:06Z</time></trkpt><trkpt lat="45.90439754864633" lon="14.200722214994324"><ele>488.3333333333333</ele><time>2026-05-01T16:24:08Z</time></trkpt><trkpt lat="45.904368122648854" lon="14.200606631474736"><ele>488.0</ele><time>2026-05-01T16:24:13Z</time></trkpt><trkpt lat="45.90431113308312" lon="14.200515461557208"><ele>488.0</ele><time>2026-05-01T16:24:14Z</time></trkpt><trkpt lat="45.90421693965256" lon="14.20052199235769"><ele>488.0</ele><time>2026-05-01T16:24:15Z</time></trkpt><trkpt lat="45.904329299446886" lon="14.200909306776751"><ele>488.0</ele><time>2026-05-01T16:24:16Z</time></trkpt><trkpt lat="45.90427649930545" lon="14.200989910461983"><ele>488.5</ele><time>2026-05-01T16:24:18Z</time></trkpt><trkpt lat="45.90420371270689" lon="14.201004083786055"><ele>489.0</ele><time>2026-05-01T16:24:19Z</time></trkpt><trkpt lat="45.90410722108515" lon="14.201020008929419"><ele>489.5</ele><time>2026-05-01T16:24:20Z</time></trkpt><trkpt lat="45.903984743150325" lon="14.201067202562184"><ele>490.0</ele><time>2026-05-01T16:24:21Z</time></trkpt><trkpt lat="45.90383385269388" lon="14.201137794615482"><ele>490.0</ele><time>2026-05-01T16:24:22Z</time></trkpt><trkpt lat="45.90368159353574" lon="14.201200648029358"><ele>490.0</ele><time>2026-05-01T16:24:23Z</time></trkpt><trkpt lat="45.903543354970395" lon="14.201238899169581"><ele>490.0</ele><time>2026-05-01T16:24:24Z</time></trkpt><trkpt lat="45.90340767369075" lon="14.201247873630475"><ele>490.0</ele><time>2026-05-01T16:24:25Z</time></trkpt><trkpt lat="45.903271827034274" lon="14.201249848459403"><ele>492.0</ele><time>2026-05-01T16:24:26Z</time></trkpt><trkpt lat="45.90313849524115" lon="14.20123200137283"><ele>494.0</ele><time>2026-05-01T16:24:27Z</time></trkpt><trkpt lat="45.902996482811716" lon="14.201199065401557"><ele>496.0</ele><time>2026-05-01T16:24:28Z</time></trkpt><trkpt lat="45.90285947102017" lon="14.201157646905433"><ele>498.0</ele><time>2026-05-01T16:24:29Z</time></trkpt><trkpt lat="45.902737555524425" lon="14.20111643874549"><ele>498.0</ele><time>2026-05-01T16:24:30Z</time></trkpt><trkpt lat="45.902623472103116" lon="14.201071164389699"><ele>498.0</ele><time>2026-05-01T16:24:31Z</time></trkpt><trkpt lat="45.902505291363916" lon="14.201028043108666"><ele>498.0</ele><time>2026-05-01T16:24:32Z</time></trkpt><trkpt lat="45.90238438588984" lon="14.200988892521949"><ele>498.0</ele><time>2026-05-01T16:24:33Z</time></trkpt><trkpt lat="45.90226218496475" lon="14.200951152340132"><ele>497.5</ele><time>2026-05-01T16:24:34Z</time></trkpt><trkpt lat="45.902133313498474" lon="14.200915728735664"><ele>497.0</ele><time>2026-05-01T16:24:35Z</time></trkpt><trkpt lat="45.90199745494976" lon="14.200892178840174"><ele>496.5</ele><time>2026-05-01T16:24:36Z</time></trkpt><trkpt lat="45.901859695801505" lon="14.200876973343435"><ele>496.0</ele><time>2026-05-01T16:24:37Z</time></trkpt><trkpt lat="45.901717695396236" lon="14.200864565163132"><ele>497.5</ele><time>2026-05-01T16:24:38Z</time></trkpt><trkpt lat="45.90157216279554" lon="14.20085270448112"><ele>499.0</ele><time>2026-05-01T16:24:39Z</time></trkpt><trkpt lat="45.90142822069246" lon="14.200848025179548"><ele>500.5</ele><time>2026-05-01T16:24:40Z</time></trkpt><trkpt lat="45.90127976583483" lon="14.200840870991454"><ele>502.0</ele><time>2026-05-01T16:24:41Z</time></trkpt><trkpt lat="45.90114549638843" lon="14.200835521002293"><ele>502.0</ele><time>2026-05-01T16:24:42Z</time></trkpt><trkpt lat="45.901018614381975" lon="14.200835236611098"><ele>502.0</ele><time>2026-05-01T16:24:43Z</time></trkpt><trkpt lat="45.90089814928094" lon="14.20083691357764"><ele>502.0</ele><time>2026-05-01T16:24:44Z</time></trkpt><trkpt lat="45.90078649399463" lon="14.200838839531986"><ele>502.0</ele><time>2026-05-01T16:24:45Z</time></trkpt><trkpt lat="45.900672709736135" lon="14.200838039679551"><ele>501.20000000000005</ele><time>2026-05-01T16:24:46Z</time></trkpt><trkpt lat="45.90055470885635" lon="14.200839711624218"><ele>500.40000000000003</ele><time>2026-05-01T16:24:47Z</time></trkpt><trkpt lat="45.90044162317998" lon="14.20084581202641"><ele>499.59999999999997</ele><time>2026-05-01T16:24:48Z</time></trkpt><trkpt lat="45.90033369177561" lon="14.200850351095125"><ele>498.79999999999995</ele><time>2026-05-01T16:24:49.001Z</time></trkpt><trkpt lat="45.90023381968445" lon="14.200848244386256"><ele>498.0</ele><time>2026-05-01T16:24:50.001Z</time></trkpt><trkpt lat="45.90015216575097" lon="14.20084542561781"><ele>498.0</ele><time>2026-05-01T16:24:51.001Z</time></trkpt><trkpt lat="45.900073435488686" lon="14.200839992738754"><ele>498.0</ele><time>2026-05-01T16:24:52.001Z</time></trkpt><trkpt lat="45.899996118388444" lon="14.200834713052547"><ele>498.0</ele><time>2026-05-01T16:24:53.001Z</time></trkpt><trkpt lat="45.89992526814723" lon="14.20083017088979"><ele>498.0</ele><time>2026-05-01T16:24:54.001Z</time></trkpt><trkpt lat="45.899861527780914" lon="14.200824471637388"><ele>498.0</ele><time>2026-05-01T16:24:55.001Z</time></trkpt><trkpt lat="45.899746280130046" lon="14.200810353275298"><ele>498.0</ele><time>2026-05-01T16:24:58Z</time></trkpt><trkpt lat="45.89967560271545" lon="14.200995793362322"><ele>498.0</ele><time>2026-05-01T16:24:59Z</time></trkpt><trkpt lat="45.89961588152214" lon="14.201100900196472"><ele>498.0</ele><time>2026-05-01T16:25:00Z</time></trkpt><trkpt lat="45.89954486328275" lon="14.20124635376391"><ele>498.0</ele><time>2026-05-01T16:25:01Z</time></trkpt><trkpt lat="45.899447200232835" lon="14.201394758496992"><ele>498.0</ele><time>2026-05-01T16:25:02Z</time></trkpt><trkpt lat="45.89934373791747" lon="14.201558744788109"><ele>496.66666666666663</ele><time>2026-05-01T16:25:03Z</time></trkpt><trkpt lat="45.89925025383199" lon="14.201713108055635"><ele>495.3333333333333</ele><time>2026-05-01T16:25:04Z</time></trkpt><trkpt lat="45.899174863490465" lon="14.201845417779385"><ele>494.0</ele><time>2026-05-01T16:25:05Z</time></trkpt><trkpt lat="45.899051770467054" lon="14.202136328336525"><ele>494.0</ele><time>2026-05-01T16:25:07Z</time></trkpt><trkpt lat="45.89899753557441" lon="14.20230376540139"><ele>494.0</ele><time>2026-05-01T16:25:08Z</time></trkpt><trkpt lat="45.89895771307063" lon="14.202471883751455"><ele>494.0</ele><time>2026-05-01T16:25:09Z</time></trkpt><trkpt lat="45.89893532221125" lon="14.202594237178593"><ele>494.0</ele><time>2026-05-01T16:25:10Z</time></trkpt><trkpt lat="45.89891818335967" lon="14.202715522339346"><ele>494.0</ele><time>2026-05-01T16:25:11Z</time></trkpt><trkpt lat="45.89889175742504" lon="14.202841986209558"><ele>494.99999999999994</ele><time>2026-05-01T16:25:12Z</time></trkpt><trkpt lat="45.898835599491555" lon="14.20292567736637"><ele>496.0</ele><time>2026-05-01T16:25:13Z</time></trkpt><trkpt lat="45.898799436693444" lon="14.203001864710654"><ele>497.0</ele><time>2026-05-01T16:25:14Z</time></trkpt><trkpt lat="45.89876078358162" lon="14.203092304160727"><ele>498.0</ele><time>2026-05-01T16:25:15Z</time></trkpt><trkpt lat="45.89870125469058" lon="14.203187028549285"><ele>498.99999999999994</ele><time>2026-05-01T16:25:16Z</time></trkpt><trkpt lat="45.898644524794626" lon="14.203282646543622"><ele>500.0</ele><time>2026-05-01T16:25:17Z</time></trkpt><trkpt lat="45.89858822739187" lon="14.203385832726495"><ele>500.16666666666663</ele><time>2026-05-01T16:25:18Z</time></trkpt><trkpt lat="45.898539212230666" lon="14.203481462679827"><ele>500.3333333333333</ele><time>2026-05-01T16:25:19Z</time></trkpt><trkpt lat="45.89849219606649" lon="14.203560681380507"><ele>500.5</ele><time>2026-05-01T16:25:20Z</time></trkpt><trkpt lat="45.89843414419396" lon="14.203625129299585"><ele>500.66666666666663</ele><time>2026-05-01T16:25:21Z</time></trkpt><trkpt lat="45.89837232461018" lon="14.203666033494219"><ele>500.8333333333333</ele><time>2026-05-01T16:25:22Z</time></trkpt><trkpt lat="45.898240400829685" lon="14.203703673931264"><ele>501.0</ele><time>2026-05-01T16:25:24Z</time></trkpt><trkpt lat="45.89816330973675" lon="14.203684895664427"><ele>499.0</ele><time>2026-05-01T16:25:25Z</time></trkpt><trkpt lat="45.89808529864486" lon="14.203691804531385"><ele>497.0</ele><time>2026-05-01T16:25:26Z</time></trkpt><trkpt lat="45.898020255973" lon="14.203708796752286"><ele>495.0</ele><time>2026-05-01T16:25:27Z</time></trkpt><trkpt lat="45.89790690736736" lon="14.203746812895947"><ele>493.0</ele><time>2026-05-01T16:25:29Z</time></trkpt><trkpt lat="45.897806419242855" lon="14.203786535844662"><ele>491.0</ele><time>2026-05-01T16:25:31Z</time></trkpt><trkpt lat="45.897715034947666" lon="14.20384372997173"><ele>491.0</ele><time>2026-05-01T16:25:33Z</time></trkpt><trkpt lat="45.89761378132322" lon="14.203883886671548"><ele>491.0</ele><time>2026-05-01T16:25:35Z</time></trkpt><trkpt lat="45.897513620584164" lon="14.20393623890618"><ele>491.0</ele><time>2026-05-01T16:25:37Z</time></trkpt><trkpt lat="45.897402265246036" lon="14.203997633031632"><ele>491.0</ele><time>2026-05-01T16:25:39Z</time></trkpt><trkpt lat="45.89733598005059" lon="14.204014041491806"><ele>491.0</ele><time>2026-05-01T16:25:40Z</time></trkpt><trkpt lat="45.897278163267394" lon="14.204059889157833"><ele>491.49999999999994</ele><time>2026-05-01T16:25:41Z</time></trkpt><trkpt lat="45.89720755461885" lon="14.204088350565453"><ele>492.0</ele><time>2026-05-01T16:25:42Z</time></trkpt><trkpt lat="45.897133910142145" lon="14.204113620405662"><ele>492.5</ele><time>2026-05-01T16:25:43Z</time></trkpt><trkpt lat="45.89705877749379" lon="14.20414025267081"><ele>493.0</ele><time>2026-05-01T16:25:44Z</time></trkpt><trkpt lat="45.89698118494537" lon="14.204170104950347"><ele>493.49999999999994</ele><time>2026-05-01T16:25:45Z</time></trkpt><trkpt lat="45.896903861699506" lon="14.204208855440898"><ele>494.0</ele><time>2026-05-01T16:25:46Z</time></trkpt><trkpt lat="45.89682719619587" lon="14.204252545201465"><ele>493.99999999999994</ele><time>2026-05-01T16:25:47Z</time></trkpt><trkpt lat="45.89675580771834" lon="14.204296323314761"><ele>494.0</ele><time>2026-05-01T16:25:48Z</time></trkpt><trkpt lat="45.89669895998272" lon="14.204347891348217"><ele>494.0</ele><time>2026-05-01T16:25:49Z</time></trkpt><trkpt lat="45.89664377242236" lon="14.204411479610851"><ele>494.0</ele><time>2026-05-01T16:25:50Z</time></trkpt><trkpt lat="45.89658600959423" lon="14.204490013467568"><ele>493.99999999999994</ele><time>2026-05-01T16:25:51Z</time></trkpt><trkpt lat="45.89652689271208" lon="14.204564782115582"><ele>494.0</ele><time>2026-05-01T16:25:52Z</time></trkpt><trkpt lat="45.896459801268236" lon="14.204618781419695"><ele>493.3333333333333</ele><time>2026-05-01T16:25:53Z</time></trkpt><trkpt lat="45.89639834488161" lon="14.204689686620048"><ele>492.66666666666663</ele><time>2026-05-01T16:25:54Z</time></trkpt><trkpt lat="45.896355837436545" lon="14.204782843405177"><ele>492.0</ele><time>2026-05-01T16:25:55Z</time></trkpt><trkpt lat="45.89634739966119" lon="14.20489870274396"><ele>491.33333333333337</ele><time>2026-05-01T16:25:56Z</time></trkpt><trkpt lat="45.896327778883546" lon="14.205011779169807"><ele>490.6666666666667</ele><time>2026-05-01T16:25:57Z</time></trkpt><trkpt lat="45.89631003991348" lon="14.205140294993702"><ele>490.0</ele><time>2026-05-01T16:25:58Z</time></trkpt><trkpt lat="45.89630301502579" lon="14.205282649480106"><ele>490.0</ele><time>2026-05-01T16:25:59Z</time></trkpt><trkpt lat="45.89633581212468" lon="14.20544303433615"><ele>490.0</ele><time>2026-05-01T16:26:00Z</time></trkpt><trkpt lat="45.89636880253212" lon="14.205607046397253"><ele>490.0</ele><time>2026-05-01T16:26:01Z</time></trkpt><trkpt lat="45.89639469468004" lon="14.205807969833527"><ele>490.0</ele><time>2026-05-01T16:26:02Z</time></trkpt><trkpt lat="45.896430692681015" lon="14.20599562859299"><ele>490.0</ele><time>2026-05-01T16:26:03Z</time></trkpt><trkpt lat="45.89646401182565" lon="14.206188256626621"><ele>490.0</ele><time>2026-05-01T16:26:04Z</time></trkpt><trkpt lat="45.89649864854644" lon="14.206395627056652"><ele>490.0</ele><time>2026-05-01T16:26:05Z</time></trkpt><trkpt lat="45.89652741490662" lon="14.206583139394644"><ele>490.0</ele><time>2026-05-01T16:26:06Z</time></trkpt><trkpt lat="45.89655006584305" lon="14.206757192069361"><ele>489.6</ele><time>2026-05-01T16:26:07Z</time></trkpt><trkpt lat="45.896563426493955" lon="14.206911328998096"><ele>489.2</ele><time>2026-05-01T16:26:08Z</time></trkpt><trkpt lat="45.89656430111266" lon="14.207054849917792"><ele>488.79999999999995</ele><time>2026-05-01T16:26:09Z</time></trkpt><trkpt lat="45.89655439324792" lon="14.207200652159335"><ele>488.4</ele><time>2026-05-01T16:26:10Z</time></trkpt><trkpt lat="45.89655432672926" lon="14.207339806768589"><ele>488.0</ele><time>2026-05-01T16:26:11Z</time></trkpt><trkpt lat="45.896548524146795" lon="14.207490712616774"><ele>488.0</ele><time>2026-05-01T16:26:12Z</time></trkpt><trkpt lat="45.89652892668817" lon="14.207645601882902"><ele>487.99999999999994</ele><time>2026-05-01T16:26:13Z</time></trkpt><trkpt lat="45.896524898594" lon="14.207783718100483"><ele>487.99999999999994</ele><time>2026-05-01T16:26:14Z</time></trkpt><trkpt lat="45.89651388697012" lon="14.207908454624013"><ele>488.0</ele><time>2026-05-01T16:26:15Z</time></trkpt><trkpt lat="45.89651264814477" lon="14.208039432495019"><ele>488.0</ele><time>2026-05-01T16:26:16Z</time></trkpt><trkpt lat="45.8965709052611" lon="14.20816537216842"><ele>487.66666666666663</ele><time>2026-05-01T16:26:17Z</time></trkpt><trkpt lat="45.89660297154481" lon="14.208298398406654"><ele>487.3333333333333</ele><time>2026-05-01T16:26:18Z</time></trkpt><trkpt lat="45.896608071935326" lon="14.208425667877574"><ele>487.0</ele><time>2026-05-01T16:26:19Z</time></trkpt><trkpt lat="45.896599974278665" lon="14.208542756235143"><ele>486.66666666666663</ele><time>2026-05-01T16:26:20Z</time></trkpt><trkpt lat="45.896585429764485" lon="14.208630764294236"><ele>486.3333333333333</ele><time>2026-05-01T16:26:21Z</time></trkpt><trkpt lat="45.89656225544858" lon="14.208762803474476"><ele>486.0</ele><time>2026-05-01T16:26:23Z</time></trkpt><trkpt lat="45.89653412141358" lon="14.208883765097518"><ele>486.0</ele><time>2026-05-01T16:26:26Z</time></trkpt><trkpt lat="45.89650354643912" lon="14.20897402640462"><ele>486.0</ele><time>2026-05-01T16:26:28Z</time></trkpt><trkpt lat="45.89644635524183" lon="14.209106598429946"><ele>486.0</ele><time>2026-05-01T16:26:30Z</time></trkpt><trkpt lat="45.89640754507009" lon="14.20918495376271"><ele>486.0</ele><time>2026-05-01T16:26:31Z</time></trkpt><trkpt lat="45.896341746165604" lon="14.209300079743942"><ele>486.0</ele><time>2026-05-01T16:26:33Z</time></trkpt><trkpt lat="45.89629609559338" lon="14.209444957071865"><ele>486.8</ele><time>2026-05-01T16:26:35Z</time></trkpt><trkpt lat="45.89626330090217" lon="14.209527133578883"><ele>487.6</ele><time>2026-05-01T16:26:36Z</time></trkpt><trkpt lat="45.89622247050823" lon="14.20960119790807"><ele>488.4</ele><time>2026-05-01T16:26:37Z</time></trkpt><trkpt lat="45.89620922342291" lon="14.209768344244877"><ele>489.2</ele><time>2026-05-01T16:26:39Z</time></trkpt><trkpt lat="45.896199511041665" lon="14.209958754604756"><ele>490.0</ele><time>2026-05-01T16:26:41Z</time></trkpt><trkpt lat="45.89619050866706" lon="14.21007340112431"><ele>490.50000000000006</ele><time>2026-05-01T16:26:42Z</time></trkpt><trkpt lat="45.89619040763513" lon="14.21020019575828"><ele>491.0</ele><time>2026-05-01T16:26:43Z</time></trkpt><trkpt lat="45.896191499096865" lon="14.210327668911193"><ele>491.5</ele><time>2026-05-01T16:26:44Z</time></trkpt><trkpt lat="45.89618463099131" lon="14.210463053684046"><ele>492.0</ele><time>2026-05-01T16:26:45Z</time></trkpt><trkpt lat="45.89617776318164" lon="14.210582823757894"><ele>492.50000000000006</ele><time>2026-05-01T16:26:46Z</time></trkpt><trkpt lat="45.89616914443175" lon="14.210684828910574"><ele>493.0</ele><time>2026-05-01T16:26:47Z</time></trkpt><trkpt lat="45.89617182986528" lon="14.210791575695522"><ele>493.33333333333337</ele><time>2026-05-01T16:26:48Z</time></trkpt><trkpt lat="45.89617938410557" lon="14.210920537712367"><ele>493.6666666666667</ele><time>2026-05-01T16:26:49Z</time></trkpt><trkpt lat="45.896191592132666" lon="14.211046901681106"><ele>494.0</ele><time>2026-05-01T16:26:50Z</time></trkpt><trkpt lat="45.89621249568413" lon="14.211163687620141"><ele>494.33333333333337</ele><time>2026-05-01T16:26:51Z</time></trkpt><trkpt lat="45.89622975026707" lon="14.211253548423864"><ele>494.6666666666667</ele><time>2026-05-01T16:26:52Z</time></trkpt><trkpt lat="45.896247356982556" lon="14.211349877513513"><ele>495.0</ele><time>2026-05-01T16:26:53Z</time></trkpt><trkpt lat="45.89626352495534" lon="14.211437954660848"><ele>495.1666666666667</ele><time>2026-05-01T16:26:54Z</time></trkpt><trkpt lat="45.896287037475425" lon="14.211544630018919"><ele>495.33333333333337</ele><time>2026-05-01T16:26:55Z</time></trkpt><trkpt lat="45.89631175262521" lon="14.211669901773728"><ele>495.5</ele><time>2026-05-01T16:26:56Z</time></trkpt><trkpt lat="45.896336019226965" lon="14.211801578691151"><ele>495.6666666666667</ele><time>2026-05-01T16:26:57Z</time></trkpt><trkpt lat="45.89634174783875" lon="14.211917342557962"><ele>495.83333333333337</ele><time>2026-05-01T16:26:58Z</time></trkpt><trkpt lat="45.89633557440772" lon="14.212020726199839"><ele>496.0</ele><time>2026-05-01T16:26:59Z</time></trkpt><trkpt lat="45.89635172465274" lon="14.212108265974832"><ele>496.0</ele><time>2026-05-01T16:27:00Z</time></trkpt><trkpt lat="45.896341132863256" lon="14.21227179141918"><ele>496.0</ele><time>2026-05-01T16:27:02Z</time></trkpt><trkpt lat="45.89635272909673" lon="14.212423640819118"><ele>496.0</ele><time>2026-05-01T16:27:04Z</time></trkpt><trkpt lat="45.896379690839325" lon="14.212554773231759"><ele>496.0</ele><time>2026-05-01T16:27:06Z</time></trkpt><trkpt lat="45.896419484622335" lon="14.212668053937685"><ele>496.0</ele><time>2026-05-01T16:27:08Z</time></trkpt><trkpt lat="45.89645684390034" lon="14.212802736000173"><ele>496.0</ele><time>2026-05-01T16:27:10Z</time></trkpt><trkpt lat="45.896497653338486" lon="14.212962034705882"><ele>496.0</ele><time>2026-05-01T16:27:12Z</time></trkpt><trkpt lat="45.8965398735956" lon="14.213075818752271"><ele>496.0</ele><time>2026-05-01T16:27:13Z</time></trkpt><trkpt lat="45.89659497474651" lon="14.213193232235806"><ele>496.0</ele><time>2026-05-01T16:27:14Z</time></trkpt><trkpt lat="45.896667299754085" lon="14.21327414646551"><ele>496.0</ele><time>2026-05-01T16:27:15Z</time></trkpt><trkpt lat="45.89673478331388" lon="14.213360284494327"><ele>496.33333333333337</ele><time>2026-05-01T16:27:16Z</time></trkpt><trkpt lat="45.89678402192183" lon="14.213459855258234"><ele>496.6666666666667</ele><time>2026-05-01T16:27:17Z</time></trkpt><trkpt lat="45.8968548178332" lon="14.213560876971068"><ele>497.0</ele><time>2026-05-01T16:27:18Z</time></trkpt><trkpt lat="45.89690972984136" lon="14.213646784342409"><ele>497.33333333333337</ele><time>2026-05-01T16:27:19Z</time></trkpt><trkpt lat="45.896955656962696" lon="14.213729688264179"><ele>497.6666666666667</ele><time>2026-05-01T16:27:20Z</time></trkpt><trkpt lat="45.89699302642308" lon="14.213815125396806"><ele>498.0</ele><time>2026-05-01T16:27:21Z</time></trkpt><trkpt lat="45.897019547760344" lon="14.213904160496105"><ele>497.5</ele><time>2026-05-01T16:27:22Z</time></trkpt><trkpt lat="45.89705061452427" lon="14.214013387179536"><ele>497.0</ele><time>2026-05-01T16:27:23Z</time></trkpt><trkpt lat="45.89708903380751" lon="14.21413054828086"><ele>496.5</ele><time>2026-05-01T16:27:24Z</time></trkpt><trkpt lat="45.89712257354177" lon="14.214241818310224"><ele>496.0</ele><time>2026-05-01T16:27:25Z</time></trkpt><trkpt lat="45.89716770059538" lon="14.214328497429792"><ele>495.5</ele><time>2026-05-01T16:27:26Z</time></trkpt><trkpt lat="45.897202280681135" lon="14.214435511413823"><ele>495.0</ele><time>2026-05-01T16:27:27Z</time></trkpt><trkpt lat="45.89726513342207" lon="14.214519777969999"><ele>495.0</ele><time>2026-05-01T16:27:28Z</time></trkpt><trkpt lat="45.897346348427455" lon="14.214592489726394"><ele>495.0</ele><time>2026-05-01T16:27:29Z</time></trkpt><trkpt lat="45.89743207619449" lon="14.21471154743351"><ele>495.0</ele><time>2026-05-01T16:27:30Z</time></trkpt><trkpt lat="45.897553783915" lon="14.214807499391622"><ele>495.0</ele><time>2026-05-01T16:27:31Z</time></trkpt><trkpt lat="45.897652471974325" lon="14.214947238111153"><ele>495.5</ele><time>2026-05-01T16:27:32Z</time></trkpt><trkpt lat="45.897754176424684" lon="14.215077339850861"><ele>496.0</ele><time>2026-05-01T16:27:33Z</time></trkpt><trkpt lat="45.897849345534325" lon="14.215199561780576"><ele>496.5</ele><time>2026-05-01T16:27:34Z</time></trkpt><trkpt lat="45.89794425742514" lon="14.215295621195242"><ele>497.0</ele><time>2026-05-01T16:27:35Z</time></trkpt><trkpt lat="45.89803995883402" lon="14.21538990014917"><ele>497.0</ele><time>2026-05-01T16:27:36Z</time></trkpt><trkpt lat="45.898122406913046" lon="14.215522140085662"><ele>497.00000000000006</ele><time>2026-05-01T16:27:37Z</time></trkpt><trkpt lat="45.89820647575452" lon="14.21564630690746"><ele>497.00000000000006</ele><time>2026-05-01T16:27:38Z</time></trkpt><trkpt lat="45.89828027345167" lon="14.215764066795266"><ele>497.0</ele><time>2026-05-01T16:27:39Z</time></trkpt><trkpt lat="45.898346621960265" lon="14.215854270997678"><ele>497.0</ele><time>2026-05-01T16:27:40Z</time></trkpt><trkpt lat="45.89837586149351" lon="14.215956429972712"><ele>496.8333333333333</ele><time>2026-05-01T16:27:41Z</time></trkpt><trkpt lat="45.89836230053826" lon="14.21606334743727"><ele>496.66666666666663</ele><time>2026-05-01T16:27:42Z</time></trkpt><trkpt lat="45.89843389787915" lon="14.216206138755945"><ele>496.5</ele><time>2026-05-01T16:27:44Z</time></trkpt><trkpt lat="45.89840560838543" lon="14.216298621979478"><ele>496.33333333333337</ele><time>2026-05-01T16:27:45Z</time></trkpt><trkpt lat="45.898330089047214" lon="14.216328357799881"><ele>496.1666666666667</ele><time>2026-05-01T16:27:47Z</time></trkpt><trkpt lat="45.89825277114529" lon="14.216394800751088"><ele>496.0</ele><time>2026-05-01T16:27:49Z</time></trkpt><trkpt lat="45.898190550875505" lon="14.216419015941812"><ele>496.0</ele><time>2026-05-01T16:27:50Z</time></trkpt><trkpt lat="45.89807274863877" lon="14.216451947457625"><ele>496.0</ele><time>2026-05-01T16:27:52Z</time></trkpt><trkpt lat="45.89796155418912" lon="14.216554923516702"><ele>496.0</ele><time>2026-05-01T16:27:54Z</time></trkpt><trkpt lat="45.89793852135745" lon="14.216675113894878"><ele>496.0</ele><time>2026-05-01T16:27:55Z</time></trkpt><trkpt lat="45.89794452340376" lon="14.216802346718023"><ele>496.0</ele><time>2026-05-01T16:27:56Z</time></trkpt><trkpt lat="45.89791158975938" lon="14.216937890965534"><ele>496.4</ele><time>2026-05-01T16:27:57Z</time></trkpt><trkpt lat="45.897880918153874" lon="14.21711365560806"><ele>496.8</ele><time>2026-05-01T16:27:58Z</time></trkpt><trkpt lat="45.89785150192467" lon="14.21728089992237"><ele>497.19999999999993</ele><time>2026-05-01T16:27:59Z</time></trkpt><trkpt lat="45.89783804074136" lon="14.217434665887188"><ele>497.59999999999997</ele><time>2026-05-01T16:28:00Z</time></trkpt><trkpt lat="45.89781270550336" lon="14.217561869974176"><ele>498.0</ele><time>2026-05-01T16:28:01Z</time></trkpt><trkpt lat="45.89777884986234" lon="14.217667602299295"><ele>499.4</ele><time>2026-05-01T16:28:02Z</time></trkpt><trkpt lat="45.89775676662871" lon="14.217765244170097"><ele>500.79999999999995</ele><time>2026-05-01T16:28:03Z</time></trkpt><trkpt lat="45.897702107846484" lon="14.2179364647238"><ele>502.2</ele><time>2026-05-01T16:28:05Z</time></trkpt><trkpt lat="45.897660597918204" lon="14.218036985032894"><ele>503.6</ele><time>2026-05-01T16:28:06Z</time></trkpt><trkpt lat="45.89760580841076" lon="14.218159465429638"><ele>505.0</ele><time>2026-05-01T16:28:07Z</time></trkpt><trkpt lat="45.89755857977331" lon="14.218279126666014"><ele>505.00000000000006</ele><time>2026-05-01T16:28:08Z</time></trkpt><trkpt lat="45.897526212950154" lon="14.218367271466821"><ele>505.0</ele><time>2026-05-01T16:28:09Z</time></trkpt><trkpt lat="45.8975112359468" lon="14.218458966599323"><ele>505.0</ele><time>2026-05-01T16:28:10Z</time></trkpt><trkpt lat="45.89750920621247" lon="14.218556260316552"><ele>505.0</ele><time>2026-05-01T16:28:11Z</time></trkpt><trkpt lat="45.897519866810676" lon="14.218651220895078"><ele>505.00000000000006</ele><time>2026-05-01T16:28:12Z</time></trkpt><trkpt lat="45.89753642694025" lon="14.218808316943937"><ele>505.0</ele><time>2026-05-01T16:28:14Z</time></trkpt><trkpt lat="45.897547146095675" lon="14.218960150553382"><ele>505.4</ele><time>2026-05-01T16:28:16Z</time></trkpt><trkpt lat="45.89756007190533" lon="14.219119790089207"><ele>505.8</ele><time>2026-05-01T16:28:18Z</time></trkpt><trkpt lat="45.89756800376334" lon="14.219259376500936"><ele>506.20000000000005</ele><time>2026-05-01T16:28:20Z</time></trkpt><trkpt lat="45.89756712830757" lon="14.219386099332997"><ele>506.6</ele><time>2026-05-01T16:28:22Z</time></trkpt><trkpt lat="45.897561125990194" lon="14.219517057180378"><ele>507.0</ele><time>2026-05-01T16:28:24Z</time></trkpt><trkpt lat="45.8975207481672" lon="14.21962785136136"><ele>507.0</ele><time>2026-05-01T16:28:26Z</time></trkpt><trkpt lat="45.89744621051501" lon="14.219683324288377"><ele>507.00000000000006</ele><time>2026-05-01T16:28:28Z</time></trkpt><trkpt lat="45.89737336670887" lon="14.21972741416671"><ele>507.00000000000006</ele><time>2026-05-01T16:28:30Z</time></trkpt><trkpt lat="45.89726808711053" lon="14.219803844675694"><ele>507.0</ele><time>2026-05-01T16:28:32Z</time></trkpt><trkpt lat="45.89717665749882" lon="14.219885537463965"><ele>507.0</ele><time>2026-05-01T16:28:34Z</time></trkpt><trkpt lat="45.897114161769885" lon="14.219991896613326"><ele>508.3333333333333</ele><time>2026-05-01T16:28:36Z</time></trkpt><trkpt lat="45.897060616766794" lon="14.220110579513454"><ele>509.66666666666663</ele><time>2026-05-01T16:28:38Z</time></trkpt><trkpt lat="45.89701631773473" lon="14.220219669871772"><ele>511.0</ele><time>2026-05-01T16:28:40Z</time></trkpt><trkpt lat="45.89697034641707" lon="14.220324153554461"><ele>512.3333333333333</ele><time>2026-05-01T16:28:42Z</time></trkpt><trkpt lat="45.8969219155942" lon="14.220394971010856"><ele>513.6666666666666</ele><time>2026-05-01T16:28:44Z</time></trkpt><trkpt lat="45.896869354810846" lon="14.220459684677056"><ele>515.0</ele><time>2026-05-01T16:28:46Z</time></trkpt><trkpt lat="45.89676912502512" lon="14.220515168130648"><ele>515.4</ele><time>2026-05-01T16:28:48Z</time></trkpt><trkpt lat="45.89666830468644" lon="14.220545364772326"><ele>515.8</ele><time>2026-05-01T16:28:50Z</time></trkpt><trkpt lat="45.896568467817296" lon="14.22056265145741"><ele>516.2</ele><time>2026-05-01T16:28:52Z</time></trkpt><trkpt lat="45.89649041495287" lon="14.220609862999314"><ele>516.6</ele><time>2026-05-01T16:28:54Z</time></trkpt><trkpt lat="45.896412409437175" lon="14.22071709560807"><ele>517.0</ele><time>2026-05-01T16:28:56Z</time></trkpt><trkpt lat="45.896374784689066" lon="14.220806941269204"><ele>518.6666666666667</ele><time>2026-05-01T16:28:57Z</time></trkpt><trkpt lat="45.89634021026499" lon="14.220917515339842"><ele>520.3333333333334</ele><time>2026-05-01T16:28:58Z</time></trkpt><trkpt lat="45.89631420423596" lon="14.22104144379402"><ele>522.0</ele><time>2026-05-01T16:28:59Z</time></trkpt><trkpt lat="45.89627700568492" lon="14.221163805137465"><ele>523.6666666666666</ele><time>2026-05-01T16:29:00Z</time></trkpt><trkpt lat="45.8962531382229" lon="14.221282038313051"><ele>525.3333333333333</ele><time>2026-05-01T16:29:01Z</time></trkpt><trkpt lat="45.89624167764884" lon="14.221393980771866"><ele>527.0</ele><time>2026-05-01T16:29:02Z</time></trkpt><trkpt lat="45.89623448542593" lon="14.221505474366339"><ele>527.3333333333333</ele><time>2026-05-01T16:29:03Z</time></trkpt><trkpt lat="45.896217218445386" lon="14.221630613529832"><ele>527.6666666666666</ele><time>2026-05-01T16:29:04Z</time></trkpt><trkpt lat="45.89621099253096" lon="14.221761019584433"><ele>528.0</ele><time>2026-05-01T16:29:05Z</time></trkpt><trkpt lat="45.896204794828094" lon="14.221861777226179"><ele>528.3333333333334</ele><time>2026-05-01T16:29:06Z</time></trkpt><trkpt lat="45.896189199372735" lon="14.221996943423477"><ele>528.6666666666667</ele><time>2026-05-01T16:29:08Z</time></trkpt><trkpt lat="45.896147417030704" lon="14.222106376222392"><ele>529.0</ele><time>2026-05-01T16:29:10Z</time></trkpt><trkpt lat="45.896074792187484" lon="14.22226056579046"><ele>530.1666666666667</ele><time>2026-05-01T16:29:12Z</time></trkpt><trkpt lat="45.89602925150016" lon="14.222341602304674"><ele>531.3333333333334</ele><time>2026-05-01T16:29:13Z</time></trkpt><trkpt lat="45.89597816413351" lon="14.222433497322356"><ele>532.5</ele><time>2026-05-01T16:29:14Z</time></trkpt><trkpt lat="45.89592373636855" lon="14.222531399872192"><ele>533.6666666666666</ele><time>2026-05-01T16:29:15Z</time></trkpt><trkpt lat="45.89587481873571" lon="14.222630250253237"><ele>534.8333333333333</ele><time>2026-05-01T16:29:16Z</time></trkpt><trkpt lat="45.89583212827766" lon="14.222749255261348"><ele>536.0</ele><time>2026-05-01T16:29:18Z</time></trkpt><trkpt lat="45.89581945363035" lon="14.222864580926034"><ele>538.1666666666666</ele><time>2026-05-01T16:29:20Z</time></trkpt><trkpt lat="45.895832597313124" lon="14.222965584783694"><ele>540.3333333333333</ele><time>2026-05-01T16:29:21Z</time></trkpt><trkpt lat="45.89584729659832" lon="14.223057082459166"><ele>542.5</ele><time>2026-05-01T16:29:22Z</time></trkpt><trkpt lat="45.89584803522375" lon="14.22321352487412"><ele>544.6666666666666</ele><time>2026-05-01T16:29:24Z</time></trkpt><trkpt lat="45.89581754895572" lon="14.223349087240425"><ele>546.8333333333334</ele><time>2026-05-01T16:29:26Z</time></trkpt><trkpt lat="45.89575593909224" lon="14.223405804002757"><ele>549.0</ele><time>2026-05-01T16:29:28Z</time></trkpt><trkpt lat="45.895692781864255" lon="14.22348175777634"><ele>550.8</ele><time>2026-05-01T16:29:30Z</time></trkpt><trkpt lat="45.89559795641425" lon="14.223605675218067"><ele>552.5999999999999</ele><time>2026-05-01T16:29:32Z</time></trkpt><trkpt lat="45.89555339578338" lon="14.223763426051674"><ele>554.4</ele><time>2026-05-01T16:29:34Z</time></trkpt><trkpt lat="45.89550721183474" lon="14.223934156562732"><ele>556.1999999999999</ele><time>2026-05-01T16:29:36Z</time></trkpt><trkpt lat="45.89548904811492" lon="14.22403407841192"><ele>558.0</ele><time>2026-05-01T16:29:37Z</time></trkpt><trkpt lat="45.89546176714589" lon="14.224190580120387"><ele>559.4</ele><time>2026-05-01T16:29:39Z</time></trkpt><trkpt lat="45.89544458964894" lon="14.224300727702046"><ele>560.8</ele><time>2026-05-01T16:29:40Z</time></trkpt><trkpt lat="45.89539401255373" lon="14.22439745725416"><ele>562.2</ele><time>2026-05-01T16:29:41Z</time></trkpt><trkpt lat="45.8953343093258" lon="14.224532926607145"><ele>563.6</ele><time>2026-05-01T16:29:43Z</time></trkpt><trkpt lat="45.895334352709725" lon="14.224714628688846"><ele>565.0</ele><time>2026-05-01T16:29:45Z</time></trkpt><trkpt lat="45.89541055417925" lon="14.224788173008006"><ele>565.0</ele><time>2026-05-01T16:29:46Z</time></trkpt><trkpt lat="45.89549343752766" lon="14.224772278398248"><ele>565.0</ele><time>2026-05-01T16:29:47Z</time></trkpt><trkpt lat="45.89562936685422" lon="14.224762121847265"><ele>565.0</ele><time>2026-05-01T16:29:49Z</time></trkpt><trkpt lat="45.895713263949396" lon="14.224744356045933"><ele>565.0</ele><time>2026-05-01T16:29:50Z</time></trkpt><trkpt lat="45.89579118470723" lon="14.224696762492758"><ele>565.0</ele><time>2026-05-01T16:29:51Z</time></trkpt><trkpt lat="45.89586192427379" lon="14.22463883932142"><ele>564.3333333333334</ele><time>2026-05-01T16:29:52Z</time></trkpt><trkpt lat="45.89592548214765" lon="14.22458176035556"><ele>563.6666666666667</ele><time>2026-05-01T16:29:53Z</time></trkpt><trkpt lat="45.895987872957086" lon="14.224506785910439"><ele>563.0</ele><time>2026-05-01T16:29:54Z</time></trkpt><trkpt lat="45.8960668114526" lon="14.22446916055907"><ele>562.3333333333334</ele><time>2026-05-01T16:29:55Z</time></trkpt><trkpt lat="45.89613086604706" lon="14.224420987673867"><ele>561.6666666666666</ele><time>2026-05-01T16:29:56Z</time></trkpt><trkpt lat="45.89624485247245" lon="14.224385005912657"><ele>561.0</ele><time>2026-05-01T16:29:58Z</time></trkpt><trkpt lat="45.896309194024525" lon="14.224371976030895"><ele>561.0</ele><time>2026-05-01T16:29:59Z</time></trkpt><trkpt lat="45.896361856362965" lon="14.224455187283379"><ele>561.0</ele><time>2026-05-01T16:30:00Z</time></trkpt><trkpt lat="45.89641897438563" lon="14.224533789019276"><ele>561.0</ele><time>2026-05-01T16:30:01Z</time></trkpt><trkpt lat="45.89647669708561" lon="14.224605078057442"><ele>561.0</ele><time>2026-05-01T16:30:02Z</time></trkpt><trkpt lat="45.896536835659155" lon="14.224682571984214"><ele>561.0</ele><time>2026-05-01T16:30:03Z</time></trkpt><trkpt lat="45.89659856880464" lon="14.224764769019"><ele>561.0</ele><time>2026-05-01T16:30:04Z</time></trkpt><trkpt lat="45.896675193164164" lon="14.224870957115176"><ele>561.8333333333334</ele><time>2026-05-01T16:30:05Z</time></trkpt><trkpt lat="45.8967440176657" lon="14.224975404614128"><ele>562.6666666666666</ele><time>2026-05-01T16:30:06Z</time></trkpt><trkpt lat="45.896798541456725" lon="14.225081301656024"><ele>563.5</ele><time>2026-05-01T16:30:07Z</time></trkpt><trkpt lat="45.89684393776775" lon="14.22517295421493"><ele>564.3333333333333</ele><time>2026-05-01T16:30:08Z</time></trkpt><trkpt lat="45.89688540187763" lon="14.225253362477485"><ele>565.1666666666666</ele><time>2026-05-01T16:30:09Z</time></trkpt><trkpt lat="45.896925519753786" lon="14.225329060893918"><ele>566.0</ele><time>2026-05-01T16:30:10Z</time></trkpt><trkpt lat="45.896980476881" lon="14.22538619627648"><ele>562.5</ele><time>2026-05-01T16:30:11Z</time></trkpt><trkpt lat="45.89707835898644" lon="14.225445839506545"><ele>559.0</ele><time>2026-05-01T16:30:13Z</time></trkpt><trkpt lat="45.8972232646296" lon="14.225380873573727"><ele>555.5</ele><time>2026-05-01T16:30:15Z</time></trkpt><trkpt lat="45.897314631900926" lon="14.225318377826937"><ele>552.0</ele><time>2026-05-01T16:30:16Z</time></trkpt><trkpt lat="45.89744908698664" lon="14.225253169094106"><ele>552.0</ele><time>2026-05-01T16:30:17Z</time></trkpt><trkpt lat="45.89755497574337" lon="14.225170517884829"><ele>552.0</ele><time>2026-05-01T16:30:18Z</time></trkpt><trkpt lat="45.897649775216316" lon="14.225113868809546"><ele>552.0</ele><time>2026-05-01T16:30:19Z</time></trkpt><trkpt lat="45.89774552989825" lon="14.225065178594402"><ele>552.0</ele><time>2026-05-01T16:30:20Z</time></trkpt><trkpt lat="45.89783183437497" lon="14.22501057393505"><ele>552.0</ele><time>2026-05-01T16:30:21Z</time></trkpt><trkpt lat="45.897915887136335" lon="14.224937453167533"><ele>551.8000000000001</ele><time>2026-05-01T16:30:22Z</time></trkpt><trkpt lat="45.898006055456044" lon="14.224900141089657"><ele>551.6</ele><time>2026-05-01T16:30:23Z</time></trkpt><trkpt lat="45.89808563198572" lon="14.224851519835939"><ele>551.4000000000001</ele><time>2026-05-01T16:30:24Z</time></trkpt><trkpt lat="45.898169855203136" lon="14.22480111605045"><ele>551.2</ele><time>2026-05-01T16:30:25Z</time></trkpt><trkpt lat="45.89826077758004" lon="14.22477884395659"><ele>551.0</ele><time>2026-05-01T16:30:26Z</time></trkpt><trkpt lat="45.898353697185314" lon="14.224701818450692"><ele>547.6</ele><time>2026-05-01T16:30:27Z</time></trkpt><trkpt lat="45.89845253206754" lon="14.224633446799919"><ele>544.2</ele><time>2026-05-01T16:30:28Z</time></trkpt><trkpt lat="45.898542203388466" lon="14.224574824693242"><ele>540.8</ele><time>2026-05-01T16:30:29Z</time></trkpt><trkpt lat="45.89862421866185" lon="14.224532445417335"><ele>537.4</ele><time>2026-05-01T16:30:30Z</time></trkpt><trkpt lat="45.89870439327504" lon="14.224511884030042"><ele>534.0</ele><time>2026-05-01T16:30:31Z</time></trkpt><trkpt lat="45.89881651710992" lon="14.224496554958739"><ele>534.0</ele><time>2026-05-01T16:30:32Z</time></trkpt><trkpt lat="45.89893792479882" lon="14.224531313910344"><ele>534.0</ele><time>2026-05-01T16:30:33Z</time></trkpt><trkpt lat="45.899078000939916" lon="14.224599819259756"><ele>534.0</ele><time>2026-05-01T16:30:34Z</time></trkpt><trkpt lat="45.89920710009418" lon="14.224655024442965"><ele>534.0</ele><time>2026-05-01T16:30:35Z</time></trkpt><trkpt lat="45.89931149327142" lon="14.224697553348584"><ele>533.6</ele><time>2026-05-01T16:30:36Z</time></trkpt><trkpt lat="45.89939303690771" lon="14.224733924576928"><ele>533.2</ele><time>2026-05-01T16:30:37Z</time></trkpt><trkpt lat="45.89945904564852" lon="14.224767195499673"><ele>532.8000000000001</ele><time>2026-05-01T16:30:38Z</time></trkpt><trkpt lat="45.89947182228492" lon="14.22491053685844"><ele>532.4</ele><time>2026-05-01T16:30:40Z</time></trkpt><trkpt lat="45.89946363233336" lon="14.22516262407916"><ele>532.0</ele><time>2026-05-01T16:30:42Z</time></trkpt><trkpt lat="45.89947589514441" lon="14.225328847608804"><ele>532.0</ele><time>2026-05-01T16:30:43Z</time></trkpt><trkpt lat="45.89954104099762" lon="14.225543757437327"><ele>532.0</ele><time>2026-05-01T16:30:44Z</time></trkpt><trkpt lat="45.899599944603764" lon="14.22577778275932"><ele>532.0</ele><time>2026-05-01T16:30:45Z</time></trkpt><trkpt lat="45.899618332197356" lon="14.22604966234573"><ele>531.25</ele><time>2026-05-01T16:30:46Z</time></trkpt><trkpt lat="45.89963161872004" lon="14.226278721501535"><ele>530.5</ele><time>2026-05-01T16:30:47Z</time></trkpt><trkpt lat="45.89963515762857" lon="14.226436481154758"><ele>529.75</ele><time>2026-05-01T16:30:48Z</time></trkpt><trkpt lat="45.899643889150305" lon="14.226560787033172"><ele>529.0</ele><time>2026-05-01T16:30:49Z</time></trkpt><trkpt lat="45.899703414891896" lon="14.226745829580835"><ele>528.4</ele><time>2026-05-01T16:30:51Z</time></trkpt><trkpt lat="45.89976788896068" lon="14.226851991096847"><ele>527.8</ele><time>2026-05-01T16:30:52Z</time></trkpt><trkpt lat="45.89983811478015" lon="14.22695093550485"><ele>527.2</ele><time>2026-05-01T16:30:53Z</time></trkpt><trkpt lat="45.899912975307096" lon="14.227071454809613"><ele>526.6</ele><time>2026-05-01T16:30:54Z</time></trkpt><trkpt lat="45.89999644810066" lon="14.227179304996683"><ele>526.0</ele><time>2026-05-01T16:30:55Z</time></trkpt><trkpt lat="45.90007153012296" lon="14.227253719668782"><ele>525.5</ele><time>2026-05-01T16:30:56Z</time></trkpt><trkpt lat="45.90011689099473" lon="14.227350509088824"><ele>525.0</ele><time>2026-05-01T16:30:57Z</time></trkpt><trkpt lat="45.900151292863406" lon="14.227437160957653"><ele>524.5</ele><time>2026-05-01T16:30:58Z</time></trkpt><trkpt lat="45.9001821281628" lon="14.22753115857173"><ele>524.0</ele><time>2026-05-01T16:30:59Z</time></trkpt><trkpt lat="45.90020644881051" lon="14.227651877438738"><ele>523.5</ele><time>2026-05-01T16:31:00Z</time></trkpt><trkpt lat="45.90020797549302" lon="14.227795972251489"><ele>523.0</ele><time>2026-05-01T16:31:01Z</time></trkpt><trkpt lat="45.90021930373052" lon="14.227940319360869"><ele>523.0</ele><time>2026-05-01T16:31:02Z</time></trkpt><trkpt lat="45.90023138780483" lon="14.228122982238007"><ele>523.0</ele><time>2026-05-01T16:31:03Z</time></trkpt><trkpt lat="45.90024019759901" lon="14.228308791302622"><ele>523.0</ele><time>2026-05-01T16:31:04Z</time></trkpt><trkpt lat="45.90024493099849" lon="14.228452738396669"><ele>523.0</ele><time>2026-05-01T16:31:05Z</time></trkpt><trkpt lat="45.900254738135054" lon="14.228546561344848"><ele>523.0</ele><time>2026-05-01T16:31:06Z</time></trkpt><trkpt lat="45.90023414199098" lon="14.228632584055685"><ele>522.8333333333334</ele><time>2026-05-01T16:31:07Z</time></trkpt><trkpt lat="45.90022041472888" lon="14.228749111119784"><ele>522.6666666666667</ele><time>2026-05-01T16:31:09Z</time></trkpt><trkpt lat="45.90034022172603" lon="14.228828927632309"><ele>522.5</ele><time>2026-05-01T16:31:11Z</time></trkpt><trkpt lat="45.90041210261852" lon="14.228872918827097"><ele>522.3333333333334</ele><time>2026-05-01T16:31:12Z</time></trkpt><trkpt lat="45.900470066451774" lon="14.228919797515509"><ele>522.1666666666666</ele><time>2026-05-01T16:31:13Z</time></trkpt><trkpt lat="45.90053755235933" lon="14.22891513049944"><ele>522.0</ele><time>2026-05-01T16:31:14Z</time></trkpt><trkpt lat="45.90061271786844" lon="14.22894033633097"><ele>522.0</ele><time>2026-05-01T16:31:15Z</time></trkpt><trkpt lat="45.90070311236374" lon="14.228937296105311"><ele>522.0</ele><time>2026-05-01T16:31:16Z</time></trkpt><trkpt lat="45.900782234833045" lon="14.22891386107914"><ele>522.0</ele><time>2026-05-01T16:31:17Z</time></trkpt><trkpt lat="45.90088159651902" lon="14.228868401644075"><ele>522.0</ele><time>2026-05-01T16:31:19Z</time></trkpt><trkpt lat="45.900908501639165" lon="14.229060081239364"><ele>522.0</ele><time>2026-05-01T16:31:21Z</time></trkpt><trkpt lat="45.90093166690153" lon="14.229217259955403"><ele>521.0</ele><time>2026-05-01T16:31:22Z</time></trkpt><trkpt lat="45.900968606820065" lon="14.229380507026136"><ele>520.0</ele><time>2026-05-01T16:31:23Z</time></trkpt><trkpt lat="45.90096643313027" lon="14.229523362146939"><ele>519.0</ele><time>2026-05-01T16:31:24Z</time></trkpt><trkpt lat="45.900990716133514" lon="14.229622079536234"><ele>518.0</ele><time>2026-05-01T16:31:25Z</time></trkpt><trkpt lat="45.90100124359345" lon="14.229745679399556"><ele>517.0</ele><time>2026-05-01T16:31:26Z</time></trkpt><trkpt lat="45.90103138008985" lon="14.229900860907936"><ele>517.0</ele><time>2026-05-01T16:31:27Z</time></trkpt><trkpt lat="45.90108297249343" lon="14.23008081929843"><ele>517.0</ele><time>2026-05-01T16:31:28Z</time></trkpt><trkpt lat="45.90119307438517" lon="14.230231181059683"><ele>517.0</ele><time>2026-05-01T16:31:29Z</time></trkpt><trkpt lat="45.90126424654652" lon="14.230350469358198"><ele>517.0</ele><time>2026-05-01T16:31:30Z</time></trkpt><trkpt lat="45.901302302138724" lon="14.23043919905744"><ele>517.0</ele><time>2026-05-01T16:31:31Z</time></trkpt><trkpt lat="45.90131952073215" lon="14.230526556521268"><ele>517.0</ele><time>2026-05-01T16:31:32Z</time></trkpt><trkpt lat="45.901331283995596" lon="14.230633465933822"><ele>517.0</ele><time>2026-05-01T16:31:33Z</time></trkpt><trkpt lat="45.90129921658734" lon="14.230757522966915"><ele>517.0</ele><time>2026-05-01T16:31:34Z</time></trkpt><trkpt lat="45.901245093982155" lon="14.230907475534664"><ele>517.0</ele><time>2026-05-01T16:31:35Z</time></trkpt><trkpt lat="45.90121035688983" lon="14.231063462815648"><ele>517.0</ele><time>2026-05-01T16:31:36Z</time></trkpt><trkpt lat="45.90118630808967" lon="14.231235287880747"><ele>517.0</ele><time>2026-05-01T16:31:37Z</time></trkpt><trkpt lat="45.90115569799755" lon="14.231438025952293"><ele>517.0</ele><time>2026-05-01T16:31:38Z</time></trkpt><trkpt lat="45.90113198538432" lon="14.231625341050064"><ele>517.0</ele><time>2026-05-01T16:31:39Z</time></trkpt><trkpt lat="45.90112015682779" lon="14.23179794471265"><ele>516.6</ele><time>2026-05-01T16:31:40Z</time></trkpt><trkpt lat="45.901107534566606" lon="14.23196074962116"><ele>516.2</ele><time>2026-05-01T16:31:41Z</time></trkpt><trkpt lat="45.90107711559367" lon="14.23211633186054"><ele>515.8</ele><time>2026-05-01T16:31:42Z</time></trkpt><trkpt lat="45.9010250159674" lon="14.232245795348774"><ele>515.4</ele><time>2026-05-01T16:31:43Z</time></trkpt><trkpt lat="45.9009761290714" lon="14.23235712599266"><ele>515.0</ele><time>2026-05-01T16:31:44Z</time></trkpt><trkpt lat="45.90089600009791" lon="14.232463260113436"><ele>514.5</ele><time>2026-05-01T16:31:45Z</time></trkpt><trkpt lat="45.90080659953984" lon="14.232552518758274"><ele>514.0</ele><time>2026-05-01T16:31:46Z</time></trkpt><trkpt lat="45.90073803905299" lon="14.232632444539247"><ele>513.5</ele><time>2026-05-01T16:31:47Z</time></trkpt><trkpt lat="45.90071894660763" lon="14.232743269897092"><ele>513.0</ele><time>2026-05-01T16:31:48Z</time></trkpt><trkpt lat="45.900684250393276" lon="14.232837856305194"><ele>512.5</ele><time>2026-05-01T16:31:49Z</time></trkpt><trkpt lat="45.90068204395963" lon="14.232936378518644"><ele>512.0</ele><time>2026-05-01T16:31:50Z</time></trkpt><trkpt lat="45.90068626251486" lon="14.233050871918637"><ele>511.0</ele><time>2026-05-01T16:31:51Z</time></trkpt><trkpt lat="45.900688244553685" lon="14.233194886288166"><ele>510.00000000000006</ele><time>2026-05-01T16:31:52Z</time></trkpt><trkpt lat="45.90072288349575" lon="14.233347953451966"><ele>509.00000000000006</ele><time>2026-05-01T16:31:53Z</time></trkpt><trkpt lat="45.900746629161894" lon="14.233498324791073"><ele>508.0</ele><time>2026-05-01T16:31:54Z</time></trkpt><trkpt lat="45.90073968920861" lon="14.233635680937985"><ele>507.0</ele><time>2026-05-01T16:31:55Z</time></trkpt><trkpt lat="45.90071852300086" lon="14.233798130712511"><ele>507.0</ele><time>2026-05-01T16:31:56Z</time></trkpt><trkpt lat="45.90067551596018" lon="14.233968138066123"><ele>507.00000000000006</ele><time>2026-05-01T16:31:57Z</time></trkpt><trkpt lat="45.900620689537895" lon="14.234082442509765"><ele>507.00000000000006</ele><time>2026-05-01T16:31:58Z</time></trkpt><trkpt lat="45.90054187933162" lon="14.234148764567516"><ele>507.0</ele><time>2026-05-01T16:31:59Z</time></trkpt><trkpt lat="45.90048170327191" lon="14.234246102833458"><ele>507.0</ele><time>2026-05-01T16:32:00Z</time></trkpt><trkpt lat="45.90041422283722" lon="14.23430667846631"><ele>505.40000000000003</ele><time>2026-05-01T16:32:01Z</time></trkpt><trkpt lat="45.90035712842697" lon="14.234357623896157"><ele>503.80000000000007</ele><time>2026-05-01T16:32:02Z</time></trkpt><trkpt lat="45.90028540590342" lon="14.23447854733814"><ele>502.2</ele><time>2026-05-01T16:32:04Z</time></trkpt><trkpt lat="45.900259940811814" lon="14.234644967293825"><ele>500.6</ele><time>2026-05-01T16:32:06Z</time></trkpt><trkpt lat="45.900275956327185" lon="14.234754547741526"><ele>499.0</ele><time>2026-05-01T16:32:07Z</time></trkpt><trkpt lat="45.90031462806518" lon="14.234874227278537"><ele>497.0</ele><time>2026-05-01T16:32:08Z</time></trkpt><trkpt lat="45.90036674537448" lon="14.235022811544773"><ele>495.0</ele><time>2026-05-01T16:32:09Z</time></trkpt><trkpt lat="45.90041897172935" lon="14.23515347382773"><ele>493.0</ele><time>2026-05-01T16:32:10Z</time></trkpt><trkpt lat="45.90046226355424" lon="14.235252206007099"><ele>491.0</ele><time>2026-05-01T16:32:11Z</time></trkpt><trkpt lat="45.900515856919895" lon="14.235367690041622"><ele>489.0</ele><time>2026-05-01T16:32:12Z</time></trkpt><trkpt lat="45.90058814591129" lon="14.23546049435123"><ele>489.0</ele><time>2026-05-01T16:32:13Z</time></trkpt><trkpt lat="45.900648570918726" lon="14.235548233756703"><ele>489.0</ele><time>2026-05-01T16:32:14Z</time></trkpt><trkpt lat="45.90069524305886" lon="14.23563538962935"><ele>489.0</ele><time>2026-05-01T16:32:15Z</time></trkpt><trkpt lat="45.900746113895416" lon="14.235697989901443"><ele>489.0</ele><time>2026-05-01T16:32:16Z</time></trkpt><trkpt lat="45.90081746117535" lon="14.23580529509104"><ele>489.0</ele><time>2026-05-01T16:32:18Z</time></trkpt><trkpt lat="45.90077749484449" lon="14.235929445653568"><ele>489.0</ele><time>2026-05-01T16:32:21Z</time></trkpt><trkpt lat="45.90073205127943" lon="14.23600931906496"><ele>488.79999999999995</ele><time>2026-05-01T16:32:22Z</time></trkpt><trkpt lat="45.900678309727645" lon="14.23610925651816"><ele>488.59999999999997</ele><time>2026-05-01T16:32:23Z</time></trkpt><trkpt lat="45.90062348915577" lon="14.236206131101307"><ele>488.4</ele><time>2026-05-01T16:32:24Z</time></trkpt><trkpt lat="45.9005697819239" lon="14.23630686691339"><ele>488.2</ele><time>2026-05-01T16:32:25Z</time></trkpt><trkpt lat="45.90051104775533" lon="14.236414080189691"><ele>488.0</ele><time>2026-05-01T16:32:26Z</time></trkpt><trkpt lat="45.90043503781952" lon="14.236554456668488"><ele>489.5</ele><time>2026-05-01T16:32:27Z</time></trkpt><trkpt lat="45.900357945780286" lon="14.23670998363366"><ele>491.0</ele><time>2026-05-01T16:32:28Z</time></trkpt><trkpt lat="45.900287542949066" lon="14.236891863833486"><ele>492.5</ele><time>2026-05-01T16:32:29Z</time></trkpt><trkpt lat="45.900214693199004" lon="14.237072966230075"><ele>494.0</ele><time>2026-05-01T16:32:30Z</time></trkpt><trkpt lat="45.900165860497616" lon="14.237280616204465"><ele>494.5</ele><time>2026-05-01T16:32:31Z</time></trkpt><trkpt lat="45.90014078066222" lon="14.23749288820482"><ele>495.0</ele><time>2026-05-01T16:32:32Z</time></trkpt><trkpt lat="45.90009210742744" lon="14.237699317970499"><ele>495.5</ele><time>2026-05-01T16:32:33Z</time></trkpt><trkpt lat="45.90003683769085" lon="14.237896227772584"><ele>496.0</ele><time>2026-05-01T16:32:34Z</time></trkpt><trkpt lat="45.899979965124125" lon="14.238066182576848"><ele>497.75</ele><time>2026-05-01T16:32:35Z</time></trkpt><trkpt lat="45.89993428215469" lon="14.238226808623464"><ele>499.5</ele><time>2026-05-01T16:32:36Z</time></trkpt><trkpt lat="45.89989233616173" lon="14.23839954946331"><ele>501.25</ele><time>2026-05-01T16:32:37Z</time></trkpt><trkpt lat="45.89989333638352" lon="14.238588736529294"><ele>503.0</ele><time>2026-05-01T16:32:38Z</time></trkpt><trkpt lat="45.89991072522104" lon="14.238776475648974"><ele>502.5</ele><time>2026-05-01T16:32:39Z</time></trkpt><trkpt lat="45.89989562228067" lon="14.238971006103533"><ele>502.0</ele><time>2026-05-01T16:32:40Z</time></trkpt><trkpt lat="45.89983137695788" lon="14.239134096918637"><ele>501.5</ele><time>2026-05-01T16:32:41Z</time></trkpt><trkpt lat="45.89972963286494" lon="14.239320199789587"><ele>501.0</ele><time>2026-05-01T16:32:42Z</time></trkpt><trkpt lat="45.8996040911526" lon="14.239493107000053"><ele>501.0</ele><time>2026-05-01T16:32:43Z</time></trkpt><trkpt lat="45.899466389937224" lon="14.239659201185427"><ele>501.0</ele><time>2026-05-01T16:32:44Z</time></trkpt><trkpt lat="45.89933578290777" lon="14.239842147717049"><ele>501.0</ele><time>2026-05-01T16:32:45Z</time></trkpt><trkpt lat="45.89919799182766" lon="14.24000910051576"><ele>502.33333333333337</ele><time>2026-05-01T16:32:46Z</time></trkpt><trkpt lat="45.89906494245938" lon="14.240175120893607"><ele>503.6666666666667</ele><time>2026-05-01T16:32:47Z</time></trkpt><trkpt lat="45.898936566221394" lon="14.240339027938656"><ele>505.0</ele><time>2026-05-01T16:32:48Z</time></trkpt><trkpt lat="45.89880934315202" lon="14.24049818050875"><ele>505.33333333333337</ele><time>2026-05-01T16:32:49Z</time></trkpt><trkpt lat="45.89869064947039" lon="14.240662958068219"><ele>505.66666666666663</ele><time>2026-05-01T16:32:50Z</time></trkpt><trkpt lat="45.898583314026865" lon="14.240815306944032"><ele>506.0</ele><time>2026-05-01T16:32:51Z</time></trkpt><trkpt lat="45.89845271911718" lon="14.240890995610208"><ele>507.0</ele><time>2026-05-01T16:32:52Z</time></trkpt><trkpt lat="45.898310305055624" lon="14.24094851769479"><ele>508.0</ele><time>2026-05-01T16:32:53Z</time></trkpt><trkpt lat="45.8981423342517" lon="14.241011034402796"><ele>509.0</ele><time>2026-05-01T16:32:54Z</time></trkpt><trkpt lat="45.89798194490773" lon="14.241117602411915"><ele>509.0</ele><time>2026-05-01T16:32:55Z</time></trkpt><trkpt lat="45.89783761765929" lon="14.241243019481168"><ele>509.0</ele><time>2026-05-01T16:32:56Z</time></trkpt><trkpt lat="45.89771666657212" lon="14.241407851975792"><ele>509.0</ele><time>2026-05-01T16:32:57Z</time></trkpt><trkpt lat="45.8976296365761" lon="14.241581282613135"><ele>512.3333333333333</ele><time>2026-05-01T16:32:58Z</time></trkpt><trkpt lat="45.897574534475815" lon="14.241778744970368"><ele>515.6666666666666</ele><time>2026-05-01T16:32:59Z</time></trkpt><trkpt lat="45.897537645387956" lon="14.241993630677424"><ele>519.0</ele><time>2026-05-01T16:33:00Z</time></trkpt><trkpt lat="45.89750175062225" lon="14.242208012255615"><ele>518.0</ele><time>2026-05-01T16:33:01Z</time></trkpt><trkpt lat="45.89745859933477" lon="14.24241414101937"><ele>517.0</ele><time>2026-05-01T16:33:02Z</time></trkpt><trkpt lat="45.897384560085214" lon="14.242611350212904"><ele>516.0</ele><time>2026-05-01T16:33:03Z</time></trkpt><trkpt lat="45.8972827357099" lon="14.242803705317016"><ele>516.0</ele><time>2026-05-01T16:33:04Z</time></trkpt><trkpt lat="45.89718002633203" lon="14.243011787595831"><ele>516.0</ele><time>2026-05-01T16:33:05Z</time></trkpt><trkpt lat="45.897095329422875" lon="14.243255176597625"><ele>516.0</ele><time>2026-05-01T16:33:06Z</time></trkpt><trkpt lat="45.89701526698196" lon="14.243484533653008"><ele>516.25</ele><time>2026-05-01T16:33:07Z</time></trkpt><trkpt lat="45.89694073573489" lon="14.243690886708942"><ele>516.5</ele><time>2026-05-01T16:33:08Z</time></trkpt><trkpt lat="45.89683424999243" lon="14.243814465749239"><ele>516.75</ele><time>2026-05-01T16:33:09Z</time></trkpt><trkpt lat="45.8967087009977" lon="14.243901289420142"><ele>517.0</ele><time>2026-05-01T16:33:10Z</time></trkpt><trkpt lat="45.8965643789707" lon="14.243992209791914"><ele>514.0</ele><time>2026-05-01T16:33:11Z</time></trkpt><trkpt lat="45.89640422938619" lon="14.244037717527844"><ele>511.0</ele><time>2026-05-01T16:33:12Z</time></trkpt><trkpt lat="45.896251079654995" lon="14.244090530642868"><ele>508.0</ele><time>2026-05-01T16:33:13Z</time></trkpt><trkpt lat="45.896099145663094" lon="14.244148590841602"><ele>508.0</ele><time>2026-05-01T16:33:14Z</time></trkpt><trkpt lat="45.8959768080349" lon="14.244212651278962"><ele>507.99999999999994</ele><time>2026-05-01T16:33:15Z</time></trkpt><trkpt lat="45.89587193784474" lon="14.244281567337673"><ele>507.99999999999994</ele><time>2026-05-01T16:33:16Z</time></trkpt><trkpt lat="45.89578703599244" lon="14.244350715129702"><ele>508.0</ele><time>2026-05-01T16:33:17Z</time></trkpt><trkpt lat="45.89571936079004" lon="14.24441603267244"><ele>508.0</ele><time>2026-05-01T16:33:18Z</time></trkpt><trkpt lat="45.89565806054952" lon="14.24447130560239"><ele>508.00000000000006</ele><time>2026-05-01T16:33:20Z</time></trkpt><trkpt lat="45.895716427734506" lon="14.244431896844723"><ele>508.0</ele><time>2026-05-01T16:33:36Z</time></trkpt><trkpt lat="45.89577387280258" lon="14.244372861651506"><ele>508.0</ele><time>2026-05-01T16:33:37Z</time></trkpt><trkpt lat="45.895866142661326" lon="14.244332344742583"><ele>508.0</ele><time>2026-05-01T16:33:38Z</time></trkpt><trkpt lat="45.895955049279024" lon="14.244263799195076"><ele>508.00000000000006</ele><time>2026-05-01T16:33:39Z</time></trkpt><trkpt lat="45.89606406360744" lon="14.24420717293564"><ele>508.0</ele><time>2026-05-01T16:33:40Z</time></trkpt><trkpt lat="45.89618766006599" lon="14.24415540810435"><ele>508.0</ele><time>2026-05-01T16:33:41Z</time></trkpt><trkpt lat="45.89629368141198" lon="14.244113166973573"><ele>507.99999999999994</ele><time>2026-05-01T16:33:42Z</time></trkpt><trkpt lat="45.89638604887201" lon="14.244075293308244"><ele>507.99999999999994</ele><time>2026-05-01T16:33:43Z</time></trkpt><trkpt lat="45.89646972903195" lon="14.244041934300789"><ele>508.0</ele><time>2026-05-01T16:33:44Z</time></trkpt><trkpt lat="45.89654008668718" lon="14.244004989230517"><ele>508.0</ele><time>2026-05-01T16:33:45Z</time></trkpt><trkpt lat="45.89663742118578" lon="14.243987822294551"><ele>508.0</ele><time>2026-05-01T16:33:47Z</time></trkpt><trkpt lat="45.89664965684908" lon="14.244101250491115"><ele>507.99999999999994</ele><time>2026-05-01T16:33:50Z</time></trkpt><trkpt lat="45.89660661663477" lon="14.244232778817164"><ele>507.99999999999994</ele><time>2026-05-01T16:33:52Z</time></trkpt><trkpt lat="45.8965741017738" lon="14.244341700962774"><ele>508.0</ele><time>2026-05-01T16:33:53Z</time></trkpt><trkpt lat="45.8965489713019" lon="14.244472499396966"><ele>508.0</ele><time>2026-05-01T16:33:54Z</time></trkpt><trkpt lat="45.89656036765812" lon="14.244607747910774"><ele>508.00000000000006</ele><time>2026-05-01T16:33:55Z</time></trkpt><trkpt lat="45.896565718284485" lon="14.2447440379103"><ele>508.0</ele><time>2026-05-01T16:33:56Z</time></trkpt><trkpt lat="45.8965677373768" lon="14.24486329655642"><ele>508.0</ele><time>2026-05-01T16:33:57Z</time></trkpt><trkpt lat="45.89655348834996" lon="14.244975419233393"><ele>508.0</ele><time>2026-05-01T16:33:58Z</time></trkpt><trkpt lat="45.89651846760126" lon="14.245077684197918"><ele>508.00000000000006</ele><time>2026-05-01T16:33:59Z</time></trkpt><trkpt lat="45.89646368430623" lon="14.245158652536848"><ele>508.0</ele><time>2026-05-01T16:34:00Z</time></trkpt><trkpt lat="45.89638981668288" lon="14.245243644426855"><ele>507.4</ele><time>2026-05-01T16:34:01Z</time></trkpt><trkpt lat="45.89631630059308" lon="14.245334870585994"><ele>506.79999999999995</ele><time>2026-05-01T16:34:02Z</time></trkpt><trkpt lat="45.89623965397812" lon="14.24544506418061"><ele>506.2</ele><time>2026-05-01T16:34:03Z</time></trkpt><trkpt lat="45.89621645898411" lon="14.245607441230565"><ele>505.6</ele><time>2026-05-01T16:34:04Z</time></trkpt><trkpt lat="45.89618582223401" lon="14.245748531976984"><ele>505.0</ele><time>2026-05-01T16:34:05Z</time></trkpt><trkpt lat="45.89616786925764" lon="14.24591833026177"><ele>505.0</ele><time>2026-05-01T16:34:06Z</time></trkpt><trkpt lat="45.89612576365826" lon="14.246120109250809"><ele>505.0</ele><time>2026-05-01T16:34:07Z</time></trkpt><trkpt lat="45.896063062986556" lon="14.246317762310918"><ele>505.0</ele><time>2026-05-01T16:34:08Z</time></trkpt><trkpt lat="45.89601018467338" lon="14.246475726379096"><ele>505.0</ele><time>2026-05-01T16:34:09Z</time></trkpt><trkpt lat="45.895948628217425" lon="14.24662770122157"><ele>507.0</ele><time>2026-05-01T16:34:10Z</time></trkpt><trkpt lat="45.89586770102985" lon="14.24679190117706"><ele>509.0</ele><time>2026-05-01T16:34:11Z</time></trkpt><trkpt lat="45.895791321552316" lon="14.246938038982218"><ele>511.0</ele><time>2026-05-01T16:34:12Z</time></trkpt><trkpt lat="45.89572216851975" lon="14.247062176692708"><ele>513.0</ele><time>2026-05-01T16:34:13Z</time></trkpt><trkpt lat="45.895663966057356" lon="14.247165155832802"><ele>513.0</ele><time>2026-05-01T16:34:14Z</time></trkpt><trkpt lat="45.89563303707757" lon="14.247260164650363"><ele>513.0</ele><time>2026-05-01T16:34:15Z</time></trkpt><trkpt lat="45.89560564264754" lon="14.247347020825687"><ele>513.0</ele><time>2026-05-01T16:34:16Z</time></trkpt><trkpt lat="45.89559771623921" lon="14.247445150126932"><ele>513.0</ele><time>2026-05-01T16:34:17Z</time></trkpt><trkpt lat="45.895621771579584" lon="14.247556710143199"><ele>513.0</ele><time>2026-05-01T16:34:18Z</time></trkpt><trkpt lat="45.89565167282166" lon="14.247676491372367"><ele>513.0</ele><time>2026-05-01T16:34:19Z</time></trkpt><trkpt lat="45.8957498070398" lon="14.247746518839623"><ele>512.75</ele><time>2026-05-01T16:34:20Z</time></trkpt><trkpt lat="45.8958548610848" lon="14.247826843458451"><ele>512.5</ele><time>2026-05-01T16:34:21Z</time></trkpt><trkpt lat="45.89597752364988" lon="14.247944657331974"><ele>512.25</ele><time>2026-05-01T16:34:22Z</time></trkpt><trkpt lat="45.896067224533375" lon="14.248070952509014"><ele>512.0</ele><time>2026-05-01T16:34:23Z</time></trkpt><trkpt lat="45.89610490111799" lon="14.24818077862812"><ele>512.0</ele><time>2026-05-01T16:34:24Z</time></trkpt><trkpt lat="45.89613871055505" lon="14.248310165734384"><ele>512.0</ele><time>2026-05-01T16:34:25Z</time></trkpt><trkpt lat="45.89617054195033" lon="14.248488519306983"><ele>512.0</ele><time>2026-05-01T16:34:26Z</time></trkpt><trkpt lat="45.896199545483874" lon="14.24871907045176"><ele>512.0</ele><time>2026-05-01T16:34:27Z</time></trkpt><trkpt lat="45.89624300438263" lon="14.2489544401301"><ele>512.75</ele><time>2026-05-01T16:34:28Z</time></trkpt><trkpt lat="45.89630846949537" lon="14.249138174917963"><ele>513.5</ele><time>2026-05-01T16:34:29Z</time></trkpt><trkpt lat="45.896347559649335" lon="14.249340607758334"><ele>514.25</ele><time>2026-05-01T16:34:30Z</time></trkpt><trkpt lat="45.89640230812724" lon="14.249535613994034"><ele>515.0</ele><time>2026-05-01T16:34:31Z</time></trkpt><trkpt lat="45.89644118442476" lon="14.249743223004074"><ele>514.5</ele><time>2026-05-01T16:34:32Z</time></trkpt><trkpt lat="45.89645830314459" lon="14.249959082202164"><ele>514.0</ele><time>2026-05-01T16:34:33Z</time></trkpt><trkpt lat="45.89647449143597" lon="14.250167775979378"><ele>513.5</ele><time>2026-05-01T16:34:34Z</time></trkpt><trkpt lat="45.89648757587931" lon="14.250355052897108"><ele>513.0</ele><time>2026-05-01T16:34:35Z</time></trkpt><trkpt lat="45.896490998838445" lon="14.250543935917023"><ele>513.0</ele><time>2026-05-01T16:34:36Z</time></trkpt><trkpt lat="45.89644900387714" lon="14.25071197855216"><ele>513.0</ele><time>2026-05-01T16:34:37Z</time></trkpt><trkpt lat="45.89642545333937" lon="14.250891192467257"><ele>513.0</ele><time>2026-05-01T16:34:38Z</time></trkpt><trkpt lat="45.89640210914074" lon="14.251068958838411"><ele>513.0</ele><time>2026-05-01T16:34:39Z</time></trkpt><trkpt lat="45.896395186143735" lon="14.25122830697651"><ele>513.0</ele><time>2026-05-01T16:34:40Z</time></trkpt><trkpt lat="45.89639646187186" lon="14.251365180565621"><ele>513.0</ele><time>2026-05-01T16:34:41Z</time></trkpt><trkpt lat="45.896395021242505" lon="14.251525299508074"><ele>513.0</ele><time>2026-05-01T16:34:42Z</time></trkpt><trkpt lat="45.89638605815325" lon="14.251689662502946"><ele>513.0</ele><time>2026-05-01T16:34:43Z</time></trkpt><trkpt lat="45.89637305963674" lon="14.251882313553237"><ele>514.0</ele><time>2026-05-01T16:34:44Z</time></trkpt><trkpt lat="45.8963741092422" lon="14.252085460404857"><ele>515.0</ele><time>2026-05-01T16:34:45Z</time></trkpt><trkpt lat="45.89637681600487" lon="14.252304724803965"><ele>516.0</ele><time>2026-05-01T16:34:46Z</time></trkpt><trkpt lat="45.89637932242841" lon="14.252534094429574"><ele>516.0</ele><time>2026-05-01T16:34:47Z</time></trkpt><trkpt lat="45.89638664566272" lon="14.252752529800702"><ele>516.0</ele><time>2026-05-01T16:34:48Z</time></trkpt><trkpt lat="45.896396420350854" lon="14.25294053248681"><ele>516.0</ele><time>2026-05-01T16:34:49Z</time></trkpt><trkpt lat="45.89640737933971" lon="14.253135042256583"><ele>516.0</ele><time>2026-05-01T16:34:50Z</time></trkpt><trkpt lat="45.896413413919426" lon="14.253338139640494"><ele>516.0</ele><time>2026-05-01T16:34:51Z</time></trkpt><trkpt lat="45.89641336755515" lon="14.253538712951316"><ele>516.0</ele><time>2026-05-01T16:34:52Z</time></trkpt><trkpt lat="45.896417650456875" lon="14.253718703067484"><ele>516.0</ele><time>2026-05-01T16:34:53Z</time></trkpt><trkpt lat="45.896423220987494" lon="14.253892100407125"><ele>516.0</ele><time>2026-05-01T16:34:54Z</time></trkpt><trkpt lat="45.896412609004436" lon="14.254097070776133"><ele>515.5</ele><time>2026-05-01T16:34:55Z</time></trkpt><trkpt lat="45.89636244656563" lon="14.254304243759314"><ele>515.0</ele><time>2026-05-01T16:34:56Z</time></trkpt><trkpt lat="45.89629792807088" lon="14.254496803077286"><ele>514.5</ele><time>2026-05-01T16:34:57Z</time></trkpt><trkpt lat="45.89625447862444" lon="14.254681699592902"><ele>514.0</ele><time>2026-05-01T16:34:58Z</time></trkpt><trkpt lat="45.89622252759301" lon="14.254861015981202"><ele>513.5</ele><time>2026-05-01T16:34:59Z</time></trkpt><trkpt lat="45.896198117876544" lon="14.25503771416844"><ele>513.0</ele><time>2026-05-01T16:35:00Z</time></trkpt><trkpt lat="45.896180974585185" lon="14.255233477082783"><ele>512.5</ele><time>2026-05-01T16:35:01Z</time></trkpt><trkpt lat="45.89617910009717" lon="14.255445016898795"><ele>512.0</ele><time>2026-05-01T16:35:02Z</time></trkpt><trkpt lat="45.89618911197063" lon="14.255664019498111"><ele>511.8</ele><time>2026-05-01T16:35:03Z</time></trkpt><trkpt lat="45.89620388311686" lon="14.255846834409041"><ele>511.6</ele><time>2026-05-01T16:35:04Z</time></trkpt><trkpt lat="45.896228717911214" lon="14.256002691334581"><ele>511.40000000000003</ele><time>2026-05-01T16:35:05Z</time></trkpt><trkpt lat="45.896243652799185" lon="14.256129226049236"><ele>511.20000000000005</ele><time>2026-05-01T16:35:06Z</time></trkpt><trkpt lat="45.89625011570249" lon="14.256242228839076"><ele>511.0</ele><time>2026-05-01T16:35:07Z</time></trkpt><trkpt lat="45.896254379284194" lon="14.256391092977422"><ele>511.6666666666667</ele><time>2026-05-01T16:35:09Z</time></trkpt><trkpt lat="45.896330626867986" lon="14.256493235270577"><ele>512.3333333333334</ele><time>2026-05-01T16:35:11Z</time></trkpt><trkpt lat="45.8964111390926" lon="14.256501513376637"><ele>513.0</ele><time>2026-05-01T16:35:12Z</time></trkpt><trkpt lat="45.8964835535518" lon="14.256523050816742"><ele>513.6666666666666</ele><time>2026-05-01T16:35:13Z</time></trkpt><trkpt lat="45.89655950786884" lon="14.256571475178859"><ele>514.3333333333333</ele><time>2026-05-01T16:35:14Z</time></trkpt><trkpt lat="45.89662283215615" lon="14.25663857798662"><ele>515.0</ele><time>2026-05-01T16:35:15Z</time></trkpt><trkpt lat="45.89668016848052" lon="14.256713968933834"><ele>515.0</ele><time>2026-05-01T16:35:16Z</time></trkpt><trkpt lat="45.89669860681154" lon="14.256823875251424"><ele>515.0</ele><time>2026-05-01T16:35:17Z</time></trkpt><trkpt lat="45.896709214944956" lon="14.256935558530895"><ele>515.0</ele><time>2026-05-01T16:35:18Z</time></trkpt><trkpt lat="45.896729370829284" lon="14.257047866715142"><ele>515.0</ele><time>2026-05-01T16:35:19Z</time></trkpt><trkpt lat="45.89678586270211" lon="14.257183901294708"><ele>515.0</ele><time>2026-05-01T16:35:21Z</time></trkpt><trkpt lat="45.89687942127391" lon="14.25723302529578"><ele>515.0</ele><time>2026-05-01T16:35:23Z</time></trkpt><trkpt lat="45.89699057912784" lon="14.257183995626859"><ele>513.75</ele><time>2026-05-01T16:35:25Z</time></trkpt><trkpt lat="45.89714805059018" lon="14.257113163630041"><ele>512.5</ele><time>2026-05-01T16:35:27Z</time></trkpt><trkpt lat="45.89728132837528" lon="14.257056496889005"><ele>511.25</ele><time>2026-05-01T16:35:28Z</time></trkpt><trkpt lat="45.89737815553858" lon="14.257026659151133"><ele>510.0</ele><time>2026-05-01T16:35:29Z</time></trkpt><trkpt lat="45.89744990468737" lon="14.257010257265152"><ele>510.0</ele><time>2026-05-01T16:35:30Z</time></trkpt><trkpt lat="45.897513368399494" lon="14.2570162878257"><ele>510.0</ele><time>2026-05-01T16:35:31Z</time></trkpt><trkpt lat="45.89758961389357" lon="14.257022692549906"><ele>510.0</ele><time>2026-05-01T16:35:32Z</time></trkpt><trkpt lat="45.89766997790701" lon="14.257123678086016"><ele>510.0</ele><time>2026-05-01T16:35:33Z</time></trkpt><trkpt lat="45.89778061869868" lon="14.25718687447059"><ele>510.0</ele><time>2026-05-01T16:35:34Z</time></trkpt><trkpt lat="45.89788178538064" lon="14.257272627792101"><ele>511.3333333333333</ele><time>2026-05-01T16:35:35Z</time></trkpt><trkpt lat="45.89795148906435" lon="14.257359414421472"><ele>512.6666666666666</ele><time>2026-05-01T16:35:36Z</time></trkpt><trkpt lat="45.898011273020614" lon="14.257421939752348"><ele>514.0</ele><time>2026-05-01T16:35:37Z</time></trkpt><trkpt lat="45.89805761849815" lon="14.257494212938166"><ele>515.3333333333333</ele><time>2026-05-01T16:35:38Z</time></trkpt><trkpt lat="45.89810239854353" lon="14.257580427647484"><ele>516.6666666666666</ele><time>2026-05-01T16:35:39Z</time></trkpt><trkpt lat="45.898136708643754" lon="14.257701198552267"><ele>518.0</ele><time>2026-05-01T16:35:40Z</time></trkpt><trkpt lat="45.8981259655161" lon="14.25784606551918"><ele>518.0</ele><time>2026-05-01T16:35:41Z</time></trkpt><trkpt lat="45.89812938141187" lon="14.257957038621552"><ele>518.0</ele><time>2026-05-01T16:35:42Z</time></trkpt><trkpt lat="45.89816098983269" lon="14.258043016288642"><ele>518.0</ele><time>2026-05-01T16:35:43Z</time></trkpt><trkpt lat="45.898275542554394" lon="14.25811663600958"><ele>518.0</ele><time>2026-05-01T16:35:45Z</time></trkpt><trkpt lat="45.89836903081875" lon="14.258113484230984"><ele>518.0</ele><time>2026-05-01T16:35:46Z</time></trkpt><trkpt lat="45.89848816478122" lon="14.258069677052651"><ele>518.5</ele><time>2026-05-01T16:35:47Z</time></trkpt><trkpt lat="45.8986212841267" lon="14.25806079427718"><ele>519.0</ele><time>2026-05-01T16:35:48Z</time></trkpt><trkpt lat="45.89873238438137" lon="14.258032630583251"><ele>519.5</ele><time>2026-05-01T16:35:49Z</time></trkpt><trkpt lat="45.898830304719255" lon="14.25798875198549"><ele>520.0</ele><time>2026-05-01T16:35:50Z</time></trkpt><trkpt lat="45.898950434362305" lon="14.257944561421134"><ele>520.0</ele><time>2026-05-01T16:35:51Z</time></trkpt><trkpt lat="45.89906065259511" lon="14.257890994756716"><ele>520.0</ele><time>2026-05-01T16:35:52Z</time></trkpt><trkpt lat="45.899140679319586" lon="14.257845344638767"><ele>520.0</ele><time>2026-05-01T16:35:53Z</time></trkpt><trkpt lat="45.899203815941505" lon="14.257803341685571"><ele>520.0</ele><time>2026-05-01T16:35:54Z</time></trkpt><trkpt lat="45.899253441203655" lon="14.257724807278226"><ele>520.0</ele><time>2026-05-01T16:35:55Z</time></trkpt><trkpt lat="45.89933136880209" lon="14.257683055033834"><ele>520.0</ele><time>2026-05-01T16:35:56Z</time></trkpt><trkpt lat="45.89940143450229" lon="14.25761683853799"><ele>519.6</ele><time>2026-05-01T16:35:57Z</time></trkpt><trkpt lat="45.89947647505186" lon="14.257539102218121"><ele>519.2</ele><time>2026-05-01T16:35:58Z</time></trkpt><trkpt lat="45.89955250183431" lon="14.257458408048784"><ele>518.8</ele><time>2026-05-01T16:35:59Z</time></trkpt><trkpt lat="45.89964639563575" lon="14.257348147259611"><ele>518.4</ele><time>2026-05-01T16:36:00Z</time></trkpt><trkpt lat="45.89976055216144" lon="14.257271583834891"><ele>518.0</ele><time>2026-05-01T16:36:01Z</time></trkpt><trkpt lat="45.8998552258348" lon="14.257232248298017"><ele>517.3333333333333</ele><time>2026-05-01T16:36:02Z</time></trkpt><trkpt lat="45.89995489918493" lon="14.257222304757176"><ele>516.6666666666666</ele><time>2026-05-01T16:36:03Z</time></trkpt><trkpt lat="45.900044032187964" lon="14.257227980669445"><ele>516.0</ele><time>2026-05-01T16:36:04Z</time></trkpt><trkpt lat="45.90010702996914" lon="14.257258102186897"><ele>515.3333333333334</ele><time>2026-05-01T16:36:05Z</time></trkpt><trkpt lat="45.900148443589316" lon="14.257335272562456"><ele>514.6666666666667</ele><time>2026-05-01T16:36:06Z</time></trkpt><trkpt lat="45.90019902421044" lon="14.257414374596024"><ele>514.0</ele><time>2026-05-01T16:36:07Z</time></trkpt><trkpt lat="45.90022931183767" lon="14.257554181907391"><ele>513.4</ele><time>2026-05-01T16:36:08Z</time></trkpt><trkpt lat="45.90025819062142" lon="14.257734442874034"><ele>512.8</ele><time>2026-05-01T16:36:09Z</time></trkpt><trkpt lat="45.90028558841984" lon="14.257915148563265"><ele>512.2</ele><time>2026-05-01T16:36:10Z</time></trkpt><trkpt lat="45.90030809469617" lon="14.25805660778524"><ele>511.6</ele><time>2026-05-01T16:36:11Z</time></trkpt><trkpt lat="45.900308305645225" lon="14.258187092502396"><ele>511.0</ele><time>2026-05-01T16:36:12Z</time></trkpt><trkpt lat="45.90022930670954" lon="14.258299340471186"><ele>510.83333333333337</ele><time>2026-05-01T16:36:13Z</time></trkpt><trkpt lat="45.90017271936106" lon="14.258380798368327"><ele>510.6666666666667</ele><time>2026-05-01T16:36:14Z</time></trkpt><trkpt lat="45.9001099415799" lon="14.258424153550845"><ele>510.5</ele><time>2026-05-01T16:36:15Z</time></trkpt><trkpt lat="45.90003517412285" lon="14.258509329790146"><ele>510.33333333333337</ele><time>2026-05-01T16:36:16Z</time></trkpt><trkpt lat="45.8999687842107" lon="14.25860521477717"><ele>510.1666666666667</ele><time>2026-05-01T16:36:17Z</time></trkpt><trkpt lat="45.899898457937034" lon="14.258686576665141"><ele>510.0</ele><time>2026-05-01T16:36:18Z</time></trkpt><trkpt lat="45.89980239512488" lon="14.25877088985688"><ele>511.6666666666667</ele><time>2026-05-01T16:36:19Z</time></trkpt><trkpt lat="45.899751901822185" lon="14.25884692840936"><ele>513.3333333333334</ele><time>2026-05-01T16:36:20Z</time></trkpt><trkpt lat="45.89971349367414" lon="14.25895620420142"><ele>515.0</ele><time>2026-05-01T16:36:22Z</time></trkpt><trkpt lat="45.89976389601237" lon="14.259023957045834"><ele>516.6666666666667</ele><time>2026-05-01T16:36:23Z</time></trkpt><trkpt lat="45.89982741136449" lon="14.259162359064563"><ele>518.3333333333334</ele><time>2026-05-01T16:36:25Z</time></trkpt><trkpt lat="45.89990384732084" lon="14.259263902055993"><ele>520.0</ele><time>2026-05-01T16:36:26Z</time></trkpt><trkpt lat="45.899964730030675" lon="14.259372568766151"><ele>520.0</ele><time>2026-05-01T16:36:27Z</time></trkpt><trkpt lat="45.89997302846652" lon="14.259507925298886"><ele>520.0</ele><time>2026-05-01T16:36:28Z</time></trkpt><trkpt lat="45.89995062203573" lon="14.259641969358993"><ele>520.0</ele><time>2026-05-01T16:36:29Z</time></trkpt><trkpt lat="45.899967960115575" lon="14.259769296434275"><ele>520.0</ele><time>2026-05-01T16:36:30Z</time></trkpt><trkpt lat="45.899978107642504" lon="14.259915344742105"><ele>520.0</ele><time>2026-05-01T16:36:31Z</time></trkpt><trkpt lat="45.90006215907911" lon="14.260013334121682"><ele>520.0</ele><time>2026-05-01T16:36:32Z</time></trkpt><trkpt lat="45.90009504882726" lon="14.260116416083804"><ele>520.0</ele><time>2026-05-01T16:36:33Z</time></trkpt><trkpt lat="45.900117101339355" lon="14.260267399677911"><ele>520.0</ele><time>2026-05-01T16:36:34Z</time></trkpt><trkpt lat="45.90011723434994" lon="14.260397939337732"><ele>520.0</ele><time>2026-05-01T16:36:35Z</time></trkpt><trkpt lat="45.900127642971746" lon="14.260512577072227"><ele>520.0</ele><time>2026-05-01T16:36:36Z</time></trkpt><trkpt lat="45.900140862735476" lon="14.260645178801513"><ele>520.0</ele><time>2026-05-01T16:36:37Z</time></trkpt><trkpt lat="45.90017981638647" lon="14.260787085955569"><ele>520.0</ele><time>2026-05-01T16:36:38Z</time></trkpt><trkpt lat="45.900211586558605" lon="14.26094305512995"><ele>520.0</ele><time>2026-05-01T16:36:39Z</time></trkpt><trkpt lat="45.90024637457717" lon="14.261080710993182"><ele>520.0</ele><time>2026-05-01T16:36:40Z</time></trkpt><trkpt lat="45.9002504160076" lon="14.261222671565012"><ele>520.0</ele><time>2026-05-01T16:36:41Z</time></trkpt><trkpt lat="45.900268005509425" lon="14.261370172104549"><ele>521.8333333333334</ele><time>2026-05-01T16:36:42Z</time></trkpt><trkpt lat="45.90023762685313" lon="14.261508503108912"><ele>523.6666666666667</ele><time>2026-05-01T16:36:43Z</time></trkpt><trkpt lat="45.9001983793052" lon="14.261616160033546"><ele>525.5</ele><time>2026-05-01T16:36:44Z</time></trkpt><trkpt lat="45.900151811334176" lon="14.261728212623478"><ele>527.3333333333334</ele><time>2026-05-01T16:36:45Z</time></trkpt><trkpt lat="45.900119451340885" lon="14.261850165345964"><ele>529.1666666666666</ele><time>2026-05-01T16:36:46Z</time></trkpt><trkpt lat="45.900098934278134" lon="14.261955850460573"><ele>531.0</ele><time>2026-05-01T16:36:47Z</time></trkpt><trkpt lat="45.9000667636947" lon="14.262157480645472"><ele>531.6666666666666</ele><time>2026-05-01T16:36:49Z</time></trkpt><trkpt lat="45.900067335738036" lon="14.262294507366853"><ele>532.3333333333334</ele><time>2026-05-01T16:36:50Z</time></trkpt><trkpt lat="45.900085600147975" lon="14.262407900379008"><ele>533.0</ele><time>2026-05-01T16:36:51Z</time></trkpt><trkpt lat="45.90012238523187" lon="14.262529218865179"><ele>533.6666666666667</ele><time>2026-05-01T16:36:53Z</time></trkpt><trkpt lat="45.900162504273574" lon="14.262649128955013"><ele>534.3333333333334</ele><time>2026-05-01T16:36:55Z</time></trkpt><trkpt lat="45.900211896354534" lon="14.262716994350583"><ele>535.0</ele><time>2026-05-01T16:36:56Z</time></trkpt><trkpt lat="45.90029665124984" lon="14.262792986404893"><ele>536.0</ele><time>2026-05-01T16:36:57Z</time></trkpt><trkpt lat="45.90038143656745" lon="14.262857555084711"><ele>537.0</ele><time>2026-05-01T16:36:58Z</time></trkpt><trkpt lat="45.90043858892798" lon="14.262909771198235"><ele>538.0</ele><time>2026-05-01T16:36:59Z</time></trkpt><trkpt lat="45.90048438720725" lon="14.263013838916818"><ele>539.0</ele><time>2026-05-01T16:37:00Z</time></trkpt><trkpt lat="45.900517294796074" lon="14.263175914911956"><ele>540.0</ele><time>2026-05-01T16:37:01Z</time></trkpt><trkpt lat="45.9005368352164" lon="14.263344171582453"><ele>541.3333333333334</ele><time>2026-05-01T16:37:02Z</time></trkpt><trkpt lat="45.90050720853618" lon="14.263487286286606"><ele>542.6666666666666</ele><time>2026-05-01T16:37:03Z</time></trkpt><trkpt lat="45.900482203649965" lon="14.263640790409704"><ele>544.0</ele><time>2026-05-01T16:37:04Z</time></trkpt><trkpt lat="45.90048031555291" lon="14.263760243163143"><ele>545.3333333333333</ele><time>2026-05-01T16:37:05Z</time></trkpt><trkpt lat="45.900486036458354" lon="14.263858033266855"><ele>546.6666666666666</ele><time>2026-05-01T16:37:06Z</time></trkpt><trkpt lat="45.900503257800615" lon="14.26394815504385"><ele>548.0</ele><time>2026-05-01T16:37:07Z</time></trkpt><trkpt lat="45.90052557328578" lon="14.26404834359422"><ele>549.0</ele><time>2026-05-01T16:37:08Z</time></trkpt><trkpt lat="45.90057557498017" lon="14.264128826230895"><ele>550.0</ele><time>2026-05-01T16:37:09Z</time></trkpt><trkpt lat="45.9006381157233" lon="14.264198127339029"><ele>551.0</ele><time>2026-05-01T16:37:10Z</time></trkpt><trkpt lat="45.90069088976649" lon="14.264285804316868"><ele>552.0</ele><time>2026-05-01T16:37:11Z</time></trkpt><trkpt lat="45.900767926396796" lon="14.264352176483943"><ele>553.0</ele><time>2026-05-01T16:37:12Z</time></trkpt><trkpt lat="45.90089490708169" lon="14.26440176784531"><ele>553.4</ele><time>2026-05-01T16:37:13Z</time></trkpt><trkpt lat="45.9010102073148" lon="14.264418557023834"><ele>553.8</ele><time>2026-05-01T16:37:14Z</time></trkpt><trkpt lat="45.901100192166986" lon="14.264445651635604"><ele>554.2</ele><time>2026-05-01T16:37:15Z</time></trkpt><trkpt lat="45.9011590830388" lon="14.264481398724865"><ele>554.6</ele><time>2026-05-01T16:37:16Z</time></trkpt><trkpt lat="45.90124955962905" lon="14.264595927664923"><ele>555.0</ele><time>2026-05-01T16:37:18Z</time></trkpt><trkpt lat="45.90132425677703" lon="14.264671335765135"><ele>555.0</ele><time>2026-05-01T16:37:19Z</time></trkpt><trkpt lat="45.90136348875716" lon="14.264775717293569"><ele>555.0</ele><time>2026-05-01T16:37:20Z</time></trkpt><trkpt lat="45.901420690209875" lon="14.26485624161027"><ele>555.0</ele><time>2026-05-01T16:37:21Z</time></trkpt><trkpt lat="45.90146823833972" lon="14.264953064808997"><ele>555.0</ele><time>2026-05-01T16:37:22Z</time></trkpt><trkpt lat="45.901502697435326" lon="14.26506791052265"><ele>555.0</ele><time>2026-05-01T16:37:23Z</time></trkpt><trkpt lat="45.90150635755753" lon="14.265172217152914"><ele>555.0</ele><time>2026-05-01T16:37:24Z</time></trkpt><trkpt lat="45.901503425851445" lon="14.265280646573865"><ele>555.8</ele><time>2026-05-01T16:37:25Z</time></trkpt><trkpt lat="45.90147274473113" lon="14.26541830300044"><ele>556.6</ele><time>2026-05-01T16:37:26Z</time></trkpt><trkpt lat="45.90143884160215" lon="14.26556812469448"><ele>557.4</ele><time>2026-05-01T16:37:27Z</time></trkpt><trkpt lat="45.90142383535016" lon="14.265675515667104"><ele>558.2</ele><time>2026-05-01T16:37:28Z</time></trkpt><trkpt lat="45.9014336328826" lon="14.265786989281919"><ele>559.0</ele><time>2026-05-01T16:37:29Z</time></trkpt><trkpt lat="45.90146116456827" lon="14.2659190286014"><ele>560.0</ele><time>2026-05-01T16:37:30Z</time></trkpt><trkpt lat="45.90149630979184" lon="14.26602702214824"><ele>561.0</ele><time>2026-05-01T16:37:31Z</time></trkpt><trkpt lat="45.90154585878482" lon="14.266092375680156"><ele>562.0</ele><time>2026-05-01T16:37:32Z</time></trkpt><trkpt lat="45.90165489695623" lon="14.26610514770536"><ele>563.0</ele><time>2026-05-01T16:37:34Z</time></trkpt><trkpt lat="45.90175636957596" lon="14.266165920931734"><ele>564.0</ele><time>2026-05-01T16:37:36Z</time></trkpt><trkpt lat="45.901814579710916" lon="14.266246334808807"><ele>564.0</ele><time>2026-05-01T16:37:37Z</time></trkpt><trkpt lat="45.90185971433126" lon="14.266343533774775"><ele>564.0</ele><time>2026-05-01T16:37:38Z</time></trkpt><trkpt lat="45.90191137746399" lon="14.266435628001322"><ele>564.0</ele><time>2026-05-01T16:37:39Z</time></trkpt><trkpt lat="45.90191517526565" lon="14.266576718373745"><ele>564.0</ele><time>2026-05-01T16:37:40Z</time></trkpt><trkpt lat="45.90194906336783" lon="14.266670054532423"><ele>564.0</ele><time>2026-05-01T16:37:41Z</time></trkpt><trkpt lat="45.902045384646506" lon="14.266751899046831"><ele>564.0</ele><time>2026-05-01T16:37:43Z</time></trkpt><trkpt lat="45.902110873500924" lon="14.266773521388888"><ele>565.0</ele><time>2026-05-01T16:37:44Z</time></trkpt><trkpt lat="45.902195407499875" lon="14.266793079979"><ele>566.0</ele><time>2026-05-01T16:37:45Z</time></trkpt><trkpt lat="45.90229088164565" lon="14.26682251596233"><ele>567.0</ele><time>2026-05-01T16:37:46Z</time></trkpt><trkpt lat="45.90237173472416" lon="14.266821833570626"><ele>568.0</ele><time>2026-05-01T16:37:47Z</time></trkpt><trkpt lat="45.90243574177907" lon="14.266793025546246"><ele>569.0</ele><time>2026-05-01T16:37:48Z</time></trkpt><trkpt lat="45.90250970857063" lon="14.266781694081592"><ele>570.0</ele><time>2026-05-01T16:37:49Z</time></trkpt><trkpt lat="45.90260148921831" lon="14.266707926632481"><ele>570.1666666666666</ele><time>2026-05-01T16:37:50Z</time></trkpt><trkpt lat="45.9026876738957" lon="14.266644129101085"><ele>570.3333333333334</ele><time>2026-05-01T16:37:51Z</time></trkpt><trkpt lat="45.9027517897752" lon="14.26662406147049"><ele>570.5</ele><time>2026-05-01T16:37:52Z</time></trkpt><trkpt lat="45.9028469215913" lon="14.266608683371972"><ele>570.6666666666667</ele><time>2026-05-01T16:37:54Z</time></trkpt><trkpt lat="45.90291550160475" lon="14.266591817459666"><ele>570.8333333333334</ele><time>2026-05-01T16:37:55Z</time></trkpt><trkpt lat="45.902992954116186" lon="14.266607475914377"><ele>571.0</ele><time>2026-05-01T16:37:56Z</time></trkpt><trkpt lat="45.90307957593468" lon="14.266644831327348"><ele>571.0</ele><time>2026-05-01T16:37:57Z</time></trkpt><trkpt lat="45.903188252588116" lon="14.266704976205014"><ele>571.0</ele><time>2026-05-01T16:37:58Z</time></trkpt><trkpt lat="45.90328359033788" lon="14.266752034439644"><ele>571.0</ele><time>2026-05-01T16:37:59Z</time></trkpt><trkpt lat="45.90334183952489" lon="14.2667980267056"><ele>571.0</ele><time>2026-05-01T16:38:00Z</time></trkpt><trkpt lat="45.903427693176184" lon="14.266811037725693"><ele>571.0</ele><time>2026-05-01T16:38:01Z</time></trkpt><trkpt lat="45.90351742675597" lon="14.26678233010965"><ele>570.8333333333334</ele><time>2026-05-01T16:38:02Z</time></trkpt><trkpt lat="45.90359339882357" lon="14.26674320695501"><ele>570.6666666666667</ele><time>2026-05-01T16:38:03Z</time></trkpt><trkpt lat="45.90368661795551" lon="14.266720771048245"><ele>570.5</ele><time>2026-05-01T16:38:04Z</time></trkpt><trkpt lat="45.90378519435261" lon="14.26670930967359"><ele>570.3333333333334</ele><time>2026-05-01T16:38:05Z</time></trkpt><trkpt lat="45.90386684801694" lon="14.266707737738818"><ele>570.1666666666666</ele><time>2026-05-01T16:38:06Z</time></trkpt><trkpt lat="45.90394794361383" lon="14.266717576196335"><ele>570.0</ele><time>2026-05-01T16:38:07Z</time></trkpt><trkpt lat="45.90401565926163" lon="14.266752294895449"><ele>570.0</ele><time>2026-05-01T16:38:08Z</time></trkpt><trkpt lat="45.90406197762343" lon="14.266823705977162"><ele>570.0</ele><time>2026-05-01T16:38:09Z</time></trkpt><trkpt lat="45.904122882197726" lon="14.266884918077809"><ele>570.0</ele><time>2026-05-01T16:38:10Z</time></trkpt><trkpt lat="45.904172585647274" lon="14.26701671257949"><ele>570.0</ele><time>2026-05-01T16:38:11Z</time></trkpt><trkpt lat="45.90422614741398" lon="14.267095218231416"><ele>570.0</ele><time>2026-05-01T16:38:12Z</time></trkpt><trkpt lat="45.90427985561874" lon="14.267144313782083"><ele>570.0</ele><time>2026-05-01T16:38:26Z</time></trkpt><trkpt lat="45.904232151350634" lon="14.267299123732633"><ele>569.6</ele><time>2026-05-01T16:38:31Z</time></trkpt><trkpt lat="45.90415858596363" lon="14.267441594286147"><ele>569.2</ele><time>2026-05-01T16:38:33Z</time></trkpt><trkpt lat="45.90411566683547" lon="14.267508010400576"><ele>568.8</ele><time>2026-05-01T16:38:34Z</time></trkpt><trkpt lat="45.90402727259924" lon="14.26761435393162"><ele>568.4</ele><time>2026-05-01T16:38:36Z</time></trkpt><trkpt lat="45.90392717476749" lon="14.267738967671503"><ele>568.0</ele><time>2026-05-01T16:38:38Z</time></trkpt><trkpt lat="45.90386803239362" lon="14.267825419155358"><ele>568.0</ele><time>2026-05-01T16:38:39Z</time></trkpt><trkpt lat="45.90381855698637" lon="14.267907853681006"><ele>568.0</ele><time>2026-05-01T16:38:40Z</time></trkpt><trkpt lat="45.90374144887875" lon="14.26804862994936"><ele>568.0</ele><time>2026-05-01T16:38:42Z</time></trkpt><trkpt lat="45.903694440514336" lon="14.268120365100426"><ele>568.0</ele><time>2026-05-01T16:38:43Z</time></trkpt><trkpt lat="45.90363872470532" lon="14.268205792280785"><ele>568.0</ele><time>2026-05-01T16:38:44Z</time></trkpt><trkpt lat="45.90358239910636" lon="14.268291037164925"><ele>568.0</ele><time>2026-05-01T16:38:45Z</time></trkpt><trkpt lat="45.903504955487826" lon="14.268395422042111"><ele>568.1999999999999</ele><time>2026-05-01T16:38:47Z</time></trkpt><trkpt lat="45.90340940734089" lon="14.26846399140013"><ele>568.4</ele><time>2026-05-01T16:38:49Z</time></trkpt><trkpt lat="45.903288439076846" lon="14.26848483981305"><ele>568.5999999999999</ele><time>2026-05-01T16:38:51Z</time></trkpt><trkpt lat="45.90320309306153" lon="14.268504539864955"><ele>568.8</ele><time>2026-05-01T16:38:52Z</time></trkpt><trkpt lat="45.90311810627174" lon="14.268539543202916"><ele>569.0</ele><time>2026-05-01T16:38:53Z</time></trkpt><trkpt lat="45.9030499132044" lon="14.268573999453102"><ele>569.0</ele><time>2026-05-01T16:38:54Z</time></trkpt><trkpt lat="45.90296853783576" lon="14.268604918662891"><ele>569.0</ele><time>2026-05-01T16:38:55Z</time></trkpt><trkpt lat="45.90290063431129" lon="14.268627886153208"><ele>569.0</ele><time>2026-05-01T16:38:56Z</time></trkpt><trkpt lat="45.902836711535464" lon="14.268659818983787"><ele>569.0</ele><time>2026-05-01T16:38:57Z</time></trkpt><trkpt lat="45.902740461472455" lon="14.268743453055892"><ele>569.0</ele><time>2026-05-01T16:38:59Z</time></trkpt><trkpt lat="45.902707965694134" lon="14.268838965040363"><ele>569.0</ele><time>2026-05-01T16:39:01Z</time></trkpt><trkpt lat="45.902682134707284" lon="14.268970147487728"><ele>569.3333333333333</ele><time>2026-05-01T16:39:03Z</time></trkpt><trkpt lat="45.90267762327361" lon="14.269061645482838"><ele>569.6666666666666</ele><time>2026-05-01T16:39:04Z</time></trkpt><trkpt lat="45.90267975898873" lon="14.269167999967962"><ele>570.0</ele><time>2026-05-01T16:39:05Z</time></trkpt><trkpt lat="45.90269662142599" lon="14.26926764466117"><ele>570.3333333333334</ele><time>2026-05-01T16:39:06Z</time></trkpt><trkpt lat="45.90271739822" lon="14.26935392945322"><ele>570.6666666666667</ele><time>2026-05-01T16:39:07Z</time></trkpt><trkpt lat="45.90271115151027" lon="14.269454313031178"><ele>571.0</ele><time>2026-05-01T16:39:09Z</time></trkpt><trkpt lat="45.9026347282532" lon="14.269586266547215"><ele>572.25</ele><time>2026-05-01T16:39:11Z</time></trkpt><trkpt lat="45.902564410656645" lon="14.26966546789433"><ele>573.5</ele><time>2026-05-01T16:39:12Z</time></trkpt><trkpt lat="45.90247176048241" lon="14.269760946956797"><ele>574.75</ele><time>2026-05-01T16:39:13Z</time></trkpt><trkpt lat="45.90235112614366" lon="14.26989956801924"><ele>576.0</ele><time>2026-05-01T16:39:14Z</time></trkpt><trkpt lat="45.9022130372381" lon="14.270054374678661"><ele>577.75</ele><time>2026-05-01T16:39:15Z</time></trkpt><trkpt lat="45.90207233854986" lon="14.270234518465115"><ele>579.5</ele><time>2026-05-01T16:39:16Z</time></trkpt><trkpt lat="45.90194503427364" lon="14.27038417371999"><ele>581.25</ele><time>2026-05-01T16:39:17Z</time></trkpt><trkpt lat="45.90187944675967" lon="14.27046835349654"><ele>583.0</ele><time>2026-05-01T16:39:18Z</time></trkpt><trkpt lat="45.90180787070825" lon="14.270574198482047"><ele>584.5</ele><time>2026-05-01T16:39:19Z</time></trkpt><trkpt lat="45.90172373614362" lon="14.270672285862675"><ele>586.0</ele><time>2026-05-01T16:39:20Z</time></trkpt><trkpt lat="45.90165671429572" lon="14.270742917837168"><ele>587.5</ele><time>2026-05-01T16:39:21Z</time></trkpt><trkpt lat="45.90159008747092" lon="14.27079968974636"><ele>589.0</ele><time>2026-05-01T16:39:22Z</time></trkpt><trkpt lat="45.90151933233176" lon="14.270854426426535"><ele>590.5</ele><time>2026-05-01T16:39:23Z</time></trkpt><trkpt lat="45.901445231494776" lon="14.270921943304868"><ele>592.0</ele><time>2026-05-01T16:39:24Z</time></trkpt><trkpt lat="45.901380568278476" lon="14.270995764673824"><ele>592.0</ele><time>2026-05-01T16:39:25Z</time></trkpt><trkpt lat="45.901330525933844" lon="14.271097718257366"><ele>592.0</ele><time>2026-05-01T16:39:26Z</time></trkpt><trkpt lat="45.90126238998747" lon="14.271206542827132"><ele>592.0</ele><time>2026-05-01T16:39:27Z</time></trkpt><trkpt lat="45.90120533786169" lon="14.271282634668403"><ele>592.0</ele><time>2026-05-01T16:39:28Z</time></trkpt><trkpt lat="45.90116001231163" lon="14.271346113343093"><ele>592.0</ele><time>2026-05-01T16:39:29Z</time></trkpt><trkpt lat="45.90109343260151" lon="14.271382322204559"><ele>592.0</ele><time>2026-05-01T16:39:30Z</time></trkpt><trkpt lat="45.90103204366348" lon="14.271412430566796"><ele>592.6666666666667</ele><time>2026-05-01T16:39:31Z</time></trkpt><trkpt lat="45.900965724790716" lon="14.271458282403014"><ele>593.3333333333334</ele><time>2026-05-01T16:39:32Z</time></trkpt><trkpt lat="45.90090209106903" lon="14.27148796821616"><ele>594.0</ele><time>2026-05-01T16:39:33Z</time></trkpt><trkpt lat="45.900812638904426" lon="14.271529943582381"><ele>594.6666666666666</ele><time>2026-05-01T16:39:35Z</time></trkpt><trkpt lat="45.900754868346084" lon="14.271602892362552"><ele>595.3333333333333</ele><time>2026-05-01T16:39:36Z</time></trkpt><trkpt lat="45.900690609723256" lon="14.271683755355593"><ele>596.0</ele><time>2026-05-01T16:39:37Z</time></trkpt><trkpt lat="45.900640494092144" lon="14.271761430459035"><ele>597.5</ele><time>2026-05-01T16:39:38Z</time></trkpt><trkpt lat="45.90057576460808" lon="14.271843365955037"><ele>599.0</ele><time>2026-05-01T16:39:39Z</time></trkpt><trkpt lat="45.90050485450069" lon="14.271912245307693"><ele>600.5</ele><time>2026-05-01T16:39:40Z</time></trkpt><trkpt lat="45.90044151979971" lon="14.271979068757558"><ele>602.0</ele><time>2026-05-01T16:39:41Z</time></trkpt><trkpt lat="45.90039755357506" lon="14.27207194586461"><ele>603.5</ele><time>2026-05-01T16:39:42Z</time></trkpt><trkpt lat="45.90036863667111" lon="14.272179270491046"><ele>605.0</ele><time>2026-05-01T16:39:43Z</time></trkpt><trkpt lat="45.90034100634335" lon="14.272306935727228"><ele>608.0</ele><time>2026-05-01T16:39:44Z</time></trkpt><trkpt lat="45.90030313427559" lon="14.272467057959108"><ele>611.0</ele><time>2026-05-01T16:39:45Z</time></trkpt><trkpt lat="45.9002485700307" lon="14.272649012049136"><ele>614.0</ele><time>2026-05-01T16:39:46Z</time></trkpt><trkpt lat="45.90020303761002" lon="14.272811869295362"><ele>617.0</ele><time>2026-05-01T16:39:47Z</time></trkpt><trkpt lat="45.90017374383023" lon="14.272935210901899"><ele>617.0</ele><time>2026-05-01T16:39:48Z</time></trkpt><trkpt lat="45.900155949551554" lon="14.273059800372891"><ele>617.0</ele><time>2026-05-01T16:39:49Z</time></trkpt><trkpt lat="45.90013615745805" lon="14.273169366024339"><ele>617.0</ele><time>2026-05-01T16:39:50Z</time></trkpt><trkpt lat="45.900123021831824" lon="14.27326900402511"><ele>617.0</ele><time>2026-05-01T16:39:51Z</time></trkpt><trkpt lat="45.9000909038063" lon="14.273410475854117"><ele>617.0</ele><time>2026-05-01T16:39:53Z</time></trkpt><trkpt lat="45.900037771886424" lon="14.27350575122662"><ele>617.0</ele><time>2026-05-01T16:39:55Z</time></trkpt><trkpt lat="45.89993957720109" lon="14.2735334816018"><ele>617.8000000000001</ele><time>2026-05-01T16:39:57Z</time></trkpt><trkpt lat="45.899841354825725" lon="14.273555743868224"><ele>618.6</ele><time>2026-05-01T16:39:58Z</time></trkpt><trkpt lat="45.899733694402094" lon="14.273602369212544"><ele>619.4000000000001</ele><time>2026-05-01T16:39:59Z</time></trkpt><trkpt lat="45.89962663625173" lon="14.273619045189628"><ele>620.2</ele><time>2026-05-01T16:40:00Z</time></trkpt><trkpt lat="45.89953416072545" lon="14.273634284278293"><ele>621.0</ele><time>2026-05-01T16:40:01Z</time></trkpt><trkpt lat="45.899443700840344" lon="14.27364093387277"><ele>621.0</ele><time>2026-05-01T16:40:02Z</time></trkpt><trkpt lat="45.89934136715279" lon="14.27363769391293"><ele>621.0</ele><time>2026-05-01T16:40:03Z</time></trkpt><trkpt lat="45.89923699472251" lon="14.273638778643555"><ele>621.0</ele><time>2026-05-01T16:40:04Z</time></trkpt><trkpt lat="45.89913886313424" lon="14.27360247962442"><ele>621.0</ele><time>2026-05-01T16:40:05Z</time></trkpt><trkpt lat="45.899054066547215" lon="14.273529533346805"><ele>621.0</ele><time>2026-05-01T16:40:06Z</time></trkpt><trkpt lat="45.8989766869245" lon="14.27345474865991"><ele>621.8</ele><time>2026-05-01T16:40:07Z</time></trkpt><trkpt lat="45.89890592567563" lon="14.273359011611863"><ele>622.6</ele><time>2026-05-01T16:40:08Z</time></trkpt><trkpt lat="45.89883204188071" lon="14.273288970557765"><ele>623.4</ele><time>2026-05-01T16:40:09Z</time></trkpt><trkpt lat="45.8987813421622" lon="14.273209583014719"><ele>624.2</ele><time>2026-05-01T16:40:10Z</time></trkpt><trkpt lat="45.89866665837858" lon="14.273133477256552"><ele>625.0</ele><time>2026-05-01T16:40:12Z</time></trkpt><trkpt lat="45.898595407456156" lon="14.273137057412436"><ele>625.0</ele><time>2026-05-01T16:40:13Z</time></trkpt><trkpt lat="45.898510780611865" lon="14.273169636553831"><ele>625.0</ele><time>2026-05-01T16:40:14Z</time></trkpt><trkpt lat="45.89842955988468" lon="14.273245321703037"><ele>625.0</ele><time>2026-05-01T16:40:15Z</time></trkpt><trkpt lat="45.89834176579812" lon="14.273340147486973"><ele>625.0</ele><time>2026-05-01T16:40:16Z</time></trkpt><trkpt lat="45.89824193590198" lon="14.273426521070798"><ele>625.0</ele><time>2026-05-01T16:40:17Z</time></trkpt><trkpt lat="45.89813789517087" lon="14.27351674593026"><ele>624.5</ele><time>2026-05-01T16:40:18Z</time></trkpt><trkpt lat="45.89803657964761" lon="14.273601927626842"><ele>624.0</ele><time>2026-05-01T16:40:19Z</time></trkpt><trkpt lat="45.89793587621203" lon="14.273678447905226"><ele>623.5</ele><time>2026-05-01T16:40:20Z</time></trkpt><trkpt lat="45.897850098690924" lon="14.273799392970453"><ele>623.0</ele><time>2026-05-01T16:40:21Z</time></trkpt><trkpt lat="45.897767761514416" lon="14.273927417297935"><ele>623.75</ele><time>2026-05-01T16:40:22Z</time></trkpt><trkpt lat="45.89768837644098" lon="14.274059371279456"><ele>624.5</ele><time>2026-05-01T16:40:23Z</time></trkpt><trkpt lat="45.89761648776449" lon="14.274193888775836"><ele>625.25</ele><time>2026-05-01T16:40:24Z</time></trkpt><trkpt lat="45.8975578809541" lon="14.274322500400775"><ele>626.0</ele><time>2026-05-01T16:40:25Z</time></trkpt><trkpt lat="45.89748229993815" lon="14.274429974616924"><ele>626.0</ele><time>2026-05-01T16:40:26Z</time></trkpt><trkpt lat="45.89741592565528" lon="14.27451806194148"><ele>626.0</ele><time>2026-05-01T16:40:27Z</time></trkpt><trkpt lat="45.89734004616551" lon="14.274589632289453"><ele>626.0</ele><time>2026-05-01T16:40:28Z</time></trkpt><trkpt lat="45.897259162228316" lon="14.274661077354311"><ele>626.0</ele><time>2026-05-01T16:40:29Z</time></trkpt><trkpt lat="45.89716720223428" lon="14.27474544552092"><ele>626.0</ele><time>2026-05-01T16:40:30Z</time></trkpt><trkpt lat="45.89708148763926" lon="14.274830067951711"><ele>625.6</ele><time>2026-05-01T16:40:31Z</time></trkpt><trkpt lat="45.89700528481331" lon="14.274929397421822"><ele>625.2</ele><time>2026-05-01T16:40:32Z</time></trkpt><trkpt lat="45.8969208957876" lon="14.274981982500776"><ele>624.8</ele><time>2026-05-01T16:40:33Z</time></trkpt><trkpt lat="45.896848195218915" lon="14.275040780210364"><ele>624.4</ele><time>2026-05-01T16:40:34Z</time></trkpt><trkpt lat="45.8967682084295" lon="14.275091501622368"><ele>624.0</ele><time>2026-05-01T16:40:35Z</time></trkpt><trkpt lat="45.89668712195683" lon="14.275142222103694"><ele>624.0</ele><time>2026-05-01T16:40:36Z</time></trkpt><trkpt lat="45.896602412901785" lon="14.275201802242318"><ele>624.0</ele><time>2026-05-01T16:40:37Z</time></trkpt><trkpt lat="45.89652312813502" lon="14.275272277558892"><ele>624.0</ele><time>2026-05-01T16:40:38Z</time></trkpt><trkpt lat="45.89644513118969" lon="14.275372473490313"><ele>624.0</ele><time>2026-05-01T16:40:39Z</time></trkpt><trkpt lat="45.89636427649453" lon="14.27546837725769"><ele>624.0</ele><time>2026-05-01T16:40:40Z</time></trkpt><trkpt lat="45.89629603989246" lon="14.275576205700933"><ele>627.0</ele><time>2026-05-01T16:40:41Z</time></trkpt><trkpt lat="45.89622482744738" lon="14.275698334803293"><ele>630.0</ele><time>2026-05-01T16:40:42Z</time></trkpt><trkpt lat="45.89613405748676" lon="14.27586361339126"><ele>633.0</ele><time>2026-05-01T16:40:43Z</time></trkpt><trkpt lat="45.89604834903239" lon="14.276025622659013"><ele>636.0</ele><time>2026-05-01T16:40:44Z</time></trkpt><trkpt lat="45.895955690614" lon="14.276129214371826"><ele>635.2</ele><time>2026-05-01T16:40:45Z</time></trkpt><trkpt lat="45.89588464885049" lon="14.276246565672466"><ele>634.4000000000001</ele><time>2026-05-01T16:40:46Z</time></trkpt><trkpt lat="45.895805212099035" lon="14.27634520661243"><ele>633.6</ele><time>2026-05-01T16:40:47Z</time></trkpt><trkpt lat="45.89573838522178" lon="14.276447759538014"><ele>632.8000000000001</ele><time>2026-05-01T16:40:48Z</time></trkpt><trkpt lat="45.89568132645864" lon="14.276570263654301"><ele>632.0</ele><time>2026-05-01T16:40:49Z</time></trkpt><trkpt lat="45.895615583662995" lon="14.276680244500014"><ele>632.0</ele><time>2026-05-01T16:40:50Z</time></trkpt><trkpt lat="45.895556387397754" lon="14.2768047947186"><ele>632.0</ele><time>2026-05-01T16:40:51Z</time></trkpt><trkpt lat="45.895479517469916" lon="14.276920301613206"><ele>632.0</ele><time>2026-05-01T16:40:52Z</time></trkpt><trkpt lat="45.89541633118587" lon="14.277051593516978"><ele>632.0</ele><time>2026-05-01T16:40:53Z</time></trkpt><trkpt lat="45.89535522877432" lon="14.277181911907313"><ele>632.0</ele><time>2026-05-01T16:40:54Z</time></trkpt><trkpt lat="45.89530026637537" lon="14.277299134992957"><ele>634.0</ele><time>2026-05-01T16:40:55Z</time></trkpt><trkpt lat="45.89525792237831" lon="14.277427130364071"><ele>636.0</ele><time>2026-05-01T16:40:56Z</time></trkpt><trkpt lat="45.895197191198456" lon="14.277515364071695"><ele>638.0</ele><time>2026-05-01T16:40:57Z</time></trkpt><trkpt lat="45.89514533077689" lon="14.277622560366346"><ele>640.0</ele><time>2026-05-01T16:40:58Z</time></trkpt><trkpt lat="45.895085172089445" lon="14.277746909235315"><ele>642.0</ele><time>2026-05-01T16:40:59Z</time></trkpt><trkpt lat="45.89502500308464" lon="14.277871279455828"><ele>639.6</ele><time>2026-05-01T16:41:00Z</time></trkpt><trkpt lat="45.89496319497234" lon="14.27799721424711"><ele>637.2</ele><time>2026-05-01T16:41:01Z</time></trkpt><trkpt lat="45.89489644968924" lon="14.278132484742143"><ele>634.8</ele><time>2026-05-01T16:41:02Z</time></trkpt><trkpt lat="45.894848374139066" lon="14.27827233565121"><ele>632.4</ele><time>2026-05-01T16:41:03Z</time></trkpt><trkpt lat="45.894781921318774" lon="14.278380868067462"><ele>630.0</ele><time>2026-05-01T16:41:04Z</time></trkpt><trkpt lat="45.894746711752646" lon="14.278478182396828"><ele>630.0</ele><time>2026-05-01T16:41:05Z</time></trkpt><trkpt lat="45.89470048061242" lon="14.278614404097137"><ele>630.0</ele><time>2026-05-01T16:41:06Z</time></trkpt><trkpt lat="45.89467398787815" lon="14.278763397186466"><ele>630.0</ele><time>2026-05-01T16:41:07Z</time></trkpt><trkpt lat="45.89464340643799" lon="14.278913773545275"><ele>630.0</ele><time>2026-05-01T16:41:08Z</time></trkpt><trkpt lat="45.894610295461526" lon="14.279063513067332"><ele>630.0</ele><time>2026-05-01T16:41:09Z</time></trkpt><trkpt lat="45.894565795863386" lon="14.27920758786188"><ele>632.2</ele><time>2026-05-01T16:41:10Z</time></trkpt><trkpt lat="45.89451000052521" lon="14.279341630776207"><ele>634.4</ele><time>2026-05-01T16:41:11Z</time></trkpt><trkpt lat="45.8944397427554" lon="14.279462851004117"><ele>636.5999999999999</ele><time>2026-05-01T16:41:12Z</time></trkpt><trkpt lat="45.89437493642244" lon="14.27956598383585"><ele>638.8</ele><time>2026-05-01T16:41:13Z</time></trkpt><trkpt lat="45.89431830109254" lon="14.279688023578457"><ele>641.0</ele><time>2026-05-01T16:41:14Z</time></trkpt><trkpt lat="45.8942775352574" lon="14.279811493260535"><ele>638.0</ele><time>2026-05-01T16:41:15Z</time></trkpt><trkpt lat="45.89424373476745" lon="14.27994759014731"><ele>635.0</ele><time>2026-05-01T16:41:16Z</time></trkpt><trkpt lat="45.89420024730383" lon="14.28008517293117"><ele>632.0</ele><time>2026-05-01T16:41:17Z</time></trkpt><trkpt lat="45.894162586391126" lon="14.280233097998591"><ele>629.0</ele><time>2026-05-01T16:41:18Z</time></trkpt><trkpt lat="45.89410668042408" lon="14.280368799044407"><ele>626.0</ele><time>2026-05-01T16:41:19Z</time></trkpt><trkpt lat="45.894069835513164" lon="14.280498085371075"><ele>628.2</ele><time>2026-05-01T16:41:20Z</time></trkpt><trkpt lat="45.89403447642594" lon="14.280622157891484"><ele>630.4000000000001</ele><time>2026-05-01T16:41:21Z</time></trkpt><trkpt lat="45.89399718453039" lon="14.280753012461242"><ele>632.6</ele><time>2026-05-01T16:41:22Z</time></trkpt><trkpt lat="45.893967228966105" lon="14.280888630525089"><ele>634.8000000000001</ele><time>2026-05-01T16:41:23Z</time></trkpt><trkpt lat="45.893925599225184" lon="14.28102160735777"><ele>637.0</ele><time>2026-05-01T16:41:24Z</time></trkpt><trkpt lat="45.89388283327124" lon="14.281161096312902"><ele>637.0</ele><time>2026-05-01T16:41:25Z</time></trkpt><trkpt lat="45.89383916762824" lon="14.281315364257447"><ele>637.0</ele><time>2026-05-01T16:41:26Z</time></trkpt><trkpt lat="45.89379487940092" lon="14.281465233605015"><ele>637.0</ele><time>2026-05-01T16:41:27Z</time></trkpt><trkpt lat="45.89375378742293" lon="14.281621102423028"><ele>637.0</ele><time>2026-05-01T16:41:28Z</time></trkpt><trkpt lat="45.89371780772869" lon="14.2817837347582"><ele>638.0</ele><time>2026-05-01T16:41:29Z</time></trkpt><trkpt lat="45.893686981343414" lon="14.281941049652993"><ele>639.0</ele><time>2026-05-01T16:41:30Z</time></trkpt><trkpt lat="45.89364329942098" lon="14.282085022845097"><ele>640.0</ele><time>2026-05-01T16:41:31Z</time></trkpt><trkpt lat="45.89364658388823" lon="14.28223117875815"><ele>641.0</ele><time>2026-05-01T16:41:32Z</time></trkpt><trkpt lat="45.89364724195804" lon="14.282376336004928"><ele>642.0</ele><time>2026-05-01T16:41:33Z</time></trkpt><trkpt lat="45.89365227551287" lon="14.282527368454542"><ele>642.6</ele><time>2026-05-01T16:41:34Z</time></trkpt><trkpt lat="45.89365193169904" lon="14.282678940714923"><ele>643.2</ele><time>2026-05-01T16:41:35Z</time></trkpt><trkpt lat="45.89360825755285" lon="14.28281891701415"><ele>643.8</ele><time>2026-05-01T16:41:36Z</time></trkpt><trkpt lat="45.89356426048808" lon="14.282941892668397"><ele>644.4</ele><time>2026-05-01T16:41:37Z</time></trkpt><trkpt lat="45.89352572030912" lon="14.283094014352523"><ele>645.0</ele><time>2026-05-01T16:41:38Z</time></trkpt><trkpt lat="45.89346442744221" lon="14.283227138903078"><ele>640.75</ele><time>2026-05-01T16:41:39Z</time></trkpt><trkpt lat="45.89341764560986" lon="14.28337713935715"><ele>636.5</ele><time>2026-05-01T16:41:40Z</time></trkpt><trkpt lat="45.89334465589841" lon="14.283521618580721"><ele>632.25</ele><time>2026-05-01T16:41:41Z</time></trkpt><trkpt lat="45.893285429366955" lon="14.283682698048477"><ele>628.0</ele><time>2026-05-01T16:41:42Z</time></trkpt><trkpt lat="45.89322565777781" lon="14.283852573779093"><ele>629.4</ele><time>2026-05-01T16:41:43Z</time></trkpt><trkpt lat="45.89318653765882" lon="14.28402386873233"><ele>630.8</ele><time>2026-05-01T16:41:44Z</time></trkpt><trkpt lat="45.893132725794004" lon="14.284164051742069"><ele>632.2</ele><time>2026-05-01T16:41:45Z</time></trkpt><trkpt lat="45.89308823270954" lon="14.284293893035828"><ele>633.6</ele><time>2026-05-01T16:41:46Z</time></trkpt><trkpt lat="45.893042173471684" lon="14.284432627824096"><ele>635.0</ele><time>2026-05-01T16:41:47Z</time></trkpt><trkpt lat="45.89301709358099" lon="14.284590082706666"><ele>635.0</ele><time>2026-05-01T16:41:48Z</time></trkpt><trkpt lat="45.89300350667475" lon="14.284753155082484"><ele>635.0</ele><time>2026-05-01T16:41:49Z</time></trkpt><trkpt lat="45.89299565161465" lon="14.284911705244477"><ele>635.0</ele><time>2026-05-01T16:41:50Z</time></trkpt><trkpt lat="45.89297764638089" lon="14.285067852020296"><ele>635.0</ele><time>2026-05-01T16:41:51Z</time></trkpt><trkpt lat="45.89296698065721" lon="14.285237840171607"><ele>636.0</ele><time>2026-05-01T16:41:52Z</time></trkpt><trkpt lat="45.892935273096946" lon="14.28537858851522"><ele>637.0</ele><time>2026-05-01T16:41:53Z</time></trkpt><trkpt lat="45.89290918204445" lon="14.285522122066904"><ele>638.0</ele><time>2026-05-01T16:41:54Z</time></trkpt><trkpt lat="45.892880765962246" lon="14.285663683326954"><ele>639.0</ele><time>2026-05-01T16:41:55Z</time></trkpt><trkpt lat="45.89285112229512" lon="14.28578145843845"><ele>640.0</ele><time>2026-05-01T16:41:56Z</time></trkpt><trkpt lat="45.892809383099824" lon="14.285895392196293"><ele>640.8333333333334</ele><time>2026-05-01T16:41:57Z</time></trkpt><trkpt lat="45.89275329571671" lon="14.285973961164997"><ele>641.6666666666667</ele><time>2026-05-01T16:41:58Z</time></trkpt><trkpt lat="45.89270297137926" lon="14.28605382018536"><ele>642.5</ele><time>2026-05-01T16:41:59Z</time></trkpt><trkpt lat="45.89264823781506" lon="14.286130296897783"><ele>643.3333333333334</ele><time>2026-05-01T16:42:00Z</time></trkpt><trkpt lat="45.892619434853984" lon="14.286232928493327"><ele>644.1666666666666</ele><time>2026-05-01T16:42:01Z</time></trkpt><trkpt lat="45.89260508043711" lon="14.286339737007557"><ele>645.0</ele><time>2026-05-01T16:42:02Z</time></trkpt><trkpt lat="45.892589557350526" lon="14.28646844739105"><ele>645.2</ele><time>2026-05-01T16:42:03Z</time></trkpt><trkpt lat="45.89259624985065" lon="14.286620292505148"><ele>645.4</ele><time>2026-05-01T16:42:04Z</time></trkpt><trkpt lat="45.89261309571489" lon="14.286774245387658"><ele>645.5999999999999</ele><time>2026-05-01T16:42:05Z</time></trkpt><trkpt lat="45.89264665479037" lon="14.286938580365753"><ele>645.8</ele><time>2026-05-01T16:42:06Z</time></trkpt><trkpt lat="45.89268963550209" lon="14.28708812384192"><ele>646.0</ele><time>2026-05-01T16:42:07Z</time></trkpt><trkpt lat="45.89274446639988" lon="14.287223617755753"><ele>645.1999999999999</ele><time>2026-05-01T16:42:08Z</time></trkpt><trkpt lat="45.89278899653766" lon="14.287367688834482"><ele>644.4</ele><time>2026-05-01T16:42:09Z</time></trkpt><trkpt lat="45.89283626514712" lon="14.287509686411964"><ele>643.6</ele><time>2026-05-01T16:42:10Z</time></trkpt><trkpt lat="45.89288464417594" lon="14.287634583483687"><ele>642.8</ele><time>2026-05-01T16:42:11Z</time></trkpt><trkpt lat="45.89292656018779" lon="14.287760404191971"><ele>642.0</ele><time>2026-05-01T16:42:12Z</time></trkpt><trkpt lat="45.89298208492994" lon="14.287876715508405"><ele>642.0</ele><time>2026-05-01T16:42:13Z</time></trkpt><trkpt lat="45.89304369430079" lon="14.287984186626147"><ele>642.0</ele><time>2026-05-01T16:42:14Z</time></trkpt><trkpt lat="45.89309312266076" lon="14.28810350587198"><ele>642.0</ele><time>2026-05-01T16:42:15Z</time></trkpt><trkpt lat="45.89314739491757" lon="14.288222345458795"><ele>642.0</ele><time>2026-05-01T16:42:16Z</time></trkpt><trkpt lat="45.893199026144465" lon="14.288349032440044"><ele>642.0</ele><time>2026-05-01T16:42:17Z</time></trkpt><trkpt lat="45.89324478950747" lon="14.288447574217626"><ele>640.6666666666666</ele><time>2026-05-01T16:42:18Z</time></trkpt><trkpt lat="45.89329252186558" lon="14.28853435049993"><ele>639.3333333333334</ele><time>2026-05-01T16:42:19Z</time></trkpt><trkpt lat="45.89334903062216" lon="14.288604572965465"><ele>638.0</ele><time>2026-05-01T16:42:20Z</time></trkpt><trkpt lat="45.893426334288" lon="14.288660533631791"><ele>636.6666666666667</ele><time>2026-05-01T16:42:21Z</time></trkpt><trkpt lat="45.893508058905866" lon="14.288682486145659"><ele>635.3333333333334</ele><time>2026-05-01T16:42:22Z</time></trkpt><trkpt lat="45.89360175800537" lon="14.28867432405858"><ele>634.0</ele><time>2026-05-01T16:42:23Z</time></trkpt><trkpt lat="45.89368821756898" lon="14.288653769415262"><ele>634.0</ele><time>2026-05-01T16:42:24Z</time></trkpt><trkpt lat="45.89377905361797" lon="14.288600002709986"><ele>634.0</ele><time>2026-05-01T16:42:25Z</time></trkpt><trkpt lat="45.89385470181194" lon="14.288542279178314"><ele>634.0</ele><time>2026-05-01T16:42:26Z</time></trkpt><trkpt lat="45.8939160832926" lon="14.288493928834756"><ele>634.0</ele><time>2026-05-01T16:42:27Z</time></trkpt><trkpt lat="45.89397295375312" lon="14.288447173161831"><ele>634.0</ele><time>2026-05-01T16:42:28Z</time></trkpt><trkpt lat="45.894077392787445" lon="14.288418990440627"><ele>634.0</ele><time>2026-05-01T16:42:30Z</time></trkpt><trkpt lat="45.894171229292446" lon="14.288463620697986"><ele>634.0</ele><time>2026-05-01T16:42:32Z</time></trkpt><trkpt lat="45.894209005872675" lon="14.288571325047636"><ele>634.0</ele><time>2026-05-01T16:42:33Z</time></trkpt><trkpt lat="45.89425187962241" lon="14.288708302129809"><ele>634.0</ele><time>2026-05-01T16:42:34Z</time></trkpt><trkpt lat="45.89431010963706" lon="14.288830076180703"><ele>634.0</ele><time>2026-05-01T16:42:35Z</time></trkpt><trkpt lat="45.894347021998875" lon="14.28897435121057"><ele>634.0</ele><time>2026-05-01T16:42:36Z</time></trkpt><trkpt lat="45.89440105674829" lon="14.289128031925694"><ele>634.25</ele><time>2026-05-01T16:42:37Z</time></trkpt><trkpt lat="45.89445451193099" lon="14.289283414383293"><ele>634.5</ele><time>2026-05-01T16:42:38Z</time></trkpt><trkpt lat="45.89452462063747" lon="14.289433484098282"><ele>634.75</ele><time>2026-05-01T16:42:39Z</time></trkpt><trkpt lat="45.894574753925106" lon="14.289600154167546"><ele>635.0</ele><time>2026-05-01T16:42:40Z</time></trkpt><trkpt lat="45.89463380663507" lon="14.289761019342865"><ele>634.5</ele><time>2026-05-01T16:42:41Z</time></trkpt><trkpt lat="45.894667515441945" lon="14.289920326264777"><ele>634.0</ele><time>2026-05-01T16:42:42Z</time></trkpt><trkpt lat="45.89470729895031" lon="14.290073855577658"><ele>633.5</ele><time>2026-05-01T16:42:43Z</time></trkpt><trkpt lat="45.8947424171167" lon="14.290230807907388"><ele>633.0</ele><time>2026-05-01T16:42:44Z</time></trkpt><trkpt lat="45.894766018297055" lon="14.29038230788025"><ele>633.0</ele><time>2026-05-01T16:42:45Z</time></trkpt><trkpt lat="45.89477263245688" lon="14.29052808221702"><ele>633.0</ele><time>2026-05-01T16:42:46Z</time></trkpt><trkpt lat="45.89475957318272" lon="14.290665452821164"><ele>633.0</ele><time>2026-05-01T16:42:47Z</time></trkpt><trkpt lat="45.89474010363537" lon="14.290816435783245"><ele>633.0</ele><time>2026-05-01T16:42:48Z</time></trkpt><trkpt lat="45.89473187036828" lon="14.290953327134547"><ele>633.0</ele><time>2026-05-01T16:42:49Z</time></trkpt><trkpt lat="45.89470151995654" lon="14.291043744360836"><ele>633.0</ele><time>2026-05-01T16:42:50Z</time></trkpt><trkpt lat="45.89468999460593" lon="14.291162643838708"><ele>633.0</ele><time>2026-05-01T16:42:52Z</time></trkpt><trkpt lat="45.89453747905103" lon="14.291174126304554"><ele>633.0</ele><time>2026-05-01T16:42:53Z</time></trkpt><trkpt lat="45.89441937360591" lon="14.291211893097628"><ele>633.0</ele><time>2026-05-01T16:42:54Z</time></trkpt><trkpt lat="45.89431986720452" lon="14.291267247748506"><ele>632.5</ele><time>2026-05-01T16:42:55Z</time></trkpt><trkpt lat="45.89420935383987" lon="14.291270769160992"><ele>632.0</ele><time>2026-05-01T16:42:56Z</time></trkpt><trkpt lat="45.894113258480665" lon="14.291277209095648"><ele>631.5</ele><time>2026-05-01T16:42:57Z</time></trkpt><trkpt lat="45.89403758173973" lon="14.291327206643826"><ele>631.0</ele><time>2026-05-01T16:42:58Z</time></trkpt><trkpt lat="45.893968168062884" lon="14.291370375232852"><ele>630.5</ele><time>2026-05-01T16:42:59Z</time></trkpt><trkpt lat="45.89391618186395" lon="14.2914318167464"><ele>630.0</ele><time>2026-05-01T16:43:00Z</time></trkpt><trkpt lat="45.89385823760978" lon="14.291519690396827"><ele>630.0</ele><time>2026-05-01T16:43:01Z</time></trkpt><trkpt lat="45.89378230786063" lon="14.291623873045623"><ele>630.0</ele><time>2026-05-01T16:43:02Z</time></trkpt><trkpt lat="45.89373154832884" lon="14.291749535211489"><ele>630.0</ele><time>2026-05-01T16:43:03Z</time></trkpt><trkpt lat="45.893655714443476" lon="14.291843547743039"><ele>630.0</ele><time>2026-05-01T16:43:04Z</time></trkpt><trkpt lat="45.89359096197965" lon="14.29195621387612"><ele>630.0</ele><time>2026-05-01T16:43:05Z</time></trkpt><trkpt lat="45.89349497401203" lon="14.292005240260822"><ele>628.0</ele><time>2026-05-01T16:43:06Z</time></trkpt><trkpt lat="45.89340404262411" lon="14.292026961692939"><ele>626.0</ele><time>2026-05-01T16:43:07Z</time></trkpt><trkpt lat="45.8933178507222" lon="14.292047846729062"><ele>624.0</ele><time>2026-05-01T16:43:08Z</time></trkpt><trkpt lat="45.893230486792746" lon="14.292067874143068"><ele>622.0</ele><time>2026-05-01T16:43:09Z</time></trkpt><trkpt lat="45.893148291983884" lon="14.29207666660849"><ele>620.0</ele><time>2026-05-01T16:43:10Z</time></trkpt><trkpt lat="45.893065248726025" lon="14.292062729917909"><ele>618.0</ele><time>2026-05-01T16:43:11Z</time></trkpt><trkpt lat="45.89295876947335" lon="14.292022547209319"><ele>618.0</ele><time>2026-05-01T16:43:12Z</time></trkpt><trkpt lat="45.892873781636105" lon="14.291951776880223"><ele>618.0</ele><time>2026-05-01T16:43:13Z</time></trkpt><trkpt lat="45.89280127021941" lon="14.29187622916232"><ele>618.0</ele><time>2026-05-01T16:43:14Z</time></trkpt><trkpt lat="45.89279963503759" lon="14.29175267330177"><ele>618.0</ele><time>2026-05-01T16:43:15Z</time></trkpt><trkpt lat="45.89276688022957" lon="14.291628913470104"><ele>618.0</ele><time>2026-05-01T16:43:16Z</time></trkpt><trkpt lat="45.89270575602184" lon="14.291478918351885"><ele>617.4</ele><time>2026-05-01T16:43:17Z</time></trkpt><trkpt lat="45.89264718748803" lon="14.291354515245054"><ele>616.8</ele><time>2026-05-01T16:43:18Z</time></trkpt><trkpt lat="45.89257663197284" lon="14.291261486312418"><ele>616.2</ele><time>2026-05-01T16:43:19Z</time></trkpt><trkpt lat="45.892512485683156" lon="14.291157575382043"><ele>615.6</ele><time>2026-05-01T16:43:20Z</time></trkpt><trkpt lat="45.89243241314899" lon="14.291060070038657"><ele>615.0</ele><time>2026-05-01T16:43:21Z</time></trkpt><trkpt lat="45.892352549795774" lon="14.290960405711246"><ele>613.6</ele><time>2026-05-01T16:43:22Z</time></trkpt><trkpt lat="45.89229466032271" lon="14.290816244577872"><ele>612.2</ele><time>2026-05-01T16:43:23Z</time></trkpt><trkpt lat="45.892216446140516" lon="14.290698882487202"><ele>610.8</ele><time>2026-05-01T16:43:24Z</time></trkpt><trkpt lat="45.89216886776217" lon="14.290569587942812"><ele>609.4</ele><time>2026-05-01T16:43:25Z</time></trkpt><trkpt lat="45.892117598282674" lon="14.29046370652653"><ele>608.0</ele><time>2026-05-01T16:43:26Z</time></trkpt><trkpt lat="45.89207395964277" lon="14.290346061267973"><ele>608.0</ele><time>2026-05-01T16:43:27Z</time></trkpt><trkpt lat="45.89200427329537" lon="14.290258295475255"><ele>608.0</ele><time>2026-05-01T16:43:28Z</time></trkpt><trkpt lat="45.891915143698036" lon="14.290249819816566"><ele>608.0</ele><time>2026-05-01T16:43:29Z</time></trkpt><trkpt lat="45.89184019508824" lon="14.290228934232006"><ele>608.0</ele><time>2026-05-01T16:43:30Z</time></trkpt><trkpt lat="45.891760276741024" lon="14.290193512030582"><ele>608.0</ele><time>2026-05-01T16:43:31Z</time></trkpt><trkpt lat="45.89167071161189" lon="14.290178866630951"><ele>608.0</ele><time>2026-05-01T16:43:32Z</time></trkpt><trkpt lat="45.89158374522602" lon="14.290186368412952"><ele>604.4</ele><time>2026-05-01T16:43:33Z</time></trkpt><trkpt lat="45.891523405364985" lon="14.290217842280786"><ele>600.8</ele><time>2026-05-01T16:43:34Z</time></trkpt><trkpt lat="45.89142111802806" lon="14.2903021320956"><ele>597.2</ele><time>2026-05-01T16:43:36Z</time></trkpt><trkpt lat="45.891358341384425" lon="14.29046385824315"><ele>593.6</ele><time>2026-05-01T16:43:38Z</time></trkpt><trkpt lat="45.89132323964978" lon="14.290566612585268"><ele>590.0</ele><time>2026-05-01T16:43:39Z</time></trkpt><trkpt lat="45.89127470339435" lon="14.290696215699535"><ele>589.6666666666666</ele><time>2026-05-01T16:43:40Z</time></trkpt><trkpt lat="45.891232481381834" lon="14.290828447670826"><ele>589.3333333333333</ele><time>2026-05-01T16:43:41Z</time></trkpt><trkpt lat="45.891188348102055" lon="14.290934102785242"><ele>589.0</ele><time>2026-05-01T16:43:42Z</time></trkpt><trkpt lat="45.89114723684926" lon="14.291027656729748"><ele>588.6666666666666</ele><time>2026-05-01T16:43:43Z</time></trkpt><trkpt lat="45.891102488336344" lon="14.291116009976268"><ele>588.3333333333334</ele><time>2026-05-01T16:43:44Z</time></trkpt><trkpt lat="45.89104927196976" lon="14.291209653459667"><ele>588.0</ele><time>2026-05-01T16:43:45Z</time></trkpt><trkpt lat="45.890963056177306" lon="14.291298063285813"><ele>586.4</ele><time>2026-05-01T16:43:46Z</time></trkpt><trkpt lat="45.890883535638054" lon="14.291349754003997"><ele>584.8</ele><time>2026-05-01T16:43:47Z</time></trkpt><trkpt lat="45.890793135830506" lon="14.291349716088417"><ele>583.2</ele><time>2026-05-01T16:43:48Z</time></trkpt><trkpt lat="45.89069855330766" lon="14.291280577435941"><ele>581.6</ele><time>2026-05-01T16:43:49Z</time></trkpt><trkpt lat="45.890619657827294" lon="14.29124814731214"><ele>580.0</ele><time>2026-05-01T16:43:50Z</time></trkpt><trkpt lat="45.89052933978576" lon="14.29123429096756"><ele>580.0</ele><time>2026-05-01T16:43:51Z</time></trkpt><trkpt lat="45.89042845530865" lon="14.291181858350711"><ele>580.0</ele><time>2026-05-01T16:43:52Z</time></trkpt><trkpt lat="45.890320448433066" lon="14.291136206989638"><ele>580.0</ele><time>2026-05-01T16:43:53Z</time></trkpt><trkpt lat="45.89021789578858" lon="14.291059982500055"><ele>580.0</ele><time>2026-05-01T16:43:54Z</time></trkpt><trkpt lat="45.89011766949419" lon="14.29100904780874"><ele>580.0</ele><time>2026-05-01T16:43:55Z</time></trkpt><trkpt lat="45.89001999478298" lon="14.290977241197922"><ele>578.6</ele><time>2026-05-01T16:43:56Z</time></trkpt><trkpt lat="45.88993534126783" lon="14.29092558488486"><ele>577.2</ele><time>2026-05-01T16:43:57Z</time></trkpt><trkpt lat="45.88984336204779" lon="14.290912652477944"><ele>575.8</ele><time>2026-05-01T16:43:58Z</time></trkpt><trkpt lat="45.88975307786785" lon="14.290863905433362"><ele>574.4</ele><time>2026-05-01T16:43:59Z</time></trkpt><trkpt lat="45.889660745358306" lon="14.290830824020528"><ele>573.0</ele><time>2026-05-01T16:44:00Z</time></trkpt><trkpt lat="45.88956782294029" lon="14.290799861313559"><ele>573.0</ele><time>2026-05-01T16:44:01Z</time></trkpt><trkpt lat="45.88948910018895" lon="14.29075772477709"><ele>573.0</ele><time>2026-05-01T16:44:02Z</time></trkpt><trkpt lat="45.88942041636869" lon="14.29072277291422"><ele>573.0</ele><time>2026-05-01T16:44:03Z</time></trkpt><trkpt lat="45.889350944836075" lon="14.290658975113578"><ele>573.0</ele><time>2026-05-01T16:44:04Z</time></trkpt><trkpt lat="45.88929333445848" lon="14.29055817814269"><ele>573.0</ele><time>2026-05-01T16:44:05Z</time></trkpt><trkpt lat="45.88922139602601" lon="14.290456082058506"><ele>573.0</ele><time>2026-05-01T16:44:06Z</time></trkpt><trkpt lat="45.88912434882231" lon="14.290342198726806"><ele>571.4</ele><time>2026-05-01T16:44:07Z</time></trkpt><trkpt lat="45.889024915361624" lon="14.290268387118225"><ele>569.8</ele><time>2026-05-01T16:44:08Z</time></trkpt><trkpt lat="45.88893115391345" lon="14.29020936562948"><ele>568.2</ele><time>2026-05-01T16:44:09Z</time></trkpt><trkpt lat="45.888849869215534" lon="14.29014677223652"><ele>566.6</ele><time>2026-05-01T16:44:10Z</time></trkpt><trkpt lat="45.88876491854217" lon="14.29007034580643"><ele>565.0</ele><time>2026-05-01T16:44:11Z</time></trkpt><trkpt lat="45.88866780340761" lon="14.289994406080773"><ele>565.0</ele><time>2026-05-01T16:44:12Z</time></trkpt><trkpt lat="45.888577854601955" lon="14.289930308397087"><ele>565.0</ele><time>2026-05-01T16:44:13Z</time></trkpt><trkpt lat="45.88852515037301" lon="14.289802540368328"><ele>565.0</ele><time>2026-05-01T16:44:14Z</time></trkpt><trkpt lat="45.888458131580265" lon="14.289691612868102"><ele>565.0</ele><time>2026-05-01T16:44:15Z</time></trkpt><trkpt lat="45.88839412508996" lon="14.289582137049749"><ele>565.0</ele><time>2026-05-01T16:44:16Z</time></trkpt><trkpt lat="45.88834619497646" lon="14.289484232042431"><ele>564.4</ele><time>2026-05-01T16:44:17Z</time></trkpt><trkpt lat="45.88831079600064" lon="14.289389146962623"><ele>563.8</ele><time>2026-05-01T16:44:18Z</time></trkpt><trkpt lat="45.88829648416891" lon="14.289280953373293"><ele>563.2</ele><time>2026-05-01T16:44:19Z</time></trkpt><trkpt lat="45.88833716384338" lon="14.289169399494103"><ele>562.6</ele><time>2026-05-01T16:44:20Z</time></trkpt><trkpt lat="45.8884192679747" lon="14.28905609421027"><ele>562.0</ele><time>2026-05-01T16:44:21Z</time></trkpt><trkpt lat="45.88845824503519" lon="14.288926518173009"><ele>560.8000000000001</ele><time>2026-05-01T16:44:22Z</time></trkpt><trkpt lat="45.888485218865675" lon="14.288824765252832"><ele>559.6</ele><time>2026-05-01T16:44:23Z</time></trkpt><trkpt lat="45.88850049614273" lon="14.288698355461628"><ele>558.4000000000001</ele><time>2026-05-01T16:44:24Z</time></trkpt><trkpt lat="45.88850547875381" lon="14.288545637399176"><ele>557.2</ele><time>2026-05-01T16:44:25Z</time></trkpt><trkpt lat="45.8884948336244" lon="14.288393178841174"><ele>556.0</ele><time>2026-05-01T16:44:26Z</time></trkpt><trkpt lat="45.88847562420125" lon="14.288266707781933"><ele>556.0</ele><time>2026-05-01T16:44:27Z</time></trkpt><trkpt lat="45.888439079080364" lon="14.288147658444666"><ele>556.0</ele><time>2026-05-01T16:44:28Z</time></trkpt><trkpt lat="45.88839875293662" lon="14.288042099195783"><ele>556.0</ele><time>2026-05-01T16:44:29Z</time></trkpt><trkpt lat="45.8883442640778" lon="14.287929553705185"><ele>556.0</ele><time>2026-05-01T16:44:30Z</time></trkpt><trkpt lat="45.88830899130838" lon="14.287814152632164"><ele>556.0</ele><time>2026-05-01T16:44:31Z</time></trkpt><trkpt lat="45.88827096254141" lon="14.287710644924559"><ele>556.0</ele><time>2026-05-01T16:44:32Z</time></trkpt><trkpt lat="45.8882476320487" lon="14.287608379822943"><ele>555.2</ele><time>2026-05-01T16:44:33Z</time></trkpt><trkpt lat="45.88823008108734" lon="14.287509040416435"><ele>554.4000000000001</ele><time>2026-05-01T16:44:34Z</time></trkpt><trkpt lat="45.88821746684648" lon="14.287407330422473"><ele>553.6</ele><time>2026-05-01T16:44:35Z</time></trkpt><trkpt lat="45.88820503392245" lon="14.287272811032407"><ele>552.8000000000001</ele><time>2026-05-01T16:44:37Z</time></trkpt><trkpt lat="45.888043748883916" lon="14.287276630978504"><ele>552.0</ele><time>2026-05-01T16:44:41Z</time></trkpt><trkpt lat="45.887944093863396" lon="14.287386366204792"><ele>552.0</ele><time>2026-05-01T16:44:43Z</time></trkpt><trkpt lat="45.88786461865208" lon="14.287443149407636"><ele>552.0</ele><time>2026-05-01T16:44:44Z</time></trkpt><trkpt lat="45.88775988908135" lon="14.28750026316258"><ele>552.0</ele><time>2026-05-01T16:44:45Z</time></trkpt><trkpt lat="45.887662158956594" lon="14.287565970454535"><ele>552.0</ele><time>2026-05-01T16:44:46Z</time></trkpt><trkpt lat="45.88758154568954" lon="14.28763548459943"><ele>552.0</ele><time>2026-05-01T16:44:47Z</time></trkpt><trkpt lat="45.887509038364165" lon="14.287725847164369"><ele>552.0</ele><time>2026-05-01T16:44:48Z</time></trkpt><trkpt lat="45.88743135521211" lon="14.28784419943927"><ele>552.0</ele><time>2026-05-01T16:44:49Z</time></trkpt><trkpt lat="45.88734875458799" lon="14.287990133517019"><ele>552.0</ele><time>2026-05-01T16:44:50Z</time></trkpt><trkpt lat="45.887283508045535" lon="14.28813233050398"><ele>552.0</ele><time>2026-05-01T16:44:51Z</time></trkpt><trkpt lat="45.88723607824194" lon="14.288255147942385"><ele>552.0</ele><time>2026-05-01T16:44:52Z</time></trkpt><trkpt lat="45.887176005309094" lon="14.288354354521728"><ele>552.0</ele><time>2026-05-01T16:44:53Z</time></trkpt><trkpt lat="45.88708503146124" lon="14.288411431345384"><ele>552.0</ele><time>2026-05-01T16:44:54Z</time></trkpt><trkpt lat="45.886977650382505" lon="14.288442701578656"><ele>552.0</ele><time>2026-05-01T16:44:55Z</time></trkpt><trkpt lat="45.886869723696826" lon="14.288505843508256"><ele>552.0</ele><time>2026-05-01T16:44:56Z</time></trkpt><trkpt lat="45.886774335566045" lon="14.2885827619807"><ele>551.5</ele><time>2026-05-01T16:44:57Z</time></trkpt><trkpt lat="45.88669286053358" lon="14.288692989232963"><ele>551.0</ele><time>2026-05-01T16:44:58Z</time></trkpt><trkpt lat="45.886618350131556" lon="14.28881559029462"><ele>550.5</ele><time>2026-05-01T16:44:59Z</time></trkpt><trkpt lat="45.886540942488985" lon="14.288942667652087"><ele>550.0</ele><time>2026-05-01T16:45:00Z</time></trkpt><trkpt lat="45.886467692187466" lon="14.28909655653089"><ele>550.0</ele><time>2026-05-01T16:45:01Z</time></trkpt><trkpt lat="45.88640680963475" lon="14.289240455605407"><ele>550.0</ele><time>2026-05-01T16:45:02Z</time></trkpt><trkpt lat="45.88635204800351" lon="14.289369751645099"><ele>550.0</ele><time>2026-05-01T16:45:03Z</time></trkpt><trkpt lat="45.88630476755311" lon="14.28952016834228"><ele>550.0</ele><time>2026-05-01T16:45:04Z</time></trkpt><trkpt lat="45.88627247886901" lon="14.289707700184808"><ele>551.0</ele><time>2026-05-01T16:45:05Z</time></trkpt><trkpt lat="45.88624068906985" lon="14.289888132968077"><ele>552.0</ele><time>2026-05-01T16:45:06Z</time></trkpt><trkpt lat="45.88619569729414" lon="14.290035262512182"><ele>553.0</ele><time>2026-05-01T16:45:07Z</time></trkpt><trkpt lat="45.88611892436719" lon="14.29017196902405"><ele>554.0</ele><time>2026-05-01T16:45:08Z</time></trkpt><trkpt lat="45.88606306874778" lon="14.290327693776137"><ele>554.0</ele><time>2026-05-01T16:45:09Z</time></trkpt><trkpt lat="45.88603133659261" lon="14.290490060611537"><ele>554.0</ele><time>2026-05-01T16:45:10Z</time></trkpt><trkpt lat="45.88603279253125" lon="14.290660670879936"><ele>554.0</ele><time>2026-05-01T16:45:11Z</time></trkpt><trkpt lat="45.88605467160456" lon="14.290841324231726"><ele>554.0</ele><time>2026-05-01T16:45:12Z</time></trkpt><trkpt lat="45.886076126196414" lon="14.29102501030979"><ele>554.6</ele><time>2026-05-01T16:45:13Z</time></trkpt><trkpt lat="45.88609600721797" lon="14.291181703663996"><ele>555.2</ele><time>2026-05-01T16:45:14Z</time></trkpt><trkpt lat="45.88612086930041" lon="14.29133280695984"><ele>555.8000000000001</ele><time>2026-05-01T16:45:15Z</time></trkpt><trkpt lat="45.88613918834066" lon="14.291486999194067"><ele>556.4</ele><time>2026-05-01T16:45:16Z</time></trkpt><trkpt lat="45.88614211563019" lon="14.291645123419482"><ele>557.0</ele><time>2026-05-01T16:45:17Z</time></trkpt><trkpt lat="45.88614061989986" lon="14.29180601987637"><ele>557.0</ele><time>2026-05-01T16:45:18Z</time></trkpt><trkpt lat="45.886132942013624" lon="14.291956189650996"><ele>557.0</ele><time>2026-05-01T16:45:19Z</time></trkpt><trkpt lat="45.88611671517075" lon="14.292105198801105"><ele>557.0</ele><time>2026-05-01T16:45:20Z</time></trkpt><trkpt lat="45.88608359068607" lon="14.29225820045997"><ele>557.0</ele><time>2026-05-01T16:45:21Z</time></trkpt><trkpt lat="45.886043522246744" lon="14.292416482434119"><ele>557.0</ele><time>2026-05-01T16:45:22Z</time></trkpt><trkpt lat="45.886007308046544" lon="14.29257402589614"><ele>556.2</ele><time>2026-05-01T16:45:23Z</time></trkpt><trkpt lat="45.88598433401606" lon="14.292724235933985"><ele>555.4000000000001</ele><time>2026-05-01T16:45:24Z</time></trkpt><trkpt lat="45.88595726520789" lon="14.292859955890869"><ele>554.5999999999999</ele><time>2026-05-01T16:45:25Z</time></trkpt><trkpt lat="45.885949560719276" lon="14.293010512560826"><ele>553.8</ele><time>2026-05-01T16:45:26Z</time></trkpt><trkpt lat="45.8859325625489" lon="14.293157234553238"><ele>553.0</ele><time>2026-05-01T16:45:27Z</time></trkpt><trkpt lat="45.88590027652058" lon="14.293288019257089"><ele>552.6666666666667</ele><time>2026-05-01T16:45:28Z</time></trkpt><trkpt lat="45.88588966756995" lon="14.293391573339433"><ele>552.3333333333334</ele><time>2026-05-01T16:45:29Z</time></trkpt><trkpt lat="45.8858666802231" lon="14.293484494455706"><ele>552.0</ele><time>2026-05-01T16:45:30Z</time></trkpt><trkpt lat="45.88581885269385" lon="14.293668423301526"><ele>551.6666666666666</ele><time>2026-05-01T16:45:32Z</time></trkpt><trkpt lat="45.88577842432179" lon="14.29376672244764"><ele>551.3333333333333</ele><time>2026-05-01T16:45:33Z</time></trkpt><trkpt lat="45.88573070486822" lon="14.293835176429752"><ele>551.0</ele><time>2026-05-01T16:45:34Z</time></trkpt><trkpt lat="45.88566845804908" lon="14.293895645368547"><ele>550.8</ele><time>2026-05-01T16:45:35Z</time></trkpt><trkpt lat="45.885590376290814" lon="14.293943714562875"><ele>550.6</ele><time>2026-05-01T16:45:36Z</time></trkpt><trkpt lat="45.885490022067955" lon="14.294015132206045"><ele>550.4</ele><time>2026-05-01T16:45:37Z</time></trkpt><trkpt lat="45.88537178276038" lon="14.294038643047712"><ele>550.2</ele><time>2026-05-01T16:45:38Z</time></trkpt><trkpt lat="45.885265497159196" lon="14.294090420984011"><ele>550.0</ele><time>2026-05-01T16:45:39Z</time></trkpt><trkpt lat="45.885171269802925" lon="14.294171439769233"><ele>549.5</ele><time>2026-05-01T16:45:40Z</time></trkpt><trkpt lat="45.88508667001932" lon="14.294234731295873"><ele>549.0</ele><time>2026-05-01T16:45:41Z</time></trkpt><trkpt lat="45.88501347946794" lon="14.294294879352842"><ele>548.5</ele><time>2026-05-01T16:45:42Z</time></trkpt><trkpt lat="45.88493325338853" lon="14.294352280742578"><ele>548.0</ele><time>2026-05-01T16:45:43Z</time></trkpt><trkpt lat="45.88487208132904" lon="14.294449331727629"><ele>547.5</ele><time>2026-05-01T16:45:44Z</time></trkpt><trkpt lat="45.88480859640608" lon="14.294524761412212"><ele>547.0</ele><time>2026-05-01T16:45:45Z</time></trkpt><trkpt lat="45.88475284613196" lon="14.29459717015324"><ele>546.6</ele><time>2026-05-01T16:45:46Z</time></trkpt><trkpt lat="45.884777517802654" lon="14.294790461551239"><ele>546.2</ele><time>2026-05-01T16:45:47Z</time></trkpt><trkpt lat="45.88477964393186" lon="14.294925150065664"><ele>545.8</ele><time>2026-05-01T16:45:48Z</time></trkpt><trkpt lat="45.88477353838422" lon="14.29507710151993"><ele>545.4</ele><time>2026-05-01T16:45:49Z</time></trkpt><trkpt lat="45.88473704115836" lon="14.295200250488556"><ele>545.0</ele><time>2026-05-01T16:45:50Z</time></trkpt><trkpt lat="45.88467413581573" lon="14.295292072646271"><ele>545.0</ele><time>2026-05-01T16:45:51Z</time></trkpt><trkpt lat="45.884582089549546" lon="14.295381907459742"><ele>545.0</ele><time>2026-05-01T16:45:52Z</time></trkpt><trkpt lat="45.88446993130163" lon="14.295476029381366"><ele>545.0</ele><time>2026-05-01T16:45:53Z</time></trkpt><trkpt lat="45.884354555734284" lon="14.295529950320491"><ele>545.0</ele><time>2026-05-01T16:45:54Z</time></trkpt><trkpt lat="45.88425668738952" lon="14.295590722044414"><ele>545.2</ele><time>2026-05-01T16:45:55Z</time></trkpt><trkpt lat="45.88415490232544" lon="14.295657779307748"><ele>545.4</ele><time>2026-05-01T16:45:56Z</time></trkpt><trkpt lat="45.88405875142958" lon="14.29573030403738"><ele>545.6</ele><time>2026-05-01T16:45:57Z</time></trkpt><trkpt lat="45.883966795820925" lon="14.295827592343748"><ele>545.8</ele><time>2026-05-01T16:45:58Z</time></trkpt><trkpt lat="45.88389598757597" lon="14.295918795019448"><ele>546.0</ele><time>2026-05-01T16:45:59Z</time></trkpt><trkpt lat="45.88381716763413" lon="14.295985318896454"><ele>546.0</ele><time>2026-05-01T16:46:00Z</time></trkpt><trkpt lat="45.88371390727905" lon="14.296047336018614"><ele>546.0</ele><time>2026-05-01T16:46:01Z</time></trkpt><trkpt lat="45.88364705801933" lon="14.296129352832098"><ele>546.0</ele><time>2026-05-01T16:46:02Z</time></trkpt><trkpt lat="45.88359700477615" lon="14.296253230941764"><ele>546.0</ele><time>2026-05-01T16:46:03Z</time></trkpt><trkpt lat="45.883604396188446" lon="14.296396394084084"><ele>546.0</ele><time>2026-05-01T16:46:04Z</time></trkpt><trkpt lat="45.883597917712414" lon="14.296501716782755"><ele>546.1666666666666</ele><time>2026-05-01T16:46:05Z</time></trkpt><trkpt lat="45.883611095575965" lon="14.296608095110487"><ele>546.3333333333334</ele><time>2026-05-01T16:46:06Z</time></trkpt><trkpt lat="45.88362184331062" lon="14.296714718965452"><ele>546.5</ele><time>2026-05-01T16:46:07Z</time></trkpt><trkpt lat="45.88360799480715" lon="14.29682880666994"><ele>546.6666666666667</ele><time>2026-05-01T16:46:08Z</time></trkpt><trkpt lat="45.88359807652494" lon="14.296956215822542"><ele>546.8333333333334</ele><time>2026-05-01T16:46:09Z</time></trkpt><trkpt lat="45.88359166103712" lon="14.297071154267053"><ele>547.0</ele><time>2026-05-01T16:46:10Z</time></trkpt><trkpt lat="45.88354419182898" lon="14.297162855276818"><ele>547.0</ele><time>2026-05-01T16:46:11Z</time></trkpt><trkpt lat="45.88347864483728" lon="14.29723407816993"><ele>547.0</ele><time>2026-05-01T16:46:12Z</time></trkpt><trkpt lat="45.88340779116341" lon="14.297256080609078"><ele>547.0</ele><time>2026-05-01T16:46:13Z</time></trkpt><trkpt lat="45.883344010931026" lon="14.297192337472906"><ele>547.0</ele><time>2026-05-01T16:46:14Z</time></trkpt><trkpt lat="45.883279260333296" lon="14.297163971185318"><ele>547.0</ele><time>2026-05-01T16:46:15Z</time></trkpt><trkpt lat="45.88318477724861" lon="14.297117956046893"><ele>547.0</ele><time>2026-05-01T16:46:16Z</time></trkpt><trkpt lat="45.883060103371044" lon="14.297034723066474"><ele>547.0</ele><time>2026-05-01T16:46:17Z</time></trkpt><trkpt lat="45.88292212822007" lon="14.296965664540075"><ele>547.0</ele><time>2026-05-01T16:46:18Z</time></trkpt><trkpt lat="45.88281838473765" lon="14.29690058097291"><ele>547.0</ele><time>2026-05-01T16:46:19Z</time></trkpt><trkpt lat="45.88272286667461" lon="14.296856367354492"><ele>547.0</ele><time>2026-05-01T16:46:20Z</time></trkpt><trkpt lat="45.882641350451024" lon="14.29681229136406"><ele>547.0</ele><time>2026-05-01T16:46:21Z</time></trkpt><trkpt lat="45.882567745011656" lon="14.296760161442299"><ele>547.6</ele><time>2026-05-01T16:46:22Z</time></trkpt><trkpt lat="45.88247576284357" lon="14.296727584295912"><ele>548.2</ele><time>2026-05-01T16:46:23Z</time></trkpt><trkpt lat="45.88238560764012" lon="14.296677229440084"><ele>548.8</ele><time>2026-05-01T16:46:24Z</time></trkpt><trkpt lat="45.882302107473976" lon="14.29660875983452"><ele>549.4</ele><time>2026-05-01T16:46:25Z</time></trkpt><trkpt lat="45.8822025802678" lon="14.29656253918559"><ele>550.0</ele><time>2026-05-01T16:46:26Z</time></trkpt><trkpt lat="45.882096183379126" lon="14.296516291206737"><ele>550.0</ele><time>2026-05-01T16:46:27Z</time></trkpt><trkpt lat="45.88199489414473" lon="14.296498329812133"><ele>550.0</ele><time>2026-05-01T16:46:28Z</time></trkpt><trkpt lat="45.881909543277175" lon="14.296470170613754"><ele>550.0</ele><time>2026-05-01T16:46:29Z</time></trkpt><trkpt lat="45.88183135627588" lon="14.296471715993665"><ele>550.0</ele><time>2026-05-01T16:46:30Z</time></trkpt><trkpt lat="45.881760364811285" lon="14.296485556249975"><ele>550.0</ele><time>2026-05-01T16:46:31Z</time></trkpt><trkpt lat="45.88167610763001" lon="14.296533547823952"><ele>550.0</ele><time>2026-05-01T16:46:32Z</time></trkpt><trkpt lat="45.88159264781986" lon="14.296658234919088"><ele>550.6</ele><time>2026-05-01T16:46:33Z</time></trkpt><trkpt lat="45.881509628140854" lon="14.296773443836335"><ele>551.2</ele><time>2026-05-01T16:46:34Z</time></trkpt><trkpt lat="45.8814213385246" lon="14.296846936738843"><ele>551.8</ele><time>2026-05-01T16:46:35Z</time></trkpt><trkpt lat="45.88132586209077" lon="14.2968726624194"><ele>552.4</ele><time>2026-05-01T16:46:36Z</time></trkpt><trkpt lat="45.881222775535655" lon="14.296897417648594"><ele>553.0</ele><time>2026-05-01T16:46:37Z</time></trkpt><trkpt lat="45.881096512363584" lon="14.296929045470606"><ele>553.0</ele><time>2026-05-01T16:46:38Z</time></trkpt><trkpt lat="45.88098726857892" lon="14.296952232746657"><ele>553.0</ele><time>2026-05-01T16:46:39Z</time></trkpt><trkpt lat="45.88088570024805" lon="14.296966106371892"><ele>553.0</ele><time>2026-05-01T16:46:40Z</time></trkpt><trkpt lat="45.88076275020858" lon="14.29698265731713"><ele>553.0</ele><time>2026-05-01T16:46:41Z</time></trkpt><trkpt lat="45.8806526652611" lon="14.297003616991843"><ele>553.0</ele><time>2026-05-01T16:46:42Z</time></trkpt><trkpt lat="45.880566501257476" lon="14.297043068565914"><ele>553.0</ele><time>2026-05-01T16:46:43Z</time></trkpt><trkpt lat="45.88047848138286" lon="14.297062043602661"><ele>553.0</ele><time>2026-05-01T16:46:44Z</time></trkpt><trkpt lat="45.88039480164307" lon="14.297106523442782"><ele>553.0</ele><time>2026-05-01T16:46:45Z</time></trkpt><trkpt lat="45.880317169277504" lon="14.297177354904667"><ele>553.0</ele><time>2026-05-01T16:46:46Z</time></trkpt><trkpt lat="45.88022337533649" lon="14.297225276535622"><ele>553.0</ele><time>2026-05-01T16:46:47Z</time></trkpt><trkpt lat="45.88014119865095" lon="14.297317324835035"><ele>552.4</ele><time>2026-05-01T16:46:48Z</time></trkpt><trkpt lat="45.88006598622661" lon="14.297395835032873"><ele>551.8</ele><time>2026-05-01T16:46:49Z</time></trkpt><trkpt lat="45.87999789167354" lon="14.297459509076893"><ele>551.2</ele><time>2026-05-01T16:46:50Z</time></trkpt><trkpt lat="45.87994348494429" lon="14.297510173942602"><ele>550.6</ele><time>2026-05-01T16:46:51Z</time></trkpt><trkpt lat="45.87986178782916" lon="14.297559056719928"><ele>550.0</ele><time>2026-05-01T16:46:53Z</time></trkpt><trkpt lat="45.87990586068929" lon="14.297764054996783"><ele>550.0</ele><time>2026-05-01T16:46:55Z</time></trkpt><trkpt lat="45.87994250672104" lon="14.29786918189989"><ele>550.0</ele><time>2026-05-01T16:46:56Z</time></trkpt><trkpt lat="45.879997065959124" lon="14.29802155435481"><ele>550.0</ele><time>2026-05-01T16:46:57Z</time></trkpt><trkpt lat="45.880020021227736" lon="14.298166326159757"><ele>550.0</ele><time>2026-05-01T16:46:58Z</time></trkpt><trkpt lat="45.87997379964909" lon="14.2982786145638"><ele>550.0</ele><time>2026-05-01T16:46:59Z</time></trkpt><trkpt lat="45.879923748565645" lon="14.29836584547047"><ele>550.0</ele><time>2026-05-01T16:47:00Z</time></trkpt><trkpt lat="45.87990226636989" lon="14.298480087804991"><ele>550.0</ele><time>2026-05-01T16:47:01Z</time></trkpt><trkpt lat="45.8798663638152" lon="14.29858237940741"><ele>550.0</ele><time>2026-05-01T16:47:02Z</time></trkpt><trkpt lat="45.87986888642785" lon="14.29868198198328"><ele>550.0</ele><time>2026-05-01T16:47:03Z</time></trkpt><trkpt lat="45.87990532989777" lon="14.298774623363792"><ele>550.0</ele><time>2026-05-01T16:47:04Z</time></trkpt><trkpt lat="45.87991581844122" lon="14.298890293937456"><ele>550.0</ele><time>2026-05-01T16:47:05Z</time></trkpt><trkpt lat="45.87994047208314" lon="14.2990058085962"><ele>549.6666666666667</ele><time>2026-05-01T16:47:06Z</time></trkpt><trkpt lat="45.879953209200075" lon="14.299115292061542"><ele>549.3333333333334</ele><time>2026-05-01T16:47:07Z</time></trkpt><trkpt lat="45.87993432277501" lon="14.299212252066948"><ele>549.0</ele><time>2026-05-01T16:47:08Z</time></trkpt><trkpt lat="45.87991515065092" lon="14.299305240847296"><ele>548.6666666666666</ele><time>2026-05-01T16:47:09Z</time></trkpt><trkpt lat="45.879891263225744" lon="14.299414241324117"><ele>548.3333333333333</ele><time>2026-05-01T16:47:10Z</time></trkpt><trkpt lat="45.87986736637418" lon="14.299546181469351"><ele>548.0</ele><time>2026-05-01T16:47:11Z</time></trkpt><trkpt lat="45.87982702757362" lon="14.29967044337657"><ele>548.5</ele><time>2026-05-01T16:47:12Z</time></trkpt><trkpt lat="45.879788704075935" lon="14.299781047302213"><ele>549.0</ele><time>2026-05-01T16:47:13Z</time></trkpt><trkpt lat="45.87971112531108" lon="14.299839175563779"><ele>549.5</ele><time>2026-05-01T16:47:14Z</time></trkpt><trkpt lat="45.87964907784977" lon="14.299904519885706"><ele>550.0</ele><time>2026-05-01T16:47:15Z</time></trkpt><trkpt lat="45.87958069215949" lon="14.29998773959236"><ele>550.5</ele><time>2026-05-01T16:47:16Z</time></trkpt><trkpt lat="45.87950913320828" lon="14.300074835471584"><ele>551.0</ele><time>2026-05-01T16:47:17Z</time></trkpt><trkpt lat="45.87943076752453" lon="14.300167492912742"><ele>551.0</ele><time>2026-05-01T16:47:18Z</time></trkpt><trkpt lat="45.879351941300754" lon="14.300270811171004"><ele>551.0</ele><time>2026-05-01T16:47:19Z</time></trkpt><trkpt lat="45.879276251041304" lon="14.300370267605214"><ele>551.0</ele><time>2026-05-01T16:47:20Z</time></trkpt><trkpt lat="45.8791980479168" lon="14.30047436718386"><ele>551.0</ele><time>2026-05-01T16:47:21Z</time></trkpt><trkpt lat="45.879135644112516" lon="14.300578641926991"><ele>551.0</ele><time>2026-05-01T16:47:22Z</time></trkpt><trkpt lat="45.87907655097976" lon="14.300686184000787"><ele>551.2</ele><time>2026-05-01T16:47:23Z</time></trkpt><trkpt lat="45.879026332999715" lon="14.300806073582109"><ele>551.4000000000001</ele><time>2026-05-01T16:47:24Z</time></trkpt><trkpt lat="45.878991984347" lon="14.30094818822971"><ele>551.6</ele><time>2026-05-01T16:47:25Z</time></trkpt><trkpt lat="45.87895653369068" lon="14.301083250586682"><ele>551.8000000000001</ele><time>2026-05-01T16:47:26Z</time></trkpt><trkpt lat="45.87892301094169" lon="14.301223529986553"><ele>552.0</ele><time>2026-05-01T16:47:27Z</time></trkpt><trkpt lat="45.87887336611193" lon="14.301343969962488"><ele>552.7142857142858</ele><time>2026-05-01T16:47:28Z</time></trkpt><trkpt lat="45.878838803197574" lon="14.30145640230282"><ele>553.4285714285714</ele><time>2026-05-01T16:47:29Z</time></trkpt><trkpt lat="45.87881402600184" lon="14.30154102228328"><ele>554.1428571428571</ele><time>2026-05-01T16:47:30Z</time></trkpt><trkpt lat="45.87879114630293" lon="14.301651138213257"><ele>554.8571428571429</ele><time>2026-05-01T16:47:31Z</time></trkpt><trkpt lat="45.878786917042554" lon="14.301743033162694"><ele>555.5714285714286</ele><time>2026-05-01T16:47:32Z</time></trkpt><trkpt lat="45.87879939356765" lon="14.301849523674703"><ele>556.2857142857143</ele><time>2026-05-01T16:47:34Z</time></trkpt><trkpt lat="45.87883917043251" lon="14.301926505495409"><ele>557.0</ele><time>2026-05-01T16:47:56Z</time></trkpt><trkpt lat="45.87887953316338" lon="14.302011425573719"><ele>557.0</ele><time>2026-05-01T16:47:58Z</time></trkpt><trkpt lat="45.87894733011349" lon="14.302135728029105"><ele>557.0</ele><time>2026-05-01T16:48:00Z</time></trkpt><trkpt lat="45.87901918868729" lon="14.30227073755433"><ele>557.0</ele><time>2026-05-01T16:48:02Z</time></trkpt><trkpt lat="45.879060082488316" lon="14.30234222864604"><ele>557.0</ele><time>2026-05-01T16:48:03Z</time></trkpt><trkpt lat="45.879108841908916" lon="14.302421038205257"><ele>557.0</ele><time>2026-05-01T16:48:04Z</time></trkpt><trkpt lat="45.879145991815584" lon="14.302508499400025"><ele>557.0</ele><time>2026-05-01T16:48:05Z</time></trkpt><trkpt lat="45.879247623964275" lon="14.302616994507835"><ele>557.4285714285714</ele><time>2026-05-01T16:48:07Z</time></trkpt><trkpt lat="45.879311930662105" lon="14.302663683491064"><ele>557.8571428571429</ele><time>2026-05-01T16:48:08Z</time></trkpt><trkpt lat="45.879385380228044" lon="14.30270623876955"><ele>558.2857142857142</ele><time>2026-05-01T16:48:09Z</time></trkpt><trkpt lat="45.87945731806267" lon="14.30274911293714"><ele>558.7142857142858</ele><time>2026-05-01T16:48:10Z</time></trkpt><trkpt lat="45.87952390056466" lon="14.30279454102495"><ele>559.1428571428571</ele><time>2026-05-01T16:48:11Z</time></trkpt><trkpt lat="45.879577560587954" lon="14.302851713824824"><ele>559.5714285714286</ele><time>2026-05-01T16:48:12Z</time></trkpt><trkpt lat="45.87964899855365" lon="14.302900542933145"><ele>560.0</ele><time>2026-05-01T16:48:13Z</time></trkpt><trkpt lat="45.87971814936498" lon="14.302948984641425"><ele>560.0</ele><time>2026-05-01T16:48:14Z</time></trkpt><trkpt lat="45.87978923515049" lon="14.302997505300878"><ele>560.0</ele><time>2026-05-01T16:48:15Z</time></trkpt><trkpt lat="45.87984883764319" lon="14.303062249270585"><ele>560.0</ele><time>2026-05-01T16:48:16Z</time></trkpt><trkpt lat="45.87990684144659" lon="14.303141883021471"><ele>560.0</ele><time>2026-05-01T16:48:17Z</time></trkpt><trkpt lat="45.879972538775" lon="14.30321582135611"><ele>560.0</ele><time>2026-05-01T16:48:18Z</time></trkpt><trkpt lat="45.88000999868034" lon="14.303309722863448"><ele>560.0</ele><time>2026-05-01T16:48:19Z</time></trkpt><trkpt lat="45.880058756737945" lon="14.30338088850485"><ele>560.8</ele><time>2026-05-01T16:48:20Z</time></trkpt><trkpt lat="45.88011281423948" lon="14.303460857654349"><ele>561.6</ele><time>2026-05-01T16:48:21Z</time></trkpt><trkpt lat="45.88015484628532" lon="14.303533592148636"><ele>562.4</ele><time>2026-05-01T16:48:22Z</time></trkpt><trkpt lat="45.88022660379345" lon="14.303583164565747"><ele>563.2</ele><time>2026-05-01T16:48:23Z</time></trkpt><trkpt lat="45.88032371536989" lon="14.303659008149678"><ele>564.0</ele><time>2026-05-01T16:48:24Z</time></trkpt><trkpt lat="45.88043236642484" lon="14.30373622172794"><ele>564.0</ele><time>2026-05-01T16:48:25Z</time></trkpt><trkpt lat="45.88052555696587" lon="14.303789969931088"><ele>564.0</ele><time>2026-05-01T16:48:26Z</time></trkpt><trkpt lat="45.880592751953365" lon="14.303840866523329"><ele>564.0</ele><time>2026-05-01T16:48:27Z</time></trkpt><trkpt lat="45.880666408537245" lon="14.303902160420066"><ele>564.0</ele><time>2026-05-01T16:48:28Z</time></trkpt><trkpt lat="45.88076426114944" lon="14.303958204648065"><ele>564.0</ele><time>2026-05-01T16:48:29Z</time></trkpt><trkpt lat="45.88083640187653" lon="14.30401337530212"><ele>564.0</ele><time>2026-05-01T16:48:30Z</time></trkpt><trkpt lat="45.8808936309953" lon="14.3040596903041"><ele>565.6</ele><time>2026-05-01T16:48:31Z</time></trkpt><trkpt lat="45.880966575118705" lon="14.304121285971263"><ele>567.2</ele><time>2026-05-01T16:48:32Z</time></trkpt><trkpt lat="45.88105707364478" lon="14.304199930948107"><ele>568.8000000000001</ele><time>2026-05-01T16:48:33Z</time></trkpt><trkpt lat="45.88115978158367" lon="14.304294030061738"><ele>570.4</ele><time>2026-05-01T16:48:34Z</time></trkpt><trkpt lat="45.88125863237364" lon="14.304365996932756"><ele>572.0</ele><time>2026-05-01T16:48:35Z</time></trkpt><trkpt lat="45.88134083404138" lon="14.304449170833289"><ele>572.0</ele><time>2026-05-01T16:48:36Z</time></trkpt><trkpt lat="45.88141145318603" lon="14.304530761577432"><ele>572.0</ele><time>2026-05-01T16:48:37Z</time></trkpt><trkpt lat="45.88146471021642" lon="14.304618916665829"><ele>572.0</ele><time>2026-05-01T16:48:38Z</time></trkpt><trkpt lat="45.88153345965291" lon="14.304665970642123"><ele>572.0</ele><time>2026-05-01T16:48:39Z</time></trkpt><trkpt lat="45.88160164896493" lon="14.304742914548509"><ele>572.0</ele><time>2026-05-01T16:48:40Z</time></trkpt><trkpt lat="45.881678124565575" lon="14.30481398764938"><ele>572.0</ele><time>2026-05-01T16:48:41Z</time></trkpt><trkpt lat="45.88176464402654" lon="14.30490192099187"><ele>572.1666666666666</ele><time>2026-05-01T16:48:42Z</time></trkpt><trkpt lat="45.881856661344806" lon="14.304960458422162"><ele>572.3333333333333</ele><time>2026-05-01T16:48:43Z</time></trkpt><trkpt lat="45.88194463180353" lon="14.305003582153777"><ele>572.5</ele><time>2026-05-01T16:48:44Z</time></trkpt><trkpt lat="45.882026608655046" lon="14.305053621399995"><ele>572.6666666666666</ele><time>2026-05-01T16:48:45Z</time></trkpt><trkpt lat="45.88210020631146" lon="14.305095551148819"><ele>572.8333333333334</ele><time>2026-05-01T16:48:46Z</time></trkpt><trkpt lat="45.882155773593155" lon="14.305152023963503"><ele>573.0</ele><time>2026-05-01T16:48:47Z</time></trkpt><trkpt lat="45.88221900532116" lon="14.305175489648166"><ele>573.0</ele><time>2026-05-01T16:48:48Z</time></trkpt><trkpt lat="45.88229317242997" lon="14.305202010689738"><ele>573.0</ele><time>2026-05-01T16:48:49Z</time></trkpt><trkpt lat="45.882376584901536" lon="14.305226432834266"><ele>573.0</ele><time>2026-05-01T16:48:50Z</time></trkpt><trkpt lat="45.88247379418562" lon="14.305246378911505"><ele>573.0</ele><time>2026-05-01T16:48:51Z</time></trkpt><trkpt lat="45.88255325758235" lon="14.3052716113126"><ele>573.0</ele><time>2026-05-01T16:48:52Z</time></trkpt><trkpt lat="45.8826325967833" lon="14.305372970602434"><ele>573.0</ele><time>2026-05-01T16:48:54Z</time></trkpt><trkpt lat="45.88271214953405" lon="14.305448596651676"><ele>574.1666666666666</ele><time>2026-05-01T16:48:56Z</time></trkpt><trkpt lat="45.88275910926714" lon="14.30551016468087"><ele>575.3333333333334</ele><time>2026-05-01T16:48:57Z</time></trkpt><trkpt lat="45.88282143578471" lon="14.305575222300291"><ele>576.5</ele><time>2026-05-01T16:48:58Z</time></trkpt><trkpt lat="45.88289008453572" lon="14.305672838218891"><ele>577.6666666666667</ele><time>2026-05-01T16:48:59Z</time></trkpt><trkpt lat="45.882964366092956" lon="14.305756659579203"><ele>578.8333333333334</ele><time>2026-05-01T16:49:00Z</time></trkpt><trkpt lat="45.883058162257086" lon="14.305808937557671"><ele>580.0</ele><time>2026-05-01T16:49:01Z</time></trkpt><trkpt lat="45.88314867395504" lon="14.305876551700996"><ele>580.6666666666667</ele><time>2026-05-01T16:49:02Z</time></trkpt><trkpt lat="45.883230075097295" lon="14.305937656764964"><ele>581.3333333333334</ele><time>2026-05-01T16:49:03Z</time></trkpt><trkpt lat="45.883288674911554" lon="14.305980748793841"><ele>582.0</ele><time>2026-05-01T16:49:04Z</time></trkpt><trkpt lat="45.883347348384206" lon="14.306028173324327"><ele>582.6666666666666</ele><time>2026-05-01T16:49:05Z</time></trkpt><trkpt lat="45.88341546719031" lon="14.306083232448378"><ele>583.3333333333333</ele><time>2026-05-01T16:49:06Z</time></trkpt><trkpt lat="45.883488008249934" lon="14.306148061290763"><ele>584.0</ele><time>2026-05-01T16:49:07Z</time></trkpt><trkpt lat="45.88354517918901" lon="14.306218963954308"><ele>585.0</ele><time>2026-05-01T16:49:08Z</time></trkpt><trkpt lat="45.8836149170285" lon="14.30629444675231"><ele>586.0</ele><time>2026-05-01T16:49:09Z</time></trkpt><trkpt lat="45.8836673208542" lon="14.30640020356098"><ele>587.0</ele><time>2026-05-01T16:49:10Z</time></trkpt><trkpt lat="45.88373449861743" lon="14.306531598788075"><ele>588.0</ele><time>2026-05-01T16:49:11Z</time></trkpt><trkpt lat="45.88379517435996" lon="14.306706495256925"><ele>589.0</ele><time>2026-05-01T16:49:12Z</time></trkpt><trkpt lat="45.88385705464047" lon="14.306901126348684"><ele>590.0</ele><time>2026-05-01T16:49:13Z</time></trkpt><trkpt lat="45.88394325561535" lon="14.307072497428818"><ele>591.0</ele><time>2026-05-01T16:49:14Z</time></trkpt><trkpt lat="45.88402776479051" lon="14.30720840511709"><ele>592.0</ele><time>2026-05-01T16:49:15Z</time></trkpt><trkpt lat="45.88410927869385" lon="14.307329013442615"><ele>593.0</ele><time>2026-05-01T16:49:16Z</time></trkpt><trkpt lat="45.88418205776265" lon="14.307435613831089"><ele>593.0</ele><time>2026-05-01T16:49:17Z</time></trkpt><trkpt lat="45.884246691504046" lon="14.307532999286387"><ele>593.0</ele><time>2026-05-01T16:49:18Z</time></trkpt><trkpt lat="45.88430609829088" lon="14.307633387670753"><ele>593.0</ele><time>2026-05-01T16:49:19Z</time></trkpt><trkpt lat="45.884352493949734" lon="14.307755091735599"><ele>593.0</ele><time>2026-05-01T16:49:20Z</time></trkpt><trkpt lat="45.884409459569845" lon="14.3078760303828"><ele>593.0</ele><time>2026-05-01T16:49:21Z</time></trkpt><trkpt lat="45.88444188450676" lon="14.308067020512294"><ele>593.0</ele><time>2026-05-01T16:49:22Z</time></trkpt><trkpt lat="45.88449836843662" lon="14.308147813149466"><ele>593.0</ele><time>2026-05-01T16:49:24Z</time></trkpt><trkpt lat="45.88447146932229" lon="14.308259208316409"><ele>593.0</ele><time>2026-05-01T16:49:28Z</time></trkpt><trkpt lat="45.884407903623966" lon="14.308264120710845"><ele>593.0</ele><time>2026-05-01T16:49:29Z</time></trkpt><trkpt lat="45.884326772209484" lon="14.308311872128073"><ele>593.0</ele><time>2026-05-01T16:49:30Z</time></trkpt><trkpt lat="45.88423293523004" lon="14.308386755524875"><ele>593.0</ele><time>2026-05-01T16:49:31Z</time></trkpt><trkpt lat="45.884128300050044" lon="14.308470590891536"><ele>593.0</ele><time>2026-05-01T16:49:32Z</time></trkpt><trkpt lat="45.88401217172967" lon="14.308565297993674"><ele>593.0</ele><time>2026-05-01T16:49:33Z</time></trkpt><trkpt lat="45.883897679798125" lon="14.30864764561094"><ele>593.0</ele><time>2026-05-01T16:49:34Z</time></trkpt><trkpt lat="45.88377116051727" lon="14.308706186280006"><ele>593.0</ele><time>2026-05-01T16:49:35Z</time></trkpt><trkpt lat="45.88364096770929" lon="14.308753523740117"><ele>593.0</ele><time>2026-05-01T16:49:36Z</time></trkpt><trkpt lat="45.88350427144133" lon="14.308791671641393"><ele>593.0</ele><time>2026-05-01T16:49:37Z</time></trkpt><trkpt lat="45.88337780448005" lon="14.308820161913475"><ele>593.0</ele><time>2026-05-01T16:49:38Z</time></trkpt><trkpt lat="45.88326190851484" lon="14.308856100437522"><ele>593.0</ele><time>2026-05-01T16:49:39Z</time></trkpt><trkpt lat="45.88315178189767" lon="14.308898462038039"><ele>593.8</ele><time>2026-05-01T16:49:40Z</time></trkpt><trkpt lat="45.88304864531737" lon="14.30894017861867"><ele>594.5999999999999</ele><time>2026-05-01T16:49:41Z</time></trkpt><trkpt lat="45.88294333088813" lon="14.30897854348809"><ele>595.4000000000001</ele><time>2026-05-01T16:49:42Z</time></trkpt><trkpt lat="45.882836754619376" lon="14.309024645428535"><ele>596.2</ele><time>2026-05-01T16:49:43Z</time></trkpt><trkpt lat="45.88274577696936" lon="14.30908408378129"><ele>597.0</ele><time>2026-05-01T16:49:44Z</time></trkpt><trkpt lat="45.8826625241125" lon="14.309164234124587"><ele>596.25</ele><time>2026-05-01T16:49:45Z</time></trkpt><trkpt lat="45.882577312505056" lon="14.309271593251445"><ele>595.5</ele><time>2026-05-01T16:49:46Z</time></trkpt><trkpt lat="45.88249585970779" lon="14.309387704876219"><ele>594.75</ele><time>2026-05-01T16:49:47Z</time></trkpt><trkpt lat="45.882411981331686" lon="14.309500781344623"><ele>594.0</ele><time>2026-05-01T16:49:48Z</time></trkpt><trkpt lat="45.88232085572831" lon="14.309615246653737"><ele>594.0</ele><time>2026-05-01T16:49:49Z</time></trkpt><trkpt lat="45.88222509432152" lon="14.309712985567508"><ele>594.0</ele><time>2026-05-01T16:49:50Z</time></trkpt><trkpt lat="45.88211593093001" lon="14.309791905344142"><ele>594.0</ele><time>2026-05-01T16:49:51Z</time></trkpt><trkpt lat="45.88200546268052" lon="14.309825233347052"><ele>594.0</ele><time>2026-05-01T16:49:52Z</time></trkpt><trkpt lat="45.8819011563675" lon="14.309826573750183"><ele>594.2</ele><time>2026-05-01T16:49:53Z</time></trkpt><trkpt lat="45.88179076140816" lon="14.309811775315778"><ele>594.4</ele><time>2026-05-01T16:49:54Z</time></trkpt><trkpt lat="45.88169177547984" lon="14.309823110455076"><ele>594.6</ele><time>2026-05-01T16:49:55Z</time></trkpt><trkpt lat="45.88158898989068" lon="14.309839715651215"><ele>594.8</ele><time>2026-05-01T16:49:55.999Z</time></trkpt><trkpt lat="45.88149095166067" lon="14.309879666541123"><ele>595.0</ele><time>2026-05-01T16:49:57Z</time></trkpt><trkpt lat="45.88139531696255" lon="14.309932811294317"><ele>595.0</ele><time>2026-05-01T16:49:58Z</time></trkpt><trkpt lat="45.881288443725495" lon="14.309989162088122"><ele>595.0</ele><time>2026-05-01T16:49:59Z</time></trkpt><trkpt lat="45.88117714780537" lon="14.31003848092474"><ele>595.0</ele><time>2026-05-01T16:50:00Z</time></trkpt><trkpt lat="45.88107854905025" lon="14.310089989482808"><ele>595.0</ele><time>2026-05-01T16:50:01Z</time></trkpt><trkpt lat="45.880988287588615" lon="14.310139698472103"><ele>595.0</ele><time>2026-05-01T16:50:02Z</time></trkpt><trkpt lat="45.88089941514155" lon="14.31018392525433"><ele>593.6</ele><time>2026-05-01T16:50:03Z</time></trkpt><trkpt lat="45.88080696039571" lon="14.310220702121514"><ele>592.2</ele><time>2026-05-01T16:50:04Z</time></trkpt><trkpt lat="45.88071273498251" lon="14.310235566253276"><ele>590.8</ele><time>2026-05-01T16:50:05Z</time></trkpt><trkpt lat="45.88061727077457" lon="14.31024661597955"><ele>589.4</ele><time>2026-05-01T16:50:06Z</time></trkpt><trkpt lat="45.88052264196047" lon="14.310240062463976"><ele>588.0</ele><time>2026-05-01T16:50:07Z</time></trkpt><trkpt lat="45.88041772497183" lon="14.310215838501144"><ele>588.0</ele><time>2026-05-01T16:50:08Z</time></trkpt><trkpt lat="45.88031647736573" lon="14.310188699327002"><ele>588.0</ele><time>2026-05-01T16:50:09Z</time></trkpt><trkpt lat="45.880213617108105" lon="14.310160296852349"><ele>588.0</ele><time>2026-05-01T16:50:10Z</time></trkpt><trkpt lat="45.88010486048189" lon="14.310145765205476"><ele>588.0</ele><time>2026-05-01T16:50:11Z</time></trkpt><trkpt lat="45.879994692539924" lon="14.31014692976357"><ele>588.0</ele><time>2026-05-01T16:50:12Z</time></trkpt><trkpt lat="45.87988470427662" lon="14.310146933499544"><ele>587.8</ele><time>2026-05-01T16:50:13Z</time></trkpt><trkpt lat="45.879782070475244" lon="14.310161228805116"><ele>587.5999999999999</ele><time>2026-05-01T16:50:14Z</time></trkpt><trkpt lat="45.879688799578844" lon="14.310176255628747"><ele>587.4000000000001</ele><time>2026-05-01T16:50:15Z</time></trkpt><trkpt lat="45.87959575364665" lon="14.310196515116255"><ele>587.2</ele><time>2026-05-01T16:50:16Z</time></trkpt><trkpt lat="45.87950231237834" lon="14.310216726664308"><ele>587.0</ele><time>2026-05-01T16:50:17Z</time></trkpt><trkpt lat="45.87941311606365" lon="14.310239654914247"><ele>587.0</ele><time>2026-05-01T16:50:18Z</time></trkpt><trkpt lat="45.87932353178474" lon="14.310269339624929"><ele>587.0</ele><time>2026-05-01T16:50:19Z</time></trkpt><trkpt lat="45.87923539416705" lon="14.310309706217597"><ele>587.0</ele><time>2026-05-01T16:50:20Z</time></trkpt><trkpt lat="45.87915207151399" lon="14.310372723849623"><ele>587.0</ele><time>2026-05-01T16:50:21Z</time></trkpt><trkpt lat="45.87905805581263" lon="14.31043624510948"><ele>587.0</ele><time>2026-05-01T16:50:22Z</time></trkpt><trkpt lat="45.87896916269957" lon="14.310499011301848"><ele>588.0</ele><time>2026-05-01T16:50:23Z</time></trkpt><trkpt lat="45.878867375931264" lon="14.31057632896135"><ele>589.0</ele><time>2026-05-01T16:50:24Z</time></trkpt><trkpt lat="45.87877158420297" lon="14.310649618326096"><ele>590.0</ele><time>2026-05-01T16:50:25Z</time></trkpt><trkpt lat="45.87868207565293" lon="14.310717595600025"><ele>591.0</ele><time>2026-05-01T16:50:26Z</time></trkpt><trkpt lat="45.87859312087204" lon="14.31078473644448"><ele>592.0</ele><time>2026-05-01T16:50:27Z</time></trkpt><trkpt lat="45.878507571692325" lon="14.310851052010737"><ele>591.0</ele><time>2026-05-01T16:50:28Z</time></trkpt><trkpt lat="45.87841619911028" lon="14.310920569452023"><ele>590.0</ele><time>2026-05-01T16:50:29Z</time></trkpt><trkpt lat="45.87831395186741" lon="14.310989063718186"><ele>589.0</ele><time>2026-05-01T16:50:30Z</time></trkpt><trkpt lat="45.8782137757778" lon="14.31104851761502"><ele>588.0</ele><time>2026-05-01T16:50:31Z</time></trkpt><trkpt lat="45.87811316159085" lon="14.31109536347748"><ele>587.0</ele><time>2026-05-01T16:50:32Z</time></trkpt><trkpt lat="45.878016403007614" lon="14.311149050151185"><ele>587.0</ele><time>2026-05-01T16:50:33Z</time></trkpt><trkpt lat="45.877912477091485" lon="14.311213013949013"><ele>587.0</ele><time>2026-05-01T16:50:34Z</time></trkpt><trkpt lat="45.87781323217426" lon="14.311271693405976"><ele>587.0</ele><time>2026-05-01T16:50:35Z</time></trkpt><trkpt lat="45.877709990745856" lon="14.311325397375283"><ele>587.0</ele><time>2026-05-01T16:50:36Z</time></trkpt><trkpt lat="45.877602300815354" lon="14.311375239574827"><ele>587.0</ele><time>2026-05-01T16:50:37Z</time></trkpt><trkpt lat="45.87750246230891" lon="14.311411023985233"><ele>587.0</ele><time>2026-05-01T16:50:38Z</time></trkpt><trkpt lat="45.87739104608154" lon="14.311420583323521"><ele>587.0</ele><time>2026-05-01T16:50:39Z</time></trkpt><trkpt lat="45.87727812724622" lon="14.311400692584582"><ele>587.0</ele><time>2026-05-01T16:50:40Z</time></trkpt><trkpt lat="45.87717511978262" lon="14.31136250608857"><ele>587.0</ele><time>2026-05-01T16:50:41Z</time></trkpt><trkpt lat="45.87707820363946" lon="14.311352477800042"><ele>587.0</ele><time>2026-05-01T16:50:42Z</time></trkpt><trkpt lat="45.8769738194597" lon="14.311382902892872"><ele>587.0</ele><time>2026-05-01T16:50:43Z</time></trkpt><trkpt lat="45.87687477127482" lon="14.311430782161104"><ele>587.0</ele><time>2026-05-01T16:50:44Z</time></trkpt><trkpt lat="45.876770602400015" lon="14.311483253725564"><ele>587.0</ele><time>2026-05-01T16:50:45Z</time></trkpt><trkpt lat="45.87665439840258" lon="14.311528368486886"><ele>587.0</ele><time>2026-05-01T16:50:46Z</time></trkpt><trkpt lat="45.87654165994933" lon="14.311583168615497"><ele>584.6</ele><time>2026-05-01T16:50:47Z</time></trkpt><trkpt lat="45.87643525719079" lon="14.311634107708109"><ele>582.2</ele><time>2026-05-01T16:50:48Z</time></trkpt><trkpt lat="45.87633310011937" lon="14.311680417064164"><ele>579.8</ele><time>2026-05-01T16:50:49Z</time></trkpt><trkpt lat="45.876231576345795" lon="14.311728902908767"><ele>577.4</ele><time>2026-05-01T16:50:50Z</time></trkpt><trkpt lat="45.876123062722336" lon="14.31176741813288"><ele>575.0</ele><time>2026-05-01T16:50:51Z</time></trkpt><trkpt lat="45.8760140457605" lon="14.311791759188162"><ele>574.8</ele><time>2026-05-01T16:50:52Z</time></trkpt><trkpt lat="45.87590236726213" lon="14.31179993364509"><ele>574.6</ele><time>2026-05-01T16:50:53Z</time></trkpt><trkpt lat="45.875801217477104" lon="14.311787479275536"><ele>574.4</ele><time>2026-05-01T16:50:54Z</time></trkpt><trkpt lat="45.87569917303502" lon="14.311786989515953"><ele>574.2</ele><time>2026-05-01T16:50:55Z</time></trkpt><trkpt lat="45.87561192192062" lon="14.311800623153433"><ele>574.0</ele><time>2026-05-01T16:50:56Z</time></trkpt><trkpt lat="45.8755301190867" lon="14.31180654069505"><ele>574.0</ele><time>2026-05-01T16:50:57Z</time></trkpt><trkpt lat="45.875434883292016" lon="14.31179293356807"><ele>574.0</ele><time>2026-05-01T16:50:58Z</time></trkpt><trkpt lat="45.87533878314833" lon="14.311760336492755"><ele>574.0</ele><time>2026-05-01T16:50:59Z</time></trkpt><trkpt lat="45.8752359721613" lon="14.311706342469009"><ele>574.0</ele><time>2026-05-01T16:51:00Z</time></trkpt><trkpt lat="45.875131344783135" lon="14.311640777059376"><ele>574.0</ele><time>2026-05-01T16:51:01Z</time></trkpt><trkpt lat="45.87502638754808" lon="14.311577630995481"><ele>574.4</ele><time>2026-05-01T16:51:02Z</time></trkpt><trkpt lat="45.87493597300226" lon="14.311525056903497"><ele>574.8</ele><time>2026-05-01T16:51:03Z</time></trkpt><trkpt lat="45.87483665550692" lon="14.311482711725233"><ele>575.2</ele><time>2026-05-01T16:51:04Z</time></trkpt><trkpt lat="45.87473477728719" lon="14.31145536312763"><ele>575.6</ele><time>2026-05-01T16:51:05Z</time></trkpt><trkpt lat="45.87463486906282" lon="14.311438027257418"><ele>576.0</ele><time>2026-05-01T16:51:06Z</time></trkpt><trkpt lat="45.87453495880949" lon="14.311432508866366"><ele>576.0</ele><time>2026-05-01T16:51:07Z</time></trkpt><trkpt lat="45.87442754413265" lon="14.311447648336358"><ele>576.0</ele><time>2026-05-01T16:51:08Z</time></trkpt><trkpt lat="45.87431308672491" lon="14.311474923075645"><ele>576.0</ele><time>2026-05-01T16:51:09Z</time></trkpt><trkpt lat="45.87419972490553" lon="14.311504861334583"><ele>576.0</ele><time>2026-05-01T16:51:10Z</time></trkpt><trkpt lat="45.87409708749958" lon="14.311519065726054"><ele>576.0</ele><time>2026-05-01T16:51:11Z</time></trkpt><trkpt lat="45.874003218253485" lon="14.311529411902319"><ele>575.0</ele><time>2026-05-01T16:51:12Z</time></trkpt><trkpt lat="45.87390429610818" lon="14.311495872894715"><ele>574.0</ele><time>2026-05-01T16:51:13Z</time></trkpt><trkpt lat="45.87380992124323" lon="14.31144677693818"><ele>573.0</ele><time>2026-05-01T16:51:14Z</time></trkpt><trkpt lat="45.87372429775978" lon="14.311431874373014"><ele>572.0</ele><time>2026-05-01T16:51:15Z</time></trkpt><trkpt lat="45.87363748027751" lon="14.31144438396215"><ele>571.0</ele><time>2026-05-01T16:51:16Z</time></trkpt><trkpt lat="45.87354511205487" lon="14.31149902808313"><ele>569.4</ele><time>2026-05-01T16:51:17Z</time></trkpt><trkpt lat="45.87343567928759" lon="14.31156954114139"><ele>567.8</ele><time>2026-05-01T16:51:18Z</time></trkpt><trkpt lat="45.873326067747755" lon="14.311637270194433"><ele>566.1999999999999</ele><time>2026-05-01T16:51:19Z</time></trkpt><trkpt lat="45.87323854986557" lon="14.311700423890498"><ele>564.6</ele><time>2026-05-01T16:51:20Z</time></trkpt><trkpt lat="45.873146403223195" lon="14.311781150165636"><ele>563.0</ele><time>2026-05-01T16:51:21Z</time></trkpt><trkpt lat="45.87305290356838" lon="14.311866366793168"><ele>563.0</ele><time>2026-05-01T16:51:22Z</time></trkpt><trkpt lat="45.87295549005979" lon="14.311961511728851"><ele>563.0</ele><time>2026-05-01T16:51:23Z</time></trkpt><trkpt lat="45.87284634116798" lon="14.312037158176558"><ele>563.0</ele><time>2026-05-01T16:51:24Z</time></trkpt><trkpt lat="45.872736956338095" lon="14.31208502625542"><ele>563.0</ele><time>2026-05-01T16:51:25Z</time></trkpt><trkpt lat="45.8726237347565" lon="14.31212414750402"><ele>562.25</ele><time>2026-05-01T16:51:26Z</time></trkpt><trkpt lat="45.87250781606006" lon="14.31216858797358"><ele>561.5</ele><time>2026-05-01T16:51:27Z</time></trkpt><trkpt lat="45.87238708438527" lon="14.312195220180005"><ele>560.75</ele><time>2026-05-01T16:51:28Z</time></trkpt><trkpt lat="45.87226064639334" lon="14.312210263535185"><ele>560.0</ele><time>2026-05-01T16:51:29Z</time></trkpt><trkpt lat="45.87214519396688" lon="14.312222479416395"><ele>560.0</ele><time>2026-05-01T16:51:30Z</time></trkpt><trkpt lat="45.87203360074187" lon="14.312238671864861"><ele>560.0</ele><time>2026-05-01T16:51:31Z</time></trkpt><trkpt lat="45.871929511901065" lon="14.31225605161927"><ele>560.0</ele><time>2026-05-01T16:51:32Z</time></trkpt><trkpt lat="45.87182410416883" lon="14.312284193027768"><ele>560.0</ele><time>2026-05-01T16:51:33Z</time></trkpt><trkpt lat="45.871733921428905" lon="14.312318001125288"><ele>560.0</ele><time>2026-05-01T16:51:34Z</time></trkpt><trkpt lat="45.87165620780522" lon="14.31236406625763"><ele>560.0</ele><time>2026-05-01T16:51:35Z</time></trkpt><trkpt lat="45.87159243663751" lon="14.31242667574985"><ele>560.0</ele><time>2026-05-01T16:51:36Z</time></trkpt><trkpt lat="45.87152406547508" lon="14.312510170241534"><ele>560.0</ele><time>2026-05-01T16:51:37Z</time></trkpt><trkpt lat="45.87143371410719" lon="14.312608466608722"><ele>560.0</ele><time>2026-05-01T16:51:38Z</time></trkpt><trkpt lat="45.87132416562265" lon="14.312705447833224"><ele>560.0</ele><time>2026-05-01T16:51:39Z</time></trkpt><trkpt lat="45.87120033426193" lon="14.312776306255431"><ele>560.0</ele><time>2026-05-01T16:51:40Z</time></trkpt><trkpt lat="45.87109918686787" lon="14.312862173625382"><ele>560.0</ele><time>2026-05-01T16:51:41Z</time></trkpt><trkpt lat="45.870981223701826" lon="14.31296233436383"><ele>560.0</ele><time>2026-05-01T16:51:42Z</time></trkpt><trkpt lat="45.870877563060574" lon="14.313062630218042"><ele>560.0</ele><time>2026-05-01T16:51:43Z</time></trkpt><trkpt lat="45.87076330929479" lon="14.31317626300527"><ele>561.75</ele><time>2026-05-01T16:51:44Z</time></trkpt><trkpt lat="45.87065652798542" lon="14.313276515241485"><ele>563.5</ele><time>2026-05-01T16:51:45Z</time></trkpt><trkpt lat="45.87054944656907" lon="14.313370527460268"><ele>565.25</ele><time>2026-05-01T16:51:46Z</time></trkpt><trkpt lat="45.87045239386724" lon="14.313463465340657"><ele>567.0</ele><time>2026-05-01T16:51:46.999Z</time></trkpt><trkpt lat="45.870360167779715" lon="14.313544800313952"><ele>567.0</ele><time>2026-05-01T16:51:47.999Z</time></trkpt><trkpt lat="45.8702725905072" lon="14.31361033001908"><ele>567.0</ele><time>2026-05-01T16:51:48.999Z</time></trkpt><trkpt lat="45.87018171773727" lon="14.313686440847881"><ele>567.0</ele><time>2026-05-01T16:51:49.999Z</time></trkpt><trkpt lat="45.870070870207684" lon="14.31373898781503"><ele>567.0</ele><time>2026-05-01T16:51:50.999Z</time></trkpt><trkpt lat="45.86995532139573" lon="14.313760598386644"><ele>567.0</ele><time>2026-05-01T16:51:51.999Z</time></trkpt><trkpt lat="45.869837753953114" lon="14.313740531405118"><ele>566.0</ele><time>2026-05-01T16:51:52.999Z</time></trkpt><trkpt lat="45.86969920045262" lon="14.313677129597275"><ele>565.0</ele><time>2026-05-01T16:51:53.999Z</time></trkpt><trkpt lat="45.86958115688929" lon="14.313613999092881"><ele>564.0</ele><time>2026-05-01T16:51:54.999Z</time></trkpt><trkpt lat="45.869481352589425" lon="14.313542497673012"><ele>563.0</ele><time>2026-05-01T16:51:55.999Z</time></trkpt><trkpt lat="45.869409337655995" lon="14.31347525203958"><ele>563.0</ele><time>2026-05-01T16:51:56.999Z</time></trkpt><trkpt lat="45.86932138851032" lon="14.31342655328046"><ele>563.0</ele><time>2026-05-01T16:51:57.999Z</time></trkpt><trkpt lat="45.86922181478078" lon="14.313409023905596"><ele>563.0</ele><time>2026-05-01T16:51:58.999Z</time></trkpt><trkpt lat="45.86910947709494" lon="14.313430105257968"><ele>563.0</ele><time>2026-05-01T16:51:59.999Z</time></trkpt><trkpt lat="45.86899806876475" lon="14.313462717759732"><ele>563.0</ele><time>2026-05-01T16:52:00.999Z</time></trkpt><trkpt lat="45.86887593961019" lon="14.313504010821044"><ele>562.8</ele><time>2026-05-01T16:52:01.999Z</time></trkpt><trkpt lat="45.868764789696236" lon="14.313538178523588"><ele>562.5999999999999</ele><time>2026-05-01T16:52:03Z</time></trkpt><trkpt lat="45.86867259653493" lon="14.313592218829342"><ele>562.4000000000001</ele><time>2026-05-01T16:52:04Z</time></trkpt><trkpt lat="45.86859110086875" lon="14.31365776424197"><ele>562.2</ele><time>2026-05-01T16:52:05Z</time></trkpt><trkpt lat="45.86850352637046" lon="14.313761765578713"><ele>562.0</ele><time>2026-05-01T16:52:06Z</time></trkpt><trkpt lat="45.86842924350297" lon="14.313884056882213"><ele>562.4</ele><time>2026-05-01T16:52:07Z</time></trkpt><trkpt lat="45.86836389657352" lon="14.313984143265664"><ele>562.8000000000001</ele><time>2026-05-01T16:52:08Z</time></trkpt><trkpt lat="45.868292487326904" lon="14.314061467595245"><ele>563.2</ele><time>2026-05-01T16:52:09Z</time></trkpt><trkpt lat="45.86819279252759" lon="14.314109360320364"><ele>563.6</ele><time>2026-05-01T16:52:10Z</time></trkpt><trkpt lat="45.8681014600229" lon="14.314156516321168"><ele>564.0</ele><time>2026-05-01T16:52:11Z</time></trkpt><trkpt lat="45.868019647544095" lon="14.314220263374247"><ele>564.0</ele><time>2026-05-01T16:52:12Z</time></trkpt><trkpt lat="45.86794388456414" lon="14.314296507897216"><ele>564.0</ele><time>2026-05-01T16:52:13Z</time></trkpt><trkpt lat="45.867891560125656" lon="14.31440882189601"><ele>564.0</ele><time>2026-05-01T16:52:14Z</time></trkpt><trkpt lat="45.86782989695259" lon="14.314521243871779"><ele>564.0</ele><time>2026-05-01T16:52:15Z</time></trkpt><trkpt lat="45.86777812864069" lon="14.314619190710035"><ele>564.0</ele><time>2026-05-01T16:52:16Z</time></trkpt><trkpt lat="45.867713145261305" lon="14.314715778476028"><ele>564.0</ele><time>2026-05-01T16:52:17Z</time></trkpt><trkpt lat="45.86763185166402" lon="14.3148215416382"><ele>564.0</ele><time>2026-05-01T16:52:18Z</time></trkpt><trkpt lat="45.86755366583751" lon="14.314935425038149"><ele>564.0</ele><time>2026-05-01T16:52:19Z</time></trkpt><trkpt lat="45.86746766181591" lon="14.315060111798742"><ele>564.0</ele><time>2026-05-01T16:52:20Z</time></trkpt><trkpt lat="45.86738686345106" lon="14.315188153519564"><ele>564.0</ele><time>2026-05-01T16:52:21Z</time></trkpt><trkpt lat="45.86729842324754" lon="14.315303435696016"><ele>564.0</ele><time>2026-05-01T16:52:22Z</time></trkpt><trkpt lat="45.86720559212643" lon="14.315394198918428"><ele>564.0</ele><time>2026-05-01T16:52:23Z</time></trkpt><trkpt lat="45.867114929241865" lon="14.315467225004868"><ele>564.0</ele><time>2026-05-01T16:52:24Z</time></trkpt><trkpt lat="45.867015322193346" lon="14.315522876473816"><ele>564.0</ele><time>2026-05-01T16:52:25Z</time></trkpt><trkpt lat="45.86692861261357" lon="14.315581383064684"><ele>564.0</ele><time>2026-05-01T16:52:26Z</time></trkpt><trkpt lat="45.866836611015835" lon="14.315673852137236"><ele>564.0</ele><time>2026-05-01T16:52:27Z</time></trkpt><trkpt lat="45.86673577801932" lon="14.315746900497302"><ele>564.0</ele><time>2026-05-01T16:52:28Z</time></trkpt><trkpt lat="45.8666327672933" lon="14.315792444936932"><ele>564.0</ele><time>2026-05-01T16:52:29Z</time></trkpt><trkpt lat="45.866522211047055" lon="14.315791306079834"><ele>564.0</ele><time>2026-05-01T16:52:30Z</time></trkpt><trkpt lat="45.866395413819795" lon="14.315744701243124"><ele>564.75</ele><time>2026-05-01T16:52:31Z</time></trkpt><trkpt lat="45.8662681541608" lon="14.315717013738162"><ele>565.5</ele><time>2026-05-01T16:52:32Z</time></trkpt><trkpt lat="45.866153368198376" lon="14.315713305947847"><ele>566.25</ele><time>2026-05-01T16:52:33Z</time></trkpt><trkpt lat="45.866021114000866" lon="14.31574425832887"><ele>567.0</ele><time>2026-05-01T16:52:34Z</time></trkpt><trkpt lat="45.86586719410296" lon="14.315800097284633"><ele>567.0</ele><time>2026-05-01T16:52:35Z</time></trkpt><trkpt lat="45.86574505035778" lon="14.315856978491189"><ele>567.0</ele><time>2026-05-01T16:52:36Z</time></trkpt><trkpt lat="45.865634820387776" lon="14.315921382487899"><ele>567.0</ele><time>2026-05-01T16:52:37Z</time></trkpt><trkpt lat="45.86552641063312" lon="14.315984418110292"><ele>567.0</ele><time>2026-05-01T16:52:38Z</time></trkpt><trkpt lat="45.865406094078544" lon="14.316039695542996"><ele>567.0</ele><time>2026-05-01T16:52:39Z</time></trkpt><trkpt lat="45.865288763013226" lon="14.31611400728985"><ele>567.0</ele><time>2026-05-01T16:52:40Z</time></trkpt><trkpt lat="45.86516763596841" lon="14.3161898627566"><ele>567.0</ele><time>2026-05-01T16:52:41Z</time></trkpt><trkpt lat="45.86506191163203" lon="14.316309508695594"><ele>567.0</ele><time>2026-05-01T16:52:42Z</time></trkpt><trkpt lat="45.864970890802006" lon="14.316405407128205"><ele>567.0</ele><time>2026-05-01T16:52:43Z</time></trkpt><trkpt lat="45.86489434691172" lon="14.316505663790347"><ele>567.0</ele><time>2026-05-01T16:52:44Z</time></trkpt><trkpt lat="45.86480028219077" lon="14.31661133931981"><ele>567.0</ele><time>2026-05-01T16:52:45Z</time></trkpt><trkpt lat="45.86469623582595" lon="14.316720559049184"><ele>567.0</ele><time>2026-05-01T16:52:46Z</time></trkpt><trkpt lat="45.86459381948749" lon="14.316830841521849"><ele>567.0</ele><time>2026-05-01T16:52:47Z</time></trkpt><trkpt lat="45.86449666560022" lon="14.316916237695171"><ele>567.0</ele><time>2026-05-01T16:52:48Z</time></trkpt><trkpt lat="45.864398541584634" lon="14.316978915432323"><ele>567.0</ele><time>2026-05-01T16:52:49Z</time></trkpt><trkpt lat="45.86428987479428" lon="14.317047567051057"><ele>567.0</ele><time>2026-05-01T16:52:50Z</time></trkpt><trkpt lat="45.864183862343275" lon="14.31712481247192"><ele>566.2</ele><time>2026-05-01T16:52:51Z</time></trkpt><trkpt lat="45.86408542123265" lon="14.317245486692078"><ele>565.4000000000001</ele><time>2026-05-01T16:52:52Z</time></trkpt><trkpt lat="45.86398868503506" lon="14.317334841300598"><ele>564.5999999999999</ele><time>2026-05-01T16:52:53Z</time></trkpt><trkpt lat="45.86390867576711" lon="14.317426855532592"><ele>563.8</ele><time>2026-05-01T16:52:54Z</time></trkpt><trkpt lat="45.863843463897176" lon="14.317519227557758"><ele>563.0</ele><time>2026-05-01T16:52:55Z</time></trkpt><trkpt lat="45.86378810841958" lon="14.31762660359332"><ele>563.0</ele><time>2026-05-01T16:52:56Z</time></trkpt><trkpt lat="45.863760483823626" lon="14.317746826287106"><ele>563.0</ele><time>2026-05-01T16:52:57Z</time></trkpt><trkpt lat="45.86374170460037" lon="14.317886191010825"><ele>563.0</ele><time>2026-05-01T16:52:58Z</time></trkpt><trkpt lat="45.86372827734141" lon="14.318060169376587"><ele>563.0</ele><time>2026-05-01T16:52:59Z</time></trkpt><trkpt lat="45.863716790081874" lon="14.31822251545306"><ele>563.0</ele><time>2026-05-01T16:53:00Z</time></trkpt><trkpt lat="45.86369839868392" lon="14.318373801949118"><ele>563.1999999999999</ele><time>2026-05-01T16:53:01Z</time></trkpt><trkpt lat="45.86366602168231" lon="14.318511998402288"><ele>563.4</ele><time>2026-05-01T16:53:02Z</time></trkpt><trkpt lat="45.86360569418097" lon="14.318613567291182"><ele>563.5999999999999</ele><time>2026-05-01T16:53:03Z</time></trkpt><trkpt lat="45.86351239191399" lon="14.318624519633907"><ele>563.8</ele><time>2026-05-01T16:53:04Z</time></trkpt><trkpt lat="45.8634303850509" lon="14.318626317823043"><ele>564.0</ele><time>2026-05-01T16:53:05Z</time></trkpt><trkpt lat="45.863336812956575" lon="14.318624637488565"><ele>564.1666666666666</ele><time>2026-05-01T16:53:06Z</time></trkpt><trkpt lat="45.86325416182259" lon="14.31857781189088"><ele>564.3333333333334</ele><time>2026-05-01T16:53:07Z</time></trkpt><trkpt lat="45.86317472221222" lon="14.318560572011442"><ele>564.5</ele><time>2026-05-01T16:53:08Z</time></trkpt><trkpt lat="45.86310993554464" lon="14.318532401329684"><ele>564.6666666666667</ele><time>2026-05-01T16:53:09Z</time></trkpt><trkpt lat="45.86303791084106" lon="14.318561796010394"><ele>564.8333333333334</ele><time>2026-05-01T16:53:10Z</time></trkpt><trkpt lat="45.86293547780561" lon="14.31863195407347"><ele>565.0</ele><time>2026-05-01T16:53:12Z</time></trkpt><trkpt lat="45.862864537078295" lon="14.318699799362477"><ele>565.0</ele><time>2026-05-01T16:53:13Z</time></trkpt><trkpt lat="45.86281073752051" lon="14.318782372499669"><ele>565.0</ele><time>2026-05-01T16:53:14Z</time></trkpt><trkpt lat="45.86273026779827" lon="14.318837019317549"><ele>565.0</ele><time>2026-05-01T16:53:15Z</time></trkpt><trkpt lat="45.86263315065755" lon="14.318892689610498"><ele>565.0</ele><time>2026-05-01T16:53:16Z</time></trkpt><trkpt lat="45.86253051082311" lon="14.318957241499682"><ele>565.0</ele><time>2026-05-01T16:53:17Z</time></trkpt><trkpt lat="45.862433119067106" lon="14.318970255030422"><ele>566.25</ele><time>2026-05-01T16:53:18Z</time></trkpt><trkpt lat="45.862336305469455" lon="14.318993004426897"><ele>567.5</ele><time>2026-05-01T16:53:19Z</time></trkpt><trkpt lat="45.862206858193815" lon="14.319011797496424"><ele>568.75</ele><time>2026-05-01T16:53:20Z</time></trkpt><trkpt lat="45.86206871347485" lon="14.319009749159083"><ele>570.0</ele><time>2026-05-01T16:53:21Z</time></trkpt><trkpt lat="45.86194045789219" lon="14.318983234699736"><ele>570.0</ele><time>2026-05-01T16:53:22Z</time></trkpt><trkpt lat="45.861827358969336" lon="14.31895417193333"><ele>570.0</ele><time>2026-05-01T16:53:23Z</time></trkpt><trkpt lat="45.86171933753866" lon="14.318931607507677"><ele>570.0</ele><time>2026-05-01T16:53:24Z</time></trkpt><trkpt lat="45.86161452638686" lon="14.318920482303717"><ele>570.0</ele><time>2026-05-01T16:53:25Z</time></trkpt><trkpt lat="45.861515950545666" lon="14.31890079276712"><ele>570.0</ele><time>2026-05-01T16:53:26Z</time></trkpt><trkpt lat="45.86142429231644" lon="14.318915979248967"><ele>569.5</ele><time>2026-05-01T16:53:27Z</time></trkpt><trkpt lat="45.861326395549234" lon="14.31891208024398"><ele>569.0</ele><time>2026-05-01T16:53:28Z</time></trkpt><trkpt lat="45.86120956690429" lon="14.318951989112303"><ele>568.5</ele><time>2026-05-01T16:53:29Z</time></trkpt><trkpt lat="45.861090073518675" lon="14.318999587154801"><ele>568.0</ele><time>2026-05-01T16:53:30Z</time></trkpt><trkpt lat="45.860974763282805" lon="14.319062054359451"><ele>568.25</ele><time>2026-05-01T16:53:31Z</time></trkpt><trkpt lat="45.86085956475708" lon="14.319124647563255"><ele>568.5</ele><time>2026-05-01T16:53:32Z</time></trkpt><trkpt lat="45.86075241710068" lon="14.319190277057919"><ele>568.75</ele><time>2026-05-01T16:53:33Z</time></trkpt><trkpt lat="45.86065563987377" lon="14.319273104697444"><ele>569.0</ele><time>2026-05-01T16:53:34Z</time></trkpt><trkpt lat="45.86055428624703" lon="14.319361424603915"><ele>569.0</ele><time>2026-05-01T16:53:35Z</time></trkpt><trkpt lat="45.860458482450596" lon="14.319469670513481"><ele>569.0</ele><time>2026-05-01T16:53:36Z</time></trkpt><trkpt lat="45.86035659090664" lon="14.319585530670516"><ele>569.0</ele><time>2026-05-01T16:53:37Z</time></trkpt><trkpt lat="45.86024731713404" lon="14.319677016987422"><ele>569.0</ele><time>2026-05-01T16:53:38Z</time></trkpt><trkpt lat="45.860161761021814" lon="14.319796816678702"><ele>568.6</ele><time>2026-05-01T16:53:39Z</time></trkpt><trkpt lat="45.860074946927305" lon="14.319884785160339"><ele>568.2</ele><time>2026-05-01T16:53:40Z</time></trkpt><trkpt lat="45.860003378344636" lon="14.319959437665302"><ele>567.8000000000001</ele><time>2026-05-01T16:53:41Z</time></trkpt><trkpt lat="45.85994227199262" lon="14.32007396862872"><ele>567.4</ele><time>2026-05-01T16:53:42Z</time></trkpt><trkpt lat="45.85989622593112" lon="14.320220300618338"><ele>567.0</ele><time>2026-05-01T16:53:43Z</time></trkpt><trkpt lat="45.859869812715466" lon="14.32037863622017"><ele>567.0</ele><time>2026-05-01T16:53:44Z</time></trkpt><trkpt lat="45.85983152502013" lon="14.320525984026498"><ele>567.0</ele><time>2026-05-01T16:53:45Z</time></trkpt><trkpt lat="45.859806065979136" lon="14.320683517996022"><ele>567.0</ele><time>2026-05-01T16:53:46Z</time></trkpt><trkpt lat="45.859784971707256" lon="14.320843242891558"><ele>567.0</ele><time>2026-05-01T16:53:47Z</time></trkpt><trkpt lat="45.85975828981761" lon="14.320979759155444"><ele>567.0</ele><time>2026-05-01T16:53:47.999Z</time></trkpt><trkpt lat="45.859714075164824" lon="14.321075852819094"><ele>567.4</ele><time>2026-05-01T16:53:48.999Z</time></trkpt><trkpt lat="45.859643080462654" lon="14.321148927051624"><ele>567.8000000000001</ele><time>2026-05-01T16:53:49.999Z</time></trkpt><trkpt lat="45.85955940256152" lon="14.321212142503175"><ele>568.2</ele><time>2026-05-01T16:53:50.999Z</time></trkpt><trkpt lat="45.85944520886918" lon="14.321202626246876"><ele>568.6</ele><time>2026-05-01T16:53:51.999Z</time></trkpt><trkpt lat="45.85932895322307" lon="14.321226541483123"><ele>569.0</ele><time>2026-05-01T16:53:52.999Z</time></trkpt><trkpt lat="45.85921312876913" lon="14.321168589643538"><ele>569.6</ele><time>2026-05-01T16:53:53.999Z</time></trkpt><trkpt lat="45.859078849517815" lon="14.321130232099954"><ele>570.2</ele><time>2026-05-01T16:53:54.999Z</time></trkpt><trkpt lat="45.858962963324416" lon="14.321116620453541"><ele>570.8000000000001</ele><time>2026-05-01T16:53:55.999Z</time></trkpt><trkpt lat="45.858868622030826" lon="14.321111985699382"><ele>571.4</ele><time>2026-05-01T16:53:56.999Z</time></trkpt><trkpt lat="45.85877834623338" lon="14.321115365720988"><ele>572.0</ele><time>2026-05-01T16:53:57.999Z</time></trkpt><trkpt lat="45.858686910742044" lon="14.321164697017368"><ele>572.0</ele><time>2026-05-01T16:53:58.999Z</time></trkpt><trkpt lat="45.85860040878159" lon="14.32120872160888"><ele>572.0</ele><time>2026-05-01T16:53:59.999Z</time></trkpt><trkpt lat="45.85852753677443" lon="14.321295844049105"><ele>572.0</ele><time>2026-05-01T16:54:00.999Z</time></trkpt><trkpt lat="45.85845087765716" lon="14.32140909771119"><ele>572.0</ele><time>2026-05-01T16:54:01.999Z</time></trkpt><trkpt lat="45.85835358450767" lon="14.321537034405877"><ele>572.0</ele><time>2026-05-01T16:54:02.999Z</time></trkpt><trkpt lat="45.85824733445471" lon="14.321639340061559"><ele>571.5</ele><time>2026-05-01T16:54:03.999Z</time></trkpt><trkpt lat="45.858148430032955" lon="14.321692376847073"><ele>571.0</ele><time>2026-05-01T16:54:04.999Z</time></trkpt><trkpt lat="45.85804634735106" lon="14.321688089040409"><ele>570.5</ele><time>2026-05-01T16:54:05.999Z</time></trkpt><trkpt lat="45.85791978133892" lon="14.321709231065094"><ele>570.0</ele><time>2026-05-01T16:54:06.999Z</time></trkpt><trkpt lat="45.85776266517017" lon="14.321704848279563"><ele>570.5</ele><time>2026-05-01T16:54:07.999Z</time></trkpt><trkpt lat="45.857614493184315" lon="14.321711229310823"><ele>571.0</ele><time>2026-05-01T16:54:09Z</time></trkpt><trkpt lat="45.85749556692817" lon="14.32171277545493"><ele>571.5</ele><time>2026-05-01T16:54:10Z</time></trkpt><trkpt lat="45.857390602054096" lon="14.32167893461956"><ele>572.0</ele><time>2026-05-01T16:54:11Z</time></trkpt><trkpt lat="45.85729621330944" lon="14.321724918622682"><ele>572.0</ele><time>2026-05-01T16:54:12Z</time></trkpt><trkpt lat="45.857209743150484" lon="14.321763242395788"><ele>572.0</ele><time>2026-05-01T16:54:13Z</time></trkpt><trkpt lat="45.85713156392225" lon="14.32184336166917"><ele>572.0</ele><time>2026-05-01T16:54:14Z</time></trkpt><trkpt lat="45.85705641897756" lon="14.321946887395706"><ele>572.0</ele><time>2026-05-01T16:54:15Z</time></trkpt><trkpt lat="45.85698519966217" lon="14.322071382643225"><ele>572.0</ele><time>2026-05-01T16:54:16Z</time></trkpt><trkpt lat="45.85691719303453" lon="14.322177992835492"><ele>571.8000000000001</ele><time>2026-05-01T16:54:17Z</time></trkpt><trkpt lat="45.856855794509215" lon="14.322275780496195"><ele>571.6</ele><time>2026-05-01T16:54:18Z</time></trkpt><trkpt lat="45.85680346727213" lon="14.322374211368977"><ele>571.4000000000001</ele><time>2026-05-01T16:54:19Z</time></trkpt><trkpt lat="45.856759117316834" lon="14.322491974390054"><ele>571.2</ele><time>2026-05-01T16:54:20Z</time></trkpt><trkpt lat="45.85672179760263" lon="14.322628819126187"><ele>571.0</ele><time>2026-05-01T16:54:21Z</time></trkpt><trkpt lat="45.85669690368579" lon="14.322778578620134"><ele>572.0</ele><time>2026-05-01T16:54:22Z</time></trkpt><trkpt lat="45.856642272364155" lon="14.322924700396998"><ele>573.0</ele><time>2026-05-01T16:54:23Z</time></trkpt><trkpt lat="45.85658650376423" lon="14.323076365561443"><ele>574.0</ele><time>2026-05-01T16:54:24Z</time></trkpt><trkpt lat="45.856523548878656" lon="14.32324029867376"><ele>575.0</ele><time>2026-05-01T16:54:25Z</time></trkpt><trkpt lat="45.856441612356676" lon="14.323444863604907"><ele>575.0</ele><time>2026-05-01T16:54:26Z</time></trkpt><trkpt lat="45.85637257187547" lon="14.323614535652618"><ele>575.0</ele><time>2026-05-01T16:54:27Z</time></trkpt><trkpt lat="45.856317649394065" lon="14.323748320774332"><ele>575.0</ele><time>2026-05-01T16:54:28Z</time></trkpt><trkpt lat="45.85625732950239" lon="14.3238932675886"><ele>575.0</ele><time>2026-05-01T16:54:29Z</time></trkpt><trkpt lat="45.856198136193775" lon="14.32403332657645"><ele>575.0</ele><time>2026-05-01T16:54:30Z</time></trkpt><trkpt lat="45.85614791801275" lon="14.324180965310854"><ele>575.0</ele><time>2026-05-01T16:54:31Z</time></trkpt><trkpt lat="45.8560893858851" lon="14.32429633120827"><ele>575.0</ele><time>2026-05-01T16:54:32Z</time></trkpt><trkpt lat="45.856017818941595" lon="14.324396443319639"><ele>575.0</ele><time>2026-05-01T16:54:33Z</time></trkpt><trkpt lat="45.85596348572184" lon="14.324529324899812"><ele>575.0</ele><time>2026-05-01T16:54:34Z</time></trkpt><trkpt lat="45.85589831128941" lon="14.324665615903111"><ele>574.8</ele><time>2026-05-01T16:54:35Z</time></trkpt><trkpt lat="45.85586226887191" lon="14.324817232120374"><ele>574.6</ele><time>2026-05-01T16:54:36Z</time></trkpt><trkpt lat="45.85583525447688" lon="14.324971909798256"><ele>574.4</ele><time>2026-05-01T16:54:37Z</time></trkpt><trkpt lat="45.85580282502533" lon="14.325112310898929"><ele>574.2</ele><time>2026-05-01T16:54:38Z</time></trkpt><trkpt lat="45.85576569670014" lon="14.325259007503824"><ele>574.0</ele><time>2026-05-01T16:54:39Z</time></trkpt><trkpt lat="45.855721522967734" lon="14.325411998109542"><ele>574.25</ele><time>2026-05-01T16:54:40Z</time></trkpt><trkpt lat="45.85567256950664" lon="14.325568291437907"><ele>574.5</ele><time>2026-05-01T16:54:41Z</time></trkpt><trkpt lat="45.855619495888796" lon="14.32572548770933"><ele>574.75</ele><time>2026-05-01T16:54:42Z</time></trkpt><trkpt lat="45.85556286076101" lon="14.325880616735013"><ele>575.0</ele><time>2026-05-01T16:54:43Z</time></trkpt><trkpt lat="45.85548932357948" lon="14.32603025390328"><ele>575.0</ele><time>2026-05-01T16:54:44Z</time></trkpt><trkpt lat="45.85541794782883" lon="14.326169097243477"><ele>575.0</ele><time>2026-05-01T16:54:45Z</time></trkpt><trkpt lat="45.85537058064348" lon="14.326323766192607"><ele>575.0</ele><time>2026-05-01T16:54:46Z</time></trkpt><trkpt lat="45.85532659062244" lon="14.32647113288636"><ele>575.0</ele><time>2026-05-01T16:54:47Z</time></trkpt><trkpt lat="45.85525350453238" lon="14.32661767484564"><ele>575.5</ele><time>2026-05-01T16:54:48Z</time></trkpt><trkpt lat="45.85518301812643" lon="14.326750322207472"><ele>576.0</ele><time>2026-05-01T16:54:49Z</time></trkpt><trkpt lat="45.85509478153222" lon="14.326852659329953"><ele>576.5</ele><time>2026-05-01T16:54:50Z</time></trkpt><trkpt lat="45.855004779981684" lon="14.32693776653265"><ele>577.0</ele><time>2026-05-01T16:54:51Z</time></trkpt><trkpt lat="45.85488018295663" lon="14.326965532220006"><ele>577.6</ele><time>2026-05-01T16:54:52Z</time></trkpt><trkpt lat="45.854761418430094" lon="14.327003242218263"><ele>578.2</ele><time>2026-05-01T16:54:53Z</time></trkpt><trkpt lat="45.85466318844715" lon="14.327053789859965"><ele>578.8</ele><time>2026-05-01T16:54:54Z</time></trkpt><trkpt lat="45.854558708502225" lon="14.327062472668606"><ele>579.4</ele><time>2026-05-01T16:54:55Z</time></trkpt><trkpt lat="45.85444578213159" lon="14.327101647851338"><ele>580.0</ele><time>2026-05-01T16:54:56Z</time></trkpt><trkpt lat="45.85435127040815" lon="14.327157442003086"><ele>581.0</ele><time>2026-05-01T16:54:57Z</time></trkpt><trkpt lat="45.85427953900286" lon="14.327246355457913"><ele>582.0</ele><time>2026-05-01T16:54:58Z</time></trkpt><trkpt lat="45.854264683606004" lon="14.327390891187946"><ele>583.0</ele><time>2026-05-01T16:54:59Z</time></trkpt><trkpt lat="45.85425394680804" lon="14.327499426151649"><ele>584.0</ele><time>2026-05-01T16:55:00Z</time></trkpt><trkpt lat="45.854253079489794" lon="14.32761679697059"><ele>585.0</ele><time>2026-05-01T16:55:01Z</time></trkpt><trkpt lat="45.85422116801122" lon="14.32774202136992"><ele>586.0</ele><time>2026-05-01T16:55:02Z</time></trkpt><trkpt lat="45.854174228717916" lon="14.327875078736495"><ele>586.0</ele><time>2026-05-01T16:55:03Z</time></trkpt><trkpt lat="45.85412245897902" lon="14.32798334251717"><ele>586.0</ele><time>2026-05-01T16:55:04Z</time></trkpt><trkpt lat="45.85405794122718" lon="14.328119787242315"><ele>586.0</ele><time>2026-05-01T16:55:05Z</time></trkpt><trkpt lat="45.85396474699772" lon="14.328233098940542"><ele>586.0</ele><time>2026-05-01T16:55:06Z</time></trkpt><trkpt lat="45.85388112489853" lon="14.328364036997305"><ele>586.5</ele><time>2026-05-01T16:55:07Z</time></trkpt><trkpt lat="45.85379497779181" lon="14.32852225065369"><ele>587.0</ele><time>2026-05-01T16:55:08Z</time></trkpt><trkpt lat="45.85369829777457" lon="14.328626733361082"><ele>587.5</ele><time>2026-05-01T16:55:09Z</time></trkpt><trkpt lat="45.85359897964388" lon="14.328727445630182"><ele>588.0</ele><time>2026-05-01T16:55:10Z</time></trkpt><trkpt lat="45.85347755870319" lon="14.328854064355134"><ele>586.3333333333334</ele><time>2026-05-01T16:55:11Z</time></trkpt><trkpt lat="45.85333766988148" lon="14.32898905493415"><ele>584.6666666666667</ele><time>2026-05-01T16:55:12Z</time></trkpt><trkpt lat="45.853206636334576" lon="14.329112184973718"><ele>583.0</ele><time>2026-05-01T16:55:13Z</time></trkpt><trkpt lat="45.853083123639394" lon="14.329205463882902"><ele>583.0</ele><time>2026-05-01T16:55:14Z</time></trkpt><trkpt lat="45.8529638696653" lon="14.32931492934488"><ele>583.0</ele><time>2026-05-01T16:55:15Z</time></trkpt><trkpt lat="45.852834429816475" lon="14.329433744689782"><ele>583.0</ele><time>2026-05-01T16:55:16Z</time></trkpt><trkpt lat="45.85270453286191" lon="14.329553172420168"><ele>583.0</ele><time>2026-05-01T16:55:17Z</time></trkpt><trkpt lat="45.85257890445542" lon="14.3296689799544"><ele>582.6</ele><time>2026-05-01T16:55:18Z</time></trkpt><trkpt lat="45.852469219990404" lon="14.329773751406275"><ele>582.1999999999999</ele><time>2026-05-01T16:55:19Z</time></trkpt><trkpt lat="45.852384640774716" lon="14.329862933902442"><ele>581.8</ele><time>2026-05-01T16:55:20Z</time></trkpt><trkpt lat="45.8523099206112" lon="14.329945265872048"><ele>581.4</ele><time>2026-05-01T16:55:21Z</time></trkpt><trkpt lat="45.852242241832535" lon="14.33002607188937"><ele>581.0</ele><time>2026-05-01T16:55:22Z</time></trkpt><trkpt lat="45.85219588795363" lon="14.330149975520197"><ele>581.0</ele><time>2026-05-01T16:55:23Z</time></trkpt><trkpt lat="45.852160415532474" lon="14.330265989170794"><ele>581.0</ele><time>2026-05-01T16:55:24Z</time></trkpt><trkpt lat="45.85217095854427" lon="14.33039536301872"><ele>581.0</ele><time>2026-05-01T16:55:25Z</time></trkpt><trkpt lat="45.85216602550562" lon="14.330554225547196"><ele>581.0</ele><time>2026-05-01T16:55:26Z</time></trkpt><trkpt lat="45.85214816745597" lon="14.330705581803322"><ele>581.0</ele><time>2026-05-01T16:55:27Z</time></trkpt><trkpt lat="45.85211423545789" lon="14.330811801819989"><ele>581.3333333333333</ele><time>2026-05-01T16:55:27.999Z</time></trkpt><trkpt lat="45.85208730505612" lon="14.330895785781594"><ele>581.6666666666666</ele><time>2026-05-01T16:55:28.999Z</time></trkpt><trkpt lat="45.85205485879831" lon="14.33098729877799"><ele>582.0</ele><time>2026-05-01T16:55:29.999Z</time></trkpt><trkpt lat="45.852014267653836" lon="14.331089541823003"><ele>582.3333333333334</ele><time>2026-05-01T16:55:30.999Z</time></trkpt><trkpt lat="45.851958797712776" lon="14.331216143329687"><ele>582.6666666666667</ele><time>2026-05-01T16:55:31.999Z</time></trkpt><trkpt lat="45.85188799112664" lon="14.331322281831142"><ele>583.0</ele><time>2026-05-01T16:55:32.999Z</time></trkpt><trkpt lat="45.85180501138778" lon="14.331444648497632"><ele>584.0</ele><time>2026-05-01T16:55:33.999Z</time></trkpt><trkpt lat="45.85170408528524" lon="14.331567447499065"><ele>585.0</ele><time>2026-05-01T16:55:34.999Z</time></trkpt><trkpt lat="45.85160594360986" lon="14.331664074053903"><ele>586.0</ele><time>2026-05-01T16:55:35.999Z</time></trkpt><trkpt lat="45.851509286095215" lon="14.331693787495858"><ele>587.0</ele><time>2026-05-01T16:55:36.999Z</time></trkpt><trkpt lat="45.85142423476975" lon="14.331699077713504"><ele>588.0</ele><time>2026-05-01T16:55:37.999Z</time></trkpt><trkpt lat="45.85131393311908" lon="14.331729189891178"><ele>588.0</ele><time>2026-05-01T16:55:38.999Z</time></trkpt><trkpt lat="45.85119745393051" lon="14.331746898746648"><ele>588.0</ele><time>2026-05-01T16:55:39.999Z</time></trkpt><trkpt lat="45.85110209844478" lon="14.33176567088326"><ele>588.0</ele><time>2026-05-01T16:55:40.999Z</time></trkpt><trkpt lat="45.85102722542546" lon="14.331802015938576"><ele>588.0</ele><time>2026-05-01T16:55:41.999Z</time></trkpt><trkpt lat="45.85091802842901" lon="14.331855845716728"><ele>588.0</ele><time>2026-05-01T16:55:43.999Z</time></trkpt><trkpt lat="45.850877193644614" lon="14.331731542654673"><ele>588.5</ele><time>2026-05-01T16:55:45.999Z</time></trkpt><trkpt lat="45.850799664404" lon="14.331562717391241"><ele>589.0</ele><time>2026-05-01T16:55:47.999Z</time></trkpt><trkpt lat="45.85076482147583" lon="14.331400221420378"><ele>589.5</ele><time>2026-05-01T16:55:48.999Z</time></trkpt><trkpt lat="45.85072168415741" lon="14.331205003523058"><ele>590.0</ele><time>2026-05-01T16:55:49.999Z</time></trkpt><trkpt lat="45.850673489566255" lon="14.331031430691732"><ele>590.0</ele><time>2026-05-01T16:55:50.999Z</time></trkpt><trkpt lat="45.850642450028744" lon="14.330880120922783"><ele>590.0</ele><time>2026-05-01T16:55:51.999Z</time></trkpt><trkpt lat="45.850602598126464" lon="14.330742208321567"><ele>590.0</ele><time>2026-05-01T16:55:52.999Z</time></trkpt><trkpt lat="45.85058397275276" lon="14.330599600815912"><ele>590.0</ele><time>2026-05-01T16:55:53.999Z</time></trkpt><trkpt lat="45.85055480095418" lon="14.330486320581079"><ele>590.0</ele><time>2026-05-01T16:55:54.999Z</time></trkpt><trkpt lat="45.8503407865104" lon="14.330495451701234"><ele>589.4</ele><time>2026-05-01T16:55:55.999Z</time></trkpt><trkpt lat="45.85023480436275" lon="14.330464000346186"><ele>588.8</ele><time>2026-05-01T16:55:56.999Z</time></trkpt><trkpt lat="45.850124204909235" lon="14.33042864017788"><ele>588.2</ele><time>2026-05-01T16:55:57.999Z</time></trkpt><trkpt lat="45.85002279093062" lon="14.330377579585464"><ele>587.6</ele><time>2026-05-01T16:55:58.999Z</time></trkpt><trkpt lat="45.84992964916757" lon="14.330322978310306"><ele>587.0</ele><time>2026-05-01T16:55:59.999Z</time></trkpt><trkpt lat="45.849851432364936" lon="14.330258805229143"><ele>588.5</ele><time>2026-05-01T16:56:00.999Z</time></trkpt><trkpt lat="45.84981142189179" lon="14.33010850875263"><ele>590.0</ele><time>2026-05-01T16:56:01.999Z</time></trkpt><trkpt lat="45.84978894444349" lon="14.329953952448326"><ele>591.5</ele><time>2026-05-01T16:56:02.999Z</time></trkpt><trkpt lat="45.849755313354784" lon="14.32978473846821"><ele>593.0</ele><time>2026-05-01T16:56:03.999Z</time></trkpt><trkpt lat="45.849707923087614" lon="14.32961003018426"><ele>593.0</ele><time>2026-05-01T16:56:04.999Z</time></trkpt><trkpt lat="45.84964401895382" lon="14.329469867598299"><ele>593.0</ele><time>2026-05-01T16:56:05.999Z</time></trkpt><trkpt lat="45.849593271004196" lon="14.32933611091037"><ele>593.0</ele><time>2026-05-01T16:56:06.999Z</time></trkpt><trkpt lat="45.84953518485613" lon="14.329227471595036"><ele>593.0</ele><time>2026-05-01T16:56:07.999Z</time></trkpt><trkpt lat="45.84946065190445" lon="14.329148694309508"><ele>593.0</ele><time>2026-05-01T16:56:08.999Z</time></trkpt><trkpt lat="45.84937114084323" lon="14.329086064161121"><ele>594.75</ele><time>2026-05-01T16:56:09.999Z</time></trkpt><trkpt lat="45.84925807492044" lon="14.329036950156926"><ele>596.5</ele><time>2026-05-01T16:56:10.999Z</time></trkpt><trkpt lat="45.84913736861029" lon="14.32896158559361"><ele>598.25</ele><time>2026-05-01T16:56:11.999Z</time></trkpt><trkpt lat="45.84899149204338" lon="14.328919656454447"><ele>600.0</ele><time>2026-05-01T16:56:12.999Z</time></trkpt><trkpt lat="45.848845015837554" lon="14.328867551629422"><ele>600.75</ele><time>2026-05-01T16:56:13.999Z</time></trkpt><trkpt lat="45.848718934453224" lon="14.328818072738326"><ele>601.5</ele><time>2026-05-01T16:56:15Z</time></trkpt><trkpt lat="45.848609625252905" lon="14.32877189166852"><ele>602.25</ele><time>2026-05-01T16:56:16Z</time></trkpt><trkpt lat="45.84850278629681" lon="14.328690047514533"><ele>603.0</ele><time>2026-05-01T16:56:17Z</time></trkpt><trkpt lat="45.84839133711584" lon="14.328597094871556"><ele>604.25</ele><time>2026-05-01T16:56:18Z</time></trkpt><trkpt lat="45.848296828912275" lon="14.328502326885483"><ele>605.5</ele><time>2026-05-01T16:56:19Z</time></trkpt><trkpt lat="45.848177109922645" lon="14.328401507582749"><ele>606.75</ele><time>2026-05-01T16:56:20Z</time></trkpt><trkpt lat="45.8480403279489" lon="14.328289184387613"><ele>608.0</ele><time>2026-05-01T16:56:21Z</time></trkpt><trkpt lat="45.84790363913161" lon="14.328175111984786"><ele>608.0</ele><time>2026-05-01T16:56:22Z</time></trkpt><trkpt lat="45.84779756119035" lon="14.328084636792086"><ele>608.0</ele><time>2026-05-01T16:56:23Z</time></trkpt><trkpt lat="45.84771623482115" lon="14.328011737852496"><ele>608.0</ele><time>2026-05-01T16:56:24Z</time></trkpt><trkpt lat="45.847635746342576" lon="14.327947728566981"><ele>608.0</ele><time>2026-05-01T16:56:25Z</time></trkpt><trkpt lat="45.847544030234445" lon="14.327926061674685"><ele>608.0</ele><time>2026-05-01T16:56:26Z</time></trkpt><trkpt lat="45.847450827957495" lon="14.327905104000983"><ele>607.8</ele><time>2026-05-01T16:56:27Z</time></trkpt><trkpt lat="45.847361732579145" lon="14.32795927946801"><ele>607.5999999999999</ele><time>2026-05-01T16:56:28Z</time></trkpt><trkpt lat="45.84727635252001" lon="14.328026295917834"><ele>607.4000000000001</ele><time>2026-05-01T16:56:29Z</time></trkpt><trkpt lat="45.847192120651755" lon="14.328105645604472"><ele>607.2</ele><time>2026-05-01T16:56:30Z</time></trkpt><trkpt lat="45.84709989554949" lon="14.328183118945859"><ele>607.0</ele><time>2026-05-01T16:56:31Z</time></trkpt><trkpt lat="45.847003840218484" lon="14.328274727791307"><ele>607.0</ele><time>2026-05-01T16:56:32Z</time></trkpt><trkpt lat="45.84689249333295" lon="14.32834162567531"><ele>607.0</ele><time>2026-05-01T16:56:33Z</time></trkpt><trkpt lat="45.84678557265738" lon="14.328423902103436"><ele>607.0</ele><time>2026-05-01T16:56:34Z</time></trkpt><trkpt lat="45.84667750947181" lon="14.328508621393906"><ele>607.0</ele><time>2026-05-01T16:56:35Z</time></trkpt><trkpt lat="45.84657025686434" lon="14.328584626504682"><ele>607.0</ele><time>2026-05-01T16:56:36Z</time></trkpt><trkpt lat="45.84645665565965" lon="14.328661471559046"><ele>607.0</ele><time>2026-05-01T16:56:37Z</time></trkpt><trkpt lat="45.84636159331391" lon="14.328741185732433"><ele>607.0</ele><time>2026-05-01T16:56:38Z</time></trkpt><trkpt lat="45.84629824165338" lon="14.32884397202716"><ele>607.0</ele><time>2026-05-01T16:56:39Z</time></trkpt><trkpt lat="45.846236587434" lon="14.3289328132778"><ele>607.0</ele><time>2026-05-01T16:56:40Z</time></trkpt><trkpt lat="45.84618722033737" lon="14.329051036494391"><ele>607.0</ele><time>2026-05-01T16:56:41Z</time></trkpt><trkpt lat="45.846150547983925" lon="14.329189182899723"><ele>607.0</ele><time>2026-05-01T16:56:42Z</time></trkpt><trkpt lat="45.84611708941293" lon="14.329336508189899"><ele>607.0</ele><time>2026-05-01T16:56:43Z</time></trkpt><trkpt lat="45.846058504546704" lon="14.3294816396019"><ele>607.0</ele><time>2026-05-01T16:56:44Z</time></trkpt><trkpt lat="45.846012112253064" lon="14.32962405006388"><ele>607.0</ele><time>2026-05-01T16:56:45Z</time></trkpt><trkpt lat="45.84596936442571" lon="14.329749201911365"><ele>608.3333333333334</ele><time>2026-05-01T16:56:46Z</time></trkpt><trkpt lat="45.845943056001616" lon="14.329877542417224"><ele>609.6666666666667</ele><time>2026-05-01T16:56:47Z</time></trkpt><trkpt lat="45.84588630735679" lon="14.329986909116588"><ele>611.0</ele><time>2026-05-01T16:56:48Z</time></trkpt><trkpt lat="45.84584253463761" lon="14.330090877641643"><ele>612.3333333333334</ele><time>2026-05-01T16:56:49Z</time></trkpt><trkpt lat="45.84576896200471" lon="14.330168866529288"><ele>613.6666666666666</ele><time>2026-05-01T16:56:50Z</time></trkpt><trkpt lat="45.845694260526706" lon="14.330225814842851"><ele>615.0</ele><time>2026-05-01T16:56:51Z</time></trkpt><trkpt lat="45.84560403350815" lon="14.3302573405087"><ele>615.0</ele><time>2026-05-01T16:56:52Z</time></trkpt><trkpt lat="45.84551283648496" lon="14.330281305321416"><ele>615.0</ele><time>2026-05-01T16:56:53Z</time></trkpt><trkpt lat="45.845418069717574" lon="14.330306374994338"><ele>615.0</ele><time>2026-05-01T16:56:54Z</time></trkpt><trkpt lat="45.84533095817756" lon="14.330306446968553"><ele>615.0</ele><time>2026-05-01T16:56:55Z</time></trkpt><trkpt lat="45.845232669754694" lon="14.330298417069603"><ele>615.0</ele><time>2026-05-01T16:56:56Z</time></trkpt><trkpt lat="45.84513671135397" lon="14.330294745682338"><ele>615.0</ele><time>2026-05-01T16:56:57Z</time></trkpt><trkpt lat="45.845045705384" lon="14.330271613039939"><ele>615.0</ele><time>2026-05-01T16:56:58Z</time></trkpt><trkpt lat="45.844942710351496" lon="14.330228589478203"><ele>615.0</ele><time>2026-05-01T16:56:59Z</time></trkpt><trkpt lat="45.84483291830444" lon="14.330189170267019"><ele>615.0</ele><time>2026-05-01T16:57:00Z</time></trkpt><trkpt lat="45.84472229407847" lon="14.330151660197654"><ele>615.0</ele><time>2026-05-01T16:57:01Z</time></trkpt><trkpt lat="45.84461596763672" lon="14.330109279457673"><ele>615.0</ele><time>2026-05-01T16:57:02Z</time></trkpt><trkpt lat="45.84451375579083" lon="14.330085922788866"><ele>615.0</ele><time>2026-05-01T16:57:03Z</time></trkpt><trkpt lat="45.84440073251158" lon="14.330092179967062"><ele>615.0</ele><time>2026-05-01T16:57:04Z</time></trkpt><trkpt lat="45.84428876228632" lon="14.330099794668975"><ele>615.0</ele><time>2026-05-01T16:57:05Z</time></trkpt><trkpt lat="45.844180174473934" lon="14.330122139474792"><ele>615.0</ele><time>2026-05-01T16:57:06Z</time></trkpt><trkpt lat="45.84405311055215" lon="14.330151201971928"><ele>615.2</ele><time>2026-05-01T16:57:07Z</time></trkpt><trkpt lat="45.84393034633676" lon="14.330173563541626"><ele>615.4</ele><time>2026-05-01T16:57:08Z</time></trkpt><trkpt lat="45.843823153998585" lon="14.33019219409058"><ele>615.6</ele><time>2026-05-01T16:57:09Z</time></trkpt><trkpt lat="45.843715738198775" lon="14.330210866009375"><ele>615.8</ele><time>2026-05-01T16:57:10Z</time></trkpt><trkpt lat="45.84360902988831" lon="14.330231895935484"><ele>616.0</ele><time>2026-05-01T16:57:11Z</time></trkpt><trkpt lat="45.843499967196394" lon="14.330254850256932"><ele>617.8</ele><time>2026-05-01T16:57:12Z</time></trkpt><trkpt lat="45.84340351618397" lon="14.330272992873446"><ele>619.6</ele><time>2026-05-01T16:57:13Z</time></trkpt><trkpt lat="45.84331630494181" lon="14.330282509245796"><ele>621.4</ele><time>2026-05-01T16:57:14Z</time></trkpt><trkpt lat="45.843265226049866" lon="14.330161267256504"><ele>623.2</ele><time>2026-05-01T16:57:15Z</time></trkpt><trkpt lat="45.84319667022183" lon="14.330113011061849"><ele>625.0</ele><time>2026-05-01T16:57:16Z</time></trkpt><trkpt lat="45.843120661376" lon="14.32997141556269"><ele>625.0</ele><time>2026-05-01T16:57:18Z</time></trkpt><trkpt lat="45.84307854326211" lon="14.329832646261956"><ele>625.0</ele><time>2026-05-01T16:57:19Z</time></trkpt><trkpt lat="45.843050429883554" lon="14.32968251224463"><ele>625.0</ele><time>2026-05-01T16:57:20Z</time></trkpt><trkpt lat="45.843028191192715" lon="14.32956064372535"><ele>625.0</ele><time>2026-05-01T16:57:21Z</time></trkpt><trkpt lat="45.84296080769478" lon="14.329445309360251"><ele>625.0</ele><time>2026-05-01T16:57:22Z</time></trkpt><trkpt lat="45.84289840458982" lon="14.329352723103995"><ele>625.8</ele><time>2026-05-01T16:57:23Z</time></trkpt><trkpt lat="45.8428276958189" lon="14.329260294497352"><ele>626.6</ele><time>2026-05-01T16:57:24Z</time></trkpt><trkpt lat="45.84275261149349" lon="14.32917627228915"><ele>627.4</ele><time>2026-05-01T16:57:25Z</time></trkpt><trkpt lat="45.842673914725964" lon="14.329101954771474"><ele>628.2</ele><time>2026-05-01T16:57:26Z</time></trkpt><trkpt lat="45.84259648650989" lon="14.329042650807677"><ele>629.0</ele><time>2026-05-01T16:57:27Z</time></trkpt><trkpt lat="45.84251421524028" lon="14.328989714979224"><ele>630.2</ele><time>2026-05-01T16:57:28Z</time></trkpt><trkpt lat="45.842421590114405" lon="14.32894130513164"><ele>631.4</ele><time>2026-05-01T16:57:29Z</time></trkpt><trkpt lat="45.84231850199933" lon="14.32890259893577"><ele>632.6</ele><time>2026-05-01T16:57:29.999Z</time></trkpt><trkpt lat="45.842211066430245" lon="14.328883920161486"><ele>633.8</ele><time>2026-05-01T16:57:30.999Z</time></trkpt><trkpt lat="45.84209946351226" lon="14.328889273544105"><ele>635.0</ele><time>2026-05-01T16:57:31.999Z</time></trkpt><trkpt lat="45.84199056083274" lon="14.328935698824912"><ele>635.0</ele><time>2026-05-01T16:57:32.999Z</time></trkpt><trkpt lat="45.84188878868077" lon="14.329014796570416"><ele>635.0</ele><time>2026-05-01T16:57:33.999Z</time></trkpt><trkpt lat="45.84179782722373" lon="14.329097281137258"><ele>635.0</ele><time>2026-05-01T16:57:34.999Z</time></trkpt><trkpt lat="45.841711238808315" lon="14.329176978843252"><ele>635.0</ele><time>2026-05-01T16:57:35.999Z</time></trkpt><trkpt lat="45.84162233060099" lon="14.329251314445642"><ele>635.0</ele><time>2026-05-01T16:57:36.999Z</time></trkpt><trkpt lat="45.841526714844115" lon="14.32930405609958"><ele>635.6</ele><time>2026-05-01T16:57:37.999Z</time></trkpt><trkpt lat="45.8414193180821" lon="14.329324820213087"><ele>636.2</ele><time>2026-05-01T16:57:38.999Z</time></trkpt><trkpt lat="45.84132243888006" lon="14.329303450916186"><ele>636.8</ele><time>2026-05-01T16:57:39.999Z</time></trkpt><trkpt lat="45.84122604481075" lon="14.329297109156396"><ele>637.4</ele><time>2026-05-01T16:57:40.999Z</time></trkpt><trkpt lat="45.84112563311972" lon="14.329280910514436"><ele>638.0</ele><time>2026-05-01T16:57:41.999Z</time></trkpt><trkpt lat="45.84101628354824" lon="14.3292565393425"><ele>638.4</ele><time>2026-05-01T16:57:42.999Z</time></trkpt><trkpt lat="45.84090488777081" lon="14.329232912734923"><ele>638.8</ele><time>2026-05-01T16:57:43.999Z</time></trkpt><trkpt lat="45.8408064356062" lon="14.329227709678621"><ele>639.2</ele><time>2026-05-01T16:57:44.999Z</time></trkpt><trkpt lat="45.840720363620896" lon="14.329238743863842"><ele>639.6</ele><time>2026-05-01T16:57:45.999Z</time></trkpt><trkpt lat="45.84062818295473" lon="14.329282714533775"><ele>640.0</ele><time>2026-05-01T16:57:46.999Z</time></trkpt><trkpt lat="45.8405491226206" lon="14.329370126489392"><ele>640.0</ele><time>2026-05-01T16:57:47.999Z</time></trkpt><trkpt lat="45.8404834745196" lon="14.329478327552517"><ele>640.0</ele><time>2026-05-01T16:57:48.999Z</time></trkpt><trkpt lat="45.84041970645057" lon="14.32960977240148"><ele>640.0</ele><time>2026-05-01T16:57:49.999Z</time></trkpt><trkpt lat="45.840349403079095" lon="14.329757910945435"><ele>640.0</ele><time>2026-05-01T16:57:50.999Z</time></trkpt><trkpt lat="45.84028298600734" lon="14.329923103285854"><ele>640.0</ele><time>2026-05-01T16:57:51.999Z</time></trkpt><trkpt lat="45.840194549045066" lon="14.330065936047047"><ele>640.0</ele><time>2026-05-01T16:57:52.999Z</time></trkpt><trkpt lat="45.840133352735684" lon="14.33023342461997"><ele>640.0</ele><time>2026-05-01T16:57:53.999Z</time></trkpt><trkpt lat="45.84005932551257" lon="14.3303911880118"><ele>640.0</ele><time>2026-05-01T16:57:54.999Z</time></trkpt><trkpt lat="45.839984900816894" lon="14.330545769302832"><ele>640.5</ele><time>2026-05-01T16:57:55.999Z</time></trkpt><trkpt lat="45.83991285176979" lon="14.330701298696233"><ele>641.0</ele><time>2026-05-01T16:57:56.999Z</time></trkpt><trkpt lat="45.83984816998343" lon="14.330832748748481"><ele>641.5</ele><time>2026-05-01T16:57:57.999Z</time></trkpt><trkpt lat="45.839786109822775" lon="14.330961869673498"><ele>642.0</ele><time>2026-05-01T16:57:58.999Z</time></trkpt><trkpt lat="45.8397219660475" lon="14.331110853781622"><ele>642.0</ele><time>2026-05-01T16:57:59.999Z</time></trkpt><trkpt lat="45.83964533914204" lon="14.331231169137565"><ele>642.0</ele><time>2026-05-01T16:58:00.999Z</time></trkpt><trkpt lat="45.83958987205916" lon="14.331328198066021"><ele>642.0</ele><time>2026-05-01T16:58:01.999Z</time></trkpt><trkpt lat="45.83952683154352" lon="14.331420374135277"><ele>642.0</ele><time>2026-05-01T16:58:02.999Z</time></trkpt><trkpt lat="45.83945292358661" lon="14.331506497134033"><ele>642.0</ele><time>2026-05-01T16:58:03.999Z</time></trkpt><trkpt lat="45.83937442774082" lon="14.331570254013307"><ele>643.4000000000001</ele><time>2026-05-01T16:58:04.999Z</time></trkpt><trkpt lat="45.83927422486669" lon="14.33160143495121"><ele>644.8000000000001</ele><time>2026-05-01T16:58:05.999Z</time></trkpt><trkpt lat="45.83915916677159" lon="14.331658730049888"><ele>646.2</ele><time>2026-05-01T16:58:06.999Z</time></trkpt><trkpt lat="45.83905152478757" lon="14.331721999005634"><ele>647.6</ele><time>2026-05-01T16:58:07.999Z</time></trkpt><trkpt lat="45.83896144567858" lon="14.331787377601499"><ele>649.0</ele><time>2026-05-01T16:58:08.999Z</time></trkpt><trkpt lat="45.838871708087424" lon="14.331794128061574"><ele>649.0</ele><time>2026-05-01T16:58:09.999Z</time></trkpt><trkpt lat="45.83877632460304" lon="14.331745438090614"><ele>649.0</ele><time>2026-05-01T16:58:10.999Z</time></trkpt><trkpt lat="45.838684275828975" lon="14.331690104671692"><ele>649.0</ele><time>2026-05-01T16:58:11.999Z</time></trkpt><trkpt lat="45.838582741841954" lon="14.331653360436793"><ele>649.0</ele><time>2026-05-01T16:58:12.999Z</time></trkpt><trkpt lat="45.8384727588888" lon="14.331648856258102"><ele>649.0</ele><time>2026-05-01T16:58:13.999Z</time></trkpt><trkpt lat="45.8383886566755" lon="14.331661065450826"><ele>648.8000000000001</ele><time>2026-05-01T16:58:14.999Z</time></trkpt><trkpt lat="45.83831391503183" lon="14.331688334626007"><ele>648.6</ele><time>2026-05-01T16:58:15.999Z</time></trkpt><trkpt lat="45.83825866819525" lon="14.331809676875393"><ele>648.4</ele><time>2026-05-01T16:58:16.999Z</time></trkpt><trkpt lat="45.83817417964846" lon="14.331857192603966"><ele>648.2</ele><time>2026-05-01T16:58:17.999Z</time></trkpt><trkpt lat="45.83811927758977" lon="14.331975233528274"><ele>648.0</ele><time>2026-05-01T16:58:18.999Z</time></trkpt><trkpt lat="45.83806457514927" lon="14.332106095604685"><ele>647.5999999999999</ele><time>2026-05-01T16:58:20Z</time></trkpt><trkpt lat="45.83801626275722" lon="14.332248555807606"><ele>647.1999999999999</ele><time>2026-05-01T16:58:21Z</time></trkpt><trkpt lat="45.837940969643036" lon="14.332361193712487"><ele>646.8</ele><time>2026-05-01T16:58:22Z</time></trkpt><trkpt lat="45.8378843821109" lon="14.332466022008706"><ele>646.4</ele><time>2026-05-01T16:58:23Z</time></trkpt><trkpt lat="45.837826630379766" lon="14.332550629680503"><ele>646.0</ele><time>2026-05-01T16:58:24Z</time></trkpt><trkpt lat="45.83777362037929" lon="14.33261150846283"><ele>646.0</ele><time>2026-05-01T16:58:25Z</time></trkpt><trkpt lat="45.83769909682965" lon="14.332631701449053"><ele>646.0</ele><time>2026-05-01T16:58:26Z</time></trkpt><trkpt lat="45.83761344903639" lon="14.332649000349305"><ele>646.0</ele><time>2026-05-01T16:58:27Z</time></trkpt><trkpt lat="45.837531529765506" lon="14.332633482434955"><ele>646.0</ele><time>2026-05-01T16:58:28Z</time></trkpt><trkpt lat="45.83743569530005" lon="14.332613964156415"><ele>646.0</ele><time>2026-05-01T16:58:29Z</time></trkpt><trkpt lat="45.83733933674023" lon="14.332577527059586"><ele>646.0</ele><time>2026-05-01T16:58:30Z</time></trkpt><trkpt lat="45.83724952277739" lon="14.33253954055284"><ele>647.4</ele><time>2026-05-01T16:58:31Z</time></trkpt><trkpt lat="45.83717337732558" lon="14.332452919280277"><ele>648.8</ele><time>2026-05-01T16:58:32Z</time></trkpt><trkpt lat="45.83710142662089" lon="14.332341599175416"><ele>650.1999999999999</ele><time>2026-05-01T16:58:33Z</time></trkpt><trkpt lat="45.83702680687014" lon="14.332231222796135"><ele>651.5999999999999</ele><time>2026-05-01T16:58:34Z</time></trkpt><trkpt lat="45.836941700043276" lon="14.33211511610431"><ele>653.0</ele><time>2026-05-01T16:58:35Z</time></trkpt><trkpt lat="45.83684147461701" lon="14.331988913837124"><ele>653.75</ele><time>2026-05-01T16:58:36Z</time></trkpt><trkpt lat="45.83672996834363" lon="14.331828103163632"><ele>654.5</ele><time>2026-05-01T16:58:37Z</time></trkpt><trkpt lat="45.83662402400101" lon="14.33167953566978"><ele>655.25</ele><time>2026-05-01T16:58:38Z</time></trkpt><trkpt lat="45.83652587230144" lon="14.331552616151717"><ele>656.0</ele><time>2026-05-01T16:58:39Z</time></trkpt><trkpt lat="45.83642913730808" lon="14.331412538257524"><ele>657.5</ele><time>2026-05-01T16:58:40Z</time></trkpt><trkpt lat="45.83632722252322" lon="14.331339583976689"><ele>659.0</ele><time>2026-05-01T16:58:41Z</time></trkpt><trkpt lat="45.83622693314658" lon="14.331297399302004"><ele>660.5</ele><time>2026-05-01T16:58:42Z</time></trkpt><trkpt lat="45.836120438543695" lon="14.331271100546765"><ele>662.0</ele><time>2026-05-01T16:58:43Z</time></trkpt><trkpt lat="45.835991945972914" lon="14.331315178799635"><ele>660.75</ele><time>2026-05-01T16:58:44Z</time></trkpt><trkpt lat="45.83586852793796" lon="14.331355231829102"><ele>659.5</ele><time>2026-05-01T16:58:45Z</time></trkpt><trkpt lat="45.83574902136125" lon="14.33136589926524"><ele>658.25</ele><time>2026-05-01T16:58:46Z</time></trkpt><trkpt lat="45.8356374118684" lon="14.331357724355648"><ele>657.0</ele><time>2026-05-01T16:58:47Z</time></trkpt><trkpt lat="45.835518730159194" lon="14.331341379059417"><ele>657.0</ele><time>2026-05-01T16:58:48Z</time></trkpt><trkpt lat="45.835406790015995" lon="14.33131496150806"><ele>657.0</ele><time>2026-05-01T16:58:49Z</time></trkpt><trkpt lat="45.835275084704314" lon="14.331278698621835"><ele>657.0</ele><time>2026-05-01T16:58:50Z</time></trkpt><trkpt lat="45.83515181134846" lon="14.33124460451854"><ele>657.0</ele><time>2026-05-01T16:58:51Z</time></trkpt><trkpt lat="45.83503591099814" lon="14.331236877914703"><ele>657.2</ele><time>2026-05-01T16:58:52Z</time></trkpt><trkpt lat="45.83492630107143" lon="14.331206984875802"><ele>657.4000000000001</ele><time>2026-05-01T16:58:53Z</time></trkpt><trkpt lat="45.834829189576226" lon="14.3312087481401"><ele>657.5999999999999</ele><time>2026-05-01T16:58:54Z</time></trkpt><trkpt lat="45.834716133360395" lon="14.331218737113904"><ele>657.8</ele><time>2026-05-01T16:58:55Z</time></trkpt><trkpt lat="45.834618335060874" lon="14.331288204564766"><ele>658.0</ele><time>2026-05-01T16:58:56Z</time></trkpt><trkpt lat="45.83454621098524" lon="14.331392830227365"><ele>658.0</ele><time>2026-05-01T16:58:57Z</time></trkpt><trkpt lat="45.834511484731856" lon="14.331552590760982"><ele>658.0</ele><time>2026-05-01T16:58:58Z</time></trkpt><trkpt lat="45.83443920114267" lon="14.331715986346373"><ele>658.0</ele><time>2026-05-01T16:58:59Z</time></trkpt><trkpt lat="45.83435258254745" lon="14.331854694345848"><ele>658.0</ele><time>2026-05-01T16:59:00Z</time></trkpt><trkpt lat="45.83429535064116" lon="14.33198834920905"><ele>659.2</ele><time>2026-05-01T16:59:01Z</time></trkpt><trkpt lat="45.834215061017275" lon="14.332067070188796"><ele>660.4</ele><time>2026-05-01T16:59:02Z</time></trkpt><trkpt lat="45.83413389672334" lon="14.332153331756302"><ele>661.6</ele><time>2026-05-01T16:59:03Z</time></trkpt><trkpt lat="45.834034775208664" lon="14.332245743073274"><ele>662.8000000000001</ele><time>2026-05-01T16:59:04Z</time></trkpt><trkpt lat="45.83392628174857" lon="14.33234631024978"><ele>664.0</ele><time>2026-05-01T16:59:05Z</time></trkpt><trkpt lat="45.83383075511976" lon="14.332435995344543"><ele>664.25</ele><time>2026-05-01T16:59:06Z</time></trkpt><trkpt lat="45.833739146465255" lon="14.332514423125506"><ele>664.5</ele><time>2026-05-01T16:59:07Z</time></trkpt><trkpt lat="45.833647159105766" lon="14.332613140145275"><ele>664.75</ele><time>2026-05-01T16:59:08Z</time></trkpt><trkpt lat="45.83355592891804" lon="14.332743168163745"><ele>665.0</ele><time>2026-05-01T16:59:09Z</time></trkpt><trkpt lat="45.83346696855083" lon="14.332890941889614"><ele>662.0</ele><time>2026-05-01T16:59:10Z</time></trkpt><trkpt lat="45.83337945356775" lon="14.333067225946138"><ele>659.0</ele><time>2026-05-01T16:59:11Z</time></trkpt><trkpt lat="45.83327867361727" lon="14.333259623348418"><ele>656.0</ele><time>2026-05-01T16:59:12Z</time></trkpt><trkpt lat="45.83316595948202" lon="14.333425005830899"><ele>656.0</ele><time>2026-05-01T16:59:13Z</time></trkpt><trkpt lat="45.8330645757588" lon="14.333603048204868"><ele>656.0</ele><time>2026-05-01T16:59:14Z</time></trkpt><trkpt lat="45.83296664182845" lon="14.333779968869022"><ele>656.0</ele><time>2026-05-01T16:59:15Z</time></trkpt><trkpt lat="45.83287005622244" lon="14.333946534763077"><ele>656.0</ele><time>2026-05-01T16:59:16Z</time></trkpt><trkpt lat="45.832765817072925" lon="14.33411055296876"><ele>656.0</ele><time>2026-05-01T16:59:17Z</time></trkpt><trkpt lat="45.83266383390449" lon="14.334260314558119"><ele>656.0</ele><time>2026-05-01T16:59:18Z</time></trkpt><trkpt lat="45.832572069512885" lon="14.334382747683563"><ele>656.0</ele><time>2026-05-01T16:59:19Z</time></trkpt><trkpt lat="45.832470763613465" lon="14.334453923735923"><ele>656.0</ele><time>2026-05-01T16:59:20Z</time></trkpt><trkpt lat="45.83237782578827" lon="14.334557111212396"><ele>656.0</ele><time>2026-05-01T16:59:21Z</time></trkpt><trkpt lat="45.832300565661" lon="14.334679232365074"><ele>656.0</ele><time>2026-05-01T16:59:22Z</time></trkpt><trkpt lat="45.83222672715339" lon="14.33482547117182"><ele>656.0</ele><time>2026-05-01T16:59:23Z</time></trkpt><trkpt lat="45.83216346039994" lon="14.33500936078769"><ele>655.75</ele><time>2026-05-01T16:59:24Z</time></trkpt><trkpt lat="45.832108364243645" lon="14.33519424943263"><ele>655.5</ele><time>2026-05-01T16:59:25Z</time></trkpt><trkpt lat="45.83206293207821" lon="14.335398742063239"><ele>655.25</ele><time>2026-05-01T16:59:25.999Z</time></trkpt><trkpt lat="45.831986116399825" lon="14.33557672777776"><ele>655.0</ele><time>2026-05-01T16:59:26.999Z</time></trkpt><trkpt lat="45.83191671033034" lon="14.335752705278159"><ele>655.0</ele><time>2026-05-01T16:59:27.999Z</time></trkpt><trkpt lat="45.831846423280105" lon="14.335923127520786"><ele>655.0</ele><time>2026-05-01T16:59:28.999Z</time></trkpt><trkpt lat="45.83177346305624" lon="14.336090609083021"><ele>655.0</ele><time>2026-05-01T16:59:29.999Z</time></trkpt><trkpt lat="45.83169682437021" lon="14.336250672205784"><ele>655.0</ele><time>2026-05-01T16:59:30.999Z</time></trkpt><trkpt lat="45.83162272443771" lon="14.336388320902858"><ele>656.25</ele><time>2026-05-01T16:59:31.999Z</time></trkpt><trkpt lat="45.83154064915952" lon="14.336517809998796"><ele>657.5</ele><time>2026-05-01T16:59:32.999Z</time></trkpt><trkpt lat="45.8314416154023" lon="14.33663379125017"><ele>658.75</ele><time>2026-05-01T16:59:33.999Z</time></trkpt><trkpt lat="45.831340315557384" lon="14.33667500310276"><ele>660.0</ele><time>2026-05-01T16:59:34.999Z</time></trkpt><trkpt lat="45.83122157319564" lon="14.336720898368272"><ele>660.0</ele><time>2026-05-01T16:59:35.999Z</time></trkpt><trkpt lat="45.83109937312145" lon="14.33676108837819"><ele>660.0</ele><time>2026-05-01T16:59:36.999Z</time></trkpt><trkpt lat="45.83097825550147" lon="14.336812916450908"><ele>660.0</ele><time>2026-05-01T16:59:37.999Z</time></trkpt><trkpt lat="45.830843714289216" lon="14.336854272372454"><ele>660.0</ele><time>2026-05-01T16:59:38.999Z</time></trkpt><trkpt lat="45.83069618875706" lon="14.336901805300364"><ele>659.0</ele><time>2026-05-01T16:59:39.999Z</time></trkpt><trkpt lat="45.830562137100735" lon="14.336955507421969"><ele>658.0</ele><time>2026-05-01T16:59:40.999Z</time></trkpt><trkpt lat="45.83043213542088" lon="14.337021154316576"><ele>657.0</ele><time>2026-05-01T16:59:41.999Z</time></trkpt><trkpt lat="45.830305343983994" lon="14.337094212550165"><ele>656.0</ele><time>2026-05-01T16:59:42.999Z</time></trkpt><trkpt lat="45.83018545454688" lon="14.337173127932326"><ele>655.5</ele><time>2026-05-01T16:59:43.999Z</time></trkpt><trkpt lat="45.8300639530062" lon="14.337250707525053"><ele>655.0</ele><time>2026-05-01T16:59:44.999Z</time></trkpt><trkpt lat="45.8299553212724" lon="14.337330112979375"><ele>654.5</ele><time>2026-05-01T16:59:45.999Z</time></trkpt><trkpt lat="45.82986234098291" lon="14.337419756152222"><ele>654.0</ele><time>2026-05-01T16:59:46.999Z</time></trkpt><trkpt lat="45.82976745950975" lon="14.337480325969814"><ele>654.0</ele><time>2026-05-01T16:59:47.999Z</time></trkpt><trkpt lat="45.82968727994612" lon="14.337552173337091"><ele>654.0</ele><time>2026-05-01T16:59:48.999Z</time></trkpt><trkpt lat="45.82960295778645" lon="14.3376435611843"><ele>654.0</ele><time>2026-05-01T16:59:49.999Z</time></trkpt><trkpt lat="45.82954391043711" lon="14.337784811022502"><ele>654.0</ele><time>2026-05-01T16:59:50.999Z</time></trkpt><trkpt lat="45.82951624939278" lon="14.337952735653358"><ele>654.0</ele><time>2026-05-01T16:59:51.999Z</time></trkpt><trkpt lat="45.82945007919828" lon="14.33808067839006"><ele>654.0</ele><time>2026-05-01T16:59:52.999Z</time></trkpt><trkpt lat="45.829391161079045" lon="14.338192036955366"><ele>654.0</ele><time>2026-05-01T16:59:53.999Z</time></trkpt><trkpt lat="45.82932532819628" lon="14.338259836397274"><ele>654.0</ele><time>2026-05-01T16:59:54.999Z</time></trkpt><trkpt lat="45.829248901009194" lon="14.338308334401706"><ele>654.0</ele><time>2026-05-01T16:59:55.999Z</time></trkpt><trkpt lat="45.82915458398909" lon="14.338351666679554"><ele>654.0</ele><time>2026-05-01T16:59:56.999Z</time></trkpt><trkpt lat="45.82905048940438" lon="14.33837563991941"><ele>654.0</ele><time>2026-05-01T16:59:57.999Z</time></trkpt><trkpt lat="45.82895204747386" lon="14.338400133737071"><ele>654.0</ele><time>2026-05-01T16:59:58.999Z</time></trkpt><trkpt lat="45.82884358319428" lon="14.33840262833394"><ele>654.0</ele><time>2026-05-01T16:59:59.999Z</time></trkpt><trkpt lat="45.828727231085296" lon="14.338432056997952"><ele>654.0</ele><time>2026-05-01T17:00:00.999Z</time></trkpt><trkpt lat="45.8286083066491" lon="14.338503301713745"><ele>654.0</ele><time>2026-05-01T17:00:01.999Z</time></trkpt><trkpt lat="45.82848179964643" lon="14.338606373060705"><ele>654.0</ele><time>2026-05-01T17:00:02.999Z</time></trkpt><trkpt lat="45.82834595650585" lon="14.338711103747725"><ele>654.0</ele><time>2026-05-01T17:00:03.999Z</time></trkpt><trkpt lat="45.82822580346737" lon="14.33881313573019"><ele>654.0</ele><time>2026-05-01T17:00:04.999Z</time></trkpt><trkpt lat="45.828107964519795" lon="14.338884859968799"><ele>652.8000000000001</ele><time>2026-05-01T17:00:05.999Z</time></trkpt><trkpt lat="45.82801270186843" lon="14.338987508080049"><ele>651.6</ele><time>2026-05-01T17:00:06.999Z</time></trkpt><trkpt lat="45.82791644972263" lon="14.339063073643455"><ele>650.4</ele><time>2026-05-01T17:00:07.999Z</time></trkpt><trkpt lat="45.82783283957153" lon="14.33915294226178"><ele>649.2</ele><time>2026-05-01T17:00:08.999Z</time></trkpt><trkpt lat="45.82777286318773" lon="14.339291546445423"><ele>648.0</ele><time>2026-05-01T17:00:09.999Z</time></trkpt><trkpt lat="45.827688263225056" lon="14.339395141592952"><ele>646.4</ele><time>2026-05-01T17:00:10.999Z</time></trkpt><trkpt lat="45.827619059414545" lon="14.339527421039747"><ele>644.8</ele><time>2026-05-01T17:00:11.999Z</time></trkpt><trkpt lat="45.82757617120263" lon="14.339661669246366"><ele>643.2</ele><time>2026-05-01T17:00:12.999Z</time></trkpt><trkpt lat="45.827532811327494" lon="14.339773378442768"><ele>641.6</ele><time>2026-05-01T17:00:13.999Z</time></trkpt><trkpt lat="45.82749987872806" lon="14.339905759064079"><ele>640.0</ele><time>2026-05-01T17:00:14.999Z</time></trkpt><trkpt lat="45.82748120386963" lon="14.340036771297545"><ele>640.0</ele><time>2026-05-01T17:00:15.999Z</time></trkpt><trkpt lat="45.82746936287625" lon="14.340174121367797"><ele>640.0</ele><time>2026-05-01T17:00:16.999Z</time></trkpt><trkpt lat="45.82745932256818" lon="14.340329281024953"><ele>640.0</ele><time>2026-05-01T17:00:17.999Z</time></trkpt><trkpt lat="45.827450652227455" lon="14.340496267480674"><ele>640.0</ele><time>2026-05-01T17:00:18.999Z</time></trkpt><trkpt lat="45.82741764212312" lon="14.340661153719362"><ele>640.0</ele><time>2026-05-01T17:00:19.999Z</time></trkpt><trkpt lat="45.82738085471588" lon="14.340816995540003"><ele>639.5</ele><time>2026-05-01T17:00:20.999Z</time></trkpt><trkpt lat="45.827342906914446" lon="14.340975778955546"><ele>639.0</ele><time>2026-05-01T17:00:21.999Z</time></trkpt><trkpt lat="45.827284412869716" lon="14.341111494561554"><ele>638.5</ele><time>2026-05-01T17:00:22.999Z</time></trkpt><trkpt lat="45.82721324581109" lon="14.341247360052497"><ele>638.0</ele><time>2026-05-01T17:00:23.999Z</time></trkpt><trkpt lat="45.82712508133142" lon="14.341355718327614"><ele>638.1999999999999</ele><time>2026-05-01T17:00:24.999Z</time></trkpt><trkpt lat="45.82705518264174" lon="14.341493439120867"><ele>638.4</ele><time>2026-05-01T17:00:26Z</time></trkpt><trkpt lat="45.826973599352144" lon="14.341608424647555"><ele>638.5999999999999</ele><time>2026-05-01T17:00:27Z</time></trkpt><trkpt lat="45.8269000131222" lon="14.341715949939488"><ele>638.8</ele><time>2026-05-01T17:00:28Z</time></trkpt><trkpt lat="45.82683585973815" lon="14.341824755428943"><ele>639.0</ele><time>2026-05-01T17:00:29Z</time></trkpt><trkpt lat="45.82678969403346" lon="14.341944671345729"><ele>638.4</ele><time>2026-05-01T17:00:30Z</time></trkpt><trkpt lat="45.82676962279427" lon="14.34206822295678"><ele>637.8</ele><time>2026-05-01T17:00:31Z</time></trkpt><trkpt lat="45.826727782032854" lon="14.342197778144268"><ele>637.2</ele><time>2026-05-01T17:00:32Z</time></trkpt><trkpt lat="45.82671016961681" lon="14.342370852046697"><ele>636.6</ele><time>2026-05-01T17:00:33Z</time></trkpt><trkpt lat="45.82667432145832" lon="14.342530421252823"><ele>636.0</ele><time>2026-05-01T17:00:34Z</time></trkpt><trkpt lat="45.826644185485826" lon="14.342681371913343"><ele>635.4</ele><time>2026-05-01T17:00:35Z</time></trkpt><trkpt lat="45.82661001461454" lon="14.342816553111543"><ele>634.8</ele><time>2026-05-01T17:00:36Z</time></trkpt><trkpt lat="45.82657601934438" lon="14.342940377598156"><ele>634.1999999999999</ele><time>2026-05-01T17:00:37Z</time></trkpt><trkpt lat="45.826556120383366" lon="14.343053697992394"><ele>633.6</ele><time>2026-05-01T17:00:38Z</time></trkpt><trkpt lat="45.82651398403377" lon="14.343194719234539"><ele>633.0</ele><time>2026-05-01T17:00:40Z</time></trkpt><trkpt lat="45.8263738192896" lon="14.34325045979281"><ele>632.5</ele><time>2026-05-01T17:00:43Z</time></trkpt><trkpt lat="45.8262802387531" lon="14.34322534738045"><ele>632.0</ele><time>2026-05-01T17:00:44Z</time></trkpt><trkpt lat="45.826139128614784" lon="14.343221946031576"><ele>631.5</ele><time>2026-05-01T17:00:45Z</time></trkpt><trkpt lat="45.825944162256754" lon="14.343228646148916"><ele>631.0</ele><time>2026-05-01T17:00:46Z</time></trkpt><trkpt lat="45.825734061600976" lon="14.343232240247668"><ele>630.75</ele><time>2026-05-01T17:00:47Z</time></trkpt><trkpt lat="45.825561392036356" lon="14.34322233451329"><ele>630.5</ele><time>2026-05-01T17:00:48Z</time></trkpt><trkpt lat="45.825425708014365" lon="14.343199743178372"><ele>630.25</ele><time>2026-05-01T17:00:49Z</time></trkpt><trkpt lat="45.825305536921206" lon="14.343160694389404"><ele>630.0</ele><time>2026-05-01T17:00:50Z</time></trkpt><trkpt lat="45.82521795587525" lon="14.343066529920428"><ele>631.4</ele><time>2026-05-01T17:00:51Z</time></trkpt><trkpt lat="45.82510786212479" lon="14.343005318824199"><ele>632.8</ele><time>2026-05-01T17:00:52Z</time></trkpt><trkpt lat="45.825008874003125" lon="14.34290880410068"><ele>634.2</ele><time>2026-05-01T17:00:53Z</time></trkpt><trkpt lat="45.82491528760756" lon="14.34284131946107"><ele>635.6</ele><time>2026-05-01T17:00:54Z</time></trkpt><trkpt lat="45.82483127113426" lon="14.34280620175782"><ele>637.0</ele><time>2026-05-01T17:00:55Z</time></trkpt><trkpt lat="45.824740411380134" lon="14.342811753900293"><ele>637.0</ele><time>2026-05-01T17:00:56Z</time></trkpt><trkpt lat="45.82464241959689" lon="14.34285358412989"><ele>637.0</ele><time>2026-05-01T17:00:57Z</time></trkpt><trkpt lat="45.82453872394395" lon="14.342930513262091"><ele>637.0</ele><time>2026-05-01T17:00:58Z</time></trkpt><trkpt lat="45.82442984082994" lon="14.34304877185753"><ele>637.0</ele><time>2026-05-01T17:00:59Z</time></trkpt><trkpt lat="45.824287911330465" lon="14.343171235632255"><ele>639.5</ele><time>2026-05-01T17:01:00Z</time></trkpt><trkpt lat="45.82418276428938" lon="14.343299013138232"><ele>642.0</ele><time>2026-05-01T17:01:01Z</time></trkpt><trkpt lat="45.82411230899483" lon="14.343436944186857"><ele>644.5</ele><time>2026-05-01T17:01:02Z</time></trkpt><trkpt lat="45.824039847077714" lon="14.343570742886943"><ele>647.0</ele><time>2026-05-01T17:01:03Z</time></trkpt><trkpt lat="45.82398635304431" lon="14.343718070422893"><ele>647.0</ele><time>2026-05-01T17:01:04Z</time></trkpt><trkpt lat="45.82391242084608" lon="14.343813854432428"><ele>647.0</ele><time>2026-05-01T17:01:05Z</time></trkpt><trkpt lat="45.82385231803537" lon="14.343890719992169"><ele>647.0</ele><time>2026-05-01T17:01:06Z</time></trkpt><trkpt lat="45.82377552971729" lon="14.343941727304856"><ele>647.0</ele><time>2026-05-01T17:01:07Z</time></trkpt><trkpt lat="45.8236673114669" lon="14.344005913154922"><ele>647.0</ele><time>2026-05-01T17:01:08Z</time></trkpt><trkpt lat="45.82355446782789" lon="14.344061341725908"><ele>646.75</ele><time>2026-05-01T17:01:09Z</time></trkpt><trkpt lat="45.82343726832874" lon="14.344107993741442"><ele>646.5</ele><time>2026-05-01T17:01:10Z</time></trkpt><trkpt lat="45.82330360383279" lon="14.344156824375386"><ele>646.25</ele><time>2026-05-01T17:01:11Z</time></trkpt><trkpt lat="45.82317643247042" lon="14.34414050237236"><ele>646.0</ele><time>2026-05-01T17:01:12Z</time></trkpt><trkpt lat="45.823065306902436" lon="14.344126770544243"><ele>646.0</ele><time>2026-05-01T17:01:13Z</time></trkpt><trkpt lat="45.82297124183153" lon="14.34408687625552"><ele>646.0</ele><time>2026-05-01T17:01:14Z</time></trkpt><trkpt lat="45.82290205472502" lon="14.34400896658851"><ele>646.0</ele><time>2026-05-01T17:01:15Z</time></trkpt><trkpt lat="45.82283059114536" lon="14.343897750325613"><ele>646.0</ele><time>2026-05-01T17:01:16Z</time></trkpt><trkpt lat="45.822757857555146" lon="14.343739041898479"><ele>646.0</ele><time>2026-05-01T17:01:17Z</time></trkpt><trkpt lat="45.822690855424774" lon="14.343565574657612"><ele>645.4</ele><time>2026-05-01T17:01:18Z</time></trkpt><trkpt lat="45.82264617831317" lon="14.343399641788615"><ele>644.8</ele><time>2026-05-01T17:01:19Z</time></trkpt><trkpt lat="45.822631472396786" lon="14.343276043190983"><ele>644.1999999999999</ele><time>2026-05-01T17:01:19.999Z</time></trkpt><trkpt lat="45.82263034282297" lon="14.343144635748311"><ele>643.5999999999999</ele><time>2026-05-01T17:01:20.999Z</time></trkpt><trkpt lat="45.822646500198324" lon="14.34298805666358"><ele>643.0</ele><time>2026-05-01T17:01:21.999Z</time></trkpt><trkpt lat="45.82267808593048" lon="14.342820368587144"><ele>645.3333333333334</ele><time>2026-05-01T17:01:22.999Z</time></trkpt><trkpt lat="45.822710452411954" lon="14.342625988193912"><ele>647.6666666666666</ele><time>2026-05-01T17:01:23.999Z</time></trkpt><trkpt lat="45.82280683683129" lon="14.342398218963377"><ele>650.0</ele><time>2026-05-01T17:01:24.999Z</time></trkpt><trkpt lat="45.82288989735552" lon="14.342105971138963"><ele>650.0</ele><time>2026-05-01T17:01:25.999Z</time></trkpt><trkpt lat="45.82294518877198" lon="14.341820665185077"><ele>650.0</ele><time>2026-05-01T17:01:26.999Z</time></trkpt><trkpt lat="45.82298710759654" lon="14.341580666183745"><ele>650.0</ele><time>2026-05-01T17:01:27.999Z</time></trkpt><trkpt lat="45.823023452077656" lon="14.341372581536174"><ele>648.75</ele><time>2026-05-01T17:01:28.999Z</time></trkpt><trkpt lat="45.82307757777206" lon="14.341179051549197"><ele>647.5</ele><time>2026-05-01T17:01:29.999Z</time></trkpt><trkpt lat="45.823120517481975" lon="14.341008727676758"><ele>646.25</ele><time>2026-05-01T17:01:30.999Z</time></trkpt><trkpt lat="45.8231589189984" lon="14.340830350070533"><ele>645.0</ele><time>2026-05-01T17:01:31.999Z</time></trkpt><trkpt lat="45.823180607423396" lon="14.340637823373541"><ele>645.25</ele><time>2026-05-01T17:01:32.999Z</time></trkpt><trkpt lat="45.823181592263396" lon="14.340473954381116"><ele>645.5</ele><time>2026-05-01T17:01:33.999Z</time></trkpt><trkpt lat="45.823156477880026" lon="14.340302286571625"><ele>645.75</ele><time>2026-05-01T17:01:34.999Z</time></trkpt><trkpt lat="45.82311720160177" lon="14.340113133058843"><ele>646.0</ele><time>2026-05-01T17:01:35.999Z</time></trkpt><trkpt lat="45.82309774975772" lon="14.3399181106265"><ele>646.0</ele><time>2026-05-01T17:01:36.999Z</time></trkpt><trkpt lat="45.82306667712751" lon="14.339735661765694"><ele>646.0</ele><time>2026-05-01T17:01:37.999Z</time></trkpt><trkpt lat="45.82305506546597" lon="14.339539401758296"><ele>646.0</ele><time>2026-05-01T17:01:38.999Z</time></trkpt><trkpt lat="45.82304408100297" lon="14.339339218472526"><ele>646.0</ele><time>2026-05-01T17:01:39.999Z</time></trkpt><trkpt lat="45.82302357281862" lon="14.339157205816347"><ele>647.25</ele><time>2026-05-01T17:01:40.999Z</time></trkpt><trkpt lat="45.823000089007245" lon="14.338978910708848"><ele>648.5</ele><time>2026-05-01T17:01:41.999Z</time></trkpt><trkpt lat="45.822984045421705" lon="14.338799925285752"><ele>649.75</ele><time>2026-05-01T17:01:42.999Z</time></trkpt><trkpt lat="45.82296949199533" lon="14.338624654542409"><ele>651.0</ele><time>2026-05-01T17:01:43.999Z</time></trkpt><trkpt lat="45.82299252351064" lon="14.338448334900448"><ele>652.25</ele><time>2026-05-01T17:01:44.999Z</time></trkpt><trkpt lat="45.82301743169686" lon="14.338261799449484"><ele>653.5</ele><time>2026-05-01T17:01:45.999Z</time></trkpt><trkpt lat="45.82303659941409" lon="14.338069774816955"><ele>654.75</ele><time>2026-05-01T17:01:46.999Z</time></trkpt><trkpt lat="45.82306533494936" lon="14.337925043555625"><ele>656.0</ele><time>2026-05-01T17:01:47.999Z</time></trkpt><trkpt lat="45.82309069609455" lon="14.337794292585265"><ele>656.1666666666666</ele><time>2026-05-01T17:01:48.999Z</time></trkpt><trkpt lat="45.82310910604865" lon="14.33768530090312"><ele>656.3333333333333</ele><time>2026-05-01T17:01:49.999Z</time></trkpt><trkpt lat="45.82311852931804" lon="14.337568436020362"><ele>656.5</ele><time>2026-05-01T17:01:50.999Z</time></trkpt><trkpt lat="45.82313110806793" lon="14.337439288816917"><ele>656.6666666666666</ele><time>2026-05-01T17:01:51.999Z</time></trkpt><trkpt lat="45.823144979965626" lon="14.337316226841413"><ele>656.8333333333334</ele><time>2026-05-01T17:01:52.999Z</time></trkpt><trkpt lat="45.82314439388863" lon="14.337192109525027"><ele>657.0</ele><time>2026-05-01T17:01:53.999Z</time></trkpt><trkpt lat="45.82312211838415" lon="14.337048134106395"><ele>656.25</ele><time>2026-05-01T17:01:54.999Z</time></trkpt><trkpt lat="45.82307044006259" lon="14.336880716843515"><ele>655.5</ele><time>2026-05-01T17:01:55.999Z</time></trkpt><trkpt lat="45.823000866250744" lon="14.336743768013614"><ele>654.75</ele><time>2026-05-01T17:01:56.999Z</time></trkpt><trkpt lat="45.8228976014296" lon="14.336609373002549"><ele>654.0</ele><time>2026-05-01T17:01:57.999Z</time></trkpt><trkpt lat="45.82277838040817" lon="14.336456434592025"><ele>653.0</ele><time>2026-05-01T17:01:58.999Z</time></trkpt><trkpt lat="45.82268381288372" lon="14.33628702229587"><ele>652.0</ele><time>2026-05-01T17:01:59.999Z</time></trkpt><trkpt lat="45.82258582626222" lon="14.336145498832142"><ele>651.0</ele><time>2026-05-01T17:02:00.999Z</time></trkpt><trkpt lat="45.82248843924487" lon="14.336029364472562"><ele>650.0</ele><time>2026-05-01T17:02:01.999Z</time></trkpt><trkpt lat="45.82241556528243" lon="14.335902787023278"><ele>649.8</ele><time>2026-05-01T17:02:02.999Z</time></trkpt><trkpt lat="45.82233270979944" lon="14.335801313330936"><ele>649.6</ele><time>2026-05-01T17:02:03.999Z</time></trkpt><trkpt lat="45.82224931736591" lon="14.335720537606546"><ele>649.4000000000001</ele><time>2026-05-01T17:02:04.999Z</time></trkpt><trkpt lat="45.822149714675476" lon="14.33565621669245"><ele>649.2</ele><time>2026-05-01T17:02:05.999Z</time></trkpt><trkpt lat="45.82204635909137" lon="14.33556777810518"><ele>649.0</ele><time>2026-05-01T17:02:06.999Z</time></trkpt><trkpt lat="45.82196754966145" lon="14.335449996260456"><ele>648.0</ele><time>2026-05-01T17:02:07.999Z</time></trkpt><trkpt lat="45.82191231456484" lon="14.33532356003339"><ele>647.0</ele><time>2026-05-01T17:02:08.999Z</time></trkpt><trkpt lat="45.821889516076496" lon="14.33517733909838"><ele>646.0</ele><time>2026-05-01T17:02:09.999Z</time></trkpt><trkpt lat="45.8218884396445" lon="14.334984651855773"><ele>645.0</ele><time>2026-05-01T17:02:10.999Z</time></trkpt><trkpt lat="45.8218654578405" lon="14.3347461818786"><ele>644.25</ele><time>2026-05-01T17:02:11.999Z</time></trkpt><trkpt lat="45.82186274994311" lon="14.334528157891535"><ele>643.5</ele><time>2026-05-01T17:02:12.999Z</time></trkpt><trkpt lat="45.82186581984529" lon="14.334338574689419"><ele>642.75</ele><time>2026-05-01T17:02:13.999Z</time></trkpt><trkpt lat="45.821885364335856" lon="14.334154215640886"><ele>642.0</ele><time>2026-05-01T17:02:14.999Z</time></trkpt><trkpt lat="45.82187698105132" lon="14.333964995397121"><ele>641.0</ele><time>2026-05-01T17:02:15.999Z</time></trkpt><trkpt lat="45.821889395736015" lon="14.333784371273422"><ele>640.0</ele><time>2026-05-01T17:02:16.999Z</time></trkpt><trkpt lat="45.82190018710934" lon="14.333623467458356"><ele>639.0</ele><time>2026-05-01T17:02:17.999Z</time></trkpt><trkpt lat="45.821891870833525" lon="14.333459520097717"><ele>638.0</ele><time>2026-05-01T17:02:18.999Z</time></trkpt><trkpt lat="45.82187643881703" lon="14.333287225380097"><ele>638.0</ele><time>2026-05-01T17:02:19.999Z</time></trkpt><trkpt lat="45.821863953229126" lon="14.333097156932356"><ele>638.0</ele><time>2026-05-01T17:02:20.999Z</time></trkpt><trkpt lat="45.821872781645446" lon="14.332895002675388"><ele>638.0</ele><time>2026-05-01T17:02:21.999Z</time></trkpt><trkpt lat="45.82187657319109" lon="14.332693863703515"><ele>638.0</ele><time>2026-05-01T17:02:22.999Z</time></trkpt><trkpt lat="45.82187191308581" lon="14.332494596451705"><ele>638.0</ele><time>2026-05-01T17:02:23.999Z</time></trkpt><trkpt lat="45.82187972250686" lon="14.332295158499909"><ele>638.0</ele><time>2026-05-01T17:02:24.999Z</time></trkpt><trkpt lat="45.821879014316174" lon="14.332094733867985"><ele>638.0</ele><time>2026-05-01T17:02:25.999Z</time></trkpt><trkpt lat="45.82187792314179" lon="14.331898172912183"><ele>638.0</ele><time>2026-05-01T17:02:26.999Z</time></trkpt><trkpt lat="45.82187936616305" lon="14.331711972010591"><ele>638.0</ele><time>2026-05-01T17:02:27.999Z</time></trkpt><trkpt lat="45.821835730565475" lon="14.331530829310621"><ele>638.0</ele><time>2026-05-01T17:02:28.999Z</time></trkpt><trkpt lat="45.821757111760974" lon="14.331391885081828"><ele>638.0</ele><time>2026-05-01T17:02:29.999Z</time></trkpt><trkpt lat="45.82166689762967" lon="14.331285062096132"><ele>638.0</ele><time>2026-05-01T17:02:31Z</time></trkpt><trkpt lat="45.82157806560981" lon="14.331166151717644"><ele>636.25</ele><time>2026-05-01T17:02:32Z</time></trkpt><trkpt lat="45.82147989498011" lon="14.331046089182067"><ele>634.5</ele><time>2026-05-01T17:02:33Z</time></trkpt><trkpt lat="45.821381134356606" lon="14.33093643149242"><ele>632.75</ele><time>2026-05-01T17:02:34Z</time></trkpt><trkpt lat="45.82128599433225" lon="14.330846309887987"><ele>631.0</ele><time>2026-05-01T17:02:35Z</time></trkpt><trkpt lat="45.821188438166885" lon="14.330775864836689"><ele>631.0</ele><time>2026-05-01T17:02:36Z</time></trkpt><trkpt lat="45.821085898815575" lon="14.330729361839953"><ele>631.0</ele><time>2026-05-01T17:02:37Z</time></trkpt><trkpt lat="45.82098557046558" lon="14.330654700220789"><ele>631.0</ele><time>2026-05-01T17:02:38Z</time></trkpt><trkpt lat="45.82087194792874" lon="14.33059354796853"><ele>631.0</ele><time>2026-05-01T17:02:39Z</time></trkpt><trkpt lat="45.820752813623685" lon="14.330530944744018"><ele>629.25</ele><time>2026-05-01T17:02:40Z</time></trkpt><trkpt lat="45.820627343435504" lon="14.33049100351026"><ele>627.5</ele><time>2026-05-01T17:02:41Z</time></trkpt><trkpt lat="45.82050393231916" lon="14.330446920957067"><ele>625.75</ele><time>2026-05-01T17:02:42Z</time></trkpt><trkpt lat="45.82038168181455" lon="14.330396040416451"><ele>624.0</ele><time>2026-05-01T17:02:43Z</time></trkpt><trkpt lat="45.82026098614458" lon="14.330378701800843"><ele>624.0</ele><time>2026-05-01T17:02:44Z</time></trkpt><trkpt lat="45.82015112148077" lon="14.33036719969179"><ele>624.0</ele><time>2026-05-01T17:02:45Z</time></trkpt><trkpt lat="45.82005370648912" lon="14.330361978742241"><ele>624.0</ele><time>2026-05-01T17:02:46Z</time></trkpt><trkpt lat="45.819920876452734" lon="14.330387480675101"><ele>624.0</ele><time>2026-05-01T17:02:48Z</time></trkpt><trkpt lat="45.81985389227505" lon="14.330345637247088"><ele>624.0</ele><time>2026-05-01T17:02:50Z</time></trkpt><trkpt lat="45.81987056095406" lon="14.330200349307196"><ele>623.6666666666666</ele><time>2026-05-01T17:02:52Z</time></trkpt><trkpt lat="45.81996786984227" lon="14.330018494252727"><ele>623.3333333333333</ele><time>2026-05-01T17:02:54Z</time></trkpt><trkpt lat="45.820057059656385" lon="14.329866177315322"><ele>623.0</ele><time>2026-05-01T17:02:55Z</time></trkpt><trkpt lat="45.8201534633102" lon="14.329663737406179"><ele>623.0</ele><time>2026-05-01T17:02:56Z</time></trkpt><trkpt lat="45.820225911420444" lon="14.32944409476973"><ele>623.0</ele><time>2026-05-01T17:02:57Z</time></trkpt><trkpt lat="45.82028452066198" lon="14.32925866968855"><ele>623.0</ele><time>2026-05-01T17:02:58Z</time></trkpt><trkpt lat="45.82033401110614" lon="14.329090768920457"><ele>623.0</ele><time>2026-05-01T17:02:59Z</time></trkpt><trkpt lat="45.82038100688921" lon="14.328923704357221"><ele>622.75</ele><time>2026-05-01T17:03:00Z</time></trkpt><trkpt lat="45.82049619530311" lon="14.32863042534088"><ele>622.5</ele><time>2026-05-01T17:03:02Z</time></trkpt><trkpt lat="45.8205393662829" lon="14.328502288658195"><ele>622.25</ele><time>2026-05-01T17:03:03Z</time></trkpt><trkpt lat="45.82059133046697" lon="14.328383200551702"><ele>622.0</ele><time>2026-05-01T17:03:04Z</time></trkpt><trkpt lat="45.820637510508384" lon="14.328267022740162"><ele>622.0</ele><time>2026-05-01T17:03:05Z</time></trkpt><trkpt lat="45.82067973681262" lon="14.328142036839312"><ele>622.0</ele><time>2026-05-01T17:03:06Z</time></trkpt><trkpt lat="45.82071474732506" lon="14.328004318893516"><ele>622.0</ele><time>2026-05-01T17:03:07Z</time></trkpt><trkpt lat="45.82075087894883" lon="14.32771717488773"><ele>622.0</ele><time>2026-05-01T17:03:09Z</time></trkpt><trkpt lat="45.82076981728752" lon="14.327570822370324"><ele>622.0</ele><time>2026-05-01T17:03:10Z</time></trkpt><trkpt lat="45.820796916188314" lon="14.327411852048742"><ele>622.0</ele><time>2026-05-01T17:03:11Z</time></trkpt><trkpt lat="45.82084961453853" lon="14.327249064421828"><ele>622.0</ele><time>2026-05-01T17:03:12Z</time></trkpt><trkpt lat="45.820898996727735" lon="14.327086486481479"><ele>622.0</ele><time>2026-05-01T17:03:13Z</time></trkpt><trkpt lat="45.820958874881654" lon="14.326918028298167"><ele>622.5</ele><time>2026-05-01T17:03:14Z</time></trkpt><trkpt lat="45.82102936426818" lon="14.326744296377957"><ele>623.0</ele><time>2026-05-01T17:03:15Z</time></trkpt><trkpt lat="45.82110314245375" lon="14.326572570360165"><ele>623.5</ele><time>2026-05-01T17:03:16Z</time></trkpt><trkpt lat="45.821164224016485" lon="14.326398763240016"><ele>624.0</ele><time>2026-05-01T17:03:17Z</time></trkpt><trkpt lat="45.82122731426448" lon="14.326255373374732"><ele>624.0</ele><time>2026-05-01T17:03:18Z</time></trkpt><trkpt lat="45.82130294859822" lon="14.326126659174383"><ele>624.0</ele><time>2026-05-01T17:03:19Z</time></trkpt><trkpt lat="45.82137405240195" lon="14.32596878485058"><ele>624.0</ele><time>2026-05-01T17:03:19.999Z</time></trkpt><trkpt lat="45.82143520584537" lon="14.325804065902942"><ele>624.0</ele><time>2026-05-01T17:03:20.999Z</time></trkpt><trkpt lat="45.82151628243007" lon="14.325665747028285"><ele>624.25</ele><time>2026-05-01T17:03:21.999Z</time></trkpt><trkpt lat="45.82162435099663" lon="14.325557374912888"><ele>624.5</ele><time>2026-05-01T17:03:22.999Z</time></trkpt><trkpt lat="45.82171049924707" lon="14.325445850228"><ele>624.75</ele><time>2026-05-01T17:03:23.999Z</time></trkpt><trkpt lat="45.82180290250546" lon="14.325379338945817"><ele>625.0</ele><time>2026-05-01T17:03:24.999Z</time></trkpt><trkpt lat="45.821908935601215" lon="14.325311216577946"><ele>625.0</ele><time>2026-05-01T17:03:25.999Z</time></trkpt><trkpt lat="45.822025519249905" lon="14.325242669905638"><ele>625.0</ele><time>2026-05-01T17:03:26.999Z</time></trkpt><trkpt lat="45.822145748772556" lon="14.325171916289689"><ele>625.0</ele><time>2026-05-01T17:03:27.999Z</time></trkpt><trkpt lat="45.82225830212835" lon="14.325137711998236"><ele>625.0</ele><time>2026-05-01T17:03:28.999Z</time></trkpt><trkpt lat="45.822358613436215" lon="14.325089755091245"><ele>625.0</ele><time>2026-05-01T17:03:29.999Z</time></trkpt><trkpt lat="45.82246732650835" lon="14.32503182099117"><ele>625.0</ele><time>2026-05-01T17:03:30.999Z</time></trkpt><trkpt lat="45.82256081491938" lon="14.324883808750762"><ele>625.0</ele><time>2026-05-01T17:03:31.999Z</time></trkpt><trkpt lat="45.822659071577746" lon="14.32474327905232"><ele>625.0</ele><time>2026-05-01T17:03:32.999Z</time></trkpt><trkpt lat="45.82279176689626" lon="14.324610670805269"><ele>626.0</ele><time>2026-05-01T17:03:33.999Z</time></trkpt><trkpt lat="45.82294905174401" lon="14.324472617897365"><ele>627.0</ele><time>2026-05-01T17:03:34.999Z</time></trkpt><trkpt lat="45.82313303898461" lon="14.324314724314144"><ele>628.0</ele><time>2026-05-01T17:03:35.999Z</time></trkpt><trkpt lat="45.82330904643536" lon="14.324130457369158"><ele>628.0</ele><time>2026-05-01T17:03:36.999Z</time></trkpt><trkpt lat="45.82346580856335" lon="14.323988805913562"><ele>628.0</ele><time>2026-05-01T17:03:37.999Z</time></trkpt><trkpt lat="45.8236045082634" lon="14.32386529691616"><ele>628.0</ele><time>2026-05-01T17:03:38.999Z</time></trkpt><trkpt lat="45.823749132966256" lon="14.323735744651"><ele>628.3333333333334</ele><time>2026-05-01T17:03:39.999Z</time></trkpt><trkpt lat="45.82390239172972" lon="14.323617645604656"><ele>628.6666666666666</ele><time>2026-05-01T17:03:40.999Z</time></trkpt><trkpt lat="45.82406820226998" lon="14.32350705619423"><ele>629.0</ele><time>2026-05-01T17:03:41.999Z</time></trkpt><trkpt lat="45.82423399651967" lon="14.323404290014532"><ele>633.3333333333333</ele><time>2026-05-01T17:03:42.999Z</time></trkpt><trkpt lat="45.824377408499366" lon="14.323326764117038"><ele>637.6666666666666</ele><time>2026-05-01T17:03:43.999Z</time></trkpt><trkpt lat="45.824530629218046" lon="14.32326715956737"><ele>642.0</ele><time>2026-05-01T17:03:44.999Z</time></trkpt><trkpt lat="45.824670425072306" lon="14.323184576197171"><ele>642.0</ele><time>2026-05-01T17:03:45.999Z</time></trkpt><trkpt lat="45.82481108799842" lon="14.323069176560127"><ele>642.0</ele><time>2026-05-01T17:03:46.999Z</time></trkpt><trkpt lat="45.824964926849006" lon="14.32298917187672"><ele>642.0</ele><time>2026-05-01T17:03:47.999Z</time></trkpt><trkpt lat="45.82510303718974" lon="14.322886108762061"><ele>642.6666666666666</ele><time>2026-05-01T17:03:48.999Z</time></trkpt><trkpt lat="45.82523048758948" lon="14.322757501822535"><ele>643.3333333333333</ele><time>2026-05-01T17:03:49.999Z</time></trkpt><trkpt lat="45.825363391416495" lon="14.322656716230725"><ele>644.0</ele><time>2026-05-01T17:03:50.999Z</time></trkpt><trkpt lat="45.8255018576431" lon="14.322548488385468"><ele>644.0</ele><time>2026-05-01T17:03:51.999Z</time></trkpt><trkpt lat="45.825642495383555" lon="14.322432997977558"><ele>644.0</ele><time>2026-05-01T17:03:52.999Z</time></trkpt><trkpt lat="45.82579098655718" lon="14.322314781532581"><ele>644.0</ele><time>2026-05-01T17:03:53.999Z</time></trkpt><trkpt lat="45.82594506150239" lon="14.322194384967396"><ele>643.3333333333333</ele><time>2026-05-01T17:03:54.999Z</time></trkpt><trkpt lat="45.82609967806137" lon="14.322080464730174"><ele>642.6666666666666</ele><time>2026-05-01T17:03:55.999Z</time></trkpt><trkpt lat="45.82626482359131" lon="14.321976676424594"><ele>642.0</ele><time>2026-05-01T17:03:56.999Z</time></trkpt><trkpt lat="45.82642642852839" lon="14.321882421723345"><ele>642.0</ele><time>2026-05-01T17:03:57.999Z</time></trkpt><trkpt lat="45.826588089814095" lon="14.321784950647293"><ele>642.0</ele><time>2026-05-01T17:03:58.999Z</time></trkpt><trkpt lat="45.82674558849486" lon="14.32170401193477"><ele>642.0</ele><time>2026-05-01T17:03:59.999Z</time></trkpt><trkpt lat="45.82689852468988" lon="14.321635740148603"><ele>647.0</ele><time>2026-05-01T17:04:00.999Z</time></trkpt><trkpt lat="45.82705776902259" lon="14.321584115541121"><ele>652.0</ele><time>2026-05-01T17:04:01.999Z</time></trkpt><trkpt lat="45.827219716283814" lon="14.321523576014904"><ele>657.0</ele><time>2026-05-01T17:04:02.999Z</time></trkpt><trkpt lat="45.82737844979909" lon="14.321475034861217"><ele>657.0</ele><time>2026-05-01T17:04:03.999Z</time></trkpt><trkpt lat="45.82752624411439" lon="14.321408680845636"><ele>657.0</ele><time>2026-05-01T17:04:04.999Z</time></trkpt><trkpt lat="45.82767605089411" lon="14.321318053215952"><ele>657.0</ele><time>2026-05-01T17:04:05.999Z</time></trkpt><trkpt lat="45.82781289132814" lon="14.321199391531257"><ele>654.0</ele><time>2026-05-01T17:04:06.999Z</time></trkpt><trkpt lat="45.82795857399209" lon="14.321079200734275"><ele>651.0</ele><time>2026-05-01T17:04:07.999Z</time></trkpt><trkpt lat="45.82810160294206" lon="14.320962656815329"><ele>648.0</ele><time>2026-05-01T17:04:08.999Z</time></trkpt><trkpt lat="45.828253095026724" lon="14.320842852939728"><ele>648.0</ele><time>2026-05-01T17:04:09.999Z</time></trkpt><trkpt lat="45.828408385707" lon="14.320736003476922"><ele>648.0</ele><time>2026-05-01T17:04:10.999Z</time></trkpt><trkpt lat="45.82856683447864" lon="14.320674646204617"><ele>648.0</ele><time>2026-05-01T17:04:11.999Z</time></trkpt><trkpt lat="45.82869535310297" lon="14.320602123987298"><ele>647.2</ele><time>2026-05-01T17:04:12.999Z</time></trkpt><trkpt lat="45.82879207305563" lon="14.320532698684872"><ele>646.4</ele><time>2026-05-01T17:04:13.999Z</time></trkpt><trkpt lat="45.828879850754575" lon="14.32052537925519"><ele>645.6</ele><time>2026-05-01T17:04:14.999Z</time></trkpt><trkpt lat="45.82896098072542" lon="14.320619535274485"><ele>644.8000000000001</ele><time>2026-05-01T17:04:15.999Z</time></trkpt><trkpt lat="45.82906211683828" lon="14.320669914376523"><ele>644.0</ele><time>2026-05-01T17:04:16.999Z</time></trkpt><trkpt lat="45.82915222798883" lon="14.320757608893341"><ele>646.0</ele><time>2026-05-01T17:04:17.999Z</time></trkpt><trkpt lat="45.82926437973266" lon="14.32084156411283"><ele>648.0</ele><time>2026-05-01T17:04:18.999Z</time></trkpt><trkpt lat="45.829383901293966" lon="14.320855737419524"><ele>650.0</ele><time>2026-05-01T17:04:19.999Z</time></trkpt><trkpt lat="45.82949366880786" lon="14.320859793413657"><ele>652.0</ele><time>2026-05-01T17:04:20.999Z</time></trkpt><trkpt lat="45.829609684067634" lon="14.320830075622812"><ele>652.75</ele><time>2026-05-01T17:04:21.999Z</time></trkpt><trkpt lat="45.82972063162531" lon="14.320821440393104"><ele>653.5</ele><time>2026-05-01T17:04:22.999Z</time></trkpt><trkpt lat="45.82983166915378" lon="14.320791546903916"><ele>654.25</ele><time>2026-05-01T17:04:23.999Z</time></trkpt><trkpt lat="45.829947027409645" lon="14.32075528288078"><ele>655.0</ele><time>2026-05-01T17:04:24.999Z</time></trkpt><trkpt lat="45.830062587887475" lon="14.320710137769636"><ele>656.25</ele><time>2026-05-01T17:04:25.999Z</time></trkpt><trkpt lat="45.83017843788235" lon="14.32063767127821"><ele>657.5</ele><time>2026-05-01T17:04:26.999Z</time></trkpt><trkpt lat="45.83030347889087" lon="14.320587750918536"><ele>658.75</ele><time>2026-05-01T17:04:27.999Z</time></trkpt><trkpt lat="45.830418696325296" lon="14.320519003240433"><ele>660.0</ele><time>2026-05-01T17:04:28.999Z</time></trkpt><trkpt lat="45.830538631106634" lon="14.320441655048587"><ele>656.75</ele><time>2026-05-01T17:04:29.999Z</time></trkpt><trkpt lat="45.830650788433786" lon="14.320345050045619"><ele>653.5</ele><time>2026-05-01T17:04:30.999Z</time></trkpt><trkpt lat="45.83076714034319" lon="14.320277900169058"><ele>650.25</ele><time>2026-05-01T17:04:31.999Z</time></trkpt><trkpt lat="45.83086435058862" lon="14.320198392291557"><ele>647.0</ele><time>2026-05-01T17:04:32.999Z</time></trkpt><trkpt lat="45.830963052482275" lon="14.320138592908172"><ele>648.0</ele><time>2026-05-01T17:04:33.999Z</time></trkpt><trkpt lat="45.83106150550866" lon="14.320043431058703"><ele>649.0</ele><time>2026-05-01T17:04:34.999Z</time></trkpt><trkpt lat="45.831172032577264" lon="14.319967172400126"><ele>650.0</ele><time>2026-05-01T17:04:35.999Z</time></trkpt><trkpt lat="45.831276449331405" lon="14.319851795267475"><ele>651.0</ele><time>2026-05-01T17:04:37Z</time></trkpt><trkpt lat="45.831369275687045" lon="14.319711727406727"><ele>651.0</ele><time>2026-05-01T17:04:38Z</time></trkpt><trkpt lat="45.83144965640048" lon="14.319552387508898"><ele>651.0</ele><time>2026-05-01T17:04:39Z</time></trkpt><trkpt lat="45.831508113861766" lon="14.319377998517686"><ele>651.0</ele><time>2026-05-01T17:04:40Z</time></trkpt><trkpt lat="45.83159214877085" lon="14.319221621206356"><ele>651.0</ele><time>2026-05-01T17:04:41Z</time></trkpt><trkpt lat="45.83166259731109" lon="14.31905319051658"><ele>649.0</ele><time>2026-05-01T17:04:42Z</time></trkpt><trkpt lat="45.83172548485318" lon="14.31887796437041"><ele>647.0</ele><time>2026-05-01T17:04:43Z</time></trkpt><trkpt lat="45.83181306921588" lon="14.318718283056917"><ele>645.0</ele><time>2026-05-01T17:04:44Z</time></trkpt><trkpt lat="45.83189512030094" lon="14.318552964360451"><ele>643.0</ele><time>2026-05-01T17:04:45Z</time></trkpt><trkpt lat="45.83198033206905" lon="14.318385929698739"><ele>645.25</ele><time>2026-05-01T17:04:46Z</time></trkpt><trkpt lat="45.83207385116033" lon="14.31821544872103"><ele>647.5</ele><time>2026-05-01T17:04:47Z</time></trkpt><trkpt lat="45.83216558231674" lon="14.3180534539867"><ele>649.75</ele><time>2026-05-01T17:04:48Z</time></trkpt><trkpt lat="45.8322569135615" lon="14.317882903474063"><ele>652.0</ele><time>2026-05-01T17:04:49Z</time></trkpt><trkpt lat="45.8323341974739" lon="14.317705852821435"><ele>652.0</ele><time>2026-05-01T17:04:50Z</time></trkpt><trkpt lat="45.83239168348778" lon="14.317536505255722"><ele>652.0</ele><time>2026-05-01T17:04:51Z</time></trkpt><trkpt lat="45.83247027591653" lon="14.317417528355985"><ele>652.0</ele><time>2026-05-01T17:04:52Z</time></trkpt><trkpt lat="45.83255241442934" lon="14.317317051234559"><ele>652.0</ele><time>2026-05-01T17:04:53Z</time></trkpt><trkpt lat="45.83265470257998" lon="14.317269312791208"><ele>651.5</ele><time>2026-05-01T17:04:54Z</time></trkpt><trkpt lat="45.83276913257842" lon="14.317234250147015"><ele>651.0</ele><time>2026-05-01T17:04:55Z</time></trkpt><trkpt lat="45.83289760769774" lon="14.31717697391898"><ele>650.5</ele><time>2026-05-01T17:04:56Z</time></trkpt><trkpt lat="45.833049473066964" lon="14.317157493339845"><ele>650.0</ele><time>2026-05-01T17:04:57Z</time></trkpt><trkpt lat="45.83320382800013" lon="14.317128459624923"><ele>650.0</ele><time>2026-05-01T17:04:58Z</time></trkpt><trkpt lat="45.83335680661474" lon="14.317070148687902"><ele>650.0</ele><time>2026-05-01T17:04:59Z</time></trkpt><trkpt lat="45.83349218375537" lon="14.316963311159874"><ele>650.0</ele><time>2026-05-01T17:05:00Z</time></trkpt><trkpt lat="45.83363842591625" lon="14.316874535377304"><ele>652.6666666666666</ele><time>2026-05-01T17:05:01Z</time></trkpt><trkpt lat="45.83376301368619" lon="14.316754443387971"><ele>655.3333333333334</ele><time>2026-05-01T17:05:02Z</time></trkpt><trkpt lat="45.833893020156665" lon="14.316633372905333"><ele>658.0</ele><time>2026-05-01T17:05:03Z</time></trkpt><trkpt lat="45.83404235916508" lon="14.316511980703568"><ele>658.0</ele><time>2026-05-01T17:05:04Z</time></trkpt><trkpt lat="45.83419382512141" lon="14.31640827809394"><ele>658.0</ele><time>2026-05-01T17:05:05Z</time></trkpt><trkpt lat="45.8343163622033" lon="14.316311040205136"><ele>658.0</ele><time>2026-05-01T17:05:06Z</time></trkpt><trkpt lat="45.83444235432648" lon="14.316238970337185"><ele>658.0</ele><time>2026-05-01T17:05:07Z</time></trkpt><trkpt lat="45.834566944275345" lon="14.31615194366732"><ele>658.0</ele><time>2026-05-01T17:05:08Z</time></trkpt><trkpt lat="45.83467670024167" lon="14.316040398593653"><ele>658.0</ele><time>2026-05-01T17:05:09Z</time></trkpt><trkpt lat="45.83476754918691" lon="14.315915851809525"><ele>658.0</ele><time>2026-05-01T17:05:10Z</time></trkpt><trkpt lat="45.83486038562104" lon="14.315783753119645"><ele>658.0</ele><time>2026-05-01T17:05:11Z</time></trkpt><trkpt lat="45.83494939262092" lon="14.315647933364614"><ele>658.5</ele><time>2026-05-01T17:05:12Z</time></trkpt><trkpt lat="45.83504855870856" lon="14.315518153244719"><ele>659.0</ele><time>2026-05-01T17:05:13Z</time></trkpt><trkpt lat="45.83514599733598" lon="14.315382484823475"><ele>659.5</ele><time>2026-05-01T17:05:14Z</time></trkpt><trkpt lat="45.835238108288245" lon="14.315227913307538"><ele>660.0</ele><time>2026-05-01T17:05:15Z</time></trkpt><trkpt lat="45.83532265543201" lon="14.315066591900449"><ele>660.0</ele><time>2026-05-01T17:05:16Z</time></trkpt><trkpt lat="45.835402617344414" lon="14.314900710730022"><ele>660.0</ele><time>2026-05-01T17:05:17Z</time></trkpt><trkpt lat="45.835482862961115" lon="14.314734397980141"><ele>660.0</ele><time>2026-05-01T17:05:17.999Z</time></trkpt><trkpt lat="45.835565791042086" lon="14.314571138303725"><ele>660.0</ele><time>2026-05-01T17:05:18.999Z</time></trkpt><trkpt lat="45.83566855600239" lon="14.314428291139588"><ele>660.5</ele><time>2026-05-01T17:05:19.999Z</time></trkpt><trkpt lat="45.83577490299318" lon="14.314301286307515"><ele>661.0</ele><time>2026-05-01T17:05:20.999Z</time></trkpt><trkpt lat="45.83585543112547" lon="14.314169219963944"><ele>661.5</ele><time>2026-05-01T17:05:21.999Z</time></trkpt><trkpt lat="45.835950962933445" lon="14.31406988522227"><ele>662.0</ele><time>2026-05-01T17:05:22.999Z</time></trkpt><trkpt lat="45.83606121745897" lon="14.314040686518188"><ele>662.0</ele><time>2026-05-01T17:05:23.999Z</time></trkpt><trkpt lat="45.83617266731671" lon="14.314009439325272"><ele>662.0</ele><time>2026-05-01T17:05:24.999Z</time></trkpt><trkpt lat="45.8363044577401" lon="14.313966603731318"><ele>662.0</ele><time>2026-05-01T17:05:25.999Z</time></trkpt><trkpt lat="45.83645176345071" lon="14.313927898470975"><ele>662.0</ele><time>2026-05-01T17:05:26.999Z</time></trkpt><trkpt lat="45.83661603089166" lon="14.31391221280617"><ele>662.0</ele><time>2026-05-01T17:05:27.999Z</time></trkpt><trkpt lat="45.83678226813905" lon="14.31391435062378"><ele>662.0</ele><time>2026-05-01T17:05:28.999Z</time></trkpt><trkpt lat="45.836948528544816" lon="14.3138622887697"><ele>662.0</ele><time>2026-05-01T17:05:29.999Z</time></trkpt><trkpt lat="45.83710641460139" lon="14.313800316925095"><ele>663.0</ele><time>2026-05-01T17:05:30.999Z</time></trkpt><trkpt lat="45.83724459043638" lon="14.313731791043173"><ele>664.0</ele><time>2026-05-01T17:05:31.999Z</time></trkpt><trkpt lat="45.8373588465162" lon="14.313656132382802"><ele>665.0</ele><time>2026-05-01T17:05:32.999Z</time></trkpt><trkpt lat="45.83744596206503" lon="14.313583975996957"><ele>666.0</ele><time>2026-05-01T17:05:33.999Z</time></trkpt><trkpt lat="45.837499528394936" lon="14.313505678486111"><ele>667.0</ele><time>2026-05-01T17:05:34.999Z</time></trkpt><trkpt lat="45.83752477516652" lon="14.313388618486703"><ele>667.0</ele><time>2026-05-01T17:05:35.999Z</time></trkpt><trkpt lat="45.83758811572368" lon="14.313257460885678"><ele>667.0</ele><time>2026-05-01T17:05:36.999Z</time></trkpt><trkpt lat="45.83763353151045" lon="14.313096387281451"><ele>667.0</ele><time>2026-05-01T17:05:37.999Z</time></trkpt><trkpt lat="45.83770153587751" lon="14.312974485526992"><ele>667.0</ele><time>2026-05-01T17:05:38.999Z</time></trkpt><trkpt lat="45.83780814429253" lon="14.312946050285754"><ele>667.0</ele><time>2026-05-01T17:05:39.999Z</time></trkpt><trkpt lat="45.83790391900965" lon="14.312964547507429"><ele>668.25</ele><time>2026-05-01T17:05:40.999Z</time></trkpt><trkpt lat="45.83802075253723" lon="14.312960733698889"><ele>669.5</ele><time>2026-05-01T17:05:41.999Z</time></trkpt><trkpt lat="45.83816504022574" lon="14.31293976562582"><ele>670.75</ele><time>2026-05-01T17:05:42.999Z</time></trkpt><trkpt lat="45.83830589558886" lon="14.312919386885815"><ele>672.0</ele><time>2026-05-01T17:05:43.999Z</time></trkpt><trkpt lat="45.83842553329022" lon="14.312902582110414"><ele>670.0</ele><time>2026-05-01T17:05:44.999Z</time></trkpt><trkpt lat="45.83853037182735" lon="14.312904819960448"><ele>668.0</ele><time>2026-05-01T17:05:45.999Z</time></trkpt><trkpt lat="45.838609799129394" lon="14.312904101649067"><ele>666.0</ele><time>2026-05-01T17:05:46.999Z</time></trkpt><trkpt lat="45.83867826880099" lon="14.312898556541143"><ele>664.0</ele><time>2026-05-01T17:05:47.999Z</time></trkpt><trkpt lat="45.838736220202485" lon="14.312844383460414"><ele>662.0</ele><time>2026-05-01T17:05:48.999Z</time></trkpt><trkpt lat="45.83879052158924" lon="14.31272226528325"><ele>660.0</ele><time>2026-05-01T17:05:49.999Z</time></trkpt><trkpt lat="45.83884455768355" lon="14.312558037911927"><ele>660.0</ele><time>2026-05-01T17:05:50.999Z</time></trkpt><trkpt lat="45.83893084715903" lon="14.312414068548334"><ele>660.0</ele><time>2026-05-01T17:05:51.999Z</time></trkpt><trkpt lat="45.83898362498228" lon="14.312258258375667"><ele>660.0</ele><time>2026-05-01T17:05:52.999Z</time></trkpt><trkpt lat="45.83904831870779" lon="14.312125536789512"><ele>660.0</ele><time>2026-05-01T17:05:53.999Z</time></trkpt><trkpt lat="45.83912219471973" lon="14.31200899813624"><ele>659.6</ele><time>2026-05-01T17:05:54.999Z</time></trkpt><trkpt lat="45.83919546137245" lon="14.311906747456975"><ele>659.2</ele><time>2026-05-01T17:05:55.999Z</time></trkpt><trkpt lat="45.839293363137" lon="14.311819042675044"><ele>658.8</ele><time>2026-05-01T17:05:56.999Z</time></trkpt><trkpt lat="45.83937624182909" lon="14.311719176844145"><ele>658.4</ele><time>2026-05-01T17:05:57.999Z</time></trkpt><trkpt lat="45.83942733091929" lon="14.311594152434024"><ele>658.0</ele><time>2026-05-01T17:05:58.999Z</time></trkpt><trkpt lat="45.839491720592214" lon="14.31148067825035"><ele>655.75</ele><time>2026-05-01T17:05:59.999Z</time></trkpt><trkpt lat="45.839539305320784" lon="14.311332209978985"><ele>653.5</ele><time>2026-05-01T17:06:00.999Z</time></trkpt><trkpt lat="45.839587399768426" lon="14.311171673756277"><ele>651.25</ele><time>2026-05-01T17:06:01.999Z</time></trkpt><trkpt lat="45.839647723271405" lon="14.311017948982492"><ele>649.0</ele><time>2026-05-01T17:06:02.999Z</time></trkpt><trkpt lat="45.83966937970347" lon="14.310826954783685"><ele>649.0</ele><time>2026-05-01T17:06:03.999Z</time></trkpt><trkpt lat="45.83972161626014" lon="14.310652431928428"><ele>649.0</ele><time>2026-05-01T17:06:04.999Z</time></trkpt><trkpt lat="45.839743441168636" lon="14.3104810052338"><ele>649.0</ele><time>2026-05-01T17:06:05.999Z</time></trkpt><trkpt lat="45.8397869844377" lon="14.310339596339436"><ele>649.0</ele><time>2026-05-01T17:06:06.999Z</time></trkpt><trkpt lat="45.83984779502921" lon="14.310230378772456"><ele>649.25</ele><time>2026-05-01T17:06:07.999Z</time></trkpt><trkpt lat="45.839944765822814" lon="14.310156736563302"><ele>649.5</ele><time>2026-05-01T17:06:08.999Z</time></trkpt><trkpt lat="45.84007267054363" lon="14.310220323948919"><ele>649.75</ele><time>2026-05-01T17:06:09.999Z</time></trkpt><trkpt lat="45.84018531907796" lon="14.3102428668213"><ele>650.0</ele><time>2026-05-01T17:06:10.999Z</time></trkpt><trkpt lat="45.840302550256865" lon="14.310263144958334"><ele>650.0</ele><time>2026-05-01T17:06:11.999Z</time></trkpt><trkpt lat="45.840418389183505" lon="14.31029690278536"><ele>650.0</ele><time>2026-05-01T17:06:12.999Z</time></trkpt><trkpt lat="45.84059768760586" lon="14.310319093600528"><ele>650.0</ele><time>2026-05-01T17:06:14.999Z</time></trkpt><trkpt lat="45.84068946572163" lon="14.310321185650594"><ele>650.0</ele><time>2026-05-01T17:06:15.999Z</time></trkpt><trkpt lat="45.84078073379988" lon="14.310273701818032"><ele>650.0</ele><time>2026-05-01T17:06:16.999Z</time></trkpt><trkpt lat="45.84083127816006" lon="14.310121472488019"><ele>650.0</ele><time>2026-05-01T17:06:17.999Z</time></trkpt><trkpt lat="45.840873920841354" lon="14.31000091654185"><ele>650.0</ele><time>2026-05-01T17:06:18.999Z</time></trkpt><trkpt lat="45.84092401216339" lon="14.309876386942106"><ele>650.0</ele><time>2026-05-01T17:06:19.999Z</time></trkpt><trkpt lat="45.84099337257537" lon="14.309711013736749"><ele>650.0</ele><time>2026-05-01T17:06:20.999Z</time></trkpt><trkpt lat="45.84108940156772" lon="14.309514185257974"><ele>649.0</ele><time>2026-05-01T17:06:21.999Z</time></trkpt><trkpt lat="45.841175866373945" lon="14.309330583112764"><ele>648.0</ele><time>2026-05-01T17:06:22.999Z</time></trkpt><trkpt lat="45.84124356772149" lon="14.309194396135933"><ele>647.0</ele><time>2026-05-01T17:06:23.999Z</time></trkpt><trkpt lat="45.84130548733131" lon="14.30908273776995"><ele>646.0</ele><time>2026-05-01T17:06:24.999Z</time></trkpt><trkpt lat="45.84137265450409" lon="14.308980472838762"><ele>645.5</ele><time>2026-05-01T17:06:25.999Z</time></trkpt><trkpt lat="45.84145452411858" lon="14.308874978017679"><ele>645.0</ele><time>2026-05-01T17:06:26.999Z</time></trkpt><trkpt lat="45.841560256431286" lon="14.308775758274797"><ele>644.5</ele><time>2026-05-01T17:06:27.999Z</time></trkpt><trkpt lat="45.841690581301684" lon="14.30869990432248"><ele>644.0</ele><time>2026-05-01T17:06:28.999Z</time></trkpt><trkpt lat="45.84181852908197" lon="14.308653380492597"><ele>639.0</ele><time>2026-05-01T17:06:29.999Z</time></trkpt><trkpt lat="45.841927317442476" lon="14.30863023434598"><ele>639.0</ele><time>2026-05-01T17:06:30.999Z</time></trkpt><trkpt lat="45.842022280124816" lon="14.308623739126414"><ele>639.0</ele><time>2026-05-01T17:06:31.999Z</time></trkpt><trkpt lat="45.84210327788469" lon="14.30860354054266"><ele>639.0</ele><time>2026-05-01T17:06:32.999Z</time></trkpt><trkpt lat="45.84220232433625" lon="14.308589408736527"><ele>639.0</ele><time>2026-05-01T17:06:34.999Z</time></trkpt></trkseg><trkseg><trkpt lat="45.77275321578635" lon="14.205168422987873"><ele>545.0</ele><time>2026-05-02T05:38:45.999Z</time></trkpt><trkpt lat="45.772689000743206" lon="14.205171934736974"><ele>539.0</ele><time>2026-05-02T05:38:48Z</time></trkpt><trkpt lat="45.772617359017794" lon="14.205174805285145"><ele>539.0</ele><time>2026-05-02T05:38:50Z</time></trkpt><trkpt lat="45.772545552308664" lon="14.205183777366534"><ele>539.0</ele><time>2026-05-02T05:38:52Z</time></trkpt><trkpt lat="45.7724837665081" lon="14.20520565966667"><ele>539.0</ele><time>2026-05-02T05:38:55Z</time></trkpt><trkpt lat="45.772428714832806" lon="14.20525948603189"><ele>539.0</ele><time>2026-05-02T05:39:10Z</time></trkpt></trkseg></trk></gpx>